<?xml version='1.0' encoding='UTF-8'?><gpx version="1.1" creator="JPX - https://github.com/jenetics/jpx" xmlns="http://www.topografix.com/GPX/1/1"><trk><trkseg><trkpt lat="43.7344731" lon="11.6552114"><ele>698.0</ele><time>2026-04-12T06:22:12.14Z</time></trkpt><trkpt lat="43.7344093" lon="11.6552152"><ele>698.0</ele><time>2026-04-12T06:22:20.129Z</time></trkpt><trkpt lat="43.7343448" lon="11.6552395"><ele>698.0</ele><time>2026-04-12T06:22:27.145Z</time></trkpt><trkpt lat="43.734268" lon="11.6552946"><ele>698.0</ele><time>2026-04-12T06:22:30.147Z</time></trkpt><trkpt lat="43.7341476" lon="11.6553575"><ele>698.0</ele><time>2026-04-12T06:22:32.167Z</time></trkpt><trkpt lat="43.7340542" lon="11.655402"><ele>698.0</ele><time>2026-04-12T06:22:34.176Z</time></trkpt><trkpt lat="43.7339259" lon="11.6554804"><ele>698.0</ele><time>2026-04-12T06:22:36.157Z</time></trkpt><trkpt lat="43.7338513" lon="11.6555362"><ele>698.0</ele><time>2026-04-12T06:22:37.16Z</time></trkpt><trkpt lat="43.7337258" lon="11.6557019"><ele>698.0</ele><time>2026-04-12T06:22:39.12Z</time></trkpt><trkpt lat="43.7336557" lon="11.6558233"><ele>698.0</ele><time>2026-04-12T06:22:40.093Z</time></trkpt><trkpt lat="43.7335847" lon="11.655939"><ele>697.0</ele><time>2026-04-12T06:22:41.115Z</time></trkpt><trkpt lat="43.733517" lon="11.6560525"><ele>696.0</ele><time>2026-04-12T06:22:42.181Z</time></trkpt><trkpt lat="43.7334525" lon="11.6561537"><ele>695.0</ele><time>2026-04-12T06:22:43.185Z</time></trkpt><trkpt lat="43.7333862" lon="11.6562529"><ele>694.0</ele><time>2026-04-12T06:22:44.095Z</time></trkpt><trkpt lat="43.7333152" lon="11.6563627"><ele>693.0</ele><time>2026-04-12T06:22:45.136Z</time></trkpt><trkpt lat="43.7332462" lon="11.6564801"><ele>693.0</ele><time>2026-04-12T06:22:46.174Z</time></trkpt><trkpt lat="43.7331767" lon="11.6565969"><ele>693.0</ele><time>2026-04-12T06:22:47.107Z</time></trkpt><trkpt lat="43.7331077" lon="11.6567109"><ele>693.0</ele><time>2026-04-12T06:22:48.077Z</time></trkpt><trkpt lat="43.7330373" lon="11.6568309"><ele>693.0</ele><time>2026-04-12T06:22:49.105Z</time></trkpt><trkpt lat="43.7329717" lon="11.6569533"><ele>693.0</ele><time>2026-04-12T06:22:50.126Z</time></trkpt><trkpt lat="43.7329148" lon="11.6570726"><ele>695.2</ele><time>2026-04-12T06:22:51.112Z</time></trkpt><trkpt lat="43.7328556" lon="11.6571894"><ele>697.4</ele><time>2026-04-12T06:22:52.133Z</time></trkpt><trkpt lat="43.7327911" lon="11.6573044"><ele>699.6</ele><time>2026-04-12T06:22:53.095Z</time></trkpt><trkpt lat="43.7327255" lon="11.657419"><ele>701.8000000000001</ele><time>2026-04-12T06:22:54.091Z</time></trkpt><trkpt lat="43.732656" lon="11.6575346"><ele>704.0</ele><time>2026-04-12T06:22:55.118Z</time></trkpt><trkpt lat="43.732588" lon="11.6576521"><ele>704.0</ele><time>2026-04-12T06:22:56.126Z</time></trkpt><trkpt lat="43.7325239" lon="11.6577774"><ele>704.0</ele><time>2026-04-12T06:22:57.138Z</time></trkpt><trkpt lat="43.732462" lon="11.6579051"><ele>704.0</ele><time>2026-04-12T06:22:58.159Z</time></trkpt><trkpt lat="43.7324041" lon="11.6580559"><ele>704.0</ele><time>2026-04-12T06:22:59.141Z</time></trkpt><trkpt lat="43.7323642" lon="11.6582285"><ele>699.0</ele><time>2026-04-12T06:23:00.147Z</time></trkpt><trkpt lat="43.7323404" lon="11.6583968"><ele>694.0</ele><time>2026-04-12T06:23:01.158Z</time></trkpt><trkpt lat="43.7323317" lon="11.6585665"><ele>689.0</ele><time>2026-04-12T06:23:02.154Z</time></trkpt><trkpt lat="43.7323264" lon="11.6587298"><ele>684.0</ele><time>2026-04-12T06:23:03.155Z</time></trkpt><trkpt lat="43.7323254" lon="11.6588855"><ele>681.2</ele><time>2026-04-12T06:23:04.167Z</time></trkpt><trkpt lat="43.7323373" lon="11.65904"><ele>678.4000000000001</ele><time>2026-04-12T06:23:05.074Z</time></trkpt><trkpt lat="43.7323477" lon="11.6591933"><ele>675.6</ele><time>2026-04-12T06:23:06.075Z</time></trkpt><trkpt lat="43.7323672" lon="11.6593402"><ele>672.8</ele><time>2026-04-12T06:23:07.093Z</time></trkpt><trkpt lat="43.7323884" lon="11.6594787"><ele>670.0</ele><time>2026-04-12T06:23:08.166Z</time></trkpt><trkpt lat="43.7324078" lon="11.65962"><ele>668.8</ele><time>2026-04-12T06:23:09.103Z</time></trkpt><trkpt lat="43.7324158" lon="11.6597633"><ele>667.6</ele><time>2026-04-12T06:23:10.158Z</time></trkpt><trkpt lat="43.7324144" lon="11.6598943"><ele>666.4000000000001</ele><time>2026-04-12T06:23:11.171Z</time></trkpt><trkpt lat="43.7323957" lon="11.6600131"><ele>665.2</ele><time>2026-04-12T06:23:12.161Z</time></trkpt><trkpt lat="43.7323654" lon="11.6601261"><ele>664.0</ele><time>2026-04-12T06:23:13.136Z</time></trkpt><trkpt lat="43.7323229" lon="11.6602378"><ele>662.5</ele><time>2026-04-12T06:23:14.143Z</time></trkpt><trkpt lat="43.7322814" lon="11.6603563"><ele>661.0</ele><time>2026-04-12T06:23:15.112Z</time></trkpt><trkpt lat="43.7322327" lon="11.6604548"><ele>659.5</ele><time>2026-04-12T06:23:16.116Z</time></trkpt><trkpt lat="43.7321698" lon="11.6605378"><ele>658.0</ele><time>2026-04-12T06:23:17.146Z</time></trkpt><trkpt lat="43.7321008" lon="11.6606147"><ele>656.5</ele><time>2026-04-12T06:23:18.148Z</time></trkpt><trkpt lat="43.7320353" lon="11.6606912"><ele>655.0</ele><time>2026-04-12T06:23:19.171Z</time></trkpt><trkpt lat="43.7319623" lon="11.6607514"><ele>658.4</ele><time>2026-04-12T06:23:20.093Z</time></trkpt><trkpt lat="43.7318776" lon="11.6607942"><ele>661.8</ele><time>2026-04-12T06:23:21.088Z</time></trkpt><trkpt lat="43.7317724" lon="11.6608371"><ele>665.2</ele><time>2026-04-12T06:23:22.136Z</time></trkpt><trkpt lat="43.7316811" lon="11.660861"><ele>668.6</ele><time>2026-04-12T06:23:23.09Z</time></trkpt><trkpt lat="43.7315924" lon="11.660905"><ele>672.0</ele><time>2026-04-12T06:23:24.115Z</time></trkpt><trkpt lat="43.7315364" lon="11.6609855"><ele>672.5</ele><time>2026-04-12T06:23:25.137Z</time></trkpt><trkpt lat="43.731525" lon="11.661168"><ele>673.0</ele><time>2026-04-12T06:23:27.096Z</time></trkpt><trkpt lat="43.7315597" lon="11.6612459"><ele>673.5</ele><time>2026-04-12T06:23:28.142Z</time></trkpt><trkpt lat="43.7316147" lon="11.6613086"><ele>674.0</ele><time>2026-04-12T06:23:29.139Z</time></trkpt><trkpt lat="43.731689" lon="11.6613561"><ele>674.5</ele><time>2026-04-12T06:23:30.14Z</time></trkpt><trkpt lat="43.7317642" lon="11.661404"><ele>675.0</ele><time>2026-04-12T06:23:31.145Z</time></trkpt><trkpt lat="43.7318391" lon="11.6614594"><ele>670.2</ele><time>2026-04-12T06:23:32.168Z</time></trkpt><trkpt lat="43.7319162" lon="11.6615233"><ele>665.4</ele><time>2026-04-12T06:23:33.148Z</time></trkpt><trkpt lat="43.731992" lon="11.6615843"><ele>660.5999999999999</ele><time>2026-04-12T06:23:34.159Z</time></trkpt><trkpt lat="43.7320752" lon="11.6616523"><ele>655.8</ele><time>2026-04-12T06:23:35.184Z</time></trkpt><trkpt lat="43.7321625" lon="11.6617162"><ele>651.0</ele><time>2026-04-12T06:23:36.164Z</time></trkpt><trkpt lat="43.7322554" lon="11.6617729"><ele>651.0</ele><time>2026-04-12T06:23:37.163Z</time></trkpt><trkpt lat="43.7323511" lon="11.6618199"><ele>651.0</ele><time>2026-04-12T06:23:38.079Z</time></trkpt><trkpt lat="43.732454" lon="11.6618526"><ele>651.0</ele><time>2026-04-12T06:23:39.099Z</time></trkpt><trkpt lat="43.7325498" lon="11.6618652"><ele>651.0</ele><time>2026-04-12T06:23:40.175Z</time></trkpt><trkpt lat="43.7326233" lon="11.6618936"><ele>651.0</ele><time>2026-04-12T06:23:41.173Z</time></trkpt><trkpt lat="43.7326903" lon="11.6619841"><ele>652.3333333333334</ele><time>2026-04-12T06:23:43.129Z</time></trkpt><trkpt lat="43.7326502" lon="11.6621056"><ele>653.6666666666666</ele><time>2026-04-12T06:23:45.15Z</time></trkpt><trkpt lat="43.7326103" lon="11.6621804"><ele>655.0</ele><time>2026-04-12T06:23:46.152Z</time></trkpt><trkpt lat="43.7325676" lon="11.6622683"><ele>656.3333333333333</ele><time>2026-04-12T06:23:47.111Z</time></trkpt><trkpt lat="43.7325211" lon="11.6623618"><ele>657.6666666666666</ele><time>2026-04-12T06:23:48.151Z</time></trkpt><trkpt lat="43.7324943" lon="11.6624794"><ele>659.0</ele><time>2026-04-12T06:23:49.186Z</time></trkpt><trkpt lat="43.7325003" lon="11.6625956"><ele>659.0</ele><time>2026-04-12T06:23:50.169Z</time></trkpt><trkpt lat="43.7325369" lon="11.6626985"><ele>659.0</ele><time>2026-04-12T06:23:51.153Z</time></trkpt><trkpt lat="43.7326" lon="11.6627858"><ele>659.0</ele><time>2026-04-12T06:23:52.135Z</time></trkpt><trkpt lat="43.7326858" lon="11.6628794"><ele>659.0</ele><time>2026-04-12T06:23:53.07Z</time></trkpt><trkpt lat="43.7327858" lon="11.6629814"><ele>659.0</ele><time>2026-04-12T06:23:54.096Z</time></trkpt><trkpt lat="43.7328569" lon="11.6631034"><ele>657.0</ele><time>2026-04-12T06:23:55.176Z</time></trkpt><trkpt lat="43.7329261" lon="11.6632217"><ele>655.0</ele><time>2026-04-12T06:23:56.167Z</time></trkpt><trkpt lat="43.7329889" lon="11.6633268"><ele>653.0</ele><time>2026-04-12T06:23:57.146Z</time></trkpt><trkpt lat="43.7330474" lon="11.6634337"><ele>651.0</ele><time>2026-04-12T06:23:58.171Z</time></trkpt><trkpt lat="43.7330862" lon="11.6635411"><ele>649.0</ele><time>2026-04-12T06:23:59.181Z</time></trkpt><trkpt lat="43.7331065" lon="11.6636436"><ele>649.0</ele><time>2026-04-12T06:24:00.168Z</time></trkpt><trkpt lat="43.7330793" lon="11.6637447"><ele>649.0</ele><time>2026-04-12T06:24:01.162Z</time></trkpt><trkpt lat="43.7329994" lon="11.6638339"><ele>649.0</ele><time>2026-04-12T06:24:02.101Z</time></trkpt><trkpt lat="43.7329025" lon="11.6638701"><ele>649.0</ele><time>2026-04-12T06:24:03.126Z</time></trkpt><trkpt lat="43.7327812" lon="11.663879"><ele>649.0</ele><time>2026-04-12T06:24:04.16Z</time></trkpt><trkpt lat="43.7326579" lon="11.6638738"><ele>650.75</ele><time>2026-04-12T06:24:05.156Z</time></trkpt><trkpt lat="43.7325324" lon="11.6638676"><ele>652.5</ele><time>2026-04-12T06:24:06.161Z</time></trkpt><trkpt lat="43.7324166" lon="11.6638644"><ele>654.25</ele><time>2026-04-12T06:24:07.119Z</time></trkpt><trkpt lat="43.7322987" lon="11.6638654"><ele>656.0</ele><time>2026-04-12T06:24:08.16Z</time></trkpt><trkpt lat="43.7321791" lon="11.6638674"><ele>656.0</ele><time>2026-04-12T06:24:09.083Z</time></trkpt><trkpt lat="43.7320562" lon="11.6638806"><ele>656.0</ele><time>2026-04-12T06:24:10.091Z</time></trkpt><trkpt lat="43.7319355" lon="11.663912"><ele>656.0</ele><time>2026-04-12T06:24:11.171Z</time></trkpt><trkpt lat="43.7318131" lon="11.6639562"><ele>656.0</ele><time>2026-04-12T06:24:12.375Z</time></trkpt><trkpt lat="43.731583" lon="11.6640861"><ele>657.5</ele><time>2026-04-12T06:24:14.149Z</time></trkpt><trkpt lat="43.7314699" lon="11.6641486"><ele>659.0</ele><time>2026-04-12T06:24:15.162Z</time></trkpt><trkpt lat="43.7313529" lon="11.664207"><ele>660.5</ele><time>2026-04-12T06:24:16.212Z</time></trkpt><trkpt lat="43.7312304" lon="11.664267"><ele>662.0</ele><time>2026-04-12T06:24:17.143Z</time></trkpt><trkpt lat="43.7311033" lon="11.6643072"><ele>663.6666666666666</ele><time>2026-04-12T06:24:18.107Z</time></trkpt><trkpt lat="43.7309702" lon="11.6643075"><ele>665.3333333333334</ele><time>2026-04-12T06:24:19.155Z</time></trkpt><trkpt lat="43.7308391" lon="11.6642587"><ele>667.0</ele><time>2026-04-12T06:24:20.361Z</time></trkpt><trkpt lat="43.7305748" lon="11.6641505"><ele>667.0</ele><time>2026-04-12T06:24:22.154Z</time></trkpt><trkpt lat="43.7304404" lon="11.6640982"><ele>667.0</ele><time>2026-04-12T06:24:23.163Z</time></trkpt><trkpt lat="43.730306" lon="11.6640444"><ele>667.0</ele><time>2026-04-12T06:24:24.171Z</time></trkpt><trkpt lat="43.7301667" lon="11.6639822"><ele>667.0</ele><time>2026-04-12T06:24:25.16Z</time></trkpt><trkpt lat="43.7300331" lon="11.6639234"><ele>667.6666666666667</ele><time>2026-04-12T06:24:26.162Z</time></trkpt><trkpt lat="43.7298946" lon="11.663866"><ele>668.3333333333334</ele><time>2026-04-12T06:24:27.463Z</time></trkpt><trkpt lat="43.7296236" lon="11.6637549"><ele>669.0</ele><time>2026-04-12T06:24:29.161Z</time></trkpt><trkpt lat="43.7294899" lon="11.6636974"><ele>668.25</ele><time>2026-04-12T06:24:30.115Z</time></trkpt><trkpt lat="43.7293647" lon="11.6636463"><ele>667.5</ele><time>2026-04-12T06:24:31.087Z</time></trkpt><trkpt lat="43.7292466" lon="11.6635877"><ele>666.75</ele><time>2026-04-12T06:24:32.096Z</time></trkpt><trkpt lat="43.7291368" lon="11.6635199"><ele>666.0</ele><time>2026-04-12T06:24:33.176Z</time></trkpt><trkpt lat="43.7290324" lon="11.6634403"><ele>672.75</ele><time>2026-04-12T06:24:34.179Z</time></trkpt><trkpt lat="43.7289291" lon="11.6633568"><ele>679.5</ele><time>2026-04-12T06:24:35.11Z</time></trkpt><trkpt lat="43.7288227" lon="11.6632675"><ele>686.25</ele><time>2026-04-12T06:24:36.164Z</time></trkpt><trkpt lat="43.7287129" lon="11.6631836"><ele>693.0</ele><time>2026-04-12T06:24:37.164Z</time></trkpt><trkpt lat="43.7286021" lon="11.6631034"><ele>691.25</ele><time>2026-04-12T06:24:38.141Z</time></trkpt><trkpt lat="43.7284941" lon="11.6630141"><ele>689.5</ele><time>2026-04-12T06:24:39.126Z</time></trkpt><trkpt lat="43.7283784" lon="11.6629366"><ele>687.75</ele><time>2026-04-12T06:24:40.149Z</time></trkpt><trkpt lat="43.7282723" lon="11.6628457"><ele>686.0</ele><time>2026-04-12T06:24:41.171Z</time></trkpt><trkpt lat="43.7281741" lon="11.6627685"><ele>689.4</ele><time>2026-04-12T06:24:42.174Z</time></trkpt><trkpt lat="43.728084" lon="11.6626908"><ele>692.8</ele><time>2026-04-12T06:24:43.169Z</time></trkpt><trkpt lat="43.728003" lon="11.6626169"><ele>696.1999999999999</ele><time>2026-04-12T06:24:44.162Z</time></trkpt><trkpt lat="43.7279205" lon="11.6625471"><ele>699.5999999999999</ele><time>2026-04-12T06:24:45.164Z</time></trkpt><trkpt lat="43.7278304" lon="11.662479"><ele>703.0</ele><time>2026-04-12T06:24:46.151Z</time></trkpt><trkpt lat="43.7277443" lon="11.662409"><ele>702.8</ele><time>2026-04-12T06:24:47.169Z</time></trkpt><trkpt lat="43.7276579" lon="11.6623272"><ele>702.5999999999999</ele><time>2026-04-12T06:24:48.162Z</time></trkpt><trkpt lat="43.7275755" lon="11.6622318"><ele>702.4000000000001</ele><time>2026-04-12T06:24:49.083Z</time></trkpt><trkpt lat="43.7274914" lon="11.6621392"><ele>702.2</ele><time>2026-04-12T06:24:50.082Z</time></trkpt><trkpt lat="43.7274142" lon="11.6620404"><ele>702.0</ele><time>2026-04-12T06:24:51.107Z</time></trkpt><trkpt lat="43.7273467" lon="11.6619287"><ele>702.0</ele><time>2026-04-12T06:24:52.119Z</time></trkpt><trkpt lat="43.7273059" lon="11.6618046"><ele>702.0</ele><time>2026-04-12T06:24:53.1Z</time></trkpt><trkpt lat="43.7272938" lon="11.6616604"><ele>702.0</ele><time>2026-04-12T06:24:54.084Z</time></trkpt><trkpt lat="43.7272945" lon="11.661505"><ele>702.0</ele><time>2026-04-12T06:24:55.095Z</time></trkpt><trkpt lat="43.7272937" lon="11.6613594"><ele>702.0</ele><time>2026-04-12T06:24:56.066Z</time></trkpt><trkpt lat="43.7272893" lon="11.6612233"><ele>703.3333333333334</ele><time>2026-04-12T06:24:57.085Z</time></trkpt><trkpt lat="43.7272714" lon="11.6611034"><ele>704.6666666666666</ele><time>2026-04-12T06:24:58.096Z</time></trkpt><trkpt lat="43.7272343" lon="11.6610096"><ele>706.0</ele><time>2026-04-12T06:24:59.073Z</time></trkpt><trkpt lat="43.727172" lon="11.660921"><ele>707.3333333333333</ele><time>2026-04-12T06:25:00.075Z</time></trkpt><trkpt lat="43.7270983" lon="11.6608371"><ele>708.6666666666666</ele><time>2026-04-12T06:25:01.088Z</time></trkpt><trkpt lat="43.7270096" lon="11.6607925"><ele>710.0</ele><time>2026-04-12T06:25:02.081Z</time></trkpt><trkpt lat="43.7269143" lon="11.6607694"><ele>708.25</ele><time>2026-04-12T06:25:03.079Z</time></trkpt><trkpt lat="43.7268196" lon="11.6607685"><ele>706.5</ele><time>2026-04-12T06:25:04.128Z</time></trkpt><trkpt lat="43.7267229" lon="11.6607745"><ele>704.75</ele><time>2026-04-12T06:25:05.068Z</time></trkpt><trkpt lat="43.7266193" lon="11.6607814"><ele>703.0</ele><time>2026-04-12T06:25:06.073Z</time></trkpt><trkpt lat="43.7264086" lon="11.660762"><ele>703.0</ele><time>2026-04-12T06:25:08.126Z</time></trkpt><trkpt lat="43.7263029" lon="11.660725"><ele>703.0</ele><time>2026-04-12T06:25:09.061Z</time></trkpt><trkpt lat="43.726204" lon="11.6606717"><ele>703.0</ele><time>2026-04-12T06:25:10.081Z</time></trkpt><trkpt lat="43.7261031" lon="11.6606219"><ele>703.0</ele><time>2026-04-12T06:25:11.097Z</time></trkpt><trkpt lat="43.7260047" lon="11.6605705"><ele>703.0</ele><time>2026-04-12T06:25:12.071Z</time></trkpt><trkpt lat="43.7259052" lon="11.660525"><ele>702.2</ele><time>2026-04-12T06:25:13.073Z</time></trkpt><trkpt lat="43.725808" lon="11.6604765"><ele>701.4</ele><time>2026-04-12T06:25:14.068Z</time></trkpt><trkpt lat="43.7257122" lon="11.6604385"><ele>700.6</ele><time>2026-04-12T06:25:15.063Z</time></trkpt><trkpt lat="43.7256146" lon="11.6604008"><ele>699.8000000000001</ele><time>2026-04-12T06:25:16.093Z</time></trkpt><trkpt lat="43.7255173" lon="11.6603525"><ele>699.0</ele><time>2026-04-12T06:25:17.084Z</time></trkpt><trkpt lat="43.7254198" lon="11.6603118"><ele>700.8000000000001</ele><time>2026-04-12T06:25:18.073Z</time></trkpt><trkpt lat="43.7253178" lon="11.6602716"><ele>702.6</ele><time>2026-04-12T06:25:19.082Z</time></trkpt><trkpt lat="43.7252171" lon="11.6602324"><ele>704.4</ele><time>2026-04-12T06:25:20.164Z</time></trkpt><trkpt lat="43.7251194" lon="11.660188"><ele>706.2</ele><time>2026-04-12T06:25:21.157Z</time></trkpt><trkpt lat="43.7250191" lon="11.6601451"><ele>708.0</ele><time>2026-04-12T06:25:22.181Z</time></trkpt><trkpt lat="43.724915" lon="11.6600913"><ele>708.0</ele><time>2026-04-12T06:25:23.128Z</time></trkpt><trkpt lat="43.7248182" lon="11.6600311"><ele>708.0</ele><time>2026-04-12T06:25:24.169Z</time></trkpt><trkpt lat="43.7247177" lon="11.6599619"><ele>708.0</ele><time>2026-04-12T06:25:25.165Z</time></trkpt><trkpt lat="43.724618" lon="11.6598856"><ele>708.0</ele><time>2026-04-12T06:25:26.151Z</time></trkpt><trkpt lat="43.7245246" lon="11.659803"><ele>708.0</ele><time>2026-04-12T06:25:27.083Z</time></trkpt><trkpt lat="43.7244359" lon="11.6597127"><ele>707.5999999999999</ele><time>2026-04-12T06:25:28.218Z</time></trkpt><trkpt lat="43.7243543" lon="11.6596157"><ele>707.1999999999999</ele><time>2026-04-12T06:25:29.167Z</time></trkpt><trkpt lat="43.7242707" lon="11.6595191"><ele>706.8</ele><time>2026-04-12T06:25:30.134Z</time></trkpt><trkpt lat="43.7241897" lon="11.659411"><ele>706.4</ele><time>2026-04-12T06:25:31.142Z</time></trkpt><trkpt lat="43.7241048" lon="11.6593043"><ele>706.0</ele><time>2026-04-12T06:25:32.109Z</time></trkpt><trkpt lat="43.7240217" lon="11.6591993"><ele>708.3333333333334</ele><time>2026-04-12T06:25:33.359Z</time></trkpt><trkpt lat="43.72385" lon="11.6589994"><ele>710.6666666666666</ele><time>2026-04-12T06:25:35.348Z</time></trkpt><trkpt lat="43.7236467" lon="11.6588731"><ele>713.0</ele><time>2026-04-12T06:25:37.381Z</time></trkpt><trkpt lat="43.7234209" lon="11.6588821"><ele>713.0</ele><time>2026-04-12T06:25:39.151Z</time></trkpt><trkpt lat="43.7233022" lon="11.6589092"><ele>713.0</ele><time>2026-04-12T06:25:40.165Z</time></trkpt><trkpt lat="43.7231878" lon="11.6589229"><ele>713.0</ele><time>2026-04-12T06:25:41.215Z</time></trkpt><trkpt lat="43.7229547" lon="11.6589061"><ele>713.0</ele><time>2026-04-12T06:25:43.134Z</time></trkpt><trkpt lat="43.7228462" lon="11.65889"><ele>713.0</ele><time>2026-04-12T06:25:44.139Z</time></trkpt><trkpt lat="43.7227442" lon="11.6588908"><ele>713.0</ele><time>2026-04-12T06:25:45.188Z</time></trkpt><trkpt lat="43.7226465" lon="11.6589249"><ele>713.0</ele><time>2026-04-12T06:25:46.183Z</time></trkpt><trkpt lat="43.7225451" lon="11.6589741"><ele>713.0</ele><time>2026-04-12T06:25:47.378Z</time></trkpt><trkpt lat="43.7223428" lon="11.6592474"><ele>714.3333333333333</ele><time>2026-04-12T06:25:49.155Z</time></trkpt><trkpt lat="43.7222378" lon="11.6593939"><ele>715.6666666666666</ele><time>2026-04-12T06:25:50.169Z</time></trkpt><trkpt lat="43.7221202" lon="11.6595037"><ele>717.0</ele><time>2026-04-12T06:25:51.398Z</time></trkpt><trkpt lat="43.7218842" lon="11.6596524"><ele>716.8</ele><time>2026-04-12T06:25:53.181Z</time></trkpt><trkpt lat="43.7217842" lon="11.659697"><ele>716.6</ele><time>2026-04-12T06:25:54.116Z</time></trkpt><trkpt lat="43.7216939" lon="11.6597032"><ele>716.4</ele><time>2026-04-12T06:25:55.112Z</time></trkpt><trkpt lat="43.7216213" lon="11.6596482"><ele>716.1999999999999</ele><time>2026-04-12T06:25:56.063Z</time></trkpt><trkpt lat="43.7215805" lon="11.6595409"><ele>716.0</ele><time>2026-04-12T06:25:57.107Z</time></trkpt><trkpt lat="43.721559" lon="11.6594013"><ele>716.0</ele><time>2026-04-12T06:25:58.091Z</time></trkpt><trkpt lat="43.7215549" lon="11.6592535"><ele>716.0</ele><time>2026-04-12T06:25:59.094Z</time></trkpt><trkpt lat="43.7215603" lon="11.6590831"><ele>716.0</ele><time>2026-04-12T06:26:00.103Z</time></trkpt><trkpt lat="43.7215589" lon="11.6588901"><ele>716.0</ele><time>2026-04-12T06:26:01.173Z</time></trkpt><trkpt lat="43.7215535" lon="11.6586796"><ele>717.3333333333333</ele><time>2026-04-12T06:26:02.112Z</time></trkpt><trkpt lat="43.7215469" lon="11.6584636"><ele>718.6666666666666</ele><time>2026-04-12T06:26:03.11Z</time></trkpt><trkpt lat="43.7215428" lon="11.6582369"><ele>720.0</ele><time>2026-04-12T06:26:04.098Z</time></trkpt><trkpt lat="43.7215277" lon="11.6580031"><ele>723.0</ele><time>2026-04-12T06:26:05.106Z</time></trkpt><trkpt lat="43.7215011" lon="11.6577695"><ele>726.0</ele><time>2026-04-12T06:26:06.096Z</time></trkpt><trkpt lat="43.7214659" lon="11.6575448"><ele>729.0</ele><time>2026-04-12T06:26:07.291Z</time></trkpt><trkpt lat="43.7213755" lon="11.6571312"><ele>732.0</ele><time>2026-04-12T06:26:09.172Z</time></trkpt><trkpt lat="43.7213203" lon="11.6569354"><ele>735.0</ele><time>2026-04-12T06:26:10.17Z</time></trkpt><trkpt lat="43.7212463" lon="11.6567492"><ele>738.0</ele><time>2026-04-12T06:26:11.125Z</time></trkpt><trkpt lat="43.7211419" lon="11.6565785"><ele>736.0</ele><time>2026-04-12T06:26:12.182Z</time></trkpt><trkpt lat="43.7210036" lon="11.6564157"><ele>734.0</ele><time>2026-04-12T06:26:13.124Z</time></trkpt><trkpt lat="43.7208479" lon="11.6562432"><ele>732.0</ele><time>2026-04-12T06:26:14.161Z</time></trkpt><trkpt lat="43.7206863" lon="11.6560602"><ele>732.0</ele><time>2026-04-12T06:26:15.143Z</time></trkpt><trkpt lat="43.7205526" lon="11.6558843"><ele>732.0</ele><time>2026-04-12T06:26:16.079Z</time></trkpt><trkpt lat="43.7204299" lon="11.655729"><ele>732.0</ele><time>2026-04-12T06:26:17.091Z</time></trkpt><trkpt lat="43.7203131" lon="11.6556088"><ele>731.6666666666666</ele><time>2026-04-12T06:26:18.165Z</time></trkpt><trkpt lat="43.7202257" lon="11.655513"><ele>731.3333333333334</ele><time>2026-04-12T06:26:19.169Z</time></trkpt><trkpt lat="43.7201678" lon="11.6554395"><ele>731.0</ele><time>2026-04-12T06:26:20.111Z</time></trkpt><trkpt lat="43.7201008" lon="11.6553443"><ele>730.6666666666667</ele><time>2026-04-12T06:26:22.214Z</time></trkpt><trkpt lat="43.7200521" lon="11.6552866"><ele>730.3333333333334</ele><time>2026-04-12T06:26:23.19Z</time></trkpt><trkpt lat="43.7199779" lon="11.6552301"><ele>730.0</ele><time>2026-04-12T06:26:24.184Z</time></trkpt><trkpt lat="43.719886" lon="11.6551662"><ele>730.0</ele><time>2026-04-12T06:26:25.173Z</time></trkpt><trkpt lat="43.7197831" lon="11.6551001"><ele>730.0</ele><time>2026-04-12T06:26:26.183Z</time></trkpt><trkpt lat="43.7196829" lon="11.6550247"><ele>730.0</ele><time>2026-04-12T06:26:27.17Z</time></trkpt><trkpt lat="43.7195735" lon="11.6549458"><ele>730.0</ele><time>2026-04-12T06:26:28.143Z</time></trkpt><trkpt lat="43.7194668" lon="11.6548615"><ele>727.5</ele><time>2026-04-12T06:26:29.171Z</time></trkpt><trkpt lat="43.7193631" lon="11.6547753"><ele>725.0</ele><time>2026-04-12T06:26:30.103Z</time></trkpt><trkpt lat="43.7192557" lon="11.6546916"><ele>722.5</ele><time>2026-04-12T06:26:31.105Z</time></trkpt><trkpt lat="43.7191573" lon="11.6545921"><ele>720.0</ele><time>2026-04-12T06:26:32.113Z</time></trkpt><trkpt lat="43.7190747" lon="11.6544859"><ele>722.4</ele><time>2026-04-12T06:26:33.152Z</time></trkpt><trkpt lat="43.7190089" lon="11.6543619"><ele>724.8</ele><time>2026-04-12T06:26:34.111Z</time></trkpt><trkpt lat="43.7189629" lon="11.6542358"><ele>727.2</ele><time>2026-04-12T06:26:35.119Z</time></trkpt><trkpt lat="43.7189279" lon="11.654102"><ele>729.6</ele><time>2026-04-12T06:26:36.101Z</time></trkpt><trkpt lat="43.7189006" lon="11.6539612"><ele>732.0</ele><time>2026-04-12T06:26:37.115Z</time></trkpt><trkpt lat="43.7188854" lon="11.6538252"><ele>732.0</ele><time>2026-04-12T06:26:38.096Z</time></trkpt><trkpt lat="43.7188655" lon="11.6536912"><ele>732.0</ele><time>2026-04-12T06:26:39.112Z</time></trkpt><trkpt lat="43.7188364" lon="11.6535601"><ele>732.0</ele><time>2026-04-12T06:26:40.393Z</time></trkpt><trkpt lat="43.7187169" lon="11.6533794"><ele>732.0</ele><time>2026-04-12T06:26:42.108Z</time></trkpt><trkpt lat="43.7186118" lon="11.6533705"><ele>732.75</ele><time>2026-04-12T06:26:43.134Z</time></trkpt><trkpt lat="43.7184972" lon="11.653405"><ele>733.5</ele><time>2026-04-12T06:26:44.136Z</time></trkpt><trkpt lat="43.7183671" lon="11.6534343"><ele>734.25</ele><time>2026-04-12T06:26:45.093Z</time></trkpt><trkpt lat="43.718229" lon="11.6534471"><ele>735.0</ele><time>2026-04-12T06:26:46.115Z</time></trkpt><trkpt lat="43.7181" lon="11.6534224"><ele>735.0</ele><time>2026-04-12T06:26:47.171Z</time></trkpt><trkpt lat="43.717978" lon="11.6533669"><ele>735.0</ele><time>2026-04-12T06:26:48.107Z</time></trkpt><trkpt lat="43.7178488" lon="11.6532925"><ele>735.0</ele><time>2026-04-12T06:26:49.179Z</time></trkpt><trkpt lat="43.717697" lon="11.6532063"><ele>735.0</ele><time>2026-04-12T06:26:50.237Z</time></trkpt><trkpt lat="43.7173285" lon="11.653046"><ele>735.6666666666666</ele><time>2026-04-12T06:26:52.121Z</time></trkpt><trkpt lat="43.7171542" lon="11.6529517"><ele>736.3333333333333</ele><time>2026-04-12T06:26:53.102Z</time></trkpt><trkpt lat="43.717028" lon="11.6528398"><ele>737.0</ele><time>2026-04-12T06:26:54.147Z</time></trkpt><trkpt lat="43.7169341" lon="11.6527077"><ele>736.75</ele><time>2026-04-12T06:26:55.181Z</time></trkpt><trkpt lat="43.7168688" lon="11.6525285"><ele>736.5</ele><time>2026-04-12T06:26:56.15Z</time></trkpt><trkpt lat="43.7168245" lon="11.652341"><ele>736.25</ele><time>2026-04-12T06:26:57.194Z</time></trkpt><trkpt lat="43.7168059" lon="11.6521445"><ele>736.0</ele><time>2026-04-12T06:26:58.162Z</time></trkpt><trkpt lat="43.7168136" lon="11.6519533"><ele>738.8</ele><time>2026-04-12T06:26:59.152Z</time></trkpt><trkpt lat="43.7168328" lon="11.6517808"><ele>741.5999999999999</ele><time>2026-04-12T06:27:00.158Z</time></trkpt><trkpt lat="43.7168385" lon="11.6516247"><ele>744.4</ele><time>2026-04-12T06:27:01.107Z</time></trkpt><trkpt lat="43.7168079" lon="11.6514903"><ele>747.2</ele><time>2026-04-12T06:27:02.105Z</time></trkpt><trkpt lat="43.7167483" lon="11.6513927"><ele>750.0</ele><time>2026-04-12T06:27:03.226Z</time></trkpt><trkpt lat="43.7165576" lon="11.6513134"><ele>750.0</ele><time>2026-04-12T06:27:05.127Z</time></trkpt><trkpt lat="43.7164554" lon="11.651334"><ele>750.0</ele><time>2026-04-12T06:27:06.147Z</time></trkpt><trkpt lat="43.7163526" lon="11.651387"><ele>750.0</ele><time>2026-04-12T06:27:07.341Z</time></trkpt><trkpt lat="43.7161263" lon="11.6516158"><ele>750.25</ele><time>2026-04-12T06:27:09.093Z</time></trkpt><trkpt lat="43.7160067" lon="11.651763"><ele>750.5</ele><time>2026-04-12T06:27:10.16Z</time></trkpt><trkpt lat="43.7159181" lon="11.6518809"><ele>750.75</ele><time>2026-04-12T06:27:11.101Z</time></trkpt><trkpt lat="43.7158172" lon="11.6519698"><ele>751.0</ele><time>2026-04-12T06:27:12.345Z</time></trkpt><trkpt lat="43.7156059" lon="11.6519258"><ele>751.0</ele><time>2026-04-12T06:27:14.133Z</time></trkpt><trkpt lat="43.7154993" lon="11.6518356"><ele>751.0</ele><time>2026-04-12T06:27:15.151Z</time></trkpt><trkpt lat="43.7154034" lon="11.6517669"><ele>751.0</ele><time>2026-04-12T06:27:16.354Z</time></trkpt><trkpt lat="43.7153084" lon="11.6517648"><ele>751.0</ele><time>2026-04-12T06:27:17.154Z</time></trkpt><trkpt lat="43.7152324" lon="11.6518155"><ele>751.0</ele><time>2026-04-12T06:27:18.153Z</time></trkpt><trkpt lat="43.7151746" lon="11.6518569"><ele>751.0</ele><time>2026-04-12T06:27:19.156Z</time></trkpt><trkpt lat="43.7151203" lon="11.6519885"><ele>751.0</ele><time>2026-04-12T06:27:21.169Z</time></trkpt><trkpt lat="43.7151112" lon="11.6521028"><ele>751.0</ele><time>2026-04-12T06:27:22.15Z</time></trkpt><trkpt lat="43.7151128" lon="11.6522229"><ele>751.0</ele><time>2026-04-12T06:27:23.152Z</time></trkpt><trkpt lat="43.7151182" lon="11.6523677"><ele>751.0</ele><time>2026-04-12T06:27:24.132Z</time></trkpt><trkpt lat="43.7151189" lon="11.6525215"><ele>751.0</ele><time>2026-04-12T06:27:25.12Z</time></trkpt><trkpt lat="43.7151028" lon="11.6526518"><ele>751.0</ele><time>2026-04-12T06:27:26.13Z</time></trkpt><trkpt lat="43.7150762" lon="11.6527597"><ele>751.0</ele><time>2026-04-12T06:27:27.186Z</time></trkpt><trkpt lat="43.7150181" lon="11.6528272"><ele>751.0</ele><time>2026-04-12T06:27:28.104Z</time></trkpt><trkpt lat="43.7149467" lon="11.6528854"><ele>751.0</ele><time>2026-04-12T06:27:29.156Z</time></trkpt><trkpt lat="43.714836" lon="11.6529142"><ele>751.0</ele><time>2026-04-12T06:27:30.091Z</time></trkpt><trkpt lat="43.7147148" lon="11.6529598"><ele>749.75</ele><time>2026-04-12T06:27:31.122Z</time></trkpt><trkpt lat="43.7145875" lon="11.6530233"><ele>748.5</ele><time>2026-04-12T06:27:32.169Z</time></trkpt><trkpt lat="43.7144672" lon="11.6531204"><ele>747.25</ele><time>2026-04-12T06:27:33.172Z</time></trkpt><trkpt lat="43.7143484" lon="11.6532337"><ele>746.0</ele><time>2026-04-12T06:27:34.149Z</time></trkpt><trkpt lat="43.7142366" lon="11.6533575"><ele>746.0</ele><time>2026-04-12T06:27:35.148Z</time></trkpt><trkpt lat="43.714122" lon="11.6534759"><ele>746.0</ele><time>2026-04-12T06:27:36.178Z</time></trkpt><trkpt lat="43.7140118" lon="11.653577"><ele>746.0</ele><time>2026-04-12T06:27:37.174Z</time></trkpt><trkpt lat="43.7139072" lon="11.6536278"><ele>746.0</ele><time>2026-04-12T06:27:38.178Z</time></trkpt><trkpt lat="43.7137809" lon="11.6536399"><ele>742.5</ele><time>2026-04-12T06:27:39.11Z</time></trkpt><trkpt lat="43.7136598" lon="11.6536377"><ele>739.0</ele><time>2026-04-12T06:27:40.165Z</time></trkpt><trkpt lat="43.7135165" lon="11.6536672"><ele>735.5</ele><time>2026-04-12T06:27:41.164Z</time></trkpt><trkpt lat="43.7133706" lon="11.6537351"><ele>732.0</ele><time>2026-04-12T06:27:42.164Z</time></trkpt><trkpt lat="43.713243" lon="11.6538207"><ele>732.0</ele><time>2026-04-12T06:27:43.126Z</time></trkpt><trkpt lat="43.7131179" lon="11.6539044"><ele>732.0</ele><time>2026-04-12T06:27:44.168Z</time></trkpt><trkpt lat="43.7129987" lon="11.6539828"><ele>732.0</ele><time>2026-04-12T06:27:45.112Z</time></trkpt><trkpt lat="43.712881" lon="11.6540655"><ele>732.0</ele><time>2026-04-12T06:27:46.17Z</time></trkpt><trkpt lat="43.7127637" lon="11.6541439"><ele>732.75</ele><time>2026-04-12T06:27:47.187Z</time></trkpt><trkpt lat="43.7126458" lon="11.6542051"><ele>733.5</ele><time>2026-04-12T06:27:48.161Z</time></trkpt><trkpt lat="43.7125239" lon="11.6542478"><ele>734.25</ele><time>2026-04-12T06:27:49.182Z</time></trkpt><trkpt lat="43.7124031" lon="11.6542553"><ele>735.0</ele><time>2026-04-12T06:27:50.188Z</time></trkpt><trkpt lat="43.7122862" lon="11.6542415"><ele>735.0</ele><time>2026-04-12T06:27:51.168Z</time></trkpt><trkpt lat="43.7121808" lon="11.6542234"><ele>735.0</ele><time>2026-04-12T06:27:52.375Z</time></trkpt><trkpt lat="43.7119891" lon="11.6542435"><ele>735.0</ele><time>2026-04-12T06:27:54.137Z</time></trkpt><trkpt lat="43.711914" lon="11.6542724"><ele>735.0</ele><time>2026-04-12T06:27:55.13Z</time></trkpt><trkpt lat="43.7118494" lon="11.6543323"><ele>735.4</ele><time>2026-04-12T06:27:56.156Z</time></trkpt><trkpt lat="43.7118014" lon="11.6544028"><ele>735.8</ele><time>2026-04-12T06:27:57.376Z</time></trkpt><trkpt lat="43.7117447" lon="11.6545588"><ele>736.2</ele><time>2026-04-12T06:27:59.155Z</time></trkpt><trkpt lat="43.7117973" lon="11.6546594"><ele>736.6</ele><time>2026-04-12T06:28:01.144Z</time></trkpt><trkpt lat="43.7118714" lon="11.6546915"><ele>737.0</ele><time>2026-04-12T06:28:02.348Z</time></trkpt><trkpt lat="43.7120244" lon="11.6547582"><ele>734.6666666666666</ele><time>2026-04-12T06:28:04.138Z</time></trkpt><trkpt lat="43.7120925" lon="11.6548156"><ele>732.3333333333333</ele><time>2026-04-12T06:28:05.371Z</time></trkpt><trkpt lat="43.7122002" lon="11.6549209"><ele>730.0</ele><time>2026-04-12T06:28:07.374Z</time></trkpt><trkpt lat="43.7122748" lon="11.6549276"><ele>727.6666666666666</ele><time>2026-04-12T06:28:09.172Z</time></trkpt><trkpt lat="43.7123175" lon="11.6548632"><ele>725.3333333333334</ele><time>2026-04-12T06:28:11.462Z</time></trkpt><trkpt lat="43.712293" lon="11.6547808"><ele>723.0</ele><time>2026-04-12T06:28:21.365Z</time></trkpt><trkpt lat="43.7123555" lon="11.6546899"><ele>723.0</ele><time>2026-04-12T06:28:47.287Z</time></trkpt><trkpt lat="43.7122861" lon="11.6547827"><ele>723.0</ele><time>2026-04-12T06:29:52.062Z</time></trkpt><trkpt lat="43.7116773" lon="11.6539403"><ele>723.0</ele><time>2026-04-12T06:29:54.093Z</time></trkpt><trkpt lat="43.7122537" lon="11.6546179"><ele>723.0</ele><time>2026-04-12T06:30:11.69Z</time></trkpt><trkpt lat="43.7121859" lon="11.6545985"><ele>723.0</ele><time>2026-04-12T06:31:09.059Z</time></trkpt><trkpt lat="43.7120536" lon="11.6546018"><ele>723.0</ele><time>2026-04-12T06:31:11.056Z</time></trkpt><trkpt lat="43.7119747" lon="11.6546104"><ele>723.0</ele><time>2026-04-12T06:31:12.097Z</time></trkpt><trkpt lat="43.7118873" lon="11.6546064"><ele>723.0</ele><time>2026-04-12T06:31:13.053Z</time></trkpt><trkpt lat="43.7117227" lon="11.6545911"><ele>723.4</ele><time>2026-04-12T06:31:16.091Z</time></trkpt><trkpt lat="43.7116487" lon="11.654583"><ele>723.8</ele><time>2026-04-12T06:31:17.093Z</time></trkpt><trkpt lat="43.7115512" lon="11.6545943"><ele>724.2</ele><time>2026-04-12T06:31:19.065Z</time></trkpt><trkpt lat="43.7116746" lon="11.654672"><ele>724.6</ele><time>2026-04-12T06:31:22.06Z</time></trkpt><trkpt lat="43.7117635" lon="11.6547015"><ele>725.0</ele><time>2026-04-12T06:31:23.058Z</time></trkpt><trkpt lat="43.7118419" lon="11.6547261"><ele>724.6666666666666</ele><time>2026-04-12T06:31:24.069Z</time></trkpt><trkpt lat="43.711946" lon="11.6547456"><ele>724.3333333333333</ele><time>2026-04-12T06:31:26.067Z</time></trkpt><trkpt lat="43.7120306" lon="11.6547501"><ele>724.0</ele><time>2026-04-12T06:31:28.097Z</time></trkpt><trkpt lat="43.7121104" lon="11.6547129"><ele>723.6666666666666</ele><time>2026-04-12T06:31:31.1Z</time></trkpt><trkpt lat="43.7121767" lon="11.6546722"><ele>723.3333333333334</ele><time>2026-04-12T06:31:33.096Z</time></trkpt><trkpt lat="43.7122333" lon="11.6546318"><ele>723.0</ele><time>2026-04-12T06:31:35.099Z</time></trkpt><trkpt lat="43.7122247" lon="11.6545293"><ele>723.0</ele><time>2026-04-12T06:31:44.047Z</time></trkpt><trkpt lat="43.7121584" lon="11.6545344"><ele>723.0</ele><time>2026-04-12T06:31:46.062Z</time></trkpt><trkpt lat="43.7120652" lon="11.6545707"><ele>723.0</ele><time>2026-04-12T06:31:48.085Z</time></trkpt><trkpt lat="43.7119315" lon="11.6546157"><ele>723.0</ele><time>2026-04-12T06:31:50.089Z</time></trkpt><trkpt lat="43.7122316" lon="11.6546621"><ele>723.0</ele><time>2026-04-12T06:32:03.564Z</time></trkpt><trkpt lat="43.7122983" lon="11.6548274"><ele>723.0</ele><time>2026-04-12T06:32:13.335Z</time></trkpt><trkpt lat="43.7122921" lon="11.6547121"><ele>723.0</ele><time>2026-04-12T06:34:31.1Z</time></trkpt><trkpt lat="43.7122447" lon="11.6546436"><ele>723.0</ele><time>2026-04-12T06:34:34.101Z</time></trkpt><trkpt lat="43.7121776" lon="11.6545978"><ele>723.0</ele><time>2026-04-12T06:34:37.103Z</time></trkpt><trkpt lat="43.7121305" lon="11.6545207"><ele>723.0</ele><time>2026-04-12T06:34:39.106Z</time></trkpt><trkpt lat="43.7120984" lon="11.6544312"><ele>725.0</ele><time>2026-04-12T06:34:41.104Z</time></trkpt><trkpt lat="43.7120944" lon="11.6543375"><ele>727.0</ele><time>2026-04-12T06:34:43.074Z</time></trkpt><trkpt lat="43.7120984" lon="11.6542149"><ele>729.0</ele><time>2026-04-12T06:34:46.12Z</time></trkpt><trkpt lat="43.7120849" lon="11.6541034"><ele>731.0</ele><time>2026-04-12T06:34:49.107Z</time></trkpt><trkpt lat="43.712064" lon="11.6540095"><ele>733.0</ele><time>2026-04-12T06:34:55.098Z</time></trkpt><trkpt lat="43.7121308" lon="11.6539838"><ele>735.0</ele><time>2026-04-12T06:35:00.088Z</time></trkpt><trkpt lat="43.7121978" lon="11.654062"><ele>735.0</ele><time>2026-04-12T06:35:03.105Z</time></trkpt><trkpt lat="43.7122429" lon="11.6541497"><ele>735.0</ele><time>2026-04-12T06:35:05.111Z</time></trkpt><trkpt lat="43.7122502" lon="11.6542436"><ele>735.0</ele><time>2026-04-12T06:35:07.108Z</time></trkpt><trkpt lat="43.7122607" lon="11.6546942"><ele>732.6</ele><time>2026-04-12T06:35:21.888Z</time></trkpt><trkpt lat="43.712091" lon="11.6546275"><ele>730.2</ele><time>2026-04-12T06:36:28.101Z</time></trkpt><trkpt lat="43.712197" lon="11.6546007"><ele>727.8</ele><time>2026-04-12T06:36:41.1Z</time></trkpt><trkpt lat="43.7122675" lon="11.6546585"><ele>725.4</ele><time>2026-04-12T06:36:44.112Z</time></trkpt><trkpt lat="43.7123314" lon="11.6547225"><ele>723.0</ele><time>2026-04-12T06:36:47.113Z</time></trkpt><trkpt lat="43.7123394" lon="11.6548641"><ele>723.0</ele><time>2026-04-12T06:36:52.332Z</time></trkpt><trkpt lat="43.7123298" lon="11.6549579"><ele>723.0</ele><time>2026-04-12T06:36:57.116Z</time></trkpt><trkpt lat="43.7122527" lon="11.6549871"><ele>723.0</ele><time>2026-04-12T06:37:02.276Z</time></trkpt><trkpt lat="43.7121908" lon="11.6549347"><ele>723.0</ele><time>2026-04-12T06:40:21.196Z</time></trkpt><trkpt lat="43.7121155" lon="11.6548457"><ele>723.0</ele><time>2026-04-12T06:40:25.488Z</time></trkpt><trkpt lat="43.712031" lon="11.6547833"><ele>723.0</ele><time>2026-04-12T06:40:28.405Z</time></trkpt><trkpt lat="43.7119592" lon="11.6547513"><ele>723.3333333333334</ele><time>2026-04-12T06:40:30.373Z</time></trkpt><trkpt lat="43.7118398" lon="11.654701"><ele>723.6666666666666</ele><time>2026-04-12T06:40:34.168Z</time></trkpt><trkpt lat="43.7117708" lon="11.6546626"><ele>724.0</ele><time>2026-04-12T06:40:37.178Z</time></trkpt><trkpt lat="43.7118006" lon="11.6545582"><ele>724.3333333333333</ele><time>2026-04-12T06:40:40.095Z</time></trkpt><trkpt lat="43.7118397" lon="11.6544876"><ele>724.6666666666666</ele><time>2026-04-12T06:40:42.104Z</time></trkpt><trkpt lat="43.7118946" lon="11.6543992"><ele>725.0</ele><time>2026-04-12T06:40:45.096Z</time></trkpt><trkpt lat="43.711813" lon="11.6544328"><ele>725.0</ele><time>2026-04-12T06:41:28.186Z</time></trkpt><trkpt lat="43.7117686" lon="11.6545133"><ele>725.0</ele><time>2026-04-12T06:41:31.167Z</time></trkpt><trkpt lat="43.7117063" lon="11.6546617"><ele>725.0</ele><time>2026-04-12T06:42:20.432Z</time></trkpt><trkpt lat="43.7117718" lon="11.6546892"><ele>725.0</ele><time>2026-04-12T06:42:27.199Z</time></trkpt><trkpt lat="43.711884" lon="11.6547155"><ele>725.0</ele><time>2026-04-12T06:42:30.207Z</time></trkpt><trkpt lat="43.7119778" lon="11.6547672"><ele>724.6</ele><time>2026-04-12T06:42:32.195Z</time></trkpt><trkpt lat="43.7120826" lon="11.6548398"><ele>724.2</ele><time>2026-04-12T06:42:34.181Z</time></trkpt><trkpt lat="43.7121767" lon="11.654929"><ele>723.8</ele><time>2026-04-12T06:42:36.215Z</time></trkpt><trkpt lat="43.7122599" lon="11.6550394"><ele>723.4</ele><time>2026-04-12T06:42:39.196Z</time></trkpt><trkpt lat="43.7122142" lon="11.6549634"><ele>723.0</ele><time>2026-04-12T06:43:38.426Z</time></trkpt><trkpt lat="43.7121282" lon="11.654888"><ele>723.0</ele><time>2026-04-12T06:43:40.209Z</time></trkpt><trkpt lat="43.7120449" lon="11.6548007"><ele>723.0</ele><time>2026-04-12T06:43:42.181Z</time></trkpt><trkpt lat="43.7119357" lon="11.6547468"><ele>723.0</ele><time>2026-04-12T06:43:44.471Z</time></trkpt><trkpt lat="43.7118317" lon="11.6547096"><ele>723.0</ele><time>2026-04-12T06:43:46.178Z</time></trkpt><trkpt lat="43.711805" lon="11.6545967"><ele>723.0</ele><time>2026-04-12T06:43:48.138Z</time></trkpt><trkpt lat="43.7118765" lon="11.6544596"><ele>725.4</ele><time>2026-04-12T06:43:50.142Z</time></trkpt><trkpt lat="43.7119221" lon="11.6543941"><ele>727.8</ele><time>2026-04-12T06:43:51.139Z</time></trkpt><trkpt lat="43.7119809" lon="11.6543415"><ele>730.2</ele><time>2026-04-12T06:43:52.189Z</time></trkpt><trkpt lat="43.7120527" lon="11.6543135"><ele>732.6</ele><time>2026-04-12T06:43:53.163Z</time></trkpt><trkpt lat="43.7121282" lon="11.6542894"><ele>735.0</ele><time>2026-04-12T06:43:54.359Z</time></trkpt><trkpt lat="43.7122976" lon="11.6542796"><ele>735.0</ele><time>2026-04-12T06:43:56.192Z</time></trkpt><trkpt lat="43.7123855" lon="11.6542785"><ele>735.0</ele><time>2026-04-12T06:43:57.14Z</time></trkpt><trkpt lat="43.7124719" lon="11.654274"><ele>735.0</ele><time>2026-04-12T06:43:58.15Z</time></trkpt><trkpt lat="43.7125621" lon="11.6542775"><ele>735.0</ele><time>2026-04-12T06:43:59.092Z</time></trkpt><trkpt lat="43.7126549" lon="11.6542617"><ele>735.0</ele><time>2026-04-12T06:44:00.425Z</time></trkpt><trkpt lat="43.7128453" lon="11.6541642"><ele>734.4</ele><time>2026-04-12T06:44:02.127Z</time></trkpt><trkpt lat="43.7129454" lon="11.6541013"><ele>733.8</ele><time>2026-04-12T06:44:03.135Z</time></trkpt><trkpt lat="43.713042" lon="11.6540346"><ele>733.2</ele><time>2026-04-12T06:44:04.134Z</time></trkpt><trkpt lat="43.7131393" lon="11.6539649"><ele>732.6</ele><time>2026-04-12T06:44:05.113Z</time></trkpt><trkpt lat="43.713231" lon="11.6539074"><ele>732.0</ele><time>2026-04-12T06:44:06.1Z</time></trkpt><trkpt lat="43.7133158" lon="11.6538424"><ele>732.0</ele><time>2026-04-12T06:44:07.134Z</time></trkpt><trkpt lat="43.7134082" lon="11.6537772"><ele>732.0</ele><time>2026-04-12T06:44:08.371Z</time></trkpt><trkpt lat="43.7135961" lon="11.6536874"><ele>732.0</ele><time>2026-04-12T06:44:10.195Z</time></trkpt><trkpt lat="43.7137098" lon="11.6536948"><ele>732.0</ele><time>2026-04-12T06:44:11.166Z</time></trkpt><trkpt lat="43.7138211" lon="11.6537086"><ele>730.5</ele><time>2026-04-12T06:44:12.156Z</time></trkpt><trkpt lat="43.7139257" lon="11.6536977"><ele>729.0</ele><time>2026-04-12T06:44:13.123Z</time></trkpt><trkpt lat="43.714019" lon="11.6536564"><ele>727.5</ele><time>2026-04-12T06:44:14.159Z</time></trkpt><trkpt lat="43.7141141" lon="11.6535781"><ele>726.0</ele><time>2026-04-12T06:44:15.42Z</time></trkpt><trkpt lat="43.7143016" lon="11.6533705"><ele>729.6666666666666</ele><time>2026-04-12T06:44:17.188Z</time></trkpt><trkpt lat="43.7144043" lon="11.6532648"><ele>733.3333333333333</ele><time>2026-04-12T06:44:18.376Z</time></trkpt><trkpt lat="43.7146284" lon="11.653091"><ele>737.0</ele><time>2026-04-12T06:44:20.193Z</time></trkpt><trkpt lat="43.7147493" lon="11.6530405"><ele>737.0</ele><time>2026-04-12T06:44:21.133Z</time></trkpt><trkpt lat="43.7148623" lon="11.6530315"><ele>737.0</ele><time>2026-04-12T06:44:22.118Z</time></trkpt><trkpt lat="43.7149693" lon="11.6530289"><ele>737.0</ele><time>2026-04-12T06:44:23.178Z</time></trkpt><trkpt lat="43.7150624" lon="11.6529986"><ele>737.0</ele><time>2026-04-12T06:44:24.264Z</time></trkpt><trkpt lat="43.7152089" lon="11.652842"><ele>735.4000000000001</ele><time>2026-04-12T06:44:26.164Z</time></trkpt><trkpt lat="43.7152539" lon="11.6527244"><ele>733.8000000000001</ele><time>2026-04-12T06:44:27.174Z</time></trkpt><trkpt lat="43.7152809" lon="11.6525987"><ele>732.2</ele><time>2026-04-12T06:44:28.141Z</time></trkpt><trkpt lat="43.7152769" lon="11.6524434"><ele>730.6</ele><time>2026-04-12T06:44:29.169Z</time></trkpt><trkpt lat="43.7152589" lon="11.6522979"><ele>729.0</ele><time>2026-04-12T06:44:30.178Z</time></trkpt><trkpt lat="43.7152272" lon="11.6521501"><ele>733.4000000000001</ele><time>2026-04-12T06:44:31.183Z</time></trkpt><trkpt lat="43.7152073" lon="11.6520382"><ele>737.8</ele><time>2026-04-12T06:44:32.399Z</time></trkpt><trkpt lat="43.7152096" lon="11.6518934"><ele>742.2</ele><time>2026-04-12T06:44:34.249Z</time></trkpt><trkpt lat="43.7153211" lon="11.6518361"><ele>746.5999999999999</ele><time>2026-04-12T06:44:36.121Z</time></trkpt><trkpt lat="43.7154168" lon="11.6518784"><ele>751.0</ele><time>2026-04-12T06:44:37.182Z</time></trkpt><trkpt lat="43.7155028" lon="11.6519525"><ele>751.0</ele><time>2026-04-12T06:44:38.186Z</time></trkpt><trkpt lat="43.7155924" lon="11.652022"><ele>751.0</ele><time>2026-04-12T06:44:39.386Z</time></trkpt><trkpt lat="43.7157929" lon="11.6520117"><ele>751.0</ele><time>2026-04-12T06:44:41.193Z</time></trkpt><trkpt lat="43.7158912" lon="11.651947"><ele>751.0</ele><time>2026-04-12T06:44:42.142Z</time></trkpt><trkpt lat="43.7159821" lon="11.6518537"><ele>750.5</ele><time>2026-04-12T06:44:43.351Z</time></trkpt><trkpt lat="43.71616" lon="11.651644"><ele>750.0</ele><time>2026-04-12T06:44:45.24Z</time></trkpt><trkpt lat="43.7163318" lon="11.6514491"><ele>750.0</ele><time>2026-04-12T06:44:47.229Z</time></trkpt><trkpt lat="43.7164192" lon="11.6513845"><ele>750.0</ele><time>2026-04-12T06:44:48.183Z</time></trkpt><trkpt lat="43.716517" lon="11.6513465"><ele>750.0</ele><time>2026-04-12T06:44:49.15Z</time></trkpt><trkpt lat="43.71662" lon="11.6513399"><ele>750.0</ele><time>2026-04-12T06:44:50.117Z</time></trkpt><trkpt lat="43.7167061" lon="11.6513933"><ele>750.0</ele><time>2026-04-12T06:44:51.174Z</time></trkpt><trkpt lat="43.7167593" lon="11.6514883"><ele>750.0</ele><time>2026-04-12T06:44:52.163Z</time></trkpt><trkpt lat="43.7167867" lon="11.6516098"><ele>750.0</ele><time>2026-04-12T06:44:53.178Z</time></trkpt><trkpt lat="43.7167881" lon="11.6517256"><ele>750.0</ele><time>2026-04-12T06:44:54.173Z</time></trkpt><trkpt lat="43.7167723" lon="11.6518528"><ele>750.0</ele><time>2026-04-12T06:44:55.175Z</time></trkpt><trkpt lat="43.716745" lon="11.6519926"><ele>750.0</ele><time>2026-04-12T06:44:56.165Z</time></trkpt><trkpt lat="43.7167277" lon="11.6521342"><ele>745.6666666666666</ele><time>2026-04-12T06:44:57.359Z</time></trkpt><trkpt lat="43.716748" lon="11.652449"><ele>741.3333333333333</ele><time>2026-04-12T06:44:59.382Z</time></trkpt><trkpt lat="43.716853" lon="11.6527148"><ele>737.0</ele><time>2026-04-12T06:45:01.166Z</time></trkpt><trkpt lat="43.7169306" lon="11.652834"><ele>737.0</ele><time>2026-04-12T06:45:02.113Z</time></trkpt><trkpt lat="43.7170176" lon="11.6529328"><ele>737.0</ele><time>2026-04-12T06:45:03.137Z</time></trkpt><trkpt lat="43.7171214" lon="11.6530094"><ele>737.0</ele><time>2026-04-12T06:45:04.149Z</time></trkpt><trkpt lat="43.7172304" lon="11.6530712"><ele>737.0</ele><time>2026-04-12T06:45:05.109Z</time></trkpt><trkpt lat="43.7173364" lon="11.6531304"><ele>737.0</ele><time>2026-04-12T06:45:06.136Z</time></trkpt><trkpt lat="43.7174462" lon="11.6531868"><ele>737.0</ele><time>2026-04-12T06:45:07.208Z</time></trkpt><trkpt lat="43.7175538" lon="11.6532336"><ele>737.0</ele><time>2026-04-12T06:45:08.207Z</time></trkpt><trkpt lat="43.7176586" lon="11.6532825"><ele>737.0</ele><time>2026-04-12T06:45:09.213Z</time></trkpt><trkpt lat="43.7177633" lon="11.6533397"><ele>736.5</ele><time>2026-04-12T06:45:10.192Z</time></trkpt><trkpt lat="43.7178675" lon="11.6534099"><ele>736.0</ele><time>2026-04-12T06:45:11.204Z</time></trkpt><trkpt lat="43.7179773" lon="11.6534745"><ele>735.5</ele><time>2026-04-12T06:45:12.204Z</time></trkpt><trkpt lat="43.7180856" lon="11.6535259"><ele>735.0</ele><time>2026-04-12T06:45:13.168Z</time></trkpt><trkpt lat="43.7181983" lon="11.6535326"><ele>735.0</ele><time>2026-04-12T06:45:14.243Z</time></trkpt><trkpt lat="43.7184201" lon="11.6534578"><ele>735.0</ele><time>2026-04-12T06:45:16.118Z</time></trkpt><trkpt lat="43.7185336" lon="11.6534156"><ele>735.0</ele><time>2026-04-12T06:45:17.203Z</time></trkpt><trkpt lat="43.7186356" lon="11.6534056"><ele>735.0</ele><time>2026-04-12T06:45:18.197Z</time></trkpt><trkpt lat="43.7187284" lon="11.653446"><ele>734.4</ele><time>2026-04-12T06:45:19.14Z</time></trkpt><trkpt lat="43.7187867" lon="11.6535358"><ele>733.8</ele><time>2026-04-12T06:45:20.159Z</time></trkpt><trkpt lat="43.7188241" lon="11.6536475"><ele>733.2</ele><time>2026-04-12T06:45:21.126Z</time></trkpt><trkpt lat="43.7188447" lon="11.6537883"><ele>732.6</ele><time>2026-04-12T06:45:22.129Z</time></trkpt><trkpt lat="43.7188549" lon="11.6539488"><ele>732.0</ele><time>2026-04-12T06:45:23.167Z</time></trkpt><trkpt lat="43.7188706" lon="11.6541045"><ele>732.0</ele><time>2026-04-12T06:45:24.158Z</time></trkpt><trkpt lat="43.7189145" lon="11.6542594"><ele>732.0</ele><time>2026-04-12T06:45:25.21Z</time></trkpt><trkpt lat="43.7189765" lon="11.6544047"><ele>732.0</ele><time>2026-04-12T06:45:26.15Z</time></trkpt><trkpt lat="43.7190705" lon="11.654554"><ele>732.0</ele><time>2026-04-12T06:45:27.182Z</time></trkpt><trkpt lat="43.7191879" lon="11.6546702"><ele>731.3333333333334</ele><time>2026-04-12T06:45:28.183Z</time></trkpt><trkpt lat="43.7193142" lon="11.6547863"><ele>730.6666666666667</ele><time>2026-04-12T06:45:29.179Z</time></trkpt><trkpt lat="43.7194516" lon="11.6549043"><ele>730.0</ele><time>2026-04-12T06:45:30.162Z</time></trkpt><trkpt lat="43.7195875" lon="11.6550095"><ele>730.0</ele><time>2026-04-12T06:45:31.216Z</time></trkpt><trkpt lat="43.7197203" lon="11.6551115"><ele>730.0</ele><time>2026-04-12T06:45:32.201Z</time></trkpt><trkpt lat="43.7198527" lon="11.6552139"><ele>730.0</ele><time>2026-04-12T06:45:33.185Z</time></trkpt><trkpt lat="43.7199835" lon="11.6553159"><ele>730.5</ele><time>2026-04-12T06:45:34.094Z</time></trkpt><trkpt lat="43.7201095" lon="11.6554258"><ele>731.0</ele><time>2026-04-12T06:45:35.161Z</time></trkpt><trkpt lat="43.7202247" lon="11.6555516"><ele>731.5</ele><time>2026-04-12T06:45:36.187Z</time></trkpt><trkpt lat="43.7203358" lon="11.6556959"><ele>732.0</ele><time>2026-04-12T06:45:37.152Z</time></trkpt><trkpt lat="43.7204472" lon="11.655838"><ele>732.0</ele><time>2026-04-12T06:45:38.186Z</time></trkpt><trkpt lat="43.720561" lon="11.6559815"><ele>732.0</ele><time>2026-04-12T06:45:39.196Z</time></trkpt><trkpt lat="43.7206758" lon="11.6561206"><ele>732.0</ele><time>2026-04-12T06:45:40.11Z</time></trkpt><trkpt lat="43.7207853" lon="11.656256"><ele>733.5</ele><time>2026-04-12T06:45:41.122Z</time></trkpt><trkpt lat="43.7208945" lon="11.65639"><ele>735.0</ele><time>2026-04-12T06:45:42.186Z</time></trkpt><trkpt lat="43.721004" lon="11.6565214"><ele>736.5</ele><time>2026-04-12T06:45:43.126Z</time></trkpt><trkpt lat="43.7211081" lon="11.6566506"><ele>738.0</ele><time>2026-04-12T06:45:44.125Z</time></trkpt><trkpt lat="43.7212008" lon="11.6567811"><ele>738.0</ele><time>2026-04-12T06:45:45.2Z</time></trkpt><trkpt lat="43.7212672" lon="11.6569292"><ele>738.0</ele><time>2026-04-12T06:45:46.157Z</time></trkpt><trkpt lat="43.7213146" lon="11.6570945"><ele>738.0</ele><time>2026-04-12T06:45:47.126Z</time></trkpt><trkpt lat="43.7213524" lon="11.6572732"><ele>738.0</ele><time>2026-04-12T06:45:48.127Z</time></trkpt><trkpt lat="43.7213918" lon="11.6574527"><ele>735.75</ele><time>2026-04-12T06:45:49.198Z</time></trkpt><trkpt lat="43.721434" lon="11.6576377"><ele>733.5</ele><time>2026-04-12T06:45:50.136Z</time></trkpt><trkpt lat="43.7214669" lon="11.657811"><ele>731.25</ele><time>2026-04-12T06:45:51.13Z</time></trkpt><trkpt lat="43.721493" lon="11.6579855"><ele>729.0</ele><time>2026-04-12T06:45:52.138Z</time></trkpt><trkpt lat="43.7215153" lon="11.658165"><ele>726.75</ele><time>2026-04-12T06:45:53.143Z</time></trkpt><trkpt lat="43.7215261" lon="11.6583383"><ele>724.5</ele><time>2026-04-12T06:45:54.134Z</time></trkpt><trkpt lat="43.7215262" lon="11.6585041"><ele>722.25</ele><time>2026-04-12T06:45:55.196Z</time></trkpt><trkpt lat="43.7215314" lon="11.6586602"><ele>720.0</ele><time>2026-04-12T06:45:56.207Z</time></trkpt><trkpt lat="43.7215291" lon="11.6588199"><ele>719.2</ele><time>2026-04-12T06:45:57.189Z</time></trkpt><trkpt lat="43.7215303" lon="11.6589685"><ele>718.4</ele><time>2026-04-12T06:45:58.203Z</time></trkpt><trkpt lat="43.7215306" lon="11.6591101"><ele>717.5999999999999</ele><time>2026-04-12T06:45:59.187Z</time></trkpt><trkpt lat="43.7215274" lon="11.6592425"><ele>716.8</ele><time>2026-04-12T06:46:00.181Z</time></trkpt><trkpt lat="43.7215301" lon="11.6593708"><ele>716.0</ele><time>2026-04-12T06:46:01.151Z</time></trkpt><trkpt lat="43.7215392" lon="11.6594838"><ele>714.6666666666666</ele><time>2026-04-12T06:46:02.163Z</time></trkpt><trkpt lat="43.7215733" lon="11.6595818"><ele>713.3333333333333</ele><time>2026-04-12T06:46:03.164Z</time></trkpt><trkpt lat="43.7216303" lon="11.6596657"><ele>712.0</ele><time>2026-04-12T06:46:04.187Z</time></trkpt><trkpt lat="43.7217099" lon="11.6597113"><ele>710.6666666666666</ele><time>2026-04-12T06:46:05.192Z</time></trkpt><trkpt lat="43.7218023" lon="11.6597143"><ele>709.3333333333334</ele><time>2026-04-12T06:46:06.185Z</time></trkpt><trkpt lat="43.7218924" lon="11.6596793"><ele>708.0</ele><time>2026-04-12T06:46:07.2Z</time></trkpt><trkpt lat="43.7219849" lon="11.6596339"><ele>707.75</ele><time>2026-04-12T06:46:08.19Z</time></trkpt><trkpt lat="43.7220848" lon="11.659572"><ele>707.5</ele><time>2026-04-12T06:46:09.177Z</time></trkpt><trkpt lat="43.7221865" lon="11.6595026"><ele>707.25</ele><time>2026-04-12T06:46:10.195Z</time></trkpt><trkpt lat="43.7222876" lon="11.6594093"><ele>707.0</ele><time>2026-04-12T06:46:11.194Z</time></trkpt><trkpt lat="43.7223785" lon="11.659301"><ele>708.2</ele><time>2026-04-12T06:46:12.136Z</time></trkpt><trkpt lat="43.7224546" lon="11.6591897"><ele>709.4000000000001</ele><time>2026-04-12T06:46:13.142Z</time></trkpt><trkpt lat="43.7225267" lon="11.6590857"><ele>710.5999999999999</ele><time>2026-04-12T06:46:14.174Z</time></trkpt><trkpt lat="43.7225987" lon="11.6589959"><ele>711.8</ele><time>2026-04-12T06:46:15.159Z</time></trkpt><trkpt lat="43.7226713" lon="11.6589268"><ele>713.0</ele><time>2026-04-12T06:46:16.215Z</time></trkpt><trkpt lat="43.7227384" lon="11.6588875"><ele>713.0</ele><time>2026-04-12T06:46:17.197Z</time></trkpt><trkpt lat="43.7228175" lon="11.6588638"><ele>713.0</ele><time>2026-04-12T06:46:19.194Z</time></trkpt><trkpt lat="43.7228812" lon="11.6588567"><ele>713.0</ele><time>2026-04-12T06:46:21.214Z</time></trkpt><trkpt lat="43.7227596" lon="11.6587376"><ele>713.0</ele><time>2026-04-12T06:46:25.187Z</time></trkpt><trkpt lat="43.7226747" lon="11.6586896"><ele>713.0</ele><time>2026-04-12T06:46:26.19Z</time></trkpt><trkpt lat="43.7225859" lon="11.6586522"><ele>713.6666666666666</ele><time>2026-04-12T06:46:27.195Z</time></trkpt><trkpt lat="43.7225012" lon="11.6586235"><ele>714.3333333333333</ele><time>2026-04-12T06:46:28.193Z</time></trkpt><trkpt lat="43.7224196" lon="11.6585814"><ele>715.0</ele><time>2026-04-12T06:46:29.188Z</time></trkpt><trkpt lat="43.7223549" lon="11.658516"><ele>715.6666666666666</ele><time>2026-04-12T06:46:30.203Z</time></trkpt><trkpt lat="43.7222929" lon="11.6584411"><ele>716.3333333333334</ele><time>2026-04-12T06:46:31.192Z</time></trkpt><trkpt lat="43.722243" lon="11.6583591"><ele>717.0</ele><time>2026-04-12T06:46:32.148Z</time></trkpt><trkpt lat="43.7222125" lon="11.6582605"><ele>720.2</ele><time>2026-04-12T06:46:33.175Z</time></trkpt><trkpt lat="43.7221928" lon="11.6581288"><ele>723.4000000000001</ele><time>2026-04-12T06:46:34.171Z</time></trkpt><trkpt lat="43.7221748" lon="11.6579803"><ele>726.5999999999999</ele><time>2026-04-12T06:46:35.199Z</time></trkpt><trkpt lat="43.7221414" lon="11.6578268"><ele>729.8</ele><time>2026-04-12T06:46:36.209Z</time></trkpt><trkpt lat="43.7221087" lon="11.6576635"><ele>733.0</ele><time>2026-04-12T06:46:37.178Z</time></trkpt><trkpt lat="43.7220808" lon="11.6575035"><ele>737.75</ele><time>2026-04-12T06:46:38.181Z</time></trkpt><trkpt lat="43.722059" lon="11.6573372"><ele>742.5</ele><time>2026-04-12T06:46:39.142Z</time></trkpt><trkpt lat="43.7220512" lon="11.6571732"><ele>747.25</ele><time>2026-04-12T06:46:40.124Z</time></trkpt><trkpt lat="43.7220516" lon="11.65702"><ele>752.0</ele><time>2026-04-12T06:46:41.121Z</time></trkpt><trkpt lat="43.72206" lon="11.6568794"><ele>753.8333333333333</ele><time>2026-04-12T06:46:42.129Z</time></trkpt><trkpt lat="43.7220805" lon="11.6567574"><ele>755.6666666666666</ele><time>2026-04-12T06:46:43.131Z</time></trkpt><trkpt lat="43.7221157" lon="11.6566539"><ele>757.5</ele><time>2026-04-12T06:46:44.127Z</time></trkpt><trkpt lat="43.7221525" lon="11.6565653"><ele>759.3333333333334</ele><time>2026-04-12T06:46:45.118Z</time></trkpt><trkpt lat="43.7221899" lon="11.6564801"><ele>761.1666666666667</ele><time>2026-04-12T06:46:46.203Z</time></trkpt><trkpt lat="43.7222413" lon="11.6563902"><ele>763.0</ele><time>2026-04-12T06:46:47.168Z</time></trkpt><trkpt lat="43.7222981" lon="11.6563177"><ele>763.0</ele><time>2026-04-12T06:46:48.109Z</time></trkpt><trkpt lat="43.7223666" lon="11.6562435"><ele>763.0</ele><time>2026-04-12T06:46:49.118Z</time></trkpt><trkpt lat="43.7224326" lon="11.6561538"><ele>763.0</ele><time>2026-04-12T06:46:50.151Z</time></trkpt><trkpt lat="43.7224756" lon="11.6560532"><ele>763.0</ele><time>2026-04-12T06:46:51.168Z</time></trkpt><trkpt lat="43.7224941" lon="11.6559538"><ele>763.0</ele><time>2026-04-12T06:46:52.144Z</time></trkpt><trkpt lat="43.7225063" lon="11.6558525"><ele>763.0</ele><time>2026-04-12T06:46:53.118Z</time></trkpt><trkpt lat="43.7225071" lon="11.6557238"><ele>764.0</ele><time>2026-04-12T06:46:54.112Z</time></trkpt><trkpt lat="43.7225212" lon="11.6555784"><ele>765.0</ele><time>2026-04-12T06:46:55.138Z</time></trkpt><trkpt lat="43.7225258" lon="11.6554413"><ele>766.0</ele><time>2026-04-12T06:46:56.158Z</time></trkpt><trkpt lat="43.7225193" lon="11.6553068"><ele>767.0</ele><time>2026-04-12T06:46:57.207Z</time></trkpt><trkpt lat="43.7224971" lon="11.6551721"><ele>768.0</ele><time>2026-04-12T06:46:58.201Z</time></trkpt><trkpt lat="43.7224679" lon="11.6550421"><ele>769.5999999999999</ele><time>2026-04-12T06:46:59.19Z</time></trkpt><trkpt lat="43.7224398" lon="11.654923"><ele>771.1999999999999</ele><time>2026-04-12T06:47:00.174Z</time></trkpt><trkpt lat="43.7224108" lon="11.6548179"><ele>772.8</ele><time>2026-04-12T06:47:01.168Z</time></trkpt><trkpt lat="43.7223962" lon="11.654725"><ele>774.4</ele><time>2026-04-12T06:47:02.182Z</time></trkpt><trkpt lat="43.7224064" lon="11.6545655"><ele>776.0</ele><time>2026-04-12T06:47:04.124Z</time></trkpt><trkpt lat="43.7224681" lon="11.6544169"><ele>777.8333333333334</ele><time>2026-04-12T06:47:06.199Z</time></trkpt><trkpt lat="43.7225203" lon="11.6543631"><ele>779.6666666666667</ele><time>2026-04-12T06:47:07.166Z</time></trkpt><trkpt lat="43.7225781" lon="11.6543006"><ele>781.5</ele><time>2026-04-12T06:47:08.129Z</time></trkpt><trkpt lat="43.7226721" lon="11.6542127"><ele>783.3333333333333</ele><time>2026-04-12T06:47:10.132Z</time></trkpt><trkpt lat="43.7227481" lon="11.6542254"><ele>785.1666666666666</ele><time>2026-04-12T06:47:13.183Z</time></trkpt><trkpt lat="43.722786" lon="11.6543093"><ele>787.0</ele><time>2026-04-12T06:47:15.138Z</time></trkpt><trkpt lat="43.7228413" lon="11.6543531"><ele>788.3333333333333</ele><time>2026-04-12T06:47:17.149Z</time></trkpt><trkpt lat="43.7229225" lon="11.654365"><ele>789.6666666666666</ele><time>2026-04-12T06:47:19.16Z</time></trkpt><trkpt lat="43.7230071" lon="11.6543397"><ele>791.0</ele><time>2026-04-12T06:47:21.223Z</time></trkpt><trkpt lat="43.7230744" lon="11.654312"><ele>792.3333333333333</ele><time>2026-04-12T06:47:22.176Z</time></trkpt><trkpt lat="43.7231559" lon="11.654294"><ele>793.6666666666666</ele><time>2026-04-12T06:47:23.173Z</time></trkpt><trkpt lat="43.7232356" lon="11.6542896"><ele>795.0</ele><time>2026-04-12T06:47:24.127Z</time></trkpt><trkpt lat="43.7233122" lon="11.6543165"><ele>795.0</ele><time>2026-04-12T06:47:25.131Z</time></trkpt><trkpt lat="43.7233996" lon="11.6543487"><ele>795.0</ele><time>2026-04-12T06:47:26.132Z</time></trkpt><trkpt lat="43.7234663" lon="11.6543523"><ele>795.0</ele><time>2026-04-12T06:47:27.133Z</time></trkpt><trkpt lat="43.7235718" lon="11.6542641"><ele>795.0</ele><time>2026-04-12T06:47:29.175Z</time></trkpt><trkpt lat="43.7236268" lon="11.6541403"><ele>795.0</ele><time>2026-04-12T06:47:30.188Z</time></trkpt><trkpt lat="43.7236881" lon="11.6539802"><ele>796.2</ele><time>2026-04-12T06:47:31.129Z</time></trkpt><trkpt lat="43.7237385" lon="11.6537961"><ele>797.4</ele><time>2026-04-12T06:47:32.176Z</time></trkpt><trkpt lat="43.723778" lon="11.653626"><ele>798.5999999999999</ele><time>2026-04-12T06:47:33.193Z</time></trkpt><trkpt lat="43.723786" lon="11.6535389"><ele>799.8</ele><time>2026-04-12T06:47:34.21Z</time></trkpt><trkpt lat="43.7237201" lon="11.6534425"><ele>801.0</ele><time>2026-04-12T06:47:36.16Z</time></trkpt><trkpt lat="43.7236726" lon="11.6533149"><ele>803.4</ele><time>2026-04-12T06:47:38.164Z</time></trkpt><trkpt lat="43.723762" lon="11.6531709"><ele>805.8</ele><time>2026-04-12T06:47:40.202Z</time></trkpt><trkpt lat="43.7238186" lon="11.6530789"><ele>808.1999999999999</ele><time>2026-04-12T06:47:41.184Z</time></trkpt><trkpt lat="43.7238808" lon="11.6529827"><ele>810.5999999999999</ele><time>2026-04-12T06:47:42.184Z</time></trkpt><trkpt lat="43.7239278" lon="11.6529155"><ele>813.0</ele><time>2026-04-12T06:47:43.22Z</time></trkpt><trkpt lat="43.7240282" lon="11.6528821"><ele>813.0</ele><time>2026-04-12T06:47:45.179Z</time></trkpt><trkpt lat="43.7241453" lon="11.6528801"><ele>813.0</ele><time>2026-04-12T06:47:47.161Z</time></trkpt><trkpt lat="43.7242371" lon="11.6528048"><ele>813.0</ele><time>2026-04-12T06:47:49.191Z</time></trkpt><trkpt lat="43.7242913" lon="11.6527529"><ele>813.0</ele><time>2026-04-12T06:47:50.184Z</time></trkpt><trkpt lat="43.7243555" lon="11.6526985"><ele>813.0</ele><time>2026-04-12T06:47:51.184Z</time></trkpt><trkpt lat="43.7244304" lon="11.6526488"><ele>813.0</ele><time>2026-04-12T06:47:52.18Z</time></trkpt><trkpt lat="43.7244981" lon="11.6525882"><ele>817.5999999999999</ele><time>2026-04-12T06:47:53.17Z</time></trkpt><trkpt lat="43.7245588" lon="11.6525233"><ele>822.1999999999999</ele><time>2026-04-12T06:47:54.205Z</time></trkpt><trkpt lat="43.72461" lon="11.6524692"><ele>826.8</ele><time>2026-04-12T06:47:55.204Z</time></trkpt><trkpt lat="43.724665" lon="11.6523671"><ele>831.4</ele><time>2026-04-12T06:47:57.19Z</time></trkpt><trkpt lat="43.7245828" lon="11.6522304"><ele>836.0</ele><time>2026-04-12T06:47:59.187Z</time></trkpt><trkpt lat="43.7244574" lon="11.6521455"><ele>834.3333333333334</ele><time>2026-04-12T06:48:00.178Z</time></trkpt><trkpt lat="43.7242839" lon="11.652061"><ele>832.6666666666667</ele><time>2026-04-12T06:48:01.172Z</time></trkpt><trkpt lat="43.7241074" lon="11.6519726"><ele>831.0</ele><time>2026-04-12T06:48:02.11Z</time></trkpt><trkpt lat="43.7239487" lon="11.6519038"><ele>832.1999999999999</ele><time>2026-04-12T06:48:03.164Z</time></trkpt><trkpt lat="43.7238366" lon="11.6518252"><ele>833.4</ele><time>2026-04-12T06:48:04.118Z</time></trkpt><trkpt lat="43.7237482" lon="11.6517547"><ele>834.6</ele><time>2026-04-12T06:48:05.136Z</time></trkpt><trkpt lat="43.7236736" lon="11.6516805"><ele>835.8</ele><time>2026-04-12T06:48:06.133Z</time></trkpt><trkpt lat="43.7235703" lon="11.6516316"><ele>837.0</ele><time>2026-04-12T06:48:07.121Z</time></trkpt><trkpt lat="43.7234617" lon="11.6516003"><ele>837.0</ele><time>2026-04-12T06:48:08.208Z</time></trkpt><trkpt lat="43.7233869" lon="11.6515695"><ele>837.0</ele><time>2026-04-12T06:48:09.172Z</time></trkpt><trkpt lat="43.7233483" lon="11.6514199"><ele>837.0</ele><time>2026-04-12T06:48:11.184Z</time></trkpt><trkpt lat="43.723338" lon="11.6513228"><ele>837.0</ele><time>2026-04-12T06:48:12.186Z</time></trkpt><trkpt lat="43.7233422" lon="11.6512325"><ele>837.0</ele><time>2026-04-12T06:48:13.195Z</time></trkpt><trkpt lat="43.7233742" lon="11.6511488"><ele>837.0</ele><time>2026-04-12T06:48:14.179Z</time></trkpt><trkpt lat="43.7234196" lon="11.6510632"><ele>840.1666666666666</ele><time>2026-04-12T06:48:15.18Z</time></trkpt><trkpt lat="43.7234699" lon="11.65098"><ele>843.3333333333333</ele><time>2026-04-12T06:48:16.175Z</time></trkpt><trkpt lat="43.7235149" lon="11.6509054"><ele>846.5</ele><time>2026-04-12T06:48:17.198Z</time></trkpt><trkpt lat="43.7235822" lon="11.6508365"><ele>849.6666666666666</ele><time>2026-04-12T06:48:19.199Z</time></trkpt><trkpt lat="43.7236352" lon="11.6507691"><ele>852.8333333333333</ele><time>2026-04-12T06:48:22.188Z</time></trkpt><trkpt lat="43.7236649" lon="11.6506639"><ele>856.0</ele><time>2026-04-12T06:48:32.2Z</time></trkpt><trkpt lat="43.7235953" lon="11.6505474"><ele>855.9999999999999</ele><time>2026-04-12T06:48:34.169Z</time></trkpt><trkpt lat="43.723549" lon="11.6504746"><ele>856.0</ele><time>2026-04-12T06:48:35.156Z</time></trkpt><trkpt lat="43.7235066" lon="11.6504075"><ele>856.0</ele><time>2026-04-12T06:48:36.172Z</time></trkpt><trkpt lat="43.7234697" lon="11.6503343"><ele>856.0</ele><time>2026-04-12T06:48:37.184Z</time></trkpt><trkpt lat="43.7234451" lon="11.6502267"><ele>855.9999999999999</ele><time>2026-04-12T06:48:38.178Z</time></trkpt><trkpt lat="43.7234022" lon="11.6501017"><ele>856.0</ele><time>2026-04-12T06:48:39.163Z</time></trkpt><trkpt lat="43.723339" lon="11.6499835"><ele>859.1999999999999</ele><time>2026-04-12T06:48:40.191Z</time></trkpt><trkpt lat="43.7232897" lon="11.6498607"><ele>862.3999999999999</ele><time>2026-04-12T06:48:41.183Z</time></trkpt><trkpt lat="43.723247" lon="11.6497274"><ele>865.6</ele><time>2026-04-12T06:48:42.196Z</time></trkpt><trkpt lat="43.7232028" lon="11.6495878"><ele>868.8</ele><time>2026-04-12T06:48:43.181Z</time></trkpt><trkpt lat="43.7231427" lon="11.6494528"><ele>872.0</ele><time>2026-04-12T06:48:44.199Z</time></trkpt><trkpt lat="43.7230665" lon="11.6493301"><ele>877.5</ele><time>2026-04-12T06:48:45.182Z</time></trkpt><trkpt lat="43.7229904" lon="11.6492059"><ele>883.0</ele><time>2026-04-12T06:48:46.14Z</time></trkpt><trkpt lat="43.7229177" lon="11.649063"><ele>888.5</ele><time>2026-04-12T06:48:47.155Z</time></trkpt><trkpt lat="43.7228482" lon="11.6489229"><ele>894.0</ele><time>2026-04-12T06:48:48.203Z</time></trkpt><trkpt lat="43.7227933" lon="11.6487891"><ele>894.0</ele><time>2026-04-12T06:48:49.199Z</time></trkpt><trkpt lat="43.7227375" lon="11.6486694"><ele>894.0</ele><time>2026-04-12T06:48:50.199Z</time></trkpt><trkpt lat="43.7226848" lon="11.648568"><ele>894.0</ele><time>2026-04-12T06:48:51.209Z</time></trkpt><trkpt lat="43.7226501" lon="11.6484737"><ele>894.0</ele><time>2026-04-12T06:48:52.205Z</time></trkpt><trkpt lat="43.722625" lon="11.6483727"><ele>894.0</ele><time>2026-04-12T06:48:53.204Z</time></trkpt><trkpt lat="43.7226229" lon="11.6482588"><ele>894.0</ele><time>2026-04-12T06:48:54.168Z</time></trkpt><trkpt lat="43.7227094" lon="11.6481826"><ele>897.8000000000001</ele><time>2026-04-12T06:48:56.186Z</time></trkpt><trkpt lat="43.7228341" lon="11.6482445"><ele>901.6000000000001</ele><time>2026-04-12T06:48:58.192Z</time></trkpt><trkpt lat="43.7229194" lon="11.6482705"><ele>905.4</ele><time>2026-04-12T06:48:59.177Z</time></trkpt><trkpt lat="43.7230291" lon="11.6482921"><ele>909.2</ele><time>2026-04-12T06:49:00.166Z</time></trkpt><trkpt lat="43.7231247" lon="11.6483075"><ele>913.0</ele><time>2026-04-12T06:49:01.2Z</time></trkpt><trkpt lat="43.7232026" lon="11.6482997"><ele>913.0</ele><time>2026-04-12T06:49:02.191Z</time></trkpt><trkpt lat="43.7232819" lon="11.6482656"><ele>913.0</ele><time>2026-04-12T06:49:03.206Z</time></trkpt><trkpt lat="43.723364" lon="11.6482137"><ele>913.0</ele><time>2026-04-12T06:49:04.138Z</time></trkpt><trkpt lat="43.7234532" lon="11.6481183"><ele>913.0</ele><time>2026-04-12T06:49:06.185Z</time></trkpt><trkpt lat="43.7234069" lon="11.6479337"><ele>913.0</ele><time>2026-04-12T06:49:08.173Z</time></trkpt><trkpt lat="43.7233686" lon="11.6478168"><ele>916.2</ele><time>2026-04-12T06:49:09.186Z</time></trkpt><trkpt lat="43.7233451" lon="11.6477044"><ele>919.4</ele><time>2026-04-12T06:49:10.173Z</time></trkpt><trkpt lat="43.7233516" lon="11.6475891"><ele>922.6000000000001</ele><time>2026-04-12T06:49:11.118Z</time></trkpt><trkpt lat="43.7234023" lon="11.6474662"><ele>925.8000000000001</ele><time>2026-04-12T06:49:12.132Z</time></trkpt><trkpt lat="43.7234876" lon="11.6473431"><ele>929.0</ele><time>2026-04-12T06:49:13.152Z</time></trkpt><trkpt lat="43.7235771" lon="11.6472331"><ele>931.0000000000001</ele><time>2026-04-12T06:49:14.177Z</time></trkpt><trkpt lat="43.7236454" lon="11.6471468"><ele>933.0</ele><time>2026-04-12T06:49:15.174Z</time></trkpt><trkpt lat="43.7237104" lon="11.6470723"><ele>935.0</ele><time>2026-04-12T06:49:16.111Z</time></trkpt><trkpt lat="43.7237508" lon="11.6469925"><ele>937.0</ele><time>2026-04-12T06:49:17.133Z</time></trkpt><trkpt lat="43.7237697" lon="11.646857"><ele>939.0000000000001</ele><time>2026-04-12T06:49:19.112Z</time></trkpt><trkpt lat="43.7238413" lon="11.6468156"><ele>941.0</ele><time>2026-04-12T06:49:22.126Z</time></trkpt><trkpt lat="43.7238909" lon="11.6468883"><ele>944.4</ele><time>2026-04-12T06:49:24.178Z</time></trkpt><trkpt lat="43.7239598" lon="11.6469057"><ele>947.8</ele><time>2026-04-12T06:49:26.142Z</time></trkpt><trkpt lat="43.7240384" lon="11.6468436"><ele>951.1999999999999</ele><time>2026-04-12T06:49:28.172Z</time></trkpt><trkpt lat="43.7241439" lon="11.6467516"><ele>954.5999999999999</ele><time>2026-04-12T06:49:30.195Z</time></trkpt><trkpt lat="43.7242142" lon="11.6466939"><ele>958.0</ele><time>2026-04-12T06:49:31.22Z</time></trkpt><trkpt lat="43.7242956" lon="11.6466231"><ele>958.0</ele><time>2026-04-12T06:49:32.164Z</time></trkpt><trkpt lat="43.7243854" lon="11.646552"><ele>958.0</ele><time>2026-04-12T06:49:33.136Z</time></trkpt><trkpt lat="43.7244735" lon="11.6464675"><ele>958.0</ele><time>2026-04-12T06:49:34.146Z</time></trkpt><trkpt lat="43.7245652" lon="11.6463737"><ele>958.0</ele><time>2026-04-12T06:49:35.14Z</time></trkpt><trkpt lat="43.7246589" lon="11.6462821"><ele>958.0</ele><time>2026-04-12T06:49:36.153Z</time></trkpt><trkpt lat="43.7247552" lon="11.6461901"><ele>963.0</ele><time>2026-04-12T06:49:37.106Z</time></trkpt><trkpt lat="43.7248363" lon="11.646098"><ele>968.0</ele><time>2026-04-12T06:49:38.106Z</time></trkpt><trkpt lat="43.7249197" lon="11.6460017"><ele>973.0</ele><time>2026-04-12T06:49:39.1Z</time></trkpt><trkpt lat="43.7250129" lon="11.6459043"><ele>978.0</ele><time>2026-04-12T06:49:40.113Z</time></trkpt><trkpt lat="43.7250954" lon="11.6458122"><ele>983.0</ele><time>2026-04-12T06:49:41.127Z</time></trkpt><trkpt lat="43.7251549" lon="11.6457247"><ele>983.0</ele><time>2026-04-12T06:49:42.133Z</time></trkpt><trkpt lat="43.7251971" lon="11.645655"><ele>983.0</ele><time>2026-04-12T06:49:43.174Z</time></trkpt><trkpt lat="43.7251852" lon="11.6454746"><ele>983.0</ele><time>2026-04-12T06:49:45.126Z</time></trkpt><trkpt lat="43.7251522" lon="11.6453261"><ele>983.0</ele><time>2026-04-12T06:49:46.171Z</time></trkpt><trkpt lat="43.725121" lon="11.6452062"><ele>983.0</ele><time>2026-04-12T06:49:47.173Z</time></trkpt><trkpt lat="43.7250975" lon="11.6450912"><ele>985.5999999999999</ele><time>2026-04-12T06:49:48.118Z</time></trkpt><trkpt lat="43.725102" lon="11.6449655"><ele>988.1999999999999</ele><time>2026-04-12T06:49:49.202Z</time></trkpt><trkpt lat="43.7251243" lon="11.6448436"><ele>990.8</ele><time>2026-04-12T06:49:50.194Z</time></trkpt><trkpt lat="43.7251363" lon="11.6447112"><ele>993.4</ele><time>2026-04-12T06:49:51.225Z</time></trkpt><trkpt lat="43.7251127" lon="11.644496"><ele>996.0</ele><time>2026-04-12T06:49:53.129Z</time></trkpt><trkpt lat="43.7251078" lon="11.6443938"><ele>998.1666666666666</ele><time>2026-04-12T06:49:54.118Z</time></trkpt><trkpt lat="43.7251163" lon="11.6442678"><ele>1000.3333333333333</ele><time>2026-04-12T06:49:55.131Z</time></trkpt><trkpt lat="43.7251258" lon="11.6441446"><ele>1002.5</ele><time>2026-04-12T06:49:56.131Z</time></trkpt><trkpt lat="43.7251423" lon="11.6440297"><ele>1004.6666666666666</ele><time>2026-04-12T06:49:57.204Z</time></trkpt><trkpt lat="43.725181" lon="11.6439261"><ele>1006.8333333333333</ele><time>2026-04-12T06:49:58.205Z</time></trkpt><trkpt lat="43.7252082" lon="11.6438267"><ele>1009.0</ele><time>2026-04-12T06:49:59.186Z</time></trkpt><trkpt lat="43.7252558" lon="11.6437402"><ele>1010.0</ele><time>2026-04-12T06:50:00.174Z</time></trkpt><trkpt lat="43.7253206" lon="11.6436829"><ele>1011.0000000000001</ele><time>2026-04-12T06:50:01.119Z</time></trkpt><trkpt lat="43.7253959" lon="11.6436473"><ele>1012.0000000000001</ele><time>2026-04-12T06:50:02.125Z</time></trkpt><trkpt lat="43.7254817" lon="11.6436049"><ele>1013.0</ele><time>2026-04-12T06:50:03.131Z</time></trkpt><trkpt lat="43.7255558" lon="11.6435184"><ele>1014.0</ele><time>2026-04-12T06:50:04.182Z</time></trkpt><trkpt lat="43.7256292" lon="11.6433867"><ele>1017.25</ele><time>2026-04-12T06:50:05.206Z</time></trkpt><trkpt lat="43.7257057" lon="11.6432411"><ele>1020.5</ele><time>2026-04-12T06:50:06.138Z</time></trkpt><trkpt lat="43.7257852" lon="11.643102"><ele>1023.75</ele><time>2026-04-12T06:50:07.124Z</time></trkpt><trkpt lat="43.7258494" lon="11.6429633"><ele>1027.0</ele><time>2026-04-12T06:50:08.142Z</time></trkpt><trkpt lat="43.7258977" lon="11.6428618"><ele>1029.0</ele><time>2026-04-12T06:50:09.139Z</time></trkpt><trkpt lat="43.7259555" lon="11.6427765"><ele>1031.0</ele><time>2026-04-12T06:50:10.141Z</time></trkpt><trkpt lat="43.7260166" lon="11.6426817"><ele>1033.0</ele><time>2026-04-12T06:50:11.153Z</time></trkpt><trkpt lat="43.7260873" lon="11.6425776"><ele>1035.0</ele><time>2026-04-12T06:50:12.193Z</time></trkpt><trkpt lat="43.7261541" lon="11.6424702"><ele>1037.0</ele><time>2026-04-12T06:50:13.214Z</time></trkpt><trkpt lat="43.7262093" lon="11.6423638"><ele>1038.2</ele><time>2026-04-12T06:50:14.199Z</time></trkpt><trkpt lat="43.7262576" lon="11.6422653"><ele>1039.4</ele><time>2026-04-12T06:50:15.194Z</time></trkpt><trkpt lat="43.7263114" lon="11.6421509"><ele>1040.6</ele><time>2026-04-12T06:50:16.207Z</time></trkpt><trkpt lat="43.7263721" lon="11.6420204"><ele>1041.8</ele><time>2026-04-12T06:50:17.129Z</time></trkpt><trkpt lat="43.7264182" lon="11.6418797"><ele>1043.0</ele><time>2026-04-12T06:50:18.131Z</time></trkpt><trkpt lat="43.7264356" lon="11.6417396"><ele>1045.0</ele><time>2026-04-12T06:50:19.129Z</time></trkpt><trkpt lat="43.7264375" lon="11.6415884"><ele>1047.0</ele><time>2026-04-12T06:50:20.168Z</time></trkpt><trkpt lat="43.7264307" lon="11.6414528"><ele>1049.0</ele><time>2026-04-12T06:50:21.197Z</time></trkpt><trkpt lat="43.7263994" lon="11.6413212"><ele>1051.0</ele><time>2026-04-12T06:50:22.199Z</time></trkpt><trkpt lat="43.7263464" lon="11.6411992"><ele>1053.0</ele><time>2026-04-12T06:50:23.119Z</time></trkpt><trkpt lat="43.7262905" lon="11.641076"><ele>1053.75</ele><time>2026-04-12T06:50:24.126Z</time></trkpt><trkpt lat="43.7262391" lon="11.6409272"><ele>1054.5</ele><time>2026-04-12T06:50:25.206Z</time></trkpt><trkpt lat="43.7261843" lon="11.6407663"><ele>1055.25</ele><time>2026-04-12T06:50:26.122Z</time></trkpt><trkpt lat="43.726137" lon="11.640627"><ele>1056.0</ele><time>2026-04-12T06:50:27.205Z</time></trkpt><trkpt lat="43.7260762" lon="11.640524"><ele>1057.25</ele><time>2026-04-12T06:50:28.207Z</time></trkpt><trkpt lat="43.7260016" lon="11.6404253"><ele>1058.5</ele><time>2026-04-12T06:50:29.193Z</time></trkpt><trkpt lat="43.7259057" lon="11.64033"><ele>1059.75</ele><time>2026-04-12T06:50:30.175Z</time></trkpt><trkpt lat="43.7258154" lon="11.640226"><ele>1061.0</ele><time>2026-04-12T06:50:31.183Z</time></trkpt><trkpt lat="43.7257358" lon="11.6401139"><ele>1062.0</ele><time>2026-04-12T06:50:32.183Z</time></trkpt><trkpt lat="43.7256593" lon="11.6400227"><ele>1063.0</ele><time>2026-04-12T06:50:33.186Z</time></trkpt><trkpt lat="43.7255744" lon="11.6399525"><ele>1064.0</ele><time>2026-04-12T06:50:34.185Z</time></trkpt><trkpt lat="43.7254892" lon="11.6398914"><ele>1065.0</ele><time>2026-04-12T06:50:35.176Z</time></trkpt><trkpt lat="43.7253975" lon="11.6398234"><ele>1066.0</ele><time>2026-04-12T06:50:36.198Z</time></trkpt><trkpt lat="43.7253049" lon="11.6397333"><ele>1065.0</ele><time>2026-04-12T06:50:37.157Z</time></trkpt><trkpt lat="43.7252283" lon="11.6396343"><ele>1064.0</ele><time>2026-04-12T06:50:38.178Z</time></trkpt><trkpt lat="43.7251536" lon="11.6395609"><ele>1063.0</ele><time>2026-04-12T06:50:39.198Z</time></trkpt><trkpt lat="43.7250723" lon="11.6394913"><ele>1062.0</ele><time>2026-04-12T06:50:40.208Z</time></trkpt><trkpt lat="43.7249951" lon="11.6394247"><ele>1061.0</ele><time>2026-04-12T06:50:41.11Z</time></trkpt><trkpt lat="43.7249184" lon="11.639365"><ele>1061.0</ele><time>2026-04-12T06:50:42.135Z</time></trkpt><trkpt lat="43.7248319" lon="11.6393019"><ele>1061.0</ele><time>2026-04-12T06:50:43.128Z</time></trkpt><trkpt lat="43.7247516" lon="11.639219"><ele>1061.0</ele><time>2026-04-12T06:50:44.128Z</time></trkpt><trkpt lat="43.7246869" lon="11.6391266"><ele>1061.0</ele><time>2026-04-12T06:50:45.191Z</time></trkpt><trkpt lat="43.7246413" lon="11.6390296"><ele>1061.0</ele><time>2026-04-12T06:50:46.117Z</time></trkpt><trkpt lat="43.7246004" lon="11.6389307"><ele>1061.0</ele><time>2026-04-12T06:50:47.137Z</time></trkpt><trkpt lat="43.7245366" lon="11.6388756"><ele>1061.0</ele><time>2026-04-12T06:50:48.203Z</time></trkpt><trkpt lat="43.7244541" lon="11.6388453"><ele>1061.0</ele><time>2026-04-12T06:50:49.181Z</time></trkpt><trkpt lat="43.72437" lon="11.6388307"><ele>1061.0</ele><time>2026-04-12T06:50:50.146Z</time></trkpt><trkpt lat="43.7242975" lon="11.6387895"><ele>1061.0</ele><time>2026-04-12T06:50:51.111Z</time></trkpt><trkpt lat="43.7242271" lon="11.6386884"><ele>1061.0</ele><time>2026-04-12T06:50:52.119Z</time></trkpt><trkpt lat="43.724154" lon="11.6385652"><ele>1059.5</ele><time>2026-04-12T06:50:53.13Z</time></trkpt><trkpt lat="43.7240707" lon="11.6384409"><ele>1058.0</ele><time>2026-04-12T06:50:54.125Z</time></trkpt><trkpt lat="43.7239879" lon="11.6383119"><ele>1056.5</ele><time>2026-04-12T06:50:55.132Z</time></trkpt><trkpt lat="43.7239205" lon="11.6382005"><ele>1055.0</ele><time>2026-04-12T06:50:56.189Z</time></trkpt><trkpt lat="43.7238482" lon="11.6381078"><ele>1055.0</ele><time>2026-04-12T06:50:57.182Z</time></trkpt><trkpt lat="43.7237667" lon="11.6380084"><ele>1055.0</ele><time>2026-04-12T06:50:58.189Z</time></trkpt><trkpt lat="43.7236826" lon="11.637916"><ele>1055.0</ele><time>2026-04-12T06:50:59.198Z</time></trkpt><trkpt lat="43.7236196" lon="11.637836"><ele>1055.0</ele><time>2026-04-12T06:51:00.177Z</time></trkpt><trkpt lat="43.7235728" lon="11.6377665"><ele>1055.0</ele><time>2026-04-12T06:51:01.19Z</time></trkpt><trkpt lat="43.7235664" lon="11.6376057"><ele>1054.0</ele><time>2026-04-12T06:51:03.146Z</time></trkpt><trkpt lat="43.723567" lon="11.6375047"><ele>1053.0</ele><time>2026-04-12T06:51:04.185Z</time></trkpt><trkpt lat="43.7235552" lon="11.6374135"><ele>1052.0</ele><time>2026-04-12T06:51:05.215Z</time></trkpt><trkpt lat="43.7235191" lon="11.6373096"><ele>1051.0</ele><time>2026-04-12T06:51:06.227Z</time></trkpt><trkpt lat="43.7234734" lon="11.6372075"><ele>1050.0</ele><time>2026-04-12T06:51:07.176Z</time></trkpt><trkpt lat="43.7234281" lon="11.6371122"><ele>1049.0</ele><time>2026-04-12T06:51:08.234Z</time></trkpt><trkpt lat="43.7233635" lon="11.6369943"><ele>1053.6000000000001</ele><time>2026-04-12T06:51:09.17Z</time></trkpt><trkpt lat="43.723289" lon="11.6368682"><ele>1058.2</ele><time>2026-04-12T06:51:10.185Z</time></trkpt><trkpt lat="43.7232287" lon="11.636749"><ele>1062.8000000000002</ele><time>2026-04-12T06:51:11.212Z</time></trkpt><trkpt lat="43.7231681" lon="11.636641"><ele>1067.4</ele><time>2026-04-12T06:51:12.198Z</time></trkpt><trkpt lat="43.7230969" lon="11.6365218"><ele>1072.0</ele><time>2026-04-12T06:51:13.207Z</time></trkpt><trkpt lat="43.7230257" lon="11.6364058"><ele>1072.0</ele><time>2026-04-12T06:51:14.194Z</time></trkpt><trkpt lat="43.7229492" lon="11.6363022"><ele>1072.0</ele><time>2026-04-12T06:51:15.182Z</time></trkpt><trkpt lat="43.7228815" lon="11.6362028"><ele>1072.0</ele><time>2026-04-12T06:51:16.123Z</time></trkpt><trkpt lat="43.7228409" lon="11.6360951"><ele>1072.0</ele><time>2026-04-12T06:51:17.135Z</time></trkpt><trkpt lat="43.7228036" lon="11.6359973"><ele>1072.0</ele><time>2026-04-12T06:51:18.202Z</time></trkpt><trkpt lat="43.7227675" lon="11.6359193"><ele>1072.0</ele><time>2026-04-12T06:51:19.158Z</time></trkpt><trkpt lat="43.7227273" lon="11.635837"><ele>1076.3333333333333</ele><time>2026-04-12T06:51:20.212Z</time></trkpt><trkpt lat="43.7226855" lon="11.6357592"><ele>1080.6666666666665</ele><time>2026-04-12T06:51:21.203Z</time></trkpt><trkpt lat="43.7226493" lon="11.6356793"><ele>1085.0</ele><time>2026-04-12T06:51:22.179Z</time></trkpt><trkpt lat="43.7225975" lon="11.6355442"><ele>1089.3333333333333</ele><time>2026-04-12T06:51:24.192Z</time></trkpt><trkpt lat="43.7225467" lon="11.6354277"><ele>1093.6666666666667</ele><time>2026-04-12T06:51:26.209Z</time></trkpt><trkpt lat="43.7224875" lon="11.63539"><ele>1098.0</ele><time>2026-04-12T06:51:27.163Z</time></trkpt><trkpt lat="43.7224447" lon="11.6353181"><ele>1099.0</ele><time>2026-04-12T06:51:28.123Z</time></trkpt><trkpt lat="43.7223993" lon="11.6352548"><ele>1100.0</ele><time>2026-04-12T06:51:29.125Z</time></trkpt><trkpt lat="43.7223688" lon="11.6351713"><ele>1101.0</ele><time>2026-04-12T06:51:30.183Z</time></trkpt><trkpt lat="43.7223299" lon="11.635093"><ele>1102.0</ele><time>2026-04-12T06:51:31.203Z</time></trkpt><trkpt lat="43.7222811" lon="11.6350112"><ele>1103.0</ele><time>2026-04-12T06:51:32.191Z</time></trkpt><trkpt lat="43.7222168" lon="11.6349381"><ele>1104.0</ele><time>2026-04-12T06:51:33.205Z</time></trkpt><trkpt lat="43.7221597" lon="11.6348639"><ele>1105.0</ele><time>2026-04-12T06:51:34.188Z</time></trkpt><trkpt lat="43.7220967" lon="11.6347999"><ele>1105.0</ele><time>2026-04-12T06:51:35.177Z</time></trkpt><trkpt lat="43.722033" lon="11.6347367"><ele>1105.0</ele><time>2026-04-12T06:51:36.189Z</time></trkpt><trkpt lat="43.7219723" lon="11.6346676"><ele>1105.0</ele><time>2026-04-12T06:51:37.206Z</time></trkpt><trkpt lat="43.7219075" lon="11.6345977"><ele>1105.0</ele><time>2026-04-12T06:51:38.203Z</time></trkpt><trkpt lat="43.7218342" lon="11.6345504"><ele>1105.0</ele><time>2026-04-12T06:51:39.17Z</time></trkpt><trkpt lat="43.7217564" lon="11.6345062"><ele>1105.0</ele><time>2026-04-12T06:51:40.189Z</time></trkpt><trkpt lat="43.7216724" lon="11.6344385"><ele>1101.2</ele><time>2026-04-12T06:51:41.126Z</time></trkpt><trkpt lat="43.7215974" lon="11.6343855"><ele>1097.4</ele><time>2026-04-12T06:51:42.146Z</time></trkpt><trkpt lat="43.7215187" lon="11.6343414"><ele>1093.6</ele><time>2026-04-12T06:51:43.212Z</time></trkpt><trkpt lat="43.7214355" lon="11.6343"><ele>1089.8</ele><time>2026-04-12T06:51:44.207Z</time></trkpt><trkpt lat="43.7213445" lon="11.6342513"><ele>1086.0</ele><time>2026-04-12T06:51:45.196Z</time></trkpt><trkpt lat="43.7212532" lon="11.6341875"><ele>1086.0</ele><time>2026-04-12T06:51:46.19Z</time></trkpt><trkpt lat="43.7211659" lon="11.6340933"><ele>1086.0</ele><time>2026-04-12T06:51:47.194Z</time></trkpt><trkpt lat="43.7210684" lon="11.6339832"><ele>1086.0</ele><time>2026-04-12T06:51:48.184Z</time></trkpt><trkpt lat="43.7209686" lon="11.6338781"><ele>1086.0</ele><time>2026-04-12T06:51:49.16Z</time></trkpt><trkpt lat="43.7208737" lon="11.6337929"><ele>1085.25</ele><time>2026-04-12T06:51:50.212Z</time></trkpt><trkpt lat="43.7207694" lon="11.6337081"><ele>1084.5</ele><time>2026-04-12T06:51:51.182Z</time></trkpt><trkpt lat="43.7206479" lon="11.6336311"><ele>1083.75</ele><time>2026-04-12T06:51:52.137Z</time></trkpt><trkpt lat="43.7205208" lon="11.6335583"><ele>1083.0</ele><time>2026-04-12T06:51:53.131Z</time></trkpt><trkpt lat="43.7204003" lon="11.6334795"><ele>1081.75</ele><time>2026-04-12T06:51:54.191Z</time></trkpt><trkpt lat="43.7202996" lon="11.6334219"><ele>1080.5</ele><time>2026-04-12T06:51:55.209Z</time></trkpt><trkpt lat="43.720199" lon="11.633377"><ele>1079.25</ele><time>2026-04-12T06:51:56.209Z</time></trkpt><trkpt lat="43.7200897" lon="11.6333343"><ele>1078.0</ele><time>2026-04-12T06:51:57.215Z</time></trkpt><trkpt lat="43.7198962" lon="11.6332885"><ele>1082.25</ele><time>2026-04-12T06:51:59.155Z</time></trkpt><trkpt lat="43.7197849" lon="11.63327"><ele>1086.5</ele><time>2026-04-12T06:52:00.19Z</time></trkpt><trkpt lat="43.7196574" lon="11.6332454"><ele>1090.75</ele><time>2026-04-12T06:52:01.182Z</time></trkpt><trkpt lat="43.7195413" lon="11.6332153"><ele>1095.0</ele><time>2026-04-12T06:52:02.2Z</time></trkpt><trkpt lat="43.719432" lon="11.6332035"><ele>1098.6</ele><time>2026-04-12T06:52:03.163Z</time></trkpt><trkpt lat="43.7193554" lon="11.6331961"><ele>1102.2</ele><time>2026-04-12T06:52:04.136Z</time></trkpt><trkpt lat="43.7192914" lon="11.6332038"><ele>1105.8</ele><time>2026-04-12T06:52:05.157Z</time></trkpt><trkpt lat="43.7191666" lon="11.6332267"><ele>1109.4</ele><time>2026-04-12T06:52:07.136Z</time></trkpt><trkpt lat="43.7190833" lon="11.6332306"><ele>1113.0</ele><time>2026-04-12T06:52:08.143Z</time></trkpt><trkpt lat="43.7189787" lon="11.6332426"><ele>1113.0</ele><time>2026-04-12T06:52:09.232Z</time></trkpt><trkpt lat="43.7188708" lon="11.6332464"><ele>1113.0</ele><time>2026-04-12T06:52:10.185Z</time></trkpt><trkpt lat="43.7187901" lon="11.6332506"><ele>1113.0</ele><time>2026-04-12T06:52:11.209Z</time></trkpt><trkpt lat="43.7186919" lon="11.633236"><ele>1113.0</ele><time>2026-04-12T06:52:13.196Z</time></trkpt><trkpt lat="43.7186276" lon="11.6332323"><ele>1113.0</ele><time>2026-04-12T06:52:14.201Z</time></trkpt><trkpt lat="43.7185007" lon="11.6332572"><ele>1115.4</ele><time>2026-04-12T06:52:16.208Z</time></trkpt><trkpt lat="43.7184296" lon="11.6332692"><ele>1117.8</ele><time>2026-04-12T06:52:17.207Z</time></trkpt><trkpt lat="43.7183518" lon="11.6332842"><ele>1120.2</ele><time>2026-04-12T06:52:18.187Z</time></trkpt><trkpt lat="43.718254" lon="11.6333042"><ele>1122.6</ele><time>2026-04-12T06:52:19.168Z</time></trkpt><trkpt lat="43.7181405" lon="11.633311"><ele>1125.0</ele><time>2026-04-12T06:52:20.201Z</time></trkpt><trkpt lat="43.7180049" lon="11.6332977"><ele>1125.0</ele><time>2026-04-12T06:52:21.205Z</time></trkpt><trkpt lat="43.7178788" lon="11.6332676"><ele>1125.0</ele><time>2026-04-12T06:52:22.203Z</time></trkpt><trkpt lat="43.7177836" lon="11.6332175"><ele>1125.0</ele><time>2026-04-12T06:52:23.165Z</time></trkpt><trkpt lat="43.7176802" lon="11.6331432"><ele>1125.0</ele><time>2026-04-12T06:52:24.2Z</time></trkpt><trkpt lat="43.7175547" lon="11.6330698"><ele>1124.75</ele><time>2026-04-12T06:52:25.182Z</time></trkpt><trkpt lat="43.7174254" lon="11.6329894"><ele>1124.5</ele><time>2026-04-12T06:52:26.164Z</time></trkpt><trkpt lat="43.7173" lon="11.6328922"><ele>1124.25</ele><time>2026-04-12T06:52:27.199Z</time></trkpt><trkpt lat="43.7171878" lon="11.6328171"><ele>1124.0</ele><time>2026-04-12T06:52:28.172Z</time></trkpt><trkpt lat="43.717081" lon="11.6327575"><ele>1124.0</ele><time>2026-04-12T06:52:29.179Z</time></trkpt><trkpt lat="43.7169734" lon="11.6326976"><ele>1124.0</ele><time>2026-04-12T06:52:30.19Z</time></trkpt><trkpt lat="43.7168819" lon="11.6326425"><ele>1124.0</ele><time>2026-04-12T06:52:31.177Z</time></trkpt><trkpt lat="43.7167982" lon="11.6326068"><ele>1124.0</ele><time>2026-04-12T06:52:32.119Z</time></trkpt><trkpt lat="43.7167204" lon="11.6325548"><ele>1124.0</ele><time>2026-04-12T06:52:33.176Z</time></trkpt><trkpt lat="43.7166294" lon="11.6324795"><ele>1126.2</ele><time>2026-04-12T06:52:34.182Z</time></trkpt><trkpt lat="43.7165357" lon="11.6324057"><ele>1128.4</ele><time>2026-04-12T06:52:35.197Z</time></trkpt><trkpt lat="43.7164416" lon="11.6323361"><ele>1130.6</ele><time>2026-04-12T06:52:36.115Z</time></trkpt><trkpt lat="43.7163524" lon="11.6322762"><ele>1132.8</ele><time>2026-04-12T06:52:37.16Z</time></trkpt><trkpt lat="43.7162529" lon="11.6322013"><ele>1135.0</ele><time>2026-04-12T06:52:38.143Z</time></trkpt><trkpt lat="43.7161336" lon="11.6321401"><ele>1138.3333333333333</ele><time>2026-04-12T06:52:39.148Z</time></trkpt><trkpt lat="43.7159944" lon="11.6320839"><ele>1141.6666666666667</ele><time>2026-04-12T06:52:40.125Z</time></trkpt><trkpt lat="43.715837" lon="11.6319939"><ele>1145.0</ele><time>2026-04-12T06:52:41.139Z</time></trkpt><trkpt lat="43.7156806" lon="11.631906"><ele>1145.75</ele><time>2026-04-12T06:52:42.11Z</time></trkpt><trkpt lat="43.715562" lon="11.6318094"><ele>1146.5</ele><time>2026-04-12T06:52:43.116Z</time></trkpt><trkpt lat="43.7154657" lon="11.6316845"><ele>1147.25</ele><time>2026-04-12T06:52:44.205Z</time></trkpt><trkpt lat="43.7153639" lon="11.6315378"><ele>1148.0</ele><time>2026-04-12T06:52:45.199Z</time></trkpt><trkpt lat="43.7152915" lon="11.6314362"><ele>1148.0</ele><time>2026-04-12T06:52:46.18Z</time></trkpt><trkpt lat="43.7152558" lon="11.6313411"><ele>1148.0</ele><time>2026-04-12T06:52:47.125Z</time></trkpt><trkpt lat="43.7152222" lon="11.6312569"><ele>1148.0</ele><time>2026-04-12T06:52:48.12Z</time></trkpt><trkpt lat="43.7152032" lon="11.6311465"><ele>1148.0</ele><time>2026-04-12T06:52:49.2Z</time></trkpt><trkpt lat="43.7151897" lon="11.6310279"><ele>1148.0</ele><time>2026-04-12T06:52:50.184Z</time></trkpt><trkpt lat="43.7151696" lon="11.6308943"><ele>1148.0</ele><time>2026-04-12T06:52:51.193Z</time></trkpt><trkpt lat="43.7151441" lon="11.6307539"><ele>1150.0</ele><time>2026-04-12T06:52:52.179Z</time></trkpt><trkpt lat="43.7151166" lon="11.6306023"><ele>1152.0</ele><time>2026-04-12T06:52:53.188Z</time></trkpt><trkpt lat="43.7150845" lon="11.6304427"><ele>1154.0</ele><time>2026-04-12T06:52:54.186Z</time></trkpt><trkpt lat="43.7150464" lon="11.6302819"><ele>1156.0</ele><time>2026-04-12T06:52:55.186Z</time></trkpt><trkpt lat="43.7149945" lon="11.6301403"><ele>1157.0</ele><time>2026-04-12T06:52:56.193Z</time></trkpt><trkpt lat="43.7149356" lon="11.6300158"><ele>1158.0</ele><time>2026-04-12T06:52:57.187Z</time></trkpt><trkpt lat="43.7148794" lon="11.6299085"><ele>1159.0</ele><time>2026-04-12T06:52:58.18Z</time></trkpt><trkpt lat="43.7148154" lon="11.6298292"><ele>1160.0</ele><time>2026-04-12T06:52:59.161Z</time></trkpt><trkpt lat="43.7147521" lon="11.6297642"><ele>1161.0</ele><time>2026-04-12T06:53:00.185Z</time></trkpt><trkpt lat="43.714686" lon="11.6296933"><ele>1161.0</ele><time>2026-04-12T06:53:01.185Z</time></trkpt><trkpt lat="43.7146105" lon="11.6296287"><ele>1161.0</ele><time>2026-04-12T06:53:02.177Z</time></trkpt><trkpt lat="43.7145359" lon="11.629557"><ele>1161.0</ele><time>2026-04-12T06:53:03.19Z</time></trkpt><trkpt lat="43.7144628" lon="11.6294834"><ele>1161.0</ele><time>2026-04-12T06:53:04.168Z</time></trkpt><trkpt lat="43.7143923" lon="11.6293948"><ele>1161.0</ele><time>2026-04-12T06:53:05.171Z</time></trkpt><trkpt lat="43.7143352" lon="11.6292816"><ele>1159.75</ele><time>2026-04-12T06:53:06.197Z</time></trkpt><trkpt lat="43.7142673" lon="11.6291526"><ele>1158.5</ele><time>2026-04-12T06:53:07.177Z</time></trkpt><trkpt lat="43.714176" lon="11.6290404"><ele>1157.25</ele><time>2026-04-12T06:53:08.187Z</time></trkpt><trkpt lat="43.7140582" lon="11.6289492"><ele>1156.0</ele><time>2026-04-12T06:53:09.186Z</time></trkpt><trkpt lat="43.7139134" lon="11.6288489"><ele>1156.0</ele><time>2026-04-12T06:53:10.202Z</time></trkpt><trkpt lat="43.7137533" lon="11.6287288"><ele>1156.0</ele><time>2026-04-12T06:53:11.183Z</time></trkpt><trkpt lat="43.7135916" lon="11.6286054"><ele>1156.0</ele><time>2026-04-12T06:53:12.185Z</time></trkpt><trkpt lat="43.7134318" lon="11.6285032"><ele>1159.3333333333333</ele><time>2026-04-12T06:53:13.153Z</time></trkpt><trkpt lat="43.7132752" lon="11.6284246"><ele>1162.6666666666667</ele><time>2026-04-12T06:53:14.186Z</time></trkpt><trkpt lat="43.7131352" lon="11.6283382"><ele>1166.0</ele><time>2026-04-12T06:53:15.198Z</time></trkpt><trkpt lat="43.7129964" lon="11.6282323"><ele>1166.0</ele><time>2026-04-12T06:53:16.147Z</time></trkpt><trkpt lat="43.7128553" lon="11.6281362"><ele>1166.0</ele><time>2026-04-12T06:53:17.173Z</time></trkpt><trkpt lat="43.7127307" lon="11.6280698"><ele>1166.0</ele><time>2026-04-12T06:53:18.198Z</time></trkpt><trkpt lat="43.7126128" lon="11.6280278"><ele>1166.0</ele><time>2026-04-12T06:53:19.119Z</time></trkpt><trkpt lat="43.7124913" lon="11.6279918"><ele>1168.0</ele><time>2026-04-12T06:53:20.13Z</time></trkpt><trkpt lat="43.7123774" lon="11.6279535"><ele>1170.0</ele><time>2026-04-12T06:53:21.189Z</time></trkpt><trkpt lat="43.7122815" lon="11.6278922"><ele>1172.0</ele><time>2026-04-12T06:53:22.19Z</time></trkpt><trkpt lat="43.7121964" lon="11.6277756"><ele>1174.0</ele><time>2026-04-12T06:53:23.142Z</time></trkpt><trkpt lat="43.7121013" lon="11.6276518"><ele>1174.0</ele><time>2026-04-12T06:53:24.161Z</time></trkpt><trkpt lat="43.7120099" lon="11.6275212"><ele>1174.0</ele><time>2026-04-12T06:53:25.168Z</time></trkpt><trkpt lat="43.7118946" lon="11.6273931"><ele>1174.0</ele><time>2026-04-12T06:53:26.135Z</time></trkpt><trkpt lat="43.7117514" lon="11.6272607"><ele>1175.25</ele><time>2026-04-12T06:53:27.137Z</time></trkpt><trkpt lat="43.7116298" lon="11.6271291"><ele>1176.5</ele><time>2026-04-12T06:53:28.17Z</time></trkpt><trkpt lat="43.7115462" lon="11.6270141"><ele>1177.75</ele><time>2026-04-12T06:53:29.182Z</time></trkpt><trkpt lat="43.7114758" lon="11.6269006"><ele>1179.0</ele><time>2026-04-12T06:53:30.174Z</time></trkpt><trkpt lat="43.7114121" lon="11.6267634"><ele>1179.0</ele><time>2026-04-12T06:53:31.123Z</time></trkpt><trkpt lat="43.7113425" lon="11.6266083"><ele>1179.0</ele><time>2026-04-12T06:53:32.152Z</time></trkpt><trkpt lat="43.7112578" lon="11.6264752"><ele>1179.0</ele><time>2026-04-12T06:53:33.188Z</time></trkpt><trkpt lat="43.7111583" lon="11.6263418"><ele>1179.0</ele><time>2026-04-12T06:53:34.181Z</time></trkpt><trkpt lat="43.7110659" lon="11.6262023"><ele>1183.75</ele><time>2026-04-12T06:53:35.162Z</time></trkpt><trkpt lat="43.7109966" lon="11.6260473"><ele>1188.5</ele><time>2026-04-12T06:53:36.194Z</time></trkpt><trkpt lat="43.7109513" lon="11.6258883"><ele>1193.25</ele><time>2026-04-12T06:53:37.194Z</time></trkpt><trkpt lat="43.710923" lon="11.6257274"><ele>1198.0</ele><time>2026-04-12T06:53:38.123Z</time></trkpt><trkpt lat="43.7108995" lon="11.6255836"><ele>1198.0</ele><time>2026-04-12T06:53:39.113Z</time></trkpt><trkpt lat="43.710884" lon="11.6254576"><ele>1198.0</ele><time>2026-04-12T06:53:40.192Z</time></trkpt><trkpt lat="43.7108604" lon="11.625342"><ele>1198.0</ele><time>2026-04-12T06:53:41.188Z</time></trkpt><trkpt lat="43.7108265" lon="11.6252273"><ele>1198.0</ele><time>2026-04-12T06:53:42.128Z</time></trkpt><trkpt lat="43.7107811" lon="11.6251361"><ele>1198.0</ele><time>2026-04-12T06:53:43.117Z</time></trkpt><trkpt lat="43.7107303" lon="11.6250611"><ele>1198.0</ele><time>2026-04-12T06:53:44.121Z</time></trkpt><trkpt lat="43.7106701" lon="11.6249907"><ele>1198.3333333333333</ele><time>2026-04-12T06:53:45.133Z</time></trkpt><trkpt lat="43.7105941" lon="11.6249302"><ele>1198.6666666666665</ele><time>2026-04-12T06:53:46.143Z</time></trkpt><trkpt lat="43.710505" lon="11.6249123"><ele>1199.0</ele><time>2026-04-12T06:53:47.122Z</time></trkpt><trkpt lat="43.7104155" lon="11.6249062"><ele>1199.3333333333333</ele><time>2026-04-12T06:53:48.191Z</time></trkpt><trkpt lat="43.7103286" lon="11.6249031"><ele>1199.6666666666667</ele><time>2026-04-12T06:53:49.136Z</time></trkpt><trkpt lat="43.7102511" lon="11.6249095"><ele>1200.0</ele><time>2026-04-12T06:53:50.126Z</time></trkpt><trkpt lat="43.7101759" lon="11.6249172"><ele>1200.1666666666667</ele><time>2026-04-12T06:53:51.138Z</time></trkpt><trkpt lat="43.710103" lon="11.6249269"><ele>1200.3333333333333</ele><time>2026-04-12T06:53:52.126Z</time></trkpt><trkpt lat="43.7100293" lon="11.6249456"><ele>1200.5</ele><time>2026-04-12T06:53:53.12Z</time></trkpt><trkpt lat="43.7099503" lon="11.624961"><ele>1200.6666666666665</ele><time>2026-04-12T06:53:54.206Z</time></trkpt><trkpt lat="43.7098728" lon="11.6249649"><ele>1200.8333333333333</ele><time>2026-04-12T06:53:55.216Z</time></trkpt><trkpt lat="43.7098002" lon="11.6249647"><ele>1201.0</ele><time>2026-04-12T06:53:56.178Z</time></trkpt><trkpt lat="43.7097287" lon="11.624963"><ele>1201.0</ele><time>2026-04-12T06:53:57.206Z</time></trkpt><trkpt lat="43.7096546" lon="11.6249633"><ele>1201.0</ele><time>2026-04-12T06:53:58.203Z</time></trkpt><trkpt lat="43.7095832" lon="11.6249624"><ele>1201.0</ele><time>2026-04-12T06:53:59.172Z</time></trkpt><trkpt lat="43.7095082" lon="11.6249601"><ele>1201.0</ele><time>2026-04-12T06:54:00.189Z</time></trkpt><trkpt lat="43.7094397" lon="11.624952"><ele>1201.0</ele><time>2026-04-12T06:54:01.165Z</time></trkpt><trkpt lat="43.7093206" lon="11.6249468"><ele>1201.0</ele><time>2026-04-12T06:54:03.215Z</time></trkpt><trkpt lat="43.7092184" lon="11.6249392"><ele>1200.3333333333333</ele><time>2026-04-12T06:54:05.194Z</time></trkpt><trkpt lat="43.7091018" lon="11.6249216"><ele>1199.6666666666665</ele><time>2026-04-12T06:54:07.194Z</time></trkpt><trkpt lat="43.7090395" lon="11.6249035"><ele>1199.0</ele><time>2026-04-12T06:54:08.223Z</time></trkpt><trkpt lat="43.7089757" lon="11.6248823"><ele>1198.3333333333333</ele><time>2026-04-12T06:54:09.218Z</time></trkpt><trkpt lat="43.708882" lon="11.6248297"><ele>1197.6666666666667</ele><time>2026-04-12T06:54:11.19Z</time></trkpt><trkpt lat="43.7088018" lon="11.62478"><ele>1197.0</ele><time>2026-04-12T06:54:13.21Z</time></trkpt><trkpt lat="43.7087291" lon="11.6247463"><ele>1197.0</ele><time>2026-04-12T06:54:15.195Z</time></trkpt><trkpt lat="43.708661" lon="11.6246976"><ele>1197.0</ele><time>2026-04-12T06:54:18.19Z</time></trkpt><trkpt lat="43.7085825" lon="11.6246798"><ele>1197.0</ele><time>2026-04-12T06:54:29.141Z</time></trkpt><trkpt lat="43.7084911" lon="11.6246173"><ele>1197.0</ele><time>2026-04-12T06:54:31.12Z</time></trkpt><trkpt lat="43.7084055" lon="11.6245668"><ele>1197.0</ele><time>2026-04-12T06:54:33.132Z</time></trkpt><trkpt lat="43.7083374" lon="11.6245334"><ele>1197.0</ele><time>2026-04-12T06:54:46.195Z</time></trkpt><trkpt lat="43.7082827" lon="11.6244901"><ele>1196.4</ele><time>2026-04-12T06:54:47.211Z</time></trkpt><trkpt lat="43.7082075" lon="11.624459"><ele>1195.8000000000002</ele><time>2026-04-12T06:54:48.197Z</time></trkpt><trkpt lat="43.7081183" lon="11.6244231"><ele>1195.2</ele><time>2026-04-12T06:54:49.19Z</time></trkpt><trkpt lat="43.7080259" lon="11.6243775"><ele>1194.6000000000001</ele><time>2026-04-12T06:54:50.188Z</time></trkpt><trkpt lat="43.7079412" lon="11.6243258"><ele>1194.0</ele><time>2026-04-12T06:54:51.2Z</time></trkpt><trkpt lat="43.7078565" lon="11.6242806"><ele>1194.0</ele><time>2026-04-12T06:54:52.208Z</time></trkpt><trkpt lat="43.7077716" lon="11.6242688"><ele>1194.0</ele><time>2026-04-12T06:54:53.192Z</time></trkpt><trkpt lat="43.707696" lon="11.6242877"><ele>1194.0</ele><time>2026-04-12T06:54:54.204Z</time></trkpt><trkpt lat="43.7076487" lon="11.6243775"><ele>1194.0</ele><time>2026-04-12T06:54:55.189Z</time></trkpt><trkpt lat="43.707591" lon="11.6245157"><ele>1194.0</ele><time>2026-04-12T06:54:56.183Z</time></trkpt><trkpt lat="43.7075228" lon="11.6246448"><ele>1195.4</ele><time>2026-04-12T06:54:57.179Z</time></trkpt><trkpt lat="43.7074582" lon="11.6247503"><ele>1196.8000000000002</ele><time>2026-04-12T06:54:58.196Z</time></trkpt><trkpt lat="43.7073882" lon="11.6248252"><ele>1198.1999999999998</ele><time>2026-04-12T06:54:59.2Z</time></trkpt><trkpt lat="43.707298" lon="11.6248488"><ele>1199.6</ele><time>2026-04-12T06:55:00.195Z</time></trkpt><trkpt lat="43.7072073" lon="11.6248649"><ele>1201.0</ele><time>2026-04-12T06:55:01.183Z</time></trkpt><trkpt lat="43.7071094" lon="11.6248775"><ele>1201.0</ele><time>2026-04-12T06:55:02.172Z</time></trkpt><trkpt lat="43.7070223" lon="11.6248758"><ele>1201.0</ele><time>2026-04-12T06:55:03.218Z</time></trkpt><trkpt lat="43.7069376" lon="11.6248003"><ele>1201.0</ele><time>2026-04-12T06:55:04.18Z</time></trkpt><trkpt lat="43.7068722" lon="11.6246955"><ele>1201.0</ele><time>2026-04-12T06:55:05.161Z</time></trkpt><trkpt lat="43.7068171" lon="11.6246359"><ele>1201.0</ele><time>2026-04-12T06:55:06.151Z</time></trkpt><trkpt lat="43.7067184" lon="11.6246634"><ele>1201.8</ele><time>2026-04-12T06:55:08.196Z</time></trkpt><trkpt lat="43.7066544" lon="11.6247334"><ele>1202.6</ele><time>2026-04-12T06:55:09.189Z</time></trkpt><trkpt lat="43.7065715" lon="11.6247583"><ele>1203.4</ele><time>2026-04-12T06:55:10.173Z</time></trkpt><trkpt lat="43.7064806" lon="11.6247199"><ele>1204.2</ele><time>2026-04-12T06:55:11.193Z</time></trkpt><trkpt lat="43.7064074" lon="11.6246277"><ele>1205.0</ele><time>2026-04-12T06:55:12.159Z</time></trkpt><trkpt lat="43.7063355" lon="11.6245151"><ele>1207.5</ele><time>2026-04-12T06:55:13.19Z</time></trkpt><trkpt lat="43.7062838" lon="11.6244157"><ele>1210.0</ele><time>2026-04-12T06:55:14.171Z</time></trkpt><trkpt lat="43.7062714" lon="11.6243075"><ele>1212.5</ele><time>2026-04-12T06:55:15.175Z</time></trkpt><trkpt lat="43.7062698" lon="11.6241866"><ele>1215.0</ele><time>2026-04-12T06:55:16.19Z</time></trkpt><trkpt lat="43.7062644" lon="11.624062"><ele>1217.5</ele><time>2026-04-12T06:55:17.184Z</time></trkpt><trkpt lat="43.7062812" lon="11.6239579"><ele>1220.0</ele><time>2026-04-12T06:55:18.186Z</time></trkpt><trkpt lat="43.7063544" lon="11.6238951"><ele>1220.0</ele><time>2026-04-12T06:55:19.205Z</time></trkpt><trkpt lat="43.7064624" lon="11.623851"><ele>1220.0</ele><time>2026-04-12T06:55:20.176Z</time></trkpt><trkpt lat="43.7065775" lon="11.6237908"><ele>1220.0</ele><time>2026-04-12T06:55:21.199Z</time></trkpt><trkpt lat="43.7066866" lon="11.6237423"><ele>1220.0</ele><time>2026-04-12T06:55:22.202Z</time></trkpt><trkpt lat="43.7067947" lon="11.6236803"><ele>1220.3333333333335</ele><time>2026-04-12T06:55:23.176Z</time></trkpt><trkpt lat="43.706896" lon="11.623611"><ele>1220.6666666666667</ele><time>2026-04-12T06:55:24.184Z</time></trkpt><trkpt lat="43.7069613" lon="11.6235688"><ele>1221.0</ele><time>2026-04-12T06:55:25.192Z</time></trkpt><trkpt lat="43.7069793" lon="11.6234651"><ele>1221.3333333333333</ele><time>2026-04-12T06:55:27.172Z</time></trkpt><trkpt lat="43.7068944" lon="11.6233966"><ele>1221.6666666666665</ele><time>2026-04-12T06:55:29.187Z</time></trkpt><trkpt lat="43.7068211" lon="11.6233861"><ele>1222.0</ele><time>2026-04-12T06:55:30.192Z</time></trkpt><trkpt lat="43.7067531" lon="11.6233525"><ele>1225.4</ele><time>2026-04-12T06:55:31.164Z</time></trkpt><trkpt lat="43.7066746" lon="11.6232878"><ele>1228.8000000000002</ele><time>2026-04-12T06:55:32.181Z</time></trkpt><trkpt lat="43.7065973" lon="11.6231983"><ele>1232.2</ele><time>2026-04-12T06:55:33.179Z</time></trkpt><trkpt lat="43.7065304" lon="11.6230988"><ele>1235.6000000000001</ele><time>2026-04-12T06:55:34.187Z</time></trkpt><trkpt lat="43.7064506" lon="11.6230178"><ele>1239.0</ele><time>2026-04-12T06:55:35.196Z</time></trkpt><trkpt lat="43.7063534" lon="11.6229315"><ele>1239.0</ele><time>2026-04-12T06:55:36.184Z</time></trkpt><trkpt lat="43.7062606" lon="11.6228373"><ele>1239.0</ele><time>2026-04-12T06:55:37.175Z</time></trkpt><trkpt lat="43.7061741" lon="11.622749"><ele>1239.0</ele><time>2026-04-12T06:55:38.175Z</time></trkpt><trkpt lat="43.7060923" lon="11.6226478"><ele>1239.0</ele><time>2026-04-12T06:55:39.186Z</time></trkpt><trkpt lat="43.7059952" lon="11.6225287"><ele>1238.5</ele><time>2026-04-12T06:55:40.212Z</time></trkpt><trkpt lat="43.7059013" lon="11.6223851"><ele>1238.0</ele><time>2026-04-12T06:55:41.185Z</time></trkpt><trkpt lat="43.7058075" lon="11.6222329"><ele>1237.5</ele><time>2026-04-12T06:55:42.201Z</time></trkpt><trkpt lat="43.7057122" lon="11.6220911"><ele>1237.0</ele><time>2026-04-12T06:55:43.128Z</time></trkpt><trkpt lat="43.7056163" lon="11.6219682"><ele>1236.5</ele><time>2026-04-12T06:55:44.139Z</time></trkpt><trkpt lat="43.7055287" lon="11.6218402"><ele>1236.0</ele><time>2026-04-12T06:55:45.116Z</time></trkpt><trkpt lat="43.7054451" lon="11.6217111"><ele>1235.5</ele><time>2026-04-12T06:55:46.118Z</time></trkpt><trkpt lat="43.7053576" lon="11.6215933"><ele>1235.0</ele><time>2026-04-12T06:55:47.12Z</time></trkpt><trkpt lat="43.7052724" lon="11.6214804"><ele>1234.6</ele><time>2026-04-12T06:55:48.188Z</time></trkpt><trkpt lat="43.70519" lon="11.6213687"><ele>1234.2</ele><time>2026-04-12T06:55:49.142Z</time></trkpt><trkpt lat="43.7051139" lon="11.6212467"><ele>1233.8</ele><time>2026-04-12T06:55:50.123Z</time></trkpt><trkpt lat="43.705052" lon="11.6211275"><ele>1233.4</ele><time>2026-04-12T06:55:51.127Z</time></trkpt><trkpt lat="43.705003" lon="11.6210011"><ele>1233.0</ele><time>2026-04-12T06:55:52.121Z</time></trkpt><trkpt lat="43.7049594" lon="11.620866"><ele>1233.0</ele><time>2026-04-12T06:55:53.133Z</time></trkpt><trkpt lat="43.7049092" lon="11.6207349"><ele>1233.0</ele><time>2026-04-12T06:55:54.122Z</time></trkpt><trkpt lat="43.7048652" lon="11.6206145"><ele>1233.0</ele><time>2026-04-12T06:55:55.192Z</time></trkpt><trkpt lat="43.7048395" lon="11.6205017"><ele>1233.0</ele><time>2026-04-12T06:55:56.188Z</time></trkpt><trkpt lat="43.7048272" lon="11.6203915"><ele>1233.0</ele><time>2026-04-12T06:55:57.218Z</time></trkpt><trkpt lat="43.7047974" lon="11.620286"><ele>1233.0</ele><time>2026-04-12T06:55:58.191Z</time></trkpt><trkpt lat="43.7047564" lon="11.6201962"><ele>1233.0</ele><time>2026-04-12T06:55:59.193Z</time></trkpt><trkpt lat="43.7047189" lon="11.6201162"><ele>1233.0</ele><time>2026-04-12T06:56:00.184Z</time></trkpt><trkpt lat="43.7047173" lon="11.620005"><ele>1233.0</ele><time>2026-04-12T06:56:02.088Z</time></trkpt><trkpt lat="43.7047893" lon="11.6199981"><ele>1233.0</ele><time>2026-04-12T06:56:04.119Z</time></trkpt><trkpt lat="43.7048516" lon="11.6201181"><ele>1233.0</ele><time>2026-04-12T06:56:06.111Z</time></trkpt><trkpt lat="43.7048938" lon="11.6201851"><ele>1233.0</ele><time>2026-04-12T06:56:07.103Z</time></trkpt><trkpt lat="43.7049929" lon="11.6202655"><ele>1233.0</ele><time>2026-04-12T06:56:09.137Z</time></trkpt><trkpt lat="43.7050455" lon="11.6204054"><ele>1233.0</ele><time>2026-04-12T06:56:11.165Z</time></trkpt><trkpt lat="43.7050684" lon="11.6205125"><ele>1233.0</ele><time>2026-04-12T06:56:12.12Z</time></trkpt><trkpt lat="43.7051005" lon="11.6206097"><ele>1233.0</ele><time>2026-04-12T06:56:13.135Z</time></trkpt><trkpt lat="43.7051818" lon="11.6206273"><ele>1230.8</ele><time>2026-04-12T06:56:15.193Z</time></trkpt><trkpt lat="43.7052469" lon="11.6205506"><ele>1228.6</ele><time>2026-04-12T06:56:16.176Z</time></trkpt><trkpt lat="43.705305" lon="11.6204711"><ele>1226.4</ele><time>2026-04-12T06:56:17.176Z</time></trkpt><trkpt lat="43.7053365" lon="11.6203781"><ele>1224.2</ele><time>2026-04-12T06:56:18.1Z</time></trkpt><trkpt lat="43.7053653" lon="11.6202332"><ele>1222.0</ele><time>2026-04-12T06:56:19.119Z</time></trkpt><trkpt lat="43.7053976" lon="11.620065"><ele>1219.6</ele><time>2026-04-12T06:56:20.175Z</time></trkpt><trkpt lat="43.7054295" lon="11.6199015"><ele>1217.2</ele><time>2026-04-12T06:56:21.141Z</time></trkpt><trkpt lat="43.7054327" lon="11.6197572"><ele>1214.8</ele><time>2026-04-12T06:56:22.228Z</time></trkpt><trkpt lat="43.7054081" lon="11.6196171"><ele>1212.4</ele><time>2026-04-12T06:56:23.211Z</time></trkpt><trkpt lat="43.7053739" lon="11.6194902"><ele>1210.0</ele><time>2026-04-12T06:56:24.2Z</time></trkpt><trkpt lat="43.7053397" lon="11.6193697"><ele>1208.4</ele><time>2026-04-12T06:56:25.212Z</time></trkpt><trkpt lat="43.7053097" lon="11.6192485"><ele>1206.8</ele><time>2026-04-12T06:56:26.2Z</time></trkpt><trkpt lat="43.7052886" lon="11.6191159"><ele>1205.2</ele><time>2026-04-12T06:56:27.2Z</time></trkpt><trkpt lat="43.7052573" lon="11.6189897"><ele>1203.6</ele><time>2026-04-12T06:56:28.127Z</time></trkpt><trkpt lat="43.7052092" lon="11.6188653"><ele>1202.0</ele><time>2026-04-12T06:56:29.119Z</time></trkpt><trkpt lat="43.7051545" lon="11.6187344"><ele>1205.0</ele><time>2026-04-12T06:56:30.199Z</time></trkpt><trkpt lat="43.7051113" lon="11.6186177"><ele>1208.0</ele><time>2026-04-12T06:56:31.211Z</time></trkpt><trkpt lat="43.7050853" lon="11.618526"><ele>1211.0</ele><time>2026-04-12T06:56:32.209Z</time></trkpt><trkpt lat="43.705105" lon="11.6184369"><ele>1214.0</ele><time>2026-04-12T06:56:33.194Z</time></trkpt><trkpt lat="43.7051512" lon="11.6183251"><ele>1217.0</ele><time>2026-04-12T06:56:34.198Z</time></trkpt><trkpt lat="43.7051714" lon="11.6182223"><ele>1220.0</ele><time>2026-04-12T06:56:35.153Z</time></trkpt><trkpt lat="43.7051804" lon="11.6181204"><ele>1220.0</ele><time>2026-04-12T06:56:36.198Z</time></trkpt><trkpt lat="43.705177" lon="11.618006"><ele>1220.0</ele><time>2026-04-12T06:56:37.196Z</time></trkpt><trkpt lat="43.7051719" lon="11.6179029"><ele>1220.0</ele><time>2026-04-12T06:56:38.183Z</time></trkpt><trkpt lat="43.7051372" lon="11.617794"><ele>1220.0</ele><time>2026-04-12T06:56:39.123Z</time></trkpt><trkpt lat="43.705079" lon="11.6176966"><ele>1220.0</ele><time>2026-04-12T06:56:40.12Z</time></trkpt><trkpt lat="43.7050089" lon="11.6176335"><ele>1220.0</ele><time>2026-04-12T06:56:41.174Z</time></trkpt><trkpt lat="43.7049521" lon="11.6175854"><ele>1216.4</ele><time>2026-04-12T06:56:42.162Z</time></trkpt><trkpt lat="43.7048637" lon="11.6175005"><ele>1212.8</ele><time>2026-04-12T06:56:44.192Z</time></trkpt><trkpt lat="43.7047824" lon="11.6173493"><ele>1209.2</ele><time>2026-04-12T06:56:46.193Z</time></trkpt><trkpt lat="43.7047363" lon="11.6172435"><ele>1205.6</ele><time>2026-04-12T06:56:47.209Z</time></trkpt><trkpt lat="43.7046858" lon="11.6171179"><ele>1202.0</ele><time>2026-04-12T06:56:48.187Z</time></trkpt><trkpt lat="43.7046279" lon="11.6170041"><ele>1200.4</ele><time>2026-04-12T06:56:49.179Z</time></trkpt><trkpt lat="43.7045635" lon="11.6169034"><ele>1198.8000000000002</ele><time>2026-04-12T06:56:50.195Z</time></trkpt><trkpt lat="43.7044881" lon="11.6168248"><ele>1197.2</ele><time>2026-04-12T06:56:51.194Z</time></trkpt><trkpt lat="43.7044241" lon="11.6167439"><ele>1195.6000000000001</ele><time>2026-04-12T06:56:52.211Z</time></trkpt><trkpt lat="43.7043608" lon="11.6166679"><ele>1194.0</ele><time>2026-04-12T06:56:53.22Z</time></trkpt><trkpt lat="43.7042874" lon="11.616601"><ele>1194.0</ele><time>2026-04-12T06:56:54.22Z</time></trkpt><trkpt lat="43.7042003" lon="11.6165749"><ele>1194.0</ele><time>2026-04-12T06:56:55.191Z</time></trkpt><trkpt lat="43.7041024" lon="11.6165778"><ele>1194.0</ele><time>2026-04-12T06:56:56.165Z</time></trkpt><trkpt lat="43.7040175" lon="11.6165821"><ele>1194.0</ele><time>2026-04-12T06:56:57.175Z</time></trkpt><trkpt lat="43.7039464" lon="11.6165992"><ele>1194.0</ele><time>2026-04-12T06:56:58.393Z</time></trkpt><trkpt lat="43.7038209" lon="11.6166776"><ele>1194.0</ele><time>2026-04-12T06:57:00.192Z</time></trkpt><trkpt lat="43.7037645" lon="11.6167168"><ele>1194.0</ele><time>2026-04-12T06:57:01.184Z</time></trkpt><trkpt lat="43.7036572" lon="11.6167557"><ele>1194.0</ele><time>2026-04-12T06:57:03.202Z</time></trkpt><trkpt lat="43.7035466" lon="11.616713"><ele>1194.0</ele><time>2026-04-12T06:57:05.15Z</time></trkpt><trkpt lat="43.7034565" lon="11.6166468"><ele>1194.0</ele><time>2026-04-12T06:57:07.207Z</time></trkpt><trkpt lat="43.7034013" lon="11.6165231"><ele>1194.6000000000001</ele><time>2026-04-12T06:57:09.186Z</time></trkpt><trkpt lat="43.7033808" lon="11.6164238"><ele>1195.2</ele><time>2026-04-12T06:57:10.118Z</time></trkpt><trkpt lat="43.7033435" lon="11.6163354"><ele>1195.8000000000002</ele><time>2026-04-12T06:57:11.175Z</time></trkpt><trkpt lat="43.703302" lon="11.616264"><ele>1196.4</ele><time>2026-04-12T06:57:12.189Z</time></trkpt><trkpt lat="43.7032001" lon="11.6161577"><ele>1197.0</ele><time>2026-04-12T06:57:14.309Z</time></trkpt><trkpt lat="43.7030967" lon="11.616038"><ele>1194.6666666666667</ele><time>2026-04-12T06:57:16.127Z</time></trkpt><trkpt lat="43.7030621" lon="11.6159512"><ele>1192.3333333333333</ele><time>2026-04-12T06:57:17.133Z</time></trkpt><trkpt lat="43.703032" lon="11.6158676"><ele>1190.0</ele><time>2026-04-12T06:57:18.288Z</time></trkpt><trkpt lat="43.7029705" lon="11.6157588"><ele>1187.6666666666665</ele><time>2026-04-12T06:57:20.182Z</time></trkpt><trkpt lat="43.7029172" lon="11.6156881"><ele>1185.3333333333333</ele><time>2026-04-12T06:57:22.231Z</time></trkpt><trkpt lat="43.702868" lon="11.6155646"><ele>1183.0</ele><time>2026-04-12T06:57:25.27Z</time></trkpt><trkpt lat="43.7029013" lon="11.6154688"><ele>1183.0</ele><time>2026-04-12T06:57:27.241Z</time></trkpt><trkpt lat="43.7029324" lon="11.6153661"><ele>1183.0</ele><time>2026-04-12T06:57:29.407Z</time></trkpt><trkpt lat="43.7029245" lon="11.6152164"><ele>1183.0</ele><time>2026-04-12T06:57:31.231Z</time></trkpt><trkpt lat="43.7029317" lon="11.6150758"><ele>1183.0</ele><time>2026-04-12T06:57:33.431Z</time></trkpt><trkpt lat="43.7029942" lon="11.6150371"><ele>1183.0</ele><time>2026-04-12T06:57:37.137Z</time></trkpt><trkpt lat="43.7030571" lon="11.6150594"><ele>1183.0</ele><time>2026-04-12T06:57:39.443Z</time></trkpt><trkpt lat="43.7031574" lon="11.6150134"><ele>1182.8</ele><time>2026-04-12T06:57:41.217Z</time></trkpt><trkpt lat="43.7032814" lon="11.6149373"><ele>1182.6</ele><time>2026-04-12T06:57:43.151Z</time></trkpt><trkpt lat="43.7033634" lon="11.6148674"><ele>1182.4</ele><time>2026-04-12T06:57:44.146Z</time></trkpt><trkpt lat="43.7034433" lon="11.6147933"><ele>1182.2</ele><time>2026-04-12T06:57:45.149Z</time></trkpt><trkpt lat="43.7035117" lon="11.6147353"><ele>1182.0</ele><time>2026-04-12T06:57:46.14Z</time></trkpt><trkpt lat="43.7035997" lon="11.6146365"><ele>1182.0</ele><time>2026-04-12T06:57:48.196Z</time></trkpt><trkpt lat="43.7036764" lon="11.6144954"><ele>1182.0</ele><time>2026-04-12T06:57:50.206Z</time></trkpt><trkpt lat="43.7037294" lon="11.6143475"><ele>1182.0</ele><time>2026-04-12T06:57:52.212Z</time></trkpt><trkpt lat="43.7037645" lon="11.6141861"><ele>1182.0</ele><time>2026-04-12T06:57:54.217Z</time></trkpt><trkpt lat="43.703787" lon="11.6141019"><ele>1182.0</ele><time>2026-04-12T06:57:55.174Z</time></trkpt><trkpt lat="43.7038192" lon="11.6139944"><ele>1184.6666666666667</ele><time>2026-04-12T06:57:56.212Z</time></trkpt><trkpt lat="43.7038505" lon="11.6138674"><ele>1187.3333333333333</ele><time>2026-04-12T06:57:57.216Z</time></trkpt><trkpt lat="43.7038843" lon="11.6137457"><ele>1190.0</ele><time>2026-04-12T06:57:58.221Z</time></trkpt><trkpt lat="43.7039197" lon="11.6136604"><ele>1192.6666666666665</ele><time>2026-04-12T06:57:59.224Z</time></trkpt><trkpt lat="43.7039484" lon="11.6135798"><ele>1195.3333333333333</ele><time>2026-04-12T06:58:00.16Z</time></trkpt><trkpt lat="43.7039788" lon="11.6135022"><ele>1198.0</ele><time>2026-04-12T06:58:01.2Z</time></trkpt><trkpt lat="43.7040357" lon="11.6133579"><ele>1200.5</ele><time>2026-04-12T06:58:03.41Z</time></trkpt><trkpt lat="43.7040219" lon="11.6132725"><ele>1203.0</ele><time>2026-04-12T06:58:07.384Z</time></trkpt><trkpt lat="43.7039693" lon="11.613366"><ele>1205.5</ele><time>2026-04-12T06:58:15.212Z</time></trkpt><trkpt lat="43.7039165" lon="11.613457"><ele>1208.0</ele><time>2026-04-12T06:58:17.208Z</time></trkpt><trkpt lat="43.7038762" lon="11.6135447"><ele>1210.5</ele><time>2026-04-12T06:58:19.217Z</time></trkpt><trkpt lat="43.7037927" lon="11.6135934"><ele>1213.0</ele><time>2026-04-12T06:58:29.165Z</time></trkpt><trkpt lat="43.7037269" lon="11.6135976"><ele>1213.0</ele><time>2026-04-12T06:58:31.186Z</time></trkpt><trkpt lat="43.703664" lon="11.6135817"><ele>1213.0</ele><time>2026-04-12T06:58:33.208Z</time></trkpt><trkpt lat="43.7036023" lon="11.6135453"><ele>1213.0</ele><time>2026-04-12T06:58:35.399Z</time></trkpt><trkpt lat="43.7035411" lon="11.6134806"><ele>1213.0</ele><time>2026-04-12T06:58:37.219Z</time></trkpt><trkpt lat="43.7034807" lon="11.613419"><ele>1213.0</ele><time>2026-04-12T06:58:39.218Z</time></trkpt><trkpt lat="43.7034423" lon="11.6133387"><ele>1213.0</ele><time>2026-04-12T06:58:41.194Z</time></trkpt><trkpt lat="43.7034823" lon="11.6132227"><ele>1213.0</ele><time>2026-04-12T06:58:43.177Z</time></trkpt><trkpt lat="43.7035053" lon="11.6130994"><ele>1214.8333333333333</ele><time>2026-04-12T06:58:45.202Z</time></trkpt><trkpt lat="43.7034686" lon="11.6130187"><ele>1216.6666666666665</ele><time>2026-04-12T06:58:47.153Z</time></trkpt><trkpt lat="43.7034078" lon="11.6129544"><ele>1218.5</ele><time>2026-04-12T06:58:49.164Z</time></trkpt><trkpt lat="43.7034356" lon="11.6128354"><ele>1220.3333333333333</ele><time>2026-04-12T06:58:51.169Z</time></trkpt><trkpt lat="43.7034619" lon="11.6127339"><ele>1222.1666666666667</ele><time>2026-04-12T06:58:52.184Z</time></trkpt><trkpt lat="43.7035317" lon="11.6126038"><ele>1224.0</ele><time>2026-04-12T06:58:54.421Z</time></trkpt><trkpt lat="43.7035854" lon="11.6125059"><ele>1225.0</ele><time>2026-04-12T06:58:56.183Z</time></trkpt><trkpt lat="43.7035945" lon="11.6123807"><ele>1226.0</ele><time>2026-04-12T06:58:58.221Z</time></trkpt><trkpt lat="43.7036106" lon="11.6122213"><ele>1227.0</ele><time>2026-04-12T06:59:00.209Z</time></trkpt><trkpt lat="43.7035979" lon="11.6120906"><ele>1228.0</ele><time>2026-04-12T06:59:01.213Z</time></trkpt><trkpt lat="43.7035869" lon="11.6119354"><ele>1229.0</ele><time>2026-04-12T06:59:02.45Z</time></trkpt><trkpt lat="43.7035846" lon="11.6116862"><ele>1231.6000000000001</ele><time>2026-04-12T06:59:04.462Z</time></trkpt><trkpt lat="43.7035826" lon="11.6115064"><ele>1234.2</ele><time>2026-04-12T06:59:06.204Z</time></trkpt><trkpt lat="43.703615" lon="11.6112873"><ele>1236.8000000000002</ele><time>2026-04-12T06:59:09.477Z</time></trkpt><trkpt lat="43.7036571" lon="11.6112222"><ele>1239.4</ele><time>2026-04-12T06:59:15.458Z</time></trkpt><trkpt lat="43.7037003" lon="11.6113314"><ele>1242.0</ele><time>2026-04-12T06:59:17.415Z</time></trkpt><trkpt lat="43.7037995" lon="11.6114868"><ele>1242.0</ele><time>2026-04-12T06:59:19.174Z</time></trkpt><trkpt lat="43.7038548" lon="11.6115683"><ele>1242.0</ele><time>2026-04-12T06:59:20.198Z</time></trkpt><trkpt lat="43.7039068" lon="11.6116411"><ele>1242.0</ele><time>2026-04-12T06:59:21.201Z</time></trkpt><trkpt lat="43.7039624" lon="11.6117115"><ele>1242.0</ele><time>2026-04-12T06:59:22.22Z</time></trkpt><trkpt lat="43.7040134" lon="11.6117767"><ele>1242.0</ele><time>2026-04-12T06:59:23.428Z</time></trkpt><trkpt lat="43.7041284" lon="11.6119078"><ele>1242.0</ele><time>2026-04-12T06:59:25.473Z</time></trkpt><trkpt lat="43.7042145" lon="11.6120043"><ele>1239.8333333333333</ele><time>2026-04-12T06:59:27.224Z</time></trkpt><trkpt lat="43.7042792" lon="11.6120402"><ele>1237.6666666666667</ele><time>2026-04-12T06:59:28.224Z</time></trkpt><trkpt lat="43.7043596" lon="11.612099"><ele>1235.5</ele><time>2026-04-12T06:59:29.221Z</time></trkpt><trkpt lat="43.7044391" lon="11.6121577"><ele>1233.3333333333335</ele><time>2026-04-12T06:59:30.215Z</time></trkpt><trkpt lat="43.7045126" lon="11.6122248"><ele>1231.1666666666667</ele><time>2026-04-12T06:59:31.216Z</time></trkpt><trkpt lat="43.7045925" lon="11.6122737"><ele>1229.0</ele><time>2026-04-12T06:59:32.438Z</time></trkpt><trkpt lat="43.7047694" lon="11.6123255"><ele>1227.3333333333335</ele><time>2026-04-12T06:59:34.432Z</time></trkpt><trkpt lat="43.7049206" lon="11.6123754"><ele>1225.6666666666667</ele><time>2026-04-12T06:59:36.162Z</time></trkpt><trkpt lat="43.7049972" lon="11.6123985"><ele>1224.0</ele><time>2026-04-12T06:59:37.212Z</time></trkpt><trkpt lat="43.7050625" lon="11.6124125"><ele>1222.3333333333333</ele><time>2026-04-12T06:59:38.222Z</time></trkpt><trkpt lat="43.7051364" lon="11.6124189"><ele>1220.6666666666665</ele><time>2026-04-12T06:59:39.194Z</time></trkpt><trkpt lat="43.7052048" lon="11.6124388"><ele>1219.0</ele><time>2026-04-12T06:59:40.13Z</time></trkpt><trkpt lat="43.7053037" lon="11.612528"><ele>1216.0</ele><time>2026-04-12T06:59:42.143Z</time></trkpt><trkpt lat="43.7054912" lon="11.6125897"><ele>1213.0</ele><time>2026-04-12T06:59:45.27Z</time></trkpt><trkpt lat="43.7056324" lon="11.6126562"><ele>1210.0</ele><time>2026-04-12T06:59:47.269Z</time></trkpt><trkpt lat="43.7058544" lon="11.6127802"><ele>1205.6666666666665</ele><time>2026-04-12T06:59:49.267Z</time></trkpt><trkpt lat="43.7061453" lon="11.612896"><ele>1201.3333333333333</ele><time>2026-04-12T06:59:51.148Z</time></trkpt><trkpt lat="43.7062497" lon="11.6129354"><ele>1197.0</ele><time>2026-04-12T06:59:52.223Z</time></trkpt><trkpt lat="43.7063204" lon="11.6129634"><ele>1197.0</ele><time>2026-04-12T06:59:53.404Z</time></trkpt><trkpt lat="43.7064324" lon="11.6130105"><ele>1197.0</ele><time>2026-04-12T06:59:55.261Z</time></trkpt><trkpt lat="43.7065087" lon="11.6130544"><ele>1197.0</ele><time>2026-04-12T06:59:56.162Z</time></trkpt><trkpt lat="43.7065875" lon="11.6131071"><ele>1197.0</ele><time>2026-04-12T06:59:57.296Z</time></trkpt><trkpt lat="43.7066612" lon="11.6131522"><ele>1197.0</ele><time>2026-04-12T06:59:58.225Z</time></trkpt><trkpt lat="43.7067234" lon="11.6131983"><ele>1197.0</ele><time>2026-04-12T06:59:59.23Z</time></trkpt><trkpt lat="43.7067817" lon="11.6132864"><ele>1197.0</ele><time>2026-04-12T07:00:01.175Z</time></trkpt><trkpt lat="43.7068662" lon="11.6133301"><ele>1197.0</ele><time>2026-04-12T07:00:03.261Z</time></trkpt><trkpt lat="43.7069405" lon="11.6133449"><ele>1197.0</ele><time>2026-04-12T07:00:04.214Z</time></trkpt><trkpt lat="43.707015" lon="11.6133757"><ele>1197.0</ele><time>2026-04-12T07:00:05.419Z</time></trkpt><trkpt lat="43.7071172" lon="11.6134104"><ele>1197.0</ele><time>2026-04-12T07:00:07.171Z</time></trkpt><trkpt lat="43.7071897" lon="11.613395"><ele>1197.0</ele><time>2026-04-12T07:00:09.219Z</time></trkpt><trkpt lat="43.7073104" lon="11.6134003"><ele>1193.6666666666667</ele><time>2026-04-12T07:00:11.223Z</time></trkpt><trkpt lat="43.7073865" lon="11.6133326"><ele>1190.3333333333333</ele><time>2026-04-12T07:00:13.391Z</time></trkpt><trkpt lat="43.7074339" lon="11.6132133"><ele>1187.0</ele><time>2026-04-12T07:00:17.119Z</time></trkpt><trkpt lat="43.7073953" lon="11.6131386"><ele>1183.6666666666665</ele><time>2026-04-12T07:00:19.138Z</time></trkpt><trkpt lat="43.7073749" lon="11.6130482"><ele>1180.3333333333333</ele><time>2026-04-12T07:00:22.154Z</time></trkpt><trkpt lat="43.7074389" lon="11.6130056"><ele>1177.0</ele><time>2026-04-12T07:00:26.211Z</time></trkpt><trkpt lat="43.7074985" lon="11.6129771"><ele>1177.0</ele><time>2026-04-12T07:00:28.201Z</time></trkpt><trkpt lat="43.7075733" lon="11.6129392"><ele>1177.0</ele><time>2026-04-12T07:00:31.227Z</time></trkpt><trkpt lat="43.7076366" lon="11.6130452"><ele>1177.0</ele><time>2026-04-12T07:00:47.416Z</time></trkpt><trkpt lat="43.707681" lon="11.6131116"><ele>1177.0</ele><time>2026-04-12T07:00:51.215Z</time></trkpt><trkpt lat="43.7077418" lon="11.6131781"><ele>1177.0</ele><time>2026-04-12T07:00:56.208Z</time></trkpt><trkpt lat="43.7077864" lon="11.6132525"><ele>1177.0</ele><time>2026-04-12T07:01:00.204Z</time></trkpt><trkpt lat="43.7077822" lon="11.6133803"><ele>1177.0</ele><time>2026-04-12T07:01:03.198Z</time></trkpt><trkpt lat="43.7077487" lon="11.6135215"><ele>1177.0</ele><time>2026-04-12T07:01:05.132Z</time></trkpt><trkpt lat="43.7077076" lon="11.6136161"><ele>1177.0</ele><time>2026-04-12T07:01:06.149Z</time></trkpt><trkpt lat="43.7076503" lon="11.6136948"><ele>1177.0</ele><time>2026-04-12T07:01:07.156Z</time></trkpt><trkpt lat="43.7075996" lon="11.6137771"><ele>1177.0</ele><time>2026-04-12T07:01:08.142Z</time></trkpt><trkpt lat="43.7075431" lon="11.6138507"><ele>1177.0</ele><time>2026-04-12T07:01:09.215Z</time></trkpt><trkpt lat="43.707471" lon="11.6139297"><ele>1171.75</ele><time>2026-04-12T07:01:10.208Z</time></trkpt><trkpt lat="43.7073642" lon="11.6139927"><ele>1166.5</ele><time>2026-04-12T07:01:11.216Z</time></trkpt><trkpt lat="43.7072514" lon="11.614057"><ele>1161.25</ele><time>2026-04-12T07:01:12.204Z</time></trkpt><trkpt lat="43.7071405" lon="11.614105"><ele>1156.0</ele><time>2026-04-12T07:01:13.369Z</time></trkpt><trkpt lat="43.7069458" lon="11.614167"><ele>1155.3333333333333</ele><time>2026-04-12T07:01:15.214Z</time></trkpt><trkpt lat="43.7068916" lon="11.6142198"><ele>1154.6666666666665</ele><time>2026-04-12T07:01:16.184Z</time></trkpt><trkpt lat="43.7068412" lon="11.6143006"><ele>1154.0</ele><time>2026-04-12T07:01:17.19Z</time></trkpt><trkpt lat="43.7068203" lon="11.6143918"><ele>1153.3333333333333</ele><time>2026-04-12T07:01:18.185Z</time></trkpt><trkpt lat="43.706794" lon="11.6145204"><ele>1152.6666666666667</ele><time>2026-04-12T07:01:20.41Z</time></trkpt><trkpt lat="43.706833" lon="11.614611"><ele>1152.0</ele><time>2026-04-12T07:01:22.381Z</time></trkpt><trkpt lat="43.7069365" lon="11.614661"><ele>1147.25</ele><time>2026-04-12T07:01:24.347Z</time></trkpt><trkpt lat="43.7071264" lon="11.6146899"><ele>1142.5</ele><time>2026-04-12T07:01:26.181Z</time></trkpt><trkpt lat="43.7072231" lon="11.6146958"><ele>1137.75</ele><time>2026-04-12T07:01:27.138Z</time></trkpt><trkpt lat="43.7073027" lon="11.6146922"><ele>1133.0</ele><time>2026-04-12T07:01:28.307Z</time></trkpt><trkpt lat="43.7074302" lon="11.614585"><ele>1137.75</ele><time>2026-04-12T07:01:30.268Z</time></trkpt><trkpt lat="43.707536" lon="11.6143932"><ele>1142.5</ele><time>2026-04-12T07:01:32.359Z</time></trkpt><trkpt lat="43.7076624" lon="11.6142553"><ele>1147.25</ele><time>2026-04-12T07:01:34.416Z</time></trkpt><trkpt lat="43.7077476" lon="11.6141654"><ele>1152.0</ele><time>2026-04-12T07:01:36.174Z</time></trkpt><trkpt lat="43.707801" lon="11.6140765"><ele>1152.0</ele><time>2026-04-12T07:01:38.231Z</time></trkpt><trkpt lat="43.7078632" lon="11.6140295"><ele>1152.0</ele><time>2026-04-12T07:01:41.18Z</time></trkpt><trkpt lat="43.7079333" lon="11.6140945"><ele>1152.0</ele><time>2026-04-12T07:01:44.172Z</time></trkpt><trkpt lat="43.7079982" lon="11.6142177"><ele>1152.0</ele><time>2026-04-12T07:01:47.226Z</time></trkpt><trkpt lat="43.7080151" lon="11.6143809"><ele>1152.0</ele><time>2026-04-12T07:01:49.205Z</time></trkpt><trkpt lat="43.7080188" lon="11.6145479"><ele>1149.8</ele><time>2026-04-12T07:01:51.139Z</time></trkpt><trkpt lat="43.7080535" lon="11.6147722"><ele>1147.6</ele><time>2026-04-12T07:01:54.282Z</time></trkpt><trkpt lat="43.7081002" lon="11.6148678"><ele>1145.3999999999999</ele><time>2026-04-12T07:01:56.211Z</time></trkpt><trkpt lat="43.7081549" lon="11.6149666"><ele>1143.2</ele><time>2026-04-12T07:01:59.225Z</time></trkpt><trkpt lat="43.7082179" lon="11.6150211"><ele>1141.0</ele><time>2026-04-12T07:02:01.177Z</time></trkpt><trkpt lat="43.7082923" lon="11.6150418"><ele>1141.0</ele><time>2026-04-12T07:02:04.211Z</time></trkpt><trkpt lat="43.7083529" lon="11.6150067"><ele>1141.0</ele><time>2026-04-12T07:02:12.422Z</time></trkpt><trkpt lat="43.7084023" lon="11.6149015"><ele>1141.0</ele><time>2026-04-12T07:02:18.405Z</time></trkpt><trkpt lat="43.7084488" lon="11.6147751"><ele>1141.0</ele><time>2026-04-12T07:02:20.164Z</time></trkpt><trkpt lat="43.7085101" lon="11.6146333"><ele>1141.0</ele><time>2026-04-12T07:02:22.243Z</time></trkpt><trkpt lat="43.7086041" lon="11.6145039"><ele>1147.75</ele><time>2026-04-12T07:02:24.418Z</time></trkpt><trkpt lat="43.7087117" lon="11.6143862"><ele>1154.5</ele><time>2026-04-12T07:02:26.205Z</time></trkpt><trkpt lat="43.7087783" lon="11.6143293"><ele>1161.25</ele><time>2026-04-12T07:02:27.229Z</time></trkpt><trkpt lat="43.7088403" lon="11.6142708"><ele>1168.0</ele><time>2026-04-12T07:02:28.449Z</time></trkpt><trkpt lat="43.7089756" lon="11.6141441"><ele>1168.0</ele><time>2026-04-12T07:02:30.423Z</time></trkpt><trkpt lat="43.7091185" lon="11.6140545"><ele>1168.0</ele><time>2026-04-12T07:02:32.446Z</time></trkpt><trkpt lat="43.7092623" lon="11.6140068"><ele>1168.0</ele><time>2026-04-12T07:02:34.487Z</time></trkpt><trkpt lat="43.7093289" lon="11.6139928"><ele>1168.0</ele><time>2026-04-12T07:02:35.205Z</time></trkpt><trkpt lat="43.7093962" lon="11.613964"><ele>1168.0</ele><time>2026-04-12T07:02:36.208Z</time></trkpt><trkpt lat="43.7094587" lon="11.6139135"><ele>1167.6</ele><time>2026-04-12T07:02:37.2Z</time></trkpt><trkpt lat="43.7095375" lon="11.613878"><ele>1167.1999999999998</ele><time>2026-04-12T07:02:38.192Z</time></trkpt><trkpt lat="43.7096209" lon="11.6138547"><ele>1166.8</ele><time>2026-04-12T07:02:39.21Z</time></trkpt><trkpt lat="43.7097117" lon="11.6137864"><ele>1166.3999999999999</ele><time>2026-04-12T07:02:41.222Z</time></trkpt><trkpt lat="43.7097926" lon="11.6136849"><ele>1166.0</ele><time>2026-04-12T07:02:43.29Z</time></trkpt><trkpt lat="43.7098339" lon="11.6135961"><ele>1169.0</ele><time>2026-04-12T07:02:44.212Z</time></trkpt><trkpt lat="43.7098586" lon="11.6135019"><ele>1172.0</ele><time>2026-04-12T07:02:45.17Z</time></trkpt><trkpt lat="43.7098704" lon="11.6134108"><ele>1175.0</ele><time>2026-04-12T07:02:46.191Z</time></trkpt><trkpt lat="43.7098234" lon="11.6132392"><ele>1178.0</ele><time>2026-04-12T07:02:48.193Z</time></trkpt><trkpt lat="43.7097776" lon="11.6131337"><ele>1181.0</ele><time>2026-04-12T07:02:49.186Z</time></trkpt><trkpt lat="43.709729" lon="11.6130277"><ele>1181.0</ele><time>2026-04-12T07:02:50.159Z</time></trkpt><trkpt lat="43.7096774" lon="11.6129061"><ele>1181.0</ele><time>2026-04-12T07:02:52.204Z</time></trkpt><trkpt lat="43.7095994" lon="11.6127816"><ele>1181.0</ele><time>2026-04-12T07:02:54.181Z</time></trkpt><trkpt lat="43.7095679" lon="11.6126741"><ele>1181.0</ele><time>2026-04-12T07:02:55.212Z</time></trkpt><trkpt lat="43.7095476" lon="11.6125503"><ele>1181.0</ele><time>2026-04-12T07:02:56.227Z</time></trkpt><trkpt lat="43.7095229" lon="11.6124329"><ele>1181.2</ele><time>2026-04-12T07:02:57.216Z</time></trkpt><trkpt lat="43.7094869" lon="11.6123093"><ele>1181.3999999999999</ele><time>2026-04-12T07:02:58.211Z</time></trkpt><trkpt lat="43.7094293" lon="11.6121913"><ele>1181.6</ele><time>2026-04-12T07:02:59.217Z</time></trkpt><trkpt lat="43.7093705" lon="11.6120789"><ele>1181.8</ele><time>2026-04-12T07:03:00.224Z</time></trkpt><trkpt lat="43.7093209" lon="11.6119747"><ele>1182.0</ele><time>2026-04-12T07:03:01.229Z</time></trkpt><trkpt lat="43.7092742" lon="11.6118874"><ele>1183.3333333333333</ele><time>2026-04-12T07:03:02.243Z</time></trkpt><trkpt lat="43.7092263" lon="11.6118059"><ele>1184.6666666666667</ele><time>2026-04-12T07:03:03.255Z</time></trkpt><trkpt lat="43.7091838" lon="11.6117383"><ele>1186.0</ele><time>2026-04-12T07:03:04.203Z</time></trkpt><trkpt lat="43.7091392" lon="11.6116506"><ele>1187.3333333333335</ele><time>2026-04-12T07:03:05.231Z</time></trkpt><trkpt lat="43.7090994" lon="11.6115638"><ele>1188.6666666666667</ele><time>2026-04-12T07:03:06.235Z</time></trkpt><trkpt lat="43.7090756" lon="11.6114788"><ele>1190.0</ele><time>2026-04-12T07:03:07.222Z</time></trkpt><trkpt lat="43.7090135" lon="11.611325"><ele>1190.0</ele><time>2026-04-12T07:03:09.224Z</time></trkpt><trkpt lat="43.7089611" lon="11.6112563"><ele>1190.0</ele><time>2026-04-12T07:03:10.228Z</time></trkpt><trkpt lat="43.7089134" lon="11.6111919"><ele>1190.0</ele><time>2026-04-12T07:03:11.246Z</time></trkpt><trkpt lat="43.7088301" lon="11.6110614"><ele>1190.0</ele><time>2026-04-12T07:03:13.22Z</time></trkpt><trkpt lat="43.7087282" lon="11.6109403"><ele>1190.0</ele><time>2026-04-12T07:03:15.168Z</time></trkpt><trkpt lat="43.7086545" lon="11.6108582"><ele>1192.3333333333335</ele><time>2026-04-12T07:03:16.159Z</time></trkpt><trkpt lat="43.7085695" lon="11.6107672"><ele>1194.6666666666667</ele><time>2026-04-12T07:03:17.154Z</time></trkpt><trkpt lat="43.7084994" lon="11.6106973"><ele>1197.0</ele><time>2026-04-12T07:03:18.14Z</time></trkpt><trkpt lat="43.7084384" lon="11.6106443"><ele>1199.3333333333333</ele><time>2026-04-12T07:03:19.163Z</time></trkpt><trkpt lat="43.70837" lon="11.6105846"><ele>1201.6666666666665</ele><time>2026-04-12T07:03:21.22Z</time></trkpt><trkpt lat="43.7083207" lon="11.6104665"><ele>1204.0</ele><time>2026-04-12T07:03:24.224Z</time></trkpt><trkpt lat="43.7082939" lon="11.6103441"><ele>1205.5</ele><time>2026-04-12T07:03:26.212Z</time></trkpt><trkpt lat="43.7082509" lon="11.6101967"><ele>1207.0</ele><time>2026-04-12T07:03:28.16Z</time></trkpt><trkpt lat="43.7082268" lon="11.6101094"><ele>1208.5</ele><time>2026-04-12T07:03:29.214Z</time></trkpt><trkpt lat="43.7081984" lon="11.6100198"><ele>1210.0</ele><time>2026-04-12T07:03:30.197Z</time></trkpt><trkpt lat="43.7081569" lon="11.6099474"><ele>1211.5</ele><time>2026-04-12T07:03:31.229Z</time></trkpt><trkpt lat="43.7081048" lon="11.6098799"><ele>1213.0</ele><time>2026-04-12T07:03:32.23Z</time></trkpt><trkpt lat="43.7080511" lon="11.6098242"><ele>1213.0</ele><time>2026-04-12T07:03:33.23Z</time></trkpt><trkpt lat="43.7079557" lon="11.6097406"><ele>1213.0</ele><time>2026-04-12T07:03:35.231Z</time></trkpt><trkpt lat="43.7078937" lon="11.6096318"><ele>1213.0</ele><time>2026-04-12T07:03:37.233Z</time></trkpt><trkpt lat="43.7078251" lon="11.6094879"><ele>1213.0</ele><time>2026-04-12T07:03:39.236Z</time></trkpt><trkpt lat="43.7077798" lon="11.6094109"><ele>1213.0</ele><time>2026-04-12T07:03:40.241Z</time></trkpt><trkpt lat="43.7077215" lon="11.6093614"><ele>1216.8</ele><time>2026-04-12T07:03:41.218Z</time></trkpt><trkpt lat="43.7076332" lon="11.6092541"><ele>1220.6</ele><time>2026-04-12T07:03:43.233Z</time></trkpt><trkpt lat="43.7076046" lon="11.6091461"><ele>1224.4</ele><time>2026-04-12T07:03:45.238Z</time></trkpt><trkpt lat="43.7075686" lon="11.609019"><ele>1228.2</ele><time>2026-04-12T07:03:47.203Z</time></trkpt><trkpt lat="43.7074761" lon="11.6089019"><ele>1232.0</ele><time>2026-04-12T07:03:49.226Z</time></trkpt><trkpt lat="43.7074301" lon="11.6087073"><ele>1234.5</ele><time>2026-04-12T07:03:51.247Z</time></trkpt><trkpt lat="43.7073932" lon="11.608563"><ele>1237.0</ele><time>2026-04-12T07:03:52.221Z</time></trkpt><trkpt lat="43.7073535" lon="11.6084285"><ele>1239.5</ele><time>2026-04-12T07:03:53.216Z</time></trkpt><trkpt lat="43.7072937" lon="11.6082782"><ele>1242.0</ele><time>2026-04-12T07:03:54.228Z</time></trkpt><trkpt lat="43.707236" lon="11.6081483"><ele>1242.0</ele><time>2026-04-12T07:03:55.218Z</time></trkpt><trkpt lat="43.7071862" lon="11.608039"><ele>1242.0</ele><time>2026-04-12T07:03:56.218Z</time></trkpt><trkpt lat="43.7071465" lon="11.6079628"><ele>1242.0</ele><time>2026-04-12T07:03:57.212Z</time></trkpt><trkpt lat="43.7070228" lon="11.6079136"><ele>1242.0</ele><time>2026-04-12T07:03:59.236Z</time></trkpt><trkpt lat="43.706959" lon="11.607898"><ele>1242.0</ele><time>2026-04-12T07:04:00.208Z</time></trkpt><trkpt lat="43.7068311" lon="11.6078519"><ele>1245.8</ele><time>2026-04-12T07:04:02.229Z</time></trkpt><trkpt lat="43.7067315" lon="11.6078049"><ele>1249.6</ele><time>2026-04-12T07:04:04.232Z</time></trkpt><trkpt lat="43.7066334" lon="11.607744"><ele>1253.3999999999999</ele><time>2026-04-12T07:04:06.233Z</time></trkpt><trkpt lat="43.7065762" lon="11.6076484"><ele>1257.2</ele><time>2026-04-12T07:04:08.226Z</time></trkpt><trkpt lat="43.7065893" lon="11.6075501"><ele>1261.0</ele><time>2026-04-12T07:04:09.207Z</time></trkpt><trkpt lat="43.7066098" lon="11.6074479"><ele>1261.0</ele><time>2026-04-12T07:04:10.202Z</time></trkpt><trkpt lat="43.7066332" lon="11.6073328"><ele>1261.0</ele><time>2026-04-12T07:04:11.193Z</time></trkpt><trkpt lat="43.7066751" lon="11.6072006"><ele>1261.0</ele><time>2026-04-12T07:04:12.198Z</time></trkpt><trkpt lat="43.7067194" lon="11.6070718"><ele>1261.0</ele><time>2026-04-12T07:04:13.215Z</time></trkpt><trkpt lat="43.7067638" lon="11.6069568"><ele>1261.0</ele><time>2026-04-12T07:04:14.225Z</time></trkpt><trkpt lat="43.706782" lon="11.6068602"><ele>1263.6</ele><time>2026-04-12T07:04:15.146Z</time></trkpt><trkpt lat="43.7067778" lon="11.6066755"><ele>1266.1999999999998</ele><time>2026-04-12T07:04:17.167Z</time></trkpt><trkpt lat="43.7067719" lon="11.6065503"><ele>1268.8000000000002</ele><time>2026-04-12T07:04:19.161Z</time></trkpt><trkpt lat="43.7067977" lon="11.606438"><ele>1271.4</ele><time>2026-04-12T07:04:21.199Z</time></trkpt><trkpt lat="43.7068407" lon="11.6062985"><ele>1274.0</ele><time>2026-04-12T07:04:23.178Z</time></trkpt><trkpt lat="43.7069024" lon="11.60615"><ele>1274.4</ele><time>2026-04-12T07:04:25.181Z</time></trkpt><trkpt lat="43.7069612" lon="11.6060296"><ele>1274.8000000000002</ele><time>2026-04-12T07:04:26.2Z</time></trkpt><trkpt lat="43.707031" lon="11.605908"><ele>1275.1999999999998</ele><time>2026-04-12T07:04:27.24Z</time></trkpt><trkpt lat="43.7070989" lon="11.6057869"><ele>1275.6</ele><time>2026-04-12T07:04:28.208Z</time></trkpt><trkpt lat="43.7071648" lon="11.6057079"><ele>1276.0</ele><time>2026-04-12T07:04:29.215Z</time></trkpt><trkpt lat="43.7072301" lon="11.605635"><ele>1276.0</ele><time>2026-04-12T07:04:30.23Z</time></trkpt><trkpt lat="43.7072887" lon="11.6055723"><ele>1276.0</ele><time>2026-04-12T07:04:31.164Z</time></trkpt><trkpt lat="43.7073483" lon="11.6054887"><ele>1276.0</ele><time>2026-04-12T07:04:32.158Z</time></trkpt><trkpt lat="43.707429" lon="11.6054376"><ele>1276.0</ele><time>2026-04-12T07:04:33.217Z</time></trkpt><trkpt lat="43.7075484" lon="11.605392"><ele>1276.0</ele><time>2026-04-12T07:04:34.211Z</time></trkpt><trkpt lat="43.7076913" lon="11.6053392"><ele>1276.75</ele><time>2026-04-12T07:04:35.224Z</time></trkpt><trkpt lat="43.7078287" lon="11.6052788"><ele>1277.5</ele><time>2026-04-12T07:04:36.217Z</time></trkpt><trkpt lat="43.7079553" lon="11.6052344"><ele>1278.25</ele><time>2026-04-12T07:04:37.235Z</time></trkpt><trkpt lat="43.7080554" lon="11.6051878"><ele>1279.0</ele><time>2026-04-12T07:04:38.215Z</time></trkpt><trkpt lat="43.7081335" lon="11.6051787"><ele>1279.0</ele><time>2026-04-12T07:04:39.226Z</time></trkpt><trkpt lat="43.7082017" lon="11.6052013"><ele>1279.0</ele><time>2026-04-12T07:04:40.235Z</time></trkpt><trkpt lat="43.7082785" lon="11.605242"><ele>1279.0</ele><time>2026-04-12T07:04:41.202Z</time></trkpt><trkpt lat="43.7083713" lon="11.6052686"><ele>1279.0</ele><time>2026-04-12T07:04:42.198Z</time></trkpt><trkpt lat="43.7084397" lon="11.6052477"><ele>1279.0</ele><time>2026-04-12T07:04:43.159Z</time></trkpt><trkpt lat="43.7085107" lon="11.6052254"><ele>1279.0</ele><time>2026-04-12T07:04:44.23Z</time></trkpt><trkpt lat="43.7085878" lon="11.6052168"><ele>1277.1666666666665</ele><time>2026-04-12T07:04:45.245Z</time></trkpt><trkpt lat="43.7086696" lon="11.6051867"><ele>1275.3333333333333</ele><time>2026-04-12T07:04:46.223Z</time></trkpt><trkpt lat="43.7087427" lon="11.6051338"><ele>1273.5</ele><time>2026-04-12T07:04:47.234Z</time></trkpt><trkpt lat="43.7088079" lon="11.6050997"><ele>1271.6666666666667</ele><time>2026-04-12T07:04:48.203Z</time></trkpt><trkpt lat="43.7088948" lon="11.6050943"><ele>1269.8333333333335</ele><time>2026-04-12T07:04:49.206Z</time></trkpt><trkpt lat="43.7089875" lon="11.6051256"><ele>1268.0</ele><time>2026-04-12T07:04:50.224Z</time></trkpt><trkpt lat="43.7090708" lon="11.6051521"><ele>1268.0</ele><time>2026-04-12T07:04:51.221Z</time></trkpt><trkpt lat="43.7091471" lon="11.6051619"><ele>1268.0</ele><time>2026-04-12T07:04:52.208Z</time></trkpt><trkpt lat="43.709212" lon="11.6051561"><ele>1268.0</ele><time>2026-04-12T07:04:53.221Z</time></trkpt><trkpt lat="43.7092757" lon="11.6051316"><ele>1268.0</ele><time>2026-04-12T07:04:54.226Z</time></trkpt><trkpt lat="43.7093509" lon="11.6051067"><ele>1268.0</ele><time>2026-04-12T07:04:55.218Z</time></trkpt><trkpt lat="43.7094662" lon="11.6051373"><ele>1268.0</ele><time>2026-04-12T07:04:56.24Z</time></trkpt><trkpt lat="43.7096119" lon="11.6051798"><ele>1266.0</ele><time>2026-04-12T07:04:57.203Z</time></trkpt><trkpt lat="43.7097518" lon="11.6052189"><ele>1264.0</ele><time>2026-04-12T07:04:58.223Z</time></trkpt><trkpt lat="43.7098773" lon="11.605237"><ele>1262.0</ele><time>2026-04-12T07:04:59.202Z</time></trkpt><trkpt lat="43.7099819" lon="11.6052712"><ele>1260.0</ele><time>2026-04-12T07:05:00.207Z</time></trkpt><trkpt lat="43.7100889" lon="11.6053265"><ele>1257.2</ele><time>2026-04-12T07:05:01.21Z</time></trkpt><trkpt lat="43.7101875" lon="11.605404"><ele>1254.4</ele><time>2026-04-12T07:05:02.214Z</time></trkpt><trkpt lat="43.7102757" lon="11.6054939"><ele>1251.6</ele><time>2026-04-12T07:05:03.233Z</time></trkpt><trkpt lat="43.7103595" lon="11.6055925"><ele>1248.8</ele><time>2026-04-12T07:05:04.211Z</time></trkpt><trkpt lat="43.7104343" lon="11.6056891"><ele>1246.0</ele><time>2026-04-12T07:05:05.229Z</time></trkpt><trkpt lat="43.7104903" lon="11.605791"><ele>1244.8</ele><time>2026-04-12T07:05:06.204Z</time></trkpt><trkpt lat="43.7105413" lon="11.6058907"><ele>1243.6</ele><time>2026-04-12T07:05:07.207Z</time></trkpt><trkpt lat="43.7105864" lon="11.6059559"><ele>1242.4</ele><time>2026-04-12T07:05:08.219Z</time></trkpt><trkpt lat="43.7106958" lon="11.6060003"><ele>1241.2</ele><time>2026-04-12T07:05:10.218Z</time></trkpt><trkpt lat="43.7108581" lon="11.6059165"><ele>1240.0</ele><time>2026-04-12T07:05:12.134Z</time></trkpt><trkpt lat="43.7109402" lon="11.6059038"><ele>1240.0</ele><time>2026-04-12T07:05:13.131Z</time></trkpt><trkpt lat="43.7110181" lon="11.6059233"><ele>1240.0</ele><time>2026-04-12T07:05:14.15Z</time></trkpt><trkpt lat="43.7110886" lon="11.6059733"><ele>1240.0</ele><time>2026-04-12T07:05:15.158Z</time></trkpt><trkpt lat="43.7111532" lon="11.6060609"><ele>1240.0</ele><time>2026-04-12T07:05:16.187Z</time></trkpt><trkpt lat="43.7112157" lon="11.6061451"><ele>1240.0</ele><time>2026-04-12T07:05:17.202Z</time></trkpt><trkpt lat="43.7112787" lon="11.6062013"><ele>1240.0</ele><time>2026-04-12T07:05:18.202Z</time></trkpt><trkpt lat="43.7113788" lon="11.6061808"><ele>1238.5</ele><time>2026-04-12T07:05:20.232Z</time></trkpt><trkpt lat="43.7114884" lon="11.6061208"><ele>1237.0</ele><time>2026-04-12T07:05:22.173Z</time></trkpt><trkpt lat="43.711582" lon="11.6060808"><ele>1235.5</ele><time>2026-04-12T07:05:24.23Z</time></trkpt><trkpt lat="43.7116758" lon="11.6060871"><ele>1234.0</ele><time>2026-04-12T07:05:26.207Z</time></trkpt><trkpt lat="43.711733" lon="11.6061296"><ele>1232.5</ele><time>2026-04-12T07:05:27.189Z</time></trkpt><trkpt lat="43.7117972" lon="11.6061739"><ele>1231.0</ele><time>2026-04-12T07:05:28.179Z</time></trkpt><trkpt lat="43.7118987" lon="11.6062169"><ele>1230.3999999999999</ele><time>2026-04-12T07:05:30.206Z</time></trkpt><trkpt lat="43.7120002" lon="11.6062987"><ele>1229.8</ele><time>2026-04-12T07:05:32.238Z</time></trkpt><trkpt lat="43.7120663" lon="11.6063836"><ele>1229.1999999999998</ele><time>2026-04-12T07:05:33.224Z</time></trkpt><trkpt lat="43.7121451" lon="11.6064942"><ele>1228.6</ele><time>2026-04-12T07:05:34.232Z</time></trkpt><trkpt lat="43.7122364" lon="11.6066117"><ele>1228.0</ele><time>2026-04-12T07:05:35.214Z</time></trkpt><trkpt lat="43.7123213" lon="11.606742"><ele>1228.0</ele><time>2026-04-12T07:05:36.178Z</time></trkpt><trkpt lat="43.7124121" lon="11.6068537"><ele>1228.0</ele><time>2026-04-12T07:05:37.212Z</time></trkpt><trkpt lat="43.7125017" lon="11.6069291"><ele>1228.0</ele><time>2026-04-12T07:05:38.212Z</time></trkpt><trkpt lat="43.7125898" lon="11.6069744"><ele>1228.0</ele><time>2026-04-12T07:05:39.211Z</time></trkpt><trkpt lat="43.7126767" lon="11.6070107"><ele>1228.0</ele><time>2026-04-12T07:05:40.191Z</time></trkpt><trkpt lat="43.7127697" lon="11.6070454"><ele>1226.4</ele><time>2026-04-12T07:05:41.224Z</time></trkpt><trkpt lat="43.7128743" lon="11.6070696"><ele>1224.8</ele><time>2026-04-12T07:05:42.214Z</time></trkpt><trkpt lat="43.7129761" lon="11.6071051"><ele>1223.2</ele><time>2026-04-12T07:05:43.219Z</time></trkpt><trkpt lat="43.7130703" lon="11.6071469"><ele>1221.6</ele><time>2026-04-12T07:05:44.227Z</time></trkpt><trkpt lat="43.7131505" lon="11.6071881"><ele>1220.0</ele><time>2026-04-12T07:05:45.209Z</time></trkpt><trkpt lat="43.7132322" lon="11.6072259"><ele>1220.0</ele><time>2026-04-12T07:05:46.21Z</time></trkpt><trkpt lat="43.71332" lon="11.6072571"><ele>1220.0</ele><time>2026-04-12T07:05:47.207Z</time></trkpt><trkpt lat="43.7134077" lon="11.6073033"><ele>1220.0</ele><time>2026-04-12T07:05:48.233Z</time></trkpt><trkpt lat="43.7135002" lon="11.6073966"><ele>1220.0</ele><time>2026-04-12T07:05:49.199Z</time></trkpt><trkpt lat="43.7135713" lon="11.6075087"><ele>1220.0</ele><time>2026-04-12T07:05:50.217Z</time></trkpt><trkpt lat="43.7136347" lon="11.6076193"><ele>1218.0</ele><time>2026-04-12T07:05:51.191Z</time></trkpt><trkpt lat="43.7136904" lon="11.6077391"><ele>1216.0</ele><time>2026-04-12T07:05:52.222Z</time></trkpt><trkpt lat="43.7137382" lon="11.6078595"><ele>1214.0</ele><time>2026-04-12T07:05:53.204Z</time></trkpt><trkpt lat="43.7137916" lon="11.6079746"><ele>1212.0</ele><time>2026-04-12T07:05:54.215Z</time></trkpt><trkpt lat="43.7138469" lon="11.6080667"><ele>1210.0</ele><time>2026-04-12T07:05:55.222Z</time></trkpt><trkpt lat="43.7139564" lon="11.6081066"><ele>1210.0</ele><time>2026-04-12T07:05:57.182Z</time></trkpt><trkpt lat="43.7140225" lon="11.6080637"><ele>1210.0</ele><time>2026-04-12T07:05:58.189Z</time></trkpt><trkpt lat="43.7141026" lon="11.6079645"><ele>1210.0</ele><time>2026-04-12T07:05:59.207Z</time></trkpt><trkpt lat="43.7141859" lon="11.6078312"><ele>1210.0</ele><time>2026-04-12T07:06:00.189Z</time></trkpt><trkpt lat="43.7142624" lon="11.6077113"><ele>1210.0</ele><time>2026-04-12T07:06:01.191Z</time></trkpt><trkpt lat="43.7143115" lon="11.6075908"><ele>1210.0</ele><time>2026-04-12T07:06:02.215Z</time></trkpt><trkpt lat="43.7143506" lon="11.6074845"><ele>1210.0</ele><time>2026-04-12T07:06:03.232Z</time></trkpt><trkpt lat="43.7143691" lon="11.6073869"><ele>1210.0</ele><time>2026-04-12T07:06:04.232Z</time></trkpt><trkpt lat="43.7143758" lon="11.6072924"><ele>1210.0</ele><time>2026-04-12T07:06:05.205Z</time></trkpt><trkpt lat="43.71438" lon="11.6071844"><ele>1210.0</ele><time>2026-04-12T07:06:06.142Z</time></trkpt><trkpt lat="43.7143912" lon="11.6070775"><ele>1210.0</ele><time>2026-04-12T07:06:07.141Z</time></trkpt><trkpt lat="43.7143997" lon="11.6069616"><ele>1208.0</ele><time>2026-04-12T07:06:08.155Z</time></trkpt><trkpt lat="43.7144251" lon="11.6068485"><ele>1206.0</ele><time>2026-04-12T07:06:09.142Z</time></trkpt><trkpt lat="43.7144464" lon="11.6067397"><ele>1204.0</ele><time>2026-04-12T07:06:10.17Z</time></trkpt><trkpt lat="43.7145004" lon="11.606657"><ele>1202.0</ele><time>2026-04-12T07:06:11.148Z</time></trkpt><trkpt lat="43.7145789" lon="11.6066009"><ele>1200.0</ele><time>2026-04-12T07:06:12.159Z</time></trkpt><trkpt lat="43.714661" lon="11.6065385"><ele>1198.0</ele><time>2026-04-12T07:06:13.157Z</time></trkpt><trkpt lat="43.7147337" lon="11.6064735"><ele>1198.0</ele><time>2026-04-12T07:06:14.156Z</time></trkpt><trkpt lat="43.7148238" lon="11.6064286"><ele>1198.0</ele><time>2026-04-12T07:06:15.159Z</time></trkpt><trkpt lat="43.7149007" lon="11.606412"><ele>1198.0</ele><time>2026-04-12T07:06:16.152Z</time></trkpt><trkpt lat="43.7149715" lon="11.6064067"><ele>1198.0</ele><time>2026-04-12T07:06:17.158Z</time></trkpt><trkpt lat="43.7150371" lon="11.6064434"><ele>1198.0</ele><time>2026-04-12T07:06:18.166Z</time></trkpt><trkpt lat="43.7150839" lon="11.606537"><ele>1198.0</ele><time>2026-04-12T07:06:19.151Z</time></trkpt><trkpt lat="43.715119" lon="11.6066469"><ele>1198.0</ele><time>2026-04-12T07:06:20.144Z</time></trkpt><trkpt lat="43.715137" lon="11.6067448"><ele>1198.0</ele><time>2026-04-12T07:06:21.15Z</time></trkpt><trkpt lat="43.7151383" lon="11.6068531"><ele>1198.0</ele><time>2026-04-12T07:06:22.189Z</time></trkpt><trkpt lat="43.7151339" lon="11.6069572"><ele>1198.0</ele><time>2026-04-12T07:06:23.211Z</time></trkpt><trkpt lat="43.7151474" lon="11.6070677"><ele>1198.0</ele><time>2026-04-12T07:06:24.234Z</time></trkpt><trkpt lat="43.7151987" lon="11.6071803"><ele>1198.0</ele><time>2026-04-12T07:06:25.214Z</time></trkpt><trkpt lat="43.7152536" lon="11.6072846"><ele>1196.0</ele><time>2026-04-12T07:06:26.218Z</time></trkpt><trkpt lat="43.7152991" lon="11.6073945"><ele>1194.0</ele><time>2026-04-12T07:06:27.206Z</time></trkpt><trkpt lat="43.715332" lon="11.607509"><ele>1192.0</ele><time>2026-04-12T07:06:28.216Z</time></trkpt><trkpt lat="43.7153828" lon="11.6076162"><ele>1190.0</ele><time>2026-04-12T07:06:29.21Z</time></trkpt><trkpt lat="43.7154628" lon="11.6077053"><ele>1188.0</ele><time>2026-04-12T07:06:30.14Z</time></trkpt><trkpt lat="43.7155506" lon="11.6077581"><ele>1188.0</ele><time>2026-04-12T07:06:31.126Z</time></trkpt><trkpt lat="43.7156416" lon="11.6077902"><ele>1188.0</ele><time>2026-04-12T07:06:32.196Z</time></trkpt><trkpt lat="43.7157263" lon="11.6078232"><ele>1188.0</ele><time>2026-04-12T07:06:33.202Z</time></trkpt><trkpt lat="43.7158101" lon="11.6078386"><ele>1188.0</ele><time>2026-04-12T07:06:34.194Z</time></trkpt><trkpt lat="43.7158772" lon="11.6078091"><ele>1188.0</ele><time>2026-04-12T07:06:35.231Z</time></trkpt><trkpt lat="43.7159554" lon="11.6077796"><ele>1188.0</ele><time>2026-04-12T07:06:36.188Z</time></trkpt><trkpt lat="43.7160299" lon="11.6077821"><ele>1187.6</ele><time>2026-04-12T07:06:37.211Z</time></trkpt><trkpt lat="43.7160944" lon="11.6078208"><ele>1187.1999999999998</ele><time>2026-04-12T07:06:38.222Z</time></trkpt><trkpt lat="43.7161591" lon="11.6079274"><ele>1186.8</ele><time>2026-04-12T07:06:39.236Z</time></trkpt><trkpt lat="43.716237" lon="11.6080499"><ele>1186.3999999999999</ele><time>2026-04-12T07:06:40.19Z</time></trkpt><trkpt lat="43.7162966" lon="11.608141"><ele>1186.0</ele><time>2026-04-12T07:06:41.19Z</time></trkpt><trkpt lat="43.7163749" lon="11.6082179"><ele>1183.0</ele><time>2026-04-12T07:06:42.204Z</time></trkpt><trkpt lat="43.7164738" lon="11.6082938"><ele>1180.0</ele><time>2026-04-12T07:06:43.201Z</time></trkpt><trkpt lat="43.7165841" lon="11.6083428"><ele>1177.0</ele><time>2026-04-12T07:06:44.229Z</time></trkpt><trkpt lat="43.7166927" lon="11.608383"><ele>1174.0</ele><time>2026-04-12T07:06:45.231Z</time></trkpt><trkpt lat="43.7167868" lon="11.6084332"><ele>1171.0</ele><time>2026-04-12T07:06:46.204Z</time></trkpt><trkpt lat="43.7168961" lon="11.6084852"><ele>1168.2</ele><time>2026-04-12T07:06:47.242Z</time></trkpt><trkpt lat="43.7170035" lon="11.6085448"><ele>1165.3999999999999</ele><time>2026-04-12T07:06:48.195Z</time></trkpt><trkpt lat="43.7171132" lon="11.6086147"><ele>1162.6</ele><time>2026-04-12T07:06:49.239Z</time></trkpt><trkpt lat="43.7172091" lon="11.6086854"><ele>1159.8</ele><time>2026-04-12T07:06:50.234Z</time></trkpt><trkpt lat="43.7172898" lon="11.6087341"><ele>1157.0</ele><time>2026-04-12T07:06:51.208Z</time></trkpt><trkpt lat="43.7173609" lon="11.6087481"><ele>1157.0</ele><time>2026-04-12T07:06:52.24Z</time></trkpt><trkpt lat="43.7174511" lon="11.6087589"><ele>1157.0</ele><time>2026-04-12T07:06:53.233Z</time></trkpt><trkpt lat="43.7175379" lon="11.6087286"><ele>1157.0</ele><time>2026-04-12T07:06:54.221Z</time></trkpt><trkpt lat="43.717617" lon="11.6086411"><ele>1157.0</ele><time>2026-04-12T07:06:55.226Z</time></trkpt><trkpt lat="43.7176789" lon="11.6085326"><ele>1157.0</ele><time>2026-04-12T07:06:56.145Z</time></trkpt><trkpt lat="43.7177475" lon="11.6084156"><ele>1154.1666666666667</ele><time>2026-04-12T07:06:57.126Z</time></trkpt><trkpt lat="43.7178235" lon="11.6083229"><ele>1151.3333333333335</ele><time>2026-04-12T07:06:58.2Z</time></trkpt><trkpt lat="43.7178996" lon="11.6082746"><ele>1148.5</ele><time>2026-04-12T07:06:59.211Z</time></trkpt><trkpt lat="43.7179735" lon="11.6082684"><ele>1145.6666666666667</ele><time>2026-04-12T07:07:00.228Z</time></trkpt><trkpt lat="43.7180515" lon="11.6083062"><ele>1142.8333333333333</ele><time>2026-04-12T07:07:01.207Z</time></trkpt><trkpt lat="43.7181238" lon="11.6083553"><ele>1140.0</ele><time>2026-04-12T07:07:02.199Z</time></trkpt><trkpt lat="43.7181869" lon="11.6084249"><ele>1140.0</ele><time>2026-04-12T07:07:03.193Z</time></trkpt><trkpt lat="43.7182327" lon="11.6085057"><ele>1140.0</ele><time>2026-04-12T07:07:04.18Z</time></trkpt><trkpt lat="43.7182648" lon="11.6086217"><ele>1140.0</ele><time>2026-04-12T07:07:05.174Z</time></trkpt><trkpt lat="43.7182814" lon="11.6087584"><ele>1140.0</ele><time>2026-04-12T07:07:06.208Z</time></trkpt><trkpt lat="43.7182767" lon="11.6088791"><ele>1140.0</ele><time>2026-04-12T07:07:07.216Z</time></trkpt><trkpt lat="43.7182729" lon="11.6089961"><ele>1140.0</ele><time>2026-04-12T07:07:08.213Z</time></trkpt><trkpt lat="43.7182553" lon="11.6091153"><ele>1138.6</ele><time>2026-04-12T07:07:09.222Z</time></trkpt><trkpt lat="43.7182318" lon="11.6092376"><ele>1137.2</ele><time>2026-04-12T07:07:10.25Z</time></trkpt><trkpt lat="43.7181958" lon="11.6093639"><ele>1135.8</ele><time>2026-04-12T07:07:11.213Z</time></trkpt><trkpt lat="43.7181483" lon="11.6095003"><ele>1134.4</ele><time>2026-04-12T07:07:12.22Z</time></trkpt><trkpt lat="43.7180848" lon="11.6096372"><ele>1133.0</ele><time>2026-04-12T07:07:13.246Z</time></trkpt><trkpt lat="43.7180219" lon="11.609781"><ele>1131.6666666666667</ele><time>2026-04-12T07:07:14.215Z</time></trkpt><trkpt lat="43.7179817" lon="11.6099053"><ele>1130.3333333333335</ele><time>2026-04-12T07:07:15.236Z</time></trkpt><trkpt lat="43.7179447" lon="11.6100074"><ele>1129.0</ele><time>2026-04-12T07:07:16.236Z</time></trkpt><trkpt lat="43.7179058" lon="11.6101158"><ele>1127.6666666666667</ele><time>2026-04-12T07:07:17.158Z</time></trkpt><trkpt lat="43.7178744" lon="11.6102192"><ele>1126.3333333333333</ele><time>2026-04-12T07:07:18.215Z</time></trkpt><trkpt lat="43.7178501" lon="11.6103108"><ele>1125.0</ele><time>2026-04-12T07:07:19.23Z</time></trkpt><trkpt lat="43.7178516" lon="11.6104586"><ele>1125.0</ele><time>2026-04-12T07:07:21.17Z</time></trkpt><trkpt lat="43.7179405" lon="11.6105331"><ele>1125.0</ele><time>2026-04-12T07:07:23.194Z</time></trkpt><trkpt lat="43.7180144" lon="11.6105186"><ele>1125.0</ele><time>2026-04-12T07:07:24.214Z</time></trkpt><trkpt lat="43.7181197" lon="11.6104665"><ele>1125.0</ele><time>2026-04-12T07:07:25.184Z</time></trkpt><trkpt lat="43.7182412" lon="11.6104135"><ele>1125.0</ele><time>2026-04-12T07:07:26.145Z</time></trkpt><trkpt lat="43.718341" lon="11.6103818"><ele>1125.0</ele><time>2026-04-12T07:07:27.133Z</time></trkpt><trkpt lat="43.7184387" lon="11.6103847"><ele>1125.0</ele><time>2026-04-12T07:07:28.157Z</time></trkpt><trkpt lat="43.7185667" lon="11.6104321"><ele>1125.0</ele><time>2026-04-12T07:07:29.226Z</time></trkpt><trkpt lat="43.7187037" lon="11.6104808"><ele>1125.0</ele><time>2026-04-12T07:07:30.217Z</time></trkpt><trkpt lat="43.718847" lon="11.6105295"><ele>1123.0</ele><time>2026-04-12T07:07:31.214Z</time></trkpt><trkpt lat="43.7189522" lon="11.6105557"><ele>1121.0</ele><time>2026-04-12T07:07:32.195Z</time></trkpt><trkpt lat="43.7190606" lon="11.6105959"><ele>1119.0</ele><time>2026-04-12T07:07:33.162Z</time></trkpt><trkpt lat="43.7191538" lon="11.6106341"><ele>1117.0</ele><time>2026-04-12T07:07:34.153Z</time></trkpt><trkpt lat="43.7192276" lon="11.6106892"><ele>1115.0</ele><time>2026-04-12T07:07:35.153Z</time></trkpt><trkpt lat="43.7192835" lon="11.6107873"><ele>1115.0</ele><time>2026-04-12T07:07:36.165Z</time></trkpt><trkpt lat="43.7193047" lon="11.6108929"><ele>1115.0</ele><time>2026-04-12T07:07:37.147Z</time></trkpt><trkpt lat="43.7193131" lon="11.610998"><ele>1115.0</ele><time>2026-04-12T07:07:38.142Z</time></trkpt><trkpt lat="43.7193426" lon="11.6111499"><ele>1115.0</ele><time>2026-04-12T07:07:40.204Z</time></trkpt><trkpt lat="43.7194168" lon="11.6111741"><ele>1115.0</ele><time>2026-04-12T07:07:43.207Z</time></trkpt><trkpt lat="43.7194568" lon="11.6111022"><ele>1115.0</ele><time>2026-04-12T07:07:45.197Z</time></trkpt><trkpt lat="43.7194933" lon="11.611021"><ele>1111.4</ele><time>2026-04-12T07:07:46.208Z</time></trkpt><trkpt lat="43.7195177" lon="11.6109126"><ele>1107.8</ele><time>2026-04-12T07:07:47.218Z</time></trkpt><trkpt lat="43.7195484" lon="11.610793"><ele>1104.2</ele><time>2026-04-12T07:07:48.216Z</time></trkpt><trkpt lat="43.7195665" lon="11.6106594"><ele>1100.6</ele><time>2026-04-12T07:07:49.227Z</time></trkpt><trkpt lat="43.7195413" lon="11.6105235"><ele>1097.0</ele><time>2026-04-12T07:07:50.226Z</time></trkpt><trkpt lat="43.7195146" lon="11.610423"><ele>1097.5</ele><time>2026-04-12T07:07:51.213Z</time></trkpt><trkpt lat="43.7194889" lon="11.6103245"><ele>1098.0</ele><time>2026-04-12T07:07:52.204Z</time></trkpt><trkpt lat="43.7194874" lon="11.6101771"><ele>1098.5</ele><time>2026-04-12T07:07:54.22Z</time></trkpt><trkpt lat="43.7195393" lon="11.6100852"><ele>1099.0</ele><time>2026-04-12T07:07:56.245Z</time></trkpt><trkpt lat="43.7196048" lon="11.6100842"><ele>1099.5</ele><time>2026-04-12T07:07:57.211Z</time></trkpt><trkpt lat="43.7196713" lon="11.6100725"><ele>1100.0</ele><time>2026-04-12T07:07:58.186Z</time></trkpt><trkpt lat="43.7197923" lon="11.6099925"><ele>1100.0</ele><time>2026-04-12T07:08:00.196Z</time></trkpt><trkpt lat="43.7198929" lon="11.6099224"><ele>1100.0</ele><time>2026-04-12T07:08:02.227Z</time></trkpt><trkpt lat="43.7199665" lon="11.6098608"><ele>1100.0</ele><time>2026-04-12T07:08:04.231Z</time></trkpt><trkpt lat="43.7200416" lon="11.6097964"><ele>1100.0</ele><time>2026-04-12T07:08:05.239Z</time></trkpt><trkpt lat="43.7201149" lon="11.609737"><ele>1100.0</ele><time>2026-04-12T07:08:06.234Z</time></trkpt><trkpt lat="43.7201724" lon="11.6096855"><ele>1100.0</ele><time>2026-04-12T07:08:07.225Z</time></trkpt><trkpt lat="43.7202609" lon="11.6096234"><ele>1099.8</ele><time>2026-04-12T07:08:09.214Z</time></trkpt><trkpt lat="43.7203331" lon="11.6094979"><ele>1099.6</ele><time>2026-04-12T07:08:11.231Z</time></trkpt><trkpt lat="43.7203947" lon="11.6093728"><ele>1099.4</ele><time>2026-04-12T07:08:13.251Z</time></trkpt><trkpt lat="43.7204625" lon="11.6092701"><ele>1099.2</ele><time>2026-04-12T07:08:14.224Z</time></trkpt><trkpt lat="43.7205308" lon="11.6091371"><ele>1099.0</ele><time>2026-04-12T07:08:15.243Z</time></trkpt><trkpt lat="43.7205961" lon="11.6090211"><ele>1099.0</ele><time>2026-04-12T07:08:16.237Z</time></trkpt><trkpt lat="43.7206637" lon="11.6089347"><ele>1099.0</ele><time>2026-04-12T07:08:17.217Z</time></trkpt><trkpt lat="43.72072" lon="11.6088622"><ele>1099.0</ele><time>2026-04-12T07:08:18.21Z</time></trkpt><trkpt lat="43.7207759" lon="11.6088047"><ele>1099.0</ele><time>2026-04-12T07:08:19.145Z</time></trkpt><trkpt lat="43.7208277" lon="11.6087358"><ele>1099.0</ele><time>2026-04-12T07:08:20.154Z</time></trkpt><trkpt lat="43.7208775" lon="11.6086667"><ele>1099.0</ele><time>2026-04-12T07:08:21.175Z</time></trkpt><trkpt lat="43.7209649" lon="11.6085984"><ele>1099.5</ele><time>2026-04-12T07:08:23.151Z</time></trkpt><trkpt lat="43.7210478" lon="11.6085956"><ele>1100.0</ele><time>2026-04-12T07:08:25.25Z</time></trkpt><trkpt lat="43.7211175" lon="11.6085989"><ele>1100.5</ele><time>2026-04-12T07:08:26.239Z</time></trkpt><trkpt lat="43.721197" lon="11.6085991"><ele>1101.0</ele><time>2026-04-12T07:08:27.165Z</time></trkpt><trkpt lat="43.7212853" lon="11.6085591"><ele>1101.5</ele><time>2026-04-12T07:08:28.231Z</time></trkpt><trkpt lat="43.7213681" lon="11.6084966"><ele>1102.0</ele><time>2026-04-12T07:08:29.208Z</time></trkpt><trkpt lat="43.7214444" lon="11.6084319"><ele>1102.0</ele><time>2026-04-12T07:08:30.225Z</time></trkpt><trkpt lat="43.7215068" lon="11.608389"><ele>1102.0</ele><time>2026-04-12T07:08:31.22Z</time></trkpt><trkpt lat="43.7215635" lon="11.6083344"><ele>1102.0</ele><time>2026-04-12T07:08:32.242Z</time></trkpt><trkpt lat="43.7216106" lon="11.6082684"><ele>1102.0</ele><time>2026-04-12T07:08:33.211Z</time></trkpt><trkpt lat="43.721642" lon="11.6081723"><ele>1102.0</ele><time>2026-04-12T07:08:35.205Z</time></trkpt><trkpt lat="43.721632" lon="11.6080536"><ele>1102.0</ele><time>2026-04-12T07:08:37.215Z</time></trkpt><trkpt lat="43.7216239" lon="11.6078878"><ele>1102.4</ele><time>2026-04-12T07:08:39.237Z</time></trkpt><trkpt lat="43.7216149" lon="11.6077918"><ele>1102.8000000000002</ele><time>2026-04-12T07:08:40.228Z</time></trkpt><trkpt lat="43.7215888" lon="11.6076553"><ele>1103.2</ele><time>2026-04-12T07:08:42.17Z</time></trkpt><trkpt lat="43.7215324" lon="11.6075277"><ele>1103.6000000000001</ele><time>2026-04-12T07:08:44.159Z</time></trkpt><trkpt lat="43.7214726" lon="11.6073933"><ele>1104.0</ele><time>2026-04-12T07:08:46.167Z</time></trkpt><trkpt lat="43.721425" lon="11.6072547"><ele>1104.0</ele><time>2026-04-12T07:08:48.218Z</time></trkpt><trkpt lat="43.7213967" lon="11.6071564"><ele>1104.0</ele><time>2026-04-12T07:08:50.216Z</time></trkpt><trkpt lat="43.7213589" lon="11.6070647"><ele>1104.0</ele><time>2026-04-12T07:08:52.22Z</time></trkpt><trkpt lat="43.7213799" lon="11.6069655"><ele>1104.0</ele><time>2026-04-12T07:08:56.196Z</time></trkpt><trkpt lat="43.7214542" lon="11.6069669"><ele>1104.0</ele><time>2026-04-12T07:08:58.219Z</time></trkpt><trkpt lat="43.7215422" lon="11.6069709"><ele>1104.0</ele><time>2026-04-12T07:09:00.198Z</time></trkpt><trkpt lat="43.7216333" lon="11.607024"><ele>1104.0</ele><time>2026-04-12T07:09:02.217Z</time></trkpt><trkpt lat="43.7217681" lon="11.6070016"><ele>1104.0</ele><time>2026-04-12T07:09:04.202Z</time></trkpt><trkpt lat="43.7218401" lon="11.6070021"><ele>1104.0</ele><time>2026-04-12T07:09:05.226Z</time></trkpt><trkpt lat="43.7218994" lon="11.6069396"><ele>1104.0</ele><time>2026-04-12T07:09:06.232Z</time></trkpt><trkpt lat="43.7220087" lon="11.6068672"><ele>1104.0</ele><time>2026-04-12T07:09:08.218Z</time></trkpt><trkpt lat="43.7220798" lon="11.6068976"><ele>1102.5</ele><time>2026-04-12T07:09:10.174Z</time></trkpt><trkpt lat="43.7221474" lon="11.6070014"><ele>1101.0</ele><time>2026-04-12T07:09:12.209Z</time></trkpt><trkpt lat="43.7222002" lon="11.6071333"><ele>1099.5</ele><time>2026-04-12T07:09:14.218Z</time></trkpt><trkpt lat="43.7223139" lon="11.6073165"><ele>1098.0</ele><time>2026-04-12T07:09:17.155Z</time></trkpt><trkpt lat="43.7223555" lon="11.6073867"><ele>1098.0</ele><time>2026-04-12T07:09:18.166Z</time></trkpt><trkpt lat="43.7224429" lon="11.6074853"><ele>1098.0</ele><time>2026-04-12T07:09:20.165Z</time></trkpt><trkpt lat="43.7225416" lon="11.6075952"><ele>1098.0</ele><time>2026-04-12T07:09:22.173Z</time></trkpt><trkpt lat="43.7226014" lon="11.6076533"><ele>1098.0</ele><time>2026-04-12T07:09:23.158Z</time></trkpt><trkpt lat="43.7226534" lon="11.6077056"><ele>1098.0</ele><time>2026-04-12T07:09:24.156Z</time></trkpt><trkpt lat="43.7227283" lon="11.6077482"><ele>1097.4</ele><time>2026-04-12T07:09:26.225Z</time></trkpt><trkpt lat="43.7228046" lon="11.6078226"><ele>1096.8</ele><time>2026-04-12T07:09:29.226Z</time></trkpt><trkpt lat="43.7228518" lon="11.6078932"><ele>1096.2</ele><time>2026-04-12T07:09:31.213Z</time></trkpt><trkpt lat="43.7229111" lon="11.6079845"><ele>1095.6</ele><time>2026-04-12T07:09:33.222Z</time></trkpt><trkpt lat="43.7230039" lon="11.6081034"><ele>1095.0</ele><time>2026-04-12T07:09:35.16Z</time></trkpt><trkpt lat="43.7230831" lon="11.6081701"><ele>1095.0</ele><time>2026-04-12T07:09:37.153Z</time></trkpt><trkpt lat="43.7231656" lon="11.6082259"><ele>1095.0</ele><time>2026-04-12T07:09:39.236Z</time></trkpt><trkpt lat="43.7232354" lon="11.6082565"><ele>1095.0</ele><time>2026-04-12T07:09:40.223Z</time></trkpt><trkpt lat="43.7233659" lon="11.6082666"><ele>1095.0</ele><time>2026-04-12T07:09:42.232Z</time></trkpt><trkpt lat="43.7234524" lon="11.6082595"><ele>1095.0</ele><time>2026-04-12T07:09:43.223Z</time></trkpt><trkpt lat="43.7235345" lon="11.6082596"><ele>1095.3333333333333</ele><time>2026-04-12T07:09:44.202Z</time></trkpt><trkpt lat="43.7236074" lon="11.6082616"><ele>1095.6666666666667</ele><time>2026-04-12T07:09:45.228Z</time></trkpt><trkpt lat="43.7236877" lon="11.6082739"><ele>1096.0</ele><time>2026-04-12T07:09:46.226Z</time></trkpt><trkpt lat="43.7237666" lon="11.6082755"><ele>1096.3333333333335</ele><time>2026-04-12T07:09:47.226Z</time></trkpt><trkpt lat="43.7238811" lon="11.6082093"><ele>1096.6666666666667</ele><time>2026-04-12T07:09:49.221Z</time></trkpt><trkpt lat="43.7239447" lon="11.6081461"><ele>1097.0</ele><time>2026-04-12T07:09:50.202Z</time></trkpt><trkpt lat="43.7240149" lon="11.6080518"><ele>1097.0</ele><time>2026-04-12T07:09:51.208Z</time></trkpt><trkpt lat="43.7240891" lon="11.6079805"><ele>1097.0</ele><time>2026-04-12T07:09:52.222Z</time></trkpt><trkpt lat="43.7241562" lon="11.6079268"><ele>1097.0</ele><time>2026-04-12T07:09:53.232Z</time></trkpt><trkpt lat="43.7242534" lon="11.6078302"><ele>1097.0</ele><time>2026-04-12T07:09:55.226Z</time></trkpt><trkpt lat="43.7242935" lon="11.6077602"><ele>1097.0</ele><time>2026-04-12T07:09:56.184Z</time></trkpt><trkpt lat="43.7243567" lon="11.6076545"><ele>1100.4</ele><time>2026-04-12T07:09:58.199Z</time></trkpt><trkpt lat="43.7244144" lon="11.6076064"><ele>1103.8000000000002</ele><time>2026-04-12T07:10:00.222Z</time></trkpt><trkpt lat="43.7245291" lon="11.607627"><ele>1107.2</ele><time>2026-04-12T07:10:02.164Z</time></trkpt><trkpt lat="43.7246201" lon="11.6076377"><ele>1110.6000000000001</ele><time>2026-04-12T07:10:03.198Z</time></trkpt><trkpt lat="43.724704" lon="11.607643"><ele>1114.0</ele><time>2026-04-12T07:10:04.201Z</time></trkpt><trkpt lat="43.724814" lon="11.6076821"><ele>1114.0</ele><time>2026-04-12T07:10:05.204Z</time></trkpt><trkpt lat="43.7249344" lon="11.6077374"><ele>1114.0</ele><time>2026-04-12T07:10:06.202Z</time></trkpt><trkpt lat="43.7250413" lon="11.6077918"><ele>1114.0</ele><time>2026-04-12T07:10:07.214Z</time></trkpt><trkpt lat="43.7251399" lon="11.607853"><ele>1114.0</ele><time>2026-04-12T07:10:08.217Z</time></trkpt><trkpt lat="43.7252207" lon="11.6079357"><ele>1114.0</ele><time>2026-04-12T07:10:09.222Z</time></trkpt><trkpt lat="43.72529" lon="11.6079939"><ele>1114.4</ele><time>2026-04-12T07:10:10.218Z</time></trkpt><trkpt lat="43.7254098" lon="11.6080467"><ele>1114.8000000000002</ele><time>2026-04-12T07:10:12.205Z</time></trkpt><trkpt lat="43.7254802" lon="11.6080378"><ele>1115.1999999999998</ele><time>2026-04-12T07:10:14.207Z</time></trkpt><trkpt lat="43.7255367" lon="11.6079866"><ele>1115.6</ele><time>2026-04-12T07:10:22.165Z</time></trkpt><trkpt lat="43.7255812" lon="11.6079034"><ele>1116.0</ele><time>2026-04-12T07:10:24.246Z</time></trkpt><trkpt lat="43.7256199" lon="11.6077512"><ele>1116.0</ele><time>2026-04-12T07:10:26.168Z</time></trkpt><trkpt lat="43.7256292" lon="11.6076292"><ele>1116.0</ele><time>2026-04-12T07:10:27.148Z</time></trkpt><trkpt lat="43.7256517" lon="11.6074991"><ele>1116.0</ele><time>2026-04-12T07:10:28.16Z</time></trkpt><trkpt lat="43.7256534" lon="11.607378"><ele>1116.0</ele><time>2026-04-12T07:10:29.236Z</time></trkpt><trkpt lat="43.72563" lon="11.6072864"><ele>1116.0</ele><time>2026-04-12T07:10:30.228Z</time></trkpt><trkpt lat="43.7255955" lon="11.6072071"><ele>1116.0</ele><time>2026-04-12T07:10:32.2Z</time></trkpt><trkpt lat="43.7255491" lon="11.6071314"><ele>1116.0</ele><time>2026-04-12T07:10:35.186Z</time></trkpt><trkpt lat="43.7255051" lon="11.6070634"><ele>1116.0</ele><time>2026-04-12T07:10:45.138Z</time></trkpt><trkpt lat="43.7254742" lon="11.6069401"><ele>1116.0</ele><time>2026-04-12T07:10:47.204Z</time></trkpt><trkpt lat="43.7254292" lon="11.6068038"><ele>1116.0</ele><time>2026-04-12T07:10:49.173Z</time></trkpt><trkpt lat="43.7253875" lon="11.606638"><ele>1116.0</ele><time>2026-04-12T07:10:51.163Z</time></trkpt><trkpt lat="43.7253406" lon="11.6065226"><ele>1117.6</ele><time>2026-04-12T07:10:53.237Z</time></trkpt><trkpt lat="43.7252891" lon="11.606345"><ele>1119.1999999999998</ele><time>2026-04-12T07:10:55.159Z</time></trkpt><trkpt lat="43.7252554" lon="11.6062641"><ele>1120.8000000000002</ele><time>2026-04-12T07:10:56.148Z</time></trkpt><trkpt lat="43.7252058" lon="11.6062017"><ele>1122.4</ele><time>2026-04-12T07:10:57.16Z</time></trkpt><trkpt lat="43.7251197" lon="11.606065"><ele>1124.0</ele><time>2026-04-12T07:10:59.222Z</time></trkpt><trkpt lat="43.7250337" lon="11.605931"><ele>1126.25</ele><time>2026-04-12T07:11:01.246Z</time></trkpt><trkpt lat="43.7249503" lon="11.6058277"><ele>1128.5</ele><time>2026-04-12T07:11:03.232Z</time></trkpt><trkpt lat="43.72485" lon="11.6057404"><ele>1130.75</ele><time>2026-04-12T07:11:05.204Z</time></trkpt><trkpt lat="43.7247369" lon="11.6056671"><ele>1133.0</ele><time>2026-04-12T07:11:07.227Z</time></trkpt><trkpt lat="43.7246362" lon="11.6055531"><ele>1133.0</ele><time>2026-04-12T07:11:09.188Z</time></trkpt><trkpt lat="43.7245837" lon="11.6054842"><ele>1133.0</ele><time>2026-04-12T07:11:10.23Z</time></trkpt><trkpt lat="43.7245079" lon="11.6053548"><ele>1133.0</ele><time>2026-04-12T07:11:12.208Z</time></trkpt><trkpt lat="43.7244758" lon="11.6052603"><ele>1133.0</ele><time>2026-04-12T07:11:14.223Z</time></trkpt><trkpt lat="43.7244147" lon="11.6051831"><ele>1133.0</ele><time>2026-04-12T07:11:16.218Z</time></trkpt><trkpt lat="43.7243363" lon="11.6051024"><ele>1133.0</ele><time>2026-04-12T07:11:18.232Z</time></trkpt><trkpt lat="43.7242237" lon="11.605017"><ele>1134.4285714285713</ele><time>2026-04-12T07:11:20.166Z</time></trkpt><trkpt lat="43.7241685" lon="11.6049539"><ele>1135.857142857143</ele><time>2026-04-12T07:11:21.17Z</time></trkpt><trkpt lat="43.724114" lon="11.6048785"><ele>1137.2857142857142</ele><time>2026-04-12T07:11:22.167Z</time></trkpt><trkpt lat="43.7240697" lon="11.6048003"><ele>1138.7142857142858</ele><time>2026-04-12T07:11:23.172Z</time></trkpt><trkpt lat="43.7240369" lon="11.6047216"><ele>1140.142857142857</ele><time>2026-04-12T07:11:24.235Z</time></trkpt><trkpt lat="43.7239981" lon="11.6046482"><ele>1141.5714285714284</ele><time>2026-04-12T07:11:25.251Z</time></trkpt><trkpt lat="43.7239588" lon="11.6045706"><ele>1143.0</ele><time>2026-04-12T07:11:26.237Z</time></trkpt><trkpt lat="43.7239184" lon="11.6044795"><ele>1146.8</ele><time>2026-04-12T07:11:27.208Z</time></trkpt><trkpt lat="43.7238664" lon="11.6043898"><ele>1150.6</ele><time>2026-04-12T07:11:28.219Z</time></trkpt><trkpt lat="43.723815" lon="11.6043102"><ele>1154.4</ele><time>2026-04-12T07:11:29.273Z</time></trkpt><trkpt lat="43.7237601" lon="11.6042357"><ele>1158.2</ele><time>2026-04-12T07:11:30.244Z</time></trkpt><trkpt lat="43.7236873" lon="11.6041347"><ele>1162.0</ele><time>2026-04-12T07:11:32.242Z</time></trkpt><trkpt lat="43.723612" lon="11.6039654"><ele>1162.0</ele><time>2026-04-12T07:11:34.215Z</time></trkpt><trkpt lat="43.7235742" lon="11.6038595"><ele>1162.0</ele><time>2026-04-12T07:11:35.204Z</time></trkpt><trkpt lat="43.7235151" lon="11.6037489"><ele>1162.0</ele><time>2026-04-12T07:11:36.179Z</time></trkpt><trkpt lat="43.7234486" lon="11.6036778"><ele>1162.0</ele><time>2026-04-12T07:11:37.223Z</time></trkpt><trkpt lat="43.7233499" lon="11.6035645"><ele>1162.0</ele><time>2026-04-12T07:11:39.233Z</time></trkpt><trkpt lat="43.7232662" lon="11.6034387"><ele>1165.3333333333333</ele><time>2026-04-12T07:11:41.248Z</time></trkpt><trkpt lat="43.7232241" lon="11.6033525"><ele>1168.6666666666665</ele><time>2026-04-12T07:11:42.227Z</time></trkpt><trkpt lat="43.7231897" lon="11.603251"><ele>1172.0</ele><time>2026-04-12T07:11:43.214Z</time></trkpt><trkpt lat="43.72316" lon="11.6031549"><ele>1175.3333333333333</ele><time>2026-04-12T07:11:44.197Z</time></trkpt><trkpt lat="43.7231285" lon="11.6030583"><ele>1178.6666666666667</ele><time>2026-04-12T07:11:45.223Z</time></trkpt><trkpt lat="43.7230945" lon="11.6029632"><ele>1182.0</ele><time>2026-04-12T07:11:46.14Z</time></trkpt><trkpt lat="43.7230012" lon="11.6028706"><ele>1186.2</ele><time>2026-04-12T07:11:48.134Z</time></trkpt><trkpt lat="43.7229371" lon="11.6028013"><ele>1190.4</ele><time>2026-04-12T07:11:50.131Z</time></trkpt><trkpt lat="43.7229146" lon="11.6026417"><ele>1194.6</ele><time>2026-04-12T07:11:52.145Z</time></trkpt><trkpt lat="43.7229036" lon="11.6025288"><ele>1198.8</ele><time>2026-04-12T07:11:53.162Z</time></trkpt><trkpt lat="43.7228982" lon="11.6023914"><ele>1203.0</ele><time>2026-04-12T07:11:54.144Z</time></trkpt><trkpt lat="43.7228769" lon="11.6022569"><ele>1203.0</ele><time>2026-04-12T07:11:55.161Z</time></trkpt><trkpt lat="43.7228604" lon="11.6021156"><ele>1203.0</ele><time>2026-04-12T07:11:56.222Z</time></trkpt><trkpt lat="43.7228536" lon="11.601978"><ele>1203.0</ele><time>2026-04-12T07:11:57.226Z</time></trkpt><trkpt lat="43.7228497" lon="11.6018855"><ele>1203.0</ele><time>2026-04-12T07:11:58.13Z</time></trkpt><trkpt lat="43.7228002" lon="11.6017756"><ele>1203.0</ele><time>2026-04-12T07:12:00.153Z</time></trkpt><trkpt lat="43.7227684" lon="11.6016767"><ele>1203.0</ele><time>2026-04-12T07:12:03.125Z</time></trkpt><trkpt lat="43.7226957" lon="11.6016159"><ele>1203.5</ele><time>2026-04-12T07:12:09.225Z</time></trkpt><trkpt lat="43.7225884" lon="11.601521"><ele>1204.0</ele><time>2026-04-12T07:12:11.263Z</time></trkpt><trkpt lat="43.7225347" lon="11.6014669"><ele>1204.5</ele><time>2026-04-12T07:12:12.226Z</time></trkpt><trkpt lat="43.7224812" lon="11.6014055"><ele>1205.0</ele><time>2026-04-12T07:12:13.207Z</time></trkpt><trkpt lat="43.722428" lon="11.6013374"><ele>1205.5</ele><time>2026-04-12T07:12:14.213Z</time></trkpt><trkpt lat="43.7223712" lon="11.6012605"><ele>1206.0</ele><time>2026-04-12T07:12:15.216Z</time></trkpt><trkpt lat="43.7222963" lon="11.6011682"><ele>1209.8333333333333</ele><time>2026-04-12T07:12:16.223Z</time></trkpt><trkpt lat="43.7222376" lon="11.6010805"><ele>1213.6666666666667</ele><time>2026-04-12T07:12:17.138Z</time></trkpt><trkpt lat="43.7221831" lon="11.600974"><ele>1217.5</ele><time>2026-04-12T07:12:18.124Z</time></trkpt><trkpt lat="43.7221333" lon="11.6008713"><ele>1221.3333333333335</ele><time>2026-04-12T07:12:19.161Z</time></trkpt><trkpt lat="43.7220872" lon="11.6007765"><ele>1225.1666666666667</ele><time>2026-04-12T07:12:20.231Z</time></trkpt><trkpt lat="43.7220497" lon="11.6006994"><ele>1229.0</ele><time>2026-04-12T07:12:21.23Z</time></trkpt><trkpt lat="43.7219987" lon="11.6006259"><ele>1229.0000000000002</ele><time>2026-04-12T07:12:22.203Z</time></trkpt><trkpt lat="43.7219541" lon="11.600544"><ele>1229.0</ele><time>2026-04-12T07:12:23.211Z</time></trkpt><trkpt lat="43.7219052" lon="11.6004782"><ele>1229.0</ele><time>2026-04-12T07:12:24.231Z</time></trkpt><trkpt lat="43.7218475" lon="11.6003985"><ele>1229.0</ele><time>2026-04-12T07:12:25.223Z</time></trkpt><trkpt lat="43.7217938" lon="11.6003216"><ele>1229.0</ele><time>2026-04-12T07:12:26.233Z</time></trkpt><trkpt lat="43.7217408" lon="11.6002376"><ele>1229.0000000000002</ele><time>2026-04-12T07:12:27.221Z</time></trkpt><trkpt lat="43.7217158" lon="11.6001548"><ele>1229.0</ele><time>2026-04-12T07:12:28.208Z</time></trkpt><trkpt lat="43.7217004" lon="11.6000414"><ele>1230.3333333333335</ele><time>2026-04-12T07:12:29.228Z</time></trkpt><trkpt lat="43.7216897" lon="11.5999511"><ele>1231.6666666666667</ele><time>2026-04-12T07:12:30.191Z</time></trkpt><trkpt lat="43.7217011" lon="11.5998471"><ele>1233.0</ele><time>2026-04-12T07:12:32.255Z</time></trkpt><trkpt lat="43.7217595" lon="11.5997328"><ele>1234.3333333333333</ele><time>2026-04-12T07:12:34.188Z</time></trkpt><trkpt lat="43.7218076" lon="11.599673"><ele>1235.6666666666665</ele><time>2026-04-12T07:12:35.187Z</time></trkpt><trkpt lat="43.7218486" lon="11.5995957"><ele>1237.0</ele><time>2026-04-12T07:12:37.204Z</time></trkpt><trkpt lat="43.721901" lon="11.5995193"><ele>1242.4</ele><time>2026-04-12T07:12:39.232Z</time></trkpt><trkpt lat="43.7219657" lon="11.5994225"><ele>1247.8000000000002</ele><time>2026-04-12T07:12:41.209Z</time></trkpt><trkpt lat="43.7220378" lon="11.5993416"><ele>1253.2</ele><time>2026-04-12T07:12:43.221Z</time></trkpt><trkpt lat="43.7221323" lon="11.5992726"><ele>1258.6000000000001</ele><time>2026-04-12T07:12:45.156Z</time></trkpt><trkpt lat="43.7222303" lon="11.5992099"><ele>1264.0</ele><time>2026-04-12T07:12:47.164Z</time></trkpt><trkpt lat="43.7222832" lon="11.5991592"><ele>1264.0</ele><time>2026-04-12T07:12:48.154Z</time></trkpt><trkpt lat="43.7223682" lon="11.5990377"><ele>1264.0</ele><time>2026-04-12T07:12:50.159Z</time></trkpt><trkpt lat="43.7224035" lon="11.5989647"><ele>1264.0</ele><time>2026-04-12T07:12:51.171Z</time></trkpt><trkpt lat="43.722447" lon="11.5988357"><ele>1264.0</ele><time>2026-04-12T07:12:53.158Z</time></trkpt><trkpt lat="43.7224532" lon="11.5987071"><ele>1264.0</ele><time>2026-04-12T07:12:55.153Z</time></trkpt><trkpt lat="43.722511" lon="11.5985656"><ele>1266.8333333333333</ele><time>2026-04-12T07:12:57.169Z</time></trkpt><trkpt lat="43.7225452" lon="11.5984897"><ele>1269.6666666666665</ele><time>2026-04-12T07:12:58.168Z</time></trkpt><trkpt lat="43.722577" lon="11.5983674"><ele>1272.5</ele><time>2026-04-12T07:13:00.238Z</time></trkpt><trkpt lat="43.7225654" lon="11.5982467"><ele>1275.3333333333333</ele><time>2026-04-12T07:13:02.239Z</time></trkpt><trkpt lat="43.7225156" lon="11.5981217"><ele>1278.1666666666667</ele><time>2026-04-12T07:13:04.205Z</time></trkpt><trkpt lat="43.7225078" lon="11.5980196"><ele>1281.0</ele><time>2026-04-12T07:13:06.216Z</time></trkpt><trkpt lat="43.7224973" lon="11.5979311"><ele>1281.0</ele><time>2026-04-12T07:13:08.222Z</time></trkpt><trkpt lat="43.7225929" lon="11.5979046"><ele>1281.0</ele><time>2026-04-12T07:13:12.133Z</time></trkpt><trkpt lat="43.722665" lon="11.5979131"><ele>1281.0</ele><time>2026-04-12T07:13:14.201Z</time></trkpt><trkpt lat="43.7227266" lon="11.59789"><ele>1281.0</ele><time>2026-04-12T07:13:16.169Z</time></trkpt><trkpt lat="43.7227894" lon="11.5978243"><ele>1281.0</ele><time>2026-04-12T07:13:20.225Z</time></trkpt><trkpt lat="43.7227993" lon="11.597718"><ele>1281.0</ele><time>2026-04-12T07:13:23.208Z</time></trkpt><trkpt lat="43.7227724" lon="11.5975964"><ele>1285.4</ele><time>2026-04-12T07:13:25.148Z</time></trkpt><trkpt lat="43.7227249" lon="11.5974303"><ele>1289.8</ele><time>2026-04-12T07:13:27.17Z</time></trkpt><trkpt lat="43.7226962" lon="11.5973394"><ele>1294.2</ele><time>2026-04-12T07:13:28.181Z</time></trkpt><trkpt lat="43.7226641" lon="11.5972545"><ele>1298.6000000000001</ele><time>2026-04-12T07:13:29.169Z</time></trkpt><trkpt lat="43.7226259" lon="11.5971776"><ele>1303.0</ele><time>2026-04-12T07:13:30.224Z</time></trkpt><trkpt lat="43.722536" lon="11.5970515"><ele>1307.0</ele><time>2026-04-12T07:13:32.219Z</time></trkpt><trkpt lat="43.7225025" lon="11.5969161"><ele>1311.0</ele><time>2026-04-12T07:13:34.223Z</time></trkpt><trkpt lat="43.7225046" lon="11.5968019"><ele>1315.0</ele><time>2026-04-12T07:13:36.142Z</time></trkpt><trkpt lat="43.722531" lon="11.5966666"><ele>1319.0</ele><time>2026-04-12T07:13:38.21Z</time></trkpt><trkpt lat="43.7225236" lon="11.5965698"><ele>1323.0</ele><time>2026-04-12T07:13:39.188Z</time></trkpt><trkpt lat="43.7224499" lon="11.5964602"><ele>1323.0</ele><time>2026-04-12T07:13:41.147Z</time></trkpt><trkpt lat="43.7223958" lon="11.5964133"><ele>1323.0</ele><time>2026-04-12T07:13:42.21Z</time></trkpt><trkpt lat="43.7223575" lon="11.5963434"><ele>1323.0</ele><time>2026-04-12T07:13:43.147Z</time></trkpt><trkpt lat="43.7223431" lon="11.5962524"><ele>1323.0</ele><time>2026-04-12T07:13:44.241Z</time></trkpt><trkpt lat="43.7223177" lon="11.5961526"><ele>1323.0</ele><time>2026-04-12T07:13:45.214Z</time></trkpt><trkpt lat="43.7222857" lon="11.5960249"><ele>1323.0</ele><time>2026-04-12T07:13:46.231Z</time></trkpt><trkpt lat="43.7222534" lon="11.5958813"><ele>1325.75</ele><time>2026-04-12T07:13:47.25Z</time></trkpt><trkpt lat="43.7221892" lon="11.5957111"><ele>1328.5</ele><time>2026-04-12T07:13:48.224Z</time></trkpt><trkpt lat="43.7221156" lon="11.5955222"><ele>1331.25</ele><time>2026-04-12T07:13:49.243Z</time></trkpt><trkpt lat="43.7220533" lon="11.595372"><ele>1334.0</ele><time>2026-04-12T07:13:50.231Z</time></trkpt><trkpt lat="43.7219975" lon="11.5952605"><ele>1334.0</ele><time>2026-04-12T07:13:51.252Z</time></trkpt><trkpt lat="43.7219448" lon="11.595188"><ele>1334.0</ele><time>2026-04-12T07:13:52.255Z</time></trkpt><trkpt lat="43.7218776" lon="11.5951075"><ele>1334.0</ele><time>2026-04-12T07:13:53.274Z</time></trkpt><trkpt lat="43.7218094" lon="11.5950412"><ele>1334.0</ele><time>2026-04-12T07:13:54.261Z</time></trkpt><trkpt lat="43.7217466" lon="11.5949646"><ele>1334.0</ele><time>2026-04-12T07:13:55.236Z</time></trkpt><trkpt lat="43.7216849" lon="11.5948887"><ele>1334.0</ele><time>2026-04-12T07:13:56.244Z</time></trkpt><trkpt lat="43.7216241" lon="11.5948214"><ele>1336.0</ele><time>2026-04-12T07:13:57.25Z</time></trkpt><trkpt lat="43.7215493" lon="11.594738"><ele>1338.0</ele><time>2026-04-12T07:13:58.259Z</time></trkpt><trkpt lat="43.7214744" lon="11.5946387"><ele>1340.0</ele><time>2026-04-12T07:13:59.24Z</time></trkpt><trkpt lat="43.7214009" lon="11.594533"><ele>1342.0</ele><time>2026-04-12T07:14:00.242Z</time></trkpt><trkpt lat="43.7213206" lon="11.5944469"><ele>1344.0</ele><time>2026-04-12T07:14:01.232Z</time></trkpt><trkpt lat="43.72124" lon="11.5943427"><ele>1345.8000000000002</ele><time>2026-04-12T07:14:02.245Z</time></trkpt><trkpt lat="43.721159" lon="11.5942452"><ele>1347.6000000000001</ele><time>2026-04-12T07:14:03.255Z</time></trkpt><trkpt lat="43.7210677" lon="11.5941521"><ele>1349.4</ele><time>2026-04-12T07:14:04.243Z</time></trkpt><trkpt lat="43.7209728" lon="11.5940602"><ele>1351.2</ele><time>2026-04-12T07:14:05.202Z</time></trkpt><trkpt lat="43.7209102" lon="11.5939434"><ele>1353.0</ele><time>2026-04-12T07:14:06.23Z</time></trkpt><trkpt lat="43.7208606" lon="11.5938282"><ele>1354.6000000000001</ele><time>2026-04-12T07:14:07.234Z</time></trkpt><trkpt lat="43.7208107" lon="11.593697"><ele>1356.2</ele><time>2026-04-12T07:14:08.195Z</time></trkpt><trkpt lat="43.7207561" lon="11.5935833"><ele>1357.8</ele><time>2026-04-12T07:14:09.202Z</time></trkpt><trkpt lat="43.7206689" lon="11.5935256"><ele>1359.4</ele><time>2026-04-12T07:14:10.223Z</time></trkpt><trkpt lat="43.7205612" lon="11.5934818"><ele>1361.0</ele><time>2026-04-12T07:14:11.213Z</time></trkpt><trkpt lat="43.720447" lon="11.5934611"><ele>1363.0</ele><time>2026-04-12T07:14:12.171Z</time></trkpt><trkpt lat="43.720353" lon="11.5934388"><ele>1365.0</ele><time>2026-04-12T07:14:13.204Z</time></trkpt><trkpt lat="43.7202606" lon="11.593397"><ele>1367.0</ele><time>2026-04-12T07:14:14.16Z</time></trkpt><trkpt lat="43.720185" lon="11.5933098"><ele>1369.0</ele><time>2026-04-12T07:14:15.234Z</time></trkpt><trkpt lat="43.7201535" lon="11.5932176"><ele>1371.0</ele><time>2026-04-12T07:14:16.182Z</time></trkpt><trkpt lat="43.7201881" lon="11.5930881"><ele>1371.1666666666667</ele><time>2026-04-12T07:14:18.153Z</time></trkpt><trkpt lat="43.7201973" lon="11.5929825"><ele>1371.3333333333333</ele><time>2026-04-12T07:14:19.183Z</time></trkpt><trkpt lat="43.7202257" lon="11.5928816"><ele>1371.5</ele><time>2026-04-12T07:14:21.158Z</time></trkpt><trkpt lat="43.7202157" lon="11.5927922"><ele>1371.6666666666665</ele><time>2026-04-12T07:14:24.22Z</time></trkpt><trkpt lat="43.720203" lon="11.5926897"><ele>1371.8333333333333</ele><time>2026-04-12T07:14:44.231Z</time></trkpt><trkpt lat="43.7202562" lon="11.5925882"><ele>1372.0</ele><time>2026-04-12T07:14:46.184Z</time></trkpt><trkpt lat="43.7203183" lon="11.5924644"><ele>1372.0</ele><time>2026-04-12T07:14:48.164Z</time></trkpt><trkpt lat="43.720385" lon="11.5923549"><ele>1372.0</ele><time>2026-04-12T07:14:50.247Z</time></trkpt><trkpt lat="43.720406" lon="11.5922451"><ele>1372.0</ele><time>2026-04-12T07:14:52.22Z</time></trkpt><trkpt lat="43.7204262" lon="11.5920969"><ele>1372.0</ele><time>2026-04-12T07:14:54.21Z</time></trkpt><trkpt lat="43.7204339" lon="11.591922"><ele>1372.0</ele><time>2026-04-12T07:14:56.244Z</time></trkpt><trkpt lat="43.7204146" lon="11.5918296"><ele>1370.6</ele><time>2026-04-12T07:14:57.25Z</time></trkpt><trkpt lat="43.7203931" lon="11.5916548"><ele>1369.1999999999998</ele><time>2026-04-12T07:14:59.246Z</time></trkpt><trkpt lat="43.7203805" lon="11.5915599"><ele>1367.8</ele><time>2026-04-12T07:15:00.238Z</time></trkpt><trkpt lat="43.7203491" lon="11.591362"><ele>1366.4</ele><time>2026-04-12T07:15:02.234Z</time></trkpt><trkpt lat="43.7203519" lon="11.5912217"><ele>1365.0</ele><time>2026-04-12T07:15:03.21Z</time></trkpt><trkpt lat="43.7203493" lon="11.5910586"><ele>1365.8</ele><time>2026-04-12T07:15:04.23Z</time></trkpt><trkpt lat="43.7203313" lon="11.5908946"><ele>1366.6</ele><time>2026-04-12T07:15:05.154Z</time></trkpt><trkpt lat="43.7203075" lon="11.5907422"><ele>1367.4</ele><time>2026-04-12T07:15:06.234Z</time></trkpt><trkpt lat="43.7202934" lon="11.5905984"><ele>1368.2</ele><time>2026-04-12T07:15:07.222Z</time></trkpt><trkpt lat="43.7202792" lon="11.5904649"><ele>1369.0</ele><time>2026-04-12T07:15:08.25Z</time></trkpt><trkpt lat="43.7202606" lon="11.5903409"><ele>1369.0</ele><time>2026-04-12T07:15:09.216Z</time></trkpt><trkpt lat="43.7202278" lon="11.5902309"><ele>1369.0</ele><time>2026-04-12T07:15:10.223Z</time></trkpt><trkpt lat="43.7202005" lon="11.5901389"><ele>1369.0</ele><time>2026-04-12T07:15:11.232Z</time></trkpt><trkpt lat="43.72018" lon="11.5900216"><ele>1369.0</ele><time>2026-04-12T07:15:13.227Z</time></trkpt><trkpt lat="43.7202284" lon="11.589949"><ele>1369.0</ele><time>2026-04-12T07:15:16.232Z</time></trkpt><trkpt lat="43.7203731" lon="11.5899474"><ele>1369.0</ele><time>2026-04-12T07:15:18.21Z</time></trkpt><trkpt lat="43.7204635" lon="11.5899448"><ele>1369.0</ele><time>2026-04-12T07:15:19.21Z</time></trkpt><trkpt lat="43.7205446" lon="11.5899439"><ele>1369.0</ele><time>2026-04-12T07:15:20.247Z</time></trkpt><trkpt lat="43.7206481" lon="11.5898901"><ele>1369.0</ele><time>2026-04-12T07:15:22.168Z</time></trkpt><trkpt lat="43.7207215" lon="11.5898423"><ele>1369.0</ele><time>2026-04-12T07:15:25.223Z</time></trkpt><trkpt lat="43.720815" lon="11.589868"><ele>1369.0</ele><time>2026-04-12T07:15:28.207Z</time></trkpt><trkpt lat="43.7209343" lon="11.5899424"><ele>1369.0</ele><time>2026-04-12T07:15:30.202Z</time></trkpt><trkpt lat="43.7210405" lon="11.5900088"><ele>1369.0</ele><time>2026-04-12T07:15:32.198Z</time></trkpt><trkpt lat="43.7211028" lon="11.5900552"><ele>1369.0</ele><time>2026-04-12T07:15:33.248Z</time></trkpt><trkpt lat="43.7211688" lon="11.5901138"><ele>1369.0</ele><time>2026-04-12T07:15:34.222Z</time></trkpt><trkpt lat="43.72124" lon="11.5901488"><ele>1367.0</ele><time>2026-04-12T07:15:35.22Z</time></trkpt><trkpt lat="43.721322" lon="11.5901607"><ele>1365.0</ele><time>2026-04-12T07:15:36.222Z</time></trkpt><trkpt lat="43.7214223" lon="11.5901898"><ele>1363.0</ele><time>2026-04-12T07:15:37.231Z</time></trkpt><trkpt lat="43.721525" lon="11.5902233"><ele>1361.0</ele><time>2026-04-12T07:15:38.215Z</time></trkpt><trkpt lat="43.7216334" lon="11.5902562"><ele>1359.0</ele><time>2026-04-12T07:15:39.235Z</time></trkpt><trkpt lat="43.7217236" lon="11.5902758"><ele>1359.0</ele><time>2026-04-12T07:15:40.24Z</time></trkpt><trkpt lat="43.7218012" lon="11.5902773"><ele>1359.0</ele><time>2026-04-12T07:15:41.221Z</time></trkpt><trkpt lat="43.7218808" lon="11.5902706"><ele>1359.0</ele><time>2026-04-12T07:15:42.235Z</time></trkpt><trkpt lat="43.7219646" lon="11.5902626"><ele>1359.0</ele><time>2026-04-12T07:15:43.251Z</time></trkpt><trkpt lat="43.7220522" lon="11.5902449"><ele>1359.0</ele><time>2026-04-12T07:15:44.235Z</time></trkpt><trkpt lat="43.7221317" lon="11.590239"><ele>1359.0</ele><time>2026-04-12T07:15:45.231Z</time></trkpt><trkpt lat="43.7222128" lon="11.5902395"><ele>1357.3333333333333</ele><time>2026-04-12T07:15:46.231Z</time></trkpt><trkpt lat="43.7222928" lon="11.5902314"><ele>1355.6666666666667</ele><time>2026-04-12T07:15:47.233Z</time></trkpt><trkpt lat="43.7223674" lon="11.5902204"><ele>1354.0</ele><time>2026-04-12T07:15:48.234Z</time></trkpt><trkpt lat="43.7224307" lon="11.5902245"><ele>1352.3333333333335</ele><time>2026-04-12T07:15:49.25Z</time></trkpt><trkpt lat="43.7225294" lon="11.5902292"><ele>1350.6666666666667</ele><time>2026-04-12T07:15:51.23Z</time></trkpt><trkpt lat="43.7225832" lon="11.5903408"><ele>1349.0</ele><time>2026-04-12T07:15:54.214Z</time></trkpt><trkpt lat="43.7225605" lon="11.5904907"><ele>1348.2</ele><time>2026-04-12T07:15:56.203Z</time></trkpt><trkpt lat="43.7225799" lon="11.5906049"><ele>1347.4</ele><time>2026-04-12T07:15:58.225Z</time></trkpt><trkpt lat="43.7225581" lon="11.5907079"><ele>1346.6</ele><time>2026-04-12T07:16:00.172Z</time></trkpt><trkpt lat="43.7225037" lon="11.5908459"><ele>1345.8</ele><time>2026-04-12T07:16:02.171Z</time></trkpt><trkpt lat="43.7225268" lon="11.5910059"><ele>1345.0</ele><time>2026-04-12T07:16:04.16Z</time></trkpt><trkpt lat="43.7225631" lon="11.5910846"><ele>1345.0</ele><time>2026-04-12T07:16:05.224Z</time></trkpt><trkpt lat="43.7225931" lon="11.5911637"><ele>1345.0</ele><time>2026-04-12T07:16:06.155Z</time></trkpt><trkpt lat="43.7226371" lon="11.5912476"><ele>1345.0</ele><time>2026-04-12T07:16:07.172Z</time></trkpt><trkpt lat="43.7226802" lon="11.5913271"><ele>1345.0</ele><time>2026-04-12T07:16:08.221Z</time></trkpt><trkpt lat="43.7227247" lon="11.5913963"><ele>1345.0</ele><time>2026-04-12T07:16:09.229Z</time></trkpt><trkpt lat="43.7228316" lon="11.5914838"><ele>1345.0</ele><time>2026-04-12T07:16:11.237Z</time></trkpt><trkpt lat="43.7229111" lon="11.5915082"><ele>1338.4</ele><time>2026-04-12T07:16:12.214Z</time></trkpt><trkpt lat="43.7229993" lon="11.5915479"><ele>1331.8</ele><time>2026-04-12T07:16:13.207Z</time></trkpt><trkpt lat="43.7230811" lon="11.5916006"><ele>1325.1999999999998</ele><time>2026-04-12T07:16:14.222Z</time></trkpt><trkpt lat="43.7231536" lon="11.59165"><ele>1318.6</ele><time>2026-04-12T07:16:15.193Z</time></trkpt><trkpt lat="43.7232091" lon="11.591699"><ele>1312.0</ele><time>2026-04-12T07:16:16.208Z</time></trkpt><trkpt lat="43.7233168" lon="11.5917719"><ele>1312.0</ele><time>2026-04-12T07:16:18.227Z</time></trkpt><trkpt lat="43.7234013" lon="11.5918362"><ele>1312.0</ele><time>2026-04-12T07:16:19.252Z</time></trkpt><trkpt lat="43.7234854" lon="11.5919102"><ele>1312.0</ele><time>2026-04-12T07:16:20.2Z</time></trkpt><trkpt lat="43.7235631" lon="11.5919868"><ele>1312.0</ele><time>2026-04-12T07:16:21.229Z</time></trkpt><trkpt lat="43.7236472" lon="11.5920609"><ele>1312.0</ele><time>2026-04-12T07:16:22.159Z</time></trkpt><trkpt lat="43.7237382" lon="11.5921421"><ele>1307.0</ele><time>2026-04-12T07:16:23.171Z</time></trkpt><trkpt lat="43.7238197" lon="11.5922383"><ele>1302.0</ele><time>2026-04-12T07:16:24.164Z</time></trkpt><trkpt lat="43.7238804" lon="11.5923788"><ele>1297.0</ele><time>2026-04-12T07:16:25.172Z</time></trkpt><trkpt lat="43.7239372" lon="11.5925256"><ele>1292.0</ele><time>2026-04-12T07:16:26.153Z</time></trkpt><trkpt lat="43.7239909" lon="11.5926639"><ele>1292.0</ele><time>2026-04-12T07:16:27.213Z</time></trkpt><trkpt lat="43.7240389" lon="11.5927945"><ele>1292.0</ele><time>2026-04-12T07:16:28.22Z</time></trkpt><trkpt lat="43.7240917" lon="11.5929208"><ele>1292.0</ele><time>2026-04-12T07:16:29.22Z</time></trkpt><trkpt lat="43.7241735" lon="11.5930559"><ele>1292.0</ele><time>2026-04-12T07:16:30.225Z</time></trkpt><trkpt lat="43.7242782" lon="11.5931909"><ele>1291.0</ele><time>2026-04-12T07:16:31.211Z</time></trkpt><trkpt lat="43.7243816" lon="11.5932875"><ele>1290.0</ele><time>2026-04-12T07:16:32.225Z</time></trkpt><trkpt lat="43.7244864" lon="11.5933642"><ele>1289.0</ele><time>2026-04-12T07:16:33.24Z</time></trkpt><trkpt lat="43.7245939" lon="11.5934471"><ele>1288.0</ele><time>2026-04-12T07:16:34.212Z</time></trkpt><trkpt lat="43.7247039" lon="11.5935477"><ele>1286.2</ele><time>2026-04-12T07:16:35.236Z</time></trkpt><trkpt lat="43.7247921" lon="11.5936465"><ele>1284.4</ele><time>2026-04-12T07:16:36.207Z</time></trkpt><trkpt lat="43.7248711" lon="11.5937358"><ele>1282.6000000000001</ele><time>2026-04-12T07:16:37.227Z</time></trkpt><trkpt lat="43.7249398" lon="11.5938097"><ele>1280.8000000000002</ele><time>2026-04-12T07:16:38.227Z</time></trkpt><trkpt lat="43.7249966" lon="11.5938693"><ele>1279.0</ele><time>2026-04-12T07:16:39.219Z</time></trkpt><trkpt lat="43.7250587" lon="11.5939302"><ele>1278.5</ele><time>2026-04-12T07:16:40.222Z</time></trkpt><trkpt lat="43.725122" lon="11.5939892"><ele>1278.0</ele><time>2026-04-12T07:16:41.24Z</time></trkpt><trkpt lat="43.7251732" lon="11.5940638"><ele>1277.5</ele><time>2026-04-12T07:16:42.234Z</time></trkpt><trkpt lat="43.7252034" lon="11.5941469"><ele>1277.0</ele><time>2026-04-12T07:16:43.248Z</time></trkpt><trkpt lat="43.7252146" lon="11.5943026"><ele>1276.5</ele><time>2026-04-12T07:16:45.205Z</time></trkpt><trkpt lat="43.7252786" lon="11.5944293"><ele>1276.0</ele><time>2026-04-12T07:16:47.227Z</time></trkpt><trkpt lat="43.7253175" lon="11.5945958"><ele>1271.0</ele><time>2026-04-12T07:16:49.206Z</time></trkpt><trkpt lat="43.7253485" lon="11.5947446"><ele>1266.0</ele><time>2026-04-12T07:16:51.24Z</time></trkpt><trkpt lat="43.7253835" lon="11.5948427"><ele>1261.0</ele><time>2026-04-12T07:16:53.235Z</time></trkpt><trkpt lat="43.7254323" lon="11.5949757"><ele>1256.0</ele><time>2026-04-12T07:16:55.234Z</time></trkpt><trkpt lat="43.7254618" lon="11.5950566"><ele>1251.0</ele><time>2026-04-12T07:16:56.163Z</time></trkpt><trkpt lat="43.7255003" lon="11.5952026"><ele>1249.3999999999999</ele><time>2026-04-12T07:16:58.158Z</time></trkpt><trkpt lat="43.7254965" lon="11.595342"><ele>1247.8</ele><time>2026-04-12T07:17:00.228Z</time></trkpt><trkpt lat="43.725544" lon="11.5954351"><ele>1246.1999999999998</ele><time>2026-04-12T07:17:02.232Z</time></trkpt><trkpt lat="43.7256234" lon="11.5955246"><ele>1244.6</ele><time>2026-04-12T07:17:04.173Z</time></trkpt><trkpt lat="43.7257026" lon="11.595644"><ele>1243.0</ele><time>2026-04-12T07:17:06.16Z</time></trkpt><trkpt lat="43.7257629" lon="11.595788"><ele>1243.0</ele><time>2026-04-12T07:17:08.233Z</time></trkpt><trkpt lat="43.7258398" lon="11.5958885"><ele>1243.0</ele><time>2026-04-12T07:17:10.219Z</time></trkpt><trkpt lat="43.7258972" lon="11.5959704"><ele>1243.0</ele><time>2026-04-12T07:17:12.236Z</time></trkpt><trkpt lat="43.7259031" lon="11.5960712"><ele>1243.0</ele><time>2026-04-12T07:17:14.229Z</time></trkpt><trkpt lat="43.7259029" lon="11.5961729"><ele>1243.0</ele><time>2026-04-12T07:17:16.202Z</time></trkpt><trkpt lat="43.7259185" lon="11.596278"><ele>1243.0</ele><time>2026-04-12T07:17:18.191Z</time></trkpt><trkpt lat="43.7259618" lon="11.5963886"><ele>1241.5</ele><time>2026-04-12T07:17:20.228Z</time></trkpt><trkpt lat="43.7260032" lon="11.5964562"><ele>1240.0</ele><time>2026-04-12T07:17:21.215Z</time></trkpt><trkpt lat="43.7260572" lon="11.5965093"><ele>1238.5</ele><time>2026-04-12T07:17:22.21Z</time></trkpt><trkpt lat="43.726135" lon="11.5965422"><ele>1237.0</ele><time>2026-04-12T07:17:24.218Z</time></trkpt><trkpt lat="43.7262178" lon="11.5966225"><ele>1235.5</ele><time>2026-04-12T07:17:26.231Z</time></trkpt><trkpt lat="43.7262386" lon="11.5967324"><ele>1234.0</ele><time>2026-04-12T07:17:28.223Z</time></trkpt><trkpt lat="43.7262665" lon="11.5968535"><ele>1231.6000000000001</ele><time>2026-04-12T07:17:30.174Z</time></trkpt><trkpt lat="43.7263541" lon="11.5969618"><ele>1229.2</ele><time>2026-04-12T07:17:32.151Z</time></trkpt><trkpt lat="43.7264238" lon="11.597078"><ele>1226.8000000000002</ele><time>2026-04-12T07:17:34.23Z</time></trkpt><trkpt lat="43.7264925" lon="11.5971851"><ele>1224.4</ele><time>2026-04-12T07:17:36.233Z</time></trkpt><trkpt lat="43.7265457" lon="11.5973099"><ele>1222.0</ele><time>2026-04-12T07:17:38.243Z</time></trkpt><trkpt lat="43.7266229" lon="11.5974484"><ele>1220.7142857142858</ele><time>2026-04-12T07:17:40.229Z</time></trkpt><trkpt lat="43.7266699" lon="11.597527"><ele>1219.4285714285716</ele><time>2026-04-12T07:17:41.22Z</time></trkpt><trkpt lat="43.7267203" lon="11.5975905"><ele>1218.1428571428573</ele><time>2026-04-12T07:17:42.228Z</time></trkpt><trkpt lat="43.726778" lon="11.5976559"><ele>1216.857142857143</ele><time>2026-04-12T07:17:43.241Z</time></trkpt><trkpt lat="43.7268329" lon="11.5977212"><ele>1215.5714285714284</ele><time>2026-04-12T07:17:44.253Z</time></trkpt><trkpt lat="43.7268829" lon="11.5977822"><ele>1214.2857142857144</ele><time>2026-04-12T07:17:45.248Z</time></trkpt><trkpt lat="43.7269362" lon="11.5978445"><ele>1213.0</ele><time>2026-04-12T07:17:46.25Z</time></trkpt><trkpt lat="43.7269974" lon="11.5979086"><ele>1209.2</ele><time>2026-04-12T07:17:47.232Z</time></trkpt><trkpt lat="43.727053" lon="11.5979673"><ele>1205.4</ele><time>2026-04-12T07:17:48.212Z</time></trkpt><trkpt lat="43.7271298" lon="11.5981259"><ele>1201.6000000000001</ele><time>2026-04-12T07:17:50.238Z</time></trkpt><trkpt lat="43.7271606" lon="11.5982465"><ele>1197.8</ele><time>2026-04-12T07:17:51.238Z</time></trkpt><trkpt lat="43.7271975" lon="11.5983678"><ele>1194.0</ele><time>2026-04-12T07:17:52.226Z</time></trkpt><trkpt lat="43.7272354" lon="11.59846"><ele>1194.0000000000002</ele><time>2026-04-12T07:17:53.224Z</time></trkpt><trkpt lat="43.7272686" lon="11.5985418"><ele>1194.0</ele><time>2026-04-12T07:17:54.236Z</time></trkpt><trkpt lat="43.7272923" lon="11.598638"><ele>1194.0</ele><time>2026-04-12T07:17:55.203Z</time></trkpt><trkpt lat="43.7273" lon="11.5987254"><ele>1194.0</ele><time>2026-04-12T07:17:56.216Z</time></trkpt><trkpt lat="43.727317" lon="11.598822"><ele>1194.0</ele><time>2026-04-12T07:17:57.244Z</time></trkpt><trkpt lat="43.7273431" lon="11.5989109"><ele>1194.0000000000002</ele><time>2026-04-12T07:17:58.24Z</time></trkpt><trkpt lat="43.7273473" lon="11.5990038"><ele>1194.0</ele><time>2026-04-12T07:17:59.248Z</time></trkpt><trkpt lat="43.7273428" lon="11.5990989"><ele>1194.0</ele><time>2026-04-12T07:18:00.221Z</time></trkpt><trkpt lat="43.7273399" lon="11.5992011"><ele>1194.0</ele><time>2026-04-12T07:18:01.229Z</time></trkpt><trkpt lat="43.7273347" lon="11.5993034"><ele>1194.0</ele><time>2026-04-12T07:18:02.248Z</time></trkpt><trkpt lat="43.7273217" lon="11.5994258"><ele>1194.0</ele><time>2026-04-12T07:18:03.248Z</time></trkpt><trkpt lat="43.727312" lon="11.5995568"><ele>1194.0</ele><time>2026-04-12T07:18:04.208Z</time></trkpt><trkpt lat="43.7273164" lon="11.5996952"><ele>1194.0</ele><time>2026-04-12T07:18:05.24Z</time></trkpt><trkpt lat="43.7273312" lon="11.5998403"><ele>1193.5</ele><time>2026-04-12T07:18:06.233Z</time></trkpt><trkpt lat="43.7273488" lon="11.5999839"><ele>1193.0</ele><time>2026-04-12T07:18:07.238Z</time></trkpt><trkpt lat="43.7273681" lon="11.6000991"><ele>1192.5</ele><time>2026-04-12T07:18:08.235Z</time></trkpt><trkpt lat="43.727395" lon="11.6002198"><ele>1192.0</ele><time>2026-04-12T07:18:10.24Z</time></trkpt><trkpt lat="43.7273595" lon="11.6003365"><ele>1191.5</ele><time>2026-04-12T07:18:13.22Z</time></trkpt><trkpt lat="43.7273404" lon="11.6004205"><ele>1191.0</ele><time>2026-04-12T07:18:15.215Z</time></trkpt><trkpt lat="43.7273473" lon="11.6005286"><ele>1189.0</ele><time>2026-04-12T07:18:18.219Z</time></trkpt><trkpt lat="43.7273388" lon="11.6006384"><ele>1187.0</ele><time>2026-04-12T07:18:20.224Z</time></trkpt><trkpt lat="43.7273187" lon="11.600752"><ele>1185.0</ele><time>2026-04-12T07:18:22.197Z</time></trkpt><trkpt lat="43.7273393" lon="11.6008758"><ele>1183.0</ele><time>2026-04-12T07:18:24.179Z</time></trkpt><trkpt lat="43.7273805" lon="11.601017"><ele>1181.0</ele><time>2026-04-12T07:18:26.158Z</time></trkpt><trkpt lat="43.7273803" lon="11.601114"><ele>1179.0</ele><time>2026-04-12T07:18:28.254Z</time></trkpt><trkpt lat="43.7273777" lon="11.6012131"><ele>1176.8333333333333</ele><time>2026-04-12T07:18:30.172Z</time></trkpt><trkpt lat="43.7273831" lon="11.6013183"><ele>1174.6666666666667</ele><time>2026-04-12T07:18:32.172Z</time></trkpt><trkpt lat="43.7273872" lon="11.6014353"><ele>1172.5</ele><time>2026-04-12T07:18:34.178Z</time></trkpt><trkpt lat="43.727401" lon="11.6015737"><ele>1170.3333333333335</ele><time>2026-04-12T07:18:36.249Z</time></trkpt><trkpt lat="43.7274094" lon="11.6017089"><ele>1168.1666666666667</ele><time>2026-04-12T07:18:38.23Z</time></trkpt><trkpt lat="43.7274414" lon="11.6018078"><ele>1166.0</ele><time>2026-04-12T07:18:40.22Z</time></trkpt><trkpt lat="43.7274963" lon="11.6019258"><ele>1164.0</ele><time>2026-04-12T07:18:42.21Z</time></trkpt><trkpt lat="43.7275336" lon="11.6019994"><ele>1162.0</ele><time>2026-04-12T07:18:43.23Z</time></trkpt><trkpt lat="43.7275887" lon="11.6020644"><ele>1160.0</ele><time>2026-04-12T07:18:44.233Z</time></trkpt><trkpt lat="43.7276388" lon="11.6021551"><ele>1158.0</ele><time>2026-04-12T07:18:46.225Z</time></trkpt><trkpt lat="43.7277207" lon="11.6021184"><ele>1156.0</ele><time>2026-04-12T07:18:51.23Z</time></trkpt><trkpt lat="43.7277782" lon="11.6020539"><ele>1154.0</ele><time>2026-04-12T07:18:53.2Z</time></trkpt><trkpt lat="43.7278438" lon="11.6020129"><ele>1152.3333333333335</ele><time>2026-04-12T07:18:55.165Z</time></trkpt><trkpt lat="43.7279292" lon="11.6020477"><ele>1150.6666666666667</ele><time>2026-04-12T07:18:57.249Z</time></trkpt><trkpt lat="43.7280166" lon="11.6020943"><ele>1149.0</ele><time>2026-04-12T07:18:59.212Z</time></trkpt><trkpt lat="43.7280948" lon="11.6021398"><ele>1147.3333333333333</ele><time>2026-04-12T07:19:01.213Z</time></trkpt><trkpt lat="43.7281815" lon="11.6021588"><ele>1145.6666666666665</ele><time>2026-04-12T07:19:04.219Z</time></trkpt><trkpt lat="43.7282408" lon="11.6022093"><ele>1144.0</ele><time>2026-04-12T07:19:08.222Z</time></trkpt><trkpt lat="43.7283317" lon="11.6021256"><ele>1144.0</ele><time>2026-04-12T07:19:12.228Z</time></trkpt><trkpt lat="43.7283803" lon="11.6020656"><ele>1144.0</ele><time>2026-04-12T07:19:14.187Z</time></trkpt><trkpt lat="43.7284145" lon="11.6019868"><ele>1144.0</ele><time>2026-04-12T07:19:16.213Z</time></trkpt><trkpt lat="43.7284662" lon="11.6019069"><ele>1144.0</ele><time>2026-04-12T07:19:17.226Z</time></trkpt><trkpt lat="43.7285415" lon="11.6018016"><ele>1144.0</ele><time>2026-04-12T07:19:18.249Z</time></trkpt><trkpt lat="43.7285958" lon="11.6017073"><ele>1144.0</ele><time>2026-04-12T07:19:19.233Z</time></trkpt><trkpt lat="43.7286456" lon="11.601623"><ele>1141.0</ele><time>2026-04-12T07:19:20.251Z</time></trkpt><trkpt lat="43.7286964" lon="11.6015472"><ele>1138.0</ele><time>2026-04-12T07:19:21.189Z</time></trkpt><trkpt lat="43.7287575" lon="11.6014658"><ele>1135.0</ele><time>2026-04-12T07:19:22.235Z</time></trkpt><trkpt lat="43.7288268" lon="11.6013949"><ele>1132.0</ele><time>2026-04-12T07:19:23.14Z</time></trkpt><trkpt lat="43.7288928" lon="11.6013395"><ele>1129.0</ele><time>2026-04-12T07:19:24.158Z</time></trkpt><trkpt lat="43.728967" lon="11.6012991"><ele>1126.0</ele><time>2026-04-12T07:19:25.236Z</time></trkpt><trkpt lat="43.729027" lon="11.6012699"><ele>1126.0</ele><time>2026-04-12T07:19:26.238Z</time></trkpt><trkpt lat="43.729123" lon="11.6012049"><ele>1126.0</ele><time>2026-04-12T07:19:28.139Z</time></trkpt><trkpt lat="43.7292175" lon="11.6012024"><ele>1126.0</ele><time>2026-04-12T07:19:30.236Z</time></trkpt><trkpt lat="43.7293328" lon="11.6012274"><ele>1126.0</ele><time>2026-04-12T07:19:32.217Z</time></trkpt><trkpt lat="43.7294353" lon="11.6012585"><ele>1126.0</ele><time>2026-04-12T07:19:34.21Z</time></trkpt><trkpt lat="43.729548" lon="11.6012904"><ele>1121.2</ele><time>2026-04-12T07:19:36.222Z</time></trkpt><trkpt lat="43.7296521" lon="11.6013382"><ele>1116.3999999999999</ele><time>2026-04-12T07:19:38.23Z</time></trkpt><trkpt lat="43.7297525" lon="11.601376"><ele>1111.6</ele><time>2026-04-12T07:19:40.234Z</time></trkpt><trkpt lat="43.7298466" lon="11.6014215"><ele>1106.8</ele><time>2026-04-12T07:19:42.203Z</time></trkpt><trkpt lat="43.729933" lon="11.6014733"><ele>1102.0</ele><time>2026-04-12T07:19:44.214Z</time></trkpt><trkpt lat="43.730017" lon="11.6015507"><ele>1102.0</ele><time>2026-04-12T07:19:46.226Z</time></trkpt><trkpt lat="43.730113" lon="11.6016213"><ele>1102.0</ele><time>2026-04-12T07:19:48.229Z</time></trkpt><trkpt lat="43.7301759" lon="11.601645"><ele>1102.0</ele><time>2026-04-12T07:19:49.215Z</time></trkpt><trkpt lat="43.7302954" lon="11.6016823"><ele>1102.0</ele><time>2026-04-12T07:19:51.23Z</time></trkpt><trkpt lat="43.7303622" lon="11.601706"><ele>1102.0</ele><time>2026-04-12T07:19:52.227Z</time></trkpt><trkpt lat="43.7304257" lon="11.6017313"><ele>1102.0</ele><time>2026-04-12T07:19:53.238Z</time></trkpt><trkpt lat="43.7305399" lon="11.6017228"><ele>1097.6</ele><time>2026-04-12T07:19:55.175Z</time></trkpt><trkpt lat="43.7306394" lon="11.6017296"><ele>1093.2</ele><time>2026-04-12T07:19:57.224Z</time></trkpt><trkpt lat="43.7307369" lon="11.601738"><ele>1088.8</ele><time>2026-04-12T07:19:59.233Z</time></trkpt><trkpt lat="43.7307538" lon="11.6018496"><ele>1084.4</ele><time>2026-04-12T07:20:03.208Z</time></trkpt><trkpt lat="43.730766" lon="11.6019843"><ele>1080.0</ele><time>2026-04-12T07:20:05.242Z</time></trkpt><trkpt lat="43.7307871" lon="11.6021215"><ele>1079.2</ele><time>2026-04-12T07:20:07.221Z</time></trkpt><trkpt lat="43.7308035" lon="11.6022491"><ele>1078.4</ele><time>2026-04-12T07:20:09.239Z</time></trkpt><trkpt lat="43.7308823" lon="11.6023682"><ele>1077.6</ele><time>2026-04-12T07:20:12.19Z</time></trkpt><trkpt lat="43.730942" lon="11.6024107"><ele>1076.8</ele><time>2026-04-12T07:20:13.203Z</time></trkpt><trkpt lat="43.7310638" lon="11.6024905"><ele>1076.0</ele><time>2026-04-12T07:20:15.25Z</time></trkpt><trkpt lat="43.7311408" lon="11.6025534"><ele>1072.8333333333335</ele><time>2026-04-12T07:20:16.241Z</time></trkpt><trkpt lat="43.7312107" lon="11.6026045"><ele>1069.6666666666667</ele><time>2026-04-12T07:20:17.237Z</time></trkpt><trkpt lat="43.7312715" lon="11.6026537"><ele>1066.5</ele><time>2026-04-12T07:20:18.244Z</time></trkpt><trkpt lat="43.7313518" lon="11.6027526"><ele>1063.3333333333333</ele><time>2026-04-12T07:20:20.174Z</time></trkpt><trkpt lat="43.7313574" lon="11.6028645"><ele>1060.1666666666665</ele><time>2026-04-12T07:20:21.164Z</time></trkpt><trkpt lat="43.7313519" lon="11.6029776"><ele>1057.0</ele><time>2026-04-12T07:20:22.212Z</time></trkpt><trkpt lat="43.7313366" lon="11.6030892"><ele>1056.25</ele><time>2026-04-12T07:20:23.228Z</time></trkpt><trkpt lat="43.7313034" lon="11.6032396"><ele>1055.5</ele><time>2026-04-12T07:20:25.186Z</time></trkpt><trkpt lat="43.7312363" lon="11.6033601"><ele>1054.75</ele><time>2026-04-12T07:20:27.236Z</time></trkpt><trkpt lat="43.7312253" lon="11.6035164"><ele>1054.0</ele><time>2026-04-12T07:20:29.234Z</time></trkpt><trkpt lat="43.7312289" lon="11.6036786"><ele>1052.0</ele><time>2026-04-12T07:20:31.154Z</time></trkpt><trkpt lat="43.7312513" lon="11.6037627"><ele>1050.0</ele><time>2026-04-12T07:20:35.164Z</time></trkpt><trkpt lat="43.731233" lon="11.6038815"><ele>1048.0</ele><time>2026-04-12T07:20:50.226Z</time></trkpt><trkpt lat="43.7312014" lon="11.6039981"><ele>1046.0</ele><time>2026-04-12T07:20:52.202Z</time></trkpt><trkpt lat="43.7311612" lon="11.6041312"><ele>1044.0</ele><time>2026-04-12T07:20:54.182Z</time></trkpt><trkpt lat="43.7311131" lon="11.6042792"><ele>1044.0</ele><time>2026-04-12T07:20:56.146Z</time></trkpt><trkpt lat="43.7310941" lon="11.6043827"><ele>1044.0</ele><time>2026-04-12T07:20:57.214Z</time></trkpt><trkpt lat="43.7310783" lon="11.6044859"><ele>1044.0</ele><time>2026-04-12T07:20:58.25Z</time></trkpt><trkpt lat="43.7310568" lon="11.604589"><ele>1044.0</ele><time>2026-04-12T07:20:59.242Z</time></trkpt><trkpt lat="43.7310369" lon="11.6046854"><ele>1044.0</ele><time>2026-04-12T07:21:00.233Z</time></trkpt><trkpt lat="43.7310216" lon="11.6047876"><ele>1044.0</ele><time>2026-04-12T07:21:01.256Z</time></trkpt><trkpt lat="43.7310184" lon="11.6048945"><ele>1045.0</ele><time>2026-04-12T07:21:02.245Z</time></trkpt><trkpt lat="43.7310254" lon="11.6050286"><ele>1046.0</ele><time>2026-04-12T07:21:03.236Z</time></trkpt><trkpt lat="43.731064" lon="11.6052065"><ele>1047.0</ele><time>2026-04-12T07:21:04.208Z</time></trkpt><trkpt lat="43.7311076" lon="11.6053898"><ele>1048.0</ele><time>2026-04-12T07:21:05.238Z</time></trkpt><trkpt lat="43.7311277" lon="11.6055562"><ele>1044.3333333333333</ele><time>2026-04-12T07:21:06.169Z</time></trkpt><trkpt lat="43.7311384" lon="11.6056697"><ele>1040.6666666666665</ele><time>2026-04-12T07:21:07.225Z</time></trkpt><trkpt lat="43.7311949" lon="11.6058363"><ele>1037.0</ele><time>2026-04-12T07:21:09.243Z</time></trkpt><trkpt lat="43.7312376" lon="11.605927"><ele>1033.3333333333333</ele><time>2026-04-12T07:21:10.228Z</time></trkpt><trkpt lat="43.731278" lon="11.6059959"><ele>1029.6666666666667</ele><time>2026-04-12T07:21:11.226Z</time></trkpt><trkpt lat="43.7313395" lon="11.6060496"><ele>1026.0</ele><time>2026-04-12T07:21:12.265Z</time></trkpt><trkpt lat="43.7314587" lon="11.6060694"><ele>1026.0</ele><time>2026-04-12T07:21:14.227Z</time></trkpt><trkpt lat="43.7315686" lon="11.606064"><ele>1026.0</ele><time>2026-04-12T07:21:16.222Z</time></trkpt><trkpt lat="43.7316866" lon="11.6060797"><ele>1026.0</ele><time>2026-04-12T07:21:18.237Z</time></trkpt><trkpt lat="43.7317621" lon="11.6061132"><ele>1026.0</ele><time>2026-04-12T07:21:19.214Z</time></trkpt><trkpt lat="43.7318412" lon="11.6061608"><ele>1026.0</ele><time>2026-04-12T07:21:20.257Z</time></trkpt><trkpt lat="43.7318935" lon="11.6062136"><ele>1025.2</ele><time>2026-04-12T07:21:21.241Z</time></trkpt><trkpt lat="43.7319336" lon="11.6063421"><ele>1024.3999999999999</ele><time>2026-04-12T07:21:23.237Z</time></trkpt><trkpt lat="43.7319291" lon="11.606513"><ele>1023.6</ele><time>2026-04-12T07:21:25.212Z</time></trkpt><trkpt lat="43.7319187" lon="11.6066118"><ele>1022.8</ele><time>2026-04-12T07:21:26.231Z</time></trkpt><trkpt lat="43.7318862" lon="11.6067208"><ele>1022.0</ele><time>2026-04-12T07:21:27.21Z</time></trkpt><trkpt lat="43.7318453" lon="11.6068273"><ele>1022.0000000000001</ele><time>2026-04-12T07:21:28.207Z</time></trkpt><trkpt lat="43.7317955" lon="11.6069329"><ele>1022.0</ele><time>2026-04-12T07:21:29.24Z</time></trkpt><trkpt lat="43.7317476" lon="11.6070227"><ele>1022.0</ele><time>2026-04-12T07:21:30.241Z</time></trkpt><trkpt lat="43.7317108" lon="11.6071173"><ele>1022.0</ele><time>2026-04-12T07:21:31.244Z</time></trkpt><trkpt lat="43.7316904" lon="11.607206"><ele>1022.0000000000001</ele><time>2026-04-12T07:21:32.26Z</time></trkpt><trkpt lat="43.7317016" lon="11.6073782"><ele>1022.0</ele><time>2026-04-12T07:21:34.214Z</time></trkpt><trkpt lat="43.73171" lon="11.6074855"><ele>1020.2</ele><time>2026-04-12T07:21:36.237Z</time></trkpt><trkpt lat="43.7317136" lon="11.607597"><ele>1018.4000000000001</ele><time>2026-04-12T07:21:38.249Z</time></trkpt><trkpt lat="43.7317439" lon="11.6077996"><ele>1016.5999999999999</ele><time>2026-04-12T07:21:40.24Z</time></trkpt><trkpt lat="43.7317609" lon="11.6079422"><ele>1014.8</ele><time>2026-04-12T07:21:41.258Z</time></trkpt><trkpt lat="43.731784" lon="11.6080937"><ele>1013.0</ele><time>2026-04-12T07:21:42.245Z</time></trkpt><trkpt lat="43.7318116" lon="11.6082204"><ele>1012.1666666666667</ele><time>2026-04-12T07:21:43.233Z</time></trkpt><trkpt lat="43.7318284" lon="11.6083183"><ele>1011.3333333333334</ele><time>2026-04-12T07:21:44.251Z</time></trkpt><trkpt lat="43.7318416" lon="11.6084117"><ele>1010.5</ele><time>2026-04-12T07:21:45.225Z</time></trkpt><trkpt lat="43.7318605" lon="11.6085056"><ele>1009.6666666666667</ele><time>2026-04-12T07:21:46.246Z</time></trkpt><trkpt lat="43.7318877" lon="11.608603"><ele>1008.8333333333334</ele><time>2026-04-12T07:21:47.211Z</time></trkpt><trkpt lat="43.7319223" lon="11.6087228"><ele>1008.0</ele><time>2026-04-12T07:21:48.243Z</time></trkpt><trkpt lat="43.7319464" lon="11.6088501"><ele>1002.25</ele><time>2026-04-12T07:21:49.226Z</time></trkpt><trkpt lat="43.7319621" lon="11.6089967"><ele>996.5</ele><time>2026-04-12T07:21:50.239Z</time></trkpt><trkpt lat="43.731978" lon="11.6091588"><ele>990.75</ele><time>2026-04-12T07:21:51.249Z</time></trkpt><trkpt lat="43.7319945" lon="11.6093315"><ele>985.0</ele><time>2026-04-12T07:21:52.227Z</time></trkpt><trkpt lat="43.7320186" lon="11.609501"><ele>984.0</ele><time>2026-04-12T07:21:53.225Z</time></trkpt><trkpt lat="43.7320404" lon="11.6096609"><ele>983.0</ele><time>2026-04-12T07:21:54.24Z</time></trkpt><trkpt lat="43.7320756" lon="11.6098153"><ele>982.0</ele><time>2026-04-12T07:21:55.231Z</time></trkpt><trkpt lat="43.7321014" lon="11.6099573"><ele>981.0</ele><time>2026-04-12T07:21:56.253Z</time></trkpt><trkpt lat="43.7321276" lon="11.6100939"><ele>980.0</ele><time>2026-04-12T07:21:57.242Z</time></trkpt><trkpt lat="43.7321579" lon="11.6102296"><ele>978.3333333333334</ele><time>2026-04-12T07:21:58.237Z</time></trkpt><trkpt lat="43.7321848" lon="11.610349"><ele>976.6666666666667</ele><time>2026-04-12T07:21:59.25Z</time></trkpt><trkpt lat="43.732206" lon="11.6104635"><ele>975.0</ele><time>2026-04-12T07:22:00.245Z</time></trkpt><trkpt lat="43.732211" lon="11.6105555"><ele>973.3333333333333</ele><time>2026-04-12T07:22:01.24Z</time></trkpt><trkpt lat="43.7321796" lon="11.6106799"><ele>971.6666666666666</ele><time>2026-04-12T07:22:03.223Z</time></trkpt><trkpt lat="43.732129" lon="11.610803"><ele>970.0</ele><time>2026-04-12T07:22:05.223Z</time></trkpt><trkpt lat="43.7320785" lon="11.6109263"><ele>969.9999999999999</ele><time>2026-04-12T07:22:07.209Z</time></trkpt><trkpt lat="43.7320017" lon="11.6110298"><ele>970.0</ele><time>2026-04-12T07:22:09.229Z</time></trkpt><trkpt lat="43.7319245" lon="11.6111004"><ele>970.0</ele><time>2026-04-12T07:22:11.238Z</time></trkpt><trkpt lat="43.7318865" lon="11.6111882"><ele>970.0</ele><time>2026-04-12T07:22:13.246Z</time></trkpt><trkpt lat="43.7318976" lon="11.6113128"><ele>969.9999999999999</ele><time>2026-04-12T07:22:15.23Z</time></trkpt><trkpt lat="43.7319359" lon="11.6114132"><ele>970.0</ele><time>2026-04-12T07:22:17.209Z</time></trkpt><trkpt lat="43.731997" lon="11.611496"><ele>969.0</ele><time>2026-04-12T07:22:19.208Z</time></trkpt><trkpt lat="43.7320608" lon="11.6115802"><ele>968.0</ele><time>2026-04-12T07:22:21.236Z</time></trkpt><trkpt lat="43.7321068" lon="11.6116446"><ele>967.0</ele><time>2026-04-12T07:22:25.247Z</time></trkpt><trkpt lat="43.732012" lon="11.6116371"><ele>966.0</ele><time>2026-04-12T07:22:29.222Z</time></trkpt><trkpt lat="43.73188" lon="11.6115995"><ele>965.0</ele><time>2026-04-12T07:22:31.257Z</time></trkpt><trkpt lat="43.7318089" lon="11.6115722"><ele>968.1666666666667</ele><time>2026-04-12T07:22:32.258Z</time></trkpt><trkpt lat="43.7317363" lon="11.6115554"><ele>971.3333333333334</ele><time>2026-04-12T07:22:33.254Z</time></trkpt><trkpt lat="43.7316566" lon="11.6115427"><ele>974.5</ele><time>2026-04-12T07:22:34.259Z</time></trkpt><trkpt lat="43.7315878" lon="11.6115262"><ele>977.6666666666667</ele><time>2026-04-12T07:22:35.266Z</time></trkpt><trkpt lat="43.7315248" lon="11.6114994"><ele>980.8333333333334</ele><time>2026-04-12T07:22:36.232Z</time></trkpt><trkpt lat="43.7314611" lon="11.6114759"><ele>984.0</ele><time>2026-04-12T07:22:37.235Z</time></trkpt><trkpt lat="43.7313479" lon="11.6114793"><ele>984.0</ele><time>2026-04-12T07:22:39.244Z</time></trkpt><trkpt lat="43.7312865" lon="11.611508"><ele>984.0</ele><time>2026-04-12T07:22:40.214Z</time></trkpt><trkpt lat="43.7311985" lon="11.6115671"><ele>984.0</ele><time>2026-04-12T07:22:41.231Z</time></trkpt><trkpt lat="43.7311141" lon="11.6116247"><ele>984.0</ele><time>2026-04-12T07:22:42.224Z</time></trkpt><trkpt lat="43.7310299" lon="11.6116966"><ele>984.0</ele><time>2026-04-12T07:22:43.209Z</time></trkpt><trkpt lat="43.7309498" lon="11.6117404"><ele>984.0</ele><time>2026-04-12T07:22:44.243Z</time></trkpt><trkpt lat="43.7308873" lon="11.6117515"><ele>988.0</ele><time>2026-04-12T07:22:45.242Z</time></trkpt><trkpt lat="43.7307824" lon="11.6117755"><ele>992.0000000000001</ele><time>2026-04-12T07:22:47.241Z</time></trkpt><trkpt lat="43.7307018" lon="11.6117899"><ele>996.0000000000001</ele><time>2026-04-12T07:22:49.233Z</time></trkpt><trkpt lat="43.730579" lon="11.6117875"><ele>1000.0</ele><time>2026-04-12T07:22:51.179Z</time></trkpt><trkpt lat="43.7304969" lon="11.6117765"><ele>1004.0</ele><time>2026-04-12T07:22:52.179Z</time></trkpt><trkpt lat="43.7303915" lon="11.6118129"><ele>1004.0</ele><time>2026-04-12T07:22:54.186Z</time></trkpt><trkpt lat="43.7302858" lon="11.6118313"><ele>1004.0000000000001</ele><time>2026-04-12T07:22:56.231Z</time></trkpt><trkpt lat="43.7301598" lon="11.6117984"><ele>1004.0000000000001</ele><time>2026-04-12T07:22:58.231Z</time></trkpt><trkpt lat="43.7300638" lon="11.6117783"><ele>1004.0</ele><time>2026-04-12T07:23:00.239Z</time></trkpt><trkpt lat="43.729968" lon="11.6116954"><ele>1004.0</ele><time>2026-04-12T07:23:02.439Z</time></trkpt><trkpt lat="43.7298304" lon="11.6115177"><ele>1008.6666666666667</ele><time>2026-04-12T07:23:04.259Z</time></trkpt><trkpt lat="43.7297108" lon="11.6113762"><ele>1013.3333333333333</ele><time>2026-04-12T07:23:05.428Z</time></trkpt><trkpt lat="43.7295771" lon="11.6111009"><ele>1018.0</ele><time>2026-04-12T07:23:07.468Z</time></trkpt><trkpt lat="43.7294928" lon="11.6108552"><ele>1017.8</ele><time>2026-04-12T07:23:09.393Z</time></trkpt><trkpt lat="43.7294426" lon="11.610746"><ele>1017.5999999999999</ele><time>2026-04-12T07:23:10.231Z</time></trkpt><trkpt lat="43.7293774" lon="11.6106414"><ele>1017.4000000000001</ele><time>2026-04-12T07:23:11.235Z</time></trkpt><trkpt lat="43.7293148" lon="11.6105236"><ele>1017.2</ele><time>2026-04-12T07:23:12.218Z</time></trkpt><trkpt lat="43.7292706" lon="11.6104271"><ele>1017.0</ele><time>2026-04-12T07:23:13.235Z</time></trkpt><trkpt lat="43.7292424" lon="11.6103301"><ele>1018.25</ele><time>2026-04-12T07:23:14.445Z</time></trkpt><trkpt lat="43.7291669" lon="11.6100554"><ele>1019.5</ele><time>2026-04-12T07:23:16.266Z</time></trkpt><trkpt lat="43.7291239" lon="11.6099359"><ele>1020.75</ele><time>2026-04-12T07:23:17.26Z</time></trkpt><trkpt lat="43.7290876" lon="11.609843"><ele>1022.0</ele><time>2026-04-12T07:23:18.245Z</time></trkpt><trkpt lat="43.7290064" lon="11.6097204"><ele>1022.0</ele><time>2026-04-12T07:23:20.226Z</time></trkpt><trkpt lat="43.7289467" lon="11.609672"><ele>1022.0</ele><time>2026-04-12T07:23:21.232Z</time></trkpt><trkpt lat="43.7288813" lon="11.6095773"><ele>1022.0</ele><time>2026-04-12T07:23:23.179Z</time></trkpt><trkpt lat="43.7288427" lon="11.6094197"><ele>1022.0</ele><time>2026-04-12T07:23:25.17Z</time></trkpt><trkpt lat="43.7288387" lon="11.6093092"><ele>1022.0</ele><time>2026-04-12T07:23:26.225Z</time></trkpt><trkpt lat="43.728852" lon="11.6091851"><ele>1023.6</ele><time>2026-04-12T07:23:27.222Z</time></trkpt><trkpt lat="43.7288681" lon="11.6090717"><ele>1025.2</ele><time>2026-04-12T07:23:28.221Z</time></trkpt><trkpt lat="43.7288847" lon="11.6089702"><ele>1026.8</ele><time>2026-04-12T07:23:29.241Z</time></trkpt><trkpt lat="43.7289121" lon="11.6088349"><ele>1028.4</ele><time>2026-04-12T07:23:30.224Z</time></trkpt><trkpt lat="43.7289259" lon="11.608722"><ele>1030.0</ele><time>2026-04-12T07:23:31.172Z</time></trkpt><trkpt lat="43.7289012" lon="11.6085473"><ele>1033.2</ele><time>2026-04-12T07:23:33.232Z</time></trkpt><trkpt lat="43.7289072" lon="11.6084086"><ele>1036.4</ele><time>2026-04-12T07:23:35.27Z</time></trkpt><trkpt lat="43.7289525" lon="11.6083056"><ele>1039.6</ele><time>2026-04-12T07:23:37.219Z</time></trkpt><trkpt lat="43.7289623" lon="11.6082066"><ele>1042.8</ele><time>2026-04-12T07:23:38.241Z</time></trkpt><trkpt lat="43.7289782" lon="11.6080125"><ele>1046.0</ele><time>2026-04-12T07:23:41.236Z</time></trkpt><trkpt lat="43.7289383" lon="11.6078647"><ele>1049.3999999999999</ele><time>2026-04-12T07:23:43.421Z</time></trkpt><trkpt lat="43.7288903" lon="11.607723"><ele>1052.8</ele><time>2026-04-12T07:23:45.467Z</time></trkpt><trkpt lat="43.7288481" lon="11.6076194"><ele>1056.1999999999998</ele><time>2026-04-12T07:23:47.444Z</time></trkpt><trkpt lat="43.7287123" lon="11.6075247"><ele>1059.6</ele><time>2026-04-12T07:23:49.436Z</time></trkpt><trkpt lat="43.7286515" lon="11.6074578"><ele>1063.0</ele><time>2026-04-12T07:23:51.18Z</time></trkpt><trkpt lat="43.7286357" lon="11.6072849"><ele>1063.0</ele><time>2026-04-12T07:23:54.443Z</time></trkpt><trkpt lat="43.7286432" lon="11.6071547"><ele>1063.0</ele><time>2026-04-12T07:23:56.219Z</time></trkpt><trkpt lat="43.7286141" lon="11.6069962"><ele>1063.0</ele><time>2026-04-12T07:23:58.439Z</time></trkpt><trkpt lat="43.728593" lon="11.6068505"><ele>1063.0</ele><time>2026-04-12T07:24:00.26Z</time></trkpt><trkpt lat="43.7285557" lon="11.6067648"><ele>1063.0</ele><time>2026-04-12T07:24:02.256Z</time></trkpt><trkpt lat="43.7285002" lon="11.6067102"><ele>1069.2</ele><time>2026-04-12T07:24:04.212Z</time></trkpt><trkpt lat="43.728419" lon="11.606631"><ele>1075.4</ele><time>2026-04-12T07:24:06.231Z</time></trkpt><trkpt lat="43.7283199" lon="11.6065164"><ele>1081.6000000000001</ele><time>2026-04-12T07:24:08.185Z</time></trkpt><trkpt lat="43.7282553" lon="11.6064455"><ele>1087.8</ele><time>2026-04-12T07:24:09.256Z</time></trkpt><trkpt lat="43.7281763" lon="11.6063923"><ele>1094.0</ele><time>2026-04-12T07:24:10.222Z</time></trkpt><trkpt lat="43.7281183" lon="11.6063563"><ele>1094.0</ele><time>2026-04-12T07:24:11.259Z</time></trkpt><trkpt lat="43.7280099" lon="11.6062589"><ele>1094.0</ele><time>2026-04-12T07:24:13.194Z</time></trkpt><trkpt lat="43.7279576" lon="11.6061996"><ele>1094.0</ele><time>2026-04-12T07:24:14.263Z</time></trkpt><trkpt lat="43.7278965" lon="11.6060417"><ele>1094.0</ele><time>2026-04-12T07:24:16.243Z</time></trkpt><trkpt lat="43.7278583" lon="11.6059608"><ele>1094.0</ele><time>2026-04-12T07:24:17.209Z</time></trkpt><trkpt lat="43.7278113" lon="11.6058814"><ele>1095.1666666666667</ele><time>2026-04-12T07:24:18.231Z</time></trkpt><trkpt lat="43.727761" lon="11.6057985"><ele>1096.3333333333335</ele><time>2026-04-12T07:24:19.247Z</time></trkpt><trkpt lat="43.727714" lon="11.6057075"><ele>1097.5</ele><time>2026-04-12T07:24:20.231Z</time></trkpt><trkpt lat="43.7276698" lon="11.6056187"><ele>1098.6666666666667</ele><time>2026-04-12T07:24:21.224Z</time></trkpt><trkpt lat="43.7276248" lon="11.6055306"><ele>1099.8333333333333</ele><time>2026-04-12T07:24:22.201Z</time></trkpt><trkpt lat="43.7275766" lon="11.6054396"><ele>1101.0</ele><time>2026-04-12T07:24:23.242Z</time></trkpt><trkpt lat="43.7275352" lon="11.6053437"><ele>1104.7142857142858</ele><time>2026-04-12T07:24:24.262Z</time></trkpt><trkpt lat="43.7274995" lon="11.6052468"><ele>1108.4285714285713</ele><time>2026-04-12T07:24:25.238Z</time></trkpt><trkpt lat="43.7274609" lon="11.6051602"><ele>1112.142857142857</ele><time>2026-04-12T07:24:26.169Z</time></trkpt><trkpt lat="43.7274088" lon="11.605102"><ele>1115.857142857143</ele><time>2026-04-12T07:24:27.176Z</time></trkpt><trkpt lat="43.7273565" lon="11.6050453"><ele>1119.5714285714284</ele><time>2026-04-12T07:24:28.244Z</time></trkpt><trkpt lat="43.7273026" lon="11.6049972"><ele>1123.2857142857142</ele><time>2026-04-12T07:24:29.232Z</time></trkpt><trkpt lat="43.7272718" lon="11.6049008"><ele>1127.0</ele><time>2026-04-12T07:24:30.262Z</time></trkpt><trkpt lat="43.7272435" lon="11.6048017"><ele>1127.0</ele><time>2026-04-12T07:24:31.246Z</time></trkpt><trkpt lat="43.7272056" lon="11.6046872"><ele>1127.0</ele><time>2026-04-12T07:24:32.257Z</time></trkpt><trkpt lat="43.7271613" lon="11.6045939"><ele>1127.0</ele><time>2026-04-12T07:24:33.258Z</time></trkpt><trkpt lat="43.7271128" lon="11.6044806"><ele>1127.0</ele><time>2026-04-12T07:24:34.519Z</time></trkpt><trkpt lat="43.7270335" lon="11.6042638"><ele>1127.0</ele><time>2026-04-12T07:24:36.242Z</time></trkpt><trkpt lat="43.7270039" lon="11.6041659"><ele>1128.6666666666667</ele><time>2026-04-12T07:24:37.232Z</time></trkpt><trkpt lat="43.7269579" lon="11.6041034"><ele>1130.3333333333333</ele><time>2026-04-12T07:24:38.448Z</time></trkpt><trkpt lat="43.7268519" lon="11.603913"><ele>1132.0</ele><time>2026-04-12T07:24:40.479Z</time></trkpt><trkpt lat="43.7267975" lon="11.6035951"><ele>1140.3333333333333</ele><time>2026-04-12T07:24:42.479Z</time></trkpt><trkpt lat="43.7267105" lon="11.6033098"><ele>1148.6666666666667</ele><time>2026-04-12T07:24:44.25Z</time></trkpt><trkpt lat="43.7266573" lon="11.6031867"><ele>1157.0</ele><time>2026-04-12T07:24:45.445Z</time></trkpt><trkpt lat="43.7266292" lon="11.6029467"><ele>1158.0</ele><time>2026-04-12T07:24:47.461Z</time></trkpt><trkpt lat="43.7266384" lon="11.6026847"><ele>1159.0</ele><time>2026-04-12T07:24:49.472Z</time></trkpt><trkpt lat="43.7266453" lon="11.6024351"><ele>1160.0</ele><time>2026-04-12T07:24:51.263Z</time></trkpt><trkpt lat="43.7266605" lon="11.6023431"><ele>1161.0</ele><time>2026-04-12T07:24:52.247Z</time></trkpt><trkpt lat="43.7266717" lon="11.602189"><ele>1161.0</ele><time>2026-04-12T07:24:54.469Z</time></trkpt><trkpt lat="43.7266507" lon="11.602076"><ele>1161.0</ele><time>2026-04-12T07:24:56.235Z</time></trkpt><trkpt lat="43.7266353" lon="11.6019701"><ele>1161.0</ele><time>2026-04-12T07:24:58.241Z</time></trkpt><trkpt lat="43.7266003" lon="11.6018513"><ele>1161.0</ele><time>2026-04-12T07:25:00.211Z</time></trkpt><trkpt lat="43.7265582" lon="11.6017053"><ele>1161.0</ele><time>2026-04-12T07:25:02.255Z</time></trkpt><trkpt lat="43.7265126" lon="11.6016018"><ele>1162.3999999999999</ele><time>2026-04-12T07:25:03.497Z</time></trkpt><trkpt lat="43.7264084" lon="11.6014607"><ele>1163.8</ele><time>2026-04-12T07:25:05.243Z</time></trkpt><trkpt lat="43.7263473" lon="11.6013834"><ele>1165.1999999999998</ele><time>2026-04-12T07:25:06.229Z</time></trkpt><trkpt lat="43.7262642" lon="11.601254"><ele>1166.6</ele><time>2026-04-12T07:25:08.218Z</time></trkpt><trkpt lat="43.7262292" lon="11.6011561"><ele>1168.0</ele><time>2026-04-12T07:25:09.237Z</time></trkpt><trkpt lat="43.7261997" lon="11.6010639"><ele>1170.2</ele><time>2026-04-12T07:25:10.437Z</time></trkpt><trkpt lat="43.7261518" lon="11.6008251"><ele>1172.4</ele><time>2026-04-12T07:25:12.247Z</time></trkpt><trkpt lat="43.7260855" lon="11.6007034"><ele>1174.6000000000001</ele><time>2026-04-12T07:25:13.237Z</time></trkpt><trkpt lat="43.726077" lon="11.6006053"><ele>1176.8</ele><time>2026-04-12T07:25:14.256Z</time></trkpt><trkpt lat="43.7260666" lon="11.6005193"><ele>1179.0</ele><time>2026-04-12T07:25:15.226Z</time></trkpt><trkpt lat="43.72605" lon="11.6004289"><ele>1190.0</ele><time>2026-04-12T07:25:16.245Z</time></trkpt><trkpt lat="43.7260456" lon="11.6002428"><ele>1201.0</ele><time>2026-04-12T07:25:18.457Z</time></trkpt><trkpt lat="43.7260529" lon="11.6000097"><ele>1212.0</ele><time>2026-04-12T07:25:20.278Z</time></trkpt><trkpt lat="43.7260413" lon="11.5998561"><ele>1223.0</ele><time>2026-04-12T07:25:21.253Z</time></trkpt><trkpt lat="43.7260176" lon="11.5996684"><ele>1226.6666666666667</ele><time>2026-04-12T07:25:22.22Z</time></trkpt><trkpt lat="43.7259819" lon="11.599462"><ele>1230.3333333333333</ele><time>2026-04-12T07:25:23.464Z</time></trkpt><trkpt lat="43.725935" lon="11.5990918"><ele>1234.0</ele><time>2026-04-12T07:25:25.309Z</time></trkpt><trkpt lat="43.7259165" lon="11.5989405"><ele>1234.0</ele><time>2026-04-12T07:25:26.231Z</time></trkpt><trkpt lat="43.7258919" lon="11.5987818"><ele>1234.0</ele><time>2026-04-12T07:25:27.458Z</time></trkpt><trkpt lat="43.7258249" lon="11.5985965"><ele>1234.0</ele><time>2026-04-12T07:25:29.243Z</time></trkpt><trkpt lat="43.7257162" lon="11.5984443"><ele>1234.0</ele><time>2026-04-12T07:25:32.419Z</time></trkpt><trkpt lat="43.7256664" lon="11.5983161"><ele>1234.3333333333333</ele><time>2026-04-12T07:25:34.218Z</time></trkpt><trkpt lat="43.7256235" lon="11.5982455"><ele>1234.6666666666665</ele><time>2026-04-12T07:25:36.243Z</time></trkpt><trkpt lat="43.7255543" lon="11.5981748"><ele>1235.0</ele><time>2026-04-12T07:25:39.24Z</time></trkpt><trkpt lat="43.7254551" lon="11.5981039"><ele>1235.3333333333333</ele><time>2026-04-12T07:25:42.239Z</time></trkpt><trkpt lat="43.725407" lon="11.5980371"><ele>1235.6666666666667</ele><time>2026-04-12T07:25:45.235Z</time></trkpt><trkpt lat="43.7254796" lon="11.5980036"><ele>1236.0</ele><time>2026-04-12T07:25:52.22Z</time></trkpt><trkpt lat="43.7255587" lon="11.5979373"><ele>1236.0</ele><time>2026-04-12T07:25:55.205Z</time></trkpt><trkpt lat="43.7256181" lon="11.5978886"><ele>1236.0</ele><time>2026-04-12T07:25:57.239Z</time></trkpt><trkpt lat="43.7256787" lon="11.5978251"><ele>1236.0</ele><time>2026-04-12T07:25:59.235Z</time></trkpt><trkpt lat="43.7257753" lon="11.5977149"><ele>1236.0</ele><time>2026-04-12T07:26:01.25Z</time></trkpt><trkpt lat="43.7258155" lon="11.5976457"><ele>1236.0</ele><time>2026-04-12T07:26:02.247Z</time></trkpt><trkpt lat="43.7258454" lon="11.5975146"><ele>1236.0</ele><time>2026-04-12T07:26:04.171Z</time></trkpt><trkpt lat="43.7258218" lon="11.5974038"><ele>1235.5</ele><time>2026-04-12T07:26:06.152Z</time></trkpt><trkpt lat="43.7257998" lon="11.5972721"><ele>1235.0</ele><time>2026-04-12T07:26:08.179Z</time></trkpt><trkpt lat="43.7257139" lon="11.5971215"><ele>1234.5</ele><time>2026-04-12T07:26:11.233Z</time></trkpt><trkpt lat="43.7256529" lon="11.5970351"><ele>1234.0</ele><time>2026-04-12T07:26:13.485Z</time></trkpt><trkpt lat="43.7255475" lon="11.5969217"><ele>1234.0</ele><time>2026-04-12T07:26:15.425Z</time></trkpt><trkpt lat="43.7254186" lon="11.59683"><ele>1234.0</ele><time>2026-04-12T07:26:17.536Z</time></trkpt><trkpt lat="43.7252974" lon="11.5967489"><ele>1234.0</ele><time>2026-04-12T07:26:19.466Z</time></trkpt><trkpt lat="43.7251957" lon="11.5966444"><ele>1234.0</ele><time>2026-04-12T07:26:21.259Z</time></trkpt><trkpt lat="43.7251122" lon="11.5965313"><ele>1238.0</ele><time>2026-04-12T07:26:23.449Z</time></trkpt><trkpt lat="43.7250447" lon="11.5964055"><ele>1242.0</ele><time>2026-04-12T07:26:25.443Z</time></trkpt><trkpt lat="43.7249642" lon="11.5962866"><ele>1246.0</ele><time>2026-04-12T07:26:27.25Z</time></trkpt><trkpt lat="43.7249133" lon="11.5962294"><ele>1250.0</ele><time>2026-04-12T07:26:28.28Z</time></trkpt><trkpt lat="43.7248628" lon="11.5961653"><ele>1254.0</ele><time>2026-04-12T07:26:29.479Z</time></trkpt><trkpt lat="43.7248237" lon="11.5960205"><ele>1254.6000000000001</ele><time>2026-04-12T07:26:31.157Z</time></trkpt><trkpt lat="43.7248041" lon="11.5959296"><ele>1255.2</ele><time>2026-04-12T07:26:32.224Z</time></trkpt><trkpt lat="43.7247725" lon="11.5958344"><ele>1255.8000000000002</ele><time>2026-04-12T07:26:33.25Z</time></trkpt><trkpt lat="43.7247328" lon="11.5957308"><ele>1256.4</ele><time>2026-04-12T07:26:34.412Z</time></trkpt><trkpt lat="43.7246667" lon="11.5955733"><ele>1257.0</ele><time>2026-04-12T07:26:36.273Z</time></trkpt><trkpt lat="43.7245776" lon="11.5954416"><ele>1257.0000000000002</ele><time>2026-04-12T07:26:38.253Z</time></trkpt><trkpt lat="43.7245369" lon="11.5953643"><ele>1257.0</ele><time>2026-04-12T07:26:39.24Z</time></trkpt><trkpt lat="43.7244956" lon="11.5952899"><ele>1257.0</ele><time>2026-04-12T07:26:40.225Z</time></trkpt><trkpt lat="43.724445" lon="11.5952166"><ele>1257.0</ele><time>2026-04-12T07:26:41.202Z</time></trkpt><trkpt lat="43.724392" lon="11.595147"><ele>1257.0</ele><time>2026-04-12T07:26:42.147Z</time></trkpt><trkpt lat="43.7243372" lon="11.5950652"><ele>1257.0000000000002</ele><time>2026-04-12T07:26:43.238Z</time></trkpt><trkpt lat="43.7242876" lon="11.5949778"><ele>1257.0</ele><time>2026-04-12T07:26:44.144Z</time></trkpt><trkpt lat="43.7242221" lon="11.5948869"><ele>1261.1666666666667</ele><time>2026-04-12T07:26:45.17Z</time></trkpt><trkpt lat="43.7241636" lon="11.5948072"><ele>1265.3333333333333</ele><time>2026-04-12T07:26:46.189Z</time></trkpt><trkpt lat="43.7241125" lon="11.5947476"><ele>1269.5</ele><time>2026-04-12T07:26:47.184Z</time></trkpt><trkpt lat="43.7240602" lon="11.5946956"><ele>1273.6666666666665</ele><time>2026-04-12T07:26:48.205Z</time></trkpt><trkpt lat="43.7240013" lon="11.5946419"><ele>1277.8333333333333</ele><time>2026-04-12T07:26:49.473Z</time></trkpt><trkpt lat="43.7238771" lon="11.5945502"><ele>1282.0</ele><time>2026-04-12T07:26:51.201Z</time></trkpt><trkpt lat="43.7238123" lon="11.5945105"><ele>1282.3333333333333</ele><time>2026-04-12T07:26:52.227Z</time></trkpt><trkpt lat="43.7237117" lon="11.5944396"><ele>1282.6666666666665</ele><time>2026-04-12T07:26:54.237Z</time></trkpt><trkpt lat="43.7236634" lon="11.5943826"><ele>1283.0</ele><time>2026-04-12T07:26:55.223Z</time></trkpt><trkpt lat="43.7235711" lon="11.5942873"><ele>1283.3333333333333</ele><time>2026-04-12T07:26:57.197Z</time></trkpt><trkpt lat="43.7235052" lon="11.594271"><ele>1283.6666666666667</ele><time>2026-04-12T07:26:58.232Z</time></trkpt><trkpt lat="43.7234352" lon="11.5942712"><ele>1284.0</ele><time>2026-04-12T07:26:59.199Z</time></trkpt><trkpt lat="43.7233608" lon="11.5942744"><ele>1286.5</ele><time>2026-04-12T07:27:00.188Z</time></trkpt><trkpt lat="43.7232953" lon="11.594276"><ele>1289.0</ele><time>2026-04-12T07:27:01.209Z</time></trkpt><trkpt lat="43.7231976" lon="11.5942678"><ele>1291.5</ele><time>2026-04-12T07:27:03.188Z</time></trkpt><trkpt lat="43.7231599" lon="11.5941738"><ele>1294.0</ele><time>2026-04-12T07:27:07.166Z</time></trkpt><trkpt lat="43.7231741" lon="11.5940744"><ele>1296.5</ele><time>2026-04-12T07:27:09.235Z</time></trkpt><trkpt lat="43.7231703" lon="11.5939648"><ele>1299.0</ele><time>2026-04-12T07:27:11.168Z</time></trkpt><trkpt lat="43.7230629" lon="11.5936535"><ele>1299.0</ele><time>2026-04-12T07:27:14.188Z</time></trkpt><trkpt lat="43.7230284" lon="11.5935337"><ele>1299.0</ele><time>2026-04-12T07:27:15.227Z</time></trkpt><trkpt lat="43.7230266" lon="11.5933567"><ele>1299.0</ele><time>2026-04-12T07:27:17.183Z</time></trkpt><trkpt lat="43.7230235" lon="11.5932555"><ele>1299.0</ele><time>2026-04-12T07:27:18.219Z</time></trkpt><trkpt lat="43.7230166" lon="11.5931599"><ele>1299.0</ele><time>2026-04-12T07:27:19.25Z</time></trkpt><trkpt lat="43.7230102" lon="11.5930375"><ele>1299.0</ele><time>2026-04-12T07:27:21.233Z</time></trkpt><trkpt lat="43.7230218" lon="11.5929379"><ele>1299.0</ele><time>2026-04-12T07:27:23.162Z</time></trkpt><trkpt lat="43.7230455" lon="11.5928315"><ele>1299.0</ele><time>2026-04-12T07:27:25.153Z</time></trkpt><trkpt lat="43.7231166" lon="11.5927419"><ele>1299.0</ele><time>2026-04-12T07:27:27.15Z</time></trkpt><trkpt lat="43.7231749" lon="11.5927026"><ele>1299.0</ele><time>2026-04-12T07:27:28.168Z</time></trkpt><trkpt lat="43.7232471" lon="11.5926714"><ele>1299.0</ele><time>2026-04-12T07:27:29.216Z</time></trkpt><trkpt lat="43.7233237" lon="11.5926538"><ele>1299.6</ele><time>2026-04-12T07:27:30.247Z</time></trkpt><trkpt lat="43.7234154" lon="11.592639"><ele>1300.2</ele><time>2026-04-12T07:27:31.22Z</time></trkpt><trkpt lat="43.7235127" lon="11.5926238"><ele>1300.8</ele><time>2026-04-12T07:27:32.187Z</time></trkpt><trkpt lat="43.723613" lon="11.5926174"><ele>1301.3999999999999</ele><time>2026-04-12T07:27:33.18Z</time></trkpt><trkpt lat="43.7237004" lon="11.5926184"><ele>1302.0</ele><time>2026-04-12T07:27:34.193Z</time></trkpt><trkpt lat="43.7237721" lon="11.5926217"><ele>1300.0</ele><time>2026-04-12T07:27:35.194Z</time></trkpt><trkpt lat="43.7238457" lon="11.5926429"><ele>1298.0</ele><time>2026-04-12T07:27:37.205Z</time></trkpt><trkpt lat="43.7239226" lon="11.5927344"><ele>1296.0</ele><time>2026-04-12T07:27:40.243Z</time></trkpt><trkpt lat="43.7240167" lon="11.5928672"><ele>1294.0</ele><time>2026-04-12T07:27:42.23Z</time></trkpt><trkpt lat="43.7240857" lon="11.5929464"><ele>1292.0</ele><time>2026-04-12T07:27:43.241Z</time></trkpt><trkpt lat="43.7241722" lon="11.5930366"><ele>1291.1999999999998</ele><time>2026-04-12T07:27:44.253Z</time></trkpt><trkpt lat="43.7242519" lon="11.5931236"><ele>1290.4</ele><time>2026-04-12T07:27:45.222Z</time></trkpt><trkpt lat="43.7243208" lon="11.5932022"><ele>1289.6</ele><time>2026-04-12T07:27:46.165Z</time></trkpt><trkpt lat="43.7243823" lon="11.5932734"><ele>1288.8000000000002</ele><time>2026-04-12T07:27:47.165Z</time></trkpt><trkpt lat="43.7244565" lon="11.5933603"><ele>1288.0</ele><time>2026-04-12T07:27:48.249Z</time></trkpt><trkpt lat="43.7245386" lon="11.5934531"><ele>1285.75</ele><time>2026-04-12T07:27:49.179Z</time></trkpt><trkpt lat="43.7246159" lon="11.5935484"><ele>1283.5</ele><time>2026-04-12T07:27:50.282Z</time></trkpt><trkpt lat="43.7247419" lon="11.5937034"><ele>1281.25</ele><time>2026-04-12T07:27:52.459Z</time></trkpt><trkpt lat="43.7248654" lon="11.5938234"><ele>1279.0</ele><time>2026-04-12T07:27:54.231Z</time></trkpt><trkpt lat="43.7249276" lon="11.5938823"><ele>1278.5</ele><time>2026-04-12T07:27:55.237Z</time></trkpt><trkpt lat="43.7249857" lon="11.5939359"><ele>1278.0</ele><time>2026-04-12T07:27:56.218Z</time></trkpt><trkpt lat="43.7250492" lon="11.5939876"><ele>1277.5</ele><time>2026-04-12T07:27:57.486Z</time></trkpt><trkpt lat="43.7251249" lon="11.5941109"><ele>1277.0</ele><time>2026-04-12T07:27:59.447Z</time></trkpt><trkpt lat="43.7251748" lon="11.5942615"><ele>1276.5</ele><time>2026-04-12T07:28:01.237Z</time></trkpt><trkpt lat="43.7252158" lon="11.5943353"><ele>1276.0</ele><time>2026-04-12T07:28:02.421Z</time></trkpt><trkpt lat="43.7252855" lon="11.5944658"><ele>1271.0</ele><time>2026-04-12T07:28:04.519Z</time></trkpt><trkpt lat="43.7253257" lon="11.5946321"><ele>1266.0</ele><time>2026-04-12T07:28:06.26Z</time></trkpt><trkpt lat="43.7253766" lon="11.5947395"><ele>1261.0</ele><time>2026-04-12T07:28:08.485Z</time></trkpt><trkpt lat="43.7254146" lon="11.5948128"><ele>1256.0</ele><time>2026-04-12T07:28:10.23Z</time></trkpt><trkpt lat="43.7254466" lon="11.5949577"><ele>1251.0</ele><time>2026-04-12T07:28:12.237Z</time></trkpt><trkpt lat="43.7254747" lon="11.5951089"><ele>1251.0</ele><time>2026-04-12T07:28:14.253Z</time></trkpt><trkpt lat="43.7254957" lon="11.5952598"><ele>1251.0</ele><time>2026-04-12T07:28:16.239Z</time></trkpt><trkpt lat="43.7255139" lon="11.5953999"><ele>1251.0</ele><time>2026-04-12T07:28:18.459Z</time></trkpt><trkpt lat="43.7255584" lon="11.5955042"><ele>1251.0</ele><time>2026-04-12T07:28:20.248Z</time></trkpt><trkpt lat="43.7256294" lon="11.5956179"><ele>1251.0</ele><time>2026-04-12T07:28:22.258Z</time></trkpt><trkpt lat="43.725703" lon="11.5957217"><ele>1249.0</ele><time>2026-04-12T07:28:24.241Z</time></trkpt><trkpt lat="43.7257769" lon="11.595838"><ele>1247.0</ele><time>2026-04-12T07:28:26.231Z</time></trkpt><trkpt lat="43.7258761" lon="11.5960054"><ele>1245.0</ele><time>2026-04-12T07:28:29.221Z</time></trkpt><trkpt lat="43.7259029" lon="11.5961477"><ele>1243.0</ele><time>2026-04-12T07:28:32.494Z</time></trkpt><trkpt lat="43.7259231" lon="11.5962503"><ele>1241.5</ele><time>2026-04-12T07:28:34.449Z</time></trkpt><trkpt lat="43.7259749" lon="11.5963365"><ele>1240.0</ele><time>2026-04-12T07:28:36.234Z</time></trkpt><trkpt lat="43.7260191" lon="11.5964083"><ele>1238.5</ele><time>2026-04-12T07:28:37.261Z</time></trkpt><trkpt lat="43.7261175" lon="11.596513"><ele>1237.0</ele><time>2026-04-12T07:28:40.449Z</time></trkpt><trkpt lat="43.7261886" lon="11.5965628"><ele>1235.5</ele><time>2026-04-12T07:28:43.224Z</time></trkpt><trkpt lat="43.726216" lon="11.5966688"><ele>1234.0</ele><time>2026-04-12T07:28:46.215Z</time></trkpt><trkpt lat="43.7262713" lon="11.5968423"><ele>1231.6000000000001</ele><time>2026-04-12T07:28:50.262Z</time></trkpt><trkpt lat="43.7263317" lon="11.5969339"><ele>1229.2</ele><time>2026-04-12T07:28:52.254Z</time></trkpt><trkpt lat="43.7263752" lon="11.5970039"><ele>1226.8000000000002</ele><time>2026-04-12T07:28:53.184Z</time></trkpt><trkpt lat="43.7264512" lon="11.5971046"><ele>1224.4</ele><time>2026-04-12T07:28:55.178Z</time></trkpt><trkpt lat="43.726515" lon="11.5971889"><ele>1222.0</ele><time>2026-04-12T07:28:57.18Z</time></trkpt><trkpt lat="43.7265904" lon="11.5973464"><ele>1220.5</ele><time>2026-04-12T07:29:00.223Z</time></trkpt><trkpt lat="43.7266163" lon="11.59743"><ele>1219.0</ele><time>2026-04-12T07:29:01.262Z</time></trkpt><trkpt lat="43.7266486" lon="11.5975065"><ele>1217.5</ele><time>2026-04-12T07:29:02.262Z</time></trkpt><trkpt lat="43.7267429" lon="11.5976293"><ele>1216.0</ele><time>2026-04-12T07:29:04.253Z</time></trkpt><trkpt lat="43.7268224" lon="11.597743"><ele>1214.5</ele><time>2026-04-12T07:29:06.261Z</time></trkpt><trkpt lat="43.7268691" lon="11.5978072"><ele>1213.0</ele><time>2026-04-12T07:29:07.256Z</time></trkpt><trkpt lat="43.7269263" lon="11.5978707"><ele>1209.2</ele><time>2026-04-12T07:29:08.457Z</time></trkpt><trkpt lat="43.7270415" lon="11.5979875"><ele>1205.4</ele><time>2026-04-12T07:29:10.255Z</time></trkpt><trkpt lat="43.7270995" lon="11.5980589"><ele>1201.6000000000001</ele><time>2026-04-12T07:29:11.265Z</time></trkpt><trkpt lat="43.7271444" lon="11.5981468"><ele>1197.8</ele><time>2026-04-12T07:29:12.266Z</time></trkpt><trkpt lat="43.7271801" lon="11.5982454"><ele>1194.0</ele><time>2026-04-12T07:29:13.243Z</time></trkpt><trkpt lat="43.7272167" lon="11.598348"><ele>1194.0</ele><time>2026-04-12T07:29:14.18Z</time></trkpt><trkpt lat="43.7272461" lon="11.5984389"><ele>1194.0</ele><time>2026-04-12T07:29:15.304Z</time></trkpt><trkpt lat="43.7272673" lon="11.5986177"><ele>1194.0</ele><time>2026-04-12T07:29:17.473Z</time></trkpt><trkpt lat="43.7272998" lon="11.5988032"><ele>1194.0</ele><time>2026-04-12T07:29:19.477Z</time></trkpt><trkpt lat="43.7273194" lon="11.5989363"><ele>1194.0</ele><time>2026-04-12T07:29:21.258Z</time></trkpt><trkpt lat="43.7273151" lon="11.5991013"><ele>1194.0</ele><time>2026-04-12T07:29:23.263Z</time></trkpt><trkpt lat="43.7273007" lon="11.5993114"><ele>1194.0</ele><time>2026-04-12T07:29:25.186Z</time></trkpt><trkpt lat="43.7272941" lon="11.5994242"><ele>1194.0</ele><time>2026-04-12T07:29:26.19Z</time></trkpt><trkpt lat="43.7272969" lon="11.5995395"><ele>1194.0</ele><time>2026-04-12T07:29:27.369Z</time></trkpt><trkpt lat="43.7273127" lon="11.5997958"><ele>1193.25</ele><time>2026-04-12T07:29:29.331Z</time></trkpt><trkpt lat="43.7273622" lon="11.6000465"><ele>1192.5</ele><time>2026-04-12T07:29:31.196Z</time></trkpt><trkpt lat="43.7273961" lon="11.6001292"><ele>1191.75</ele><time>2026-04-12T07:29:32.238Z</time></trkpt><trkpt lat="43.727412" lon="11.6003391"><ele>1191.0</ele><time>2026-04-12T07:29:35.337Z</time></trkpt><trkpt lat="43.7274062" lon="11.6004554"><ele>1188.6</ele><time>2026-04-12T07:29:37.559Z</time></trkpt><trkpt lat="43.727395" lon="11.6005977"><ele>1186.1999999999998</ele><time>2026-04-12T07:29:39.22Z</time></trkpt><trkpt lat="43.7273492" lon="11.6007529"><ele>1183.8000000000002</ele><time>2026-04-12T07:29:41.217Z</time></trkpt><trkpt lat="43.7273461" lon="11.6008982"><ele>1181.4</ele><time>2026-04-12T07:29:43.166Z</time></trkpt><trkpt lat="43.7273621" lon="11.601031"><ele>1179.0</ele><time>2026-04-12T07:29:45.21Z</time></trkpt><trkpt lat="43.7273564" lon="11.6011395"><ele>1176.8333333333333</ele><time>2026-04-12T07:29:47.249Z</time></trkpt><trkpt lat="43.7273357" lon="11.6012475"><ele>1174.6666666666667</ele><time>2026-04-12T07:29:49.239Z</time></trkpt><trkpt lat="43.7273396" lon="11.6013592"><ele>1172.5</ele><time>2026-04-12T07:29:51.257Z</time></trkpt><trkpt lat="43.7273588" lon="11.6014424"><ele>1170.3333333333335</ele><time>2026-04-12T07:29:52.261Z</time></trkpt><trkpt lat="43.7273844" lon="11.6015878"><ele>1168.1666666666667</ele><time>2026-04-12T07:29:54.266Z</time></trkpt><trkpt lat="43.7273995" lon="11.6017326"><ele>1166.0</ele><time>2026-04-12T07:29:56.253Z</time></trkpt><trkpt lat="43.7274258" lon="11.6018364"><ele>1166.0</ele><time>2026-04-12T07:29:58.439Z</time></trkpt><trkpt lat="43.7274678" lon="11.6019013"><ele>1166.0</ele><time>2026-04-12T07:30:00.207Z</time></trkpt><trkpt lat="43.7275401" lon="11.6020179"><ele>1166.0</ele><time>2026-04-12T07:30:02.244Z</time></trkpt><trkpt lat="43.7275743" lon="11.6020995"><ele>1166.0</ele><time>2026-04-12T07:30:03.189Z</time></trkpt><trkpt lat="43.7276694" lon="11.6022387"><ele>1166.0</ele><time>2026-04-12T07:30:06.251Z</time></trkpt><trkpt lat="43.7278465" lon="11.6021649"><ele>1162.3333333333335</ele><time>2026-04-12T07:30:10.493Z</time></trkpt><trkpt lat="43.7279415" lon="11.6020995"><ele>1158.6666666666667</ele><time>2026-04-12T07:30:12.227Z</time></trkpt><trkpt lat="43.7280205" lon="11.6021052"><ele>1155.0</ele><time>2026-04-12T07:30:14.23Z</time></trkpt><trkpt lat="43.7280844" lon="11.602137"><ele>1151.3333333333333</ele><time>2026-04-12T07:30:15.242Z</time></trkpt><trkpt lat="43.7281444" lon="11.6021742"><ele>1147.6666666666665</ele><time>2026-04-12T07:30:16.224Z</time></trkpt><trkpt lat="43.7282175" lon="11.6022058"><ele>1144.0</ele><time>2026-04-12T07:30:17.242Z</time></trkpt><trkpt lat="43.728368" lon="11.6022133"><ele>1144.0</ele><time>2026-04-12T07:30:20.431Z</time></trkpt><trkpt lat="43.7284308" lon="11.6021355"><ele>1144.0</ele><time>2026-04-12T07:30:22.494Z</time></trkpt><trkpt lat="43.7284659" lon="11.6020397"><ele>1144.0</ele><time>2026-04-12T07:30:24.204Z</time></trkpt><trkpt lat="43.728528" lon="11.6019387"><ele>1144.0</ele><time>2026-04-12T07:30:26.273Z</time></trkpt><trkpt lat="43.7285735" lon="11.6018357"><ele>1144.0</ele><time>2026-04-12T07:30:27.277Z</time></trkpt><trkpt lat="43.7286102" lon="11.6017381"><ele>1144.0</ele><time>2026-04-12T07:30:28.566Z</time></trkpt><trkpt lat="43.7286934" lon="11.601577"><ele>1140.4</ele><time>2026-04-12T07:30:30.465Z</time></trkpt><trkpt lat="43.7288102" lon="11.601431"><ele>1136.8000000000002</ele><time>2026-04-12T07:30:32.149Z</time></trkpt><trkpt lat="43.7288886" lon="11.6013618"><ele>1133.1999999999998</ele><time>2026-04-12T07:30:33.247Z</time></trkpt><trkpt lat="43.7289701" lon="11.6012986"><ele>1129.6</ele><time>2026-04-12T07:30:34.265Z</time></trkpt><trkpt lat="43.7290407" lon="11.6012691"><ele>1126.0</ele><time>2026-04-12T07:30:35.249Z</time></trkpt><trkpt lat="43.7291418" lon="11.6012395"><ele>1126.0</ele><time>2026-04-12T07:30:37.212Z</time></trkpt><trkpt lat="43.7292031" lon="11.6012121"><ele>1126.0</ele><time>2026-04-12T07:30:39.241Z</time></trkpt><trkpt lat="43.7292685" lon="11.6012171"><ele>1126.0</ele><time>2026-04-12T07:30:42.183Z</time></trkpt><trkpt lat="43.7292959" lon="11.6011173"><ele>1126.0</ele><time>2026-04-12T07:30:48.222Z</time></trkpt><trkpt lat="43.7292707" lon="11.600994"><ele>1126.0</ele><time>2026-04-12T07:30:51.244Z</time></trkpt><trkpt lat="43.7292086" lon="11.6008946"><ele>1126.0</ele><time>2026-04-12T07:30:53.238Z</time></trkpt><trkpt lat="43.7291534" lon="11.6007328"><ele>1126.6666666666665</ele><time>2026-04-12T07:30:55.264Z</time></trkpt><trkpt lat="43.7291307" lon="11.6006465"><ele>1127.3333333333333</ele><time>2026-04-12T07:30:56.254Z</time></trkpt><trkpt lat="43.7291044" lon="11.600542"><ele>1128.0</ele><time>2026-04-12T07:30:57.272Z</time></trkpt><trkpt lat="43.729052" lon="11.6003311"><ele>1128.6666666666667</ele><time>2026-04-12T07:31:00.186Z</time></trkpt><trkpt lat="43.7290394" lon="11.6002418"><ele>1129.3333333333335</ele><time>2026-04-12T07:31:01.18Z</time></trkpt><trkpt lat="43.7290234" lon="11.6001407"><ele>1130.0</ele><time>2026-04-12T07:31:02.434Z</time></trkpt><trkpt lat="43.7289858" lon="11.5999847"><ele>1130.6</ele><time>2026-04-12T07:31:04.467Z</time></trkpt><trkpt lat="43.7289603" lon="11.5998383"><ele>1131.2</ele><time>2026-04-12T07:31:06.28Z</time></trkpt><trkpt lat="43.7289293" lon="11.5996736"><ele>1131.8</ele><time>2026-04-12T07:31:08.181Z</time></trkpt><trkpt lat="43.7289153" lon="11.5995213"><ele>1132.4</ele><time>2026-04-12T07:31:11.237Z</time></trkpt><trkpt lat="43.7288895" lon="11.5993966"><ele>1133.0</ele><time>2026-04-12T07:31:15.234Z</time></trkpt><trkpt lat="43.7288628" lon="11.5993127"><ele>1134.8</ele><time>2026-04-12T07:31:39.238Z</time></trkpt><trkpt lat="43.7288567" lon="11.599199"><ele>1136.6</ele><time>2026-04-12T07:32:16.202Z</time></trkpt><trkpt lat="43.7288911" lon="11.5990561"><ele>1138.4</ele><time>2026-04-12T07:32:22.181Z</time></trkpt><trkpt lat="43.7289566" lon="11.5990015"><ele>1140.2</ele><time>2026-04-12T07:32:24.24Z</time></trkpt><trkpt lat="43.7290433" lon="11.5989331"><ele>1142.0</ele><time>2026-04-12T07:32:26.205Z</time></trkpt><trkpt lat="43.7291292" lon="11.5988977"><ele>1142.0</ele><time>2026-04-12T07:32:28.176Z</time></trkpt><trkpt lat="43.7292177" lon="11.5989007"><ele>1142.0</ele><time>2026-04-12T07:32:30.186Z</time></trkpt><trkpt lat="43.7292835" lon="11.5989245"><ele>1142.0</ele><time>2026-04-12T07:32:32.257Z</time></trkpt><trkpt lat="43.7293539" lon="11.5989555"><ele>1142.0</ele><time>2026-04-12T07:32:34.23Z</time></trkpt><trkpt lat="43.7294518" lon="11.5989059"><ele>1142.0</ele><time>2026-04-12T07:32:37.415Z</time></trkpt><trkpt lat="43.7295157" lon="11.5988286"><ele>1142.0</ele><time>2026-04-12T07:32:39.276Z</time></trkpt><trkpt lat="43.729572" lon="11.5987617"><ele>1141.6666666666667</ele><time>2026-04-12T07:32:41.229Z</time></trkpt><trkpt lat="43.7296152" lon="11.5986949"><ele>1141.3333333333335</ele><time>2026-04-12T07:32:43.256Z</time></trkpt><trkpt lat="43.72964" lon="11.5986138"><ele>1141.0</ele><time>2026-04-12T07:32:45.191Z</time></trkpt><trkpt lat="43.7296578" lon="11.5985135"><ele>1140.6666666666667</ele><time>2026-04-12T07:32:47.275Z</time></trkpt><trkpt lat="43.7296853" lon="11.5984021"><ele>1140.3333333333333</ele><time>2026-04-12T07:32:49.223Z</time></trkpt><trkpt lat="43.7296962" lon="11.5982793"><ele>1140.0</ele><time>2026-04-12T07:32:51.272Z</time></trkpt><trkpt lat="43.7296385" lon="11.5981562"><ele>1142.7142857142858</ele><time>2026-04-12T07:32:53.254Z</time></trkpt><trkpt lat="43.7295991" lon="11.598083"><ele>1145.4285714285716</ele><time>2026-04-12T07:32:54.232Z</time></trkpt><trkpt lat="43.7295484" lon="11.5980004"><ele>1148.1428571428573</ele><time>2026-04-12T07:32:55.244Z</time></trkpt><trkpt lat="43.7295076" lon="11.5979258"><ele>1150.857142857143</ele><time>2026-04-12T07:32:56.24Z</time></trkpt><trkpt lat="43.7294747" lon="11.597851"><ele>1153.5714285714287</ele><time>2026-04-12T07:32:57.263Z</time></trkpt><trkpt lat="43.7294413" lon="11.5977745"><ele>1156.2857142857144</ele><time>2026-04-12T07:32:58.241Z</time></trkpt><trkpt lat="43.7293993" lon="11.5977023"><ele>1159.0</ele><time>2026-04-12T07:32:59.25Z</time></trkpt><trkpt lat="43.7293441" lon="11.5976247"><ele>1162.3333333333333</ele><time>2026-04-12T07:33:00.243Z</time></trkpt><trkpt lat="43.7292828" lon="11.5975347"><ele>1165.6666666666665</ele><time>2026-04-12T07:33:01.257Z</time></trkpt><trkpt lat="43.7292287" lon="11.597463"><ele>1169.0</ele><time>2026-04-12T07:33:02.255Z</time></trkpt><trkpt lat="43.7291752" lon="11.5974018"><ele>1172.3333333333333</ele><time>2026-04-12T07:33:03.247Z</time></trkpt><trkpt lat="43.7290835" lon="11.5973225"><ele>1175.6666666666667</ele><time>2026-04-12T07:33:05.25Z</time></trkpt><trkpt lat="43.7290417" lon="11.5972342"><ele>1179.0</ele><time>2026-04-12T07:33:07.21Z</time></trkpt><trkpt lat="43.7290228" lon="11.5971179"><ele>1182.6666666666667</ele><time>2026-04-12T07:33:09.226Z</time></trkpt><trkpt lat="43.7290343" lon="11.5969991"><ele>1186.3333333333333</ele><time>2026-04-12T07:33:11.222Z</time></trkpt><trkpt lat="43.7290929" lon="11.5968859"><ele>1190.0</ele><time>2026-04-12T07:33:13.224Z</time></trkpt><trkpt lat="43.7291527" lon="11.5968331"><ele>1193.6666666666665</ele><time>2026-04-12T07:33:14.231Z</time></trkpt><trkpt lat="43.7292237" lon="11.5967773"><ele>1197.3333333333333</ele><time>2026-04-12T07:33:15.231Z</time></trkpt><trkpt lat="43.7292831" lon="11.5967289"><ele>1201.0</ele><time>2026-04-12T07:33:16.217Z</time></trkpt><trkpt lat="43.7293676" lon="11.5966271"><ele>1201.3999999999999</ele><time>2026-04-12T07:33:18.278Z</time></trkpt><trkpt lat="43.7294637" lon="11.5965365"><ele>1201.8</ele><time>2026-04-12T07:33:20.26Z</time></trkpt><trkpt lat="43.7295361" lon="11.5964987"><ele>1202.1999999999998</ele><time>2026-04-12T07:33:21.264Z</time></trkpt><trkpt lat="43.7296005" lon="11.5964652"><ele>1202.6</ele><time>2026-04-12T07:33:22.446Z</time></trkpt><trkpt lat="43.7297219" lon="11.5963994"><ele>1203.0</ele><time>2026-04-12T07:33:24.23Z</time></trkpt><trkpt lat="43.7297995" lon="11.5963091"><ele>1203.0</ele><time>2026-04-12T07:33:26.172Z</time></trkpt><trkpt lat="43.7298666" lon="11.5962235"><ele>1203.0</ele><time>2026-04-12T07:33:28.47Z</time></trkpt><trkpt lat="43.7299294" lon="11.5961169"><ele>1203.0</ele><time>2026-04-12T07:33:30.284Z</time></trkpt><trkpt lat="43.72998" lon="11.5960407"><ele>1203.0</ele><time>2026-04-12T07:33:31.202Z</time></trkpt><trkpt lat="43.7300226" lon="11.5959576"><ele>1203.0</ele><time>2026-04-12T07:33:32.25Z</time></trkpt><trkpt lat="43.7301099" lon="11.5959754"><ele>1203.0</ele><time>2026-04-12T07:33:35.173Z</time></trkpt><trkpt lat="43.730161" lon="11.5960317"><ele>1201.75</ele><time>2026-04-12T07:33:36.241Z</time></trkpt><trkpt lat="43.7302699" lon="11.5960612"><ele>1200.5</ele><time>2026-04-12T07:33:38.375Z</time></trkpt><trkpt lat="43.7303948" lon="11.5960166"><ele>1199.25</ele><time>2026-04-12T07:33:40.313Z</time></trkpt><trkpt lat="43.7304261" lon="11.5961451"><ele>1198.0</ele><time>2026-04-12T07:33:46.234Z</time></trkpt><trkpt lat="43.7304197" lon="11.5963107"><ele>1198.0</ele><time>2026-04-12T07:33:48.266Z</time></trkpt><trkpt lat="43.7304307" lon="11.5964197"><ele>1198.0</ele><time>2026-04-12T07:33:49.474Z</time></trkpt><trkpt lat="43.7305095" lon="11.5965644"><ele>1198.0</ele><time>2026-04-12T07:33:51.193Z</time></trkpt><trkpt lat="43.7305716" lon="11.5966241"><ele>1198.0</ele><time>2026-04-12T07:33:52.215Z</time></trkpt><trkpt lat="43.7306774" lon="11.5966982"><ele>1198.0</ele><time>2026-04-12T07:33:54.257Z</time></trkpt><trkpt lat="43.7307515" lon="11.5967336"><ele>1198.0</ele><time>2026-04-12T07:33:55.252Z</time></trkpt><trkpt lat="43.7308332" lon="11.5967523"><ele>1198.0</ele><time>2026-04-12T07:33:56.253Z</time></trkpt><trkpt lat="43.7309313" lon="11.5967784"><ele>1198.0</ele><time>2026-04-12T07:33:57.22Z</time></trkpt><trkpt lat="43.7310318" lon="11.5968054"><ele>1198.0</ele><time>2026-04-12T07:33:58.329Z</time></trkpt><trkpt lat="43.7311277" lon="11.5968245"><ele>1198.0</ele><time>2026-04-12T07:33:59.264Z</time></trkpt><trkpt lat="43.731231" lon="11.5968178"><ele>1195.75</ele><time>2026-04-12T07:34:00.238Z</time></trkpt><trkpt lat="43.7313391" lon="11.5967764"><ele>1193.5</ele><time>2026-04-12T07:34:01.193Z</time></trkpt><trkpt lat="43.7314695" lon="11.5967224"><ele>1191.25</ele><time>2026-04-12T07:34:02.198Z</time></trkpt><trkpt lat="43.7315883" lon="11.5966659"><ele>1189.0</ele><time>2026-04-12T07:34:03.227Z</time></trkpt><trkpt lat="43.7317085" lon="11.5966187"><ele>1189.0</ele><time>2026-04-12T07:34:04.213Z</time></trkpt><trkpt lat="43.7318246" lon="11.5965906"><ele>1189.0</ele><time>2026-04-12T07:34:05.188Z</time></trkpt><trkpt lat="43.7319413" lon="11.5965624"><ele>1189.0</ele><time>2026-04-12T07:34:06.228Z</time></trkpt><trkpt lat="43.7320708" lon="11.596511"><ele>1189.0</ele><time>2026-04-12T07:34:07.247Z</time></trkpt><trkpt lat="43.7321944" lon="11.5964518"><ele>1186.0</ele><time>2026-04-12T07:34:08.236Z</time></trkpt><trkpt lat="43.7322958" lon="11.5963925"><ele>1183.0</ele><time>2026-04-12T07:34:09.235Z</time></trkpt><trkpt lat="43.7323966" lon="11.5963413"><ele>1180.0</ele><time>2026-04-12T07:34:10.222Z</time></trkpt><trkpt lat="43.7325003" lon="11.5962902"><ele>1177.0</ele><time>2026-04-12T07:34:11.223Z</time></trkpt><trkpt lat="43.7326017" lon="11.5962411"><ele>1174.0</ele><time>2026-04-12T07:34:12.208Z</time></trkpt><trkpt lat="43.7326872" lon="11.5961962"><ele>1174.2</ele><time>2026-04-12T07:34:13.206Z</time></trkpt><trkpt lat="43.7327554" lon="11.5961511"><ele>1174.4</ele><time>2026-04-12T07:34:14.186Z</time></trkpt><trkpt lat="43.7328224" lon="11.5961029"><ele>1174.6</ele><time>2026-04-12T07:34:15.314Z</time></trkpt><trkpt lat="43.7328899" lon="11.5960452"><ele>1174.8</ele><time>2026-04-12T07:34:16.229Z</time></trkpt><trkpt lat="43.732966" lon="11.595989"><ele>1175.0</ele><time>2026-04-12T07:34:17.481Z</time></trkpt><trkpt lat="43.7330927" lon="11.5958567"><ele>1175.0</ele><time>2026-04-12T07:34:19.487Z</time></trkpt><trkpt lat="43.7332361" lon="11.595662"><ele>1175.0</ele><time>2026-04-12T07:34:21.235Z</time></trkpt><trkpt lat="43.7332941" lon="11.5955654"><ele>1175.0</ele><time>2026-04-12T07:34:22.245Z</time></trkpt><trkpt lat="43.7333473" lon="11.5954795"><ele>1175.0</ele><time>2026-04-12T07:34:23.457Z</time></trkpt><trkpt lat="43.7334638" lon="11.595333"><ele>1177.0</ele><time>2026-04-12T07:34:25.47Z</time></trkpt><trkpt lat="43.7335865" lon="11.5952021"><ele>1179.0</ele><time>2026-04-12T07:34:27.453Z</time></trkpt><trkpt lat="43.7336881" lon="11.5951239"><ele>1181.0</ele><time>2026-04-12T07:34:29.255Z</time></trkpt><trkpt lat="43.7337681" lon="11.5950713"><ele>1183.0</ele><time>2026-04-12T07:34:30.262Z</time></trkpt><trkpt lat="43.7338448" lon="11.5949874"><ele>1183.0</ele><time>2026-04-12T07:34:31.191Z</time></trkpt><trkpt lat="43.7339106" lon="11.5949043"><ele>1183.0</ele><time>2026-04-12T07:34:32.224Z</time></trkpt><trkpt lat="43.7339642" lon="11.5948442"><ele>1183.0</ele><time>2026-04-12T07:34:33.225Z</time></trkpt><trkpt lat="43.7340181" lon="11.5947877"><ele>1183.0</ele><time>2026-04-12T07:34:34.271Z</time></trkpt><trkpt lat="43.7341108" lon="11.5947411"><ele>1183.0</ele><time>2026-04-12T07:34:36.273Z</time></trkpt><trkpt lat="43.734237" lon="11.59472"><ele>1183.0</ele><time>2026-04-12T07:34:38.266Z</time></trkpt><trkpt lat="43.734301" lon="11.5947135"><ele>1183.0</ele><time>2026-04-12T07:34:39.286Z</time></trkpt><trkpt lat="43.7343739" lon="11.5947048"><ele>1183.0</ele><time>2026-04-12T07:34:40.261Z</time></trkpt><trkpt lat="43.734442" lon="11.5947124"><ele>1183.0</ele><time>2026-04-12T07:34:41.198Z</time></trkpt><trkpt lat="43.7345186" lon="11.5947372"><ele>1183.0</ele><time>2026-04-12T07:34:42.199Z</time></trkpt><trkpt lat="43.7345855" lon="11.594752"><ele>1183.0</ele><time>2026-04-12T07:34:43.258Z</time></trkpt><trkpt lat="43.7346509" lon="11.5947642"><ele>1183.0</ele><time>2026-04-12T07:34:44.251Z</time></trkpt><trkpt lat="43.7347193" lon="11.5947582"><ele>1183.3333333333333</ele><time>2026-04-12T07:34:45.262Z</time></trkpt><trkpt lat="43.7347814" lon="11.5947401"><ele>1183.6666666666665</ele><time>2026-04-12T07:34:46.273Z</time></trkpt><trkpt lat="43.7348602" lon="11.5947089"><ele>1184.0</ele><time>2026-04-12T07:34:47.278Z</time></trkpt><trkpt lat="43.7349452" lon="11.5946758"><ele>1184.3333333333333</ele><time>2026-04-12T07:34:48.246Z</time></trkpt><trkpt lat="43.7350186" lon="11.5946354"><ele>1184.6666666666667</ele><time>2026-04-12T07:34:49.265Z</time></trkpt><trkpt lat="43.7350837" lon="11.5945819"><ele>1185.0</ele><time>2026-04-12T07:34:50.278Z</time></trkpt><trkpt lat="43.7351402" lon="11.5945306"><ele>1184.6666666666667</ele><time>2026-04-12T07:34:51.265Z</time></trkpt><trkpt lat="43.7351937" lon="11.5944787"><ele>1184.3333333333333</ele><time>2026-04-12T07:34:52.242Z</time></trkpt><trkpt lat="43.7352493" lon="11.59442"><ele>1184.0</ele><time>2026-04-12T07:34:53.265Z</time></trkpt><trkpt lat="43.7353068" lon="11.5943602"><ele>1183.6666666666665</ele><time>2026-04-12T07:34:54.28Z</time></trkpt><trkpt lat="43.735413" lon="11.5942729"><ele>1183.3333333333333</ele><time>2026-04-12T07:34:56.252Z</time></trkpt><trkpt lat="43.7354716" lon="11.5941775"><ele>1183.0</ele><time>2026-04-12T07:34:58.256Z</time></trkpt><trkpt lat="43.7355261" lon="11.5940609"><ele>1183.0</ele><time>2026-04-12T07:35:00.252Z</time></trkpt><trkpt lat="43.7355375" lon="11.5939696"><ele>1183.0</ele><time>2026-04-12T07:35:01.214Z</time></trkpt><trkpt lat="43.7355464" lon="11.5938785"><ele>1183.0</ele><time>2026-04-12T07:35:03.259Z</time></trkpt><trkpt lat="43.7355539" lon="11.5937843"><ele>1183.0</ele><time>2026-04-12T07:35:05.182Z</time></trkpt><trkpt lat="43.7356207" lon="11.5937101"><ele>1183.0</ele><time>2026-04-12T07:35:09.249Z</time></trkpt><trkpt lat="43.7356876" lon="11.5937773"><ele>1183.0</ele><time>2026-04-12T07:35:12.42Z</time></trkpt><trkpt lat="43.7357666" lon="11.5938345"><ele>1183.0</ele><time>2026-04-12T07:35:14.513Z</time></trkpt><trkpt lat="43.7358453" lon="11.5939076"><ele>1183.0</ele><time>2026-04-12T07:35:16.268Z</time></trkpt><trkpt lat="43.7359437" lon="11.5939943"><ele>1183.0</ele><time>2026-04-12T07:35:18.224Z</time></trkpt><trkpt lat="43.7360011" lon="11.5940429"><ele>1183.0</ele><time>2026-04-12T07:35:19.246Z</time></trkpt><trkpt lat="43.7361086" lon="11.5940668"><ele>1183.0</ele><time>2026-04-12T07:35:21.217Z</time></trkpt><trkpt lat="43.7361827" lon="11.5940386"><ele>1180.0</ele><time>2026-04-12T07:35:22.198Z</time></trkpt><trkpt lat="43.7362579" lon="11.5940179"><ele>1177.0</ele><time>2026-04-12T07:35:23.231Z</time></trkpt><trkpt lat="43.7363203" lon="11.5939927"><ele>1174.0</ele><time>2026-04-12T07:35:24.194Z</time></trkpt><trkpt lat="43.7363965" lon="11.5939366"><ele>1171.0</ele><time>2026-04-12T07:35:25.267Z</time></trkpt><trkpt lat="43.7364661" lon="11.5938996"><ele>1168.0</ele><time>2026-04-12T07:35:26.287Z</time></trkpt><trkpt lat="43.7365588" lon="11.59387"><ele>1165.0</ele><time>2026-04-12T07:35:28.256Z</time></trkpt><trkpt lat="43.7366123" lon="11.5939696"><ele>1165.0</ele><time>2026-04-12T07:35:31.245Z</time></trkpt><trkpt lat="43.7366313" lon="11.5940775"><ele>1165.0</ele><time>2026-04-12T07:35:33.225Z</time></trkpt><trkpt lat="43.7366554" lon="11.5942265"><ele>1165.0</ele><time>2026-04-12T07:35:35.222Z</time></trkpt><trkpt lat="43.7366569" lon="11.5943191"><ele>1165.0</ele><time>2026-04-12T07:35:36.228Z</time></trkpt><trkpt lat="43.7366542" lon="11.5944811"><ele>1165.0</ele><time>2026-04-12T07:35:38.272Z</time></trkpt><trkpt lat="43.7366408" lon="11.5946403"><ele>1163.8333333333333</ele><time>2026-04-12T07:35:40.275Z</time></trkpt><trkpt lat="43.7366655" lon="11.5947795"><ele>1162.6666666666665</ele><time>2026-04-12T07:35:42.252Z</time></trkpt><trkpt lat="43.736689" lon="11.5948664"><ele>1161.5</ele><time>2026-04-12T07:35:43.26Z</time></trkpt><trkpt lat="43.7367287" lon="11.5949592"><ele>1160.3333333333333</ele><time>2026-04-12T07:35:44.199Z</time></trkpt><trkpt lat="43.7367751" lon="11.5950533"><ele>1159.1666666666667</ele><time>2026-04-12T07:35:45.174Z</time></trkpt><trkpt lat="43.7368326" lon="11.5951171"><ele>1158.0</ele><time>2026-04-12T07:35:46.269Z</time></trkpt><trkpt lat="43.7368953" lon="11.5951607"><ele>1156.3333333333333</ele><time>2026-04-12T07:35:47.248Z</time></trkpt><trkpt lat="43.7369589" lon="11.5951853"><ele>1154.6666666666667</ele><time>2026-04-12T07:35:48.248Z</time></trkpt><trkpt lat="43.7370205" lon="11.5952243"><ele>1153.0</ele><time>2026-04-12T07:35:49.229Z</time></trkpt><trkpt lat="43.7371209" lon="11.595317"><ele>1151.3333333333335</ele><time>2026-04-12T07:35:51.28Z</time></trkpt><trkpt lat="43.7371785" lon="11.5953676"><ele>1149.6666666666667</ele><time>2026-04-12T07:35:52.27Z</time></trkpt><trkpt lat="43.7372489" lon="11.5954061"><ele>1148.0</ele><time>2026-04-12T07:35:53.277Z</time></trkpt><trkpt lat="43.7373121" lon="11.5954391"><ele>1145.1666666666667</ele><time>2026-04-12T07:35:54.261Z</time></trkpt><trkpt lat="43.7373655" lon="11.5954958"><ele>1142.3333333333335</ele><time>2026-04-12T07:35:55.284Z</time></trkpt><trkpt lat="43.7374305" lon="11.5955665"><ele>1139.5</ele><time>2026-04-12T07:35:56.262Z</time></trkpt><trkpt lat="43.7374998" lon="11.5956688"><ele>1136.6666666666667</ele><time>2026-04-12T07:35:57.274Z</time></trkpt><trkpt lat="43.7375653" lon="11.5957724"><ele>1133.8333333333333</ele><time>2026-04-12T07:35:58.256Z</time></trkpt><trkpt lat="43.7376234" lon="11.5958796"><ele>1131.0</ele><time>2026-04-12T07:35:59.255Z</time></trkpt><trkpt lat="43.7376671" lon="11.5959745"><ele>1131.0</ele><time>2026-04-12T07:36:00.277Z</time></trkpt><trkpt lat="43.7376971" lon="11.5960848"><ele>1131.0</ele><time>2026-04-12T07:36:01.273Z</time></trkpt><trkpt lat="43.737717" lon="11.5962085"><ele>1131.0</ele><time>2026-04-12T07:36:02.235Z</time></trkpt><trkpt lat="43.7377406" lon="11.5963367"><ele>1131.0</ele><time>2026-04-12T07:36:03.248Z</time></trkpt><trkpt lat="43.7377938" lon="11.5964624"><ele>1131.0</ele><time>2026-04-12T07:36:04.24Z</time></trkpt><trkpt lat="43.7378712" lon="11.5965625"><ele>1127.0</ele><time>2026-04-12T07:36:05.264Z</time></trkpt><trkpt lat="43.7379495" lon="11.5966509"><ele>1123.0</ele><time>2026-04-12T07:36:06.26Z</time></trkpt><trkpt lat="43.7380199" lon="11.5967458"><ele>1119.0</ele><time>2026-04-12T07:36:07.271Z</time></trkpt><trkpt lat="43.7380964" lon="11.5968584"><ele>1115.0</ele><time>2026-04-12T07:36:08.26Z</time></trkpt><trkpt lat="43.7381652" lon="11.5969666"><ele>1111.0</ele><time>2026-04-12T07:36:09.269Z</time></trkpt><trkpt lat="43.7382099" lon="11.597067"><ele>1107.8</ele><time>2026-04-12T07:36:10.263Z</time></trkpt><trkpt lat="43.738238" lon="11.597169"><ele>1104.6</ele><time>2026-04-12T07:36:11.263Z</time></trkpt><trkpt lat="43.7383241" lon="11.5972928"><ele>1101.4</ele><time>2026-04-12T07:36:13.263Z</time></trkpt><trkpt lat="43.7383806" lon="11.5973667"><ele>1098.2</ele><time>2026-04-12T07:36:14.211Z</time></trkpt><trkpt lat="43.7384499" lon="11.5974289"><ele>1095.0</ele><time>2026-04-12T07:36:15.186Z</time></trkpt><trkpt lat="43.738534" lon="11.5974917"><ele>1093.3333333333333</ele><time>2026-04-12T07:36:16.192Z</time></trkpt><trkpt lat="43.7386256" lon="11.5975496"><ele>1091.6666666666667</ele><time>2026-04-12T07:36:17.231Z</time></trkpt><trkpt lat="43.7387001" lon="11.5975907"><ele>1090.0</ele><time>2026-04-12T07:36:18.271Z</time></trkpt><trkpt lat="43.7387618" lon="11.597638"><ele>1088.3333333333335</ele><time>2026-04-12T07:36:19.262Z</time></trkpt><trkpt lat="43.7388291" lon="11.5977067"><ele>1086.6666666666667</ele><time>2026-04-12T07:36:20.257Z</time></trkpt><trkpt lat="43.738912" lon="11.59779"><ele>1085.0</ele><time>2026-04-12T07:36:21.268Z</time></trkpt><trkpt lat="43.7389922" lon="11.5978597"><ele>1083.1666666666667</ele><time>2026-04-12T07:36:22.267Z</time></trkpt><trkpt lat="43.739083" lon="11.5979045"><ele>1081.3333333333335</ele><time>2026-04-12T07:36:23.265Z</time></trkpt><trkpt lat="43.7391573" lon="11.5979478"><ele>1079.5</ele><time>2026-04-12T07:36:24.265Z</time></trkpt><trkpt lat="43.7392189" lon="11.5980028"><ele>1077.6666666666667</ele><time>2026-04-12T07:36:25.253Z</time></trkpt><trkpt lat="43.7392664" lon="11.5980776"><ele>1075.8333333333333</ele><time>2026-04-12T07:36:26.209Z</time></trkpt><trkpt lat="43.739321" lon="11.5981585"><ele>1074.0</ele><time>2026-04-12T07:36:27.273Z</time></trkpt><trkpt lat="43.7393832" lon="11.5982413"><ele>1071.0</ele><time>2026-04-12T07:36:28.272Z</time></trkpt><trkpt lat="43.7394504" lon="11.5982786"><ele>1068.0</ele><time>2026-04-12T07:36:29.267Z</time></trkpt><trkpt lat="43.7395305" lon="11.5982629"><ele>1065.0</ele><time>2026-04-12T07:36:30.264Z</time></trkpt><trkpt lat="43.7396158" lon="11.5982445"><ele>1062.0</ele><time>2026-04-12T07:36:31.241Z</time></trkpt><trkpt lat="43.7396884" lon="11.5982419"><ele>1059.0</ele><time>2026-04-12T07:36:32.245Z</time></trkpt><trkpt lat="43.7397701" lon="11.5982579"><ele>1056.0</ele><time>2026-04-12T07:36:33.26Z</time></trkpt><trkpt lat="43.7398537" lon="11.5982621"><ele>1056.0</ele><time>2026-04-12T07:36:34.248Z</time></trkpt><trkpt lat="43.7399283" lon="11.5982209"><ele>1056.0</ele><time>2026-04-12T07:36:35.245Z</time></trkpt><trkpt lat="43.7400038" lon="11.5981493"><ele>1056.0</ele><time>2026-04-12T07:36:36.217Z</time></trkpt><trkpt lat="43.740074" lon="11.5980609"><ele>1056.0</ele><time>2026-04-12T07:36:37.239Z</time></trkpt><trkpt lat="43.7401637" lon="11.5979744"><ele>1056.0</ele><time>2026-04-12T07:36:38.262Z</time></trkpt><trkpt lat="43.7402259" lon="11.5978783"><ele>1049.2</ele><time>2026-04-12T07:36:39.255Z</time></trkpt><trkpt lat="43.7402585" lon="11.5977732"><ele>1042.3999999999999</ele><time>2026-04-12T07:36:40.295Z</time></trkpt><trkpt lat="43.7403176" lon="11.5976399"><ele>1035.6</ele><time>2026-04-12T07:36:42.258Z</time></trkpt><trkpt lat="43.7404084" lon="11.5975923"><ele>1028.8</ele><time>2026-04-12T07:36:44.217Z</time></trkpt><trkpt lat="43.7404128" lon="11.5977448"><ele>1022.0</ele><time>2026-04-12T07:36:47.213Z</time></trkpt><trkpt lat="43.7403724" lon="11.5978857"><ele>1022.0</ele><time>2026-04-12T07:36:49.247Z</time></trkpt><trkpt lat="43.7404124" lon="11.5981358"><ele>1022.0</ele><time>2026-04-12T07:36:52.442Z</time></trkpt><trkpt lat="43.7404923" lon="11.5982209"><ele>1022.0</ele><time>2026-04-12T07:36:54.456Z</time></trkpt><trkpt lat="43.740596" lon="11.598214"><ele>1022.0</ele><time>2026-04-12T07:36:56.25Z</time></trkpt><trkpt lat="43.7406705" lon="11.5981833"><ele>1022.0000000000001</ele><time>2026-04-12T07:36:57.235Z</time></trkpt><trkpt lat="43.7407422" lon="11.5981481"><ele>1022.0</ele><time>2026-04-12T07:36:58.433Z</time></trkpt><trkpt lat="43.7408154" lon="11.5981605"><ele>1022.0</ele><time>2026-04-12T07:37:00.304Z</time></trkpt><trkpt lat="43.7408261" lon="11.5982782"><ele>1022.0</ele><time>2026-04-12T07:37:03.25Z</time></trkpt><trkpt lat="43.7408555" lon="11.5984086"><ele>1022.0000000000001</ele><time>2026-04-12T07:37:05.26Z</time></trkpt><trkpt lat="43.7408764" lon="11.5984956"><ele>1022.0</ele><time>2026-04-12T07:37:06.257Z</time></trkpt><trkpt lat="43.7408814" lon="11.5985868"><ele>1018.0</ele><time>2026-04-12T07:37:07.226Z</time></trkpt><trkpt lat="43.7408589" lon="11.5986828"><ele>1014.0</ele><time>2026-04-12T07:37:08.475Z</time></trkpt><trkpt lat="43.7408089" lon="11.5989189"><ele>1010.0</ele><time>2026-04-12T07:37:10.435Z</time></trkpt><trkpt lat="43.7408019" lon="11.5992068"><ele>1010.0000000000001</ele><time>2026-04-12T07:37:12.227Z</time></trkpt><trkpt lat="43.7408099" lon="11.5993307"><ele>1010.0</ele><time>2026-04-12T07:37:13.262Z</time></trkpt><trkpt lat="43.7408269" lon="11.599436"><ele>1010.0</ele><time>2026-04-12T07:37:14.248Z</time></trkpt><trkpt lat="43.7408546" lon="11.599531"><ele>1010.0</ele><time>2026-04-12T07:37:15.234Z</time></trkpt><trkpt lat="43.7408881" lon="11.5996074"><ele>1010.0000000000001</ele><time>2026-04-12T07:37:16.234Z</time></trkpt><trkpt lat="43.7409149" lon="11.5997197"><ele>1010.0</ele><time>2026-04-12T07:37:18.265Z</time></trkpt><trkpt lat="43.740914" lon="11.5996044"><ele>1010.0</ele><time>2026-04-12T07:37:27.181Z</time></trkpt><trkpt lat="43.7409435" lon="11.5994863"><ele>1010.0</ele><time>2026-04-12T07:37:29.173Z</time></trkpt><trkpt lat="43.7409619" lon="11.5993822"><ele>1010.0</ele><time>2026-04-12T07:37:30.407Z</time></trkpt><trkpt lat="43.7410286" lon="11.5991785"><ele>1010.0</ele><time>2026-04-12T07:37:32.481Z</time></trkpt><trkpt lat="43.7410933" lon="11.5990226"><ele>1007.5000000000001</ele><time>2026-04-12T07:37:34.487Z</time></trkpt><trkpt lat="43.7411494" lon="11.5989112"><ele>1005.0</ele><time>2026-04-12T07:37:36.193Z</time></trkpt><trkpt lat="43.7412023" lon="11.5988115"><ele>1002.5</ele><time>2026-04-12T07:37:38.44Z</time></trkpt><trkpt lat="43.741216" lon="11.5987085"><ele>1000.0</ele><time>2026-04-12T07:37:43.243Z</time></trkpt><trkpt lat="43.7412109" lon="11.5985895"><ele>997.5000000000001</ele><time>2026-04-12T07:37:46.249Z</time></trkpt><trkpt lat="43.741207" lon="11.5984981"><ele>995.0</ele><time>2026-04-12T07:37:47.229Z</time></trkpt><trkpt lat="43.741194" lon="11.5983443"><ele>995.0000000000001</ele><time>2026-04-12T07:37:49.285Z</time></trkpt><trkpt lat="43.7411901" lon="11.5982496"><ele>995.0</ele><time>2026-04-12T07:37:50.267Z</time></trkpt><trkpt lat="43.7411903" lon="11.5981454"><ele>995.0</ele><time>2026-04-12T07:37:51.27Z</time></trkpt><trkpt lat="43.7411837" lon="11.5979957"><ele>995.0</ele><time>2026-04-12T07:37:53.255Z</time></trkpt><trkpt lat="43.7411728" lon="11.5979046"><ele>995.0000000000001</ele><time>2026-04-12T07:37:55.267Z</time></trkpt><trkpt lat="43.7412145" lon="11.597817"><ele>995.0</ele><time>2026-04-12T07:38:01.252Z</time></trkpt><trkpt lat="43.7411891" lon="11.5977328"><ele>995.0</ele><time>2026-04-12T07:38:05.236Z</time></trkpt><trkpt lat="43.7412091" lon="11.5978257"><ele>995.0</ele><time>2026-04-12T07:38:12.266Z</time></trkpt><trkpt lat="43.7411912" lon="11.5979569"><ele>995.0</ele><time>2026-04-12T07:38:15.271Z</time></trkpt><trkpt lat="43.7411749" lon="11.5981026"><ele>995.0</ele><time>2026-04-12T07:38:17.264Z</time></trkpt><trkpt lat="43.7411784" lon="11.5983388"><ele>995.0</ele><time>2026-04-12T07:38:20.444Z</time></trkpt><trkpt lat="43.7412009" lon="11.5984625"><ele>995.0000000000001</ele><time>2026-04-12T07:38:22.194Z</time></trkpt><trkpt lat="43.7411856" lon="11.5985761"><ele>995.0</ele><time>2026-04-12T07:38:24.251Z</time></trkpt><trkpt lat="43.7411665" lon="11.5986862"><ele>995.0</ele><time>2026-04-12T07:38:27.459Z</time></trkpt><trkpt lat="43.741128" lon="11.5988253"><ele>995.0</ele><time>2026-04-12T07:38:35.191Z</time></trkpt><trkpt lat="43.7411029" lon="11.5989276"><ele>995.0000000000001</ele><time>2026-04-12T07:38:37.263Z</time></trkpt><trkpt lat="43.7410922" lon="11.5990342"><ele>995.0</ele><time>2026-04-12T07:38:38.238Z</time></trkpt><trkpt lat="43.7410899" lon="11.5991532"><ele>995.3333333333334</ele><time>2026-04-12T07:38:39.277Z</time></trkpt><trkpt lat="43.7410762" lon="11.5992417"><ele>995.6666666666667</ele><time>2026-04-12T07:38:40.436Z</time></trkpt><trkpt lat="43.7410356" lon="11.5993914"><ele>996.0</ele><time>2026-04-12T07:38:42.272Z</time></trkpt><trkpt lat="43.7409949" lon="11.5995084"><ele>996.3333333333333</ele><time>2026-04-12T07:38:45.178Z</time></trkpt><trkpt lat="43.7409835" lon="11.5995986"><ele>996.6666666666666</ele><time>2026-04-12T07:38:47.264Z</time></trkpt><trkpt lat="43.7409943" lon="11.5997072"><ele>997.0</ele><time>2026-04-12T07:38:50.32Z</time></trkpt><trkpt lat="43.7409954" lon="11.5998026"><ele>997.0</ele><time>2026-04-12T07:38:54.28Z</time></trkpt><trkpt lat="43.740922" lon="11.5998351"><ele>997.0</ele><time>2026-04-12T07:40:40.451Z</time></trkpt><trkpt lat="43.7408108" lon="11.5999352"><ele>997.0</ele><time>2026-04-12T07:40:44.506Z</time></trkpt><trkpt lat="43.7407239" lon="11.6000035"><ele>997.0</ele><time>2026-04-12T07:40:46.275Z</time></trkpt><trkpt lat="43.7406659" lon="11.6000672"><ele>997.0</ele><time>2026-04-12T07:40:47.274Z</time></trkpt><trkpt lat="43.7406038" lon="11.6001445"><ele>997.0</ele><time>2026-04-12T07:40:48.31Z</time></trkpt><trkpt lat="43.7405421" lon="11.6002377"><ele>997.0</ele><time>2026-04-12T07:40:49.239Z</time></trkpt><trkpt lat="43.7404936" lon="11.6003347"><ele>997.0</ele><time>2026-04-12T07:40:50.228Z</time></trkpt><trkpt lat="43.7404544" lon="11.6004485"><ele>997.0</ele><time>2026-04-12T07:40:51.19Z</time></trkpt><trkpt lat="43.7404225" lon="11.600563"><ele>997.0</ele><time>2026-04-12T07:40:52.332Z</time></trkpt><trkpt lat="43.7403795" lon="11.6006931"><ele>994.75</ele><time>2026-04-12T07:40:53.272Z</time></trkpt><trkpt lat="43.7403205" lon="11.6008476"><ele>992.5</ele><time>2026-04-12T07:40:54.261Z</time></trkpt><trkpt lat="43.7402714" lon="11.6010076"><ele>990.25</ele><time>2026-04-12T07:40:55.187Z</time></trkpt><trkpt lat="43.7402111" lon="11.6011541"><ele>988.0</ele><time>2026-04-12T07:40:56.192Z</time></trkpt><trkpt lat="43.7401554" lon="11.6013022"><ele>984.25</ele><time>2026-04-12T07:40:57.195Z</time></trkpt><trkpt lat="43.7401003" lon="11.6014493"><ele>980.5</ele><time>2026-04-12T07:40:58.209Z</time></trkpt><trkpt lat="43.7400362" lon="11.6015983"><ele>976.75</ele><time>2026-04-12T07:40:59.191Z</time></trkpt><trkpt lat="43.7399505" lon="11.6017319"><ele>973.0</ele><time>2026-04-12T07:41:00.183Z</time></trkpt><trkpt lat="43.7398723" lon="11.6018574"><ele>973.0</ele><time>2026-04-12T07:41:01.202Z</time></trkpt><trkpt lat="43.739804" lon="11.6019692"><ele>973.0</ele><time>2026-04-12T07:41:02.181Z</time></trkpt><trkpt lat="43.7397602" lon="11.6020968"><ele>973.0</ele><time>2026-04-12T07:41:03.338Z</time></trkpt><trkpt lat="43.7397037" lon="11.6023532"><ele>973.0</ele><time>2026-04-12T07:41:05.182Z</time></trkpt><trkpt lat="43.7396821" lon="11.6024638"><ele>971.0</ele><time>2026-04-12T07:41:06.193Z</time></trkpt><trkpt lat="43.7396756" lon="11.602558"><ele>969.0</ele><time>2026-04-12T07:41:07.244Z</time></trkpt><trkpt lat="43.7397276" lon="11.6026726"><ele>967.0</ele><time>2026-04-12T07:41:09.229Z</time></trkpt><trkpt lat="43.7398232" lon="11.6026273"><ele>965.0</ele><time>2026-04-12T07:41:11.174Z</time></trkpt><trkpt lat="43.7398758" lon="11.6025356"><ele>963.0</ele><time>2026-04-12T07:41:12.181Z</time></trkpt><trkpt lat="43.739954" lon="11.6024517"><ele>963.0</ele><time>2026-04-12T07:41:14.19Z</time></trkpt><trkpt lat="43.7400106" lon="11.6023884"><ele>963.0</ele><time>2026-04-12T07:41:17.164Z</time></trkpt><trkpt lat="43.7400638" lon="11.6023409"><ele>963.0</ele><time>2026-04-12T07:41:22.226Z</time></trkpt><trkpt lat="43.740192" lon="11.6023089"><ele>963.0</ele><time>2026-04-12T07:41:44.463Z</time></trkpt><trkpt lat="43.7402594" lon="11.6023201"><ele>963.0</ele><time>2026-04-12T07:41:48.248Z</time></trkpt><trkpt lat="43.7403038" lon="11.6023888"><ele>963.0</ele><time>2026-04-12T07:41:50.5Z</time></trkpt><trkpt lat="43.7403841" lon="11.6024969"><ele>960.75</ele><time>2026-04-12T07:41:52.228Z</time></trkpt><trkpt lat="43.7405634" lon="11.6025366"><ele>958.5</ele><time>2026-04-12T07:41:55.201Z</time></trkpt><trkpt lat="43.7406729" lon="11.6025382"><ele>956.25</ele><time>2026-04-12T07:41:57.199Z</time></trkpt><trkpt lat="43.7407925" lon="11.6025394"><ele>954.0</ele><time>2026-04-12T07:41:59.306Z</time></trkpt><trkpt lat="43.7409126" lon="11.6025035"><ele>954.0</ele><time>2026-04-12T07:42:01.184Z</time></trkpt><trkpt lat="43.7409799" lon="11.6024556"><ele>954.0000000000001</ele><time>2026-04-12T07:42:02.254Z</time></trkpt><trkpt lat="43.7410177" lon="11.6023628"><ele>954.0000000000001</ele><time>2026-04-12T07:42:03.228Z</time></trkpt><trkpt lat="43.7410286" lon="11.6022192"><ele>954.0</ele><time>2026-04-12T07:42:04.221Z</time></trkpt><trkpt lat="43.7410325" lon="11.6020953"><ele>954.0</ele><time>2026-04-12T07:42:05.245Z</time></trkpt><trkpt lat="43.7410693" lon="11.6019529"><ele>955.2</ele><time>2026-04-12T07:42:07.244Z</time></trkpt><trkpt lat="43.7411459" lon="11.6019307"><ele>956.4000000000001</ele><time>2026-04-12T07:42:10.229Z</time></trkpt><trkpt lat="43.7412357" lon="11.601975"><ele>957.6</ele><time>2026-04-12T07:42:12.225Z</time></trkpt><trkpt lat="43.7412826" lon="11.6020774"><ele>958.8</ele><time>2026-04-12T07:42:14.448Z</time></trkpt><trkpt lat="43.7412976" lon="11.6022781"><ele>960.0</ele><time>2026-04-12T07:42:16.259Z</time></trkpt><trkpt lat="43.7413133" lon="11.6023653"><ele>960.0</ele><time>2026-04-12T07:42:17.234Z</time></trkpt><trkpt lat="43.7413418" lon="11.6024865"><ele>960.0</ele><time>2026-04-12T07:42:19.27Z</time></trkpt><trkpt lat="43.7414011" lon="11.6025719"><ele>960.0</ele><time>2026-04-12T07:42:21.249Z</time></trkpt><trkpt lat="43.7414961" lon="11.6026336"><ele>960.0</ele><time>2026-04-12T07:42:23.438Z</time></trkpt><trkpt lat="43.7415734" lon="11.6026259"><ele>960.0</ele><time>2026-04-12T07:42:25.257Z</time></trkpt><trkpt lat="43.7416629" lon="11.6026367"><ele>960.0</ele><time>2026-04-12T07:42:27.269Z</time></trkpt><trkpt lat="43.7417556" lon="11.6026929"><ele>960.0</ele><time>2026-04-12T07:42:29.279Z</time></trkpt><trkpt lat="43.7417354" lon="11.6027937"><ele>960.0</ele><time>2026-04-12T07:42:32.255Z</time></trkpt><trkpt lat="43.7417404" lon="11.6028971"><ele>960.0</ele><time>2026-04-12T07:42:34.437Z</time></trkpt><trkpt lat="43.7417807" lon="11.6030266"><ele>960.0</ele><time>2026-04-12T07:42:36.254Z</time></trkpt><trkpt lat="43.7418019" lon="11.6031938"><ele>958.8333333333334</ele><time>2026-04-12T07:42:38.264Z</time></trkpt><trkpt lat="43.7418106" lon="11.6033008"><ele>957.6666666666667</ele><time>2026-04-12T07:42:39.181Z</time></trkpt><trkpt lat="43.7418105" lon="11.6034097"><ele>956.5</ele><time>2026-04-12T07:42:40.25Z</time></trkpt><trkpt lat="43.7418813" lon="11.603537"><ele>955.3333333333334</ele><time>2026-04-12T07:42:42.116Z</time></trkpt><trkpt lat="43.7419405" lon="11.603599"><ele>954.1666666666667</ele><time>2026-04-12T07:42:43.375Z</time></trkpt><trkpt lat="43.7420016" lon="11.6036624"><ele>953.0</ele><time>2026-04-12T07:42:44.479Z</time></trkpt><trkpt lat="43.7420644" lon="11.6037305"><ele>956.0</ele><time>2026-04-12T07:42:45.603Z</time></trkpt><trkpt lat="43.7421235" lon="11.6038085"><ele>959.0</ele><time>2026-04-12T07:42:46.703Z</time></trkpt><trkpt lat="43.7421788" lon="11.6039221"><ele>962.0</ele><time>2026-04-12T07:42:48.059Z</time></trkpt><trkpt lat="43.7421836" lon="11.6040672"><ele>965.0</ele><time>2026-04-12T07:42:49.22Z</time></trkpt><trkpt lat="43.7421757" lon="11.6042014"><ele>968.0</ele><time>2026-04-12T07:42:50.214Z</time></trkpt><trkpt lat="43.7421748" lon="11.6043453"><ele>968.0</ele><time>2026-04-12T07:42:51.261Z</time></trkpt><trkpt lat="43.7421886" lon="11.604486"><ele>968.0</ele><time>2026-04-12T07:42:52.283Z</time></trkpt><trkpt lat="43.7422121" lon="11.6046386"><ele>968.0</ele><time>2026-04-12T07:42:53.474Z</time></trkpt><trkpt lat="43.7422864" lon="11.6049295"><ele>968.0</ele><time>2026-04-12T07:42:55.21Z</time></trkpt><trkpt lat="43.7423478" lon="11.6050761"><ele>964.25</ele><time>2026-04-12T07:42:56.199Z</time></trkpt><trkpt lat="43.7424157" lon="11.6052229"><ele>960.5</ele><time>2026-04-12T07:42:57.196Z</time></trkpt><trkpt lat="43.7424884" lon="11.6053801"><ele>956.75</ele><time>2026-04-12T07:42:58.195Z</time></trkpt><trkpt lat="43.74256" lon="11.6055347"><ele>953.0</ele><time>2026-04-12T07:42:59.19Z</time></trkpt><trkpt lat="43.7426265" lon="11.6056945"><ele>953.5</ele><time>2026-04-12T07:43:00.437Z</time></trkpt><trkpt lat="43.7427248" lon="11.6059496"><ele>954.0</ele><time>2026-04-12T07:43:02.252Z</time></trkpt><trkpt lat="43.7427525" lon="11.6060957"><ele>954.5</ele><time>2026-04-12T07:43:03.264Z</time></trkpt><trkpt lat="43.7427536" lon="11.6062668"><ele>955.0</ele><time>2026-04-12T07:43:04.258Z</time></trkpt><trkpt lat="43.7427497" lon="11.6064388"><ele>955.0</ele><time>2026-04-12T07:43:05.199Z</time></trkpt><trkpt lat="43.7427488" lon="11.606599"><ele>955.0</ele><time>2026-04-12T07:43:06.257Z</time></trkpt><trkpt lat="43.7427522" lon="11.6067045"><ele>955.0</ele><time>2026-04-12T07:43:07.268Z</time></trkpt><trkpt lat="43.7427779" lon="11.6067935"><ele>955.0</ele><time>2026-04-12T07:43:08.513Z</time></trkpt><trkpt lat="43.7428352" lon="11.6069359"><ele>955.0</ele><time>2026-04-12T07:43:10.508Z</time></trkpt><trkpt lat="43.7429021" lon="11.6070495"><ele>955.4</ele><time>2026-04-12T07:43:12.27Z</time></trkpt><trkpt lat="43.7429834" lon="11.6071291"><ele>955.8</ele><time>2026-04-12T07:43:14.275Z</time></trkpt><trkpt lat="43.7430708" lon="11.6072061"><ele>956.2</ele><time>2026-04-12T07:43:16.239Z</time></trkpt><trkpt lat="43.7431007" lon="11.6072992"><ele>956.6</ele><time>2026-04-12T07:43:18.259Z</time></trkpt><trkpt lat="43.7430045" lon="11.6074701"><ele>957.0</ele><time>2026-04-12T07:43:21.237Z</time></trkpt><trkpt lat="43.7429687" lon="11.6075523"><ele>957.0</ele><time>2026-04-12T07:43:22.258Z</time></trkpt><trkpt lat="43.7429448" lon="11.6076494"><ele>957.0</ele><time>2026-04-12T07:43:23.258Z</time></trkpt><trkpt lat="43.7429305" lon="11.6077395"><ele>957.0</ele><time>2026-04-12T07:43:24.235Z</time></trkpt><trkpt lat="43.7429147" lon="11.6078263"><ele>957.0</ele><time>2026-04-12T07:43:25.468Z</time></trkpt><trkpt lat="43.7428736" lon="11.607977"><ele>957.0</ele><time>2026-04-12T07:43:27.535Z</time></trkpt><trkpt lat="43.7428348" lon="11.608152"><ele>959.1428571428572</ele><time>2026-04-12T07:43:29.287Z</time></trkpt><trkpt lat="43.7428268" lon="11.6082567"><ele>961.2857142857144</ele><time>2026-04-12T07:43:30.266Z</time></trkpt><trkpt lat="43.74282" lon="11.6083612"><ele>963.4285714285714</ele><time>2026-04-12T07:43:31.28Z</time></trkpt><trkpt lat="43.7428105" lon="11.6084578"><ele>965.5714285714287</ele><time>2026-04-12T07:43:32.264Z</time></trkpt><trkpt lat="43.7428022" lon="11.6085529"><ele>967.7142857142858</ele><time>2026-04-12T07:43:33.293Z</time></trkpt><trkpt lat="43.7428064" lon="11.6086514"><ele>969.8571428571429</ele><time>2026-04-12T07:43:34.258Z</time></trkpt><trkpt lat="43.7428159" lon="11.6087546"><ele>972.0</ele><time>2026-04-12T07:43:35.216Z</time></trkpt><trkpt lat="43.7428288" lon="11.6088604"><ele>972.0</ele><time>2026-04-12T07:43:36.259Z</time></trkpt><trkpt lat="43.74288" lon="11.6090094"><ele>972.0</ele><time>2026-04-12T07:43:38.258Z</time></trkpt><trkpt lat="43.742952" lon="11.6091466"><ele>972.0</ele><time>2026-04-12T07:43:40.274Z</time></trkpt><trkpt lat="43.7429924" lon="11.6092243"><ele>972.0</ele><time>2026-04-12T07:43:41.244Z</time></trkpt><trkpt lat="43.7430392" lon="11.609306"><ele>972.0</ele><time>2026-04-12T07:43:42.258Z</time></trkpt><trkpt lat="43.7430818" lon="11.6093763"><ele>971.4000000000001</ele><time>2026-04-12T07:43:43.264Z</time></trkpt><trkpt lat="43.743125" lon="11.6095056"><ele>970.8000000000001</ele><time>2026-04-12T07:43:45.274Z</time></trkpt><trkpt lat="43.743082" lon="11.609653"><ele>970.2</ele><time>2026-04-12T07:43:47.238Z</time></trkpt><trkpt lat="43.7430326" lon="11.6097639"><ele>969.6</ele><time>2026-04-12T07:43:48.237Z</time></trkpt><trkpt lat="43.7429791" lon="11.6098963"><ele>969.0</ele><time>2026-04-12T07:43:49.242Z</time></trkpt><trkpt lat="43.7429315" lon="11.6100444"><ele>969.0</ele><time>2026-04-12T07:43:50.237Z</time></trkpt><trkpt lat="43.7428831" lon="11.610213"><ele>969.0</ele><time>2026-04-12T07:43:51.257Z</time></trkpt><trkpt lat="43.742835" lon="11.6104013"><ele>969.0</ele><time>2026-04-12T07:43:52.468Z</time></trkpt><trkpt lat="43.7427359" lon="11.6107456"><ele>963.0</ele><time>2026-04-12T07:43:54.263Z</time></trkpt><trkpt lat="43.7426986" lon="11.6109153"><ele>957.0</ele><time>2026-04-12T07:43:55.242Z</time></trkpt><trkpt lat="43.7426657" lon="11.6110774"><ele>951.0</ele><time>2026-04-12T07:43:56.257Z</time></trkpt><trkpt lat="43.7426365" lon="11.6112271"><ele>945.0</ele><time>2026-04-12T07:43:57.2Z</time></trkpt><trkpt lat="43.7426132" lon="11.6113838"><ele>945.0</ele><time>2026-04-12T07:43:58.233Z</time></trkpt><trkpt lat="43.7425947" lon="11.611554"><ele>945.0</ele><time>2026-04-12T07:43:59.464Z</time></trkpt><trkpt lat="43.7425805" lon="11.6118326"><ele>945.0</ele><time>2026-04-12T07:44:01.2Z</time></trkpt><trkpt lat="43.7425578" lon="11.6119469"><ele>945.0</ele><time>2026-04-12T07:44:02.188Z</time></trkpt><trkpt lat="43.7425315" lon="11.612052"><ele>944.8333333333334</ele><time>2026-04-12T07:44:03.208Z</time></trkpt><trkpt lat="43.7425052" lon="11.6121605"><ele>944.6666666666667</ele><time>2026-04-12T07:44:04.27Z</time></trkpt><trkpt lat="43.7424878" lon="11.6122673"><ele>944.5</ele><time>2026-04-12T07:44:05.257Z</time></trkpt><trkpt lat="43.7424847" lon="11.6123831"><ele>944.3333333333334</ele><time>2026-04-12T07:44:06.256Z</time></trkpt><trkpt lat="43.7424912" lon="11.6125006"><ele>944.1666666666667</ele><time>2026-04-12T07:44:07.231Z</time></trkpt><trkpt lat="43.7425009" lon="11.6126202"><ele>944.0</ele><time>2026-04-12T07:44:08.463Z</time></trkpt><trkpt lat="43.7425385" lon="11.6128065"><ele>945.6</ele><time>2026-04-12T07:44:10.208Z</time></trkpt><trkpt lat="43.7425714" lon="11.6129158"><ele>947.2</ele><time>2026-04-12T07:44:11.26Z</time></trkpt><trkpt lat="43.7426258" lon="11.6130148"><ele>948.8000000000001</ele><time>2026-04-12T07:44:12.272Z</time></trkpt><trkpt lat="43.742693" lon="11.6131169"><ele>950.4000000000001</ele><time>2026-04-12T07:44:13.255Z</time></trkpt><trkpt lat="43.7427677" lon="11.6132167"><ele>952.0</ele><time>2026-04-12T07:44:14.282Z</time></trkpt><trkpt lat="43.7428543" lon="11.6133159"><ele>952.0</ele><time>2026-04-12T07:44:15.274Z</time></trkpt><trkpt lat="43.7429613" lon="11.6134031"><ele>952.0</ele><time>2026-04-12T07:44:16.252Z</time></trkpt><trkpt lat="43.7430886" lon="11.6134796"><ele>952.0</ele><time>2026-04-12T07:44:17.46Z</time></trkpt><trkpt lat="43.7433354" lon="11.6135997"><ele>952.0</ele><time>2026-04-12T07:44:19.287Z</time></trkpt><trkpt lat="43.7434567" lon="11.6136644"><ele>952.0</ele><time>2026-04-12T07:44:20.268Z</time></trkpt><trkpt lat="43.7435728" lon="11.6137431"><ele>952.0</ele><time>2026-04-12T07:44:21.267Z</time></trkpt><trkpt lat="43.7436811" lon="11.6138355"><ele>952.0</ele><time>2026-04-12T07:44:22.261Z</time></trkpt><trkpt lat="43.7437794" lon="11.6139385"><ele>952.0</ele><time>2026-04-12T07:44:23.246Z</time></trkpt><trkpt lat="43.7438744" lon="11.6140447"><ele>952.0</ele><time>2026-04-12T07:44:24.258Z</time></trkpt><trkpt lat="43.7439571" lon="11.6141601"><ele>952.0</ele><time>2026-04-12T07:44:25.238Z</time></trkpt><trkpt lat="43.7440324" lon="11.6142913"><ele>952.0</ele><time>2026-04-12T07:44:26.251Z</time></trkpt><trkpt lat="43.7440937" lon="11.6144339"><ele>948.5</ele><time>2026-04-12T07:44:27.261Z</time></trkpt><trkpt lat="43.7441469" lon="11.6145807"><ele>945.0</ele><time>2026-04-12T07:44:28.219Z</time></trkpt><trkpt lat="43.7442" lon="11.6147353"><ele>941.5</ele><time>2026-04-12T07:44:29.229Z</time></trkpt><trkpt lat="43.7442454" lon="11.6148935"><ele>938.0</ele><time>2026-04-12T07:44:30.257Z</time></trkpt><trkpt lat="43.7442563" lon="11.6150547"><ele>938.0</ele><time>2026-04-12T07:44:31.255Z</time></trkpt><trkpt lat="43.7442487" lon="11.6152144"><ele>938.0</ele><time>2026-04-12T07:44:32.246Z</time></trkpt><trkpt lat="43.7442268" lon="11.6153774"><ele>938.0</ele><time>2026-04-12T07:44:33.259Z</time></trkpt><trkpt lat="43.7442102" lon="11.6155455"><ele>938.0</ele><time>2026-04-12T07:44:34.259Z</time></trkpt><trkpt lat="43.7442096" lon="11.6157278"><ele>936.0</ele><time>2026-04-12T07:44:35.499Z</time></trkpt><trkpt lat="43.7442772" lon="11.6160971"><ele>934.0</ele><time>2026-04-12T07:44:37.253Z</time></trkpt><trkpt lat="43.7443163" lon="11.6163147"><ele>932.0</ele><time>2026-04-12T07:44:38.474Z</time></trkpt><trkpt lat="43.7443062" lon="11.6167542"><ele>923.0</ele><time>2026-04-12T07:44:40.44Z</time></trkpt><trkpt lat="43.7442938" lon="11.6171741"><ele>914.0</ele><time>2026-04-12T07:44:42.415Z</time></trkpt><trkpt lat="43.744285" lon="11.6175034"><ele>914.0</ele><time>2026-04-12T07:44:44.494Z</time></trkpt><trkpt lat="43.7442775" lon="11.6177572"><ele>914.0000000000001</ele><time>2026-04-12T07:44:46.263Z</time></trkpt><trkpt lat="43.744288" lon="11.6178608"><ele>914.0000000000001</ele><time>2026-04-12T07:44:47.263Z</time></trkpt><trkpt lat="43.7443126" lon="11.6179536"><ele>914.0</ele><time>2026-04-12T07:44:48.499Z</time></trkpt><trkpt lat="43.74435" lon="11.6180245"><ele>914.0</ele><time>2026-04-12T07:44:49.271Z</time></trkpt><trkpt lat="43.7444098" lon="11.6181081"><ele>924.3333333333334</ele><time>2026-04-12T07:44:50.326Z</time></trkpt><trkpt lat="43.7444792" lon="11.6182012"><ele>934.6666666666667</ele><time>2026-04-12T07:44:51.255Z</time></trkpt><trkpt lat="43.7445593" lon="11.6183122"><ele>945.0</ele><time>2026-04-12T07:44:52.438Z</time></trkpt><trkpt lat="43.7447318" lon="11.6185449"><ele>940.75</ele><time>2026-04-12T07:44:54.572Z</time></trkpt><trkpt lat="43.7448721" lon="11.6187099"><ele>936.5</ele><time>2026-04-12T07:44:56.184Z</time></trkpt><trkpt lat="43.7449293" lon="11.618781"><ele>932.25</ele><time>2026-04-12T07:44:57.209Z</time></trkpt><trkpt lat="43.7450086" lon="11.6188745"><ele>928.0</ele><time>2026-04-12T07:44:58.261Z</time></trkpt><trkpt lat="43.7451054" lon="11.618996"><ele>931.0</ele><time>2026-04-12T07:44:59.493Z</time></trkpt><trkpt lat="43.7452911" lon="11.6192226"><ele>934.0</ele><time>2026-04-12T07:45:01.232Z</time></trkpt><trkpt lat="43.7453654" lon="11.6193283"><ele>937.0</ele><time>2026-04-12T07:45:02.231Z</time></trkpt><trkpt lat="43.745426" lon="11.6194101"><ele>940.0</ele><time>2026-04-12T07:45:03.154Z</time></trkpt><trkpt lat="43.7454853" lon="11.6194879"><ele>940.0</ele><time>2026-04-12T07:45:04.199Z</time></trkpt><trkpt lat="43.7455524" lon="11.6195609"><ele>940.0</ele><time>2026-04-12T07:45:05.207Z</time></trkpt><trkpt lat="43.7456278" lon="11.619628"><ele>940.0</ele><time>2026-04-12T07:45:06.183Z</time></trkpt><trkpt lat="43.7457068" lon="11.6197026"><ele>940.0</ele><time>2026-04-12T07:45:07.168Z</time></trkpt><trkpt lat="43.745784" lon="11.6197758"><ele>940.0</ele><time>2026-04-12T07:45:08.167Z</time></trkpt><trkpt lat="43.7458608" lon="11.619849"><ele>940.0</ele><time>2026-04-12T07:45:09.182Z</time></trkpt><trkpt lat="43.7459417" lon="11.61993"><ele>940.0</ele><time>2026-04-12T07:45:10.181Z</time></trkpt><trkpt lat="43.7460251" lon="11.6200286"><ele>940.0</ele><time>2026-04-12T07:45:11.213Z</time></trkpt><trkpt lat="43.7461032" lon="11.6201384"><ele>940.0</ele><time>2026-04-12T07:45:12.208Z</time></trkpt><trkpt lat="43.7461714" lon="11.620256"><ele>940.0</ele><time>2026-04-12T07:45:13.251Z</time></trkpt><trkpt lat="43.7462232" lon="11.6203874"><ele>941.6</ele><time>2026-04-12T07:45:14.189Z</time></trkpt><trkpt lat="43.7462582" lon="11.6205308"><ele>943.2</ele><time>2026-04-12T07:45:15.235Z</time></trkpt><trkpt lat="43.7462736" lon="11.6206763"><ele>944.8</ele><time>2026-04-12T07:45:16.203Z</time></trkpt><trkpt lat="43.7462895" lon="11.620828"><ele>946.4</ele><time>2026-04-12T07:45:17.22Z</time></trkpt><trkpt lat="43.7463112" lon="11.6209662"><ele>948.0</ele><time>2026-04-12T07:45:18.195Z</time></trkpt><trkpt lat="43.7463458" lon="11.621081"><ele>948.0</ele><time>2026-04-12T07:45:19.229Z</time></trkpt><trkpt lat="43.7463799" lon="11.6211617"><ele>948.0</ele><time>2026-04-12T07:45:20.269Z</time></trkpt><trkpt lat="43.7464364" lon="11.6212371"><ele>948.0</ele><time>2026-04-12T07:45:22.227Z</time></trkpt><trkpt lat="43.7465192" lon="11.6211171"><ele>948.0</ele><time>2026-04-12T07:45:24.423Z</time></trkpt><trkpt lat="43.7466148" lon="11.6209232"><ele>948.0</ele><time>2026-04-12T07:45:26.214Z</time></trkpt><trkpt lat="43.7466775" lon="11.6208284"><ele>948.0</ele><time>2026-04-12T07:45:27.257Z</time></trkpt><trkpt lat="43.7467484" lon="11.6207275"><ele>948.0</ele><time>2026-04-12T07:45:28.207Z</time></trkpt><trkpt lat="43.7468228" lon="11.620629"><ele>948.0</ele><time>2026-04-12T07:45:29.248Z</time></trkpt><trkpt lat="43.746894" lon="11.6205294"><ele>948.0</ele><time>2026-04-12T07:45:30.249Z</time></trkpt><trkpt lat="43.7469583" lon="11.6204247"><ele>948.0</ele><time>2026-04-12T07:45:31.255Z</time></trkpt><trkpt lat="43.7470119" lon="11.6203135"><ele>948.75</ele><time>2026-04-12T07:45:32.273Z</time></trkpt><trkpt lat="43.7470779" lon="11.6202109"><ele>949.5</ele><time>2026-04-12T07:45:33.481Z</time></trkpt><trkpt lat="43.7472225" lon="11.6200147"><ele>950.25</ele><time>2026-04-12T07:45:35.273Z</time></trkpt><trkpt lat="43.7472925" lon="11.6199099"><ele>951.0</ele><time>2026-04-12T07:45:36.281Z</time></trkpt><trkpt lat="43.7473412" lon="11.6198001"><ele>951.0</ele><time>2026-04-12T07:45:37.27Z</time></trkpt><trkpt lat="43.747371" lon="11.6196914"><ele>951.0</ele><time>2026-04-12T07:45:38.265Z</time></trkpt><trkpt lat="43.747404" lon="11.6195839"><ele>951.0</ele><time>2026-04-12T07:45:39.253Z</time></trkpt><trkpt lat="43.7474351" lon="11.6194765"><ele>951.0</ele><time>2026-04-12T07:45:40.239Z</time></trkpt><trkpt lat="43.7474859" lon="11.6193788"><ele>951.0</ele><time>2026-04-12T07:45:41.251Z</time></trkpt><trkpt lat="43.7475492" lon="11.6192856"><ele>951.0</ele><time>2026-04-12T07:45:42.271Z</time></trkpt><trkpt lat="43.7476276" lon="11.6191858"><ele>946.0</ele><time>2026-04-12T07:45:43.502Z</time></trkpt><trkpt lat="43.7477712" lon="11.6189707"><ele>941.0</ele><time>2026-04-12T07:45:45.264Z</time></trkpt><trkpt lat="43.7478357" lon="11.618817"><ele>936.0</ele><time>2026-04-12T07:45:46.262Z</time></trkpt><trkpt lat="43.7478943" lon="11.6186519"><ele>941.25</ele><time>2026-04-12T07:45:47.26Z</time></trkpt><trkpt lat="43.7479392" lon="11.618482"><ele>946.5</ele><time>2026-04-12T07:45:48.258Z</time></trkpt><trkpt lat="43.7479501" lon="11.6183212"><ele>951.75</ele><time>2026-04-12T07:45:49.256Z</time></trkpt><trkpt lat="43.7479573" lon="11.6182138"><ele>957.0</ele><time>2026-04-12T07:45:50.464Z</time></trkpt><trkpt lat="43.7480431" lon="11.6180291"><ele>957.0</ele><time>2026-04-12T07:45:52.271Z</time></trkpt><trkpt lat="43.7480963" lon="11.6179354"><ele>957.0</ele><time>2026-04-12T07:45:53.264Z</time></trkpt><trkpt lat="43.7481565" lon="11.617861"><ele>957.0</ele><time>2026-04-12T07:45:54.266Z</time></trkpt><trkpt lat="43.7482282" lon="11.6177884"><ele>957.0</ele><time>2026-04-12T07:45:55.28Z</time></trkpt><trkpt lat="43.7483203" lon="11.6177159"><ele>957.0</ele><time>2026-04-12T07:45:56.277Z</time></trkpt><trkpt lat="43.7484187" lon="11.6176368"><ele>955.75</ele><time>2026-04-12T07:45:57.25Z</time></trkpt><trkpt lat="43.7484963" lon="11.6175484"><ele>954.5</ele><time>2026-04-12T07:45:58.509Z</time></trkpt><trkpt lat="43.7486132" lon="11.6173595"><ele>953.25</ele><time>2026-04-12T07:46:00.314Z</time></trkpt><trkpt lat="43.7486549" lon="11.6172405"><ele>952.0</ele><time>2026-04-12T07:46:01.222Z</time></trkpt><trkpt lat="43.7487004" lon="11.6171197"><ele>952.0</ele><time>2026-04-12T07:46:02.248Z</time></trkpt><trkpt lat="43.7487678" lon="11.6170246"><ele>952.0</ele><time>2026-04-12T07:46:03.259Z</time></trkpt><trkpt lat="43.7488394" lon="11.616957"><ele>952.0</ele><time>2026-04-12T07:46:04.259Z</time></trkpt><trkpt lat="43.7489062" lon="11.616873"><ele>952.0</ele><time>2026-04-12T07:46:05.253Z</time></trkpt><trkpt lat="43.7489316" lon="11.6167377"><ele>952.0</ele><time>2026-04-12T07:46:06.209Z</time></trkpt><trkpt lat="43.7489287" lon="11.6165996"><ele>955.0</ele><time>2026-04-12T07:46:07.169Z</time></trkpt><trkpt lat="43.7489173" lon="11.6164633"><ele>958.0</ele><time>2026-04-12T07:46:08.322Z</time></trkpt><trkpt lat="43.7489304" lon="11.6163559"><ele>961.0</ele><time>2026-04-12T07:46:09.179Z</time></trkpt><trkpt lat="43.74904" lon="11.6162823"><ele>964.0</ele><time>2026-04-12T07:46:11.184Z</time></trkpt><trkpt lat="43.7491071" lon="11.61626"><ele>967.0</ele><time>2026-04-12T07:46:12.235Z</time></trkpt><trkpt lat="43.7491894" lon="11.6162382"><ele>966.9999999999999</ele><time>2026-04-12T07:46:13.245Z</time></trkpt><trkpt lat="43.7492605" lon="11.6161981"><ele>967.0</ele><time>2026-04-12T07:46:14.256Z</time></trkpt><trkpt lat="43.7493178" lon="11.6161463"><ele>967.0</ele><time>2026-04-12T07:46:15.224Z</time></trkpt><trkpt lat="43.7493786" lon="11.6160806"><ele>967.0</ele><time>2026-04-12T07:46:16.266Z</time></trkpt><trkpt lat="43.7494071" lon="11.6159562"><ele>966.9999999999999</ele><time>2026-04-12T07:46:17.251Z</time></trkpt><trkpt lat="43.7494212" lon="11.6158268"><ele>967.0</ele><time>2026-04-12T07:46:18.198Z</time></trkpt><trkpt lat="43.7494385" lon="11.6157294"><ele>965.2</ele><time>2026-04-12T07:46:19.245Z</time></trkpt><trkpt lat="43.7494912" lon="11.6156143"><ele>963.4000000000001</ele><time>2026-04-12T07:46:21.252Z</time></trkpt><trkpt lat="43.7495466" lon="11.6154972"><ele>961.5999999999999</ele><time>2026-04-12T07:46:22.249Z</time></trkpt><trkpt lat="43.7496282" lon="11.615395"><ele>959.8</ele><time>2026-04-12T07:46:23.184Z</time></trkpt><trkpt lat="43.7497171" lon="11.6153373"><ele>958.0</ele><time>2026-04-12T07:46:24.25Z</time></trkpt><trkpt lat="43.7498143" lon="11.6153143"><ele>957.3333333333333</ele><time>2026-04-12T07:46:25.423Z</time></trkpt><trkpt lat="43.7500446" lon="11.6152666"><ele>956.6666666666667</ele><time>2026-04-12T07:46:27.266Z</time></trkpt><trkpt lat="43.7501661" lon="11.615236"><ele>956.0</ele><time>2026-04-12T07:46:28.28Z</time></trkpt><trkpt lat="43.7502997" lon="11.6152023"><ele>956.0</ele><time>2026-04-12T07:46:29.27Z</time></trkpt><trkpt lat="43.7504247" lon="11.6151692"><ele>956.0</ele><time>2026-04-12T07:46:30.249Z</time></trkpt><trkpt lat="43.750513" lon="11.6151205"><ele>956.0</ele><time>2026-04-12T07:46:31.263Z</time></trkpt><trkpt lat="43.7505771" lon="11.6150522"><ele>956.0</ele><time>2026-04-12T07:46:32.451Z</time></trkpt><trkpt lat="43.7506557" lon="11.6148526"><ele>956.0</ele><time>2026-04-12T07:46:34.193Z</time></trkpt><trkpt lat="43.7506763" lon="11.614729"><ele>955.9999999999999</ele><time>2026-04-12T07:46:35.192Z</time></trkpt><trkpt lat="43.7507164" lon="11.6145991"><ele>955.9999999999999</ele><time>2026-04-12T07:46:36.272Z</time></trkpt><trkpt lat="43.7507765" lon="11.614478"><ele>956.0</ele><time>2026-04-12T07:46:37.271Z</time></trkpt><trkpt lat="43.7508209" lon="11.6143597"><ele>956.0</ele><time>2026-04-12T07:46:38.189Z</time></trkpt><trkpt lat="43.7508206" lon="11.6142535"><ele>956.0000000000001</ele><time>2026-04-12T07:46:39.205Z</time></trkpt><trkpt lat="43.7507763" lon="11.614147"><ele>956.0</ele><time>2026-04-12T07:46:40.219Z</time></trkpt><trkpt lat="43.7507298" lon="11.6140321"><ele>956.0</ele><time>2026-04-12T07:46:41.231Z</time></trkpt><trkpt lat="43.7507016" lon="11.6139218"><ele>956.0</ele><time>2026-04-12T07:46:42.242Z</time></trkpt><trkpt lat="43.7506829" lon="11.6138132"><ele>956.0000000000001</ele><time>2026-04-12T07:46:43.271Z</time></trkpt><trkpt lat="43.7506813" lon="11.613701"><ele>956.0</ele><time>2026-04-12T07:46:44.262Z</time></trkpt><trkpt lat="43.7507115" lon="11.6135579"><ele>955.5000000000001</ele><time>2026-04-12T07:46:45.266Z</time></trkpt><trkpt lat="43.7507341" lon="11.613408"><ele>955.0</ele><time>2026-04-12T07:46:46.227Z</time></trkpt><trkpt lat="43.7507531" lon="11.613274"><ele>954.5</ele><time>2026-04-12T07:46:47.243Z</time></trkpt><trkpt lat="43.7507648" lon="11.6131527"><ele>954.0</ele><time>2026-04-12T07:46:48.262Z</time></trkpt><trkpt lat="43.7507715" lon="11.6130359"><ele>953.5000000000001</ele><time>2026-04-12T07:46:49.283Z</time></trkpt><trkpt lat="43.7507618" lon="11.6129487"><ele>953.0</ele><time>2026-04-12T07:46:50.208Z</time></trkpt><trkpt lat="43.7507227" lon="11.6128688"><ele>952.8</ele><time>2026-04-12T07:46:51.194Z</time></trkpt><trkpt lat="43.75068" lon="11.6127987"><ele>952.5999999999999</ele><time>2026-04-12T07:46:52.253Z</time></trkpt><trkpt lat="43.7506241" lon="11.6127171"><ele>952.4000000000001</ele><time>2026-04-12T07:46:53.18Z</time></trkpt><trkpt lat="43.7505625" lon="11.6126188"><ele>952.2</ele><time>2026-04-12T07:46:54.189Z</time></trkpt><trkpt lat="43.7505053" lon="11.6125031"><ele>952.0</ele><time>2026-04-12T07:46:55.211Z</time></trkpt><trkpt lat="43.7504401" lon="11.61238"><ele>952.0</ele><time>2026-04-12T07:46:56.222Z</time></trkpt><trkpt lat="43.7503919" lon="11.6122472"><ele>952.0</ele><time>2026-04-12T07:46:57.202Z</time></trkpt><trkpt lat="43.7503477" lon="11.6120783"><ele>952.0</ele><time>2026-04-12T07:46:58.205Z</time></trkpt><trkpt lat="43.7503133" lon="11.6119344"><ele>952.0</ele><time>2026-04-12T07:46:59.189Z</time></trkpt><trkpt lat="43.7502773" lon="11.6118318"><ele>952.0</ele><time>2026-04-12T07:47:00.194Z</time></trkpt><trkpt lat="43.7502348" lon="11.6117525"><ele>957.1666666666666</ele><time>2026-04-12T07:47:01.235Z</time></trkpt><trkpt lat="43.7501777" lon="11.6116597"><ele>962.3333333333333</ele><time>2026-04-12T07:47:02.198Z</time></trkpt><trkpt lat="43.7501074" lon="11.6115764"><ele>967.5</ele><time>2026-04-12T07:47:03.193Z</time></trkpt><trkpt lat="43.7500551" lon="11.6115156"><ele>972.6666666666667</ele><time>2026-04-12T07:47:04.196Z</time></trkpt><trkpt lat="43.7500439" lon="11.6114122"><ele>977.8333333333334</ele><time>2026-04-12T07:47:07.246Z</time></trkpt><trkpt lat="43.7500967" lon="11.6113106"><ele>983.0</ele><time>2026-04-12T07:47:09.195Z</time></trkpt><trkpt lat="43.750142" lon="11.61123"><ele>982.8</ele><time>2026-04-12T07:47:10.239Z</time></trkpt><trkpt lat="43.7501883" lon="11.6111068"><ele>982.5999999999999</ele><time>2026-04-12T07:47:11.245Z</time></trkpt><trkpt lat="43.7502329" lon="11.6109714"><ele>982.4000000000001</ele><time>2026-04-12T07:47:12.218Z</time></trkpt><trkpt lat="43.7502537" lon="11.6108519"><ele>982.2</ele><time>2026-04-12T07:47:13.188Z</time></trkpt><trkpt lat="43.7502603" lon="11.6107355"><ele>982.0</ele><time>2026-04-12T07:47:14.212Z</time></trkpt><trkpt lat="43.7502638" lon="11.6106233"><ele>978.9999999999999</ele><time>2026-04-12T07:47:15.203Z</time></trkpt><trkpt lat="43.7503524" lon="11.6105467"><ele>976.0</ele><time>2026-04-12T07:47:17.188Z</time></trkpt><trkpt lat="43.7504302" lon="11.6105431"><ele>973.0</ele><time>2026-04-12T07:47:18.279Z</time></trkpt><trkpt lat="43.7505122" lon="11.6105492"><ele>970.0</ele><time>2026-04-12T07:47:19.241Z</time></trkpt><trkpt lat="43.7505835" lon="11.6105376"><ele>966.9999999999999</ele><time>2026-04-12T07:47:20.252Z</time></trkpt><trkpt lat="43.7506433" lon="11.6104803"><ele>964.0</ele><time>2026-04-12T07:47:21.28Z</time></trkpt><trkpt lat="43.7507" lon="11.6103973"><ele>966.8333333333333</ele><time>2026-04-12T07:47:22.264Z</time></trkpt><trkpt lat="43.7507469" lon="11.6103218"><ele>969.6666666666666</ele><time>2026-04-12T07:47:23.262Z</time></trkpt><trkpt lat="43.7508062" lon="11.6102501"><ele>972.5</ele><time>2026-04-12T07:47:24.178Z</time></trkpt><trkpt lat="43.7508667" lon="11.6101813"><ele>975.3333333333333</ele><time>2026-04-12T07:47:25.197Z</time></trkpt><trkpt lat="43.7509184" lon="11.6100972"><ele>978.1666666666666</ele><time>2026-04-12T07:47:26.205Z</time></trkpt><trkpt lat="43.7509606" lon="11.6100136"><ele>981.0</ele><time>2026-04-12T07:47:27.202Z</time></trkpt><trkpt lat="43.750993" lon="11.6099162"><ele>981.0</ele><time>2026-04-12T07:47:28.204Z</time></trkpt><trkpt lat="43.7510347" lon="11.6098281"><ele>981.0</ele><time>2026-04-12T07:47:29.224Z</time></trkpt><trkpt lat="43.7510786" lon="11.6097465"><ele>981.0</ele><time>2026-04-12T07:47:30.294Z</time></trkpt><trkpt lat="43.7511355" lon="11.6096638"><ele>981.0</ele><time>2026-04-12T07:47:31.265Z</time></trkpt><trkpt lat="43.7512078" lon="11.609567"><ele>981.0</ele><time>2026-04-12T07:47:32.275Z</time></trkpt><trkpt lat="43.7512849" lon="11.6094505"><ele>981.0</ele><time>2026-04-12T07:47:33.301Z</time></trkpt><trkpt lat="43.7513533" lon="11.609325"><ele>979.0</ele><time>2026-04-12T07:47:34.294Z</time></trkpt><trkpt lat="43.7514184" lon="11.6092153"><ele>976.9999999999999</ele><time>2026-04-12T07:47:35.261Z</time></trkpt><trkpt lat="43.7514834" lon="11.6091039"><ele>974.9999999999999</ele><time>2026-04-12T07:47:36.277Z</time></trkpt><trkpt lat="43.7515502" lon="11.6090019"><ele>973.0</ele><time>2026-04-12T07:47:37.267Z</time></trkpt><trkpt lat="43.7516263" lon="11.6089244"><ele>971.0</ele><time>2026-04-12T07:47:38.248Z</time></trkpt><trkpt lat="43.7517209" lon="11.6088916"><ele>971.0</ele><time>2026-04-12T07:47:39.291Z</time></trkpt><trkpt lat="43.7518319" lon="11.6088651"><ele>970.9999999999999</ele><time>2026-04-12T07:47:40.253Z</time></trkpt><trkpt lat="43.7519323" lon="11.6088449"><ele>970.9999999999999</ele><time>2026-04-12T07:47:41.22Z</time></trkpt><trkpt lat="43.7520293" lon="11.6088167"><ele>971.0</ele><time>2026-04-12T07:47:42.267Z</time></trkpt><trkpt lat="43.7521123" lon="11.6087687"><ele>971.0</ele><time>2026-04-12T07:47:43.274Z</time></trkpt><trkpt lat="43.7521585" lon="11.6087005"><ele>969.3333333333334</ele><time>2026-04-12T07:47:44.249Z</time></trkpt><trkpt lat="43.7521859" lon="11.6086164"><ele>967.6666666666667</ele><time>2026-04-12T07:47:45.277Z</time></trkpt><trkpt lat="43.752222" lon="11.6085116"><ele>966.0</ele><time>2026-04-12T07:47:46.239Z</time></trkpt><trkpt lat="43.7522585" lon="11.6084147"><ele>964.3333333333333</ele><time>2026-04-12T07:47:47.251Z</time></trkpt><trkpt lat="43.7523056" lon="11.6083296"><ele>962.6666666666666</ele><time>2026-04-12T07:47:48.27Z</time></trkpt><trkpt lat="43.7523638" lon="11.6082393"><ele>961.0</ele><time>2026-04-12T07:47:49.285Z</time></trkpt><trkpt lat="43.7524246" lon="11.6081448"><ele>961.0</ele><time>2026-04-12T07:47:50.276Z</time></trkpt><trkpt lat="43.7525028" lon="11.6080429"><ele>960.9999999999999</ele><time>2026-04-12T07:47:51.287Z</time></trkpt><trkpt lat="43.7525938" lon="11.6079674"><ele>960.9999999999999</ele><time>2026-04-12T07:47:52.246Z</time></trkpt><trkpt lat="43.7526855" lon="11.6078916"><ele>961.0</ele><time>2026-04-12T07:47:53.252Z</time></trkpt><trkpt lat="43.7527772" lon="11.6078349"><ele>961.0</ele><time>2026-04-12T07:47:54.269Z</time></trkpt><trkpt lat="43.752846" lon="11.6077872"><ele>955.1999999999999</ele><time>2026-04-12T07:47:55.274Z</time></trkpt><trkpt lat="43.7528822" lon="11.6077081"><ele>949.3999999999999</ele><time>2026-04-12T07:47:56.285Z</time></trkpt><trkpt lat="43.7528822" lon="11.607568"><ele>943.6</ele><time>2026-04-12T07:47:58.229Z</time></trkpt><trkpt lat="43.7528013" lon="11.6074179"><ele>937.8</ele><time>2026-04-12T07:48:00.19Z</time></trkpt><trkpt lat="43.7527665" lon="11.607313"><ele>932.0</ele><time>2026-04-12T07:48:01.188Z</time></trkpt><trkpt lat="43.7527583" lon="11.6071845"><ele>932.0</ele><time>2026-04-12T07:48:02.2Z</time></trkpt><trkpt lat="43.7527436" lon="11.6070721"><ele>932.0</ele><time>2026-04-12T07:48:03.207Z</time></trkpt><trkpt lat="43.7527242" lon="11.6069687"><ele>932.0</ele><time>2026-04-12T07:48:04.209Z</time></trkpt><trkpt lat="43.7526889" lon="11.6068713"><ele>932.0</ele><time>2026-04-12T07:48:05.194Z</time></trkpt><trkpt lat="43.7526912" lon="11.606681"><ele>932.0</ele><time>2026-04-12T07:48:07.197Z</time></trkpt><trkpt lat="43.7527215" lon="11.6065787"><ele>933.2</ele><time>2026-04-12T07:48:08.195Z</time></trkpt><trkpt lat="43.7527314" lon="11.6064857"><ele>934.4000000000001</ele><time>2026-04-12T07:48:09.19Z</time></trkpt><trkpt lat="43.7526675" lon="11.6062787"><ele>935.5999999999999</ele><time>2026-04-12T07:48:12.257Z</time></trkpt><trkpt lat="43.752654" lon="11.6061705"><ele>936.8</ele><time>2026-04-12T07:48:13.265Z</time></trkpt><trkpt lat="43.752654" lon="11.6060339"><ele>938.0</ele><time>2026-04-12T07:48:14.249Z</time></trkpt><trkpt lat="43.7526611" lon="11.6058984"><ele>947.0</ele><time>2026-04-12T07:48:15.175Z</time></trkpt><trkpt lat="43.7526521" lon="11.6057683"><ele>956.0</ele><time>2026-04-12T07:48:16.179Z</time></trkpt><trkpt lat="43.7526588" lon="11.605643"><ele>965.0</ele><time>2026-04-12T07:48:17.205Z</time></trkpt><trkpt lat="43.7526884" lon="11.6055041"><ele>974.0</ele><time>2026-04-12T07:48:18.203Z</time></trkpt><trkpt lat="43.7526908" lon="11.6053738"><ele>983.0</ele><time>2026-04-12T07:48:19.204Z</time></trkpt><trkpt lat="43.7526852" lon="11.6052585"><ele>982.5999999999999</ele><time>2026-04-12T07:48:20.228Z</time></trkpt><trkpt lat="43.7526664" lon="11.6051738"><ele>982.1999999999999</ele><time>2026-04-12T07:48:21.198Z</time></trkpt><trkpt lat="43.7526299" lon="11.6050536"><ele>981.8</ele><time>2026-04-12T07:48:23.179Z</time></trkpt><trkpt lat="43.7526664" lon="11.6049767"><ele>981.4</ele><time>2026-04-12T07:48:25.315Z</time></trkpt><trkpt lat="43.7527807" lon="11.604954"><ele>981.0</ele><time>2026-04-12T07:48:27.404Z</time></trkpt><trkpt lat="43.7529016" lon="11.6049449"><ele>981.0</ele><time>2026-04-12T07:48:29.459Z</time></trkpt><trkpt lat="43.7530482" lon="11.6048862"><ele>981.0</ele><time>2026-04-12T07:48:31.245Z</time></trkpt><trkpt lat="43.7531308" lon="11.6048496"><ele>981.0</ele><time>2026-04-12T07:48:32.266Z</time></trkpt><trkpt lat="43.7532183" lon="11.6048213"><ele>981.0</ele><time>2026-04-12T07:48:33.325Z</time></trkpt><trkpt lat="43.7533833" lon="11.6048282"><ele>981.0</ele><time>2026-04-12T07:48:35.213Z</time></trkpt><trkpt lat="43.7534714" lon="11.6048251"><ele>980.9999999999999</ele><time>2026-04-12T07:48:36.204Z</time></trkpt><trkpt lat="43.7535508" lon="11.6048212"><ele>980.9999999999999</ele><time>2026-04-12T07:48:37.216Z</time></trkpt><trkpt lat="43.7536198" lon="11.6047717"><ele>981.0</ele><time>2026-04-12T07:48:38.262Z</time></trkpt><trkpt lat="43.7536686" lon="11.6046497"><ele>981.0</ele><time>2026-04-12T07:48:39.165Z</time></trkpt><trkpt lat="43.7537326" lon="11.6045258"><ele>982.1999999999999</ele><time>2026-04-12T07:48:40.325Z</time></trkpt><trkpt lat="43.753856" lon="11.6043704"><ele>983.3999999999999</ele><time>2026-04-12T07:48:42.2Z</time></trkpt><trkpt lat="43.753931" lon="11.6043274"><ele>984.6</ele><time>2026-04-12T07:48:43.21Z</time></trkpt><trkpt lat="43.7540203" lon="11.6042743"><ele>985.8</ele><time>2026-04-12T07:48:44.202Z</time></trkpt><trkpt lat="43.7541037" lon="11.6042307"><ele>987.0</ele><time>2026-04-12T07:48:45.273Z</time></trkpt><trkpt lat="43.7542065" lon="11.6041727"><ele>987.0</ele><time>2026-04-12T07:48:46.265Z</time></trkpt><trkpt lat="43.7543078" lon="11.6040963"><ele>987.0</ele><time>2026-04-12T07:48:47.271Z</time></trkpt><trkpt lat="43.7544039" lon="11.6040064"><ele>987.0</ele><time>2026-04-12T07:48:48.259Z</time></trkpt><trkpt lat="43.7544825" lon="11.6038891"><ele>987.0</ele><time>2026-04-12T07:48:49.492Z</time></trkpt><trkpt lat="43.7545867" lon="11.6036449"><ele>988.0</ele><time>2026-04-12T07:48:51.242Z</time></trkpt><trkpt lat="43.7546368" lon="11.6035357"><ele>989.0</ele><time>2026-04-12T07:48:52.276Z</time></trkpt><trkpt lat="43.7546872" lon="11.6034481"><ele>990.0</ele><time>2026-04-12T07:48:53.27Z</time></trkpt><trkpt lat="43.7547423" lon="11.6033753"><ele>991.0</ele><time>2026-04-12T07:48:54.286Z</time></trkpt><trkpt lat="43.7548024" lon="11.6032974"><ele>992.0</ele><time>2026-04-12T07:48:55.271Z</time></trkpt><trkpt lat="43.754874" lon="11.6032208"><ele>993.0</ele><time>2026-04-12T07:48:56.271Z</time></trkpt><trkpt lat="43.7549273" lon="11.6031683"><ele>993.0</ele><time>2026-04-12T07:48:57.27Z</time></trkpt><trkpt lat="43.7550427" lon="11.6031321"><ele>993.0</ele><time>2026-04-12T07:48:59.258Z</time></trkpt><trkpt lat="43.7551186" lon="11.6031644"><ele>993.0</ele><time>2026-04-12T07:49:00.237Z</time></trkpt><trkpt lat="43.7551924" lon="11.6031852"><ele>993.0</ele><time>2026-04-12T07:49:01.26Z</time></trkpt><trkpt lat="43.7552706" lon="11.6031901"><ele>993.0</ele><time>2026-04-12T07:49:02.19Z</time></trkpt><trkpt lat="43.7553738" lon="11.6031601"><ele>992.5999999999999</ele><time>2026-04-12T07:49:03.213Z</time></trkpt><trkpt lat="43.7554722" lon="11.603132"><ele>992.1999999999999</ele><time>2026-04-12T07:49:04.472Z</time></trkpt><trkpt lat="43.7556254" lon="11.6030378"><ele>991.8</ele><time>2026-04-12T07:49:06.207Z</time></trkpt><trkpt lat="43.755688" lon="11.6029838"><ele>991.4</ele><time>2026-04-12T07:49:07.213Z</time></trkpt><trkpt lat="43.7557564" lon="11.6028989"><ele>991.0</ele><time>2026-04-12T07:49:08.31Z</time></trkpt><trkpt lat="43.7558613" lon="11.6026934"><ele>990.1999999999999</ele><time>2026-04-12T07:49:10.277Z</time></trkpt><trkpt lat="43.755912" lon="11.6025895"><ele>989.3999999999999</ele><time>2026-04-12T07:49:11.184Z</time></trkpt><trkpt lat="43.7559751" lon="11.602491"><ele>988.6</ele><time>2026-04-12T07:49:12.199Z</time></trkpt><trkpt lat="43.7560497" lon="11.6024029"><ele>987.8</ele><time>2026-04-12T07:49:13.204Z</time></trkpt><trkpt lat="43.7560847" lon="11.6023211"><ele>987.0</ele><time>2026-04-12T07:49:14.467Z</time></trkpt><trkpt lat="43.756094" lon="11.6021167"><ele>990.0</ele><time>2026-04-12T07:49:16.211Z</time></trkpt><trkpt lat="43.7560816" lon="11.6019732"><ele>993.0</ele><time>2026-04-12T07:49:17.2Z</time></trkpt><trkpt lat="43.7560726" lon="11.6018301"><ele>996.0</ele><time>2026-04-12T07:49:18.303Z</time></trkpt><trkpt lat="43.7560943" lon="11.6015084"><ele>999.0</ele><time>2026-04-12T07:49:20.447Z</time></trkpt><trkpt lat="43.7561795" lon="11.6012281"><ele>1001.25</ele><time>2026-04-12T07:49:22.48Z</time></trkpt><trkpt lat="43.7563742" lon="11.6010302"><ele>1003.5</ele><time>2026-04-12T07:49:24.249Z</time></trkpt><trkpt lat="43.7564585" lon="11.6009735"><ele>1005.75</ele><time>2026-04-12T07:49:25.167Z</time></trkpt><trkpt lat="43.756526" lon="11.6009198"><ele>1008.0</ele><time>2026-04-12T07:49:26.223Z</time></trkpt><trkpt lat="43.756581" lon="11.600845"><ele>1008.0</ele><time>2026-04-12T07:49:27.227Z</time></trkpt><trkpt lat="43.7566426" lon="11.6007504"><ele>1008.0</ele><time>2026-04-12T07:49:28.25Z</time></trkpt><trkpt lat="43.7566927" lon="11.6006792"><ele>1008.0</ele><time>2026-04-12T07:49:29.167Z</time></trkpt><trkpt lat="43.7567618" lon="11.6006176"><ele>1008.0</ele><time>2026-04-12T07:49:30.195Z</time></trkpt><trkpt lat="43.7568353" lon="11.6005757"><ele>1008.0</ele><time>2026-04-12T07:49:31.222Z</time></trkpt><trkpt lat="43.756904" lon="11.6005524"><ele>1008.0</ele><time>2026-04-12T07:49:32.167Z</time></trkpt><trkpt lat="43.7569552" lon="11.6004892"><ele>1005.3333333333334</ele><time>2026-04-12T07:49:33.205Z</time></trkpt><trkpt lat="43.7570214" lon="11.6004269"><ele>1002.6666666666667</ele><time>2026-04-12T07:49:34.196Z</time></trkpt><trkpt lat="43.7570745" lon="11.6003708"><ele>1000.0</ele><time>2026-04-12T07:49:35.203Z</time></trkpt><trkpt lat="43.7571188" lon="11.6003085"><ele>997.3333333333334</ele><time>2026-04-12T07:49:36.19Z</time></trkpt><trkpt lat="43.7571565" lon="11.6002268"><ele>994.6666666666667</ele><time>2026-04-12T07:49:37.218Z</time></trkpt><trkpt lat="43.7571804" lon="11.6001171"><ele>992.0</ele><time>2026-04-12T07:49:38.182Z</time></trkpt><trkpt lat="43.7571642" lon="11.599997"><ele>991.5</ele><time>2026-04-12T07:49:39.487Z</time></trkpt><trkpt lat="43.7570682" lon="11.5998021"><ele>991.0</ele><time>2026-04-12T07:49:41.159Z</time></trkpt><trkpt lat="43.7569963" lon="11.5997036"><ele>990.5</ele><time>2026-04-12T07:49:42.25Z</time></trkpt><trkpt lat="43.7569175" lon="11.5996114"><ele>990.0</ele><time>2026-04-12T07:49:43.285Z</time></trkpt><trkpt lat="43.7568431" lon="11.5995007"><ele>991.75</ele><time>2026-04-12T07:49:44.274Z</time></trkpt><trkpt lat="43.7567729" lon="11.599384"><ele>993.5</ele><time>2026-04-12T07:49:45.259Z</time></trkpt><trkpt lat="43.7566987" lon="11.5992722"><ele>995.25</ele><time>2026-04-12T07:49:46.254Z</time></trkpt><trkpt lat="43.7566211" lon="11.5991592"><ele>997.0</ele><time>2026-04-12T07:49:47.464Z</time></trkpt><trkpt lat="43.7565223" lon="11.5989752"><ele>997.0</ele><time>2026-04-12T07:49:49.466Z</time></trkpt><trkpt lat="43.7564945" lon="11.5987797"><ele>997.0</ele><time>2026-04-12T07:49:51.276Z</time></trkpt><trkpt lat="43.7564891" lon="11.5986895"><ele>997.0</ele><time>2026-04-12T07:49:52.264Z</time></trkpt><trkpt lat="43.756424" lon="11.5984961"><ele>997.0</ele><time>2026-04-12T07:49:55.463Z</time></trkpt><trkpt lat="43.7563614" lon="11.598365"><ele>994.4000000000001</ele><time>2026-04-12T07:49:57.453Z</time></trkpt><trkpt lat="43.7562664" lon="11.5982487"><ele>991.8000000000001</ele><time>2026-04-12T07:49:59.503Z</time></trkpt><trkpt lat="43.756301" lon="11.5981369"><ele>989.2</ele><time>2026-04-12T07:50:03.444Z</time></trkpt><trkpt lat="43.7564102" lon="11.5980745"><ele>986.6</ele><time>2026-04-12T07:50:05.181Z</time></trkpt><trkpt lat="43.7564965" lon="11.5980314"><ele>984.0</ele><time>2026-04-12T07:50:06.174Z</time></trkpt><trkpt lat="43.7565772" lon="11.5979716"><ele>984.0</ele><time>2026-04-12T07:50:07.195Z</time></trkpt><trkpt lat="43.7566373" lon="11.5978994"><ele>984.0</ele><time>2026-04-12T07:50:08.311Z</time></trkpt><trkpt lat="43.7567505" lon="11.5977767"><ele>984.0</ele><time>2026-04-12T07:50:10.5Z</time></trkpt><trkpt lat="43.7568544" lon="11.5976592"><ele>984.0</ele><time>2026-04-12T07:50:12.451Z</time></trkpt><trkpt lat="43.7569709" lon="11.5975325"><ele>984.8000000000001</ele><time>2026-04-12T07:50:14.268Z</time></trkpt><trkpt lat="43.7570234" lon="11.5974375"><ele>985.6000000000001</ele><time>2026-04-12T07:50:16.259Z</time></trkpt><trkpt lat="43.757071" lon="11.5973503"><ele>986.4</ele><time>2026-04-12T07:50:19.253Z</time></trkpt><trkpt lat="43.7571141" lon="11.5971584"><ele>987.2</ele><time>2026-04-12T07:50:22.46Z</time></trkpt><trkpt lat="43.7571767" lon="11.5970365"><ele>988.0</ele><time>2026-04-12T07:50:24.202Z</time></trkpt><trkpt lat="43.7572855" lon="11.59693"><ele>987.9999999999999</ele><time>2026-04-12T07:50:26.273Z</time></trkpt><trkpt lat="43.7573403" lon="11.5968743"><ele>988.0</ele><time>2026-04-12T07:50:27.244Z</time></trkpt><trkpt lat="43.7574353" lon="11.5967442"><ele>988.0</ele><time>2026-04-12T07:50:30.523Z</time></trkpt><trkpt lat="43.7574891" lon="11.5966737"><ele>988.0</ele><time>2026-04-12T07:50:32.25Z</time></trkpt><trkpt lat="43.7575408" lon="11.596621"><ele>987.9999999999999</ele><time>2026-04-12T07:50:33.231Z</time></trkpt><trkpt lat="43.7576117" lon="11.5966218"><ele>988.0</ele><time>2026-04-12T07:50:34.251Z</time></trkpt><trkpt lat="43.7576955" lon="11.5966323"><ele>988.6666666666666</ele><time>2026-04-12T07:50:35.25Z</time></trkpt><trkpt lat="43.7577674" lon="11.5966593"><ele>989.3333333333333</ele><time>2026-04-12T07:50:36.178Z</time></trkpt><trkpt lat="43.7578278" lon="11.5967176"><ele>990.0</ele><time>2026-04-12T07:50:37.199Z</time></trkpt><trkpt lat="43.7578771" lon="11.5968117"><ele>990.6666666666667</ele><time>2026-04-12T07:50:38.182Z</time></trkpt><trkpt lat="43.7579184" lon="11.5969116"><ele>991.3333333333334</ele><time>2026-04-12T07:50:39.182Z</time></trkpt><trkpt lat="43.7579594" lon="11.5969886"><ele>992.0</ele><time>2026-04-12T07:50:40.195Z</time></trkpt><trkpt lat="43.7580153" lon="11.5970396"><ele>987.2</ele><time>2026-04-12T07:50:41.25Z</time></trkpt><trkpt lat="43.7580829" lon="11.5970707"><ele>982.4000000000001</ele><time>2026-04-12T07:50:42.258Z</time></trkpt><trkpt lat="43.7581645" lon="11.597074"><ele>977.5999999999999</ele><time>2026-04-12T07:50:43.225Z</time></trkpt><trkpt lat="43.7582773" lon="11.5970658"><ele>972.8</ele><time>2026-04-12T07:50:44.242Z</time></trkpt><trkpt lat="43.7584012" lon="11.5970445"><ele>968.0</ele><time>2026-04-12T07:50:45.233Z</time></trkpt><trkpt lat="43.7585245" lon="11.5970171"><ele>972.4</ele><time>2026-04-12T07:50:46.262Z</time></trkpt><trkpt lat="43.7586285" lon="11.5969776"><ele>976.8</ele><time>2026-04-12T07:50:47.27Z</time></trkpt><trkpt lat="43.7587109" lon="11.5969273"><ele>981.2</ele><time>2026-04-12T07:50:48.267Z</time></trkpt><trkpt lat="43.758778" lon="11.5968627"><ele>985.6</ele><time>2026-04-12T07:50:49.251Z</time></trkpt><trkpt lat="43.758838" lon="11.5967763"><ele>990.0</ele><time>2026-04-12T07:50:50.275Z</time></trkpt><trkpt lat="43.758916" lon="11.5966961"><ele>990.0</ele><time>2026-04-12T07:50:52.268Z</time></trkpt><trkpt lat="43.7589808" lon="11.5967644"><ele>990.0</ele><time>2026-04-12T07:50:53.26Z</time></trkpt><trkpt lat="43.7590591" lon="11.5968385"><ele>990.0</ele><time>2026-04-12T07:50:54.255Z</time></trkpt><trkpt lat="43.7591392" lon="11.5969065"><ele>990.0</ele><time>2026-04-12T07:50:55.255Z</time></trkpt><trkpt lat="43.7592278" lon="11.5969528"><ele>990.0</ele><time>2026-04-12T07:50:56.266Z</time></trkpt><trkpt lat="43.759309" lon="11.5969654"><ele>990.0</ele><time>2026-04-12T07:50:57.266Z</time></trkpt><trkpt lat="43.7593831" lon="11.5969783"><ele>989.5</ele><time>2026-04-12T07:50:58.272Z</time></trkpt><trkpt lat="43.7594581" lon="11.5969953"><ele>989.0</ele><time>2026-04-12T07:50:59.259Z</time></trkpt><trkpt lat="43.7595239" lon="11.5970086"><ele>988.5</ele><time>2026-04-12T07:51:00.264Z</time></trkpt><trkpt lat="43.7595876" lon="11.5970197"><ele>988.0</ele><time>2026-04-12T07:51:01.262Z</time></trkpt><trkpt lat="43.7597193" lon="11.5969872"><ele>987.5</ele><time>2026-04-12T07:51:03.259Z</time></trkpt><trkpt lat="43.7597934" lon="11.5969333"><ele>987.0</ele><time>2026-04-12T07:51:04.244Z</time></trkpt><trkpt lat="43.7598686" lon="11.5968341"><ele>987.0</ele><time>2026-04-12T07:51:05.238Z</time></trkpt><trkpt lat="43.759938" lon="11.5967269"><ele>987.0</ele><time>2026-04-12T07:51:06.215Z</time></trkpt><trkpt lat="43.7600135" lon="11.5966244"><ele>987.0</ele><time>2026-04-12T07:51:07.203Z</time></trkpt><trkpt lat="43.7600822" lon="11.5965371"><ele>987.0</ele><time>2026-04-12T07:51:08.196Z</time></trkpt><trkpt lat="43.760134" lon="11.5964813"><ele>987.0</ele><time>2026-04-12T07:51:09.191Z</time></trkpt><trkpt lat="43.7602795" lon="11.5964053"><ele>986.8333333333334</ele><time>2026-04-12T07:51:12.278Z</time></trkpt><trkpt lat="43.760324" lon="11.5963228"><ele>986.6666666666667</ele><time>2026-04-12T07:51:13.272Z</time></trkpt><trkpt lat="43.7603443" lon="11.5962108"><ele>986.5</ele><time>2026-04-12T07:51:14.27Z</time></trkpt><trkpt lat="43.7603596" lon="11.5960928"><ele>986.3333333333334</ele><time>2026-04-12T07:51:15.233Z</time></trkpt><trkpt lat="43.7603744" lon="11.5959659"><ele>986.1666666666667</ele><time>2026-04-12T07:51:16.244Z</time></trkpt><trkpt lat="43.7604028" lon="11.5958438"><ele>986.0</ele><time>2026-04-12T07:51:17.261Z</time></trkpt><trkpt lat="43.76044" lon="11.5957262"><ele>986.0</ele><time>2026-04-12T07:51:18.273Z</time></trkpt><trkpt lat="43.7604607" lon="11.5956107"><ele>985.9999999999999</ele><time>2026-04-12T07:51:19.44Z</time></trkpt><trkpt lat="43.7604808" lon="11.5954294"><ele>985.9999999999999</ele><time>2026-04-12T07:51:21.28Z</time></trkpt><trkpt lat="43.7605131" lon="11.5952715"><ele>986.0</ele><time>2026-04-12T07:51:23.281Z</time></trkpt><trkpt lat="43.7606082" lon="11.5952065"><ele>986.0</ele><time>2026-04-12T07:51:25.231Z</time></trkpt><trkpt lat="43.760672" lon="11.5951811"><ele>988.0</ele><time>2026-04-12T07:51:26.186Z</time></trkpt><trkpt lat="43.7607434" lon="11.5951373"><ele>989.9999999999999</ele><time>2026-04-12T07:51:27.393Z</time></trkpt><trkpt lat="43.7608696" lon="11.5949779"><ele>991.9999999999999</ele><time>2026-04-12T07:51:29.341Z</time></trkpt><trkpt lat="43.7608998" lon="11.5948533"><ele>994.0</ele><time>2026-04-12T07:51:30.179Z</time></trkpt><trkpt lat="43.7609202" lon="11.5947146"><ele>996.0</ele><time>2026-04-12T07:51:31.25Z</time></trkpt><trkpt lat="43.7609162" lon="11.5945702"><ele>999.6666666666667</ele><time>2026-04-12T07:51:32.213Z</time></trkpt><trkpt lat="43.7609057" lon="11.5944338"><ele>1003.3333333333334</ele><time>2026-04-12T07:51:33.416Z</time></trkpt><trkpt lat="43.7608974" lon="11.5941672"><ele>1007.0</ele><time>2026-04-12T07:51:35.458Z</time></trkpt><trkpt lat="43.7609548" lon="11.5939035"><ele>1011.0</ele><time>2026-04-12T07:51:37.529Z</time></trkpt><trkpt lat="43.7610789" lon="11.5936568"><ele>1015.0</ele><time>2026-04-12T07:51:39.426Z</time></trkpt><trkpt lat="43.7612513" lon="11.5935058"><ele>1019.0</ele><time>2026-04-12T07:51:41.246Z</time></trkpt><trkpt lat="43.7613492" lon="11.59346"><ele>1019.0</ele><time>2026-04-12T07:51:42.262Z</time></trkpt><trkpt lat="43.7614391" lon="11.5934129"><ele>1019.0000000000001</ele><time>2026-04-12T07:51:43.469Z</time></trkpt><trkpt lat="43.7615926" lon="11.5933086"><ele>1019.0000000000001</ele><time>2026-04-12T07:51:45.481Z</time></trkpt><trkpt lat="43.7616589" lon="11.5932623"><ele>1019.0</ele><time>2026-04-12T07:51:46.298Z</time></trkpt><trkpt lat="43.7617345" lon="11.5932128"><ele>1019.0</ele><time>2026-04-12T07:51:47.472Z</time></trkpt><trkpt lat="43.7618693" lon="11.5931464"><ele>1018.0000000000001</ele><time>2026-04-12T07:51:49.465Z</time></trkpt><trkpt lat="43.7619819" lon="11.5931166"><ele>1017.0</ele><time>2026-04-12T07:51:51.235Z</time></trkpt><trkpt lat="43.7620614" lon="11.5931078"><ele>1016.0</ele><time>2026-04-12T07:51:53.256Z</time></trkpt><trkpt lat="43.7621411" lon="11.5930995"><ele>1015.0</ele><time>2026-04-12T07:51:55.263Z</time></trkpt><trkpt lat="43.7622325" lon="11.5930598"><ele>1014.0000000000001</ele><time>2026-04-12T07:51:58.254Z</time></trkpt><trkpt lat="43.7622984" lon="11.5930309"><ele>1013.0</ele><time>2026-04-12T07:52:00.223Z</time></trkpt><trkpt lat="43.7623641" lon="11.59302"><ele>1013.0</ele><time>2026-04-12T07:53:17.262Z</time></trkpt><trkpt lat="43.7623896" lon="11.5929218"><ele>1013.0</ele><time>2026-04-12T08:00:57.54Z</time></trkpt><trkpt lat="43.7624765" lon="11.5928482"><ele>1013.0</ele><time>2026-04-12T08:00:59.519Z</time></trkpt><trkpt lat="43.7625865" lon="11.5927668"><ele>1013.0</ele><time>2026-04-12T08:01:01.313Z</time></trkpt><trkpt lat="43.7626452" lon="11.592692"><ele>1013.0</ele><time>2026-04-12T08:01:02.279Z</time></trkpt><trkpt lat="43.7626821" lon="11.592606"><ele>1010.6666666666667</ele><time>2026-04-12T08:01:03.204Z</time></trkpt><trkpt lat="43.7627059" lon="11.5924628"><ele>1008.3333333333334</ele><time>2026-04-12T08:01:05.194Z</time></trkpt><trkpt lat="43.7627095" lon="11.5923756"><ele>1006.0</ele><time>2026-04-12T08:01:06.199Z</time></trkpt><trkpt lat="43.762728" lon="11.5922805"><ele>1003.6666666666667</ele><time>2026-04-12T08:01:07.175Z</time></trkpt><trkpt lat="43.7627626" lon="11.5921912"><ele>1001.3333333333334</ele><time>2026-04-12T08:01:08.197Z</time></trkpt><trkpt lat="43.762796" lon="11.5921153"><ele>999.0</ele><time>2026-04-12T08:01:09.203Z</time></trkpt><trkpt lat="43.7628326" lon="11.5920199"><ele>1000.1666666666666</ele><time>2026-04-12T08:01:10.243Z</time></trkpt><trkpt lat="43.7628646" lon="11.5919259"><ele>1001.3333333333333</ele><time>2026-04-12T08:01:11.26Z</time></trkpt><trkpt lat="43.7629048" lon="11.5918199"><ele>1002.5</ele><time>2026-04-12T08:01:12.23Z</time></trkpt><trkpt lat="43.7629607" lon="11.5917332"><ele>1003.6666666666666</ele><time>2026-04-12T08:01:13.216Z</time></trkpt><trkpt lat="43.7630245" lon="11.5916529"><ele>1004.8333333333333</ele><time>2026-04-12T08:01:14.225Z</time></trkpt><trkpt lat="43.7631003" lon="11.5915559"><ele>1006.0</ele><time>2026-04-12T08:01:15.204Z</time></trkpt><trkpt lat="43.7631687" lon="11.5914447"><ele>1006.0</ele><time>2026-04-12T08:01:16.201Z</time></trkpt><trkpt lat="43.7632209" lon="11.5913285"><ele>1005.9999999999999</ele><time>2026-04-12T08:01:17.212Z</time></trkpt><trkpt lat="43.7632638" lon="11.5912022"><ele>1005.9999999999999</ele><time>2026-04-12T08:01:18.202Z</time></trkpt><trkpt lat="43.7633024" lon="11.591072"><ele>1006.0</ele><time>2026-04-12T08:01:19.203Z</time></trkpt><trkpt lat="43.7633254" lon="11.5909415"><ele>1006.0</ele><time>2026-04-12T08:01:20.218Z</time></trkpt><trkpt lat="43.7633179" lon="11.5908167"><ele>1006.6666666666666</ele><time>2026-04-12T08:01:21.256Z</time></trkpt><trkpt lat="43.7632722" lon="11.5907241"><ele>1007.3333333333333</ele><time>2026-04-12T08:01:22.257Z</time></trkpt><trkpt lat="43.763204" lon="11.5906534"><ele>1008.0</ele><time>2026-04-12T08:01:23.264Z</time></trkpt><trkpt lat="43.7631117" lon="11.5906096"><ele>1008.6666666666667</ele><time>2026-04-12T08:01:24.264Z</time></trkpt><trkpt lat="43.7630248" lon="11.5905611"><ele>1009.3333333333334</ele><time>2026-04-12T08:01:25.271Z</time></trkpt><trkpt lat="43.7629619" lon="11.5905187"><ele>1010.0</ele><time>2026-04-12T08:01:26.265Z</time></trkpt><trkpt lat="43.7629128" lon="11.5904338"><ele>1010.2</ele><time>2026-04-12T08:01:28.28Z</time></trkpt><trkpt lat="43.7629402" lon="11.5903221"><ele>1010.4</ele><time>2026-04-12T08:01:30.211Z</time></trkpt><trkpt lat="43.7629851" lon="11.5902081"><ele>1010.5999999999999</ele><time>2026-04-12T08:01:32.212Z</time></trkpt><trkpt lat="43.7630366" lon="11.5900573"><ele>1010.8</ele><time>2026-04-12T08:01:34.289Z</time></trkpt><trkpt lat="43.7629832" lon="11.5899421"><ele>1011.0</ele><time>2026-04-12T08:01:36.279Z</time></trkpt><trkpt lat="43.7628924" lon="11.5898563"><ele>1011.0</ele><time>2026-04-12T08:01:38.483Z</time></trkpt><trkpt lat="43.7628237" lon="11.5898112"><ele>1010.9999999999999</ele><time>2026-04-12T08:01:40.518Z</time></trkpt><trkpt lat="43.7628132" lon="11.5896396"><ele>1010.9999999999999</ele><time>2026-04-12T08:01:44.485Z</time></trkpt><trkpt lat="43.7628955" lon="11.5895487"><ele>1011.0</ele><time>2026-04-12T08:01:46.205Z</time></trkpt><trkpt lat="43.7630121" lon="11.589489"><ele>1011.0</ele><time>2026-04-12T08:01:48.263Z</time></trkpt><trkpt lat="43.7630772" lon="11.5894767"><ele>1013.6666666666666</ele><time>2026-04-12T08:01:49.213Z</time></trkpt><trkpt lat="43.7631418" lon="11.589462"><ele>1016.3333333333333</ele><time>2026-04-12T08:01:50.482Z</time></trkpt><trkpt lat="43.763258" lon="11.5894237"><ele>1019.0</ele><time>2026-04-12T08:01:52.244Z</time></trkpt><trkpt lat="43.7633582" lon="11.5893761"><ele>1021.6666666666666</ele><time>2026-04-12T08:01:54.259Z</time></trkpt><trkpt lat="43.7634112" lon="11.5893043"><ele>1024.3333333333333</ele><time>2026-04-12T08:01:55.296Z</time></trkpt><trkpt lat="43.7634536" lon="11.5892323"><ele>1027.0</ele><time>2026-04-12T08:01:56.275Z</time></trkpt><trkpt lat="43.7634844" lon="11.5891539"><ele>1027.0</ele><time>2026-04-12T08:01:57.241Z</time></trkpt><trkpt lat="43.7635007" lon="11.5890629"><ele>1027.0</ele><time>2026-04-12T08:01:58.463Z</time></trkpt><trkpt lat="43.7635066" lon="11.5888943"><ele>1027.0</ele><time>2026-04-12T08:02:00.263Z</time></trkpt><trkpt lat="43.7634938" lon="11.5887538"><ele>1027.0</ele><time>2026-04-12T08:02:02.264Z</time></trkpt><trkpt lat="43.763527" lon="11.5886313"><ele>1027.0</ele><time>2026-04-12T08:02:04.309Z</time></trkpt><trkpt lat="43.7635503" lon="11.5885375"><ele>1024.0</ele><time>2026-04-12T08:02:05.283Z</time></trkpt><trkpt lat="43.7635949" lon="11.5884505"><ele>1021.0</ele><time>2026-04-12T08:02:06.287Z</time></trkpt><trkpt lat="43.7636393" lon="11.5883502"><ele>1018.0</ele><time>2026-04-12T08:02:07.552Z</time></trkpt><trkpt lat="43.7636732" lon="11.5881361"><ele>1015.0</ele><time>2026-04-12T08:02:09.482Z</time></trkpt><trkpt lat="43.7636482" lon="11.5879075"><ele>1015.4999999999999</ele><time>2026-04-12T08:02:11.226Z</time></trkpt><trkpt lat="43.7636381" lon="11.5877945"><ele>1016.0</ele><time>2026-04-12T08:02:12.213Z</time></trkpt><trkpt lat="43.7636146" lon="11.5876853"><ele>1016.5</ele><time>2026-04-12T08:02:13.207Z</time></trkpt><trkpt lat="43.7635807" lon="11.5875955"><ele>1017.0</ele><time>2026-04-12T08:02:14.214Z</time></trkpt><trkpt lat="43.7635251" lon="11.5875094"><ele>1017.4999999999999</ele><time>2026-04-12T08:02:15.335Z</time></trkpt><trkpt lat="43.7634724" lon="11.5874237"><ele>1018.0</ele><time>2026-04-12T08:02:16.245Z</time></trkpt><trkpt lat="43.7634301" lon="11.5873269"><ele>1022.2</ele><time>2026-04-12T08:02:17.239Z</time></trkpt><trkpt lat="43.7633975" lon="11.5872257"><ele>1026.4</ele><time>2026-04-12T08:02:18.256Z</time></trkpt><trkpt lat="43.7633755" lon="11.5870974"><ele>1030.6000000000001</ele><time>2026-04-12T08:02:19.335Z</time></trkpt><trkpt lat="43.7633436" lon="11.5869524"><ele>1034.8</ele><time>2026-04-12T08:02:20.285Z</time></trkpt><trkpt lat="43.7633034" lon="11.5868378"><ele>1039.0</ele><time>2026-04-12T08:02:21.278Z</time></trkpt><trkpt lat="43.7632465" lon="11.5867397"><ele>1039.0</ele><time>2026-04-12T08:02:22.278Z</time></trkpt><trkpt lat="43.7631944" lon="11.5866544"><ele>1039.0</ele><time>2026-04-12T08:02:23.477Z</time></trkpt><trkpt lat="43.7632119" lon="11.5865077"><ele>1039.0</ele><time>2026-04-12T08:02:25.512Z</time></trkpt><trkpt lat="43.7633019" lon="11.5863737"><ele>1039.0</ele><time>2026-04-12T08:02:27.467Z</time></trkpt><trkpt lat="43.7634101" lon="11.5863167"><ele>1039.0</ele><time>2026-04-12T08:02:29.458Z</time></trkpt><trkpt lat="43.7635812" lon="11.5863389"><ele>1036.8</ele><time>2026-04-12T08:02:31.219Z</time></trkpt><trkpt lat="43.763679" lon="11.5863563"><ele>1034.6000000000001</ele><time>2026-04-12T08:02:32.2Z</time></trkpt><trkpt lat="43.7637757" lon="11.5863896"><ele>1032.4</ele><time>2026-04-12T08:02:33.227Z</time></trkpt><trkpt lat="43.7638758" lon="11.5864237"><ele>1030.2</ele><time>2026-04-12T08:02:34.362Z</time></trkpt><trkpt lat="43.7640038" lon="11.5864689"><ele>1028.0</ele><time>2026-04-12T08:02:36.215Z</time></trkpt><trkpt lat="43.7641281" lon="11.5864299"><ele>1028.0</ele><time>2026-04-12T08:02:38.464Z</time></trkpt><trkpt lat="43.7642709" lon="11.586308"><ele>1028.0</ele><time>2026-04-12T08:02:40.233Z</time></trkpt><trkpt lat="43.7643421" lon="11.5862393"><ele>1028.0</ele><time>2026-04-12T08:02:41.274Z</time></trkpt><trkpt lat="43.7644193" lon="11.5861605"><ele>1028.0</ele><time>2026-04-12T08:02:42.289Z</time></trkpt><trkpt lat="43.7644921" lon="11.5860832"><ele>1028.0</ele><time>2026-04-12T08:02:43.309Z</time></trkpt><trkpt lat="43.7645498" lon="11.5859788"><ele>1028.2</ele><time>2026-04-12T08:02:44.296Z</time></trkpt><trkpt lat="43.7645924" lon="11.5858559"><ele>1028.4</ele><time>2026-04-12T08:02:45.304Z</time></trkpt><trkpt lat="43.7646374" lon="11.5857412"><ele>1028.6000000000001</ele><time>2026-04-12T08:02:46.282Z</time></trkpt><trkpt lat="43.7647075" lon="11.5856633"><ele>1028.8</ele><time>2026-04-12T08:02:47.261Z</time></trkpt><trkpt lat="43.7648119" lon="11.5856159"><ele>1029.0</ele><time>2026-04-12T08:02:48.282Z</time></trkpt><trkpt lat="43.7649174" lon="11.5855674"><ele>1029.0</ele><time>2026-04-12T08:02:49.46Z</time></trkpt><trkpt lat="43.7651038" lon="11.5854618"><ele>1029.0</ele><time>2026-04-12T08:02:51.281Z</time></trkpt><trkpt lat="43.7651949" lon="11.5854201"><ele>1029.0</ele><time>2026-04-12T08:02:52.207Z</time></trkpt><trkpt lat="43.7652854" lon="11.5853812"><ele>1029.0</ele><time>2026-04-12T08:02:53.216Z</time></trkpt><trkpt lat="43.7653737" lon="11.5853503"><ele>1031.4</ele><time>2026-04-12T08:02:54.205Z</time></trkpt><trkpt lat="43.7654545" lon="11.5853071"><ele>1033.8000000000002</ele><time>2026-04-12T08:02:55.213Z</time></trkpt><trkpt lat="43.7655312" lon="11.5852596"><ele>1036.1999999999998</ele><time>2026-04-12T08:02:56.217Z</time></trkpt><trkpt lat="43.7655864" lon="11.5852019"><ele>1038.6</ele><time>2026-04-12T08:02:57.521Z</time></trkpt><trkpt lat="43.7656658" lon="11.5850948"><ele>1041.0</ele><time>2026-04-12T08:02:59.477Z</time></trkpt><trkpt lat="43.7657947" lon="11.5851244"><ele>1041.0</ele><time>2026-04-12T08:03:01.249Z</time></trkpt><trkpt lat="43.7658573" lon="11.5852298"><ele>1041.0</ele><time>2026-04-12T08:03:03.26Z</time></trkpt><trkpt lat="43.7659282" lon="11.585348"><ele>1041.0</ele><time>2026-04-12T08:03:05.49Z</time></trkpt><trkpt lat="43.7659894" lon="11.5855107"><ele>1041.0</ele><time>2026-04-12T08:03:07.446Z</time></trkpt><trkpt lat="43.7660802" lon="11.5856858"><ele>1040.6666666666667</ele><time>2026-04-12T08:03:09.484Z</time></trkpt><trkpt lat="43.7661433" lon="11.5858383"><ele>1040.3333333333335</ele><time>2026-04-12T08:03:11.236Z</time></trkpt><trkpt lat="43.7660983" lon="11.5861105"><ele>1040.0</ele><time>2026-04-12T08:03:14.52Z</time></trkpt><trkpt lat="43.7660256" lon="11.5863286"><ele>1040.0</ele><time>2026-04-12T08:03:16.242Z</time></trkpt><trkpt lat="43.7659794" lon="11.5864321"><ele>1040.0</ele><time>2026-04-12T08:03:17.268Z</time></trkpt><trkpt lat="43.7659304" lon="11.5865302"><ele>1040.0</ele><time>2026-04-12T08:03:18.539Z</time></trkpt><trkpt lat="43.7658246" lon="11.5867077"><ele>1040.0</ele><time>2026-04-12T08:03:20.501Z</time></trkpt><trkpt lat="43.7657221" lon="11.5868626"><ele>1043.6666666666667</ele><time>2026-04-12T08:03:22.531Z</time></trkpt><trkpt lat="43.765594" lon="11.5870196"><ele>1047.3333333333333</ele><time>2026-04-12T08:03:24.502Z</time></trkpt><trkpt lat="43.7654551" lon="11.5871787"><ele>1051.0</ele><time>2026-04-12T08:03:26.295Z</time></trkpt><trkpt lat="43.765397" lon="11.5872965"><ele>1051.0</ele><time>2026-04-12T08:03:27.3Z</time></trkpt><trkpt lat="43.7653543" lon="11.5874066"><ele>1051.0</ele><time>2026-04-12T08:03:28.494Z</time></trkpt><trkpt lat="43.7653205" lon="11.5876349"><ele>1051.0</ele><time>2026-04-12T08:03:30.496Z</time></trkpt><trkpt lat="43.7653579" lon="11.5878877"><ele>1051.0</ele><time>2026-04-12T08:03:32.275Z</time></trkpt><trkpt lat="43.7653952" lon="11.5880276"><ele>1051.3333333333333</ele><time>2026-04-12T08:03:33.262Z</time></trkpt><trkpt lat="43.7654358" lon="11.588149"><ele>1051.6666666666665</ele><time>2026-04-12T08:03:34.265Z</time></trkpt><trkpt lat="43.7654765" lon="11.5882427"><ele>1052.0</ele><time>2026-04-12T08:03:35.222Z</time></trkpt><trkpt lat="43.7655261" lon="11.5883062"><ele>1052.3333333333333</ele><time>2026-04-12T08:03:36.213Z</time></trkpt><trkpt lat="43.7655944" lon="11.588345"><ele>1052.6666666666667</ele><time>2026-04-12T08:03:37.221Z</time></trkpt><trkpt lat="43.7656961" lon="11.5883465"><ele>1053.0</ele><time>2026-04-12T08:03:38.316Z</time></trkpt><trkpt lat="43.7658985" lon="11.5883083"><ele>1053.0</ele><time>2026-04-12T08:03:40.208Z</time></trkpt><trkpt lat="43.765986" lon="11.5883276"><ele>1053.0</ele><time>2026-04-12T08:03:41.216Z</time></trkpt><trkpt lat="43.7660539" lon="11.5883899"><ele>1053.0</ele><time>2026-04-12T08:03:42.27Z</time></trkpt><trkpt lat="43.7661076" lon="11.5884795"><ele>1053.0</ele><time>2026-04-12T08:03:43.252Z</time></trkpt><trkpt lat="43.766145" lon="11.588591"><ele>1053.0</ele><time>2026-04-12T08:03:44.273Z</time></trkpt><trkpt lat="43.7661813" lon="11.5887112"><ele>1053.0</ele><time>2026-04-12T08:03:45.265Z</time></trkpt><trkpt lat="43.7662206" lon="11.58883"><ele>1054.0</ele><time>2026-04-12T08:03:46.284Z</time></trkpt><trkpt lat="43.7662621" lon="11.5889445"><ele>1055.0</ele><time>2026-04-12T08:03:47.528Z</time></trkpt><trkpt lat="43.7663643" lon="11.5891585"><ele>1056.0</ele><time>2026-04-12T08:03:49.272Z</time></trkpt><trkpt lat="43.7664253" lon="11.5892336"><ele>1057.0</ele><time>2026-04-12T08:03:50.281Z</time></trkpt><trkpt lat="43.7664853" lon="11.5892963"><ele>1058.0</ele><time>2026-04-12T08:03:51.316Z</time></trkpt><trkpt lat="43.7665568" lon="11.58932"><ele>1058.0</ele><time>2026-04-12T08:03:52.286Z</time></trkpt><trkpt lat="43.7666285" lon="11.5893005"><ele>1058.0</ele><time>2026-04-12T08:03:53.265Z</time></trkpt><trkpt lat="43.7667337" lon="11.5892381"><ele>1058.0</ele><time>2026-04-12T08:03:55.447Z</time></trkpt><trkpt lat="43.7668456" lon="11.5892393"><ele>1058.0</ele><time>2026-04-12T08:03:57.525Z</time></trkpt><trkpt lat="43.7669731" lon="11.5893098"><ele>1058.0</ele><time>2026-04-12T08:03:59.206Z</time></trkpt><trkpt lat="43.7670526" lon="11.5893564"><ele>1059.0</ele><time>2026-04-12T08:04:00.329Z</time></trkpt><trkpt lat="43.7672033" lon="11.5894729"><ele>1060.0</ele><time>2026-04-12T08:04:02.196Z</time></trkpt><trkpt lat="43.7672758" lon="11.5895376"><ele>1061.0</ele><time>2026-04-12T08:04:03.341Z</time></trkpt><trkpt lat="43.7674213" lon="11.5896697"><ele>1062.0</ele><time>2026-04-12T08:04:05.348Z</time></trkpt><trkpt lat="43.7674836" lon="11.5897477"><ele>1062.0</ele><time>2026-04-12T08:04:06.211Z</time></trkpt><trkpt lat="43.7675309" lon="11.5898158"><ele>1062.0</ele><time>2026-04-12T08:04:07.223Z</time></trkpt><trkpt lat="43.7675892" lon="11.589928"><ele>1062.0</ele><time>2026-04-12T08:04:09.327Z</time></trkpt><trkpt lat="43.767567" lon="11.5900566"><ele>1062.0</ele><time>2026-04-12T08:04:11.265Z</time></trkpt><trkpt lat="43.7675139" lon="11.5901282"><ele>1062.0</ele><time>2026-04-12T08:04:12.233Z</time></trkpt><trkpt lat="43.7674501" lon="11.5901779"><ele>1062.0</ele><time>2026-04-12T08:04:13.488Z</time></trkpt><trkpt lat="43.7673323" lon="11.5902905"><ele>1065.3333333333333</ele><time>2026-04-12T08:04:15.481Z</time></trkpt><trkpt lat="43.7672574" lon="11.5904644"><ele>1068.6666666666665</ele><time>2026-04-12T08:04:17.468Z</time></trkpt><trkpt lat="43.7672255" lon="11.5906995"><ele>1072.0</ele><time>2026-04-12T08:04:19.482Z</time></trkpt><trkpt lat="43.7671602" lon="11.5909234"><ele>1072.0</ele><time>2026-04-12T08:04:21.298Z</time></trkpt><trkpt lat="43.7671336" lon="11.591031"><ele>1072.0</ele><time>2026-04-12T08:04:22.278Z</time></trkpt><trkpt lat="43.7671188" lon="11.591143"><ele>1072.0</ele><time>2026-04-12T08:04:23.295Z</time></trkpt><trkpt lat="43.7671255" lon="11.5912471"><ele>1072.0</ele><time>2026-04-12T08:04:24.208Z</time></trkpt><trkpt lat="43.7671678" lon="11.59135"><ele>1072.0</ele><time>2026-04-12T08:04:25.212Z</time></trkpt><trkpt lat="43.7672358" lon="11.5914628"><ele>1072.0</ele><time>2026-04-12T08:04:26.202Z</time></trkpt><trkpt lat="43.7672966" lon="11.5915816"><ele>1072.2</ele><time>2026-04-12T08:04:27.211Z</time></trkpt><trkpt lat="43.7673592" lon="11.5916935"><ele>1072.4</ele><time>2026-04-12T08:04:28.222Z</time></trkpt><trkpt lat="43.767406" lon="11.5918049"><ele>1072.6</ele><time>2026-04-12T08:04:29.355Z</time></trkpt><trkpt lat="43.7674896" lon="11.5920074"><ele>1072.8</ele><time>2026-04-12T08:04:31.255Z</time></trkpt><trkpt lat="43.7675382" lon="11.5920975"><ele>1073.0</ele><time>2026-04-12T08:04:32.224Z</time></trkpt><trkpt lat="43.7675864" lon="11.5921933"><ele>1074.4</ele><time>2026-04-12T08:04:33.226Z</time></trkpt><trkpt lat="43.7676344" lon="11.5923063"><ele>1075.8</ele><time>2026-04-12T08:04:34.235Z</time></trkpt><trkpt lat="43.7676745" lon="11.5924332"><ele>1077.2</ele><time>2026-04-12T08:04:35.217Z</time></trkpt><trkpt lat="43.7677067" lon="11.5925657"><ele>1078.6</ele><time>2026-04-12T08:04:36.267Z</time></trkpt><trkpt lat="43.7677363" lon="11.5927136"><ele>1080.0</ele><time>2026-04-12T08:04:37.261Z</time></trkpt><trkpt lat="43.7677469" lon="11.5928566"><ele>1080.0</ele><time>2026-04-12T08:04:38.471Z</time></trkpt><trkpt lat="43.7677557" lon="11.5931122"><ele>1080.0</ele><time>2026-04-12T08:04:40.214Z</time></trkpt><trkpt lat="43.7677902" lon="11.5932218"><ele>1080.0</ele><time>2026-04-12T08:04:41.254Z</time></trkpt><trkpt lat="43.7678389" lon="11.5933284"><ele>1080.0</ele><time>2026-04-12T08:04:42.28Z</time></trkpt><trkpt lat="43.7678976" lon="11.5934473"><ele>1080.0</ele><time>2026-04-12T08:04:43.281Z</time></trkpt><trkpt lat="43.7679524" lon="11.5935672"><ele>1080.0</ele><time>2026-04-12T08:04:44.287Z</time></trkpt><trkpt lat="43.7680013" lon="11.5936777"><ele>1080.0</ele><time>2026-04-12T08:04:45.496Z</time></trkpt><trkpt lat="43.7680117" lon="11.5938615"><ele>1080.0</ele><time>2026-04-12T08:04:47.484Z</time></trkpt><trkpt lat="43.7679087" lon="11.5940148"><ele>1079.0</ele><time>2026-04-12T08:04:49.462Z</time></trkpt><trkpt lat="43.767749" lon="11.5941651"><ele>1078.0</ele><time>2026-04-12T08:04:51.265Z</time></trkpt><trkpt lat="43.767684" lon="11.594245"><ele>1077.0</ele><time>2026-04-12T08:04:52.26Z</time></trkpt><trkpt lat="43.7676528" lon="11.5943251"><ele>1076.0</ele><time>2026-04-12T08:04:53.3Z</time></trkpt><trkpt lat="43.7676692" lon="11.5944961"><ele>1080.3333333333335</ele><time>2026-04-12T08:04:55.445Z</time></trkpt><trkpt lat="43.7677413" lon="11.5947122"><ele>1084.6666666666667</ele><time>2026-04-12T08:04:57.573Z</time></trkpt><trkpt lat="43.7677983" lon="11.5949476"><ele>1089.0</ele><time>2026-04-12T08:04:59.485Z</time></trkpt><trkpt lat="43.7677639" lon="11.5951607"><ele>1089.0</ele><time>2026-04-12T08:05:01.216Z</time></trkpt><trkpt lat="43.7677093" lon="11.5952683"><ele>1089.0</ele><time>2026-04-12T08:05:02.213Z</time></trkpt><trkpt lat="43.7676448" lon="11.595389"><ele>1089.0</ele><time>2026-04-12T08:05:03.281Z</time></trkpt><trkpt lat="43.7675795" lon="11.5955091"><ele>1089.0</ele><time>2026-04-12T08:05:04.324Z</time></trkpt><trkpt lat="43.7674571" lon="11.5957296"><ele>1090.5</ele><time>2026-04-12T08:05:06.208Z</time></trkpt><trkpt lat="43.7673989" lon="11.5958345"><ele>1092.0</ele><time>2026-04-12T08:05:07.204Z</time></trkpt><trkpt lat="43.767332" lon="11.5959485"><ele>1093.5</ele><time>2026-04-12T08:05:08.293Z</time></trkpt><trkpt lat="43.7672666" lon="11.5960581"><ele>1095.0</ele><time>2026-04-12T08:05:09.465Z</time></trkpt><trkpt lat="43.7671163" lon="11.596262"><ele>1095.0</ele><time>2026-04-12T08:05:11.225Z</time></trkpt><trkpt lat="43.7670221" lon="11.5963397"><ele>1095.0</ele><time>2026-04-12T08:05:12.287Z</time></trkpt><trkpt lat="43.766932" lon="11.5964026"><ele>1095.0</ele><time>2026-04-12T08:05:13.203Z</time></trkpt><trkpt lat="43.7668346" lon="11.5964551"><ele>1095.0</ele><time>2026-04-12T08:05:14.264Z</time></trkpt><trkpt lat="43.7667479" lon="11.5965016"><ele>1095.0</ele><time>2026-04-12T08:05:15.245Z</time></trkpt><trkpt lat="43.7666634" lon="11.5965654"><ele>1092.8</ele><time>2026-04-12T08:05:16.272Z</time></trkpt><trkpt lat="43.7665979" lon="11.5966551"><ele>1090.6</ele><time>2026-04-12T08:05:17.234Z</time></trkpt><trkpt lat="43.7665531" lon="11.5967541"><ele>1088.4</ele><time>2026-04-12T08:05:18.462Z</time></trkpt><trkpt lat="43.7664768" lon="11.5969441"><ele>1086.2</ele><time>2026-04-12T08:05:20.195Z</time></trkpt><trkpt lat="43.7664241" lon="11.5970055"><ele>1084.0</ele><time>2026-04-12T08:05:21.193Z</time></trkpt><trkpt lat="43.7663445" lon="11.597025"><ele>1084.0</ele><time>2026-04-12T08:05:22.235Z</time></trkpt><trkpt lat="43.7662581" lon="11.5970316"><ele>1084.0</ele><time>2026-04-12T08:05:23.216Z</time></trkpt><trkpt lat="43.7661884" lon="11.5970615"><ele>1084.0</ele><time>2026-04-12T08:05:24.277Z</time></trkpt><trkpt lat="43.7661275" lon="11.597162"><ele>1084.0</ele><time>2026-04-12T08:05:26.308Z</time></trkpt><trkpt lat="43.7661252" lon="11.5972504"><ele>1084.0</ele><time>2026-04-12T08:05:27.261Z</time></trkpt><trkpt lat="43.7661448" lon="11.5973569"><ele>1084.0</ele><time>2026-04-12T08:05:28.459Z</time></trkpt><trkpt lat="43.766177" lon="11.5976026"><ele>1084.0</ele><time>2026-04-12T08:05:30.278Z</time></trkpt><trkpt lat="43.7661699" lon="11.5977062"><ele>1084.0</ele><time>2026-04-12T08:05:31.293Z</time></trkpt><trkpt lat="43.7661257" lon="11.5977863"><ele>1084.0</ele><time>2026-04-12T08:05:32.293Z</time></trkpt><trkpt lat="43.766025" lon="11.5978828"><ele>1084.0</ele><time>2026-04-12T08:05:33.289Z</time></trkpt><trkpt lat="43.7659155" lon="11.5979864"><ele>1084.0</ele><time>2026-04-12T08:05:34.261Z</time></trkpt><trkpt lat="43.7658067" lon="11.5980679"><ele>1083.6000000000001</ele><time>2026-04-12T08:05:35.264Z</time></trkpt><trkpt lat="43.7657174" lon="11.5981606"><ele>1083.2</ele><time>2026-04-12T08:05:36.28Z</time></trkpt><trkpt lat="43.7656374" lon="11.5982444"><ele>1082.8000000000002</ele><time>2026-04-12T08:05:37.206Z</time></trkpt><trkpt lat="43.7655726" lon="11.5983441"><ele>1082.4</ele><time>2026-04-12T08:05:38.219Z</time></trkpt><trkpt lat="43.7655179" lon="11.5984399"><ele>1082.0</ele><time>2026-04-12T08:05:39.216Z</time></trkpt><trkpt lat="43.7654685" lon="11.5985457"><ele>1082.0</ele><time>2026-04-12T08:05:40.204Z</time></trkpt><trkpt lat="43.7654436" lon="11.5986421"><ele>1082.0</ele><time>2026-04-12T08:05:41.263Z</time></trkpt><trkpt lat="43.7654633" lon="11.5987594"><ele>1082.0</ele><time>2026-04-12T08:05:43.204Z</time></trkpt><trkpt lat="43.7655341" lon="11.5986696"><ele>1082.0</ele><time>2026-04-12T08:05:46.261Z</time></trkpt><trkpt lat="43.7655539" lon="11.5985688"><ele>1082.0</ele><time>2026-04-12T08:05:47.272Z</time></trkpt><trkpt lat="43.7656036" lon="11.5984857"><ele>1082.0</ele><time>2026-04-12T08:05:48.285Z</time></trkpt><trkpt lat="43.7656881" lon="11.5984244"><ele>1082.0</ele><time>2026-04-12T08:05:49.273Z</time></trkpt><trkpt lat="43.7657897" lon="11.5983611"><ele>1082.0</ele><time>2026-04-12T08:05:50.281Z</time></trkpt><trkpt lat="43.765894" lon="11.5983122"><ele>1082.0</ele><time>2026-04-12T08:05:51.274Z</time></trkpt><trkpt lat="43.7660037" lon="11.5982903"><ele>1082.0</ele><time>2026-04-12T08:05:52.25Z</time></trkpt><trkpt lat="43.766113" lon="11.5982784"><ele>1082.0</ele><time>2026-04-12T08:05:53.277Z</time></trkpt><trkpt lat="43.7662259" lon="11.5982774"><ele>1085.8</ele><time>2026-04-12T08:05:54.22Z</time></trkpt><trkpt lat="43.7663295" lon="11.5982745"><ele>1089.6</ele><time>2026-04-12T08:05:55.21Z</time></trkpt><trkpt lat="43.7664303" lon="11.5982926"><ele>1093.3999999999999</ele><time>2026-04-12T08:05:56.211Z</time></trkpt><trkpt lat="43.7665214" lon="11.5983263"><ele>1097.2</ele><time>2026-04-12T08:05:57.291Z</time></trkpt><trkpt lat="43.7666086" lon="11.5983744"><ele>1101.0</ele><time>2026-04-12T08:05:58.217Z</time></trkpt><trkpt lat="43.7667019" lon="11.5984395"><ele>1101.0</ele><time>2026-04-12T08:05:59.24Z</time></trkpt><trkpt lat="43.76679" lon="11.5984899"><ele>1101.0</ele><time>2026-04-12T08:06:00.279Z</time></trkpt><trkpt lat="43.766883" lon="11.598514"><ele>1101.0</ele><time>2026-04-12T08:06:01.278Z</time></trkpt><trkpt lat="43.766986" lon="11.5985147"><ele>1101.0</ele><time>2026-04-12T08:06:02.283Z</time></trkpt><trkpt lat="43.7670912" lon="11.5985286"><ele>1101.0</ele><time>2026-04-12T08:06:03.27Z</time></trkpt><trkpt lat="43.7671986" lon="11.598557"><ele>1102.2</ele><time>2026-04-12T08:06:04.212Z</time></trkpt><trkpt lat="43.7673056" lon="11.5985894"><ele>1103.3999999999999</ele><time>2026-04-12T08:06:05.223Z</time></trkpt><trkpt lat="43.7674071" lon="11.598607"><ele>1104.6</ele><time>2026-04-12T08:06:06.235Z</time></trkpt><trkpt lat="43.7675102" lon="11.5986242"><ele>1105.8</ele><time>2026-04-12T08:06:07.269Z</time></trkpt><trkpt lat="43.7676212" lon="11.5986263"><ele>1107.0</ele><time>2026-04-12T08:06:08.299Z</time></trkpt><trkpt lat="43.7677392" lon="11.5986104"><ele>1108.0</ele><time>2026-04-12T08:06:09.272Z</time></trkpt><trkpt lat="43.7678645" lon="11.5985829"><ele>1109.0</ele><time>2026-04-12T08:06:10.28Z</time></trkpt><trkpt lat="43.7679962" lon="11.5985419"><ele>1110.0</ele><time>2026-04-12T08:06:11.252Z</time></trkpt><trkpt lat="43.7680994" lon="11.5984805"><ele>1111.0</ele><time>2026-04-12T08:06:12.197Z</time></trkpt><trkpt lat="43.768196" lon="11.5984133"><ele>1111.0</ele><time>2026-04-12T08:06:13.229Z</time></trkpt><trkpt lat="43.7682891" lon="11.5983549"><ele>1111.0</ele><time>2026-04-12T08:06:14.185Z</time></trkpt><trkpt lat="43.7683831" lon="11.5983071"><ele>1111.0</ele><time>2026-04-12T08:06:15.22Z</time></trkpt><trkpt lat="43.7684861" lon="11.5982694"><ele>1111.0</ele><time>2026-04-12T08:06:16.277Z</time></trkpt><trkpt lat="43.7685965" lon="11.598222"><ele>1111.0</ele><time>2026-04-12T08:06:17.281Z</time></trkpt><trkpt lat="43.7687164" lon="11.5981708"><ele>1110.2</ele><time>2026-04-12T08:06:18.232Z</time></trkpt><trkpt lat="43.7688209" lon="11.5981371"><ele>1109.3999999999999</ele><time>2026-04-12T08:06:19.286Z</time></trkpt><trkpt lat="43.7689196" lon="11.5981056"><ele>1108.6</ele><time>2026-04-12T08:06:20.272Z</time></trkpt><trkpt lat="43.7690087" lon="11.5980895"><ele>1107.8</ele><time>2026-04-12T08:06:21.195Z</time></trkpt><trkpt lat="43.7690941" lon="11.5980734"><ele>1107.0</ele><time>2026-04-12T08:06:22.305Z</time></trkpt><trkpt lat="43.769183" lon="11.5980597"><ele>1107.0</ele><time>2026-04-12T08:06:23.278Z</time></trkpt><trkpt lat="43.7692696" lon="11.5980499"><ele>1107.0</ele><time>2026-04-12T08:06:24.298Z</time></trkpt><trkpt lat="43.7693572" lon="11.5980699"><ele>1107.0</ele><time>2026-04-12T08:06:25.275Z</time></trkpt><trkpt lat="43.769446" lon="11.5981006"><ele>1107.0</ele><time>2026-04-12T08:06:26.204Z</time></trkpt><trkpt lat="43.7695277" lon="11.5981361"><ele>1107.0</ele><time>2026-04-12T08:06:27.307Z</time></trkpt><trkpt lat="43.7696042" lon="11.5981686"><ele>1107.0</ele><time>2026-04-12T08:06:28.26Z</time></trkpt><trkpt lat="43.7696869" lon="11.5982013"><ele>1107.0</ele><time>2026-04-12T08:06:29.345Z</time></trkpt><trkpt lat="43.7697634" lon="11.5982414"><ele>1107.0</ele><time>2026-04-12T08:06:30.257Z</time></trkpt><trkpt lat="43.7698408" lon="11.5982921"><ele>1107.0</ele><time>2026-04-12T08:06:31.256Z</time></trkpt><trkpt lat="43.7699281" lon="11.5983385"><ele>1107.0</ele><time>2026-04-12T08:06:32.528Z</time></trkpt><trkpt lat="43.7701008" lon="11.5983878"><ele>1107.0</ele><time>2026-04-12T08:06:34.268Z</time></trkpt><trkpt lat="43.7701826" lon="11.598409"><ele>1105.4</ele><time>2026-04-12T08:06:35.313Z</time></trkpt><trkpt lat="43.7702651" lon="11.5984225"><ele>1103.8000000000002</ele><time>2026-04-12T08:06:36.28Z</time></trkpt><trkpt lat="43.7703475" lon="11.598434"><ele>1102.2</ele><time>2026-04-12T08:06:37.304Z</time></trkpt><trkpt lat="43.7704296" lon="11.5984313"><ele>1100.6000000000001</ele><time>2026-04-12T08:06:38.497Z</time></trkpt><trkpt lat="43.7705769" lon="11.5983648"><ele>1099.0</ele><time>2026-04-12T08:06:40.551Z</time></trkpt><trkpt lat="43.7707747" lon="11.5982139"><ele>1099.0</ele><time>2026-04-12T08:06:42.481Z</time></trkpt><trkpt lat="43.7709659" lon="11.5980139"><ele>1099.0</ele><time>2026-04-12T08:06:44.51Z</time></trkpt><trkpt lat="43.7711155" lon="11.5978405"><ele>1099.0</ele><time>2026-04-12T08:06:46.295Z</time></trkpt><trkpt lat="43.7711954" lon="11.5977823"><ele>1098.75</ele><time>2026-04-12T08:06:47.223Z</time></trkpt><trkpt lat="43.7712829" lon="11.5977335"><ele>1098.5</ele><time>2026-04-12T08:06:48.279Z</time></trkpt><trkpt lat="43.7713723" lon="11.5977026"><ele>1098.25</ele><time>2026-04-12T08:06:49.486Z</time></trkpt><trkpt lat="43.7715887" lon="11.5976813"><ele>1098.0</ele><time>2026-04-12T08:06:51.301Z</time></trkpt><trkpt lat="43.7717127" lon="11.597686"><ele>1098.0</ele><time>2026-04-12T08:06:52.306Z</time></trkpt><trkpt lat="43.771831" lon="11.5976949"><ele>1098.0</ele><time>2026-04-12T08:06:53.291Z</time></trkpt><trkpt lat="43.7719704" lon="11.597729"><ele>1098.0</ele><time>2026-04-12T08:06:54.277Z</time></trkpt><trkpt lat="43.7721043" lon="11.5977525"><ele>1098.0</ele><time>2026-04-12T08:06:55.3Z</time></trkpt><trkpt lat="43.7722286" lon="11.5977764"><ele>1096.25</ele><time>2026-04-12T08:06:56.29Z</time></trkpt><trkpt lat="43.772338" lon="11.5977756"><ele>1094.5</ele><time>2026-04-12T08:06:57.515Z</time></trkpt><trkpt lat="43.7724608" lon="11.5976844"><ele>1092.75</ele><time>2026-04-12T08:06:59.491Z</time></trkpt><trkpt lat="43.7726072" lon="11.5975787"><ele>1091.0</ele><time>2026-04-12T08:07:01.255Z</time></trkpt><trkpt lat="43.7727043" lon="11.5975416"><ele>1089.5</ele><time>2026-04-12T08:07:02.293Z</time></trkpt><trkpt lat="43.7728132" lon="11.5975603"><ele>1088.0</ele><time>2026-04-12T08:07:03.274Z</time></trkpt><trkpt lat="43.7729513" lon="11.5975777"><ele>1086.5</ele><time>2026-04-12T08:07:04.278Z</time></trkpt><trkpt lat="43.773088" lon="11.597575"><ele>1085.0</ele><time>2026-04-12T08:07:05.283Z</time></trkpt><trkpt lat="43.7732166" lon="11.5975798"><ele>1085.0</ele><time>2026-04-12T08:07:06.273Z</time></trkpt><trkpt lat="43.7733311" lon="11.5976145"><ele>1085.0</ele><time>2026-04-12T08:07:07.46Z</time></trkpt><trkpt lat="43.773539" lon="11.597641"><ele>1085.0</ele><time>2026-04-12T08:07:09.297Z</time></trkpt><trkpt lat="43.7736349" lon="11.5976411"><ele>1085.0</ele><time>2026-04-12T08:07:10.296Z</time></trkpt><trkpt lat="43.773725" lon="11.5976181"><ele>1082.0</ele><time>2026-04-12T08:07:11.266Z</time></trkpt><trkpt lat="43.7738003" lon="11.5975798"><ele>1079.0</ele><time>2026-04-12T08:07:12.273Z</time></trkpt><trkpt lat="43.7738838" lon="11.5974971"><ele>1076.0</ele><time>2026-04-12T08:07:13.281Z</time></trkpt><trkpt lat="43.7739729" lon="11.5974072"><ele>1073.0</ele><time>2026-04-12T08:07:14.437Z</time></trkpt><trkpt lat="43.7741773" lon="11.5971962"><ele>1073.0</ele><time>2026-04-12T08:07:16.272Z</time></trkpt><trkpt lat="43.7742926" lon="11.5971136"><ele>1073.0</ele><time>2026-04-12T08:07:17.266Z</time></trkpt><trkpt lat="43.7744237" lon="11.5970323"><ele>1073.0</ele><time>2026-04-12T08:07:18.256Z</time></trkpt><trkpt lat="43.7745562" lon="11.5969667"><ele>1073.0</ele><time>2026-04-12T08:07:19.444Z</time></trkpt><trkpt lat="43.7748312" lon="11.5968385"><ele>1071.0</ele><time>2026-04-12T08:07:21.284Z</time></trkpt><trkpt lat="43.774963" lon="11.5967617"><ele>1069.0</ele><time>2026-04-12T08:07:22.455Z</time></trkpt><trkpt lat="43.7752093" lon="11.5965961"><ele>1067.0</ele><time>2026-04-12T08:07:24.491Z</time></trkpt><trkpt lat="43.7754344" lon="11.5964286"><ele>1064.0</ele><time>2026-04-12T08:07:26.248Z</time></trkpt><trkpt lat="43.7755564" lon="11.5963416"><ele>1061.0</ele><time>2026-04-12T08:07:27.299Z</time></trkpt><trkpt lat="43.7756809" lon="11.5962577"><ele>1058.0</ele><time>2026-04-12T08:07:28.267Z</time></trkpt><trkpt lat="43.775803" lon="11.5961666"><ele>1055.0</ele><time>2026-04-12T08:07:29.513Z</time></trkpt><trkpt lat="43.7760103" lon="11.5959748"><ele>1054.0</ele><time>2026-04-12T08:07:31.256Z</time></trkpt><trkpt lat="43.7760904" lon="11.5958648"><ele>1053.0</ele><time>2026-04-12T08:07:32.463Z</time></trkpt><trkpt lat="43.7762232" lon="11.5956364"><ele>1052.0</ele><time>2026-04-12T08:07:34.535Z</time></trkpt><trkpt lat="43.7763666" lon="11.5954285"><ele>1052.0</ele><time>2026-04-12T08:07:36.241Z</time></trkpt><trkpt lat="43.776446" lon="11.595338"><ele>1052.0</ele><time>2026-04-12T08:07:37.25Z</time></trkpt><trkpt lat="43.7765341" lon="11.5952682"><ele>1052.0</ele><time>2026-04-12T08:07:38.266Z</time></trkpt><trkpt lat="43.7766347" lon="11.5951928"><ele>1052.0</ele><time>2026-04-12T08:07:39.567Z</time></trkpt><trkpt lat="43.7768264" lon="11.5950472"><ele>1052.0</ele><time>2026-04-12T08:07:41.29Z</time></trkpt><trkpt lat="43.7769137" lon="11.5949886"><ele>1052.0</ele><time>2026-04-12T08:07:42.293Z</time></trkpt><trkpt lat="43.776995" lon="11.5949459"><ele>1052.0</ele><time>2026-04-12T08:07:43.287Z</time></trkpt><trkpt lat="43.7770752" lon="11.5949123"><ele>1052.0</ele><time>2026-04-12T08:07:44.279Z</time></trkpt><trkpt lat="43.7771554" lon="11.5948897"><ele>1052.0</ele><time>2026-04-12T08:07:45.273Z</time></trkpt><trkpt lat="43.7772444" lon="11.5948815"><ele>1052.0</ele><time>2026-04-12T08:07:46.266Z</time></trkpt><trkpt lat="43.7773397" lon="11.5949181"><ele>1052.0</ele><time>2026-04-12T08:07:47.346Z</time></trkpt><trkpt lat="43.7775347" lon="11.5950148"><ele>1052.0</ele><time>2026-04-12T08:07:49.254Z</time></trkpt><trkpt lat="43.7776255" lon="11.5950669"><ele>1052.0</ele><time>2026-04-12T08:07:50.303Z</time></trkpt><trkpt lat="43.7777092" lon="11.5951205"><ele>1052.0</ele><time>2026-04-12T08:07:51.279Z</time></trkpt><trkpt lat="43.777779" lon="11.5951736"><ele>1051.3333333333335</ele><time>2026-04-12T08:07:52.302Z</time></trkpt><trkpt lat="43.7778498" lon="11.5952269"><ele>1050.6666666666667</ele><time>2026-04-12T08:07:53.311Z</time></trkpt><trkpt lat="43.7779166" lon="11.5952938"><ele>1050.0</ele><time>2026-04-12T08:07:54.296Z</time></trkpt><trkpt lat="43.7779842" lon="11.5953707"><ele>1049.3333333333333</ele><time>2026-04-12T08:07:55.313Z</time></trkpt><trkpt lat="43.7780647" lon="11.5954368"><ele>1048.6666666666665</ele><time>2026-04-12T08:07:56.267Z</time></trkpt><trkpt lat="43.778144" lon="11.5955065"><ele>1048.0</ele><time>2026-04-12T08:07:57.308Z</time></trkpt><trkpt lat="43.7782312" lon="11.5955726"><ele>1047.2</ele><time>2026-04-12T08:07:58.281Z</time></trkpt><trkpt lat="43.7783216" lon="11.5956437"><ele>1046.4</ele><time>2026-04-12T08:07:59.296Z</time></trkpt><trkpt lat="43.7784046" lon="11.5957159"><ele>1045.6000000000001</ele><time>2026-04-12T08:08:00.299Z</time></trkpt><trkpt lat="43.7784866" lon="11.5958025"><ele>1044.8</ele><time>2026-04-12T08:08:01.308Z</time></trkpt><trkpt lat="43.7785513" lon="11.5959051"><ele>1044.0</ele><time>2026-04-12T08:08:02.284Z</time></trkpt><trkpt lat="43.7786084" lon="11.5960012"><ele>1043.6000000000001</ele><time>2026-04-12T08:08:03.265Z</time></trkpt><trkpt lat="43.7786653" lon="11.5960849"><ele>1043.2</ele><time>2026-04-12T08:08:04.272Z</time></trkpt><trkpt lat="43.7787245" lon="11.5961594"><ele>1042.8000000000002</ele><time>2026-04-12T08:08:05.285Z</time></trkpt><trkpt lat="43.7788195" lon="11.596205"><ele>1042.4</ele><time>2026-04-12T08:08:07.306Z</time></trkpt><trkpt lat="43.778892" lon="11.5961491"><ele>1042.0</ele><time>2026-04-12T08:08:09.287Z</time></trkpt><trkpt lat="43.778936" lon="11.5960087"><ele>1041.4</ele><time>2026-04-12T08:08:11.247Z</time></trkpt><trkpt lat="43.778945" lon="11.5958961"><ele>1040.8000000000002</ele><time>2026-04-12T08:08:12.257Z</time></trkpt><trkpt lat="43.7789493" lon="11.5957706"><ele>1040.2</ele><time>2026-04-12T08:08:13.27Z</time></trkpt><trkpt lat="43.7789584" lon="11.5956479"><ele>1039.6000000000001</ele><time>2026-04-12T08:08:14.454Z</time></trkpt><trkpt lat="43.7789759" lon="11.595398"><ele>1039.0</ele><time>2026-04-12T08:08:16.275Z</time></trkpt><trkpt lat="43.7789818" lon="11.5952517"><ele>1037.5</ele><time>2026-04-12T08:08:17.496Z</time></trkpt><trkpt lat="43.7789863" lon="11.594999"><ele>1036.0</ele><time>2026-04-12T08:08:19.488Z</time></trkpt><trkpt lat="43.7790275" lon="11.5947748"><ele>1034.5</ele><time>2026-04-12T08:08:21.3Z</time></trkpt><trkpt lat="43.7790535" lon="11.5946673"><ele>1033.0</ele><time>2026-04-12T08:08:22.512Z</time></trkpt><trkpt lat="43.7791039" lon="11.5944567"><ele>1033.0</ele><time>2026-04-12T08:08:24.524Z</time></trkpt><trkpt lat="43.779162" lon="11.5942549"><ele>1033.0</ele><time>2026-04-12T08:08:26.299Z</time></trkpt><trkpt lat="43.7792013" lon="11.594163"><ele>1033.0</ele><time>2026-04-12T08:08:27.518Z</time></trkpt><trkpt lat="43.7793071" lon="11.5940072"><ele>1033.0</ele><time>2026-04-12T08:08:29.459Z</time></trkpt><trkpt lat="43.7794227" lon="11.5938621"><ele>1030.6666666666665</ele><time>2026-04-12T08:08:31.266Z</time></trkpt><trkpt lat="43.779476" lon="11.5937857"><ele>1028.3333333333333</ele><time>2026-04-12T08:08:32.287Z</time></trkpt><trkpt lat="43.7795218" lon="11.5937175"><ele>1026.0</ele><time>2026-04-12T08:08:33.285Z</time></trkpt><trkpt lat="43.7795619" lon="11.5936445"><ele>1023.6666666666667</ele><time>2026-04-12T08:08:34.293Z</time></trkpt><trkpt lat="43.779614" lon="11.5935185"><ele>1021.3333333333334</ele><time>2026-04-12T08:08:36.283Z</time></trkpt><trkpt lat="43.7796561" lon="11.5936428"><ele>1019.0</ele><time>2026-04-12T08:08:45.5Z</time></trkpt><trkpt lat="43.7796325" lon="11.5938697"><ele>1018.4000000000001</ele><time>2026-04-12T08:08:47.501Z</time></trkpt><trkpt lat="43.7796446" lon="11.5940717"><ele>1017.8000000000001</ele><time>2026-04-12T08:08:49.262Z</time></trkpt><trkpt lat="43.7796842" lon="11.5942106"><ele>1017.1999999999999</ele><time>2026-04-12T08:08:51.326Z</time></trkpt><trkpt lat="43.7797306" lon="11.5942769"><ele>1016.5999999999999</ele><time>2026-04-12T08:08:53.541Z</time></trkpt><trkpt lat="43.7797348" lon="11.5943805"><ele>1016.0</ele><time>2026-04-12T08:12:26.305Z</time></trkpt><trkpt lat="43.7797248" lon="11.5945038"><ele>1016.4</ele><time>2026-04-12T08:12:28.277Z</time></trkpt><trkpt lat="43.7797197" lon="11.5945932"><ele>1016.8</ele><time>2026-04-12T08:12:29.449Z</time></trkpt><trkpt lat="43.779719" lon="11.594806"><ele>1017.1999999999999</ele><time>2026-04-12T08:12:31.272Z</time></trkpt><trkpt lat="43.779755" lon="11.5949341"><ele>1017.5999999999999</ele><time>2026-04-12T08:12:32.283Z</time></trkpt><trkpt lat="43.7798024" lon="11.5950591"><ele>1018.0</ele><time>2026-04-12T08:12:33.279Z</time></trkpt><trkpt lat="43.7798557" lon="11.5951564"><ele>1018.0</ele><time>2026-04-12T08:12:34.301Z</time></trkpt><trkpt lat="43.7799178" lon="11.5952567"><ele>1018.0</ele><time>2026-04-12T08:12:35.282Z</time></trkpt><trkpt lat="43.7799817" lon="11.5953612"><ele>1018.0</ele><time>2026-04-12T08:12:36.276Z</time></trkpt><trkpt lat="43.7800518" lon="11.5954596"><ele>1018.0</ele><time>2026-04-12T08:12:37.483Z</time></trkpt><trkpt lat="43.7802043" lon="11.5956315"><ele>1017.8</ele><time>2026-04-12T08:12:39.265Z</time></trkpt><trkpt lat="43.780289" lon="11.5957116"><ele>1017.5999999999999</ele><time>2026-04-12T08:12:40.307Z</time></trkpt><trkpt lat="43.7803683" lon="11.5957952"><ele>1017.4000000000001</ele><time>2026-04-12T08:12:41.297Z</time></trkpt><trkpt lat="43.7804389" lon="11.5958713"><ele>1017.2</ele><time>2026-04-12T08:12:42.31Z</time></trkpt><trkpt lat="43.7805018" lon="11.5959446"><ele>1017.0</ele><time>2026-04-12T08:12:43.286Z</time></trkpt><trkpt lat="43.7805619" lon="11.5960205"><ele>1017.0</ele><time>2026-04-12T08:12:44.288Z</time></trkpt><trkpt lat="43.7806246" lon="11.5960957"><ele>1017.0</ele><time>2026-04-12T08:12:45.278Z</time></trkpt><trkpt lat="43.780696" lon="11.5961758"><ele>1017.0</ele><time>2026-04-12T08:12:46.294Z</time></trkpt><trkpt lat="43.7807889" lon="11.5962795"><ele>1017.0</ele><time>2026-04-12T08:12:47.303Z</time></trkpt><trkpt lat="43.7808987" lon="11.5963889"><ele>1017.0</ele><time>2026-04-12T08:12:48.49Z</time></trkpt><trkpt lat="43.7810951" lon="11.5965993"><ele>1018.25</ele><time>2026-04-12T08:12:50.273Z</time></trkpt><trkpt lat="43.781172" lon="11.5967436"><ele>1019.5</ele><time>2026-04-12T08:12:51.295Z</time></trkpt><trkpt lat="43.7812453" lon="11.5969068"><ele>1020.75</ele><time>2026-04-12T08:12:52.283Z</time></trkpt><trkpt lat="43.7813306" lon="11.5970685"><ele>1022.0</ele><time>2026-04-12T08:12:53.295Z</time></trkpt><trkpt lat="43.7814378" lon="11.597227"><ele>1023.0</ele><time>2026-04-12T08:12:54.5Z</time></trkpt><trkpt lat="43.7816799" lon="11.5974784"><ele>1024.0</ele><time>2026-04-12T08:12:56.275Z</time></trkpt><trkpt lat="43.7818062" lon="11.5975664"><ele>1025.0</ele><time>2026-04-12T08:12:57.317Z</time></trkpt><trkpt lat="43.7819298" lon="11.5976462"><ele>1029.3333333333335</ele><time>2026-04-12T08:12:58.306Z</time></trkpt><trkpt lat="43.7820465" lon="11.5977237"><ele>1033.6666666666667</ele><time>2026-04-12T08:12:59.492Z</time></trkpt><trkpt lat="43.7822909" lon="11.5978941"><ele>1038.0</ele><time>2026-04-12T08:13:01.304Z</time></trkpt><trkpt lat="43.7824105" lon="11.5979833"><ele>1038.0</ele><time>2026-04-12T08:13:02.335Z</time></trkpt><trkpt lat="43.7825203" lon="11.5980961"><ele>1038.0</ele><time>2026-04-12T08:13:03.258Z</time></trkpt><trkpt lat="43.7826141" lon="11.5982217"><ele>1038.0</ele><time>2026-04-12T08:13:04.318Z</time></trkpt><trkpt lat="43.7826908" lon="11.5983473"><ele>1038.0</ele><time>2026-04-12T08:13:05.264Z</time></trkpt><trkpt lat="43.7827503" lon="11.5984813"><ele>1042.3333333333333</ele><time>2026-04-12T08:13:06.232Z</time></trkpt><trkpt lat="43.7827988" lon="11.5986251"><ele>1046.6666666666665</ele><time>2026-04-12T08:13:07.29Z</time></trkpt><trkpt lat="43.7828477" lon="11.5987762"><ele>1051.0</ele><time>2026-04-12T08:13:08.484Z</time></trkpt><trkpt lat="43.7829047" lon="11.5991964"><ele>1053.5</ele><time>2026-04-12T08:13:10.487Z</time></trkpt><trkpt lat="43.7829293" lon="11.5996025"><ele>1056.0</ele><time>2026-04-12T08:13:12.472Z</time></trkpt><trkpt lat="43.7829415" lon="11.5999716"><ele>1056.0</ele><time>2026-04-12T08:13:14.485Z</time></trkpt><trkpt lat="43.7829438" lon="11.6002804"><ele>1056.0</ele><time>2026-04-12T08:13:16.294Z</time></trkpt><trkpt lat="43.7829174" lon="11.6004278"><ele>1056.0</ele><time>2026-04-12T08:13:17.293Z</time></trkpt><trkpt lat="43.7828821" lon="11.6005683"><ele>1056.0</ele><time>2026-04-12T08:13:18.323Z</time></trkpt><trkpt lat="43.7828506" lon="11.6007212"><ele>1057.6666666666667</ele><time>2026-04-12T08:13:19.297Z</time></trkpt><trkpt lat="43.7828274" lon="11.600863"><ele>1059.3333333333333</ele><time>2026-04-12T08:13:20.299Z</time></trkpt><trkpt lat="43.782819" lon="11.6009783"><ele>1061.0</ele><time>2026-04-12T08:13:21.3Z</time></trkpt><trkpt lat="43.7827697" lon="11.6010332"><ele>1062.6666666666665</ele><time>2026-04-12T08:13:23.335Z</time></trkpt><trkpt lat="43.7827055" lon="11.6010137"><ele>1064.3333333333333</ele><time>2026-04-12T08:13:27.265Z</time></trkpt><trkpt lat="43.7827128" lon="11.6011324"><ele>1066.0</ele><time>2026-04-12T08:14:35.267Z</time></trkpt><trkpt lat="43.7827318" lon="11.6012164"><ele>1066.3333333333333</ele><time>2026-04-12T08:14:44.284Z</time></trkpt><trkpt lat="43.7827334" lon="11.6013518"><ele>1066.6666666666665</ele><time>2026-04-12T08:15:20.268Z</time></trkpt><trkpt lat="43.7826699" lon="11.6013726"><ele>1067.0</ele><time>2026-04-12T08:15:31.276Z</time></trkpt><trkpt lat="43.7827322" lon="11.6012992"><ele>1067.3333333333333</ele><time>2026-04-12T08:20:19.597Z</time></trkpt><trkpt lat="43.7827374" lon="11.6013866"><ele>1067.6666666666667</ele><time>2026-04-12T08:22:13.239Z</time></trkpt><trkpt lat="43.7827369" lon="11.6012991"><ele>1068.0</ele><time>2026-04-12T08:27:47.517Z</time></trkpt><trkpt lat="43.7827317" lon="11.6011899"><ele>1067.6</ele><time>2026-04-12T08:27:54.279Z</time></trkpt><trkpt lat="43.7827366" lon="11.6010907"><ele>1067.1999999999998</ele><time>2026-04-12T08:28:01.345Z</time></trkpt><trkpt lat="43.7826921" lon="11.6009934"><ele>1066.8</ele><time>2026-04-12T08:29:26.323Z</time></trkpt><trkpt lat="43.7828222" lon="11.6010723"><ele>1066.3999999999999</ele><time>2026-04-12T08:30:25.304Z</time></trkpt><trkpt lat="43.7828859" lon="11.6010657"><ele>1066.0</ele><time>2026-04-12T08:30:27.312Z</time></trkpt><trkpt lat="43.7831203" lon="11.6009914"><ele>1066.0</ele><time>2026-04-12T08:30:30.54Z</time></trkpt><trkpt lat="43.7833114" lon="11.6009419"><ele>1066.0</ele><time>2026-04-12T08:30:32.553Z</time></trkpt><trkpt lat="43.7834242" lon="11.6009808"><ele>1066.0</ele><time>2026-04-12T08:30:34.332Z</time></trkpt><trkpt lat="43.7835284" lon="11.6010831"><ele>1066.0</ele><time>2026-04-12T08:30:36.286Z</time></trkpt><trkpt lat="43.7836052" lon="11.6011064"><ele>1066.8333333333333</ele><time>2026-04-12T08:30:37.313Z</time></trkpt><trkpt lat="43.7836901" lon="11.6011422"><ele>1067.6666666666665</ele><time>2026-04-12T08:30:38.317Z</time></trkpt><trkpt lat="43.7837563" lon="11.6011772"><ele>1068.5</ele><time>2026-04-12T08:30:39.308Z</time></trkpt><trkpt lat="43.7838189" lon="11.601218"><ele>1069.3333333333333</ele><time>2026-04-12T08:30:40.303Z</time></trkpt><trkpt lat="43.7839127" lon="11.6013059"><ele>1070.1666666666667</ele><time>2026-04-12T08:30:42.284Z</time></trkpt><trkpt lat="43.7839766" lon="11.6013626"><ele>1071.0</ele><time>2026-04-12T08:30:44.328Z</time></trkpt><trkpt lat="43.7840352" lon="11.6014069"><ele>1071.3999999999999</ele><time>2026-04-12T08:30:46.322Z</time></trkpt><trkpt lat="43.7841469" lon="11.601475"><ele>1071.8</ele><time>2026-04-12T08:30:48.302Z</time></trkpt><trkpt lat="43.7842096" lon="11.6015367"><ele>1072.1999999999998</ele><time>2026-04-12T08:30:49.331Z</time></trkpt><trkpt lat="43.7842714" lon="11.6016282"><ele>1072.6</ele><time>2026-04-12T08:30:50.331Z</time></trkpt><trkpt lat="43.7843419" lon="11.601734"><ele>1073.0</ele><time>2026-04-12T08:30:51.339Z</time></trkpt><trkpt lat="43.784416" lon="11.6018541"><ele>1073.0</ele><time>2026-04-12T08:30:52.328Z</time></trkpt><trkpt lat="43.7845002" lon="11.6019741"><ele>1073.0</ele><time>2026-04-12T08:30:53.332Z</time></trkpt><trkpt lat="43.7845821" lon="11.6020942"><ele>1073.0</ele><time>2026-04-12T08:30:54.324Z</time></trkpt><trkpt lat="43.784659" lon="11.6022254"><ele>1073.0</ele><time>2026-04-12T08:30:55.32Z</time></trkpt><trkpt lat="43.7847294" lon="11.6023652"><ele>1073.6666666666667</ele><time>2026-04-12T08:30:56.273Z</time></trkpt><trkpt lat="43.7847936" lon="11.602485"><ele>1074.3333333333333</ele><time>2026-04-12T08:30:57.334Z</time></trkpt><trkpt lat="43.7848633" lon="11.602589"><ele>1075.0</ele><time>2026-04-12T08:30:58.543Z</time></trkpt><trkpt lat="43.7850778" lon="11.6027497"><ele>1073.5</ele><time>2026-04-12T08:31:00.595Z</time></trkpt><trkpt lat="43.7853985" lon="11.6029197"><ele>1072.0</ele><time>2026-04-12T08:31:02.322Z</time></trkpt><trkpt lat="43.7855556" lon="11.6029966"><ele>1072.0</ele><time>2026-04-12T08:31:03.533Z</time></trkpt><trkpt lat="43.7858646" lon="11.6031434"><ele>1072.0</ele><time>2026-04-12T08:31:05.554Z</time></trkpt><trkpt lat="43.7861049" lon="11.6032504"><ele>1073.3333333333333</ele><time>2026-04-12T08:31:07.337Z</time></trkpt><trkpt lat="43.7862153" lon="11.603276"><ele>1074.6666666666667</ele><time>2026-04-12T08:31:08.528Z</time></trkpt><trkpt lat="43.7864636" lon="11.6033424"><ele>1076.0</ele><time>2026-04-12T08:31:10.518Z</time></trkpt><trkpt lat="43.786719" lon="11.6033947"><ele>1076.0</ele><time>2026-04-12T08:31:12.527Z</time></trkpt><trkpt lat="43.7868318" lon="11.6034183"><ele>1076.0</ele><time>2026-04-12T08:31:13.313Z</time></trkpt><trkpt lat="43.7869408" lon="11.6034455"><ele>1076.0</ele><time>2026-04-12T08:31:14.583Z</time></trkpt><trkpt lat="43.7871874" lon="11.6034777"><ele>1077.0</ele><time>2026-04-12T08:31:16.31Z</time></trkpt><trkpt lat="43.7873226" lon="11.6034819"><ele>1078.0</ele><time>2026-04-12T08:31:17.32Z</time></trkpt><trkpt lat="43.7874508" lon="11.6034984"><ele>1079.0</ele><time>2026-04-12T08:31:18.557Z</time></trkpt><trkpt lat="43.787694" lon="11.6035476"><ele>1079.0</ele><time>2026-04-12T08:31:20.531Z</time></trkpt><trkpt lat="43.7879285" lon="11.6035846"><ele>1079.0</ele><time>2026-04-12T08:31:22.503Z</time></trkpt><trkpt lat="43.7881599" lon="11.60364"><ele>1079.25</ele><time>2026-04-12T08:31:24.249Z</time></trkpt><trkpt lat="43.7882783" lon="11.6036778"><ele>1079.5</ele><time>2026-04-12T08:31:25.246Z</time></trkpt><trkpt lat="43.7884" lon="11.6037125"><ele>1079.75</ele><time>2026-04-12T08:31:26.246Z</time></trkpt><trkpt lat="43.7885171" lon="11.6037482"><ele>1080.0</ele><time>2026-04-12T08:31:27.249Z</time></trkpt><trkpt lat="43.7886241" lon="11.603789"><ele>1080.0</ele><time>2026-04-12T08:31:28.271Z</time></trkpt><trkpt lat="43.7887331" lon="11.6038299"><ele>1080.0</ele><time>2026-04-12T08:31:29.265Z</time></trkpt><trkpt lat="43.7888334" lon="11.6038718"><ele>1080.0</ele><time>2026-04-12T08:31:30.315Z</time></trkpt><trkpt lat="43.7889281" lon="11.6039072"><ele>1080.0</ele><time>2026-04-12T08:31:31.255Z</time></trkpt><trkpt lat="43.7890175" lon="11.6039311"><ele>1080.0</ele><time>2026-04-12T08:31:32.268Z</time></trkpt><trkpt lat="43.7891061" lon="11.6039163"><ele>1080.0</ele><time>2026-04-12T08:31:33.257Z</time></trkpt><trkpt lat="43.7891935" lon="11.6038788"><ele>1080.0</ele><time>2026-04-12T08:31:34.265Z</time></trkpt><trkpt lat="43.7893034" lon="11.6038202"><ele>1080.0</ele><time>2026-04-12T08:31:35.258Z</time></trkpt><trkpt lat="43.7894158" lon="11.6037434"><ele>1080.0</ele><time>2026-04-12T08:31:36.32Z</time></trkpt><trkpt lat="43.7895352" lon="11.6036704"><ele>1081.25</ele><time>2026-04-12T08:31:37.32Z</time></trkpt><trkpt lat="43.789652" lon="11.6035913"><ele>1082.5</ele><time>2026-04-12T08:31:38.267Z</time></trkpt><trkpt lat="43.7897709" lon="11.6035188"><ele>1083.75</ele><time>2026-04-12T08:31:39.265Z</time></trkpt><trkpt lat="43.7899027" lon="11.6034284"><ele>1085.0</ele><time>2026-04-12T08:31:40.238Z</time></trkpt><trkpt lat="43.7900331" lon="11.6033314"><ele>1085.0</ele><time>2026-04-12T08:31:41.328Z</time></trkpt><trkpt lat="43.7901585" lon="11.6032317"><ele>1085.0</ele><time>2026-04-12T08:31:42.328Z</time></trkpt><trkpt lat="43.7902788" lon="11.6031344"><ele>1085.0</ele><time>2026-04-12T08:31:43.327Z</time></trkpt><trkpt lat="43.7903674" lon="11.6030615"><ele>1085.0</ele><time>2026-04-12T08:31:44.327Z</time></trkpt><trkpt lat="43.7904247" lon="11.6030182"><ele>1084.2</ele><time>2026-04-12T08:31:45.326Z</time></trkpt><trkpt lat="43.7904963" lon="11.6029216"><ele>1083.4</ele><time>2026-04-12T08:31:47.512Z</time></trkpt><trkpt lat="43.7905569" lon="11.6028102"><ele>1082.6</ele><time>2026-04-12T08:31:49.487Z</time></trkpt><trkpt lat="43.7906558" lon="11.6027036"><ele>1081.8</ele><time>2026-04-12T08:31:51.323Z</time></trkpt><trkpt lat="43.7907252" lon="11.6026309"><ele>1081.0</ele><time>2026-04-12T08:31:52.328Z</time></trkpt><trkpt lat="43.790805" lon="11.6025434"><ele>1081.0</ele><time>2026-04-12T08:31:53.545Z</time></trkpt><trkpt lat="43.790996" lon="11.6023367"><ele>1081.0</ele><time>2026-04-12T08:31:55.541Z</time></trkpt><trkpt lat="43.7912118" lon="11.6021569"><ele>1077.0</ele><time>2026-04-12T08:31:57.53Z</time></trkpt><trkpt lat="43.7914463" lon="11.6021077"><ele>1073.0</ele><time>2026-04-12T08:31:59.478Z</time></trkpt><trkpt lat="43.7916748" lon="11.6021318"><ele>1073.0</ele><time>2026-04-12T08:32:01.252Z</time></trkpt><trkpt lat="43.7917808" lon="11.6021368"><ele>1073.0</ele><time>2026-04-12T08:32:02.273Z</time></trkpt><trkpt lat="43.7918837" lon="11.6021623"><ele>1073.0</ele><time>2026-04-12T08:32:03.561Z</time></trkpt><trkpt lat="43.7920755" lon="11.6022258"><ele>1073.0</ele><time>2026-04-12T08:32:05.277Z</time></trkpt><trkpt lat="43.7921763" lon="11.6022476"><ele>1070.0</ele><time>2026-04-12T08:32:06.294Z</time></trkpt><trkpt lat="43.7922947" lon="11.6022701"><ele>1067.0</ele><time>2026-04-12T08:32:07.547Z</time></trkpt><trkpt lat="43.7925482" lon="11.60229"><ele>1064.0</ele><time>2026-04-12T08:32:09.371Z</time></trkpt><trkpt lat="43.7926778" lon="11.6023038"><ele>1060.5</ele><time>2026-04-12T08:32:10.333Z</time></trkpt><trkpt lat="43.7928045" lon="11.6023234"><ele>1057.0</ele><time>2026-04-12T08:32:11.334Z</time></trkpt><trkpt lat="43.7929177" lon="11.6023314"><ele>1053.5</ele><time>2026-04-12T08:32:12.333Z</time></trkpt><trkpt lat="43.7930128" lon="11.6023306"><ele>1050.0</ele><time>2026-04-12T08:32:13.518Z</time></trkpt><trkpt lat="43.7931845" lon="11.6023133"><ele>1050.0</ele><time>2026-04-12T08:32:15.274Z</time></trkpt><trkpt lat="43.793256" lon="11.6023152"><ele>1050.0</ele><time>2026-04-12T08:32:16.346Z</time></trkpt><trkpt lat="43.793368" lon="11.6023026"><ele>1050.0</ele><time>2026-04-12T08:32:18.338Z</time></trkpt><trkpt lat="43.7934839" lon="11.6023082"><ele>1050.0</ele><time>2026-04-12T08:32:21.327Z</time></trkpt><trkpt lat="43.7935744" lon="11.6023022"><ele>1050.0</ele><time>2026-04-12T08:32:23.312Z</time></trkpt><trkpt lat="43.7936686" lon="11.6023314"><ele>1045.3333333333333</ele><time>2026-04-12T08:32:25.258Z</time></trkpt><trkpt lat="43.7937622" lon="11.6023657"><ele>1040.6666666666667</ele><time>2026-04-12T08:32:27.323Z</time></trkpt><trkpt lat="43.793828" lon="11.6023812"><ele>1036.0</ele><time>2026-04-12T08:32:28.269Z</time></trkpt><trkpt lat="43.7938963" lon="11.6024251"><ele>1031.3333333333335</ele><time>2026-04-12T08:32:29.265Z</time></trkpt><trkpt lat="43.7939689" lon="11.6024763"><ele>1026.6666666666667</ele><time>2026-04-12T08:32:30.253Z</time></trkpt><trkpt lat="43.7940447" lon="11.6025311"><ele>1022.0</ele><time>2026-04-12T08:32:31.264Z</time></trkpt><trkpt lat="43.794118" lon="11.6025894"><ele>1022.0000000000001</ele><time>2026-04-12T08:32:32.256Z</time></trkpt><trkpt lat="43.7941854" lon="11.6026503"><ele>1022.0</ele><time>2026-04-12T08:32:33.312Z</time></trkpt><trkpt lat="43.7942563" lon="11.6027184"><ele>1022.0</ele><time>2026-04-12T08:32:34.336Z</time></trkpt><trkpt lat="43.7943235" lon="11.6027832"><ele>1022.0</ele><time>2026-04-12T08:32:35.323Z</time></trkpt><trkpt lat="43.7943869" lon="11.6028473"><ele>1022.0000000000001</ele><time>2026-04-12T08:32:36.324Z</time></trkpt><trkpt lat="43.7944656" lon="11.6029142"><ele>1022.0</ele><time>2026-04-12T08:32:37.337Z</time></trkpt><trkpt lat="43.7945505" lon="11.6029835"><ele>1017.8</ele><time>2026-04-12T08:32:38.274Z</time></trkpt><trkpt lat="43.7946412" lon="11.6030536"><ele>1013.6</ele><time>2026-04-12T08:32:39.256Z</time></trkpt><trkpt lat="43.7947382" lon="11.6031208"><ele>1009.3999999999999</ele><time>2026-04-12T08:32:40.267Z</time></trkpt><trkpt lat="43.7948356" lon="11.6031902"><ele>1005.1999999999999</ele><time>2026-04-12T08:32:41.251Z</time></trkpt><trkpt lat="43.7949367" lon="11.6032401"><ele>1001.0</ele><time>2026-04-12T08:32:42.253Z</time></trkpt><trkpt lat="43.7950389" lon="11.6032511"><ele>1001.0</ele><time>2026-04-12T08:32:43.341Z</time></trkpt><trkpt lat="43.7951527" lon="11.603264"><ele>1000.9999999999999</ele><time>2026-04-12T08:32:44.304Z</time></trkpt><trkpt lat="43.7952643" lon="11.6032972"><ele>1000.9999999999999</ele><time>2026-04-12T08:32:45.25Z</time></trkpt><trkpt lat="43.795352" lon="11.6033463"><ele>1001.0</ele><time>2026-04-12T08:32:46.252Z</time></trkpt><trkpt lat="43.7954176" lon="11.6033919"><ele>1001.0</ele><time>2026-04-12T08:32:47.234Z</time></trkpt><trkpt lat="43.7955366" lon="11.6035092"><ele>999.8</ele><time>2026-04-12T08:32:49.254Z</time></trkpt><trkpt lat="43.7956125" lon="11.6035991"><ele>998.5999999999999</ele><time>2026-04-12T08:32:50.239Z</time></trkpt><trkpt lat="43.795697" lon="11.6036933"><ele>997.4</ele><time>2026-04-12T08:32:51.327Z</time></trkpt><trkpt lat="43.7957931" lon="11.6037818"><ele>996.2</ele><time>2026-04-12T08:32:52.264Z</time></trkpt><trkpt lat="43.7958754" lon="11.6038529"><ele>995.0</ele><time>2026-04-12T08:32:53.306Z</time></trkpt><trkpt lat="43.7959146" lon="11.6039513"><ele>994.3333333333334</ele><time>2026-04-12T08:32:55.331Z</time></trkpt><trkpt lat="43.796028" lon="11.6040624"><ele>993.6666666666667</ele><time>2026-04-12T08:32:57.317Z</time></trkpt><trkpt lat="43.7961009" lon="11.6041101"><ele>993.0</ele><time>2026-04-12T08:32:58.254Z</time></trkpt><trkpt lat="43.7961634" lon="11.6041554"><ele>992.3333333333333</ele><time>2026-04-12T08:32:59.257Z</time></trkpt><trkpt lat="43.7962294" lon="11.6041801"><ele>991.6666666666666</ele><time>2026-04-12T08:33:00.25Z</time></trkpt><trkpt lat="43.7962942" lon="11.6041779"><ele>991.0</ele><time>2026-04-12T08:33:01.246Z</time></trkpt><trkpt lat="43.7963756" lon="11.6041455"><ele>991.0</ele><time>2026-04-12T08:33:02.314Z</time></trkpt><trkpt lat="43.7964766" lon="11.6040831"><ele>990.9999999999999</ele><time>2026-04-12T08:33:03.261Z</time></trkpt><trkpt lat="43.7965808" lon="11.6040041"><ele>990.9999999999999</ele><time>2026-04-12T08:33:04.316Z</time></trkpt><trkpt lat="43.7966613" lon="11.6039296"><ele>991.0</ele><time>2026-04-12T08:33:05.338Z</time></trkpt><trkpt lat="43.7967211" lon="11.6038632"><ele>991.0</ele><time>2026-04-12T08:33:06.323Z</time></trkpt><trkpt lat="43.79679" lon="11.6038037"><ele>989.4</ele><time>2026-04-12T08:33:07.325Z</time></trkpt><trkpt lat="43.7968587" lon="11.6037379"><ele>987.8</ele><time>2026-04-12T08:33:08.321Z</time></trkpt><trkpt lat="43.7969082" lon="11.6036806"><ele>986.1999999999999</ele><time>2026-04-12T08:33:09.334Z</time></trkpt><trkpt lat="43.7969917" lon="11.6036197"><ele>984.5999999999999</ele><time>2026-04-12T08:33:11.32Z</time></trkpt><trkpt lat="43.7970946" lon="11.6035739"><ele>983.0</ele><time>2026-04-12T08:33:13.32Z</time></trkpt><trkpt lat="43.7972033" lon="11.6035086"><ele>983.0</ele><time>2026-04-12T08:33:15.318Z</time></trkpt><trkpt lat="43.7972754" lon="11.6034661"><ele>983.0</ele><time>2026-04-12T08:33:16.33Z</time></trkpt><trkpt lat="43.79735" lon="11.6034266"><ele>983.0</ele><time>2026-04-12T08:33:17.324Z</time></trkpt><trkpt lat="43.7974179" lon="11.6034179"><ele>983.0</ele><time>2026-04-12T08:33:18.314Z</time></trkpt><trkpt lat="43.7975515" lon="11.6034949"><ele>983.0</ele><time>2026-04-12T08:33:21.305Z</time></trkpt><trkpt lat="43.7976222" lon="11.6036229"><ele>983.1666666666667</ele><time>2026-04-12T08:33:23.304Z</time></trkpt><trkpt lat="43.7976364" lon="11.6037167"><ele>983.3333333333334</ele><time>2026-04-12T08:33:24.295Z</time></trkpt><trkpt lat="43.7976565" lon="11.6038193"><ele>983.5</ele><time>2026-04-12T08:33:25.293Z</time></trkpt><trkpt lat="43.7976811" lon="11.6039259"><ele>983.6666666666667</ele><time>2026-04-12T08:33:26.333Z</time></trkpt><trkpt lat="43.7977113" lon="11.6040242"><ele>983.8333333333334</ele><time>2026-04-12T08:33:27.329Z</time></trkpt><trkpt lat="43.7977619" lon="11.6041864"><ele>984.0</ele><time>2026-04-12T08:33:29.545Z</time></trkpt><trkpt lat="43.7977985" lon="11.6043627"><ele>981.0</ele><time>2026-04-12T08:33:31.327Z</time></trkpt><trkpt lat="43.7977994" lon="11.6045071"><ele>978.0000000000001</ele><time>2026-04-12T08:33:33.568Z</time></trkpt><trkpt lat="43.7977894" lon="11.604635"><ele>975.0000000000001</ele><time>2026-04-12T08:33:35.565Z</time></trkpt><trkpt lat="43.7977823" lon="11.6047931"><ele>972.0</ele><time>2026-04-12T08:33:37.564Z</time></trkpt><trkpt lat="43.7978193" lon="11.6049321"><ele>969.0</ele><time>2026-04-12T08:33:39.539Z</time></trkpt><trkpt lat="43.797877" lon="11.6051"><ele>969.0</ele><time>2026-04-12T08:33:41.248Z</time></trkpt><trkpt lat="43.7979078" lon="11.6051834"><ele>969.0000000000001</ele><time>2026-04-12T08:33:42.237Z</time></trkpt><trkpt lat="43.7979436" lon="11.6053084"><ele>969.0000000000001</ele><time>2026-04-12T08:33:44.254Z</time></trkpt><trkpt lat="43.7979481" lon="11.6054406"><ele>969.0</ele><time>2026-04-12T08:33:46.278Z</time></trkpt><trkpt lat="43.7979811" lon="11.6055302"><ele>969.0</ele><time>2026-04-12T08:33:48.254Z</time></trkpt><trkpt lat="43.7980979" lon="11.6056004"><ele>969.6</ele><time>2026-04-12T08:33:51.233Z</time></trkpt><trkpt lat="43.7981718" lon="11.6056374"><ele>970.2</ele><time>2026-04-12T08:33:53.264Z</time></trkpt><trkpt lat="43.7982648" lon="11.6056506"><ele>970.8000000000001</ele><time>2026-04-12T08:33:55.317Z</time></trkpt><trkpt lat="43.7983819" lon="11.605737"><ele>971.4000000000001</ele><time>2026-04-12T08:33:57.308Z</time></trkpt><trkpt lat="43.7984494" lon="11.6058403"><ele>972.0</ele><time>2026-04-12T08:33:58.233Z</time></trkpt><trkpt lat="43.7985078" lon="11.6059627"><ele>972.0</ele><time>2026-04-12T08:33:59.3Z</time></trkpt><trkpt lat="43.7985502" lon="11.6060733"><ele>972.0</ele><time>2026-04-12T08:34:00.227Z</time></trkpt><trkpt lat="43.7985958" lon="11.6061826"><ele>972.0</ele><time>2026-04-12T08:34:01.24Z</time></trkpt><trkpt lat="43.7986395" lon="11.6062899"><ele>972.0</ele><time>2026-04-12T08:34:02.248Z</time></trkpt><trkpt lat="43.7986797" lon="11.6063775"><ele>972.0</ele><time>2026-04-12T08:34:03.259Z</time></trkpt><trkpt lat="43.7987226" lon="11.606458"><ele>972.0</ele><time>2026-04-12T08:34:04.267Z</time></trkpt><trkpt lat="43.7987621" lon="11.6065362"><ele>966.8</ele><time>2026-04-12T08:34:05.309Z</time></trkpt><trkpt lat="43.7987914" lon="11.6066137"><ele>961.6</ele><time>2026-04-12T08:34:06.34Z</time></trkpt><trkpt lat="43.7988338" lon="11.606801"><ele>956.3999999999999</ele><time>2026-04-12T08:34:08.38Z</time></trkpt><trkpt lat="43.7988121" lon="11.6069631"><ele>951.1999999999999</ele><time>2026-04-12T08:34:10.264Z</time></trkpt><trkpt lat="43.7987812" lon="11.6070392"><ele>946.0</ele><time>2026-04-12T08:34:11.243Z</time></trkpt><trkpt lat="43.7987393" lon="11.6071106"><ele>941.8</ele><time>2026-04-12T08:34:12.279Z</time></trkpt><trkpt lat="43.7987003" lon="11.6071934"><ele>937.5999999999999</ele><time>2026-04-12T08:34:13.249Z</time></trkpt><trkpt lat="43.7986395" lon="11.6073346"><ele>933.4</ele><time>2026-04-12T08:34:15.306Z</time></trkpt><trkpt lat="43.7985383" lon="11.6073954"><ele>929.2</ele><time>2026-04-12T08:34:17.304Z</time></trkpt><trkpt lat="43.7984806" lon="11.6074328"><ele>925.0</ele><time>2026-04-12T08:34:18.415Z</time></trkpt><trkpt lat="43.7983999" lon="11.6075776"><ele>925.0</ele><time>2026-04-12T08:34:20.353Z</time></trkpt><trkpt lat="43.7982862" lon="11.6077622"><ele>925.0</ele><time>2026-04-12T08:34:22.259Z</time></trkpt><trkpt lat="43.7982217" lon="11.6078511"><ele>925.0</ele><time>2026-04-12T08:34:23.256Z</time></trkpt><trkpt lat="43.7981688" lon="11.6079238"><ele>925.0</ele><time>2026-04-12T08:34:24.256Z</time></trkpt><trkpt lat="43.7981217" lon="11.6079927"><ele>925.0</ele><time>2026-04-12T08:34:25.299Z</time></trkpt><trkpt lat="43.7980521" lon="11.6081316"><ele>923.0</ele><time>2026-04-12T08:34:27.348Z</time></trkpt><trkpt lat="43.7979805" lon="11.6082533"><ele>921.0</ele><time>2026-04-12T08:34:29.352Z</time></trkpt><trkpt lat="43.7978846" lon="11.6083742"><ele>919.0</ele><time>2026-04-12T08:34:31.333Z</time></trkpt><trkpt lat="43.7978387" lon="11.608435"><ele>917.0</ele><time>2026-04-12T08:34:32.257Z</time></trkpt><trkpt lat="43.7977494" lon="11.6085565"><ele>915.0</ele><time>2026-04-12T08:34:34.263Z</time></trkpt><trkpt lat="43.7977011" lon="11.60869"><ele>912.8</ele><time>2026-04-12T08:34:36.282Z</time></trkpt><trkpt lat="43.7977696" lon="11.6088434"><ele>910.6</ele><time>2026-04-12T08:34:38.254Z</time></trkpt><trkpt lat="43.7978397" lon="11.6089492"><ele>908.4000000000001</ele><time>2026-04-12T08:34:39.395Z</time></trkpt><trkpt lat="43.7978983" lon="11.609059"><ele>906.2</ele><time>2026-04-12T08:34:40.321Z</time></trkpt><trkpt lat="43.7979405" lon="11.6091471"><ele>904.0</ele><time>2026-04-12T08:34:41.237Z</time></trkpt><trkpt lat="43.7979783" lon="11.6092504"><ele>903.9999999999999</ele><time>2026-04-12T08:34:43.244Z</time></trkpt><trkpt lat="43.7979356" lon="11.609317"><ele>904.0</ele><time>2026-04-12T08:34:45.245Z</time></trkpt><trkpt lat="43.7978642" lon="11.6093473"><ele>904.0</ele><time>2026-04-12T08:34:46.315Z</time></trkpt><trkpt lat="43.7977736" lon="11.6093732"><ele>904.0</ele><time>2026-04-12T08:34:47.315Z</time></trkpt><trkpt lat="43.7976726" lon="11.6093988"><ele>903.9999999999999</ele><time>2026-04-12T08:34:48.296Z</time></trkpt><trkpt lat="43.7975693" lon="11.609426"><ele>904.0</ele><time>2026-04-12T08:34:49.491Z</time></trkpt><trkpt lat="43.7973646" lon="11.609473"><ele>903.6</ele><time>2026-04-12T08:34:51.341Z</time></trkpt><trkpt lat="43.7972575" lon="11.6094971"><ele>903.2</ele><time>2026-04-12T08:34:52.329Z</time></trkpt><trkpt lat="43.7971532" lon="11.60953"><ele>902.8000000000001</ele><time>2026-04-12T08:34:53.321Z</time></trkpt><trkpt lat="43.7970455" lon="11.609566"><ele>902.4000000000001</ele><time>2026-04-12T08:34:54.334Z</time></trkpt><trkpt lat="43.796941" lon="11.6095932"><ele>902.0</ele><time>2026-04-12T08:34:55.333Z</time></trkpt><trkpt lat="43.7968336" lon="11.6096273"><ele>901.25</ele><time>2026-04-12T08:34:56.281Z</time></trkpt><trkpt lat="43.7967247" lon="11.6096661"><ele>900.5</ele><time>2026-04-12T08:34:57.259Z</time></trkpt><trkpt lat="43.796618" lon="11.6097038"><ele>899.75</ele><time>2026-04-12T08:34:58.537Z</time></trkpt><trkpt lat="43.7964287" lon="11.6097604"><ele>899.0</ele><time>2026-04-12T08:35:00.268Z</time></trkpt><trkpt lat="43.7963312" lon="11.6097974"><ele>899.0</ele><time>2026-04-12T08:35:01.232Z</time></trkpt><trkpt lat="43.7962342" lon="11.6098364"><ele>899.0000000000001</ele><time>2026-04-12T08:35:02.318Z</time></trkpt><trkpt lat="43.796131" lon="11.6098795"><ele>899.0000000000001</ele><time>2026-04-12T08:35:03.345Z</time></trkpt><trkpt lat="43.7960324" lon="11.6099264"><ele>899.0</ele><time>2026-04-12T08:35:04.321Z</time></trkpt><trkpt lat="43.7959261" lon="11.6100067"><ele>899.0</ele><time>2026-04-12T08:35:05.272Z</time></trkpt><trkpt lat="43.7958192" lon="11.6101066"><ele>899.25</ele><time>2026-04-12T08:35:06.328Z</time></trkpt><trkpt lat="43.7957248" lon="11.6102332"><ele>899.5</ele><time>2026-04-12T08:35:07.332Z</time></trkpt><trkpt lat="43.7956481" lon="11.6103834"><ele>899.75</ele><time>2026-04-12T08:35:08.336Z</time></trkpt><trkpt lat="43.7955839" lon="11.6105364"><ele>900.0</ele><time>2026-04-12T08:35:09.325Z</time></trkpt><trkpt lat="43.795519" lon="11.610691"><ele>898.75</ele><time>2026-04-12T08:35:10.35Z</time></trkpt><trkpt lat="43.7954514" lon="11.6108391"><ele>897.5</ele><time>2026-04-12T08:35:11.338Z</time></trkpt><trkpt lat="43.795383" lon="11.6109742"><ele>896.25</ele><time>2026-04-12T08:35:12.324Z</time></trkpt><trkpt lat="43.7953157" lon="11.6111126"><ele>895.0</ele><time>2026-04-12T08:35:13.343Z</time></trkpt><trkpt lat="43.7952213" lon="11.6112285"><ele>897.0</ele><time>2026-04-12T08:35:14.295Z</time></trkpt><trkpt lat="43.795113" lon="11.6113356"><ele>899.0</ele><time>2026-04-12T08:35:15.299Z</time></trkpt><trkpt lat="43.7949892" lon="11.6114557"><ele>901.0</ele><time>2026-04-12T08:35:16.311Z</time></trkpt><trkpt lat="43.7948627" lon="11.6115864"><ele>903.0</ele><time>2026-04-12T08:35:17.331Z</time></trkpt><trkpt lat="43.7947394" lon="11.6117021"><ele>903.0</ele><time>2026-04-12T08:35:18.578Z</time></trkpt><trkpt lat="43.7944607" lon="11.611928"><ele>903.0</ele><time>2026-04-12T08:35:20.297Z</time></trkpt><trkpt lat="43.7943135" lon="11.6120449"><ele>906.0</ele><time>2026-04-12T08:35:21.238Z</time></trkpt><trkpt lat="43.7941749" lon="11.6121469"><ele>909.0</ele><time>2026-04-12T08:35:22.26Z</time></trkpt><trkpt lat="43.7940393" lon="11.6122465"><ele>912.0</ele><time>2026-04-12T08:35:23.26Z</time></trkpt><trkpt lat="43.7939092" lon="11.6123269"><ele>912.0</ele><time>2026-04-12T08:35:24.282Z</time></trkpt><trkpt lat="43.7937758" lon="11.6123437"><ele>912.0</ele><time>2026-04-12T08:35:25.489Z</time></trkpt><trkpt lat="43.793509" lon="11.6122835"><ele>912.0</ele><time>2026-04-12T08:35:27.49Z</time></trkpt><trkpt lat="43.7932695" lon="11.6122918"><ele>913.75</ele><time>2026-04-12T08:35:29.266Z</time></trkpt><trkpt lat="43.7931781" lon="11.6123584"><ele>915.5</ele><time>2026-04-12T08:35:30.263Z</time></trkpt><trkpt lat="43.7931013" lon="11.6124685"><ele>917.25</ele><time>2026-04-12T08:35:31.304Z</time></trkpt><trkpt lat="43.7930218" lon="11.612609"><ele>919.0</ele><time>2026-04-12T08:35:32.313Z</time></trkpt><trkpt lat="43.7929352" lon="11.6127782"><ele>918.3333333333333</ele><time>2026-04-12T08:35:33.27Z</time></trkpt><trkpt lat="43.7928156" lon="11.6129676"><ele>917.6666666666667</ele><time>2026-04-12T08:35:34.323Z</time></trkpt><trkpt lat="43.7926893" lon="11.6131375"><ele>917.0</ele><time>2026-04-12T08:35:35.335Z</time></trkpt><trkpt lat="43.7925674" lon="11.6132885"><ele>918.3333333333334</ele><time>2026-04-12T08:35:36.331Z</time></trkpt><trkpt lat="43.7924514" lon="11.6134352"><ele>919.6666666666667</ele><time>2026-04-12T08:35:37.321Z</time></trkpt><trkpt lat="43.7923421" lon="11.6135847"><ele>921.0</ele><time>2026-04-12T08:35:38.332Z</time></trkpt><trkpt lat="43.7922382" lon="11.6137301"><ele>921.0</ele><time>2026-04-12T08:35:39.575Z</time></trkpt><trkpt lat="43.7920218" lon="11.6139963"><ele>921.0</ele><time>2026-04-12T08:35:41.345Z</time></trkpt><trkpt lat="43.7919136" lon="11.6141255"><ele>921.0</ele><time>2026-04-12T08:35:42.327Z</time></trkpt><trkpt lat="43.7917915" lon="11.6142439"><ele>922.5</ele><time>2026-04-12T08:35:43.313Z</time></trkpt><trkpt lat="43.7916878" lon="11.6143725"><ele>924.0</ele><time>2026-04-12T08:35:44.258Z</time></trkpt><trkpt lat="43.7916003" lon="11.6145396"><ele>925.5</ele><time>2026-04-12T08:35:45.252Z</time></trkpt><trkpt lat="43.7915418" lon="11.6147299"><ele>927.0</ele><time>2026-04-12T08:35:46.235Z</time></trkpt><trkpt lat="43.7914973" lon="11.6149432"><ele>927.5</ele><time>2026-04-12T08:35:47.487Z</time></trkpt><trkpt lat="43.791445" lon="11.6153566"><ele>928.0</ele><time>2026-04-12T08:35:49.447Z</time></trkpt><trkpt lat="43.7913021" lon="11.615695"><ele>928.0</ele><time>2026-04-12T08:35:51.267Z</time></trkpt><trkpt lat="43.7911656" lon="11.6158145"><ele>928.0</ele><time>2026-04-12T08:35:52.253Z</time></trkpt><trkpt lat="43.7910422" lon="11.6159541"><ele>928.0</ele><time>2026-04-12T08:35:53.247Z</time></trkpt><trkpt lat="43.7909388" lon="11.6161178"><ele>928.0</ele><time>2026-04-12T08:35:54.309Z</time></trkpt><trkpt lat="43.790873" lon="11.6163338"><ele>928.0</ele><time>2026-04-12T08:35:55.232Z</time></trkpt><trkpt lat="43.7908306" lon="11.6165949"><ele>928.0</ele><time>2026-04-12T08:35:56.242Z</time></trkpt><trkpt lat="43.790787" lon="11.6168635"><ele>925.5</ele><time>2026-04-12T08:35:57.344Z</time></trkpt><trkpt lat="43.7907355" lon="11.6171314"><ele>923.0</ele><time>2026-04-12T08:35:58.521Z</time></trkpt><trkpt lat="43.7906729" lon="11.6175982"><ele>923.0</ele><time>2026-04-12T08:36:00.32Z</time></trkpt><trkpt lat="43.7906354" lon="11.6178153"><ele>923.0</ele><time>2026-04-12T08:36:01.326Z</time></trkpt><trkpt lat="43.7905942" lon="11.6180231"><ele>923.0</ele><time>2026-04-12T08:36:02.314Z</time></trkpt><trkpt lat="43.7905575" lon="11.6182256"><ele>921.0</ele><time>2026-04-12T08:36:03.537Z</time></trkpt><trkpt lat="43.7904681" lon="11.6185827"><ele>919.0</ele><time>2026-04-12T08:36:05.297Z</time></trkpt><trkpt lat="43.7904015" lon="11.6187317"><ele>917.0</ele><time>2026-04-12T08:36:06.325Z</time></trkpt><trkpt lat="43.7903009" lon="11.6188515"><ele>916.5</ele><time>2026-04-12T08:36:07.28Z</time></trkpt><trkpt lat="43.7901765" lon="11.6189508"><ele>916.0</ele><time>2026-04-12T08:36:08.316Z</time></trkpt><trkpt lat="43.7900538" lon="11.619064"><ele>915.5</ele><time>2026-04-12T08:36:09.312Z</time></trkpt><trkpt lat="43.7899455" lon="11.6191959"><ele>915.0</ele><time>2026-04-12T08:36:10.324Z</time></trkpt><trkpt lat="43.7898516" lon="11.6193675"><ele>916.3333333333333</ele><time>2026-04-12T08:36:11.299Z</time></trkpt><trkpt lat="43.7897802" lon="11.6195406"><ele>917.6666666666666</ele><time>2026-04-12T08:36:12.513Z</time></trkpt><trkpt lat="43.7896343" lon="11.6198623"><ele>919.0</ele><time>2026-04-12T08:36:14.327Z</time></trkpt><trkpt lat="43.7895339" lon="11.620004"><ele>919.0</ele><time>2026-04-12T08:36:15.317Z</time></trkpt><trkpt lat="43.7894223" lon="11.6201417"><ele>919.0</ele><time>2026-04-12T08:36:16.333Z</time></trkpt><trkpt lat="43.7893086" lon="11.6202639"><ele>919.0</ele><time>2026-04-12T08:36:17.319Z</time></trkpt><trkpt lat="43.7892036" lon="11.6203717"><ele>919.0</ele><time>2026-04-12T08:36:18.322Z</time></trkpt><trkpt lat="43.7891015" lon="11.6204879"><ele>919.0</ele><time>2026-04-12T08:36:19.298Z</time></trkpt><trkpt lat="43.7890147" lon="11.6206344"><ele>919.0</ele><time>2026-04-12T08:36:20.565Z</time></trkpt><trkpt lat="43.7889051" lon="11.6210293"><ele>919.0</ele><time>2026-04-12T08:36:22.453Z</time></trkpt><trkpt lat="43.7888127" lon="11.6214243"><ele>919.0</ele><time>2026-04-12T08:36:24.518Z</time></trkpt><trkpt lat="43.7885965" lon="11.6217154"><ele>919.0</ele><time>2026-04-12T08:36:26.292Z</time></trkpt><trkpt lat="43.7884594" lon="11.6218366"><ele>922.3333333333333</ele><time>2026-04-12T08:36:27.494Z</time></trkpt><trkpt lat="43.7882464" lon="11.6220348"><ele>925.6666666666667</ele><time>2026-04-12T08:36:29.424Z</time></trkpt><trkpt lat="43.7880991" lon="11.6221795"><ele>929.0</ele><time>2026-04-12T08:36:31.288Z</time></trkpt><trkpt lat="43.7879925" lon="11.6223116"><ele>929.0</ele><time>2026-04-12T08:36:34.259Z</time></trkpt><trkpt lat="43.7880308" lon="11.6225115"><ele>929.0</ele><time>2026-04-12T08:36:36.262Z</time></trkpt><trkpt lat="43.7880869" lon="11.6226491"><ele>929.0</ele><time>2026-04-12T08:36:37.309Z</time></trkpt><trkpt lat="43.7881481" lon="11.6228169"><ele>929.0</ele><time>2026-04-12T08:36:38.301Z</time></trkpt><trkpt lat="43.7882148" lon="11.6229983"><ele>929.0</ele><time>2026-04-12T08:36:39.321Z</time></trkpt><trkpt lat="43.7882793" lon="11.6231957"><ele>929.0</ele><time>2026-04-12T08:36:40.347Z</time></trkpt><trkpt lat="43.7883396" lon="11.6233966"><ele>929.0</ele><time>2026-04-12T08:36:41.317Z</time></trkpt><trkpt lat="43.7883757" lon="11.6235832"><ele>931.6</ele><time>2026-04-12T08:36:42.32Z</time></trkpt><trkpt lat="43.7883775" lon="11.6237562"><ele>934.2</ele><time>2026-04-12T08:36:43.319Z</time></trkpt><trkpt lat="43.7883597" lon="11.6239266"><ele>936.8000000000001</ele><time>2026-04-12T08:36:44.315Z</time></trkpt><trkpt lat="43.788365" lon="11.6240658"><ele>939.4000000000001</ele><time>2026-04-12T08:36:45.32Z</time></trkpt><trkpt lat="43.7884007" lon="11.6241692"><ele>942.0</ele><time>2026-04-12T08:36:46.303Z</time></trkpt><trkpt lat="43.7884636" lon="11.6242626"><ele>942.75</ele><time>2026-04-12T08:36:47.296Z</time></trkpt><trkpt lat="43.7885476" lon="11.6243526"><ele>943.5</ele><time>2026-04-12T08:36:48.306Z</time></trkpt><trkpt lat="43.7886476" lon="11.6244468"><ele>944.25</ele><time>2026-04-12T08:36:49.328Z</time></trkpt><trkpt lat="43.7887607" lon="11.6245417"><ele>945.0</ele><time>2026-04-12T08:36:50.323Z</time></trkpt><trkpt lat="43.7888579" lon="11.6246771"><ele>945.0</ele><time>2026-04-12T08:36:51.322Z</time></trkpt><trkpt lat="43.7889229" lon="11.6248363"><ele>945.0</ele><time>2026-04-12T08:36:52.306Z</time></trkpt><trkpt lat="43.7889824" lon="11.6250063"><ele>945.0</ele><time>2026-04-12T08:36:53.29Z</time></trkpt><trkpt lat="43.7890384" lon="11.6251632"><ele>945.0</ele><time>2026-04-12T08:36:54.336Z</time></trkpt><trkpt lat="43.7891068" lon="11.6252738"><ele>945.2</ele><time>2026-04-12T08:36:55.304Z</time></trkpt><trkpt lat="43.7891971" lon="11.6253482"><ele>945.4</ele><time>2026-04-12T08:36:56.289Z</time></trkpt><trkpt lat="43.7892925" lon="11.6253766"><ele>945.5999999999999</ele><time>2026-04-12T08:36:57.305Z</time></trkpt><trkpt lat="43.7893905" lon="11.6253802"><ele>945.8</ele><time>2026-04-12T08:36:58.288Z</time></trkpt><trkpt lat="43.7894919" lon="11.6253577"><ele>946.0</ele><time>2026-04-12T08:36:59.3Z</time></trkpt><trkpt lat="43.7895765" lon="11.6253118"><ele>945.9999999999999</ele><time>2026-04-12T08:37:00.28Z</time></trkpt><trkpt lat="43.7896493" lon="11.6252801"><ele>946.0</ele><time>2026-04-12T08:37:01.296Z</time></trkpt><trkpt lat="43.789739" lon="11.6252955"><ele>946.0</ele><time>2026-04-12T08:37:03.277Z</time></trkpt><trkpt lat="43.7897997" lon="11.6254102"><ele>946.0</ele><time>2026-04-12T08:37:05.305Z</time></trkpt><trkpt lat="43.7898771" lon="11.6255073"><ele>945.9999999999999</ele><time>2026-04-12T08:37:07.307Z</time></trkpt><trkpt lat="43.7899414" lon="11.6254927"><ele>946.0</ele><time>2026-04-12T08:37:08.335Z</time></trkpt><trkpt lat="43.7900043" lon="11.6254492"><ele>947.6666666666666</ele><time>2026-04-12T08:37:09.289Z</time></trkpt><trkpt lat="43.7900663" lon="11.6254023"><ele>949.3333333333333</ele><time>2026-04-12T08:37:10.274Z</time></trkpt><trkpt lat="43.7901328" lon="11.6253409"><ele>951.0</ele><time>2026-04-12T08:37:11.297Z</time></trkpt><trkpt lat="43.7901865" lon="11.6252948"><ele>952.6666666666667</ele><time>2026-04-12T08:37:12.295Z</time></trkpt><trkpt lat="43.7902775" lon="11.6252337"><ele>954.3333333333334</ele><time>2026-04-12T08:37:14.313Z</time></trkpt><trkpt lat="43.7903934" lon="11.6252626"><ele>956.0</ele><time>2026-04-12T08:37:16.325Z</time></trkpt><trkpt lat="43.7904552" lon="11.6253327"><ele>958.8</ele><time>2026-04-12T08:37:17.32Z</time></trkpt><trkpt lat="43.7905145" lon="11.6254186"><ele>961.5999999999999</ele><time>2026-04-12T08:37:18.287Z</time></trkpt><trkpt lat="43.7905736" lon="11.6255254"><ele>964.4</ele><time>2026-04-12T08:37:19.284Z</time></trkpt><trkpt lat="43.7906351" lon="11.6256372"><ele>967.2</ele><time>2026-04-12T08:37:20.333Z</time></trkpt><trkpt lat="43.790708" lon="11.625734"><ele>970.0</ele><time>2026-04-12T08:37:21.314Z</time></trkpt><trkpt lat="43.790776" lon="11.6257852"><ele>969.9999999999999</ele><time>2026-04-12T08:37:22.321Z</time></trkpt><trkpt lat="43.7908582" lon="11.6258399"><ele>970.0</ele><time>2026-04-12T08:37:23.335Z</time></trkpt><trkpt lat="43.7909445" lon="11.6259097"><ele>970.0</ele><time>2026-04-12T08:37:24.313Z</time></trkpt><trkpt lat="43.7910307" lon="11.6259682"><ele>970.0</ele><time>2026-04-12T08:37:25.316Z</time></trkpt><trkpt lat="43.7911038" lon="11.6260292"><ele>969.9999999999999</ele><time>2026-04-12T08:37:26.291Z</time></trkpt><trkpt lat="43.7911294" lon="11.6261138"><ele>970.0</ele><time>2026-04-12T08:37:27.299Z</time></trkpt><trkpt lat="43.7910896" lon="11.626243"><ele>969.6666666666666</ele><time>2026-04-12T08:37:29.298Z</time></trkpt><trkpt lat="43.7910268" lon="11.6262652"><ele>969.3333333333333</ele><time>2026-04-12T08:37:30.281Z</time></trkpt><trkpt lat="43.7909405" lon="11.6262774"><ele>969.0</ele><time>2026-04-12T08:37:31.29Z</time></trkpt><trkpt lat="43.7908698" lon="11.6263012"><ele>968.6666666666667</ele><time>2026-04-12T08:37:32.308Z</time></trkpt><trkpt lat="43.7908072" lon="11.6263387"><ele>968.3333333333334</ele><time>2026-04-12T08:37:33.328Z</time></trkpt><trkpt lat="43.7907298" lon="11.6264583"><ele>968.0</ele><time>2026-04-12T08:37:35.33Z</time></trkpt><trkpt lat="43.7906804" lon="11.6265385"><ele>969.8333333333334</ele><time>2026-04-12T08:37:36.307Z</time></trkpt><trkpt lat="43.7906233" lon="11.6266225"><ele>971.6666666666667</ele><time>2026-04-12T08:37:37.304Z</time></trkpt><trkpt lat="43.79057" lon="11.6267109"><ele>973.5</ele><time>2026-04-12T08:37:38.328Z</time></trkpt><trkpt lat="43.7905255" lon="11.626796"><ele>975.3333333333333</ele><time>2026-04-12T08:37:39.309Z</time></trkpt><trkpt lat="43.7904814" lon="11.6268784"><ele>977.1666666666666</ele><time>2026-04-12T08:37:40.335Z</time></trkpt><trkpt lat="43.7904345" lon="11.6269583"><ele>979.0</ele><time>2026-04-12T08:37:41.326Z</time></trkpt><trkpt lat="43.7903815" lon="11.6270487"><ele>980.4000000000001</ele><time>2026-04-12T08:37:42.349Z</time></trkpt><trkpt lat="43.7903165" lon="11.6271468"><ele>981.8000000000001</ele><time>2026-04-12T08:37:43.323Z</time></trkpt><trkpt lat="43.7902369" lon="11.6272234"><ele>983.1999999999999</ele><time>2026-04-12T08:37:44.33Z</time></trkpt><trkpt lat="43.7901242" lon="11.62727"><ele>984.5999999999999</ele><time>2026-04-12T08:37:45.323Z</time></trkpt><trkpt lat="43.7899914" lon="11.6273011"><ele>986.0</ele><time>2026-04-12T08:37:46.3Z</time></trkpt><trkpt lat="43.7898546" lon="11.6273373"><ele>987.5</ele><time>2026-04-12T08:37:47.339Z</time></trkpt><trkpt lat="43.7897323" lon="11.627383"><ele>989.0</ele><time>2026-04-12T08:37:48.327Z</time></trkpt><trkpt lat="43.7895989" lon="11.6274327"><ele>990.5</ele><time>2026-04-12T08:37:49.325Z</time></trkpt><trkpt lat="43.7894748" lon="11.6274989"><ele>992.0</ele><time>2026-04-12T08:37:50.316Z</time></trkpt><trkpt lat="43.789379" lon="11.6275579"><ele>993.0</ele><time>2026-04-12T08:37:51.338Z</time></trkpt><trkpt lat="43.7892939" lon="11.6276408"><ele>994.0</ele><time>2026-04-12T08:37:52.331Z</time></trkpt><trkpt lat="43.7892242" lon="11.6277401"><ele>995.0</ele><time>2026-04-12T08:37:53.326Z</time></trkpt><trkpt lat="43.7891458" lon="11.6278733"><ele>996.0</ele><time>2026-04-12T08:37:54.326Z</time></trkpt><trkpt lat="43.7890629" lon="11.6280364"><ele>997.0</ele><time>2026-04-12T08:37:55.286Z</time></trkpt><trkpt lat="43.7889708" lon="11.6281951"><ele>998.0</ele><time>2026-04-12T08:37:56.327Z</time></trkpt><trkpt lat="43.7888926" lon="11.6283456"><ele>999.0</ele><time>2026-04-12T08:37:57.341Z</time></trkpt><trkpt lat="43.7888144" lon="11.6284766"><ele>1000.0</ele><time>2026-04-12T08:37:58.316Z</time></trkpt><trkpt lat="43.7886986" lon="11.6285579"><ele>1000.0</ele><time>2026-04-12T08:37:59.335Z</time></trkpt><trkpt lat="43.7885737" lon="11.6286104"><ele>1000.0</ele><time>2026-04-12T08:38:00.32Z</time></trkpt><trkpt lat="43.7884718" lon="11.6286625"><ele>1000.0</ele><time>2026-04-12T08:38:01.327Z</time></trkpt><trkpt lat="43.7883924" lon="11.6287297"><ele>1000.0</ele><time>2026-04-12T08:38:02.331Z</time></trkpt><trkpt lat="43.7883372" lon="11.6288193"><ele>1000.0</ele><time>2026-04-12T08:38:03.295Z</time></trkpt><trkpt lat="43.7882925" lon="11.628929"><ele>997.25</ele><time>2026-04-12T08:38:04.293Z</time></trkpt><trkpt lat="43.7882617" lon="11.6290766"><ele>994.5</ele><time>2026-04-12T08:38:05.252Z</time></trkpt><trkpt lat="43.7882319" lon="11.6292633"><ele>991.75</ele><time>2026-04-12T08:38:06.312Z</time></trkpt><trkpt lat="43.7882099" lon="11.629462"><ele>989.0</ele><time>2026-04-12T08:38:07.299Z</time></trkpt><trkpt lat="43.7881827" lon="11.6296394"><ele>987.75</ele><time>2026-04-12T08:38:08.325Z</time></trkpt><trkpt lat="43.7881413" lon="11.6298031"><ele>986.5</ele><time>2026-04-12T08:38:09.327Z</time></trkpt><trkpt lat="43.7880983" lon="11.6299601"><ele>985.25</ele><time>2026-04-12T08:38:10.315Z</time></trkpt><trkpt lat="43.7880565" lon="11.6301022"><ele>984.0</ele><time>2026-04-12T08:38:11.344Z</time></trkpt><trkpt lat="43.7880087" lon="11.6302363"><ele>982.5</ele><time>2026-04-12T08:38:12.319Z</time></trkpt><trkpt lat="43.7879594" lon="11.6303595"><ele>981.0</ele><time>2026-04-12T08:38:13.341Z</time></trkpt><trkpt lat="43.7879056" lon="11.6304812"><ele>979.5</ele><time>2026-04-12T08:38:14.323Z</time></trkpt><trkpt lat="43.7878815" lon="11.6305984"><ele>978.0</ele><time>2026-04-12T08:38:15.294Z</time></trkpt><trkpt lat="43.7878859" lon="11.6306978"><ele>976.5</ele><time>2026-04-12T08:38:16.331Z</time></trkpt><trkpt lat="43.7879007" lon="11.6307933"><ele>975.0</ele><time>2026-04-12T08:38:17.254Z</time></trkpt><trkpt lat="43.7879203" lon="11.6308885"><ele>975.0</ele><time>2026-04-12T08:38:18.264Z</time></trkpt><trkpt lat="43.7879407" lon="11.6309852"><ele>975.0</ele><time>2026-04-12T08:38:19.264Z</time></trkpt><trkpt lat="43.7879734" lon="11.6310879"><ele>975.0</ele><time>2026-04-12T08:38:20.333Z</time></trkpt><trkpt lat="43.7880136" lon="11.6311935"><ele>975.0</ele><time>2026-04-12T08:38:21.309Z</time></trkpt><trkpt lat="43.7880547" lon="11.6312799"><ele>975.0</ele><time>2026-04-12T08:38:22.324Z</time></trkpt><trkpt lat="43.7881127" lon="11.6313512"><ele>975.0</ele><time>2026-04-12T08:38:23.324Z</time></trkpt><trkpt lat="43.7881718" lon="11.6314149"><ele>972.8</ele><time>2026-04-12T08:38:24.248Z</time></trkpt><trkpt lat="43.7882187" lon="11.6314942"><ele>970.6</ele><time>2026-04-12T08:38:25.253Z</time></trkpt><trkpt lat="43.7882367" lon="11.6316194"><ele>968.4000000000001</ele><time>2026-04-12T08:38:26.305Z</time></trkpt><trkpt lat="43.788248" lon="11.6317671"><ele>966.2</ele><time>2026-04-12T08:38:27.307Z</time></trkpt><trkpt lat="43.7882722" lon="11.6319193"><ele>964.0</ele><time>2026-04-12T08:38:28.283Z</time></trkpt><trkpt lat="43.7882894" lon="11.6321081"><ele>963.0</ele><time>2026-04-12T08:38:29.302Z</time></trkpt><trkpt lat="43.7883045" lon="11.6323324"><ele>962.0</ele><time>2026-04-12T08:38:30.318Z</time></trkpt><trkpt lat="43.7883289" lon="11.632544"><ele>961.0</ele><time>2026-04-12T08:38:31.303Z</time></trkpt><trkpt lat="43.7883499" lon="11.6327529"><ele>958.6666666666666</ele><time>2026-04-12T08:38:32.309Z</time></trkpt><trkpt lat="43.7883696" lon="11.6329659"><ele>956.3333333333333</ele><time>2026-04-12T08:38:33.222Z</time></trkpt><trkpt lat="43.788392" lon="11.6331821"><ele>954.0</ele><time>2026-04-12T08:38:34.263Z</time></trkpt><trkpt lat="43.788416" lon="11.6334021"><ele>954.0</ele><time>2026-04-12T08:38:35.327Z</time></trkpt><trkpt lat="43.7884371" lon="11.6336157"><ele>954.0</ele><time>2026-04-12T08:38:36.298Z</time></trkpt><trkpt lat="43.788445" lon="11.633827"><ele>954.0</ele><time>2026-04-12T08:38:37.242Z</time></trkpt><trkpt lat="43.7884328" lon="11.6340264"><ele>954.25</ele><time>2026-04-12T08:38:38.249Z</time></trkpt><trkpt lat="43.788392" lon="11.6342231"><ele>954.5</ele><time>2026-04-12T08:38:39.323Z</time></trkpt><trkpt lat="43.7883159" lon="11.6343839"><ele>954.75</ele><time>2026-04-12T08:38:40.313Z</time></trkpt><trkpt lat="43.7882149" lon="11.6345316"><ele>955.0</ele><time>2026-04-12T08:38:41.314Z</time></trkpt><trkpt lat="43.7881114" lon="11.6346812"><ele>956.75</ele><time>2026-04-12T08:38:42.337Z</time></trkpt><trkpt lat="43.7880165" lon="11.6348393"><ele>958.5</ele><time>2026-04-12T08:38:43.323Z</time></trkpt><trkpt lat="43.7879479" lon="11.6350143"><ele>960.25</ele><time>2026-04-12T08:38:44.322Z</time></trkpt><trkpt lat="43.7878988" lon="11.6352065"><ele>962.0</ele><time>2026-04-12T08:38:45.326Z</time></trkpt><trkpt lat="43.7878633" lon="11.635398"><ele>963.75</ele><time>2026-04-12T08:38:46.304Z</time></trkpt><trkpt lat="43.7878464" lon="11.6356028"><ele>965.5</ele><time>2026-04-12T08:38:47.315Z</time></trkpt><trkpt lat="43.7878382" lon="11.6357983"><ele>967.25</ele><time>2026-04-12T08:38:48.259Z</time></trkpt><trkpt lat="43.7878387" lon="11.636003"><ele>969.0</ele><time>2026-04-12T08:38:49.261Z</time></trkpt><trkpt lat="43.7878621" lon="11.6362205"><ele>969.6666666666667</ele><time>2026-04-12T08:38:50.321Z</time></trkpt><trkpt lat="43.7878893" lon="11.6364356"><ele>970.3333333333334</ele><time>2026-04-12T08:38:51.341Z</time></trkpt><trkpt lat="43.7879053" lon="11.6366583"><ele>971.0</ele><time>2026-04-12T08:38:52.305Z</time></trkpt><trkpt lat="43.7879162" lon="11.6368765"><ele>969.3333333333334</ele><time>2026-04-12T08:38:53.294Z</time></trkpt><trkpt lat="43.7879194" lon="11.6370918"><ele>967.6666666666667</ele><time>2026-04-12T08:38:54.299Z</time></trkpt><trkpt lat="43.7879288" lon="11.6373027"><ele>966.0</ele><time>2026-04-12T08:38:55.328Z</time></trkpt><trkpt lat="43.7879352" lon="11.6375237"><ele>966.0</ele><time>2026-04-12T08:38:56.261Z</time></trkpt><trkpt lat="43.7879457" lon="11.6377377"><ele>966.0</ele><time>2026-04-12T08:38:57.311Z</time></trkpt><trkpt lat="43.7879626" lon="11.6379514"><ele>966.0</ele><time>2026-04-12T08:38:58.316Z</time></trkpt><trkpt lat="43.7879777" lon="11.63816"><ele>963.6666666666667</ele><time>2026-04-12T08:38:59.31Z</time></trkpt><trkpt lat="43.7879791" lon="11.6383679"><ele>961.3333333333334</ele><time>2026-04-12T08:39:00.316Z</time></trkpt><trkpt lat="43.7879611" lon="11.6385769"><ele>959.0</ele><time>2026-04-12T08:39:01.32Z</time></trkpt><trkpt lat="43.7879279" lon="11.638779"><ele>958.2</ele><time>2026-04-12T08:39:02.314Z</time></trkpt><trkpt lat="43.7878877" lon="11.6389551"><ele>957.4000000000001</ele><time>2026-04-12T08:39:03.315Z</time></trkpt><trkpt lat="43.7878453" lon="11.6391119"><ele>956.6</ele><time>2026-04-12T08:39:04.265Z</time></trkpt><trkpt lat="43.7878045" lon="11.6392522"><ele>955.8</ele><time>2026-04-12T08:39:05.292Z</time></trkpt><trkpt lat="43.7877795" lon="11.639363"><ele>955.0</ele><time>2026-04-12T08:39:06.326Z</time></trkpt><trkpt lat="43.7878069" lon="11.6395044"><ele>954.8</ele><time>2026-04-12T08:39:08.319Z</time></trkpt><trkpt lat="43.787853" lon="11.6396473"><ele>954.6</ele><time>2026-04-12T08:39:10.326Z</time></trkpt><trkpt lat="43.7878696" lon="11.6397831"><ele>954.4000000000001</ele><time>2026-04-12T08:39:12.338Z</time></trkpt><trkpt lat="43.7878512" lon="11.6399321"><ele>954.2</ele><time>2026-04-12T08:39:14.325Z</time></trkpt><trkpt lat="43.7878111" lon="11.6400827"><ele>954.0</ele><time>2026-04-12T08:39:16.336Z</time></trkpt><trkpt lat="43.7877391" lon="11.640195"><ele>956.4000000000001</ele><time>2026-04-12T08:39:18.31Z</time></trkpt><trkpt lat="43.7876566" lon="11.640304"><ele>958.8000000000001</ele><time>2026-04-12T08:39:20.326Z</time></trkpt><trkpt lat="43.7875613" lon="11.6404345"><ele>961.1999999999999</ele><time>2026-04-12T08:39:22.336Z</time></trkpt><trkpt lat="43.7875134" lon="11.6405316"><ele>963.5999999999999</ele><time>2026-04-12T08:39:23.323Z</time></trkpt><trkpt lat="43.7874803" lon="11.6406344"><ele>966.0</ele><time>2026-04-12T08:39:24.313Z</time></trkpt><trkpt lat="43.7874478" lon="11.6407518"><ele>966.0</ele><time>2026-04-12T08:39:25.275Z</time></trkpt><trkpt lat="43.7874166" lon="11.6408834"><ele>966.0</ele><time>2026-04-12T08:39:26.296Z</time></trkpt><trkpt lat="43.787396" lon="11.6410363"><ele>966.0</ele><time>2026-04-12T08:39:27.312Z</time></trkpt><trkpt lat="43.7873786" lon="11.6412052"><ele>966.0</ele><time>2026-04-12T08:39:28.322Z</time></trkpt><trkpt lat="43.7873582" lon="11.6414371"><ele>965.0</ele><time>2026-04-12T08:39:29.297Z</time></trkpt><trkpt lat="43.7873387" lon="11.6416346"><ele>963.9999999999999</ele><time>2026-04-12T08:39:30.248Z</time></trkpt><trkpt lat="43.7873082" lon="11.6417706"><ele>962.9999999999999</ele><time>2026-04-12T08:39:31.244Z</time></trkpt><trkpt lat="43.7872895" lon="11.6418775"><ele>962.0</ele><time>2026-04-12T08:39:32.332Z</time></trkpt><trkpt lat="43.7872838" lon="11.6419883"><ele>961.0</ele><time>2026-04-12T08:39:33.285Z</time></trkpt><trkpt lat="43.7872939" lon="11.6421266"><ele>960.5</ele><time>2026-04-12T08:39:34.312Z</time></trkpt><trkpt lat="43.7873066" lon="11.64229"><ele>960.0</ele><time>2026-04-12T08:39:35.328Z</time></trkpt><trkpt lat="43.787335" lon="11.6424508"><ele>959.5</ele><time>2026-04-12T08:39:36.299Z</time></trkpt><trkpt lat="43.7873871" lon="11.6425887"><ele>959.0</ele><time>2026-04-12T08:39:37.243Z</time></trkpt><trkpt lat="43.787458" lon="11.6427226"><ele>959.2</ele><time>2026-04-12T08:39:38.259Z</time></trkpt><trkpt lat="43.7875418" lon="11.6428463"><ele>959.4000000000001</ele><time>2026-04-12T08:39:39.244Z</time></trkpt><trkpt lat="43.7876158" lon="11.6429565"><ele>959.6</ele><time>2026-04-12T08:39:40.323Z</time></trkpt><trkpt lat="43.787666" lon="11.6430601"><ele>959.8</ele><time>2026-04-12T08:39:41.324Z</time></trkpt><trkpt lat="43.7876999" lon="11.6431584"><ele>960.0</ele><time>2026-04-12T08:39:42.316Z</time></trkpt><trkpt lat="43.7877231" lon="11.6432596"><ele>960.0</ele><time>2026-04-12T08:39:43.326Z</time></trkpt><trkpt lat="43.7877445" lon="11.6433582"><ele>960.0</ele><time>2026-04-12T08:39:44.345Z</time></trkpt><trkpt lat="43.7877593" lon="11.6434439"><ele>960.0</ele><time>2026-04-12T08:39:45.323Z</time></trkpt><trkpt lat="43.7877645" lon="11.6435573"><ele>960.0</ele><time>2026-04-12T08:39:47.297Z</time></trkpt><trkpt lat="43.7877646" lon="11.643654"><ele>960.0</ele><time>2026-04-12T08:39:50.31Z</time></trkpt><trkpt lat="43.7877838" lon="11.6437496"><ele>960.0</ele><time>2026-04-12T08:39:54.336Z</time></trkpt><trkpt lat="43.7877776" lon="11.6438723"><ele>960.1666666666666</ele><time>2026-04-12T08:39:57.326Z</time></trkpt><trkpt lat="43.787774" lon="11.644007"><ele>960.3333333333333</ele><time>2026-04-12T08:40:00.317Z</time></trkpt><trkpt lat="43.7878047" lon="11.6441364"><ele>960.5</ele><time>2026-04-12T08:40:02.315Z</time></trkpt><trkpt lat="43.7878128" lon="11.6442231"><ele>960.6666666666666</ele><time>2026-04-12T08:40:03.327Z</time></trkpt><trkpt lat="43.7878091" lon="11.6443262"><ele>960.8333333333333</ele><time>2026-04-12T08:40:04.31Z</time></trkpt><trkpt lat="43.7878066" lon="11.644465"><ele>961.0</ele><time>2026-04-12T08:40:05.306Z</time></trkpt><trkpt lat="43.7878105" lon="11.6445911"><ele>960.9999999999999</ele><time>2026-04-12T08:40:06.291Z</time></trkpt><trkpt lat="43.7878226" lon="11.6447156"><ele>961.0</ele><time>2026-04-12T08:40:07.327Z</time></trkpt><trkpt lat="43.7878283" lon="11.6448422"><ele>961.0</ele><time>2026-04-12T08:40:08.317Z</time></trkpt><trkpt lat="43.7878281" lon="11.6449634"><ele>961.0</ele><time>2026-04-12T08:40:09.305Z</time></trkpt><trkpt lat="43.787823" lon="11.6450793"><ele>960.9999999999999</ele><time>2026-04-12T08:40:10.296Z</time></trkpt><trkpt lat="43.7878148" lon="11.6451807"><ele>961.0</ele><time>2026-04-12T08:40:11.318Z</time></trkpt><trkpt lat="43.7878062" lon="11.6452732"><ele>961.1666666666666</ele><time>2026-04-12T08:40:12.322Z</time></trkpt><trkpt lat="43.7877965" lon="11.6453665"><ele>961.3333333333333</ele><time>2026-04-12T08:40:13.297Z</time></trkpt><trkpt lat="43.787766" lon="11.6455055"><ele>961.5</ele><time>2026-04-12T08:40:15.318Z</time></trkpt><trkpt lat="43.7877192" lon="11.6455797"><ele>961.6666666666667</ele><time>2026-04-12T08:40:18.244Z</time></trkpt><trkpt lat="43.78767" lon="11.6456983"><ele>961.8333333333334</ele><time>2026-04-12T08:40:20.321Z</time></trkpt><trkpt lat="43.787635" lon="11.6457739"><ele>962.0</ele><time>2026-04-12T08:40:21.33Z</time></trkpt><trkpt lat="43.7875979" lon="11.6458544"><ele>962.0000000000001</ele><time>2026-04-12T08:40:22.309Z</time></trkpt><trkpt lat="43.787559" lon="11.6459341"><ele>962.0</ele><time>2026-04-12T08:40:23.327Z</time></trkpt><trkpt lat="43.7875058" lon="11.6460316"><ele>962.0</ele><time>2026-04-12T08:40:25.304Z</time></trkpt><trkpt lat="43.7874813" lon="11.6461363"><ele>962.0</ele><time>2026-04-12T08:40:28.321Z</time></trkpt><trkpt lat="43.78743" lon="11.6462266"><ele>962.0000000000001</ele><time>2026-04-12T08:40:32.301Z</time></trkpt><trkpt lat="43.7873767" lon="11.6463282"><ele>962.0</ele><time>2026-04-12T08:40:34.274Z</time></trkpt><trkpt lat="43.7873349" lon="11.6464557"><ele>962.3333333333334</ele><time>2026-04-12T08:40:36.279Z</time></trkpt><trkpt lat="43.7873086" lon="11.6465794"><ele>962.6666666666667</ele><time>2026-04-12T08:40:38.269Z</time></trkpt><trkpt lat="43.7873021" lon="11.6466728"><ele>963.0</ele><time>2026-04-12T08:40:40.316Z</time></trkpt><trkpt lat="43.7873099" lon="11.6467626"><ele>963.3333333333333</ele><time>2026-04-12T08:40:42.539Z</time></trkpt><trkpt lat="43.7873457" lon="11.6468506"><ele>963.6666666666666</ele><time>2026-04-12T08:40:44.541Z</time></trkpt><trkpt lat="43.7873679" lon="11.6469947"><ele>964.0</ele><time>2026-04-12T08:40:46.309Z</time></trkpt><trkpt lat="43.7873546" lon="11.6470946"><ele>963.9999999999999</ele><time>2026-04-12T08:40:47.307Z</time></trkpt><trkpt lat="43.7873432" lon="11.6472007"><ele>964.0</ele><time>2026-04-12T08:40:48.318Z</time></trkpt><trkpt lat="43.7873428" lon="11.6473007"><ele>964.0</ele><time>2026-04-12T08:40:49.317Z</time></trkpt><trkpt lat="43.7873493" lon="11.6473968"><ele>964.0</ele><time>2026-04-12T08:40:50.312Z</time></trkpt><trkpt lat="43.7873638" lon="11.6474958"><ele>963.9999999999999</ele><time>2026-04-12T08:40:51.303Z</time></trkpt><trkpt lat="43.7873819" lon="11.6475959"><ele>964.0</ele><time>2026-04-12T08:40:52.511Z</time></trkpt><trkpt lat="43.787409" lon="11.6477937"><ele>962.8333333333333</ele><time>2026-04-12T08:40:54.304Z</time></trkpt><trkpt lat="43.7874167" lon="11.6478938"><ele>961.6666666666666</ele><time>2026-04-12T08:40:55.294Z</time></trkpt><trkpt lat="43.7874254" lon="11.6480034"><ele>960.5</ele><time>2026-04-12T08:40:56.245Z</time></trkpt><trkpt lat="43.7874302" lon="11.6481184"><ele>959.3333333333333</ele><time>2026-04-12T08:40:57.254Z</time></trkpt><trkpt lat="43.7874387" lon="11.6482098"><ele>958.1666666666666</ele><time>2026-04-12T08:40:58.335Z</time></trkpt><trkpt lat="43.7874624" lon="11.6483598"><ele>957.0</ele><time>2026-04-12T08:41:00.302Z</time></trkpt><trkpt lat="43.7874764" lon="11.6484602"><ele>957.0</ele><time>2026-04-12T08:41:01.32Z</time></trkpt><trkpt lat="43.7874733" lon="11.648581"><ele>957.0</ele><time>2026-04-12T08:41:02.338Z</time></trkpt><trkpt lat="43.7874493" lon="11.6487307"><ele>957.0</ele><time>2026-04-12T08:41:03.303Z</time></trkpt><trkpt lat="43.7874136" lon="11.6488812"><ele>957.0</ele><time>2026-04-12T08:41:04.509Z</time></trkpt><trkpt lat="43.7873376" lon="11.6491694"><ele>955.3333333333333</ele><time>2026-04-12T08:41:06.296Z</time></trkpt><trkpt lat="43.7872977" lon="11.6493215"><ele>953.6666666666666</ele><time>2026-04-12T08:41:07.565Z</time></trkpt><trkpt lat="43.7872306" lon="11.6496203"><ele>952.0</ele><time>2026-04-12T08:41:09.292Z</time></trkpt><trkpt lat="43.7871994" lon="11.6497801"><ele>952.0</ele><time>2026-04-12T08:41:10.482Z</time></trkpt><trkpt lat="43.787116" lon="11.6501293"><ele>952.0</ele><time>2026-04-12T08:41:12.523Z</time></trkpt><trkpt lat="43.787057" lon="11.6503049"><ele>952.0</ele><time>2026-04-12T08:41:13.262Z</time></trkpt><trkpt lat="43.7869991" lon="11.6504699"><ele>954.0</ele><time>2026-04-12T08:41:14.287Z</time></trkpt><trkpt lat="43.7869552" lon="11.6506265"><ele>956.0</ele><time>2026-04-12T08:41:15.528Z</time></trkpt><trkpt lat="43.7868933" lon="11.6509175"><ele>958.0</ele><time>2026-04-12T08:41:17.561Z</time></trkpt><trkpt lat="43.7868261" lon="11.651237"><ele>961.3333333333333</ele><time>2026-04-12T08:41:19.599Z</time></trkpt><trkpt lat="43.7867534" lon="11.651583"><ele>964.6666666666667</ele><time>2026-04-12T08:41:21.247Z</time></trkpt><trkpt lat="43.7867185" lon="11.6517339"><ele>968.0</ele><time>2026-04-12T08:41:22.343Z</time></trkpt><trkpt lat="43.7866883" lon="11.6518708"><ele>970.4</ele><time>2026-04-12T08:41:23.543Z</time></trkpt><trkpt lat="43.7866398" lon="11.6521023"><ele>972.8</ele><time>2026-04-12T08:41:25.324Z</time></trkpt><trkpt lat="43.7866178" lon="11.6522103"><ele>975.2</ele><time>2026-04-12T08:41:26.331Z</time></trkpt><trkpt lat="43.7865945" lon="11.6523223"><ele>977.6</ele><time>2026-04-12T08:41:27.338Z</time></trkpt><trkpt lat="43.7865718" lon="11.6524419"><ele>980.0</ele><time>2026-04-12T08:41:28.55Z</time></trkpt><trkpt lat="43.7865212" lon="11.6526868"><ele>981.5000000000001</ele><time>2026-04-12T08:41:30.322Z</time></trkpt><trkpt lat="43.7864855" lon="11.6528014"><ele>983.0</ele><time>2026-04-12T08:41:31.326Z</time></trkpt><trkpt lat="43.786435" lon="11.6528964"><ele>984.5</ele><time>2026-04-12T08:41:32.332Z</time></trkpt><trkpt lat="43.7863736" lon="11.6529623"><ele>986.0</ele><time>2026-04-12T08:41:33.304Z</time></trkpt><trkpt lat="43.7863012" lon="11.6530051"><ele>987.5000000000001</ele><time>2026-04-12T08:41:34.277Z</time></trkpt><trkpt lat="43.7862294" lon="11.6530305"><ele>989.0</ele><time>2026-04-12T08:41:35.266Z</time></trkpt><trkpt lat="43.7861629" lon="11.6530541"><ele>989.0000000000001</ele><time>2026-04-12T08:41:36.254Z</time></trkpt><trkpt lat="43.7860952" lon="11.6531025"><ele>989.0</ele><time>2026-04-12T08:41:37.315Z</time></trkpt><trkpt lat="43.7860405" lon="11.6531623"><ele>989.0</ele><time>2026-04-12T08:41:38.302Z</time></trkpt><trkpt lat="43.7859947" lon="11.6532286"><ele>989.0</ele><time>2026-04-12T08:41:39.312Z</time></trkpt><trkpt lat="43.7859486" lon="11.6533135"><ele>989.0000000000001</ele><time>2026-04-12T08:41:40.301Z</time></trkpt><trkpt lat="43.7859027" lon="11.6534139"><ele>989.0</ele><time>2026-04-12T08:41:41.331Z</time></trkpt><trkpt lat="43.7858455" lon="11.6535247"><ele>991.8000000000001</ele><time>2026-04-12T08:41:42.305Z</time></trkpt><trkpt lat="43.7857864" lon="11.65364"><ele>994.6000000000001</ele><time>2026-04-12T08:41:43.336Z</time></trkpt><trkpt lat="43.7857347" lon="11.6537503"><ele>997.4</ele><time>2026-04-12T08:41:44.268Z</time></trkpt><trkpt lat="43.7856899" lon="11.6538481"><ele>1000.2</ele><time>2026-04-12T08:41:45.304Z</time></trkpt><trkpt lat="43.7856468" lon="11.6539562"><ele>1003.0</ele><time>2026-04-12T08:41:46.297Z</time></trkpt><trkpt lat="43.7856193" lon="11.654069"><ele>1003.0</ele><time>2026-04-12T08:41:47.332Z</time></trkpt><trkpt lat="43.7855768" lon="11.654224"><ele>1003.0</ele><time>2026-04-12T08:41:48.341Z</time></trkpt><trkpt lat="43.7855258" lon="11.6544023"><ele>1003.0</ele><time>2026-04-12T08:41:49.265Z</time></trkpt><trkpt lat="43.7854528" lon="11.6545805"><ele>1003.0</ele><time>2026-04-12T08:41:50.258Z</time></trkpt><trkpt lat="43.7853647" lon="11.6547339"><ele>1001.25</ele><time>2026-04-12T08:41:51.338Z</time></trkpt><trkpt lat="43.7852715" lon="11.6548711"><ele>999.5</ele><time>2026-04-12T08:41:52.313Z</time></trkpt><trkpt lat="43.7851843" lon="11.6550043"><ele>997.75</ele><time>2026-04-12T08:41:53.326Z</time></trkpt><trkpt lat="43.785106" lon="11.6551331"><ele>996.0</ele><time>2026-04-12T08:41:54.266Z</time></trkpt><trkpt lat="43.7850283" lon="11.6552803"><ele>994.75</ele><time>2026-04-12T08:41:55.281Z</time></trkpt><trkpt lat="43.7849734" lon="11.6554509"><ele>993.5</ele><time>2026-04-12T08:41:56.315Z</time></trkpt><trkpt lat="43.7849235" lon="11.6556235"><ele>992.25</ele><time>2026-04-12T08:41:57.304Z</time></trkpt><trkpt lat="43.7848691" lon="11.6557744"><ele>991.0</ele><time>2026-04-12T08:41:58.3Z</time></trkpt><trkpt lat="43.7848001" lon="11.6559086"><ele>991.0</ele><time>2026-04-12T08:41:59.305Z</time></trkpt><trkpt lat="43.7847238" lon="11.6560292"><ele>991.0</ele><time>2026-04-12T08:42:00.251Z</time></trkpt><trkpt lat="43.7846455" lon="11.6561456"><ele>991.0</ele><time>2026-04-12T08:42:01.259Z</time></trkpt><trkpt lat="43.7845688" lon="11.6562574"><ele>991.0</ele><time>2026-04-12T08:42:02.269Z</time></trkpt><trkpt lat="43.7844984" lon="11.6563762"><ele>988.6666666666666</ele><time>2026-04-12T08:42:03.311Z</time></trkpt><trkpt lat="43.784441" lon="11.6565072"><ele>986.3333333333333</ele><time>2026-04-12T08:42:04.515Z</time></trkpt><trkpt lat="43.7843999" lon="11.6568181"><ele>984.0</ele><time>2026-04-12T08:42:06.329Z</time></trkpt><trkpt lat="43.7844118" lon="11.6569961"><ele>982.25</ele><time>2026-04-12T08:42:07.251Z</time></trkpt><trkpt lat="43.7844205" lon="11.6571697"><ele>980.5</ele><time>2026-04-12T08:42:08.304Z</time></trkpt><trkpt lat="43.7844139" lon="11.6573448"><ele>978.75</ele><time>2026-04-12T08:42:09.317Z</time></trkpt><trkpt lat="43.7843824" lon="11.6575176"><ele>977.0</ele><time>2026-04-12T08:42:10.292Z</time></trkpt><trkpt lat="43.7843333" lon="11.6577065"><ele>975.6666666666667</ele><time>2026-04-12T08:42:11.304Z</time></trkpt><trkpt lat="43.7842813" lon="11.6579117"><ele>974.3333333333333</ele><time>2026-04-12T08:42:12.32Z</time></trkpt><trkpt lat="43.784228" lon="11.6581031"><ele>973.0</ele><time>2026-04-12T08:42:13.504Z</time></trkpt><trkpt lat="43.7841294" lon="11.6583974"><ele>973.0</ele><time>2026-04-12T08:42:15.369Z</time></trkpt><trkpt lat="43.7840495" lon="11.658483"><ele>973.0</ele><time>2026-04-12T08:42:16.332Z</time></trkpt><trkpt lat="43.7839393" lon="11.6585402"><ele>973.0</ele><time>2026-04-12T08:42:17.322Z</time></trkpt><trkpt lat="43.7838181" lon="11.6586184"><ele>973.0</ele><time>2026-04-12T08:42:18.312Z</time></trkpt><trkpt lat="43.7836973" lon="11.6587154"><ele>973.0</ele><time>2026-04-12T08:42:19.517Z</time></trkpt><trkpt lat="43.7834831" lon="11.6588972"><ele>973.0</ele><time>2026-04-12T08:42:21.295Z</time></trkpt><trkpt lat="43.7834113" lon="11.6590135"><ele>973.0</ele><time>2026-04-12T08:42:22.33Z</time></trkpt><trkpt lat="43.7833473" lon="11.6591396"><ele>973.0</ele><time>2026-04-12T08:42:23.282Z</time></trkpt><trkpt lat="43.7832855" lon="11.6592575"><ele>973.0</ele><time>2026-04-12T08:42:24.313Z</time></trkpt><trkpt lat="43.7832146" lon="11.659365"><ele>973.0</ele><time>2026-04-12T08:42:25.314Z</time></trkpt><trkpt lat="43.7831323" lon="11.6594406"><ele>973.0</ele><time>2026-04-12T08:42:26.314Z</time></trkpt><trkpt lat="43.7830492" lon="11.6595398"><ele>973.0</ele><time>2026-04-12T08:42:27.329Z</time></trkpt><trkpt lat="43.7829728" lon="11.659654"><ele>972.75</ele><time>2026-04-12T08:42:28.484Z</time></trkpt><trkpt lat="43.7828304" lon="11.6598947"><ele>972.5</ele><time>2026-04-12T08:42:30.288Z</time></trkpt><trkpt lat="43.7827628" lon="11.6600192"><ele>972.25</ele><time>2026-04-12T08:42:31.306Z</time></trkpt><trkpt lat="43.7826914" lon="11.6601259"><ele>972.0</ele><time>2026-04-12T08:42:32.321Z</time></trkpt><trkpt lat="43.7826167" lon="11.6602192"><ele>969.0</ele><time>2026-04-12T08:42:33.309Z</time></trkpt><trkpt lat="43.7825514" lon="11.6603287"><ele>966.0</ele><time>2026-04-12T08:42:34.319Z</time></trkpt><trkpt lat="43.782516" lon="11.6604523"><ele>963.0</ele><time>2026-04-12T08:42:35.322Z</time></trkpt><trkpt lat="43.7825159" lon="11.6605832"><ele>960.0</ele><time>2026-04-12T08:42:36.323Z</time></trkpt><trkpt lat="43.7825236" lon="11.6607118"><ele>957.0</ele><time>2026-04-12T08:42:37.281Z</time></trkpt><trkpt lat="43.7825154" lon="11.6608329"><ele>957.0</ele><time>2026-04-12T08:42:38.329Z</time></trkpt><trkpt lat="43.7824706" lon="11.6609486"><ele>957.0</ele><time>2026-04-12T08:42:39.32Z</time></trkpt><trkpt lat="43.7824014" lon="11.6610719"><ele>957.0</ele><time>2026-04-12T08:42:40.252Z</time></trkpt><trkpt lat="43.7823362" lon="11.6612154"><ele>957.0</ele><time>2026-04-12T08:42:41.246Z</time></trkpt><trkpt lat="43.7822651" lon="11.6613449"><ele>957.0</ele><time>2026-04-12T08:42:42.333Z</time></trkpt><trkpt lat="43.7822213" lon="11.6614488"><ele>954.8</ele><time>2026-04-12T08:42:43.277Z</time></trkpt><trkpt lat="43.7821598" lon="11.6615086"><ele>952.6</ele><time>2026-04-12T08:42:44.263Z</time></trkpt><trkpt lat="43.7820837" lon="11.6615014"><ele>950.3999999999999</ele><time>2026-04-12T08:42:45.239Z</time></trkpt><trkpt lat="43.7819851" lon="11.6614271"><ele>948.1999999999999</ele><time>2026-04-12T08:42:46.339Z</time></trkpt><trkpt lat="43.7818783" lon="11.661321"><ele>946.0</ele><time>2026-04-12T08:42:47.327Z</time></trkpt><trkpt lat="43.7817673" lon="11.6612192"><ele>945.3333333333333</ele><time>2026-04-12T08:42:48.318Z</time></trkpt><trkpt lat="43.7816703" lon="11.6611509"><ele>944.6666666666666</ele><time>2026-04-12T08:42:49.313Z</time></trkpt><trkpt lat="43.7816004" lon="11.6611104"><ele>944.0</ele><time>2026-04-12T08:42:50.318Z</time></trkpt><trkpt lat="43.7815392" lon="11.661077"><ele>943.3333333333333</ele><time>2026-04-12T08:42:51.327Z</time></trkpt><trkpt lat="43.7814801" lon="11.6610279"><ele>942.6666666666666</ele><time>2026-04-12T08:42:53.336Z</time></trkpt><trkpt lat="43.7813823" lon="11.6610247"><ele>942.0</ele><time>2026-04-12T08:42:59.33Z</time></trkpt><trkpt lat="43.7813235" lon="11.6610624"><ele>942.0</ele><time>2026-04-12T08:43:00.288Z</time></trkpt><trkpt lat="43.7812535" lon="11.6611013"><ele>942.0</ele><time>2026-04-12T08:43:01.29Z</time></trkpt><trkpt lat="43.7811619" lon="11.6611412"><ele>942.0</ele><time>2026-04-12T08:43:02.497Z</time></trkpt><trkpt lat="43.7809461" lon="11.6611811"><ele>942.0</ele><time>2026-04-12T08:43:04.279Z</time></trkpt><trkpt lat="43.7808275" lon="11.661209"><ele>938.5</ele><time>2026-04-12T08:43:05.325Z</time></trkpt><trkpt lat="43.7806958" lon="11.661234"><ele>935.0</ele><time>2026-04-12T08:43:06.317Z</time></trkpt><trkpt lat="43.7805628" lon="11.6612573"><ele>931.5</ele><time>2026-04-12T08:43:07.317Z</time></trkpt><trkpt lat="43.7804393" lon="11.661276"><ele>928.0</ele><time>2026-04-12T08:43:08.326Z</time></trkpt><trkpt lat="43.7803243" lon="11.6613038"><ele>928.0</ele><time>2026-04-12T08:43:09.312Z</time></trkpt><trkpt lat="43.7802138" lon="11.6613535"><ele>928.0</ele><time>2026-04-12T08:43:10.268Z</time></trkpt><trkpt lat="43.7801088" lon="11.6614297"><ele>928.0</ele><time>2026-04-12T08:43:11.274Z</time></trkpt><trkpt lat="43.7800078" lon="11.6615221"><ele>928.0</ele><time>2026-04-12T08:43:12.257Z</time></trkpt><trkpt lat="43.7799085" lon="11.6616364"><ele>927.4</ele><time>2026-04-12T08:43:13.254Z</time></trkpt><trkpt lat="43.7798079" lon="11.6617666"><ele>926.8</ele><time>2026-04-12T08:43:14.333Z</time></trkpt><trkpt lat="43.7797194" lon="11.6618809"><ele>926.2</ele><time>2026-04-12T08:43:15.341Z</time></trkpt><trkpt lat="43.7796383" lon="11.6619572"><ele>925.6</ele><time>2026-04-12T08:43:16.342Z</time></trkpt><trkpt lat="43.7795522" lon="11.6620025"><ele>925.0</ele><time>2026-04-12T08:43:17.337Z</time></trkpt><trkpt lat="43.7794513" lon="11.6620252"><ele>924.5</ele><time>2026-04-12T08:43:18.545Z</time></trkpt><trkpt lat="43.7792413" lon="11.66206"><ele>924.0</ele><time>2026-04-12T08:43:20.307Z</time></trkpt><trkpt lat="43.7791266" lon="11.6620646"><ele>923.5</ele><time>2026-04-12T08:43:21.328Z</time></trkpt><trkpt lat="43.7790202" lon="11.6620709"><ele>923.0</ele><time>2026-04-12T08:43:22.305Z</time></trkpt><trkpt lat="43.7789296" lon="11.6620986"><ele>923.0</ele><time>2026-04-12T08:43:23.307Z</time></trkpt><trkpt lat="43.7788417" lon="11.6621546"><ele>923.0</ele><time>2026-04-12T08:43:24.34Z</time></trkpt><trkpt lat="43.7787526" lon="11.6622331"><ele>923.0</ele><time>2026-04-12T08:43:25.336Z</time></trkpt><trkpt lat="43.7786702" lon="11.6623452"><ele>923.0</ele><time>2026-04-12T08:43:26.314Z</time></trkpt><trkpt lat="43.7785807" lon="11.6624683"><ele>923.0</ele><time>2026-04-12T08:43:27.354Z</time></trkpt><trkpt lat="43.7784959" lon="11.6625612"><ele>921.4</ele><time>2026-04-12T08:43:28.344Z</time></trkpt><trkpt lat="43.7784098" lon="11.6626384"><ele>919.8</ele><time>2026-04-12T08:43:29.321Z</time></trkpt><trkpt lat="43.7783016" lon="11.662689"><ele>918.2</ele><time>2026-04-12T08:43:30.315Z</time></trkpt><trkpt lat="43.778189" lon="11.6627325"><ele>916.6</ele><time>2026-04-12T08:43:31.258Z</time></trkpt><trkpt lat="43.7780953" lon="11.6627693"><ele>915.0</ele><time>2026-04-12T08:43:32.27Z</time></trkpt><trkpt lat="43.7780107" lon="11.6627774"><ele>915.0</ele><time>2026-04-12T08:43:33.335Z</time></trkpt><trkpt lat="43.7779211" lon="11.662723"><ele>915.0</ele><time>2026-04-12T08:43:34.614Z</time></trkpt><trkpt lat="43.7777192" lon="11.6625657"><ele>915.0</ele><time>2026-04-12T08:43:36.311Z</time></trkpt><trkpt lat="43.7776143" lon="11.6624863"><ele>915.0</ele><time>2026-04-12T08:43:37.331Z</time></trkpt><trkpt lat="43.7775132" lon="11.6623847"><ele>913.8</ele><time>2026-04-12T08:43:38.332Z</time></trkpt><trkpt lat="43.7774173" lon="11.6622776"><ele>912.6</ele><time>2026-04-12T08:43:39.327Z</time></trkpt><trkpt lat="43.7773401" lon="11.6621761"><ele>911.4000000000001</ele><time>2026-04-12T08:43:40.334Z</time></trkpt><trkpt lat="43.777282" lon="11.6620871"><ele>910.2</ele><time>2026-04-12T08:43:41.319Z</time></trkpt><trkpt lat="43.7772279" lon="11.6620219"><ele>909.0</ele><time>2026-04-12T08:43:42.486Z</time></trkpt><trkpt lat="43.777152" lon="11.6620068"><ele>909.0</ele><time>2026-04-12T08:43:43.327Z</time></trkpt><trkpt lat="43.7770703" lon="11.662057"><ele>909.0</ele><time>2026-04-12T08:43:44.542Z</time></trkpt><trkpt lat="43.776901" lon="11.6622648"><ele>909.0</ele><time>2026-04-12T08:43:46.298Z</time></trkpt><trkpt lat="43.7768451" lon="11.6624024"><ele>909.0</ele><time>2026-04-12T08:43:47.314Z</time></trkpt><trkpt lat="43.776819" lon="11.6625454"><ele>906.75</ele><time>2026-04-12T08:43:48.305Z</time></trkpt><trkpt lat="43.7767862" lon="11.6626688"><ele>904.5</ele><time>2026-04-12T08:43:49.334Z</time></trkpt><trkpt lat="43.7767249" lon="11.6627618"><ele>902.25</ele><time>2026-04-12T08:43:50.553Z</time></trkpt><trkpt lat="43.7765024" lon="11.6629268"><ele>900.0</ele><time>2026-04-12T08:43:52.316Z</time></trkpt><trkpt lat="43.7763591" lon="11.6629753"><ele>899.5</ele><time>2026-04-12T08:43:53.539Z</time></trkpt><trkpt lat="43.7761089" lon="11.6629815"><ele>899.0</ele><time>2026-04-12T08:43:55.34Z</time></trkpt><trkpt lat="43.7760289" lon="11.6629461"><ele>898.5</ele><time>2026-04-12T08:43:56.315Z</time></trkpt><trkpt lat="43.7759344" lon="11.6628871"><ele>898.0</ele><time>2026-04-12T08:43:57.303Z</time></trkpt><trkpt lat="43.7758302" lon="11.6628182"><ele>897.25</ele><time>2026-04-12T08:43:58.342Z</time></trkpt><trkpt lat="43.7757336" lon="11.6627867"><ele>896.5</ele><time>2026-04-12T08:43:59.527Z</time></trkpt><trkpt lat="43.7755363" lon="11.662853"><ele>895.75</ele><time>2026-04-12T08:44:01.336Z</time></trkpt><trkpt lat="43.7754097" lon="11.662878"><ele>895.0</ele><time>2026-04-12T08:44:02.331Z</time></trkpt><trkpt lat="43.7752759" lon="11.6629074"><ele>893.5</ele><time>2026-04-12T08:44:03.346Z</time></trkpt><trkpt lat="43.7751391" lon="11.6629397"><ele>892.0</ele><time>2026-04-12T08:44:04.306Z</time></trkpt><trkpt lat="43.775001" lon="11.6629778"><ele>890.5</ele><time>2026-04-12T08:44:05.305Z</time></trkpt><trkpt lat="43.77488" lon="11.6630105"><ele>889.0</ele><time>2026-04-12T08:44:06.323Z</time></trkpt><trkpt lat="43.7747685" lon="11.6630191"><ele>889.0</ele><time>2026-04-12T08:44:07.323Z</time></trkpt><trkpt lat="43.7746678" lon="11.6630318"><ele>889.0</ele><time>2026-04-12T08:44:08.584Z</time></trkpt><trkpt lat="43.7744841" lon="11.6631963"><ele>889.0</ele><time>2026-04-12T08:44:10.567Z</time></trkpt><trkpt lat="43.7743414" lon="11.6633833"><ele>888.4999999999999</ele><time>2026-04-12T08:44:12.325Z</time></trkpt><trkpt lat="43.7742752" lon="11.6634458"><ele>888.0</ele><time>2026-04-12T08:44:13.316Z</time></trkpt><trkpt lat="43.7742099" lon="11.6634816"><ele>887.5</ele><time>2026-04-12T08:44:14.327Z</time></trkpt><trkpt lat="43.7741009" lon="11.6635555"><ele>887.0</ele><time>2026-04-12T08:44:16.277Z</time></trkpt><trkpt lat="43.7741017" lon="11.6636605"><ele>886.4999999999999</ele><time>2026-04-12T08:44:17.339Z</time></trkpt><trkpt lat="43.7741259" lon="11.6637825"><ele>886.0</ele><time>2026-04-12T08:44:18.31Z</time></trkpt><trkpt lat="43.7741435" lon="11.6639048"><ele>884.1666666666666</ele><time>2026-04-12T08:44:19.326Z</time></trkpt><trkpt lat="43.7741545" lon="11.6640202"><ele>882.3333333333333</ele><time>2026-04-12T08:44:20.32Z</time></trkpt><trkpt lat="43.774162" lon="11.6641259"><ele>880.5</ele><time>2026-04-12T08:44:21.35Z</time></trkpt><trkpt lat="43.7741466" lon="11.6642118"><ele>878.6666666666667</ele><time>2026-04-12T08:44:22.321Z</time></trkpt><trkpt lat="43.7740908" lon="11.6642754"><ele>876.8333333333334</ele><time>2026-04-12T08:44:23.331Z</time></trkpt><trkpt lat="43.7740135" lon="11.6642958"><ele>875.0</ele><time>2026-04-12T08:44:24.317Z</time></trkpt><trkpt lat="43.7739385" lon="11.6642679"><ele>875.0</ele><time>2026-04-12T08:44:25.519Z</time></trkpt><trkpt lat="43.7737889" lon="11.6640649"><ele>875.0</ele><time>2026-04-12T08:44:27.526Z</time></trkpt><trkpt lat="43.7735658" lon="11.6639278"><ele>873.25</ele><time>2026-04-12T08:44:29.331Z</time></trkpt><trkpt lat="43.7734424" lon="11.6638936"><ele>871.5</ele><time>2026-04-12T08:44:30.316Z</time></trkpt><trkpt lat="43.7733358" lon="11.6638762"><ele>869.75</ele><time>2026-04-12T08:44:31.33Z</time></trkpt><trkpt lat="43.7732287" lon="11.663898"><ele>868.0</ele><time>2026-04-12T08:44:32.351Z</time></trkpt><trkpt lat="43.7731169" lon="11.6639321"><ele>868.0</ele><time>2026-04-12T08:44:33.553Z</time></trkpt><trkpt lat="43.7729516" lon="11.6639828"><ele>868.0</ele><time>2026-04-12T08:44:35.55Z</time></trkpt><trkpt lat="43.7728206" lon="11.664108"><ele>868.0</ele><time>2026-04-12T08:44:37.315Z</time></trkpt><trkpt lat="43.7727605" lon="11.6641747"><ele>868.0</ele><time>2026-04-12T08:44:38.257Z</time></trkpt><trkpt lat="43.7727056" lon="11.6642261"><ele>865.6666666666666</ele><time>2026-04-12T08:44:39.268Z</time></trkpt><trkpt lat="43.7726389" lon="11.6642425"><ele>863.3333333333333</ele><time>2026-04-12T08:44:40.308Z</time></trkpt><trkpt lat="43.772571" lon="11.6642237"><ele>861.0</ele><time>2026-04-12T08:44:41.309Z</time></trkpt><trkpt lat="43.7725091" lon="11.6641998"><ele>858.6666666666667</ele><time>2026-04-12T08:44:42.505Z</time></trkpt><trkpt lat="43.7724073" lon="11.6640955"><ele>856.3333333333334</ele><time>2026-04-12T08:44:44.372Z</time></trkpt><trkpt lat="43.7723653" lon="11.6639401"><ele>854.0</ele><time>2026-04-12T08:44:46.304Z</time></trkpt><trkpt lat="43.7723358" lon="11.6638538"><ele>854.0000000000001</ele><time>2026-04-12T08:44:47.26Z</time></trkpt><trkpt lat="43.7723053" lon="11.6637756"><ele>854.0</ele><time>2026-04-12T08:44:48.254Z</time></trkpt><trkpt lat="43.7722903" lon="11.6636769"><ele>854.0</ele><time>2026-04-12T08:44:49.24Z</time></trkpt><trkpt lat="43.7722824" lon="11.663577"><ele>854.0</ele><time>2026-04-12T08:44:50.297Z</time></trkpt><trkpt lat="43.7722763" lon="11.6634126"><ele>854.0000000000001</ele><time>2026-04-12T08:44:52.318Z</time></trkpt><trkpt lat="43.7722096" lon="11.6632967"><ele>854.0</ele><time>2026-04-12T08:44:54.249Z</time></trkpt><trkpt lat="43.7720787" lon="11.6632849"><ele>852.8333333333334</ele><time>2026-04-12T08:44:56.272Z</time></trkpt><trkpt lat="43.7720122" lon="11.6633139"><ele>851.6666666666667</ele><time>2026-04-12T08:44:57.299Z</time></trkpt><trkpt lat="43.7719425" lon="11.6633608"><ele>850.5</ele><time>2026-04-12T08:44:58.296Z</time></trkpt><trkpt lat="43.7718687" lon="11.6633998"><ele>849.3333333333333</ele><time>2026-04-12T08:44:59.294Z</time></trkpt><trkpt lat="43.7717944" lon="11.6634372"><ele>848.1666666666666</ele><time>2026-04-12T08:45:00.654Z</time></trkpt><trkpt lat="43.7716764" lon="11.6633282"><ele>847.0</ele><time>2026-04-12T08:45:02.345Z</time></trkpt><trkpt lat="43.7715782" lon="11.6632127"><ele>844.6</ele><time>2026-04-12T08:45:03.305Z</time></trkpt><trkpt lat="43.7715044" lon="11.6631516"><ele>842.2</ele><time>2026-04-12T08:45:04.329Z</time></trkpt><trkpt lat="43.7713947" lon="11.6631482"><ele>839.8</ele><time>2026-04-12T08:45:06.273Z</time></trkpt><trkpt lat="43.7713281" lon="11.6631087"><ele>837.4</ele><time>2026-04-12T08:45:07.548Z</time></trkpt><trkpt lat="43.7711854" lon="11.6630391"><ele>835.0</ele><time>2026-04-12T08:45:09.345Z</time></trkpt><trkpt lat="43.7710974" lon="11.6630459"><ele>835.3333333333333</ele><time>2026-04-12T08:45:10.337Z</time></trkpt><trkpt lat="43.7710087" lon="11.663083"><ele>835.6666666666666</ele><time>2026-04-12T08:45:11.318Z</time></trkpt><trkpt lat="43.7709351" lon="11.66315"><ele>836.0</ele><time>2026-04-12T08:45:12.332Z</time></trkpt><trkpt lat="43.7708664" lon="11.6632039"><ele>836.3333333333333</ele><time>2026-04-12T08:45:13.301Z</time></trkpt><trkpt lat="43.7707887" lon="11.6632419"><ele>836.6666666666666</ele><time>2026-04-12T08:45:14.303Z</time></trkpt><trkpt lat="43.770685" lon="11.6632555"><ele>837.0</ele><time>2026-04-12T08:45:15.332Z</time></trkpt><trkpt lat="43.7705728" lon="11.6632695"><ele>837.0</ele><time>2026-04-12T08:45:16.344Z</time></trkpt><trkpt lat="43.7704636" lon="11.6632905"><ele>837.0</ele><time>2026-04-12T08:45:17.324Z</time></trkpt><trkpt lat="43.7703559" lon="11.6633472"><ele>837.0</ele><time>2026-04-12T08:45:18.347Z</time></trkpt><trkpt lat="43.7702576" lon="11.6634149"><ele>837.0</ele><time>2026-04-12T08:45:19.329Z</time></trkpt><trkpt lat="43.7701602" lon="11.6634751"><ele>837.0</ele><time>2026-04-12T08:45:20.34Z</time></trkpt><trkpt lat="43.7700647" lon="11.6635263"><ele>838.8</ele><time>2026-04-12T08:45:21.329Z</time></trkpt><trkpt lat="43.7699734" lon="11.6635701"><ele>840.6</ele><time>2026-04-12T08:45:22.331Z</time></trkpt><trkpt lat="43.7698768" lon="11.6635954"><ele>842.4</ele><time>2026-04-12T08:45:23.324Z</time></trkpt><trkpt lat="43.769783" lon="11.6636027"><ele>844.1999999999999</ele><time>2026-04-12T08:45:24.326Z</time></trkpt><trkpt lat="43.7696988" lon="11.66359"><ele>846.0</ele><time>2026-04-12T08:45:25.332Z</time></trkpt><trkpt lat="43.7696191" lon="11.663568"><ele>846.0</ele><time>2026-04-12T08:45:26.301Z</time></trkpt><trkpt lat="43.7695445" lon="11.6635454"><ele>846.0</ele><time>2026-04-12T08:45:27.329Z</time></trkpt><trkpt lat="43.7694476" lon="11.663542"><ele>846.0</ele><time>2026-04-12T08:45:29.287Z</time></trkpt><trkpt lat="43.7693853" lon="11.6635566"><ele>846.0</ele><time>2026-04-12T08:45:31.333Z</time></trkpt><trkpt lat="43.7692636" lon="11.6636188"><ele>846.0</ele><time>2026-04-12T08:45:33.357Z</time></trkpt><trkpt lat="43.7691689" lon="11.66368"><ele>845.0</ele><time>2026-04-12T08:45:35.335Z</time></trkpt><trkpt lat="43.7690799" lon="11.663691"><ele>844.0</ele><time>2026-04-12T08:45:37.312Z</time></trkpt><trkpt lat="43.7689954" lon="11.6636957"><ele>843.0</ele><time>2026-04-12T08:45:39.259Z</time></trkpt><trkpt lat="43.7689016" lon="11.6636723"><ele>842.0</ele><time>2026-04-12T08:45:41.31Z</time></trkpt><trkpt lat="43.768845" lon="11.6637633"><ele>841.0</ele><time>2026-04-12T08:45:43.516Z</time></trkpt><trkpt lat="43.7687405" lon="11.6639424"><ele>841.0</ele><time>2026-04-12T08:45:45.331Z</time></trkpt><trkpt lat="43.7687072" lon="11.6640366"><ele>841.0</ele><time>2026-04-12T08:45:46.315Z</time></trkpt><trkpt lat="43.7686843" lon="11.6641208"><ele>841.0</ele><time>2026-04-12T08:45:47.292Z</time></trkpt><trkpt lat="43.7685883" lon="11.6641971"><ele>841.0</ele><time>2026-04-12T08:45:49.302Z</time></trkpt><trkpt lat="43.7684732" lon="11.6642235"><ele>841.0</ele><time>2026-04-12T08:45:51.317Z</time></trkpt><trkpt lat="43.7683492" lon="11.6641786"><ele>841.5999999999999</ele><time>2026-04-12T08:45:53.318Z</time></trkpt><trkpt lat="43.7682867" lon="11.6641459"><ele>842.2</ele><time>2026-04-12T08:45:54.328Z</time></trkpt><trkpt lat="43.7681629" lon="11.6641104"><ele>842.8</ele><time>2026-04-12T08:45:56.337Z</time></trkpt><trkpt lat="43.7680859" lon="11.6641169"><ele>843.4000000000001</ele><time>2026-04-12T08:45:57.346Z</time></trkpt><trkpt lat="43.7680062" lon="11.664166"><ele>844.0</ele><time>2026-04-12T08:45:58.536Z</time></trkpt><trkpt lat="43.7679001" lon="11.6642928"><ele>843.9999999999999</ele><time>2026-04-12T08:46:00.319Z</time></trkpt><trkpt lat="43.7678237" lon="11.6643477"><ele>844.0</ele><time>2026-04-12T08:46:01.305Z</time></trkpt><trkpt lat="43.7677436" lon="11.6643798"><ele>844.0</ele><time>2026-04-12T08:46:02.322Z</time></trkpt><trkpt lat="43.767667" lon="11.6644147"><ele>844.0</ele><time>2026-04-12T08:46:03.316Z</time></trkpt><trkpt lat="43.7675888" lon="11.6644576"><ele>843.9999999999999</ele><time>2026-04-12T08:46:04.33Z</time></trkpt><trkpt lat="43.7675061" lon="11.6644997"><ele>844.0</ele><time>2026-04-12T08:46:05.324Z</time></trkpt><trkpt lat="43.7674266" lon="11.6645339"><ele>843.4999999999999</ele><time>2026-04-12T08:46:06.328Z</time></trkpt><trkpt lat="43.7673504" lon="11.6645418"><ele>843.0</ele><time>2026-04-12T08:46:07.302Z</time></trkpt><trkpt lat="43.767275" lon="11.6645284"><ele>842.5</ele><time>2026-04-12T08:46:08.327Z</time></trkpt><trkpt lat="43.7672021" lon="11.6645279"><ele>842.0</ele><time>2026-04-12T08:46:09.326Z</time></trkpt><trkpt lat="43.7670901" lon="11.6645161"><ele>841.4999999999999</ele><time>2026-04-12T08:46:11.321Z</time></trkpt><trkpt lat="43.7669811" lon="11.6644839"><ele>841.0</ele><time>2026-04-12T08:46:13.342Z</time></trkpt><trkpt lat="43.7668635" lon="11.6644876"><ele>841.4</ele><time>2026-04-12T08:46:15.286Z</time></trkpt><trkpt lat="43.7667643" lon="11.6645409"><ele>841.8</ele><time>2026-04-12T08:46:17.29Z</time></trkpt><trkpt lat="43.7666952" lon="11.6645655"><ele>842.1999999999999</ele><time>2026-04-12T08:46:18.332Z</time></trkpt><trkpt lat="43.7666137" lon="11.66459"><ele>842.5999999999999</ele><time>2026-04-12T08:46:19.338Z</time></trkpt><trkpt lat="43.7665099" lon="11.6646402"><ele>843.0</ele><time>2026-04-12T08:46:20.307Z</time></trkpt><trkpt lat="43.7664224" lon="11.664691"><ele>843.0</ele><time>2026-04-12T08:46:21.29Z</time></trkpt><trkpt lat="43.7663334" lon="11.6647771"><ele>843.0</ele><time>2026-04-12T08:46:22.292Z</time></trkpt><trkpt lat="43.7662852" lon="11.6648563"><ele>843.0</ele><time>2026-04-12T08:46:23.317Z</time></trkpt><trkpt lat="43.7662465" lon="11.6649284"><ele>843.0</ele><time>2026-04-12T08:46:24.27Z</time></trkpt><trkpt lat="43.7661911" lon="11.6649836"><ele>843.0</ele><time>2026-04-12T08:46:25.341Z</time></trkpt><trkpt lat="43.7660976" lon="11.6650124"><ele>843.0</ele><time>2026-04-12T08:46:26.325Z</time></trkpt><trkpt lat="43.7659659" lon="11.6650398"><ele>843.8</ele><time>2026-04-12T08:46:27.315Z</time></trkpt><trkpt lat="43.7658388" lon="11.6650841"><ele>844.5999999999999</ele><time>2026-04-12T08:46:28.32Z</time></trkpt><trkpt lat="43.7657239" lon="11.6651129"><ele>845.4000000000001</ele><time>2026-04-12T08:46:29.315Z</time></trkpt><trkpt lat="43.7656238" lon="11.6651457"><ele>846.2</ele><time>2026-04-12T08:46:30.318Z</time></trkpt><trkpt lat="43.7655426" lon="11.66518"><ele>847.0</ele><time>2026-04-12T08:46:31.335Z</time></trkpt><trkpt lat="43.7654647" lon="11.6651968"><ele>847.0</ele><time>2026-04-12T08:46:32.543Z</time></trkpt><trkpt lat="43.7653009" lon="11.6651992"><ele>847.0</ele><time>2026-04-12T08:46:34.35Z</time></trkpt><trkpt lat="43.76523" lon="11.6651818"><ele>847.0</ele><time>2026-04-12T08:46:35.326Z</time></trkpt><trkpt lat="43.7651674" lon="11.6651513"><ele>847.0</ele><time>2026-04-12T08:46:36.35Z</time></trkpt><trkpt lat="43.765096" lon="11.6651168"><ele>847.0</ele><time>2026-04-12T08:46:37.343Z</time></trkpt><trkpt lat="43.7650212" lon="11.6650975"><ele>845.8</ele><time>2026-04-12T08:46:38.358Z</time></trkpt><trkpt lat="43.7648987" lon="11.6653091"><ele>844.6</ele><time>2026-04-12T08:46:41.321Z</time></trkpt><trkpt lat="43.764858" lon="11.6654138"><ele>843.4</ele><time>2026-04-12T08:46:42.326Z</time></trkpt><trkpt lat="43.764809" lon="11.6654728"><ele>842.1999999999999</ele><time>2026-04-12T08:46:43.327Z</time></trkpt><trkpt lat="43.7647335" lon="11.6654943"><ele>841.0</ele><time>2026-04-12T08:46:44.331Z</time></trkpt><trkpt lat="43.7646499" lon="11.6655146"><ele>841.0</ele><time>2026-04-12T08:46:45.317Z</time></trkpt><trkpt lat="43.7645692" lon="11.6655395"><ele>841.0</ele><time>2026-04-12T08:46:46.329Z</time></trkpt><trkpt lat="43.7644716" lon="11.665568"><ele>841.0</ele><time>2026-04-12T08:46:47.302Z</time></trkpt><trkpt lat="43.7643593" lon="11.66563"><ele>841.0</ele><time>2026-04-12T08:46:48.57Z</time></trkpt><trkpt lat="43.7641719" lon="11.6657747"><ele>841.5</ele><time>2026-04-12T08:46:50.598Z</time></trkpt><trkpt lat="43.7640231" lon="11.6659313"><ele>842.0</ele><time>2026-04-12T08:46:52.305Z</time></trkpt><trkpt lat="43.7639442" lon="11.666028"><ele>842.5</ele><time>2026-04-12T08:46:53.357Z</time></trkpt><trkpt lat="43.763865" lon="11.6661051"><ele>843.0</ele><time>2026-04-12T08:46:54.346Z</time></trkpt><trkpt lat="43.763764" lon="11.6661721"><ele>841.25</ele><time>2026-04-12T08:46:55.317Z</time></trkpt><trkpt lat="43.7636509" lon="11.6662403"><ele>839.5</ele><time>2026-04-12T08:46:56.285Z</time></trkpt><trkpt lat="43.763537" lon="11.6663052"><ele>837.75</ele><time>2026-04-12T08:46:57.358Z</time></trkpt><trkpt lat="43.7634247" lon="11.6663647"><ele>836.0</ele><time>2026-04-12T08:46:58.316Z</time></trkpt><trkpt lat="43.7633222" lon="11.6663822"><ele>836.0</ele><time>2026-04-12T08:46:59.339Z</time></trkpt><trkpt lat="43.7632032" lon="11.6663529"><ele>836.0</ele><time>2026-04-12T08:47:00.336Z</time></trkpt><trkpt lat="43.7630804" lon="11.6663368"><ele>836.0</ele><time>2026-04-12T08:47:01.342Z</time></trkpt><trkpt lat="43.7629778" lon="11.666323"><ele>836.0</ele><time>2026-04-12T08:47:02.316Z</time></trkpt><trkpt lat="43.7629046" lon="11.6663159"><ele>836.0</ele><time>2026-04-12T08:47:03.339Z</time></trkpt><trkpt lat="43.7627937" lon="11.6663152"><ele>836.0000000000001</ele><time>2026-04-12T08:47:05.548Z</time></trkpt><trkpt lat="43.762709" lon="11.6663722"><ele>836.0</ele><time>2026-04-12T08:47:07.52Z</time></trkpt><trkpt lat="43.7626287" lon="11.6663981"><ele>836.0</ele><time>2026-04-12T08:47:09.323Z</time></trkpt><trkpt lat="43.7625622" lon="11.6664138"><ele>836.0</ele><time>2026-04-12T08:47:10.342Z</time></trkpt><trkpt lat="43.7624878" lon="11.6664622"><ele>836.0000000000001</ele><time>2026-04-12T08:47:11.341Z</time></trkpt><trkpt lat="43.7624217" lon="11.6665204"><ele>836.0</ele><time>2026-04-12T08:47:12.34Z</time></trkpt><trkpt lat="43.7623459" lon="11.6665632"><ele>833.75</ele><time>2026-04-12T08:47:13.319Z</time></trkpt><trkpt lat="43.762266" lon="11.6666015"><ele>831.5</ele><time>2026-04-12T08:47:14.336Z</time></trkpt><trkpt lat="43.7621824" lon="11.6666447"><ele>829.25</ele><time>2026-04-12T08:47:15.528Z</time></trkpt><trkpt lat="43.761988" lon="11.6667678"><ele>827.0</ele><time>2026-04-12T08:47:17.326Z</time></trkpt><trkpt lat="43.7618939" lon="11.6668384"><ele>826.0</ele><time>2026-04-12T08:47:18.338Z</time></trkpt><trkpt lat="43.7618282" lon="11.6669127"><ele>825.0</ele><time>2026-04-12T08:47:19.336Z</time></trkpt><trkpt lat="43.7617791" lon="11.6670117"><ele>824.0</ele><time>2026-04-12T08:47:20.545Z</time></trkpt><trkpt lat="43.7616805" lon="11.6673268"><ele>823.0</ele><time>2026-04-12T08:47:22.54Z</time></trkpt><trkpt lat="43.7615753" lon="11.667621"><ele>822.4</ele><time>2026-04-12T08:47:24.295Z</time></trkpt><trkpt lat="43.7615707" lon="11.6677279"><ele>821.8</ele><time>2026-04-12T08:47:25.339Z</time></trkpt><trkpt lat="43.7615762" lon="11.6678311"><ele>821.2</ele><time>2026-04-12T08:47:26.265Z</time></trkpt><trkpt lat="43.7615603" lon="11.6679341"><ele>820.6</ele><time>2026-04-12T08:47:27.263Z</time></trkpt><trkpt lat="43.7615091" lon="11.6680808"><ele>820.0</ele><time>2026-04-12T08:47:28.388Z</time></trkpt><trkpt lat="43.7614345" lon="11.6682578"><ele>818.3333333333333</ele><time>2026-04-12T08:47:29.298Z</time></trkpt><trkpt lat="43.7613588" lon="11.6684385"><ele>816.6666666666667</ele><time>2026-04-12T08:47:30.66Z</time></trkpt><trkpt lat="43.7612212" lon="11.6686893"><ele>815.0</ele><time>2026-04-12T08:47:32.316Z</time></trkpt><trkpt lat="43.7611225" lon="11.6687854"><ele>817.25</ele><time>2026-04-12T08:47:33.343Z</time></trkpt><trkpt lat="43.7610127" lon="11.6689001"><ele>819.5</ele><time>2026-04-12T08:47:34.355Z</time></trkpt><trkpt lat="43.7609165" lon="11.6690182"><ele>821.75</ele><time>2026-04-12T08:47:35.329Z</time></trkpt><trkpt lat="43.7608363" lon="11.6691439"><ele>824.0</ele><time>2026-04-12T08:47:36.343Z</time></trkpt><trkpt lat="43.7607756" lon="11.6692806"><ele>819.5</ele><time>2026-04-12T08:47:37.575Z</time></trkpt><trkpt lat="43.7606777" lon="11.6695878"><ele>815.0</ele><time>2026-04-12T08:47:39.498Z</time></trkpt><trkpt lat="43.7605276" lon="11.6697861"><ele>815.0</ele><time>2026-04-12T08:47:41.328Z</time></trkpt><trkpt lat="43.7604332" lon="11.6698872"><ele>815.0</ele><time>2026-04-12T08:47:42.299Z</time></trkpt><trkpt lat="43.7603161" lon="11.6700227"><ele>815.0</ele><time>2026-04-12T08:47:43.242Z</time></trkpt><trkpt lat="43.7602164" lon="11.6701588"><ele>815.0</ele><time>2026-04-12T08:47:44.275Z</time></trkpt><trkpt lat="43.7601372" lon="11.6702732"><ele>815.75</ele><time>2026-04-12T08:47:45.4Z</time></trkpt><trkpt lat="43.7600791" lon="11.6703594"><ele>816.5</ele><time>2026-04-12T08:47:46.313Z</time></trkpt><trkpt lat="43.7600057" lon="11.6705794"><ele>817.25</ele><time>2026-04-12T08:47:49.354Z</time></trkpt><trkpt lat="43.7599734" lon="11.6707711"><ele>818.0</ele><time>2026-04-12T08:47:51.297Z</time></trkpt><trkpt lat="43.7599555" lon="11.6709038"><ele>818.0</ele><time>2026-04-12T08:47:52.358Z</time></trkpt><trkpt lat="43.7599322" lon="11.671087"><ele>818.0</ele><time>2026-04-12T08:47:53.332Z</time></trkpt><trkpt lat="43.7598946" lon="11.6712831"><ele>818.0</ele><time>2026-04-12T08:47:54.564Z</time></trkpt><trkpt lat="43.759789" lon="11.6715735"><ele>817.0</ele><time>2026-04-12T08:47:56.344Z</time></trkpt><trkpt lat="43.7597207" lon="11.6716819"><ele>816.0</ele><time>2026-04-12T08:47:57.341Z</time></trkpt><trkpt lat="43.7596339" lon="11.6717733"><ele>815.0</ele><time>2026-04-12T08:47:58.33Z</time></trkpt><trkpt lat="43.7595458" lon="11.6718728"><ele>814.0</ele><time>2026-04-12T08:47:59.334Z</time></trkpt><trkpt lat="43.7594678" lon="11.671987"><ele>813.0</ele><time>2026-04-12T08:48:00.345Z</time></trkpt><trkpt lat="43.7593899" lon="11.6720833"><ele>810.8</ele><time>2026-04-12T08:48:01.345Z</time></trkpt><trkpt lat="43.759317" lon="11.6721568"><ele>808.5999999999999</ele><time>2026-04-12T08:48:02.291Z</time></trkpt><trkpt lat="43.75926" lon="11.6722318"><ele>806.4000000000001</ele><time>2026-04-12T08:48:03.619Z</time></trkpt><trkpt lat="43.7591699" lon="11.6724282"><ele>804.2</ele><time>2026-04-12T08:48:05.345Z</time></trkpt><trkpt lat="43.7591372" lon="11.6725478"><ele>802.0</ele><time>2026-04-12T08:48:06.343Z</time></trkpt><trkpt lat="43.7591253" lon="11.672671"><ele>799.0</ele><time>2026-04-12T08:48:07.325Z</time></trkpt><trkpt lat="43.7591189" lon="11.6728032"><ele>796.0</ele><time>2026-04-12T08:48:08.545Z</time></trkpt><trkpt lat="43.7590476" lon="11.6731046"><ele>793.0</ele><time>2026-04-12T08:48:10.549Z</time></trkpt><trkpt lat="43.7590351" lon="11.6734576"><ele>793.0</ele><time>2026-04-12T08:48:12.317Z</time></trkpt><trkpt lat="43.7590594" lon="11.6736385"><ele>793.0</ele><time>2026-04-12T08:48:13.361Z</time></trkpt><trkpt lat="43.7590749" lon="11.6738236"><ele>793.0</ele><time>2026-04-12T08:48:14.333Z</time></trkpt><trkpt lat="43.7590647" lon="11.6739768"><ele>793.0</ele><time>2026-04-12T08:48:15.323Z</time></trkpt><trkpt lat="43.7590409" lon="11.6741028"><ele>793.0</ele><time>2026-04-12T08:48:16.311Z</time></trkpt><trkpt lat="43.7590114" lon="11.6742287"><ele>793.0</ele><time>2026-04-12T08:48:17.485Z</time></trkpt><trkpt lat="43.7589205" lon="11.674459"><ele>793.0</ele><time>2026-04-12T08:48:19.529Z</time></trkpt><trkpt lat="43.7587728" lon="11.6747176"><ele>792.25</ele><time>2026-04-12T08:48:21.343Z</time></trkpt><trkpt lat="43.7587116" lon="11.6748381"><ele>791.5</ele><time>2026-04-12T08:48:22.353Z</time></trkpt><trkpt lat="43.7586635" lon="11.6749538"><ele>790.75</ele><time>2026-04-12T08:48:23.334Z</time></trkpt><trkpt lat="43.758613" lon="11.6750538"><ele>790.0</ele><time>2026-04-12T08:48:24.33Z</time></trkpt><trkpt lat="43.7584678" lon="11.6751478"><ele>789.8</ele><time>2026-04-12T08:48:27.333Z</time></trkpt><trkpt lat="43.7584167" lon="11.6752207"><ele>789.6</ele><time>2026-04-12T08:48:28.342Z</time></trkpt><trkpt lat="43.7583745" lon="11.6753797"><ele>789.4000000000001</ele><time>2026-04-12T08:48:29.347Z</time></trkpt><trkpt lat="43.7583355" lon="11.6755526"><ele>789.2</ele><time>2026-04-12T08:48:30.31Z</time></trkpt><trkpt lat="43.7582971" lon="11.6757107"><ele>789.0</ele><time>2026-04-12T08:48:31.321Z</time></trkpt><trkpt lat="43.7582807" lon="11.6758562"><ele>789.0</ele><time>2026-04-12T08:48:32.336Z</time></trkpt><trkpt lat="43.7582862" lon="11.6759802"><ele>789.0</ele><time>2026-04-12T08:48:33.341Z</time></trkpt><trkpt lat="43.7582894" lon="11.6760909"><ele>789.0</ele><time>2026-04-12T08:48:34.399Z</time></trkpt><trkpt lat="43.7582746" lon="11.6762103"><ele>789.0</ele><time>2026-04-12T08:48:35.304Z</time></trkpt><trkpt lat="43.7582418" lon="11.6763351"><ele>789.0</ele><time>2026-04-12T08:48:36.34Z</time></trkpt><trkpt lat="43.7582034" lon="11.6764841"><ele>788.25</ele><time>2026-04-12T08:48:37.318Z</time></trkpt><trkpt lat="43.7581729" lon="11.6766483"><ele>787.5</ele><time>2026-04-12T08:48:38.333Z</time></trkpt><trkpt lat="43.7581824" lon="11.676817"><ele>786.75</ele><time>2026-04-12T08:48:39.344Z</time></trkpt><trkpt lat="43.7582393" lon="11.6769595"><ele>786.0</ele><time>2026-04-12T08:48:40.334Z</time></trkpt><trkpt lat="43.7582906" lon="11.6770808"><ele>786.0</ele><time>2026-04-12T08:48:41.309Z</time></trkpt><trkpt lat="43.7583295" lon="11.677196"><ele>786.0</ele><time>2026-04-12T08:48:42.329Z</time></trkpt><trkpt lat="43.7583541" lon="11.6773272"><ele>786.0</ele><time>2026-04-12T08:48:43.294Z</time></trkpt><trkpt lat="43.7583711" lon="11.6774621"><ele>786.0</ele><time>2026-04-12T08:48:44.279Z</time></trkpt><trkpt lat="43.7583747" lon="11.6775999"><ele>786.0</ele><time>2026-04-12T08:48:45.277Z</time></trkpt><trkpt lat="43.7583747" lon="11.6777058"><ele>784.8333333333334</ele><time>2026-04-12T08:48:46.333Z</time></trkpt><trkpt lat="43.7583541" lon="11.6777987"><ele>783.6666666666667</ele><time>2026-04-12T08:48:47.311Z</time></trkpt><trkpt lat="43.7583186" lon="11.67791"><ele>782.5</ele><time>2026-04-12T08:48:48.315Z</time></trkpt><trkpt lat="43.7582618" lon="11.6780203"><ele>781.3333333333334</ele><time>2026-04-12T08:48:49.342Z</time></trkpt><trkpt lat="43.7582235" lon="11.6781021"><ele>780.1666666666667</ele><time>2026-04-12T08:48:50.308Z</time></trkpt><trkpt lat="43.7581814" lon="11.6781939"><ele>779.0</ele><time>2026-04-12T08:48:52.313Z</time></trkpt><trkpt lat="43.7581442" lon="11.678284"><ele>779.0000000000001</ele><time>2026-04-12T08:48:55.305Z</time></trkpt><trkpt lat="43.758106" lon="11.6783864"><ele>779.0</ele><time>2026-04-12T08:48:58.327Z</time></trkpt><trkpt lat="43.7580856" lon="11.6784925"><ele>779.0</ele><time>2026-04-12T08:49:00.328Z</time></trkpt><trkpt lat="43.7580418" lon="11.6785875"><ele>779.0</ele><time>2026-04-12T08:49:02.331Z</time></trkpt><trkpt lat="43.7580079" lon="11.6787323"><ele>779.0000000000001</ele><time>2026-04-12T08:49:04.292Z</time></trkpt><trkpt lat="43.7579734" lon="11.6788256"><ele>779.0</ele><time>2026-04-12T08:49:06.315Z</time></trkpt><trkpt lat="43.7579337" lon="11.6789101"><ele>779.8333333333334</ele><time>2026-04-12T08:49:10.316Z</time></trkpt><trkpt lat="43.7578727" lon="11.6789664"><ele>780.6666666666667</ele><time>2026-04-12T08:49:14.327Z</time></trkpt><trkpt lat="43.7578087" lon="11.6790541"><ele>781.5</ele><time>2026-04-12T08:49:18.336Z</time></trkpt><trkpt lat="43.7577599" lon="11.679113"><ele>782.3333333333333</ele><time>2026-04-12T08:49:19.344Z</time></trkpt><trkpt lat="43.7577004" lon="11.6791809"><ele>783.1666666666666</ele><time>2026-04-12T08:49:20.316Z</time></trkpt><trkpt lat="43.7576449" lon="11.6792487"><ele>784.0</ele><time>2026-04-12T08:49:21.318Z</time></trkpt><trkpt lat="43.7575825" lon="11.6793275"><ele>784.0</ele><time>2026-04-12T08:49:23.34Z</time></trkpt><trkpt lat="43.757497" lon="11.6793399"><ele>784.0</ele><time>2026-04-12T08:49:28.312Z</time></trkpt><trkpt lat="43.7573918" lon="11.6793683"><ele>784.0</ele><time>2026-04-12T08:49:30.341Z</time></trkpt><trkpt lat="43.7573047" lon="11.6794183"><ele>784.0</ele><time>2026-04-12T08:49:31.337Z</time></trkpt><trkpt lat="43.7572003" lon="11.6794502"><ele>784.0</ele><time>2026-04-12T08:49:32.336Z</time></trkpt><trkpt lat="43.7570861" lon="11.6794652"><ele>782.6666666666666</ele><time>2026-04-12T08:49:33.356Z</time></trkpt><trkpt lat="43.7569905" lon="11.6794709"><ele>781.3333333333333</ele><time>2026-04-12T08:49:34.335Z</time></trkpt><trkpt lat="43.7569252" lon="11.6794899"><ele>780.0</ele><time>2026-04-12T08:49:35.343Z</time></trkpt><trkpt lat="43.7568191" lon="11.6795276"><ele>778.6666666666667</ele><time>2026-04-12T08:49:37.345Z</time></trkpt><trkpt lat="43.7567173" lon="11.6795383"><ele>777.3333333333334</ele><time>2026-04-12T08:49:39.315Z</time></trkpt><trkpt lat="43.7566522" lon="11.6795627"><ele>776.0</ele><time>2026-04-12T08:49:40.33Z</time></trkpt><trkpt lat="43.7565821" lon="11.6796003"><ele>775.0</ele><time>2026-04-12T08:49:41.344Z</time></trkpt><trkpt lat="43.7565023" lon="11.6796426"><ele>774.0</ele><time>2026-04-12T08:49:42.341Z</time></trkpt><trkpt lat="43.7563903" lon="11.6796949"><ele>773.0</ele><time>2026-04-12T08:49:43.306Z</time></trkpt><trkpt lat="43.7562629" lon="11.6797521"><ele>772.0</ele><time>2026-04-12T08:49:44.275Z</time></trkpt><trkpt lat="43.7561374" lon="11.6798111"><ele>771.0</ele><time>2026-04-12T08:49:45.274Z</time></trkpt><trkpt lat="43.7560286" lon="11.6798628"><ele>770.0</ele><time>2026-04-12T08:49:46.359Z</time></trkpt><trkpt lat="43.7559298" lon="11.6799099"><ele>769.0</ele><time>2026-04-12T08:49:47.572Z</time></trkpt><trkpt lat="43.755773" lon="11.6799686"><ele>768.0</ele><time>2026-04-12T08:49:49.242Z</time></trkpt><trkpt lat="43.7556826" lon="11.6799775"><ele>768.0</ele><time>2026-04-12T08:49:50.301Z</time></trkpt><trkpt lat="43.7555887" lon="11.6799841"><ele>768.0</ele><time>2026-04-12T08:49:51.293Z</time></trkpt><trkpt lat="43.7555017" lon="11.6799936"><ele>768.0</ele><time>2026-04-12T08:49:52.316Z</time></trkpt><trkpt lat="43.7554121" lon="11.6800149"><ele>768.0</ele><time>2026-04-12T08:49:53.276Z</time></trkpt><trkpt lat="43.7553303" lon="11.680045"><ele>768.0</ele><time>2026-04-12T08:49:54.306Z</time></trkpt><trkpt lat="43.755257" lon="11.6800888"><ele>768.0</ele><time>2026-04-12T08:49:55.267Z</time></trkpt><trkpt lat="43.7551974" lon="11.6801656"><ele>767.8333333333334</ele><time>2026-04-12T08:49:56.269Z</time></trkpt><trkpt lat="43.7551411" lon="11.6802635"><ele>767.6666666666666</ele><time>2026-04-12T08:49:57.252Z</time></trkpt><trkpt lat="43.7550894" lon="11.6803598"><ele>767.5</ele><time>2026-04-12T08:49:58.332Z</time></trkpt><trkpt lat="43.7550555" lon="11.6804635"><ele>767.3333333333333</ele><time>2026-04-12T08:49:59.317Z</time></trkpt><trkpt lat="43.7550347" lon="11.6805733"><ele>767.1666666666666</ele><time>2026-04-12T08:50:00.306Z</time></trkpt><trkpt lat="43.7550184" lon="11.6806741"><ele>767.0</ele><time>2026-04-12T08:50:01.277Z</time></trkpt><trkpt lat="43.7550106" lon="11.6807635"><ele>766.4000000000001</ele><time>2026-04-12T08:50:02.361Z</time></trkpt><trkpt lat="43.7549778" lon="11.6808906"><ele>765.8000000000001</ele><time>2026-04-12T08:50:04.58Z</time></trkpt><trkpt lat="43.7548306" lon="11.6809841"><ele>765.2</ele><time>2026-04-12T08:50:06.325Z</time></trkpt><trkpt lat="43.7547804" lon="11.6810368"><ele>764.6</ele><time>2026-04-12T08:50:07.324Z</time></trkpt><trkpt lat="43.7547718" lon="11.6811845"><ele>764.0</ele><time>2026-04-12T08:50:09.34Z</time></trkpt><trkpt lat="43.7547843" lon="11.681281"><ele>762.6</ele><time>2026-04-12T08:50:10.298Z</time></trkpt><trkpt lat="43.7548061" lon="11.6813839"><ele>761.2</ele><time>2026-04-12T08:50:11.32Z</time></trkpt><trkpt lat="43.7548225" lon="11.6815217"><ele>759.8000000000001</ele><time>2026-04-12T08:50:12.32Z</time></trkpt><trkpt lat="43.7548277" lon="11.6817155"><ele>758.4000000000001</ele><time>2026-04-12T08:50:13.382Z</time></trkpt><trkpt lat="43.7548304" lon="11.6818922"><ele>757.0</ele><time>2026-04-12T08:50:14.313Z</time></trkpt><trkpt lat="43.7548192" lon="11.682017"><ele>756.1666666666667</ele><time>2026-04-12T08:50:15.3Z</time></trkpt><trkpt lat="43.7547791" lon="11.6820963"><ele>755.3333333333334</ele><time>2026-04-12T08:50:16.33Z</time></trkpt><trkpt lat="43.7547154" lon="11.6821541"><ele>754.5</ele><time>2026-04-12T08:50:17.304Z</time></trkpt><trkpt lat="43.7546544" lon="11.6822045"><ele>753.6666666666666</ele><time>2026-04-12T08:50:18.323Z</time></trkpt><trkpt lat="43.7546146" lon="11.6823517"><ele>752.8333333333333</ele><time>2026-04-12T08:50:20.315Z</time></trkpt><trkpt lat="43.7546523" lon="11.6824877"><ele>752.0</ele><time>2026-04-12T08:50:22.302Z</time></trkpt><trkpt lat="43.7546646" lon="11.68265"><ele>750.0</ele><time>2026-04-12T08:50:24.339Z</time></trkpt><trkpt lat="43.7546191" lon="11.6828148"><ele>748.0</ele><time>2026-04-12T08:50:26.328Z</time></trkpt><trkpt lat="43.7545782" lon="11.6828929"><ele>746.0</ele><time>2026-04-12T08:50:27.313Z</time></trkpt><trkpt lat="43.7545334" lon="11.6829653"><ele>744.0</ele><time>2026-04-12T08:50:28.326Z</time></trkpt><trkpt lat="43.7544995" lon="11.6830431"><ele>742.0</ele><time>2026-04-12T08:50:29.314Z</time></trkpt><trkpt lat="43.7544528" lon="11.6831149"><ele>740.0</ele><time>2026-04-12T08:50:30.333Z</time></trkpt><trkpt lat="43.7543922" lon="11.6831794"><ele>742.4</ele><time>2026-04-12T08:50:31.33Z</time></trkpt><trkpt lat="43.7543247" lon="11.6832445"><ele>744.8</ele><time>2026-04-12T08:50:32.325Z</time></trkpt><trkpt lat="43.7542645" lon="11.6833149"><ele>747.2</ele><time>2026-04-12T08:50:33.325Z</time></trkpt><trkpt lat="43.7541976" lon="11.6834303"><ele>749.6</ele><time>2026-04-12T08:50:34.334Z</time></trkpt><trkpt lat="43.7541316" lon="11.6835581"><ele>752.0</ele><time>2026-04-12T08:50:35.339Z</time></trkpt><trkpt lat="43.7540589" lon="11.6836721"><ele>752.0</ele><time>2026-04-12T08:50:36.335Z</time></trkpt><trkpt lat="43.7539947" lon="11.683773"><ele>752.0</ele><time>2026-04-12T08:50:37.331Z</time></trkpt><trkpt lat="43.753948" lon="11.6838896"><ele>752.0</ele><time>2026-04-12T08:50:38.329Z</time></trkpt><trkpt lat="43.7539222" lon="11.6840393"><ele>752.0</ele><time>2026-04-12T08:50:39.316Z</time></trkpt><trkpt lat="43.7538959" lon="11.6841777"><ele>752.0</ele><time>2026-04-12T08:50:40.319Z</time></trkpt><trkpt lat="43.7538622" lon="11.684311"><ele>750.5</ele><time>2026-04-12T08:50:41.269Z</time></trkpt><trkpt lat="43.7538311" lon="11.6844406"><ele>749.0</ele><time>2026-04-12T08:50:42.339Z</time></trkpt><trkpt lat="43.7538044" lon="11.6845456"><ele>747.5</ele><time>2026-04-12T08:50:43.265Z</time></trkpt><trkpt lat="43.7537736" lon="11.6846435"><ele>746.0</ele><time>2026-04-12T08:50:44.266Z</time></trkpt><trkpt lat="43.7537345" lon="11.6847479"><ele>744.5</ele><time>2026-04-12T08:50:45.283Z</time></trkpt><trkpt lat="43.7536973" lon="11.6848489"><ele>743.0</ele><time>2026-04-12T08:50:46.333Z</time></trkpt><trkpt lat="43.7536582" lon="11.6849403"><ele>743.0</ele><time>2026-04-12T08:50:47.32Z</time></trkpt><trkpt lat="43.7536027" lon="11.6850219"><ele>743.0</ele><time>2026-04-12T08:50:48.327Z</time></trkpt><trkpt lat="43.7535355" lon="11.6850929"><ele>743.0</ele><time>2026-04-12T08:50:49.266Z</time></trkpt><trkpt lat="43.7534677" lon="11.6851525"><ele>743.0</ele><time>2026-04-12T08:50:50.282Z</time></trkpt><trkpt lat="43.7534036" lon="11.6852007"><ele>743.0</ele><time>2026-04-12T08:50:51.318Z</time></trkpt><trkpt lat="43.7533496" lon="11.6852476"><ele>743.0</ele><time>2026-04-12T08:50:52.333Z</time></trkpt><trkpt lat="43.753258" lon="11.6853009"><ele>741.8333333333333</ele><time>2026-04-12T08:50:54.336Z</time></trkpt><trkpt lat="43.7531962" lon="11.6852721"><ele>740.6666666666666</ele><time>2026-04-12T08:50:55.318Z</time></trkpt><trkpt lat="43.7531143" lon="11.6852123"><ele>739.5</ele><time>2026-04-12T08:50:56.319Z</time></trkpt><trkpt lat="43.7530263" lon="11.6851618"><ele>738.3333333333334</ele><time>2026-04-12T08:50:57.315Z</time></trkpt><trkpt lat="43.7529395" lon="11.6851126"><ele>737.1666666666667</ele><time>2026-04-12T08:50:58.341Z</time></trkpt><trkpt lat="43.7528769" lon="11.6850997"><ele>736.0</ele><time>2026-04-12T08:50:59.349Z</time></trkpt><trkpt lat="43.7528186" lon="11.6853044"><ele>736.0</ele><time>2026-04-12T08:51:01.326Z</time></trkpt><trkpt lat="43.7527831" lon="11.6854412"><ele>736.0</ele><time>2026-04-12T08:51:02.325Z</time></trkpt><trkpt lat="43.752748" lon="11.6855721"><ele>736.0</ele><time>2026-04-12T08:51:03.319Z</time></trkpt><trkpt lat="43.7527105" lon="11.6856912"><ele>736.0</ele><time>2026-04-12T08:51:04.35Z</time></trkpt><trkpt lat="43.7526523" lon="11.6857964"><ele>736.0</ele><time>2026-04-12T08:51:05.32Z</time></trkpt><trkpt lat="43.7525862" lon="11.6858564"><ele>735.6666666666667</ele><time>2026-04-12T08:51:06.323Z</time></trkpt><trkpt lat="43.7525211" lon="11.6858917"><ele>735.3333333333334</ele><time>2026-04-12T08:51:07.318Z</time></trkpt><trkpt lat="43.7524465" lon="11.6858822"><ele>735.0</ele><time>2026-04-12T08:51:08.304Z</time></trkpt><trkpt lat="43.7523726" lon="11.685823"><ele>734.6666666666666</ele><time>2026-04-12T08:51:09.262Z</time></trkpt><trkpt lat="43.752304" lon="11.6858078"><ele>734.3333333333333</ele><time>2026-04-12T08:51:11.288Z</time></trkpt><trkpt lat="43.7523036" lon="11.6859556"><ele>734.0</ele><time>2026-04-12T08:51:13.325Z</time></trkpt><trkpt lat="43.7522994" lon="11.686049"><ele>730.0</ele><time>2026-04-12T08:51:14.314Z</time></trkpt><trkpt lat="43.7522373" lon="11.6861877"><ele>726.0</ele><time>2026-04-12T08:51:16.302Z</time></trkpt><trkpt lat="43.7521864" lon="11.6862725"><ele>722.0</ele><time>2026-04-12T08:51:18.301Z</time></trkpt><trkpt lat="43.7521211" lon="11.6863802"><ele>718.0</ele><time>2026-04-12T08:51:20.308Z</time></trkpt><trkpt lat="43.7520866" lon="11.6864671"><ele>714.0</ele><time>2026-04-12T08:51:21.335Z</time></trkpt><trkpt lat="43.7520495" lon="11.6865692"><ele>714.0</ele><time>2026-04-12T08:51:22.309Z</time></trkpt><trkpt lat="43.7520039" lon="11.6866641"><ele>714.0</ele><time>2026-04-12T08:51:23.335Z</time></trkpt><trkpt lat="43.7519263" lon="11.6867714"><ele>714.0</ele><time>2026-04-12T08:51:25.335Z</time></trkpt><trkpt lat="43.7518505" lon="11.6868491"><ele>714.0</ele><time>2026-04-12T08:51:27.339Z</time></trkpt><trkpt lat="43.7517721" lon="11.6869384"><ele>714.0</ele><time>2026-04-12T08:51:29.341Z</time></trkpt><trkpt lat="43.7517072" lon="11.6870593"><ele>713.5</ele><time>2026-04-12T08:51:31.298Z</time></trkpt><trkpt lat="43.7516704" lon="11.6871396"><ele>713.0</ele><time>2026-04-12T08:51:32.338Z</time></trkpt><trkpt lat="43.7516348" lon="11.6872209"><ele>712.5</ele><time>2026-04-12T08:51:33.345Z</time></trkpt><trkpt lat="43.751597" lon="11.6872969"><ele>712.0</ele><time>2026-04-12T08:51:34.327Z</time></trkpt><trkpt lat="43.7515275" lon="11.6874595"><ele>711.5</ele><time>2026-04-12T08:51:36.339Z</time></trkpt><trkpt lat="43.7514778" lon="11.6875718"><ele>711.0</ele><time>2026-04-12T08:51:37.327Z</time></trkpt><trkpt lat="43.751423" lon="11.6876979"><ele>708.0</ele><time>2026-04-12T08:51:38.346Z</time></trkpt><trkpt lat="43.7513684" lon="11.6877987"><ele>705.0</ele><time>2026-04-12T08:51:39.341Z</time></trkpt><trkpt lat="43.7513209" lon="11.6878768"><ele>702.0</ele><time>2026-04-12T08:51:40.343Z</time></trkpt><trkpt lat="43.7512668" lon="11.6879685"><ele>699.0</ele><time>2026-04-12T08:51:41.31Z</time></trkpt><trkpt lat="43.7511989" lon="11.6880605"><ele>696.0</ele><time>2026-04-12T08:51:42.328Z</time></trkpt><trkpt lat="43.7511344" lon="11.6881558"><ele>693.0</ele><time>2026-04-12T08:51:43.341Z</time></trkpt><trkpt lat="43.7510968" lon="11.6882511"><ele>692.5999999999999</ele><time>2026-04-12T08:51:44.323Z</time></trkpt><trkpt lat="43.7510058" lon="11.6883848"><ele>692.1999999999999</ele><time>2026-04-12T08:51:46.31Z</time></trkpt><trkpt lat="43.7509462" lon="11.6884612"><ele>691.8</ele><time>2026-04-12T08:51:47.307Z</time></trkpt><trkpt lat="43.75089" lon="11.6885066"><ele>691.4</ele><time>2026-04-12T08:51:48.338Z</time></trkpt><trkpt lat="43.7507813" lon="11.6885222"><ele>691.0</ele><time>2026-04-12T08:51:50.319Z</time></trkpt><trkpt lat="43.7507279" lon="11.6886691"><ele>691.0</ele><time>2026-04-12T08:51:52.258Z</time></trkpt><trkpt lat="43.7507164" lon="11.6887584"><ele>691.0</ele><time>2026-04-12T08:51:53.302Z</time></trkpt><trkpt lat="43.7507006" lon="11.6888751"><ele>691.0</ele><time>2026-04-12T08:51:54.327Z</time></trkpt><trkpt lat="43.7506796" lon="11.6889889"><ele>691.0</ele><time>2026-04-12T08:51:55.344Z</time></trkpt><trkpt lat="43.7506488" lon="11.6890854"><ele>691.0</ele><time>2026-04-12T08:51:56.346Z</time></trkpt><trkpt lat="43.7506058" lon="11.6891633"><ele>691.0</ele><time>2026-04-12T08:51:57.274Z</time></trkpt><trkpt lat="43.7505527" lon="11.6892297"><ele>691.0</ele><time>2026-04-12T08:51:58.266Z</time></trkpt><trkpt lat="43.750498" lon="11.6892971"><ele>691.0</ele><time>2026-04-12T08:51:59.257Z</time></trkpt><trkpt lat="43.7504488" lon="11.6893619"><ele>691.0</ele><time>2026-04-12T08:52:00.335Z</time></trkpt><trkpt lat="43.7503825" lon="11.6894929"><ele>691.0</ele><time>2026-04-12T08:52:02.325Z</time></trkpt><trkpt lat="43.7503406" lon="11.6895653"><ele>691.0</ele><time>2026-04-12T08:52:03.306Z</time></trkpt><trkpt lat="43.7502914" lon="11.6896333"><ele>691.0</ele><time>2026-04-12T08:52:04.321Z</time></trkpt><trkpt lat="43.7502239" lon="11.6896939"><ele>690.0</ele><time>2026-04-12T08:52:05.342Z</time></trkpt><trkpt lat="43.7501555" lon="11.6897669"><ele>689.0</ele><time>2026-04-12T08:52:06.332Z</time></trkpt><trkpt lat="43.7500943" lon="11.6898477"><ele>688.0</ele><time>2026-04-12T08:52:07.352Z</time></trkpt><trkpt lat="43.7500487" lon="11.6899293"><ele>687.0</ele><time>2026-04-12T08:52:08.286Z</time></trkpt><trkpt lat="43.7499963" lon="11.6900196"><ele>686.0</ele><time>2026-04-12T08:52:09.339Z</time></trkpt><trkpt lat="43.7499515" lon="11.6901135"><ele>685.0</ele><time>2026-04-12T08:52:10.306Z</time></trkpt><trkpt lat="43.7499235" lon="11.690202"><ele>682.3333333333334</ele><time>2026-04-12T08:52:11.319Z</time></trkpt><trkpt lat="43.7498828" lon="11.6903004"><ele>679.6666666666667</ele><time>2026-04-12T08:52:12.347Z</time></trkpt><trkpt lat="43.7498357" lon="11.6904046"><ele>677.0</ele><time>2026-04-12T08:52:13.312Z</time></trkpt><trkpt lat="43.7497909" lon="11.6905086"><ele>674.3333333333334</ele><time>2026-04-12T08:52:14.317Z</time></trkpt><trkpt lat="43.7497497" lon="11.6905972"><ele>671.6666666666666</ele><time>2026-04-12T08:52:15.331Z</time></trkpt><trkpt lat="43.7497041" lon="11.6907117"><ele>669.0</ele><time>2026-04-12T08:52:17.343Z</time></trkpt><trkpt lat="43.7496605" lon="11.6907868"><ele>669.0</ele><time>2026-04-12T08:52:19.324Z</time></trkpt><trkpt lat="43.7495764" lon="11.6908601"><ele>669.0</ele><time>2026-04-12T08:52:21.33Z</time></trkpt><trkpt lat="43.7495278" lon="11.6909705"><ele>669.0</ele><time>2026-04-12T08:52:23.328Z</time></trkpt><trkpt lat="43.7494939" lon="11.6911128"><ele>669.0</ele><time>2026-04-12T08:52:25.336Z</time></trkpt><trkpt lat="43.7494336" lon="11.6912638"><ele>669.0</ele><time>2026-04-12T08:52:27.277Z</time></trkpt><trkpt lat="43.7494039" lon="11.6913433"><ele>667.0</ele><time>2026-04-12T08:52:28.264Z</time></trkpt><trkpt lat="43.749392" lon="11.6914349"><ele>665.0</ele><time>2026-04-12T08:52:29.338Z</time></trkpt><trkpt lat="43.7494002" lon="11.6915593"><ele>663.0</ele><time>2026-04-12T08:52:30.334Z</time></trkpt><trkpt lat="43.7494123" lon="11.6917029"><ele>661.0</ele><time>2026-04-12T08:52:31.316Z</time></trkpt><trkpt lat="43.7494159" lon="11.6918389"><ele>659.0</ele><time>2026-04-12T08:52:32.28Z</time></trkpt><trkpt lat="43.7494096" lon="11.6919635"><ele>657.6</ele><time>2026-04-12T08:52:33.28Z</time></trkpt><trkpt lat="43.7493991" lon="11.6920792"><ele>656.2</ele><time>2026-04-12T08:52:34.33Z</time></trkpt><trkpt lat="43.7494117" lon="11.6922242"><ele>654.8000000000001</ele><time>2026-04-12T08:52:35.34Z</time></trkpt><trkpt lat="43.7494457" lon="11.69238"><ele>653.4000000000001</ele><time>2026-04-12T08:52:36.34Z</time></trkpt><trkpt lat="43.7494511" lon="11.6925112"><ele>652.0</ele><time>2026-04-12T08:52:37.336Z</time></trkpt><trkpt lat="43.7494262" lon="11.6926059"><ele>652.0</ele><time>2026-04-12T08:52:38.324Z</time></trkpt><trkpt lat="43.7493801" lon="11.6927012"><ele>652.0</ele><time>2026-04-12T08:52:39.32Z</time></trkpt><trkpt lat="43.7493389" lon="11.6928208"><ele>652.0</ele><time>2026-04-12T08:52:40.326Z</time></trkpt><trkpt lat="43.7493193" lon="11.6929424"><ele>652.0</ele><time>2026-04-12T08:52:41.325Z</time></trkpt><trkpt lat="43.7493134" lon="11.6930705"><ele>652.0</ele><time>2026-04-12T08:52:42.326Z</time></trkpt><trkpt lat="43.7493086" lon="11.6931939"><ele>651.4000000000001</ele><time>2026-04-12T08:52:43.328Z</time></trkpt><trkpt lat="43.749325" lon="11.6933126"><ele>650.8000000000001</ele><time>2026-04-12T08:52:44.311Z</time></trkpt><trkpt lat="43.7493342" lon="11.6934426"><ele>650.2</ele><time>2026-04-12T08:52:45.307Z</time></trkpt><trkpt lat="43.7493384" lon="11.693576"><ele>649.6</ele><time>2026-04-12T08:52:46.327Z</time></trkpt><trkpt lat="43.7493401" lon="11.693703"><ele>649.0</ele><time>2026-04-12T08:52:47.334Z</time></trkpt><trkpt lat="43.7493353" lon="11.6938184"><ele>648.4285714285713</ele><time>2026-04-12T08:52:48.331Z</time></trkpt><trkpt lat="43.7493292" lon="11.693921"><ele>647.8571428571429</ele><time>2026-04-12T08:52:49.321Z</time></trkpt><trkpt lat="43.7493266" lon="11.6940182"><ele>647.2857142857142</ele><time>2026-04-12T08:52:50.284Z</time></trkpt><trkpt lat="43.7493258" lon="11.6941178"><ele>646.7142857142857</ele><time>2026-04-12T08:52:51.336Z</time></trkpt><trkpt lat="43.7493104" lon="11.6942166"><ele>646.1428571428571</ele><time>2026-04-12T08:52:52.341Z</time></trkpt><trkpt lat="43.7492969" lon="11.6943226"><ele>645.5714285714286</ele><time>2026-04-12T08:52:53.308Z</time></trkpt><trkpt lat="43.7492791" lon="11.6944334"><ele>645.0</ele><time>2026-04-12T08:52:54.321Z</time></trkpt><trkpt lat="43.7492608" lon="11.6945316"><ele>644.0</ele><time>2026-04-12T08:52:55.316Z</time></trkpt><trkpt lat="43.7492079" lon="11.6946868"><ele>643.0</ele><time>2026-04-12T08:52:57.346Z</time></trkpt><trkpt lat="43.7491637" lon="11.6947683"><ele>642.0</ele><time>2026-04-12T08:52:58.348Z</time></trkpt><trkpt lat="43.7491066" lon="11.6948676"><ele>641.0</ele><time>2026-04-12T08:52:59.292Z</time></trkpt><trkpt lat="43.7490383" lon="11.6949772"><ele>640.0</ele><time>2026-04-12T08:53:00.329Z</time></trkpt><trkpt lat="43.7489826" lon="11.6950682"><ele>640.0</ele><time>2026-04-12T08:53:01.334Z</time></trkpt><trkpt lat="43.7489428" lon="11.6951394"><ele>640.0</ele><time>2026-04-12T08:53:02.333Z</time></trkpt><trkpt lat="43.7489009" lon="11.6952152"><ele>640.0</ele><time>2026-04-12T08:53:03.334Z</time></trkpt><trkpt lat="43.7488575" lon="11.6952903"><ele>640.0</ele><time>2026-04-12T08:53:04.331Z</time></trkpt><trkpt lat="43.748816" lon="11.6953617"><ele>640.0</ele><time>2026-04-12T08:53:05.318Z</time></trkpt><trkpt lat="43.7487612" lon="11.6954109"><ele>640.0</ele><time>2026-04-12T08:53:06.336Z</time></trkpt><trkpt lat="43.7486854" lon="11.6954973"><ele>640.0</ele><time>2026-04-12T08:53:08.316Z</time></trkpt><trkpt lat="43.7486637" lon="11.6955906"><ele>638.0</ele><time>2026-04-12T08:53:09.33Z</time></trkpt><trkpt lat="43.748637" lon="11.6957396"><ele>636.0</ele><time>2026-04-12T08:53:10.312Z</time></trkpt><trkpt lat="43.7485974" lon="11.6958962"><ele>634.0</ele><time>2026-04-12T08:53:11.319Z</time></trkpt><trkpt lat="43.7485623" lon="11.6960368"><ele>632.0</ele><time>2026-04-12T08:53:12.341Z</time></trkpt><trkpt lat="43.7485144" lon="11.6961639"><ele>630.0</ele><time>2026-04-12T08:53:13.345Z</time></trkpt><trkpt lat="43.7484471" lon="11.6962742"><ele>629.6</ele><time>2026-04-12T08:53:14.344Z</time></trkpt><trkpt lat="43.7483684" lon="11.6963742"><ele>629.2</ele><time>2026-04-12T08:53:15.308Z</time></trkpt><trkpt lat="43.7482787" lon="11.696471"><ele>628.8</ele><time>2026-04-12T08:53:16.314Z</time></trkpt><trkpt lat="43.7482019" lon="11.6965777"><ele>628.4</ele><time>2026-04-12T08:53:17.338Z</time></trkpt><trkpt lat="43.7481313" lon="11.6966726"><ele>628.0</ele><time>2026-04-12T08:53:18.337Z</time></trkpt><trkpt lat="43.7480605" lon="11.6967722"><ele>628.0</ele><time>2026-04-12T08:53:19.327Z</time></trkpt><trkpt lat="43.7479922" lon="11.6968742"><ele>628.0</ele><time>2026-04-12T08:53:20.349Z</time></trkpt><trkpt lat="43.7479229" lon="11.6969822"><ele>628.0</ele><time>2026-04-12T08:53:21.309Z</time></trkpt><trkpt lat="43.747861" lon="11.6970976"><ele>628.0</ele><time>2026-04-12T08:53:22.325Z</time></trkpt><trkpt lat="43.7478271" lon="11.6972428"><ele>628.0</ele><time>2026-04-12T08:53:23.299Z</time></trkpt><trkpt lat="43.7478134" lon="11.6973824"><ele>626.0</ele><time>2026-04-12T08:53:24.301Z</time></trkpt><trkpt lat="43.7478009" lon="11.6975133"><ele>624.0</ele><time>2026-04-12T08:53:25.319Z</time></trkpt><trkpt lat="43.7477905" lon="11.6976444"><ele>622.0</ele><time>2026-04-12T08:53:26.312Z</time></trkpt><trkpt lat="43.7477885" lon="11.6977717"><ele>620.0</ele><time>2026-04-12T08:53:27.347Z</time></trkpt><trkpt lat="43.7477991" lon="11.6979061"><ele>618.0</ele><time>2026-04-12T08:53:28.331Z</time></trkpt><trkpt lat="43.7478278" lon="11.6980415"><ele>616.0</ele><time>2026-04-12T08:53:29.329Z</time></trkpt><trkpt lat="43.7478609" lon="11.6981552"><ele>614.0</ele><time>2026-04-12T08:53:30.324Z</time></trkpt><trkpt lat="43.747901" lon="11.6982594"><ele>612.0</ele><time>2026-04-12T08:53:31.341Z</time></trkpt><trkpt lat="43.7479293" lon="11.6983586"><ele>610.0</ele><time>2026-04-12T08:53:32.353Z</time></trkpt><trkpt lat="43.7479397" lon="11.6984587"><ele>608.0</ele><time>2026-04-12T08:53:33.335Z</time></trkpt><trkpt lat="43.7479256" lon="11.698555"><ele>606.0</ele><time>2026-04-12T08:53:34.327Z</time></trkpt><trkpt lat="43.7479068" lon="11.6986496"><ele>604.6666666666666</ele><time>2026-04-12T08:53:35.313Z</time></trkpt><trkpt lat="43.7479409" lon="11.6987497"><ele>603.3333333333334</ele><time>2026-04-12T08:53:36.316Z</time></trkpt><trkpt lat="43.7480174" lon="11.6988164"><ele>602.0</ele><time>2026-04-12T08:53:37.317Z</time></trkpt><trkpt lat="43.7480949" lon="11.6988277"><ele>600.6666666666667</ele><time>2026-04-12T08:53:38.325Z</time></trkpt><trkpt lat="43.7481613" lon="11.6987827"><ele>599.3333333333334</ele><time>2026-04-12T08:53:39.333Z</time></trkpt><trkpt lat="43.7482337" lon="11.6987212"><ele>598.0</ele><time>2026-04-12T08:53:40.333Z</time></trkpt><trkpt lat="43.7483154" lon="11.6986727"><ele>597.1666666666667</ele><time>2026-04-12T08:53:41.262Z</time></trkpt><trkpt lat="43.7483874" lon="11.6985769"><ele>596.3333333333334</ele><time>2026-04-12T08:53:43.345Z</time></trkpt><trkpt lat="43.7484254" lon="11.6984877"><ele>595.5</ele><time>2026-04-12T08:53:44.331Z</time></trkpt><trkpt lat="43.7484722" lon="11.6983914"><ele>594.6666666666666</ele><time>2026-04-12T08:53:45.322Z</time></trkpt><trkpt lat="43.7485402" lon="11.6983529"><ele>593.8333333333333</ele><time>2026-04-12T08:53:46.272Z</time></trkpt><trkpt lat="43.7486195" lon="11.6983576"><ele>593.0</ele><time>2026-04-12T08:53:47.262Z</time></trkpt><trkpt lat="43.7487071" lon="11.6983854"><ele>593.0</ele><time>2026-04-12T08:53:48.323Z</time></trkpt><trkpt lat="43.7487952" lon="11.6984182"><ele>593.0</ele><time>2026-04-12T08:53:49.32Z</time></trkpt><trkpt lat="43.7488664" lon="11.6984315"><ele>593.0</ele><time>2026-04-12T08:53:50.336Z</time></trkpt><trkpt lat="43.7489389" lon="11.6984318"><ele>593.0</ele><time>2026-04-12T08:53:51.325Z</time></trkpt><trkpt lat="43.7490651" lon="11.6984748"><ele>593.0</ele><time>2026-04-12T08:53:53.322Z</time></trkpt><trkpt lat="43.7491424" lon="11.6984907"><ele>593.0</ele><time>2026-04-12T08:53:54.316Z</time></trkpt><trkpt lat="43.7492177" lon="11.6984767"><ele>593.0</ele><time>2026-04-12T08:53:55.313Z</time></trkpt><trkpt lat="43.7492952" lon="11.6984387"><ele>593.0</ele><time>2026-04-12T08:53:56.331Z</time></trkpt><trkpt lat="43.7493722" lon="11.6983968"><ele>593.0</ele><time>2026-04-12T08:53:57.326Z</time></trkpt><trkpt lat="43.7494498" lon="11.6983189"><ele>593.0</ele><time>2026-04-12T08:53:58.325Z</time></trkpt><trkpt lat="43.7495218" lon="11.6982415"><ele>593.0</ele><time>2026-04-12T08:53:59.312Z</time></trkpt><trkpt lat="43.7495911" lon="11.6982177"><ele>593.0</ele><time>2026-04-12T08:54:00.34Z</time></trkpt><trkpt lat="43.7496548" lon="11.6982636"><ele>590.3333333333333</ele><time>2026-04-12T08:54:01.321Z</time></trkpt><trkpt lat="43.7497187" lon="11.6983187"><ele>587.6666666666666</ele><time>2026-04-12T08:54:02.321Z</time></trkpt><trkpt lat="43.7497858" lon="11.6983769"><ele>585.0</ele><time>2026-04-12T08:54:03.271Z</time></trkpt><trkpt lat="43.7498554" lon="11.6984276"><ele>582.3333333333334</ele><time>2026-04-12T08:54:04.343Z</time></trkpt><trkpt lat="43.7499313" lon="11.698483"><ele>579.6666666666667</ele><time>2026-04-12T08:54:05.334Z</time></trkpt><trkpt lat="43.7499991" lon="11.698557"><ele>577.0</ele><time>2026-04-12T08:54:06.328Z</time></trkpt><trkpt lat="43.7500661" lon="11.6986614"><ele>575.3333333333334</ele><time>2026-04-12T08:54:07.3Z</time></trkpt><trkpt lat="43.750136" lon="11.6987666"><ele>573.6666666666667</ele><time>2026-04-12T08:54:08.305Z</time></trkpt><trkpt lat="43.7502021" lon="11.6988321"><ele>572.0</ele><time>2026-04-12T08:54:09.253Z</time></trkpt><trkpt lat="43.7502502" lon="11.6989007"><ele>570.3333333333334</ele><time>2026-04-12T08:54:10.275Z</time></trkpt><trkpt lat="43.7502584" lon="11.6989899"><ele>568.6666666666666</ele><time>2026-04-12T08:54:11.311Z</time></trkpt><trkpt lat="43.7502401" lon="11.6991001"><ele>567.0</ele><time>2026-04-12T08:54:12.311Z</time></trkpt><trkpt lat="43.7502133" lon="11.6992179"><ele>567.0</ele><time>2026-04-12T08:54:13.259Z</time></trkpt><trkpt lat="43.7501887" lon="11.6993701"><ele>567.0</ele><time>2026-04-12T08:54:14.282Z</time></trkpt><trkpt lat="43.7501876" lon="11.699541"><ele>567.0</ele><time>2026-04-12T08:54:15.244Z</time></trkpt><trkpt lat="43.7501989" lon="11.6997106"><ele>567.0</ele><time>2026-04-12T08:54:16.271Z</time></trkpt><trkpt lat="43.7502395" lon="11.6998618"><ele>563.5</ele><time>2026-04-12T08:54:17.331Z</time></trkpt><trkpt lat="43.7502973" lon="11.7000283"><ele>560.0</ele><time>2026-04-12T08:54:18.343Z</time></trkpt><trkpt lat="43.7503598" lon="11.7002155"><ele>556.5</ele><time>2026-04-12T08:54:19.302Z</time></trkpt><trkpt lat="43.7504084" lon="11.7003706"><ele>553.0</ele><time>2026-04-12T08:54:20.328Z</time></trkpt><trkpt lat="43.750455" lon="11.7004693"><ele>552.5</ele><time>2026-04-12T08:54:21.341Z</time></trkpt><trkpt lat="43.7505169" lon="11.7005496"><ele>552.0</ele><time>2026-04-12T08:54:22.341Z</time></trkpt><trkpt lat="43.7506018" lon="11.7006196"><ele>551.5</ele><time>2026-04-12T08:54:23.333Z</time></trkpt><trkpt lat="43.7506685" lon="11.7006893"><ele>551.0</ele><time>2026-04-12T08:54:24.328Z</time></trkpt><trkpt lat="43.7507329" lon="11.7006982"><ele>550.5</ele><time>2026-04-12T08:54:25.308Z</time></trkpt><trkpt lat="43.7508194" lon="11.7006529"><ele>550.0</ele><time>2026-04-12T08:54:26.334Z</time></trkpt><trkpt lat="43.7509035" lon="11.7006204"><ele>550.0</ele><time>2026-04-12T08:54:27.285Z</time></trkpt><trkpt lat="43.7509943" lon="11.7006085"><ele>550.0</ele><time>2026-04-12T08:54:28.32Z</time></trkpt><trkpt lat="43.7510952" lon="11.700628"><ele>550.0</ele><time>2026-04-12T08:54:29.347Z</time></trkpt><trkpt lat="43.7511914" lon="11.7006622"><ele>550.0</ele><time>2026-04-12T08:54:30.318Z</time></trkpt><trkpt lat="43.7512831" lon="11.7006902"><ele>550.0</ele><time>2026-04-12T08:54:31.355Z</time></trkpt><trkpt lat="43.7513874" lon="11.7007083"><ele>546.8</ele><time>2026-04-12T08:54:32.356Z</time></trkpt><trkpt lat="43.7514905" lon="11.7007185"><ele>543.6</ele><time>2026-04-12T08:54:33.292Z</time></trkpt><trkpt lat="43.7515881" lon="11.7007405"><ele>540.4</ele><time>2026-04-12T08:54:34.352Z</time></trkpt><trkpt lat="43.7516794" lon="11.7007717"><ele>537.2</ele><time>2026-04-12T08:54:35.331Z</time></trkpt><trkpt lat="43.7517536" lon="11.7008026"><ele>534.0</ele><time>2026-04-12T08:54:36.334Z</time></trkpt><trkpt lat="43.7518398" lon="11.7008097"><ele>531.0</ele><time>2026-04-12T08:54:37.352Z</time></trkpt><trkpt lat="43.7519197" lon="11.700801"><ele>528.0</ele><time>2026-04-12T08:54:38.347Z</time></trkpt><trkpt lat="43.751995" lon="11.7007751"><ele>525.0</ele><time>2026-04-12T08:54:39.334Z</time></trkpt><trkpt lat="43.752058" lon="11.7007239"><ele>522.0</ele><time>2026-04-12T08:54:40.351Z</time></trkpt><trkpt lat="43.7521012" lon="11.7006593"><ele>519.0</ele><time>2026-04-12T08:54:41.339Z</time></trkpt><trkpt lat="43.7521341" lon="11.7005551"><ele>516.0</ele><time>2026-04-12T08:54:42.328Z</time></trkpt><trkpt lat="43.7521645" lon="11.7004521"><ele>516.0</ele><time>2026-04-12T08:54:43.326Z</time></trkpt><trkpt lat="43.7521934" lon="11.7003488"><ele>516.0</ele><time>2026-04-12T08:54:44.327Z</time></trkpt><trkpt lat="43.7522319" lon="11.7002582"><ele>516.0</ele><time>2026-04-12T08:54:45.266Z</time></trkpt><trkpt lat="43.7522806" lon="11.7002029"><ele>516.0</ele><time>2026-04-12T08:54:46.284Z</time></trkpt><trkpt lat="43.7523613" lon="11.7002015"><ele>516.0</ele><time>2026-04-12T08:54:48.334Z</time></trkpt><trkpt lat="43.7524529" lon="11.700344"><ele>516.0</ele><time>2026-04-12T08:54:50.318Z</time></trkpt><trkpt lat="43.7525191" lon="11.7004766"><ele>516.0</ele><time>2026-04-12T08:54:51.332Z</time></trkpt><trkpt lat="43.7525895" lon="11.7006249"><ele>516.0</ele><time>2026-04-12T08:54:52.305Z</time></trkpt><trkpt lat="43.7526413" lon="11.7007225"><ele>516.0</ele><time>2026-04-12T08:54:53.314Z</time></trkpt><trkpt lat="43.7527065" lon="11.7008102"><ele>516.0</ele><time>2026-04-12T08:54:54.351Z</time></trkpt><trkpt lat="43.7527679" lon="11.7009133"><ele>516.0</ele><time>2026-04-12T08:54:55.331Z</time></trkpt><trkpt lat="43.7528181" lon="11.7010233"><ele>513.8</ele><time>2026-04-12T08:54:56.311Z</time></trkpt><trkpt lat="43.7528383" lon="11.7011102"><ele>511.6</ele><time>2026-04-12T08:54:57.341Z</time></trkpt><trkpt lat="43.7528156" lon="11.7011982"><ele>509.4</ele><time>2026-04-12T08:54:58.306Z</time></trkpt><trkpt lat="43.7527736" lon="11.7012781"><ele>507.2</ele><time>2026-04-12T08:54:59.323Z</time></trkpt><trkpt lat="43.752698" lon="11.7013826"><ele>505.0</ele><time>2026-04-12T08:55:00.324Z</time></trkpt><trkpt lat="43.7526024" lon="11.7015241"><ele>505.0</ele><time>2026-04-12T08:55:01.31Z</time></trkpt><trkpt lat="43.7525011" lon="11.70166"><ele>505.0</ele><time>2026-04-12T08:55:02.316Z</time></trkpt><trkpt lat="43.7524038" lon="11.7017696"><ele>505.0</ele><time>2026-04-12T08:55:03.354Z</time></trkpt><trkpt lat="43.7522998" lon="11.7018592"><ele>505.0</ele><time>2026-04-12T08:55:04.323Z</time></trkpt><trkpt lat="43.7521983" lon="11.7019495"><ele>502.25</ele><time>2026-04-12T08:55:05.346Z</time></trkpt><trkpt lat="43.7521173" lon="11.7020871"><ele>499.5</ele><time>2026-04-12T08:55:06.338Z</time></trkpt><trkpt lat="43.7520392" lon="11.7022362"><ele>496.75</ele><time>2026-04-12T08:55:07.319Z</time></trkpt><trkpt lat="43.7519784" lon="11.7023748"><ele>494.0</ele><time>2026-04-12T08:55:08.329Z</time></trkpt><trkpt lat="43.7519479" lon="11.7025127"><ele>494.0</ele><time>2026-04-12T08:55:09.321Z</time></trkpt><trkpt lat="43.7519466" lon="11.7026743"><ele>494.0</ele><time>2026-04-12T08:55:10.319Z</time></trkpt><trkpt lat="43.7519613" lon="11.7028455"><ele>494.0</ele><time>2026-04-12T08:55:11.321Z</time></trkpt><trkpt lat="43.7519799" lon="11.7029929"><ele>494.0</ele><time>2026-04-12T08:55:12.332Z</time></trkpt><trkpt lat="43.7519952" lon="11.7031307"><ele>492.5</ele><time>2026-04-12T08:55:13.315Z</time></trkpt><trkpt lat="43.7519963" lon="11.7032844"><ele>491.0</ele><time>2026-04-12T08:55:14.32Z</time></trkpt><trkpt lat="43.7519634" lon="11.7034711"><ele>489.5</ele><time>2026-04-12T08:55:15.325Z</time></trkpt><trkpt lat="43.7519027" lon="11.7036516"><ele>488.0</ele><time>2026-04-12T08:55:16.299Z</time></trkpt><trkpt lat="43.7518327" lon="11.7038008"><ele>488.0</ele><time>2026-04-12T08:55:17.335Z</time></trkpt><trkpt lat="43.751754" lon="11.7039464"><ele>488.0</ele><time>2026-04-12T08:55:18.319Z</time></trkpt><trkpt lat="43.7516993" lon="11.704096"><ele>488.0</ele><time>2026-04-12T08:55:19.335Z</time></trkpt><trkpt lat="43.751672" lon="11.7042531"><ele>488.0</ele><time>2026-04-12T08:55:20.324Z</time></trkpt><trkpt lat="43.7516639" lon="11.7044195"><ele>486.59999999999997</ele><time>2026-04-12T08:55:21.312Z</time></trkpt><trkpt lat="43.7516861" lon="11.7045919"><ele>485.19999999999993</ele><time>2026-04-12T08:55:22.309Z</time></trkpt><trkpt lat="43.7517347" lon="11.7047333"><ele>483.8</ele><time>2026-04-12T08:55:23.297Z</time></trkpt><trkpt lat="43.7518068" lon="11.7048495"><ele>482.4</ele><time>2026-04-12T08:55:24.316Z</time></trkpt><trkpt lat="43.751886" lon="11.7049111"><ele>481.0</ele><time>2026-04-12T08:55:25.316Z</time></trkpt><trkpt lat="43.7519652" lon="11.7049166"><ele>480.20000000000005</ele><time>2026-04-12T08:55:26.322Z</time></trkpt><trkpt lat="43.7520376" lon="11.7048912"><ele>479.40000000000003</ele><time>2026-04-12T08:55:27.311Z</time></trkpt><trkpt lat="43.7521084" lon="11.7048381"><ele>478.6</ele><time>2026-04-12T08:55:28.312Z</time></trkpt><trkpt lat="43.752174" lon="11.7047052"><ele>477.8</ele><time>2026-04-12T08:55:29.322Z</time></trkpt><trkpt lat="43.7522193" lon="11.7045296"><ele>477.0</ele><time>2026-04-12T08:55:30.328Z</time></trkpt><trkpt lat="43.7522884" lon="11.7043893"><ele>477.0</ele><time>2026-04-12T08:55:31.256Z</time></trkpt><trkpt lat="43.7523905" lon="11.7043188"><ele>477.00000000000006</ele><time>2026-04-12T08:55:32.318Z</time></trkpt><trkpt lat="43.752497" lon="11.7042644"><ele>477.00000000000006</ele><time>2026-04-12T08:55:33.33Z</time></trkpt><trkpt lat="43.7525969" lon="11.7042516"><ele>477.0</ele><time>2026-04-12T08:55:34.319Z</time></trkpt><trkpt lat="43.752682" lon="11.7042928"><ele>477.0</ele><time>2026-04-12T08:55:35.328Z</time></trkpt><trkpt lat="43.7527707" lon="11.7044167"><ele>472.75</ele><time>2026-04-12T08:55:36.34Z</time></trkpt><trkpt lat="43.7528686" lon="11.7045745"><ele>468.5</ele><time>2026-04-12T08:55:37.3Z</time></trkpt><trkpt lat="43.7529629" lon="11.7047326"><ele>464.25</ele><time>2026-04-12T08:55:38.319Z</time></trkpt><trkpt lat="43.7530565" lon="11.7048649"><ele>460.0</ele><time>2026-04-12T08:55:39.316Z</time></trkpt><trkpt lat="43.7531378" lon="11.7049814"><ele>460.0</ele><time>2026-04-12T08:55:40.302Z</time></trkpt><trkpt lat="43.7532132" lon="11.7051044"><ele>460.0</ele><time>2026-04-12T08:55:41.34Z</time></trkpt><trkpt lat="43.7532818" lon="11.7052403"><ele>460.0</ele><time>2026-04-12T08:55:42.309Z</time></trkpt><trkpt lat="43.7533365" lon="11.7053809"><ele>460.0</ele><time>2026-04-12T08:55:43.324Z</time></trkpt><trkpt lat="43.7533842" lon="11.7055022"><ele>459.83333333333337</ele><time>2026-04-12T08:55:44.305Z</time></trkpt><trkpt lat="43.7534279" lon="11.7055929"><ele>459.6666666666667</ele><time>2026-04-12T08:55:45.332Z</time></trkpt><trkpt lat="43.7534685" lon="11.705673"><ele>459.5</ele><time>2026-04-12T08:55:46.326Z</time></trkpt><trkpt lat="43.7534952" lon="11.7057642"><ele>459.33333333333337</ele><time>2026-04-12T08:55:47.33Z</time></trkpt><trkpt lat="43.7535262" lon="11.7058406"><ele>459.1666666666667</ele><time>2026-04-12T08:55:48.325Z</time></trkpt><trkpt lat="43.753534" lon="11.705989"><ele>459.0</ele><time>2026-04-12T08:55:50.336Z</time></trkpt><trkpt lat="43.7534875" lon="11.7060783"><ele>457.0</ele><time>2026-04-12T08:55:51.334Z</time></trkpt><trkpt lat="43.7534149" lon="11.7061573"><ele>455.0</ele><time>2026-04-12T08:55:52.321Z</time></trkpt><trkpt lat="43.7533085" lon="11.7062365"><ele>453.0</ele><time>2026-04-12T08:55:53.307Z</time></trkpt><trkpt lat="43.7531766" lon="11.7063469"><ele>451.0</ele><time>2026-04-12T08:55:54.319Z</time></trkpt><trkpt lat="43.7530332" lon="11.7064829"><ele>451.0</ele><time>2026-04-12T08:55:55.312Z</time></trkpt><trkpt lat="43.7528676" lon="11.7066352"><ele>451.0</ele><time>2026-04-12T08:55:56.327Z</time></trkpt><trkpt lat="43.7527162" lon="11.7067833"><ele>451.0</ele><time>2026-04-12T08:55:57.537Z</time></trkpt><trkpt lat="43.7524793" lon="11.7070896"><ele>449.0</ele><time>2026-04-12T08:55:59.343Z</time></trkpt><trkpt lat="43.7523663" lon="11.7072279"><ele>447.0</ele><time>2026-04-12T08:56:00.3Z</time></trkpt><trkpt lat="43.7522634" lon="11.7073598"><ele>445.0</ele><time>2026-04-12T08:56:01.351Z</time></trkpt><trkpt lat="43.752162" lon="11.7075038"><ele>443.0</ele><time>2026-04-12T08:56:02.337Z</time></trkpt><trkpt lat="43.7520664" lon="11.707649"><ele>440.5</ele><time>2026-04-12T08:56:03.351Z</time></trkpt><trkpt lat="43.7519673" lon="11.7077968"><ele>438.0</ele><time>2026-04-12T08:56:04.343Z</time></trkpt><trkpt lat="43.7518665" lon="11.7079405"><ele>435.5</ele><time>2026-04-12T08:56:05.324Z</time></trkpt><trkpt lat="43.7517634" lon="11.7080814"><ele>433.0</ele><time>2026-04-12T08:56:06.329Z</time></trkpt><trkpt lat="43.7516672" lon="11.7082054"><ele>433.0</ele><time>2026-04-12T08:56:07.289Z</time></trkpt><trkpt lat="43.7515621" lon="11.7082839"><ele>433.0</ele><time>2026-04-12T08:56:08.593Z</time></trkpt><trkpt lat="43.7513325" lon="11.7083733"><ele>433.0</ele><time>2026-04-12T08:56:10.32Z</time></trkpt><trkpt lat="43.751206" lon="11.7084241"><ele>433.0</ele><time>2026-04-12T08:56:11.309Z</time></trkpt><trkpt lat="43.7510764" lon="11.7084884"><ele>433.0</ele><time>2026-04-12T08:56:12.355Z</time></trkpt><trkpt lat="43.7509467" lon="11.7085535"><ele>433.0</ele><time>2026-04-12T08:56:13.337Z</time></trkpt><trkpt lat="43.7508198" lon="11.7086397"><ele>433.0</ele><time>2026-04-12T08:56:14.372Z</time></trkpt><trkpt lat="43.7506991" lon="11.7087536"><ele>431.33333333333337</ele><time>2026-04-12T08:56:15.346Z</time></trkpt><trkpt lat="43.7505931" lon="11.7089006"><ele>429.66666666666663</ele><time>2026-04-12T08:56:16.329Z</time></trkpt><trkpt lat="43.7504952" lon="11.7090678"><ele>428.0</ele><time>2026-04-12T08:56:17.54Z</time></trkpt><trkpt lat="43.750317" lon="11.7095165"><ele>429.0</ele><time>2026-04-12T08:56:19.351Z</time></trkpt><trkpt lat="43.7502393" lon="11.709743"><ele>430.0</ele><time>2026-04-12T08:56:20.351Z</time></trkpt><trkpt lat="43.7501632" lon="11.7099404"><ele>431.0</ele><time>2026-04-12T08:56:21.314Z</time></trkpt><trkpt lat="43.7500768" lon="11.71012"><ele>428.0</ele><time>2026-04-12T08:56:22.336Z</time></trkpt><trkpt lat="43.7499626" lon="11.7102547"><ele>425.0</ele><time>2026-04-12T08:56:23.334Z</time></trkpt><trkpt lat="43.7498248" lon="11.7103605"><ele>422.0</ele><time>2026-04-12T08:56:24.545Z</time></trkpt><trkpt lat="43.7495399" lon="11.7105483"><ele>422.0</ele><time>2026-04-12T08:56:26.342Z</time></trkpt><trkpt lat="43.7494077" lon="11.7106413"><ele>422.0</ele><time>2026-04-12T08:56:27.337Z</time></trkpt><trkpt lat="43.749275" lon="11.7107306"><ele>422.0</ele><time>2026-04-12T08:56:28.54Z</time></trkpt><trkpt lat="43.7490036" lon="11.7109207"><ele>418.0</ele><time>2026-04-12T08:56:30.547Z</time></trkpt><trkpt lat="43.7487537" lon="11.711083"><ele>414.0</ele><time>2026-04-12T08:56:32.564Z</time></trkpt><trkpt lat="43.7485024" lon="11.7111979"><ele>417.0</ele><time>2026-04-12T08:56:34.568Z</time></trkpt><trkpt lat="43.7482627" lon="11.7110593"><ele>420.0</ele><time>2026-04-12T08:56:36.309Z</time></trkpt><trkpt lat="43.7481437" lon="11.7109367"><ele>423.0</ele><time>2026-04-12T08:56:37.336Z</time></trkpt><trkpt lat="43.7480222" lon="11.7108167"><ele>423.0</ele><time>2026-04-12T08:56:38.505Z</time></trkpt><trkpt lat="43.7477838" lon="11.7106187"><ele>423.0</ele><time>2026-04-12T08:56:40.546Z</time></trkpt><trkpt lat="43.747517" lon="11.7105001"><ele>415.0</ele><time>2026-04-12T08:56:42.572Z</time></trkpt><trkpt lat="43.7472529" lon="11.7104217"><ele>407.0</ele><time>2026-04-12T08:56:44.586Z</time></trkpt><trkpt lat="43.7470122" lon="11.7103105"><ele>407.0</ele><time>2026-04-12T08:56:46.335Z</time></trkpt><trkpt lat="43.7468905" lon="11.7102381"><ele>407.0</ele><time>2026-04-12T08:56:47.327Z</time></trkpt><trkpt lat="43.7467693" lon="11.7101605"><ele>407.0</ele><time>2026-04-12T08:56:48.551Z</time></trkpt><trkpt lat="43.7465121" lon="11.7101013"><ele>407.0</ele><time>2026-04-12T08:56:50.336Z</time></trkpt><trkpt lat="43.7463861" lon="11.710109"><ele>407.0</ele><time>2026-04-12T08:56:51.359Z</time></trkpt><trkpt lat="43.7462662" lon="11.7100999"><ele>407.0</ele><time>2026-04-12T08:56:52.365Z</time></trkpt><trkpt lat="43.7461751" lon="11.7100138"><ele>407.0</ele><time>2026-04-12T08:56:53.29Z</time></trkpt><trkpt lat="43.7460979" lon="11.7098696"><ele>403.5</ele><time>2026-04-12T08:56:54.256Z</time></trkpt><trkpt lat="43.7460363" lon="11.7097154"><ele>400.0</ele><time>2026-04-12T08:56:55.262Z</time></trkpt><trkpt lat="43.7459853" lon="11.7095508"><ele>396.5</ele><time>2026-04-12T08:56:56.247Z</time></trkpt><trkpt lat="43.7459578" lon="11.7093739"><ele>393.0</ele><time>2026-04-12T08:56:57.281Z</time></trkpt><trkpt lat="43.7459391" lon="11.7091987"><ele>393.0</ele><time>2026-04-12T08:56:58.336Z</time></trkpt><trkpt lat="43.7459211" lon="11.7090381"><ele>393.0</ele><time>2026-04-12T08:56:59.26Z</time></trkpt><trkpt lat="43.7458979" lon="11.7088823"><ele>393.0</ele><time>2026-04-12T08:57:00.281Z</time></trkpt><trkpt lat="43.7458492" lon="11.7087356"><ele>393.0</ele><time>2026-04-12T08:57:01.326Z</time></trkpt><trkpt lat="43.7457729" lon="11.7086318"><ele>393.0</ele><time>2026-04-12T08:57:02.301Z</time></trkpt><trkpt lat="43.7456798" lon="11.7085833"><ele>393.0</ele><time>2026-04-12T08:57:03.301Z</time></trkpt><trkpt lat="43.7455948" lon="11.7085639"><ele>393.0</ele><time>2026-04-12T08:57:04.34Z</time></trkpt><trkpt lat="43.7455177" lon="11.7085849"><ele>393.0</ele><time>2026-04-12T08:57:05.33Z</time></trkpt><trkpt lat="43.7454634" lon="11.7086635"><ele>393.0</ele><time>2026-04-12T08:57:06.336Z</time></trkpt><trkpt lat="43.7454313" lon="11.7087849"><ele>393.0</ele><time>2026-04-12T08:57:07.323Z</time></trkpt><trkpt lat="43.7453891" lon="11.7089207"><ele>393.0</ele><time>2026-04-12T08:57:08.334Z</time></trkpt><trkpt lat="43.7453022" lon="11.7090213"><ele>393.0</ele><time>2026-04-12T08:57:09.325Z</time></trkpt><trkpt lat="43.7451954" lon="11.7091146"><ele>393.0</ele><time>2026-04-12T08:57:10.332Z</time></trkpt><trkpt lat="43.7450996" lon="11.7092065"><ele>393.0</ele><time>2026-04-12T08:57:11.342Z</time></trkpt><trkpt lat="43.7450221" lon="11.7092959"><ele>391.0</ele><time>2026-04-12T08:57:12.322Z</time></trkpt><trkpt lat="43.7449635" lon="11.7093726"><ele>389.0</ele><time>2026-04-12T08:57:13.337Z</time></trkpt><trkpt lat="43.7449097" lon="11.7094261"><ele>387.0</ele><time>2026-04-12T08:57:14.357Z</time></trkpt><trkpt lat="43.7448051" lon="11.7094492"><ele>385.0</ele><time>2026-04-12T08:57:16.338Z</time></trkpt><trkpt lat="43.7447337" lon="11.7094152"><ele>383.0</ele><time>2026-04-12T08:57:17.344Z</time></trkpt><trkpt lat="43.7446224" lon="11.7093763"><ele>381.0</ele><time>2026-04-12T08:57:18.311Z</time></trkpt><trkpt lat="43.7444816" lon="11.7093513"><ele>379.6666666666667</ele><time>2026-04-12T08:57:19.342Z</time></trkpt><trkpt lat="43.7443076" lon="11.7092954"><ele>378.33333333333337</ele><time>2026-04-12T08:57:20.337Z</time></trkpt><trkpt lat="43.744132" lon="11.7092035"><ele>377.0</ele><time>2026-04-12T08:57:21.375Z</time></trkpt><trkpt lat="43.7439882" lon="11.7090887"><ele>377.0</ele><time>2026-04-12T08:57:22.336Z</time></trkpt><trkpt lat="43.7438601" lon="11.7089535"><ele>377.0</ele><time>2026-04-12T08:57:23.317Z</time></trkpt><trkpt lat="43.7437472" lon="11.708796"><ele>377.0</ele><time>2026-04-12T08:57:24.285Z</time></trkpt><trkpt lat="43.743647" lon="11.7086355"><ele>377.5</ele><time>2026-04-12T08:57:25.586Z</time></trkpt><trkpt lat="43.7434579" lon="11.7083039"><ele>378.0</ele><time>2026-04-12T08:57:27.586Z</time></trkpt><trkpt lat="43.743273" lon="11.7079853"><ele>378.0</ele><time>2026-04-12T08:57:29.547Z</time></trkpt><trkpt lat="43.743102" lon="11.7076959"><ele>378.0</ele><time>2026-04-12T08:57:31.304Z</time></trkpt><trkpt lat="43.7430154" lon="11.7075522"><ele>378.0</ele><time>2026-04-12T08:57:32.281Z</time></trkpt><trkpt lat="43.7429282" lon="11.7074113"><ele>378.0</ele><time>2026-04-12T08:57:33.339Z</time></trkpt><trkpt lat="43.7428444" lon="11.7072778"><ele>378.0</ele><time>2026-04-12T08:57:34.509Z</time></trkpt><trkpt lat="43.7426828" lon="11.7070094"><ele>378.0</ele><time>2026-04-12T08:57:36.32Z</time></trkpt><trkpt lat="43.7426036" lon="11.7068802"><ele>378.3333333333333</ele><time>2026-04-12T08:57:37.315Z</time></trkpt><trkpt lat="43.7425293" lon="11.7067558"><ele>378.66666666666663</ele><time>2026-04-12T08:57:38.553Z</time></trkpt><trkpt lat="43.7423837" lon="11.7065068"><ele>379.0</ele><time>2026-04-12T08:57:40.365Z</time></trkpt><trkpt lat="43.7423105" lon="11.706381"><ele>379.0</ele><time>2026-04-12T08:57:41.314Z</time></trkpt><trkpt lat="43.7422426" lon="11.7062609"><ele>379.0</ele><time>2026-04-12T08:57:42.344Z</time></trkpt><trkpt lat="43.7421789" lon="11.706164"><ele>379.0</ele><time>2026-04-12T08:57:43.281Z</time></trkpt><trkpt lat="43.7421177" lon="11.7060888"><ele>379.0</ele><time>2026-04-12T08:57:44.372Z</time></trkpt><trkpt lat="43.7420485" lon="11.7060583"><ele>379.0</ele><time>2026-04-12T08:57:45.347Z</time></trkpt><trkpt lat="43.7419724" lon="11.706075"><ele>379.0</ele><time>2026-04-12T08:57:46.327Z</time></trkpt><trkpt lat="43.7418908" lon="11.7061328"><ele>379.25</ele><time>2026-04-12T08:57:47.519Z</time></trkpt><trkpt lat="43.7417436" lon="11.7062721"><ele>379.5</ele><time>2026-04-12T08:57:49.296Z</time></trkpt><trkpt lat="43.7416468" lon="11.706326"><ele>379.75</ele><time>2026-04-12T08:57:51.338Z</time></trkpt><trkpt lat="43.7416021" lon="11.7062231"><ele>380.0</ele><time>2026-04-12T08:57:52.345Z</time></trkpt><trkpt lat="43.7415563" lon="11.7060508"><ele>380.0</ele><time>2026-04-12T08:57:53.305Z</time></trkpt><trkpt lat="43.7414995" lon="11.7058545"><ele>380.0</ele><time>2026-04-12T08:57:54.257Z</time></trkpt><trkpt lat="43.7414079" lon="11.7056287"><ele>380.0</ele><time>2026-04-12T08:57:55.524Z</time></trkpt><trkpt lat="43.7412403" lon="11.7052377"><ele>380.0</ele><time>2026-04-12T08:57:57.34Z</time></trkpt><trkpt lat="43.7411788" lon="11.7050791"><ele>380.0</ele><time>2026-04-12T08:57:58.336Z</time></trkpt><trkpt lat="43.741114" lon="11.7049356"><ele>380.0</ele><time>2026-04-12T08:57:59.313Z</time></trkpt><trkpt lat="43.7410504" lon="11.7048104"><ele>380.0</ele><time>2026-04-12T08:58:00.343Z</time></trkpt><trkpt lat="43.7409868" lon="11.7046831"><ele>380.2</ele><time>2026-04-12T08:58:01.28Z</time></trkpt><trkpt lat="43.7409302" lon="11.7045633"><ele>380.4</ele><time>2026-04-12T08:58:02.287Z</time></trkpt><trkpt lat="43.7409058" lon="11.7044554"><ele>380.6</ele><time>2026-04-12T08:58:03.369Z</time></trkpt><trkpt lat="43.7408577" lon="11.7043492"><ele>380.8</ele><time>2026-04-12T08:58:05.328Z</time></trkpt><trkpt lat="43.7407587" lon="11.704468"><ele>381.0</ele><time>2026-04-12T08:58:07.333Z</time></trkpt><trkpt lat="43.7407094" lon="11.7045347"><ele>381.0</ele><time>2026-04-12T08:58:08.343Z</time></trkpt><trkpt lat="43.7406628" lon="11.7045995"><ele>381.0</ele><time>2026-04-12T08:58:09.336Z</time></trkpt><trkpt lat="43.7405697" lon="11.7045909"><ele>381.0</ele><time>2026-04-12T08:58:11.333Z</time></trkpt><trkpt lat="43.7405341" lon="11.7045118"><ele>381.0</ele><time>2026-04-12T08:58:12.328Z</time></trkpt><trkpt lat="43.7404922" lon="11.7044018"><ele>381.0</ele><time>2026-04-12T08:58:13.501Z</time></trkpt><trkpt lat="43.7403684" lon="11.7041061"><ele>381.0</ele><time>2026-04-12T08:58:15.319Z</time></trkpt><trkpt lat="43.7402993" lon="11.7039574"><ele>381.0</ele><time>2026-04-12T08:58:16.362Z</time></trkpt><trkpt lat="43.7402329" lon="11.7038107"><ele>381.0</ele><time>2026-04-12T08:58:17.326Z</time></trkpt><trkpt lat="43.7401665" lon="11.7036672"><ele>381.0</ele><time>2026-04-12T08:58:18.514Z</time></trkpt><trkpt lat="43.740015" lon="11.7034042"><ele>388.5</ele><time>2026-04-12T08:58:20.528Z</time></trkpt><trkpt lat="43.7398201" lon="11.703137"><ele>396.0</ele><time>2026-04-12T08:58:22.488Z</time></trkpt><trkpt lat="43.7395924" lon="11.7029186"><ele>396.0</ele><time>2026-04-12T08:58:24.291Z</time></trkpt><trkpt lat="43.7394858" lon="11.7028151"><ele>396.0</ele><time>2026-04-12T08:58:25.592Z</time></trkpt><trkpt lat="43.7392919" lon="11.7026018"><ele>396.0</ele><time>2026-04-12T08:58:27.569Z</time></trkpt><trkpt lat="43.7391619" lon="11.7023159"><ele>398.33333333333337</ele><time>2026-04-12T08:58:29.354Z</time></trkpt><trkpt lat="43.7391192" lon="11.7021289"><ele>400.6666666666667</ele><time>2026-04-12T08:58:30.333Z</time></trkpt><trkpt lat="43.7390746" lon="11.7019103"><ele>403.0</ele><time>2026-04-12T08:58:31.333Z</time></trkpt><trkpt lat="43.7390311" lon="11.7016972"><ele>403.0</ele><time>2026-04-12T08:58:32.337Z</time></trkpt><trkpt lat="43.7389879" lon="11.7015104"><ele>403.0</ele><time>2026-04-12T08:58:33.541Z</time></trkpt><trkpt lat="43.7388898" lon="11.7012864"><ele>403.0</ele><time>2026-04-12T08:58:35.557Z</time></trkpt><trkpt lat="43.7387696" lon="11.7011619"><ele>403.0</ele><time>2026-04-12T08:58:37.294Z</time></trkpt><trkpt lat="43.7387093" lon="11.7011095"><ele>403.0</ele><time>2026-04-12T08:58:38.284Z</time></trkpt><trkpt lat="43.7386496" lon="11.7010659"><ele>403.0</ele><time>2026-04-12T08:58:39.305Z</time></trkpt><trkpt lat="43.7385589" lon="11.7010577"><ele>403.0</ele><time>2026-04-12T08:58:41.33Z</time></trkpt><trkpt lat="43.7384774" lon="11.7012866"><ele>403.0</ele><time>2026-04-12T08:58:44.524Z</time></trkpt><trkpt lat="43.7385206" lon="11.7015614"><ele>403.0</ele><time>2026-04-12T08:58:46.32Z</time></trkpt><trkpt lat="43.738548" lon="11.7017247"><ele>403.0</ele><time>2026-04-12T08:58:47.322Z</time></trkpt><trkpt lat="43.7385812" lon="11.7018873"><ele>403.0</ele><time>2026-04-12T08:58:48.346Z</time></trkpt><trkpt lat="43.738622" lon="11.7020525"><ele>403.0</ele><time>2026-04-12T08:58:49.294Z</time></trkpt><trkpt lat="43.7386622" lon="11.7022135"><ele>406.0</ele><time>2026-04-12T08:58:50.338Z</time></trkpt><trkpt lat="43.7387071" lon="11.7023753"><ele>409.0</ele><time>2026-04-12T08:58:51.351Z</time></trkpt><trkpt lat="43.7387581" lon="11.7025285"><ele>412.0</ele><time>2026-04-12T08:58:52.339Z</time></trkpt><trkpt lat="43.738813" lon="11.7026562"><ele>415.0</ele><time>2026-04-12T08:58:53.329Z</time></trkpt><trkpt lat="43.7388767" lon="11.7027692"><ele>421.0</ele><time>2026-04-12T08:58:54.498Z</time></trkpt><trkpt lat="43.7390337" lon="11.7030092"><ele>427.0</ele><time>2026-04-12T08:58:56.328Z</time></trkpt><trkpt lat="43.7391292" lon="11.7031331"><ele>433.0</ele><time>2026-04-12T08:58:57.269Z</time></trkpt><trkpt lat="43.739236" lon="11.7032701"><ele>433.0</ele><time>2026-04-12T08:58:58.279Z</time></trkpt><trkpt lat="43.7393454" lon="11.703415"><ele>433.0</ele><time>2026-04-12T08:58:59.494Z</time></trkpt><trkpt lat="43.7395305" lon="11.703699"><ele>433.0</ele><time>2026-04-12T08:59:01.32Z</time></trkpt><trkpt lat="43.7395931" lon="11.7038318"><ele>425.0</ele><time>2026-04-12T08:59:02.331Z</time></trkpt><trkpt lat="43.7396234" lon="11.7039639"><ele>417.0</ele><time>2026-04-12T08:59:03.53Z</time></trkpt><trkpt lat="43.7395867" lon="11.704236"><ele>409.0</ele><time>2026-04-12T08:59:05.562Z</time></trkpt><trkpt lat="43.7393916" lon="11.7044125"><ele>418.0</ele><time>2026-04-12T08:59:07.518Z</time></trkpt><trkpt lat="43.7390857" lon="11.7044942"><ele>427.0</ele><time>2026-04-12T08:59:09.49Z</time></trkpt><trkpt lat="43.7388001" lon="11.7046051"><ele>427.0</ele><time>2026-04-12T08:59:11.378Z</time></trkpt><trkpt lat="43.7386911" lon="11.7047229"><ele>427.0</ele><time>2026-04-12T08:59:12.357Z</time></trkpt><trkpt lat="43.7386107" lon="11.704865"><ele>427.0</ele><time>2026-04-12T08:59:13.344Z</time></trkpt><trkpt lat="43.7385581" lon="11.7050317"><ele>427.0</ele><time>2026-04-12T08:59:14.54Z</time></trkpt><trkpt lat="43.7384898" lon="11.7053859"><ele>432.25</ele><time>2026-04-12T08:59:16.332Z</time></trkpt><trkpt lat="43.7384639" lon="11.7055767"><ele>437.5</ele><time>2026-04-12T08:59:17.344Z</time></trkpt><trkpt lat="43.7384548" lon="11.7057611"><ele>442.75</ele><time>2026-04-12T08:59:18.297Z</time></trkpt><trkpt lat="43.7384791" lon="11.7059215"><ele>448.0</ele><time>2026-04-12T08:59:19.358Z</time></trkpt><trkpt lat="43.7385217" lon="11.7060592"><ele>449.5</ele><time>2026-04-12T08:59:20.337Z</time></trkpt><trkpt lat="43.7385784" lon="11.7061659"><ele>451.0</ele><time>2026-04-12T08:59:21.341Z</time></trkpt><trkpt lat="43.7386498" lon="11.7062391"><ele>452.5</ele><time>2026-04-12T08:59:22.33Z</time></trkpt><trkpt lat="43.7387332" lon="11.7062965"><ele>454.0</ele><time>2026-04-12T08:59:23.507Z</time></trkpt><trkpt lat="43.7389813" lon="11.7062905"><ele>454.0</ele><time>2026-04-12T08:59:25.301Z</time></trkpt><trkpt lat="43.7391025" lon="11.7062728"><ele>454.0</ele><time>2026-04-12T08:59:26.326Z</time></trkpt><trkpt lat="43.7392104" lon="11.7062524"><ele>454.0</ele><time>2026-04-12T08:59:27.319Z</time></trkpt><trkpt lat="43.7392896" lon="11.7063224"><ele>454.0</ele><time>2026-04-12T08:59:29.343Z</time></trkpt><trkpt lat="43.7392917" lon="11.706463"><ele>454.0</ele><time>2026-04-12T08:59:31.269Z</time></trkpt><trkpt lat="43.7392338" lon="11.7065659"><ele>454.0</ele><time>2026-04-12T08:59:32.27Z</time></trkpt><trkpt lat="43.7391938" lon="11.7066696"><ele>454.0</ele><time>2026-04-12T08:59:33.272Z</time></trkpt><trkpt lat="43.739183" lon="11.7068265"><ele>454.0</ele><time>2026-04-12T08:59:35.326Z</time></trkpt><trkpt lat="43.7392274" lon="11.7069136"><ele>454.0</ele><time>2026-04-12T08:59:37.28Z</time></trkpt><trkpt lat="43.7392698" lon="11.706991"><ele>454.0</ele><time>2026-04-12T08:59:39.271Z</time></trkpt><trkpt lat="43.7392326" lon="11.707142"><ele>455.50000000000006</ele><time>2026-04-12T08:59:42.28Z</time></trkpt><trkpt lat="43.7391894" lon="11.7072322"><ele>457.0</ele><time>2026-04-12T08:59:44.504Z</time></trkpt><trkpt lat="43.7392015" lon="11.7073366"><ele>458.5</ele><time>2026-04-12T08:59:47.273Z</time></trkpt><trkpt lat="43.7392691" lon="11.7073943"><ele>460.0</ele><time>2026-04-12T08:59:50.525Z</time></trkpt><trkpt lat="43.7392285" lon="11.7075242"><ele>461.50000000000006</ele><time>2026-04-12T08:59:56.279Z</time></trkpt><trkpt lat="43.739281" lon="11.7076549"><ele>463.0</ele><time>2026-04-12T09:00:00.319Z</time></trkpt><trkpt lat="43.7392475" lon="11.7077376"><ele>465.50000000000006</ele><time>2026-04-12T09:00:04.391Z</time></trkpt><trkpt lat="43.739293" lon="11.7078236"><ele>468.0</ele><time>2026-04-12T09:00:07.284Z</time></trkpt><trkpt lat="43.7393517" lon="11.7078931"><ele>470.5</ele><time>2026-04-12T09:00:09.339Z</time></trkpt><trkpt lat="43.7393983" lon="11.7079663"><ele>473.0</ele><time>2026-04-12T09:00:11.334Z</time></trkpt><trkpt lat="43.7394591" lon="11.708054"><ele>475.50000000000006</ele><time>2026-04-12T09:00:13.355Z</time></trkpt><trkpt lat="43.7395481" lon="11.7081187"><ele>478.0</ele><time>2026-04-12T09:00:15.377Z</time></trkpt><trkpt lat="43.7396552" lon="11.708181"><ele>478.57142857142867</ele><time>2026-04-12T09:00:17.371Z</time></trkpt><trkpt lat="43.7397199" lon="11.7082125"><ele>479.14285714285717</ele><time>2026-04-12T09:00:18.299Z</time></trkpt><trkpt lat="43.7397898" lon="11.7082607"><ele>479.7142857142858</ele><time>2026-04-12T09:00:20.337Z</time></trkpt><trkpt lat="43.7397309" lon="11.7083106"><ele>480.28571428571433</ele><time>2026-04-12T09:00:26.347Z</time></trkpt><trkpt lat="43.7397281" lon="11.7084194"><ele>480.8571428571429</ele><time>2026-04-12T09:00:29.339Z</time></trkpt><trkpt lat="43.7397171" lon="11.7085342"><ele>481.42857142857144</ele><time>2026-04-12T09:00:32.318Z</time></trkpt><trkpt lat="43.7396972" lon="11.7086203"><ele>482.0</ele><time>2026-04-12T09:00:34.324Z</time></trkpt><trkpt lat="43.7397018" lon="11.7087106"><ele>486.40000000000003</ele><time>2026-04-12T09:00:37.957Z</time></trkpt><trkpt lat="43.7396008" lon="11.7087558"><ele>490.80000000000007</ele><time>2026-04-12T09:00:39.284Z</time></trkpt><trkpt lat="43.739553" lon="11.708829"><ele>495.2</ele><time>2026-04-12T09:00:41.355Z</time></trkpt><trkpt lat="43.7395508" lon="11.7090988"><ele>499.6</ele><time>2026-04-12T09:00:43.357Z</time></trkpt><trkpt lat="43.7395467" lon="11.7092052"><ele>504.0</ele><time>2026-04-12T09:00:44.342Z</time></trkpt><trkpt lat="43.7395453" lon="11.7092976"><ele>504.0</ele><time>2026-04-12T09:00:45.341Z</time></trkpt><trkpt lat="43.7395396" lon="11.7094613"><ele>504.0</ele><time>2026-04-12T09:00:47.238Z</time></trkpt><trkpt lat="43.7395253" lon="11.709558"><ele>504.0</ele><time>2026-04-12T09:00:48.138Z</time></trkpt><trkpt lat="43.7395217" lon="11.7096609"><ele>504.0</ele><time>2026-04-12T09:00:49.142Z</time></trkpt><trkpt lat="43.7395065" lon="11.7098501"><ele>504.0</ele><time>2026-04-12T09:00:50.356Z</time></trkpt><trkpt lat="43.7394839" lon="11.7099545"><ele>504.0</ele><time>2026-04-12T09:00:51.364Z</time></trkpt><trkpt lat="43.7394511" lon="11.7100438"><ele>504.0</ele><time>2026-04-12T09:00:52.361Z</time></trkpt><trkpt lat="43.7394091" lon="11.7101208"><ele>504.0</ele><time>2026-04-12T09:00:53.353Z</time></trkpt><trkpt lat="43.7393659" lon="11.7101956"><ele>504.0</ele><time>2026-04-12T09:00:54.35Z</time></trkpt><trkpt lat="43.7393187" lon="11.7102701"><ele>504.0</ele><time>2026-04-12T09:00:55.363Z</time></trkpt><trkpt lat="43.7392696" lon="11.710349"><ele>504.0</ele><time>2026-04-12T09:00:56.355Z</time></trkpt><trkpt lat="43.7392266" lon="11.7104436"><ele>504.0</ele><time>2026-04-12T09:00:57.364Z</time></trkpt><trkpt lat="43.7391891" lon="11.710544"><ele>507.0</ele><time>2026-04-12T09:00:58.345Z</time></trkpt><trkpt lat="43.7391569" lon="11.7106465"><ele>510.0</ele><time>2026-04-12T09:00:59.365Z</time></trkpt><trkpt lat="43.7391284" lon="11.7107476"><ele>513.0</ele><time>2026-04-12T09:01:00.372Z</time></trkpt><trkpt lat="43.7390913" lon="11.710846"><ele>516.0</ele><time>2026-04-12T09:01:01.332Z</time></trkpt><trkpt lat="43.7390446" lon="11.710968"><ele>519.0</ele><time>2026-04-12T09:01:02.329Z</time></trkpt><trkpt lat="43.7390001" lon="11.7110964"><ele>522.0</ele><time>2026-04-12T09:01:03.348Z</time></trkpt><trkpt lat="43.7389515" lon="11.7112077"><ele>522.4</ele><time>2026-04-12T09:01:04.359Z</time></trkpt><trkpt lat="43.7388944" lon="11.7113055"><ele>522.8000000000001</ele><time>2026-04-12T09:01:05.347Z</time></trkpt><trkpt lat="43.7388346" lon="11.7113888"><ele>523.2</ele><time>2026-04-12T09:01:06.316Z</time></trkpt><trkpt lat="43.738752" lon="11.7114173"><ele>523.6</ele><time>2026-04-12T09:01:08.552Z</time></trkpt><trkpt lat="43.7386689" lon="11.7112644"><ele>524.0</ele><time>2026-04-12T09:01:10.336Z</time></trkpt><trkpt lat="43.7386308" lon="11.7111693"><ele>524.0</ele><time>2026-04-12T09:01:11.329Z</time></trkpt><trkpt lat="43.738587" lon="11.7110843"><ele>524.0</ele><time>2026-04-12T09:01:13.36Z</time></trkpt><trkpt lat="43.7385261" lon="11.711161"><ele>524.0</ele><time>2026-04-12T09:01:15.632Z</time></trkpt><trkpt lat="43.7384665" lon="11.7112559"><ele>524.0</ele><time>2026-04-12T09:01:17.534Z</time></trkpt><trkpt lat="43.7384055" lon="11.7113339"><ele>524.0</ele><time>2026-04-12T09:01:19.292Z</time></trkpt><trkpt lat="43.7382842" lon="11.7114085"><ele>529.0</ele><time>2026-04-12T09:01:21.315Z</time></trkpt><trkpt lat="43.7382152" lon="11.7114514"><ele>534.0</ele><time>2026-04-12T09:01:22.362Z</time></trkpt><trkpt lat="43.7381497" lon="11.7115046"><ele>539.0</ele><time>2026-04-12T09:01:23.299Z</time></trkpt><trkpt lat="43.7380502" lon="11.7115845"><ele>544.0</ele><time>2026-04-12T09:01:25.302Z</time></trkpt><trkpt lat="43.7379924" lon="11.7116565"><ele>549.0</ele><time>2026-04-12T09:01:27.348Z</time></trkpt><trkpt lat="43.7379955" lon="11.7118813"><ele>549.8</ele><time>2026-04-12T09:01:30.28Z</time></trkpt><trkpt lat="43.7379756" lon="11.7119891"><ele>550.5999999999999</ele><time>2026-04-12T09:01:31.302Z</time></trkpt><trkpt lat="43.7379538" lon="11.7120963"><ele>551.4</ele><time>2026-04-12T09:01:32.348Z</time></trkpt><trkpt lat="43.7379369" lon="11.7122057"><ele>552.1999999999999</ele><time>2026-04-12T09:01:33.594Z</time></trkpt><trkpt lat="43.7378965" lon="11.7123692"><ele>553.0</ele><time>2026-04-12T09:01:35.584Z</time></trkpt><trkpt lat="43.7378737" lon="11.7125324"><ele>553.0</ele><time>2026-04-12T09:01:37.58Z</time></trkpt><trkpt lat="43.7378351" lon="11.7127258"><ele>553.0</ele><time>2026-04-12T09:01:39.606Z</time></trkpt><trkpt lat="43.7377656" lon="11.7128646"><ele>553.0</ele><time>2026-04-12T09:01:41.352Z</time></trkpt><trkpt lat="43.7376917" lon="11.7129589"><ele>553.0</ele><time>2026-04-12T09:01:43.31Z</time></trkpt><trkpt lat="43.737616" lon="11.7130379"><ele>561.1999999999999</ele><time>2026-04-12T09:01:45.361Z</time></trkpt><trkpt lat="43.7375457" lon="11.7131648"><ele>569.4</ele><time>2026-04-12T09:01:47.365Z</time></trkpt><trkpt lat="43.7375045" lon="11.7132398"><ele>577.5999999999999</ele><time>2026-04-12T09:01:48.369Z</time></trkpt><trkpt lat="43.7374555" lon="11.7133287"><ele>585.8</ele><time>2026-04-12T09:01:49.348Z</time></trkpt><trkpt lat="43.7374001" lon="11.7134126"><ele>594.0</ele><time>2026-04-12T09:01:50.567Z</time></trkpt><trkpt lat="43.7372964" lon="11.7135471"><ele>593.8333333333334</ele><time>2026-04-12T09:01:52.312Z</time></trkpt><trkpt lat="43.7372286" lon="11.7136066"><ele>593.6666666666666</ele><time>2026-04-12T09:01:53.364Z</time></trkpt><trkpt lat="43.7371508" lon="11.7136531"><ele>593.5</ele><time>2026-04-12T09:01:54.345Z</time></trkpt><trkpt lat="43.7370744" lon="11.7136849"><ele>593.3333333333333</ele><time>2026-04-12T09:01:55.362Z</time></trkpt><trkpt lat="43.7369984" lon="11.7136912"><ele>593.1666666666666</ele><time>2026-04-12T09:01:56.326Z</time></trkpt><trkpt lat="43.7369251" lon="11.7136963"><ele>593.0</ele><time>2026-04-12T09:01:57.322Z</time></trkpt><trkpt lat="43.7368595" lon="11.7136712"><ele>599.3333333333333</ele><time>2026-04-12T09:01:58.551Z</time></trkpt><trkpt lat="43.7367088" lon="11.7134989"><ele>605.6666666666666</ele><time>2026-04-12T09:02:00.336Z</time></trkpt><trkpt lat="43.7366094" lon="11.7133665"><ele>612.0</ele><time>2026-04-12T09:02:01.336Z</time></trkpt><trkpt lat="43.7365068" lon="11.7132278"><ele>612.0</ele><time>2026-04-12T09:02:02.355Z</time></trkpt><trkpt lat="43.7364183" lon="11.7130766"><ele>612.0</ele><time>2026-04-12T09:02:03.365Z</time></trkpt><trkpt lat="43.7363475" lon="11.7129174"><ele>612.0</ele><time>2026-04-12T09:02:04.277Z</time></trkpt><trkpt lat="43.7362675" lon="11.7127729"><ele>612.0</ele><time>2026-04-12T09:02:05.292Z</time></trkpt><trkpt lat="43.7361726" lon="11.7126733"><ele>610.6666666666666</ele><time>2026-04-12T09:02:06.353Z</time></trkpt><trkpt lat="43.7360634" lon="11.7126126"><ele>609.3333333333333</ele><time>2026-04-12T09:02:07.298Z</time></trkpt><trkpt lat="43.7359141" lon="11.7125549"><ele>608.0</ele><time>2026-04-12T09:02:08.343Z</time></trkpt><trkpt lat="43.735734" lon="11.7125006"><ele>612.5</ele><time>2026-04-12T09:02:09.579Z</time></trkpt><trkpt lat="43.7354124" lon="11.7124281"><ele>617.0</ele><time>2026-04-12T09:02:11.347Z</time></trkpt><trkpt lat="43.7352824" lon="11.7124157"><ele>618.75</ele><time>2026-04-12T09:02:12.563Z</time></trkpt><trkpt lat="43.735121" lon="11.7124509"><ele>620.5</ele><time>2026-04-12T09:02:14.549Z</time></trkpt><trkpt lat="43.7349751" lon="11.7124584"><ele>622.25</ele><time>2026-04-12T09:02:16.355Z</time></trkpt><trkpt lat="43.7348924" lon="11.7124376"><ele>624.0</ele><time>2026-04-12T09:02:17.364Z</time></trkpt><trkpt lat="43.7348094" lon="11.7123896"><ele>624.0</ele><time>2026-04-12T09:02:18.579Z</time></trkpt><trkpt lat="43.7346103" lon="11.7122255"><ele>624.0</ele><time>2026-04-12T09:02:20.558Z</time></trkpt><trkpt lat="43.7343494" lon="11.7120635"><ele>624.25</ele><time>2026-04-12T09:02:22.578Z</time></trkpt><trkpt lat="43.734125" lon="11.711986"><ele>624.5</ele><time>2026-04-12T09:02:24.547Z</time></trkpt><trkpt lat="43.734" lon="11.7119895"><ele>624.75</ele><time>2026-04-12T09:02:26.339Z</time></trkpt><trkpt lat="43.733932" lon="11.7120292"><ele>625.0</ele><time>2026-04-12T09:02:28.328Z</time></trkpt><trkpt lat="43.733877" lon="11.7119788"><ele>627.8</ele><time>2026-04-12T09:02:31.346Z</time></trkpt><trkpt lat="43.7337816" lon="11.7118639"><ele>630.6</ele><time>2026-04-12T09:02:33.322Z</time></trkpt><trkpt lat="43.7337165" lon="11.711786"><ele>633.4</ele><time>2026-04-12T09:02:34.313Z</time></trkpt><trkpt lat="43.7336649" lon="11.7116814"><ele>636.2</ele><time>2026-04-12T09:02:35.359Z</time></trkpt><trkpt lat="43.7336506" lon="11.711568"><ele>639.0</ele><time>2026-04-12T09:02:36.327Z</time></trkpt><trkpt lat="43.7336607" lon="11.711452"><ele>639.0</ele><time>2026-04-12T09:02:37.308Z</time></trkpt><trkpt lat="43.7337131" lon="11.7113345"><ele>639.0</ele><time>2026-04-12T09:02:38.415Z</time></trkpt><trkpt lat="43.7337844" lon="11.7112391"><ele>639.0</ele><time>2026-04-12T09:02:39.316Z</time></trkpt><trkpt lat="43.733869" lon="11.7111704"><ele>639.0</ele><time>2026-04-12T09:02:40.342Z</time></trkpt><trkpt lat="43.733962" lon="11.7111318"><ele>639.0</ele><time>2026-04-12T09:02:41.319Z</time></trkpt><trkpt lat="43.7340605" lon="11.7110976"><ele>641.6</ele><time>2026-04-12T09:02:42.344Z</time></trkpt><trkpt lat="43.7341496" lon="11.7110634"><ele>644.2</ele><time>2026-04-12T09:02:43.348Z</time></trkpt><trkpt lat="43.7342204" lon="11.7110177"><ele>646.8000000000001</ele><time>2026-04-12T09:02:44.293Z</time></trkpt><trkpt lat="43.7342949" lon="11.7109478"><ele>649.4</ele><time>2026-04-12T09:02:45.302Z</time></trkpt><trkpt lat="43.7343815" lon="11.710858"><ele>652.0</ele><time>2026-04-12T09:02:46.368Z</time></trkpt><trkpt lat="43.7344573" lon="11.7107561"><ele>652.0</ele><time>2026-04-12T09:02:47.364Z</time></trkpt><trkpt lat="43.7345048" lon="11.7106342"><ele>652.0</ele><time>2026-04-12T09:02:48.351Z</time></trkpt><trkpt lat="43.7345246" lon="11.7105143"><ele>652.0</ele><time>2026-04-12T09:02:49.308Z</time></trkpt><trkpt lat="43.73452" lon="11.7104078"><ele>652.0</ele><time>2026-04-12T09:02:50.332Z</time></trkpt><trkpt lat="43.7344708" lon="11.7103485"><ele>652.0</ele><time>2026-04-12T09:02:51.348Z</time></trkpt><trkpt lat="43.7343899" lon="11.7103066"><ele>652.0</ele><time>2026-04-12T09:02:52.349Z</time></trkpt><trkpt lat="43.7342857" lon="11.710257"><ele>653.8</ele><time>2026-04-12T09:02:53.343Z</time></trkpt><trkpt lat="43.734172" lon="11.7102109"><ele>655.6</ele><time>2026-04-12T09:02:54.347Z</time></trkpt><trkpt lat="43.7340635" lon="11.7101612"><ele>657.4</ele><time>2026-04-12T09:02:55.357Z</time></trkpt><trkpt lat="43.7340021" lon="11.7101043"><ele>659.1999999999999</ele><time>2026-04-12T09:02:56.382Z</time></trkpt><trkpt lat="43.7338925" lon="11.7100173"><ele>661.0</ele><time>2026-04-12T09:02:58.378Z</time></trkpt><trkpt lat="43.7338181" lon="11.7099789"><ele>661.0</ele><time>2026-04-12T09:02:59.374Z</time></trkpt><trkpt lat="43.7337514" lon="11.7099285"><ele>661.0</ele><time>2026-04-12T09:03:00.306Z</time></trkpt><trkpt lat="43.7336893" lon="11.7098308"><ele>661.0</ele><time>2026-04-12T09:03:01.308Z</time></trkpt><trkpt lat="43.7336097" lon="11.7097009"><ele>661.0</ele><time>2026-04-12T09:03:02.35Z</time></trkpt><trkpt lat="43.7335222" lon="11.709559"><ele>661.0</ele><time>2026-04-12T09:03:03.369Z</time></trkpt><trkpt lat="43.7334397" lon="11.7094369"><ele>664.0</ele><time>2026-04-12T09:03:04.378Z</time></trkpt><trkpt lat="43.7333974" lon="11.7093561"><ele>667.0</ele><time>2026-04-12T09:03:05.349Z</time></trkpt><trkpt lat="43.7333725" lon="11.7092715"><ele>670.0</ele><time>2026-04-12T09:03:06.355Z</time></trkpt><trkpt lat="43.7333267" lon="11.7091826"><ele>673.0</ele><time>2026-04-12T09:03:07.351Z</time></trkpt><trkpt lat="43.7332525" lon="11.7090682"><ele>676.0</ele><time>2026-04-12T09:03:08.367Z</time></trkpt><trkpt lat="43.7331869" lon="11.708952"><ele>679.0</ele><time>2026-04-12T09:03:09.57Z</time></trkpt><trkpt lat="43.7330463" lon="11.7087147"><ele>679.0</ele><time>2026-04-12T09:03:11.373Z</time></trkpt><trkpt lat="43.7329674" lon="11.7085959"><ele>679.0</ele><time>2026-04-12T09:03:12.274Z</time></trkpt><trkpt lat="43.7328994" lon="11.7084785"><ele>679.0</ele><time>2026-04-12T09:03:13.404Z</time></trkpt><trkpt lat="43.7328256" lon="11.7083381"><ele>679.0</ele><time>2026-04-12T09:03:14.349Z</time></trkpt><trkpt lat="43.7327511" lon="11.7081943"><ele>681.5</ele><time>2026-04-12T09:03:15.411Z</time></trkpt><trkpt lat="43.7326056" lon="11.7079703"><ele>684.0</ele><time>2026-04-12T09:03:17.33Z</time></trkpt><trkpt lat="43.7325493" lon="11.7078881"><ele>686.5</ele><time>2026-04-12T09:03:18.342Z</time></trkpt><trkpt lat="43.7325114" lon="11.7077267"><ele>689.0</ele><time>2026-04-12T09:03:20.596Z</time></trkpt><trkpt lat="43.7324777" lon="11.7075183"><ele>691.0</ele><time>2026-04-12T09:03:22.34Z</time></trkpt><trkpt lat="43.7324458" lon="11.7074306"><ele>693.0</ele><time>2026-04-12T09:03:23.362Z</time></trkpt><trkpt lat="43.7324026" lon="11.7073529"><ele>695.0</ele><time>2026-04-12T09:03:24.339Z</time></trkpt><trkpt lat="43.7323405" lon="11.7072024"><ele>697.0</ele><time>2026-04-12T09:03:26.368Z</time></trkpt><trkpt lat="43.7322712" lon="11.7070616"><ele>699.0</ele><time>2026-04-12T09:03:28.565Z</time></trkpt><trkpt lat="43.7321237" lon="11.7069439"><ele>700.0</ele><time>2026-04-12T09:03:30.561Z</time></trkpt><trkpt lat="43.7319558" lon="11.7068313"><ele>701.0</ele><time>2026-04-12T09:03:32.338Z</time></trkpt><trkpt lat="43.7318758" lon="11.7067711"><ele>702.0</ele><time>2026-04-12T09:03:33.379Z</time></trkpt><trkpt lat="43.731792" lon="11.7067364"><ele>703.0</ele><time>2026-04-12T09:03:34.344Z</time></trkpt><trkpt lat="43.731701" lon="11.706727"><ele>706.0</ele><time>2026-04-12T09:03:35.349Z</time></trkpt><trkpt lat="43.7316035" lon="11.7067162"><ele>709.0</ele><time>2026-04-12T09:03:36.318Z</time></trkpt><trkpt lat="43.7314853" lon="11.706708"><ele>712.0</ele><time>2026-04-12T09:03:37.356Z</time></trkpt><trkpt lat="43.7313334" lon="11.7067064"><ele>715.0</ele><time>2026-04-12T09:03:38.586Z</time></trkpt><trkpt lat="43.7310352" lon="11.7066871"><ele>715.0</ele><time>2026-04-12T09:03:40.349Z</time></trkpt><trkpt lat="43.7309062" lon="11.7066353"><ele>715.0</ele><time>2026-04-12T09:03:41.363Z</time></trkpt><trkpt lat="43.7307622" lon="11.7065483"><ele>715.0</ele><time>2026-04-12T09:03:42.349Z</time></trkpt><trkpt lat="43.7306146" lon="11.7064316"><ele>715.0</ele><time>2026-04-12T09:03:43.356Z</time></trkpt><trkpt lat="43.7304719" lon="11.7062935"><ele>715.0</ele><time>2026-04-12T09:03:44.333Z</time></trkpt><trkpt lat="43.7303566" lon="11.7061885"><ele>715.0</ele><time>2026-04-12T09:03:45.602Z</time></trkpt><trkpt lat="43.7302615" lon="11.7060626"><ele>715.0</ele><time>2026-04-12T09:03:47.377Z</time></trkpt><trkpt lat="43.7301985" lon="11.7057233"><ele>714.8333333333334</ele><time>2026-04-12T09:03:50.292Z</time></trkpt><trkpt lat="43.7301779" lon="11.7056117"><ele>714.6666666666667</ele><time>2026-04-12T09:03:51.279Z</time></trkpt><trkpt lat="43.7301487" lon="11.7055071"><ele>714.5</ele><time>2026-04-12T09:03:52.352Z</time></trkpt><trkpt lat="43.7301148" lon="11.7054303"><ele>714.3333333333334</ele><time>2026-04-12T09:03:53.297Z</time></trkpt><trkpt lat="43.7300688" lon="11.705351"><ele>714.1666666666666</ele><time>2026-04-12T09:03:54.425Z</time></trkpt><trkpt lat="43.7300262" lon="11.7052696"><ele>714.0</ele><time>2026-04-12T09:03:55.352Z</time></trkpt><trkpt lat="43.7299828" lon="11.7051784"><ele>715.3333333333334</ele><time>2026-04-12T09:03:56.339Z</time></trkpt><trkpt lat="43.7299307" lon="11.7050782"><ele>716.6666666666667</ele><time>2026-04-12T09:03:57.537Z</time></trkpt><trkpt lat="43.7298149" lon="11.7048462"><ele>718.0</ele><time>2026-04-12T09:03:59.435Z</time></trkpt><trkpt lat="43.7296984" lon="11.7046069"><ele>718.0</ele><time>2026-04-12T09:04:01.336Z</time></trkpt><trkpt lat="43.7296508" lon="11.7045276"><ele>718.0</ele><time>2026-04-12T09:04:02.351Z</time></trkpt><trkpt lat="43.7296049" lon="11.7044539"><ele>718.0</ele><time>2026-04-12T09:04:03.36Z</time></trkpt><trkpt lat="43.7295456" lon="11.7043928"><ele>718.0</ele><time>2026-04-12T09:04:04.376Z</time></trkpt><trkpt lat="43.7294642" lon="11.7043427"><ele>718.0</ele><time>2026-04-12T09:04:05.352Z</time></trkpt><trkpt lat="43.7293844" lon="11.7042652"><ele>718.0</ele><time>2026-04-12T09:04:06.278Z</time></trkpt><trkpt lat="43.7292907" lon="11.7041981"><ele>719.8</ele><time>2026-04-12T09:04:07.357Z</time></trkpt><trkpt lat="43.7291845" lon="11.7041334"><ele>721.5999999999999</ele><time>2026-04-12T09:04:08.331Z</time></trkpt><trkpt lat="43.7290969" lon="11.704076"><ele>723.4000000000001</ele><time>2026-04-12T09:04:09.322Z</time></trkpt><trkpt lat="43.7290382" lon="11.7040377"><ele>725.2</ele><time>2026-04-12T09:04:10.291Z</time></trkpt><trkpt lat="43.7289584" lon="11.7040221"><ele>727.0</ele><time>2026-04-12T09:04:12.29Z</time></trkpt><trkpt lat="43.7289063" lon="11.7041285"><ele>727.0</ele><time>2026-04-12T09:04:14.309Z</time></trkpt><trkpt lat="43.7288556" lon="11.7041831"><ele>727.0</ele><time>2026-04-12T09:04:15.348Z</time></trkpt><trkpt lat="43.7287992" lon="11.7042397"><ele>727.0</ele><time>2026-04-12T09:04:16.323Z</time></trkpt><trkpt lat="43.7287489" lon="11.7043019"><ele>727.0</ele><time>2026-04-12T09:04:17.304Z</time></trkpt><trkpt lat="43.728689" lon="11.7043585"><ele>727.0</ele><time>2026-04-12T09:04:18.304Z</time></trkpt><trkpt lat="43.7286267" lon="11.7044072"><ele>727.0</ele><time>2026-04-12T09:04:19.338Z</time></trkpt><trkpt lat="43.7285627" lon="11.7044553"><ele>727.0</ele><time>2026-04-12T09:04:20.326Z</time></trkpt><trkpt lat="43.7285014" lon="11.7045113"><ele>725.4285714285714</ele><time>2026-04-12T09:04:21.382Z</time></trkpt><trkpt lat="43.7284686" lon="11.7045999"><ele>723.8571428571429</ele><time>2026-04-12T09:04:22.381Z</time></trkpt><trkpt lat="43.7284701" lon="11.704696"><ele>722.2857142857143</ele><time>2026-04-12T09:04:23.412Z</time></trkpt><trkpt lat="43.7284668" lon="11.7047867"><ele>720.7142857142858</ele><time>2026-04-12T09:04:24.352Z</time></trkpt><trkpt lat="43.7284419" lon="11.7048777"><ele>719.1428571428571</ele><time>2026-04-12T09:04:25.348Z</time></trkpt><trkpt lat="43.7284065" lon="11.704971"><ele>717.5714285714287</ele><time>2026-04-12T09:04:26.373Z</time></trkpt><trkpt lat="43.7283692" lon="11.7050923"><ele>716.0</ele><time>2026-04-12T09:04:27.569Z</time></trkpt><trkpt lat="43.7282912" lon="11.7053729"><ele>714.8333333333333</ele><time>2026-04-12T09:04:29.351Z</time></trkpt><trkpt lat="43.7282742" lon="11.7054989"><ele>713.6666666666666</ele><time>2026-04-12T09:04:30.35Z</time></trkpt><trkpt lat="43.7282704" lon="11.7056125"><ele>712.5</ele><time>2026-04-12T09:04:31.33Z</time></trkpt><trkpt lat="43.7282702" lon="11.7057195"><ele>711.3333333333334</ele><time>2026-04-12T09:04:32.347Z</time></trkpt><trkpt lat="43.7282705" lon="11.7058257"><ele>710.1666666666667</ele><time>2026-04-12T09:04:33.371Z</time></trkpt><trkpt lat="43.7282445" lon="11.7059291"><ele>709.0</ele><time>2026-04-12T09:04:34.282Z</time></trkpt><trkpt lat="43.7281692" lon="11.7060053"><ele>709.0</ele><time>2026-04-12T09:04:35.416Z</time></trkpt><trkpt lat="43.7280849" lon="11.7060506"><ele>709.0</ele><time>2026-04-12T09:04:36.312Z</time></trkpt><trkpt lat="43.7280129" lon="11.7060905"><ele>709.0</ele><time>2026-04-12T09:04:37.337Z</time></trkpt><trkpt lat="43.727948" lon="11.7060985"><ele>709.0</ele><time>2026-04-12T09:04:38.289Z</time></trkpt><trkpt lat="43.72789" lon="11.7060607"><ele>709.0</ele><time>2026-04-12T09:04:39.317Z</time></trkpt><trkpt lat="43.7278202" lon="11.7059941"><ele>709.0</ele><time>2026-04-12T09:04:40.387Z</time></trkpt><trkpt lat="43.7276728" lon="11.7059707"><ele>706.6666666666667</ele><time>2026-04-12T09:04:42.55Z</time></trkpt><trkpt lat="43.7275108" lon="11.706106"><ele>704.3333333333334</ele><time>2026-04-12T09:04:44.546Z</time></trkpt><trkpt lat="43.7273367" lon="11.7062475"><ele>702.0</ele><time>2026-04-12T09:04:46.298Z</time></trkpt><trkpt lat="43.7272945" lon="11.7063395"><ele>702.0</ele><time>2026-04-12T09:04:47.357Z</time></trkpt><trkpt lat="43.7272378" lon="11.7064438"><ele>702.0</ele><time>2026-04-12T09:04:48.334Z</time></trkpt><trkpt lat="43.7271553" lon="11.7065479"><ele>702.0</ele><time>2026-04-12T09:04:49.632Z</time></trkpt><trkpt lat="43.7270511" lon="11.7067054"><ele>702.0</ele><time>2026-04-12T09:04:51.377Z</time></trkpt><trkpt lat="43.7270187" lon="11.7067923"><ele>702.0</ele><time>2026-04-12T09:04:52.338Z</time></trkpt><trkpt lat="43.7269845" lon="11.7068708"><ele>702.0</ele><time>2026-04-12T09:04:53.351Z</time></trkpt><trkpt lat="43.7269552" lon="11.7069498"><ele>702.0</ele><time>2026-04-12T09:04:54.57Z</time></trkpt><trkpt lat="43.7268927" lon="11.7071748"><ele>702.0</ele><time>2026-04-12T09:04:56.367Z</time></trkpt><trkpt lat="43.7268516" lon="11.7073081"><ele>702.0</ele><time>2026-04-12T09:04:57.356Z</time></trkpt><trkpt lat="43.7268157" lon="11.7074215"><ele>702.0</ele><time>2026-04-12T09:04:58.557Z</time></trkpt><trkpt lat="43.7268027" lon="11.7075087"><ele>702.0</ele><time>2026-04-12T09:05:01.318Z</time></trkpt><trkpt lat="43.7267738" lon="11.7075899"><ele>702.0</ele><time>2026-04-12T09:05:15.342Z</time></trkpt><trkpt lat="43.7267478" lon="11.7076695"><ele>702.0</ele><time>2026-04-12T09:05:17.364Z</time></trkpt><trkpt lat="43.7266255" lon="11.7079161"><ele>702.0</ele><time>2026-04-12T09:05:20.356Z</time></trkpt><trkpt lat="43.7265873" lon="11.7080187"><ele>702.0</ele><time>2026-04-12T09:05:21.365Z</time></trkpt><trkpt lat="43.7265527" lon="11.7081221"><ele>702.4000000000001</ele><time>2026-04-12T09:05:22.349Z</time></trkpt><trkpt lat="43.7265171" lon="11.7082443"><ele>702.8000000000001</ele><time>2026-04-12T09:05:23.348Z</time></trkpt><trkpt lat="43.7264919" lon="11.7083704"><ele>703.2</ele><time>2026-04-12T09:05:24.57Z</time></trkpt><trkpt lat="43.7264462" lon="11.7085727"><ele>703.6</ele><time>2026-04-12T09:05:26.364Z</time></trkpt><trkpt lat="43.7264492" lon="11.7086741"><ele>704.0</ele><time>2026-04-12T09:05:27.355Z</time></trkpt><trkpt lat="43.7264687" lon="11.7087918"><ele>704.6666666666666</ele><time>2026-04-12T09:05:28.576Z</time></trkpt><trkpt lat="43.726476" lon="11.7090403"><ele>705.3333333333334</ele><time>2026-04-12T09:05:30.579Z</time></trkpt><trkpt lat="43.726401" lon="11.7092417"><ele>706.0</ele><time>2026-04-12T09:05:32.584Z</time></trkpt><trkpt lat="43.7261624" lon="11.7093639"><ele>707.25</ele><time>2026-04-12T09:05:34.559Z</time></trkpt><trkpt lat="43.7259816" lon="11.709461"><ele>708.5</ele><time>2026-04-12T09:05:36.371Z</time></trkpt><trkpt lat="43.7259171" lon="11.7094673"><ele>709.75</ele><time>2026-04-12T09:05:37.377Z</time></trkpt><trkpt lat="43.725835" lon="11.7094818"><ele>711.0</ele><time>2026-04-12T09:05:38.63Z</time></trkpt><trkpt lat="43.725657" lon="11.7095485"><ele>711.0</ele><time>2026-04-12T09:05:40.544Z</time></trkpt><trkpt lat="43.7254861" lon="11.7096472"><ele>711.0</ele><time>2026-04-12T09:05:42.615Z</time></trkpt><trkpt lat="43.7253677" lon="11.7098418"><ele>711.0</ele><time>2026-04-12T09:05:44.3Z</time></trkpt><trkpt lat="43.7253245" lon="11.7099544"><ele>708.6666666666666</ele><time>2026-04-12T09:05:45.563Z</time></trkpt><trkpt lat="43.7252257" lon="11.71019"><ele>706.3333333333333</ele><time>2026-04-12T09:05:47.396Z</time></trkpt><trkpt lat="43.7250588" lon="11.7103801"><ele>704.0</ele><time>2026-04-12T09:05:49.375Z</time></trkpt><trkpt lat="43.7250112" lon="11.7104397"><ele>704.0</ele><time>2026-04-12T09:05:50.573Z</time></trkpt><trkpt lat="43.7249709" lon="11.7106282"><ele>704.0</ele><time>2026-04-12T09:05:52.334Z</time></trkpt><trkpt lat="43.7249492" lon="11.7107296"><ele>704.0</ele><time>2026-04-12T09:05:53.343Z</time></trkpt><trkpt lat="43.7248665" lon="11.7108594"><ele>704.0</ele><time>2026-04-12T09:05:55.369Z</time></trkpt><trkpt lat="43.7248094" lon="11.7109207"><ele>704.0</ele><time>2026-04-12T09:05:56.339Z</time></trkpt><trkpt lat="43.7247433" lon="11.7109764"><ele>704.0</ele><time>2026-04-12T09:05:57.337Z</time></trkpt><trkpt lat="43.7246795" lon="11.7110345"><ele>704.0</ele><time>2026-04-12T09:05:58.563Z</time></trkpt><trkpt lat="43.7245381" lon="11.7111032"><ele>704.0</ele><time>2026-04-12T09:06:00.356Z</time></trkpt><trkpt lat="43.7244599" lon="11.7111413"><ele>704.0</ele><time>2026-04-12T09:06:01.367Z</time></trkpt><trkpt lat="43.724377" lon="11.7111825"><ele>704.0</ele><time>2026-04-12T09:06:02.363Z</time></trkpt><trkpt lat="43.7242657" lon="11.7111613"><ele>703.4000000000001</ele><time>2026-04-12T09:06:04.363Z</time></trkpt><trkpt lat="43.7241988" lon="11.7110192"><ele>702.8</ele><time>2026-04-12T09:06:06.32Z</time></trkpt><trkpt lat="43.7241531" lon="11.7109235"><ele>702.2</ele><time>2026-04-12T09:06:07.36Z</time></trkpt><trkpt lat="43.7241046" lon="11.7108439"><ele>701.5999999999999</ele><time>2026-04-12T09:06:08.591Z</time></trkpt><trkpt lat="43.7240421" lon="11.7107202"><ele>701.0</ele><time>2026-04-12T09:06:10.345Z</time></trkpt><trkpt lat="43.7240103" lon="11.7106129"><ele>701.0</ele><time>2026-04-12T09:06:20.34Z</time></trkpt><trkpt lat="43.7239587" lon="11.7104835"><ele>701.0</ele><time>2026-04-12T09:06:23.318Z</time></trkpt><trkpt lat="43.7239057" lon="11.7104343"><ele>701.0</ele><time>2026-04-12T09:06:24.396Z</time></trkpt><trkpt lat="43.7237812" lon="11.7103402"><ele>701.0</ele><time>2026-04-12T09:06:26.349Z</time></trkpt><trkpt lat="43.7237011" lon="11.7102772"><ele>701.0</ele><time>2026-04-12T09:06:27.378Z</time></trkpt><trkpt lat="43.7236286" lon="11.7102184"><ele>700.0</ele><time>2026-04-12T09:06:28.337Z</time></trkpt><trkpt lat="43.7235757" lon="11.7101667"><ele>699.0</ele><time>2026-04-12T09:06:29.361Z</time></trkpt><trkpt lat="43.7235763" lon="11.7100439"><ele>698.0</ele><time>2026-04-12T09:06:32.534Z</time></trkpt><trkpt lat="43.7236017" lon="11.7098957"><ele>697.0</ele><time>2026-04-12T09:06:34.543Z</time></trkpt><trkpt lat="43.7236532" lon="11.7096082"><ele>697.0</ele><time>2026-04-12T09:06:36.348Z</time></trkpt><trkpt lat="43.7236759" lon="11.7094534"><ele>697.0</ele><time>2026-04-12T09:06:37.575Z</time></trkpt><trkpt lat="43.7237335" lon="11.709199"><ele>697.0</ele><time>2026-04-12T09:06:39.541Z</time></trkpt><trkpt lat="43.7236935" lon="11.7090507"><ele>697.0</ele><time>2026-04-12T09:06:41.331Z</time></trkpt><trkpt lat="43.723648" lon="11.7089788"><ele>696.5</ele><time>2026-04-12T09:06:42.334Z</time></trkpt><trkpt lat="43.7236229" lon="11.7088731"><ele>696.0</ele><time>2026-04-12T09:06:43.329Z</time></trkpt><trkpt lat="43.7236235" lon="11.7087552"><ele>695.5</ele><time>2026-04-12T09:06:44.355Z</time></trkpt><trkpt lat="43.7236024" lon="11.7086337"><ele>695.0</ele><time>2026-04-12T09:06:45.353Z</time></trkpt><trkpt lat="43.7235671" lon="11.7085502"><ele>694.5</ele><time>2026-04-12T09:06:46.373Z</time></trkpt><trkpt lat="43.7234842" lon="11.708509"><ele>694.0</ele><time>2026-04-12T09:06:47.563Z</time></trkpt><trkpt lat="43.7233261" lon="11.7084067"><ele>693.6</ele><time>2026-04-12T09:06:49.604Z</time></trkpt><trkpt lat="43.7232284" lon="11.7082128"><ele>693.2</ele><time>2026-04-12T09:06:51.367Z</time></trkpt><trkpt lat="43.7231892" lon="11.7081375"><ele>692.8000000000001</ele><time>2026-04-12T09:06:52.284Z</time></trkpt><trkpt lat="43.7231514" lon="11.7079919"><ele>692.4000000000001</ele><time>2026-04-12T09:06:54.363Z</time></trkpt><trkpt lat="43.7231528" lon="11.7078951"><ele>692.0</ele><time>2026-04-12T09:06:55.347Z</time></trkpt><trkpt lat="43.7231675" lon="11.70779"><ele>692.0</ele><time>2026-04-12T09:06:56.355Z</time></trkpt><trkpt lat="43.7231684" lon="11.7076991"><ele>692.0</ele><time>2026-04-12T09:06:57.373Z</time></trkpt><trkpt lat="43.7230923" lon="11.7076732"><ele>692.0</ele><time>2026-04-12T09:06:59.366Z</time></trkpt><trkpt lat="43.7230282" lon="11.7077455"><ele>692.0</ele><time>2026-04-12T09:07:00.345Z</time></trkpt><trkpt lat="43.7229716" lon="11.7078536"><ele>692.0</ele><time>2026-04-12T09:07:01.273Z</time></trkpt><trkpt lat="43.7229137" lon="11.7079656"><ele>692.0</ele><time>2026-04-12T09:07:02.344Z</time></trkpt><trkpt lat="43.7228705" lon="11.7080666"><ele>692.0</ele><time>2026-04-12T09:07:03.336Z</time></trkpt><trkpt lat="43.7227908" lon="11.7081563"><ele>692.0</ele><time>2026-04-12T09:07:05.292Z</time></trkpt><trkpt lat="43.7226634" lon="11.7081525"><ele>692.0</ele><time>2026-04-12T09:07:07.349Z</time></trkpt><trkpt lat="43.7225943" lon="11.7081388"><ele>692.0</ele><time>2026-04-12T09:07:08.347Z</time></trkpt><trkpt lat="43.72249" lon="11.7081748"><ele>692.0</ele><time>2026-04-12T09:07:10.599Z</time></trkpt><trkpt lat="43.7223505" lon="11.7083136"><ele>690.4000000000001</ele><time>2026-04-12T09:07:12.341Z</time></trkpt><trkpt lat="43.7222538" lon="11.7084025"><ele>688.8000000000001</ele><time>2026-04-12T09:07:13.294Z</time></trkpt><trkpt lat="43.722163" lon="11.7084923"><ele>687.2</ele><time>2026-04-12T09:07:14.356Z</time></trkpt><trkpt lat="43.7220769" lon="11.7085785"><ele>685.6</ele><time>2026-04-12T09:07:15.363Z</time></trkpt><trkpt lat="43.7219938" lon="11.7086411"><ele>684.0</ele><time>2026-04-12T09:07:16.346Z</time></trkpt><trkpt lat="43.7219069" lon="11.7086709"><ele>682.4000000000001</ele><time>2026-04-12T09:07:17.37Z</time></trkpt><trkpt lat="43.7218115" lon="11.7086636"><ele>680.8</ele><time>2026-04-12T09:07:18.337Z</time></trkpt><trkpt lat="43.7217142" lon="11.7086368"><ele>679.2</ele><time>2026-04-12T09:07:19.373Z</time></trkpt><trkpt lat="43.7216125" lon="11.7086145"><ele>677.5999999999999</ele><time>2026-04-12T09:07:20.296Z</time></trkpt><trkpt lat="43.7215104" lon="11.7085774"><ele>676.0</ele><time>2026-04-12T09:07:21.302Z</time></trkpt><trkpt lat="43.7214146" lon="11.7085389"><ele>675.5999999999999</ele><time>2026-04-12T09:07:22.362Z</time></trkpt><trkpt lat="43.7213168" lon="11.7084985"><ele>675.2</ele><time>2026-04-12T09:07:23.337Z</time></trkpt><trkpt lat="43.7212235" lon="11.7084542"><ele>674.8</ele><time>2026-04-12T09:07:24.364Z</time></trkpt><trkpt lat="43.7211327" lon="11.7084111"><ele>674.4000000000001</ele><time>2026-04-12T09:07:25.361Z</time></trkpt><trkpt lat="43.7210374" lon="11.7083679"><ele>674.0</ele><time>2026-04-12T09:07:26.364Z</time></trkpt><trkpt lat="43.7209369" lon="11.7083396"><ele>672.75</ele><time>2026-04-12T09:07:27.334Z</time></trkpt><trkpt lat="43.7208303" lon="11.7083214"><ele>671.5</ele><time>2026-04-12T09:07:28.336Z</time></trkpt><trkpt lat="43.7207131" lon="11.7082852"><ele>670.25</ele><time>2026-04-12T09:07:29.373Z</time></trkpt><trkpt lat="43.7205837" lon="11.7082205"><ele>669.0</ele><time>2026-04-12T09:07:30.372Z</time></trkpt><trkpt lat="43.7204413" lon="11.7081412"><ele>669.0</ele><time>2026-04-12T09:07:31.357Z</time></trkpt><trkpt lat="43.7202834" lon="11.708063"><ele>669.0</ele><time>2026-04-12T09:07:32.323Z</time></trkpt><trkpt lat="43.7201399" lon="11.7080071"><ele>669.0</ele><time>2026-04-12T09:07:33.37Z</time></trkpt><trkpt lat="43.720001" lon="11.7079561"><ele>668.75</ele><time>2026-04-12T09:07:34.355Z</time></trkpt><trkpt lat="43.7198633" lon="11.7079155"><ele>668.5</ele><time>2026-04-12T09:07:35.353Z</time></trkpt><trkpt lat="43.7197336" lon="11.7078964"><ele>668.25</ele><time>2026-04-12T09:07:36.35Z</time></trkpt><trkpt lat="43.7196148" lon="11.707887"><ele>668.0</ele><time>2026-04-12T09:07:37.35Z</time></trkpt><trkpt lat="43.7195086" lon="11.7078685"><ele>668.0</ele><time>2026-04-12T09:07:38.357Z</time></trkpt><trkpt lat="43.7194126" lon="11.7078069"><ele>668.0</ele><time>2026-04-12T09:07:39.337Z</time></trkpt><trkpt lat="43.7193213" lon="11.7077106"><ele>668.0</ele><time>2026-04-12T09:07:40.347Z</time></trkpt><trkpt lat="43.7192253" lon="11.7075933"><ele>668.0</ele><time>2026-04-12T09:07:41.34Z</time></trkpt><trkpt lat="43.7191368" lon="11.7074555"><ele>670.75</ele><time>2026-04-12T09:07:42.359Z</time></trkpt><trkpt lat="43.7190532" lon="11.7073077"><ele>673.5</ele><time>2026-04-12T09:07:43.335Z</time></trkpt><trkpt lat="43.7189673" lon="11.707155"><ele>676.25</ele><time>2026-04-12T09:07:44.355Z</time></trkpt><trkpt lat="43.7188972" lon="11.7069944"><ele>679.0</ele><time>2026-04-12T09:07:45.55Z</time></trkpt><trkpt lat="43.7187822" lon="11.7066969"><ele>679.6</ele><time>2026-04-12T09:07:47.369Z</time></trkpt><trkpt lat="43.7187165" lon="11.7065895"><ele>680.2</ele><time>2026-04-12T09:07:48.376Z</time></trkpt><trkpt lat="43.7186491" lon="11.7065551"><ele>680.8000000000001</ele><time>2026-04-12T09:07:49.314Z</time></trkpt><trkpt lat="43.7185795" lon="11.7065609"><ele>681.4000000000001</ele><time>2026-04-12T09:07:50.294Z</time></trkpt><trkpt lat="43.7184853" lon="11.7065763"><ele>682.0</ele><time>2026-04-12T09:07:51.287Z</time></trkpt><trkpt lat="43.7183613" lon="11.7065537"><ele>681.25</ele><time>2026-04-12T09:07:52.283Z</time></trkpt><trkpt lat="43.7182426" lon="11.7064954"><ele>680.5</ele><time>2026-04-12T09:07:53.365Z</time></trkpt><trkpt lat="43.7181453" lon="11.7064411"><ele>679.75</ele><time>2026-04-12T09:07:54.561Z</time></trkpt><trkpt lat="43.7180546" lon="11.7062048"><ele>679.0</ele><time>2026-04-12T09:07:56.317Z</time></trkpt><trkpt lat="43.7180107" lon="11.7060503"><ele>679.0</ele><time>2026-04-12T09:07:57.276Z</time></trkpt><trkpt lat="43.717958" lon="11.7059171"><ele>679.0</ele><time>2026-04-12T09:07:58.475Z</time></trkpt><trkpt lat="43.7178278" lon="11.7057175"><ele>679.0</ele><time>2026-04-12T09:08:00.378Z</time></trkpt><trkpt lat="43.7177548" lon="11.7056439"><ele>679.0</ele><time>2026-04-12T09:08:01.327Z</time></trkpt><trkpt lat="43.7176863" lon="11.7055971"><ele>680.5</ele><time>2026-04-12T09:08:02.364Z</time></trkpt><trkpt lat="43.7176137" lon="11.7055439"><ele>682.0</ele><time>2026-04-12T09:08:03.4Z</time></trkpt><trkpt lat="43.7175196" lon="11.7054862"><ele>683.5</ele><time>2026-04-12T09:08:04.35Z</time></trkpt><trkpt lat="43.717416" lon="11.7054239"><ele>685.0</ele><time>2026-04-12T09:08:05.568Z</time></trkpt><trkpt lat="43.7171982" lon="11.7052891"><ele>682.6666666666667</ele><time>2026-04-12T09:08:07.522Z</time></trkpt><trkpt lat="43.7169967" lon="11.7051664"><ele>680.3333333333334</ele><time>2026-04-12T09:08:09.414Z</time></trkpt><trkpt lat="43.7168958" lon="11.7050938"><ele>678.0</ele><time>2026-04-12T09:08:10.342Z</time></trkpt><trkpt lat="43.7167818" lon="11.7050332"><ele>678.0</ele><time>2026-04-12T09:08:11.349Z</time></trkpt><trkpt lat="43.7166554" lon="11.7049912"><ele>678.0</ele><time>2026-04-12T09:08:12.371Z</time></trkpt><trkpt lat="43.7165302" lon="11.7049653"><ele>678.0</ele><time>2026-04-12T09:08:13.358Z</time></trkpt><trkpt lat="43.7164028" lon="11.7049581"><ele>678.0</ele><time>2026-04-12T09:08:14.579Z</time></trkpt><trkpt lat="43.7161805" lon="11.7050102"><ele>678.0</ele><time>2026-04-12T09:08:16.351Z</time></trkpt><trkpt lat="43.7160853" lon="11.7050161"><ele>678.0</ele><time>2026-04-12T09:08:17.355Z</time></trkpt><trkpt lat="43.7159804" lon="11.7049923"><ele>678.0</ele><time>2026-04-12T09:08:18.301Z</time></trkpt><trkpt lat="43.7158611" lon="11.7049596"><ele>678.0</ele><time>2026-04-12T09:08:19.6Z</time></trkpt><trkpt lat="43.715673" lon="11.704981"><ele>676.0</ele><time>2026-04-12T09:08:21.357Z</time></trkpt><trkpt lat="43.7156033" lon="11.7049944"><ele>674.0</ele><time>2026-04-12T09:08:22.33Z</time></trkpt><trkpt lat="43.71554" lon="11.7050064"><ele>672.0</ele><time>2026-04-12T09:08:23.292Z</time></trkpt><trkpt lat="43.7154766" lon="11.7050086"><ele>670.0</ele><time>2026-04-12T09:08:24.291Z</time></trkpt><trkpt lat="43.71541" lon="11.7050071"><ele>668.0</ele><time>2026-04-12T09:08:25.293Z</time></trkpt><trkpt lat="43.7153376" lon="11.7049979"><ele>666.0</ele><time>2026-04-12T09:08:26.283Z</time></trkpt><trkpt lat="43.7152644" lon="11.704996"><ele>664.0</ele><time>2026-04-12T09:08:27.295Z</time></trkpt><trkpt lat="43.7151831" lon="11.7049854"><ele>662.0</ele><time>2026-04-12T09:08:28.287Z</time></trkpt><trkpt lat="43.7150939" lon="11.7049756"><ele>660.0</ele><time>2026-04-12T09:08:29.301Z</time></trkpt><trkpt lat="43.7149853" lon="11.7049389"><ele>658.0</ele><time>2026-04-12T09:08:30.312Z</time></trkpt><trkpt lat="43.7148661" lon="11.7048719"><ele>656.0</ele><time>2026-04-12T09:08:31.299Z</time></trkpt><trkpt lat="43.7147613" lon="11.7047975"><ele>654.0</ele><time>2026-04-12T09:08:32.374Z</time></trkpt><trkpt lat="43.7146647" lon="11.7047131"><ele>654.0</ele><time>2026-04-12T09:08:33.363Z</time></trkpt><trkpt lat="43.7145662" lon="11.7046339"><ele>654.0</ele><time>2026-04-12T09:08:34.358Z</time></trkpt><trkpt lat="43.7144616" lon="11.7045692"><ele>654.0</ele><time>2026-04-12T09:08:35.375Z</time></trkpt><trkpt lat="43.7143463" lon="11.7045422"><ele>654.0</ele><time>2026-04-12T09:08:36.325Z</time></trkpt><trkpt lat="43.7142326" lon="11.7045557"><ele>653.25</ele><time>2026-04-12T09:08:37.348Z</time></trkpt><trkpt lat="43.7141173" lon="11.7045885"><ele>652.5</ele><time>2026-04-12T09:08:38.359Z</time></trkpt><trkpt lat="43.7139988" lon="11.704644"><ele>651.75</ele><time>2026-04-12T09:08:39.34Z</time></trkpt><trkpt lat="43.7138906" lon="11.7047007"><ele>651.0</ele><time>2026-04-12T09:08:40.337Z</time></trkpt><trkpt lat="43.7137702" lon="11.7047382"><ele>651.0</ele><time>2026-04-12T09:08:41.355Z</time></trkpt><trkpt lat="43.7136464" lon="11.7047533"><ele>651.0</ele><time>2026-04-12T09:08:42.354Z</time></trkpt><trkpt lat="43.7135263" lon="11.7047597"><ele>651.0</ele><time>2026-04-12T09:08:43.339Z</time></trkpt><trkpt lat="43.7134102" lon="11.7047686"><ele>651.0</ele><time>2026-04-12T09:08:44.35Z</time></trkpt><trkpt lat="43.7132937" lon="11.7048044"><ele>653.75</ele><time>2026-04-12T09:08:45.356Z</time></trkpt><trkpt lat="43.7131741" lon="11.7048761"><ele>656.5</ele><time>2026-04-12T09:08:46.329Z</time></trkpt><trkpt lat="43.7130655" lon="11.7049652"><ele>659.25</ele><time>2026-04-12T09:08:47.348Z</time></trkpt><trkpt lat="43.7129785" lon="11.7050613"><ele>662.0</ele><time>2026-04-12T09:08:48.33Z</time></trkpt><trkpt lat="43.7129006" lon="11.7051537"><ele>662.8</ele><time>2026-04-12T09:08:49.382Z</time></trkpt><trkpt lat="43.7128301" lon="11.70525"><ele>663.6</ele><time>2026-04-12T09:08:50.332Z</time></trkpt><trkpt lat="43.7127575" lon="11.7053544"><ele>664.4</ele><time>2026-04-12T09:08:51.362Z</time></trkpt><trkpt lat="43.7126993" lon="11.7054612"><ele>665.1999999999999</ele><time>2026-04-12T09:08:52.363Z</time></trkpt><trkpt lat="43.712654" lon="11.7055678"><ele>666.0</ele><time>2026-04-12T09:08:53.554Z</time></trkpt><trkpt lat="43.7125503" lon="11.7057195"><ele>666.0</ele><time>2026-04-12T09:08:55.585Z</time></trkpt><trkpt lat="43.7123596" lon="11.7057387"><ele>666.0</ele><time>2026-04-12T09:08:57.652Z</time></trkpt><trkpt lat="43.7121165" lon="11.705781"><ele>666.0</ele><time>2026-04-12T09:08:59.597Z</time></trkpt><trkpt lat="43.7118637" lon="11.7059163"><ele>666.75</ele><time>2026-04-12T09:09:01.359Z</time></trkpt><trkpt lat="43.7117526" lon="11.7059884"><ele>667.5</ele><time>2026-04-12T09:09:02.371Z</time></trkpt><trkpt lat="43.7116356" lon="11.7060595"><ele>668.25</ele><time>2026-04-12T09:09:03.336Z</time></trkpt><trkpt lat="43.7115177" lon="11.706135"><ele>669.0</ele><time>2026-04-12T09:09:04.567Z</time></trkpt><trkpt lat="43.7113944" lon="11.7062028"><ele>667.25</ele><time>2026-04-12T09:09:05.36Z</time></trkpt><trkpt lat="43.7112642" lon="11.7062573"><ele>665.5</ele><time>2026-04-12T09:09:06.371Z</time></trkpt><trkpt lat="43.7111325" lon="11.7063039"><ele>663.75</ele><time>2026-04-12T09:09:07.357Z</time></trkpt><trkpt lat="43.7109941" lon="11.7063413"><ele>662.0</ele><time>2026-04-12T09:09:08.565Z</time></trkpt><trkpt lat="43.71072" lon="11.7063598"><ele>662.0</ele><time>2026-04-12T09:09:10.543Z</time></trkpt><trkpt lat="43.7104981" lon="11.7063639"><ele>662.0</ele><time>2026-04-12T09:09:12.362Z</time></trkpt><trkpt lat="43.710389" lon="11.7064209"><ele>662.0</ele><time>2026-04-12T09:09:13.336Z</time></trkpt><trkpt lat="43.7102746" lon="11.7065306"><ele>663.3333333333333</ele><time>2026-04-12T09:09:14.334Z</time></trkpt><trkpt lat="43.71015" lon="11.7066539"><ele>664.6666666666666</ele><time>2026-04-12T09:09:15.379Z</time></trkpt><trkpt lat="43.7099301" lon="11.7068731"><ele>666.0</ele><time>2026-04-12T09:09:17.3Z</time></trkpt><trkpt lat="43.7098248" lon="11.7069804"><ele>666.0</ele><time>2026-04-12T09:09:18.414Z</time></trkpt><trkpt lat="43.7096234" lon="11.7070528"><ele>666.0</ele><time>2026-04-12T09:09:20.373Z</time></trkpt><trkpt lat="43.7095216" lon="11.7070275"><ele>666.0</ele><time>2026-04-12T09:09:21.37Z</time></trkpt><trkpt lat="43.7094173" lon="11.7070112"><ele>666.0</ele><time>2026-04-12T09:09:22.292Z</time></trkpt><trkpt lat="43.7093153" lon="11.7070284"><ele>670.0</ele><time>2026-04-12T09:09:23.311Z</time></trkpt><trkpt lat="43.7092064" lon="11.7070536"><ele>674.0</ele><time>2026-04-12T09:09:24.377Z</time></trkpt><trkpt lat="43.7090874" lon="11.7070765"><ele>678.0</ele><time>2026-04-12T09:09:25.371Z</time></trkpt><trkpt lat="43.708969" lon="11.7071015"><ele>682.0</ele><time>2026-04-12T09:09:26.32Z</time></trkpt><trkpt lat="43.7088614" lon="11.7071337"><ele>682.0</ele><time>2026-04-12T09:09:27.31Z</time></trkpt><trkpt lat="43.7087617" lon="11.7071654"><ele>682.0</ele><time>2026-04-12T09:09:28.378Z</time></trkpt><trkpt lat="43.7086524" lon="11.7071833"><ele>682.0</ele><time>2026-04-12T09:09:29.341Z</time></trkpt><trkpt lat="43.7085323" lon="11.7071886"><ele>682.0</ele><time>2026-04-12T09:09:30.371Z</time></trkpt><trkpt lat="43.7084083" lon="11.7071957"><ele>683.25</ele><time>2026-04-12T09:09:31.361Z</time></trkpt><trkpt lat="43.7082856" lon="11.7072135"><ele>684.5</ele><time>2026-04-12T09:09:32.362Z</time></trkpt><trkpt lat="43.7081644" lon="11.7072573"><ele>685.75</ele><time>2026-04-12T09:09:33.361Z</time></trkpt><trkpt lat="43.7080476" lon="11.7073271"><ele>687.0</ele><time>2026-04-12T09:09:34.328Z</time></trkpt><trkpt lat="43.7079318" lon="11.7074015"><ele>687.0</ele><time>2026-04-12T09:09:35.37Z</time></trkpt><trkpt lat="43.707829" lon="11.7074931"><ele>687.0</ele><time>2026-04-12T09:09:36.289Z</time></trkpt><trkpt lat="43.7077608" lon="11.7076011"><ele>687.0</ele><time>2026-04-12T09:09:37.357Z</time></trkpt><trkpt lat="43.7077013" lon="11.7077418"><ele>687.0</ele><time>2026-04-12T09:09:38.339Z</time></trkpt><trkpt lat="43.7076516" lon="11.707879"><ele>686.6</ele><time>2026-04-12T09:09:39.361Z</time></trkpt><trkpt lat="43.70761" lon="11.7079849"><ele>686.2</ele><time>2026-04-12T09:09:40.358Z</time></trkpt><trkpt lat="43.7075608" lon="11.7080507"><ele>685.8</ele><time>2026-04-12T09:09:41.366Z</time></trkpt><trkpt lat="43.7075016" lon="11.7081253"><ele>685.4</ele><time>2026-04-12T09:09:42.37Z</time></trkpt><trkpt lat="43.7074295" lon="11.708224"><ele>685.0</ele><time>2026-04-12T09:09:43.594Z</time></trkpt><trkpt lat="43.7072944" lon="11.7084654"><ele>680.0</ele><time>2026-04-12T09:09:45.613Z</time></trkpt><trkpt lat="43.707204" lon="11.7086862"><ele>675.0</ele><time>2026-04-12T09:09:47.576Z</time></trkpt><trkpt lat="43.7071223" lon="11.7089219"><ele>670.0</ele><time>2026-04-12T09:09:49.53Z</time></trkpt><trkpt lat="43.7069918" lon="11.7091235"><ele>673.3333333333334</ele><time>2026-04-12T09:09:51.374Z</time></trkpt><trkpt lat="43.7068827" lon="11.7091967"><ele>676.6666666666666</ele><time>2026-04-12T09:09:52.339Z</time></trkpt><trkpt lat="43.7067589" lon="11.7092658"><ele>680.0</ele><time>2026-04-12T09:09:53.551Z</time></trkpt><trkpt lat="43.7065429" lon="11.7093708"><ele>676.6666666666666</ele><time>2026-04-12T09:09:55.579Z</time></trkpt><trkpt lat="43.7063345" lon="11.7094442"><ele>673.3333333333334</ele><time>2026-04-12T09:09:57.609Z</time></trkpt><trkpt lat="43.7061173" lon="11.7095138"><ele>670.0</ele><time>2026-04-12T09:09:59.622Z</time></trkpt><trkpt lat="43.7058888" lon="11.709509"><ele>670.0</ele><time>2026-04-12T09:10:01.383Z</time></trkpt><trkpt lat="43.7058064" lon="11.7094794"><ele>670.0</ele><time>2026-04-12T09:10:02.37Z</time></trkpt><trkpt lat="43.7057256" lon="11.7095271"><ele>670.0</ele><time>2026-04-12T09:10:04.319Z</time></trkpt><trkpt lat="43.7056617" lon="11.7096169"><ele>670.0</ele><time>2026-04-12T09:10:05.358Z</time></trkpt><trkpt lat="43.7056064" lon="11.7097209"><ele>670.0</ele><time>2026-04-12T09:10:06.342Z</time></trkpt><trkpt lat="43.7055267" lon="11.7097911"><ele>670.0</ele><time>2026-04-12T09:10:07.279Z</time></trkpt><trkpt lat="43.7054105" lon="11.7098378"><ele>670.0</ele><time>2026-04-12T09:10:08.286Z</time></trkpt><trkpt lat="43.7053024" lon="11.7098616"><ele>670.0</ele><time>2026-04-12T09:10:09.272Z</time></trkpt><trkpt lat="43.7051991" lon="11.7098507"><ele>670.0</ele><time>2026-04-12T09:10:10.287Z</time></trkpt><trkpt lat="43.7050808" lon="11.70978"><ele>670.75</ele><time>2026-04-12T09:10:11.33Z</time></trkpt><trkpt lat="43.7049584" lon="11.7096983"><ele>671.5</ele><time>2026-04-12T09:10:12.334Z</time></trkpt><trkpt lat="43.7048412" lon="11.7096286"><ele>672.25</ele><time>2026-04-12T09:10:13.34Z</time></trkpt><trkpt lat="43.7047427" lon="11.7095845"><ele>673.0</ele><time>2026-04-12T09:10:14.343Z</time></trkpt><trkpt lat="43.7046373" lon="11.7095572"><ele>673.0</ele><time>2026-04-12T09:10:15.273Z</time></trkpt><trkpt lat="43.7045259" lon="11.70953"><ele>673.0</ele><time>2026-04-12T09:10:16.296Z</time></trkpt><trkpt lat="43.7044347" lon="11.709508"><ele>673.0</ele><time>2026-04-12T09:10:17.356Z</time></trkpt><trkpt lat="43.7043476" lon="11.709503"><ele>673.0</ele><time>2026-04-12T09:10:19.302Z</time></trkpt><trkpt lat="43.7043052" lon="11.7096625"><ele>673.0</ele><time>2026-04-12T09:10:21.35Z</time></trkpt><trkpt lat="43.7042542" lon="11.7097796"><ele>674.0</ele><time>2026-04-12T09:10:22.35Z</time></trkpt><trkpt lat="43.7041978" lon="11.7098925"><ele>675.0</ele><time>2026-04-12T09:10:23.565Z</time></trkpt><trkpt lat="43.7041313" lon="11.7101479"><ele>676.0</ele><time>2026-04-12T09:10:25.571Z</time></trkpt><trkpt lat="43.7040737" lon="11.7104997"><ele>676.0</ele><time>2026-04-12T09:10:27.37Z</time></trkpt><trkpt lat="43.7040452" lon="11.7106207"><ele>676.0</ele><time>2026-04-12T09:10:28.367Z</time></trkpt><trkpt lat="43.703961" lon="11.7107883"><ele>676.0</ele><time>2026-04-12T09:10:31.353Z</time></trkpt><trkpt lat="43.7039508" lon="11.7109525"><ele>676.0</ele><time>2026-04-12T09:10:33.567Z</time></trkpt><trkpt lat="43.7039889" lon="11.7111355"><ele>674.25</ele><time>2026-04-12T09:10:35.524Z</time></trkpt><trkpt lat="43.7040275" lon="11.7113425"><ele>672.5</ele><time>2026-04-12T09:10:37.565Z</time></trkpt><trkpt lat="43.7040636" lon="11.7115161"><ele>670.75</ele><time>2026-04-12T09:10:39.565Z</time></trkpt><trkpt lat="43.7041524" lon="11.7116256"><ele>669.0</ele><time>2026-04-12T09:10:41.362Z</time></trkpt><trkpt lat="43.7042138" lon="11.7116531"><ele>669.0</ele><time>2026-04-12T09:10:42.355Z</time></trkpt><trkpt lat="43.7043157" lon="11.7118635"><ele>669.0</ele><time>2026-04-12T09:10:45.556Z</time></trkpt><trkpt lat="43.704378" lon="11.7119761"><ele>669.0</ele><time>2026-04-12T09:10:47.353Z</time></trkpt><trkpt lat="43.7045141" lon="11.7119345"><ele>669.0</ele><time>2026-04-12T09:10:50.368Z</time></trkpt><trkpt lat="43.7045793" lon="11.7118867"><ele>667.1666666666666</ele><time>2026-04-12T09:10:51.371Z</time></trkpt><trkpt lat="43.7046389" lon="11.7118265"><ele>665.3333333333334</ele><time>2026-04-12T09:10:52.349Z</time></trkpt><trkpt lat="43.7046925" lon="11.7117737"><ele>663.5</ele><time>2026-04-12T09:10:53.383Z</time></trkpt><trkpt lat="43.704758" lon="11.7117559"><ele>661.6666666666667</ele><time>2026-04-12T09:10:55.377Z</time></trkpt><trkpt lat="43.7047865" lon="11.7118572"><ele>659.8333333333334</ele><time>2026-04-12T09:10:57.359Z</time></trkpt><trkpt lat="43.7047495" lon="11.7119322"><ele>658.0</ele><time>2026-04-12T09:10:59.36Z</time></trkpt><trkpt lat="43.7047135" lon="11.7120683"><ele>655.8333333333334</ele><time>2026-04-12T09:11:01.352Z</time></trkpt><trkpt lat="43.7047397" lon="11.712203"><ele>653.6666666666667</ele><time>2026-04-12T09:11:03.387Z</time></trkpt><trkpt lat="43.7047623" lon="11.7123033"><ele>651.5</ele><time>2026-04-12T09:11:05.375Z</time></trkpt><trkpt lat="43.7048516" lon="11.7122807"><ele>649.3333333333334</ele><time>2026-04-12T09:11:07.343Z</time></trkpt><trkpt lat="43.7049219" lon="11.7122565"><ele>647.1666666666666</ele><time>2026-04-12T09:11:08.359Z</time></trkpt><trkpt lat="43.7049888" lon="11.7122661"><ele>645.0</ele><time>2026-04-12T09:11:09.361Z</time></trkpt><trkpt lat="43.7050601" lon="11.7123418"><ele>645.0</ele><time>2026-04-12T09:11:11.39Z</time></trkpt><trkpt lat="43.7051571" lon="11.7123259"><ele>645.0</ele><time>2026-04-12T09:11:13.4Z</time></trkpt><trkpt lat="43.7052255" lon="11.7122967"><ele>645.0</ele><time>2026-04-12T09:11:14.552Z</time></trkpt><trkpt lat="43.7053452" lon="11.7122201"><ele>645.0</ele><time>2026-04-12T09:11:16.368Z</time></trkpt><trkpt lat="43.7054169" lon="11.712119"><ele>645.0</ele><time>2026-04-12T09:11:18.614Z</time></trkpt><trkpt lat="43.7054652" lon="11.7119938"><ele>645.3333333333334</ele><time>2026-04-12T09:11:20.56Z</time></trkpt><trkpt lat="43.7055206" lon="11.7118881"><ele>645.6666666666666</ele><time>2026-04-12T09:11:22.562Z</time></trkpt><trkpt lat="43.7055783" lon="11.71193"><ele>646.0</ele><time>2026-04-12T09:11:27.358Z</time></trkpt><trkpt lat="43.7056585" lon="11.7118717"><ele>646.3333333333333</ele><time>2026-04-12T09:11:31.358Z</time></trkpt><trkpt lat="43.705719" lon="11.711896"><ele>646.6666666666666</ele><time>2026-04-12T09:11:34.338Z</time></trkpt><trkpt lat="43.7057847" lon="11.7119776"><ele>647.0</ele><time>2026-04-12T09:11:37.355Z</time></trkpt><trkpt lat="43.7058329" lon="11.712097"><ele>645.1428571428571</ele><time>2026-04-12T09:11:39.574Z</time></trkpt><trkpt lat="43.705833" lon="11.712239"><ele>643.2857142857143</ele><time>2026-04-12T09:11:41.372Z</time></trkpt><trkpt lat="43.7058109" lon="11.712321"><ele>641.4285714285714</ele><time>2026-04-12T09:11:42.366Z</time></trkpt><trkpt lat="43.7058123" lon="11.7124287"><ele>639.5714285714286</ele><time>2026-04-12T09:11:44.335Z</time></trkpt><trkpt lat="43.7058578" lon="11.7124977"><ele>637.7142857142857</ele><time>2026-04-12T09:12:01.274Z</time></trkpt><trkpt lat="43.7059155" lon="11.7124548"><ele>635.8571428571429</ele><time>2026-04-12T09:13:53.358Z</time></trkpt><trkpt lat="43.7058687" lon="11.7125189"><ele>634.0</ele><time>2026-04-12T09:19:05.317Z</time></trkpt><trkpt lat="43.7059108" lon="11.7124275"><ele>634.0</ele><time>2026-04-12T09:20:14.364Z</time></trkpt><trkpt lat="43.7059485" lon="11.7123516"><ele>634.0</ele><time>2026-04-12T09:22:36.362Z</time></trkpt><trkpt lat="43.7060054" lon="11.7122843"><ele>634.0</ele><time>2026-04-12T09:22:40.366Z</time></trkpt><trkpt lat="43.7060778" lon="11.7123276"><ele>634.0</ele><time>2026-04-12T09:22:44.334Z</time></trkpt><trkpt lat="43.7060649" lon="11.7124152"><ele>634.0</ele><time>2026-04-12T09:22:47.368Z</time></trkpt><trkpt lat="43.7060056" lon="11.712522"><ele>634.0</ele><time>2026-04-12T09:22:50.386Z</time></trkpt><trkpt lat="43.705938" lon="11.7126185"><ele>634.0</ele><time>2026-04-12T09:22:52.37Z</time></trkpt><trkpt lat="43.7058543" lon="11.7127135"><ele>634.0</ele><time>2026-04-12T09:22:54.367Z</time></trkpt><trkpt lat="43.705775" lon="11.7127912"><ele>634.0</ele><time>2026-04-12T09:22:56.373Z</time></trkpt><trkpt lat="43.7057133" lon="11.7128225"><ele>634.0</ele><time>2026-04-12T09:22:58.391Z</time></trkpt><trkpt lat="43.705641" lon="11.712855"><ele>634.0</ele><time>2026-04-12T09:23:00.379Z</time></trkpt><trkpt lat="43.7055536" lon="11.7128831"><ele>634.0</ele><time>2026-04-12T09:23:02.364Z</time></trkpt><trkpt lat="43.7054708" lon="11.7129199"><ele>633.8333333333334</ele><time>2026-04-12T09:23:04.379Z</time></trkpt><trkpt lat="43.7053889" lon="11.7129458"><ele>633.6666666666667</ele><time>2026-04-12T09:23:06.384Z</time></trkpt><trkpt lat="43.7053043" lon="11.7129996"><ele>633.5</ele><time>2026-04-12T09:23:08.388Z</time></trkpt><trkpt lat="43.7052395" lon="11.7130652"><ele>633.3333333333334</ele><time>2026-04-12T09:23:10.36Z</time></trkpt><trkpt lat="43.7051758" lon="11.7131243"><ele>633.1666666666666</ele><time>2026-04-12T09:23:12.368Z</time></trkpt><trkpt lat="43.7050977" lon="11.7132016"><ele>633.0</ele><time>2026-04-12T09:23:15.375Z</time></trkpt><trkpt lat="43.7050267" lon="11.7132684"><ele>633.0</ele><time>2026-04-12T09:23:17.321Z</time></trkpt><trkpt lat="43.7049476" lon="11.7133312"><ele>633.0</ele><time>2026-04-12T09:23:19.376Z</time></trkpt><trkpt lat="43.7049163" lon="11.7134078"><ele>633.0</ele><time>2026-04-12T09:23:22.364Z</time></trkpt><trkpt lat="43.7049592" lon="11.7135158"><ele>633.0</ele><time>2026-04-12T09:23:27.369Z</time></trkpt><trkpt lat="43.7049951" lon="11.7136176"><ele>633.0</ele><time>2026-04-12T09:23:30.371Z</time></trkpt><trkpt lat="43.7050058" lon="11.7137062"><ele>633.0</ele><time>2026-04-12T09:23:33.365Z</time></trkpt><trkpt lat="43.7049395" lon="11.7137326"><ele>634.0</ele><time>2026-04-12T09:23:39.351Z</time></trkpt><trkpt lat="43.7049274" lon="11.7138352"><ele>635.0</ele><time>2026-04-12T09:23:47.36Z</time></trkpt><trkpt lat="43.7049678" lon="11.7139395"><ele>636.0</ele><time>2026-04-12T09:23:50.307Z</time></trkpt><trkpt lat="43.7050308" lon="11.7139774"><ele>637.0</ele><time>2026-04-12T09:23:54.298Z</time></trkpt><trkpt lat="43.7051131" lon="11.7139505"><ele>638.0</ele><time>2026-04-12T09:23:57.298Z</time></trkpt><trkpt lat="43.7051784" lon="11.7139696"><ele>639.0</ele><time>2026-04-12T09:23:59.373Z</time></trkpt><trkpt lat="43.7052648" lon="11.7140284"><ele>636.6666666666666</ele><time>2026-04-12T09:24:02.361Z</time></trkpt><trkpt lat="43.7053297" lon="11.7140775"><ele>634.3333333333334</ele><time>2026-04-12T09:24:04.357Z</time></trkpt><trkpt lat="43.7053893" lon="11.7141608"><ele>632.0</ele><time>2026-04-12T09:24:06.376Z</time></trkpt><trkpt lat="43.7054494" lon="11.7142603"><ele>629.6666666666667</ele><time>2026-04-12T09:24:08.364Z</time></trkpt><trkpt lat="43.7054946" lon="11.7143308"><ele>627.3333333333334</ele><time>2026-04-12T09:24:10.378Z</time></trkpt><trkpt lat="43.7055568" lon="11.7143998"><ele>625.0</ele><time>2026-04-12T09:24:12.38Z</time></trkpt><trkpt lat="43.705629" lon="11.714484"><ele>625.0</ele><time>2026-04-12T09:24:14.372Z</time></trkpt><trkpt lat="43.7057202" lon="11.7145714"><ele>625.0</ele><time>2026-04-12T09:24:16.369Z</time></trkpt><trkpt lat="43.7058226" lon="11.714581"><ele>625.0</ele><time>2026-04-12T09:24:18.356Z</time></trkpt><trkpt lat="43.7058984" lon="11.7146247"><ele>625.0</ele><time>2026-04-12T09:24:20.39Z</time></trkpt><trkpt lat="43.7059582" lon="11.7146545"><ele>625.0</ele><time>2026-04-12T09:24:22.378Z</time></trkpt><trkpt lat="43.7060256" lon="11.7146946"><ele>625.0</ele><time>2026-04-12T09:24:25.334Z</time></trkpt><trkpt lat="43.7060639" lon="11.7147738"><ele>625.0</ele><time>2026-04-12T09:24:28.364Z</time></trkpt><trkpt lat="43.7060543" lon="11.7148881"><ele>625.0</ele><time>2026-04-12T09:24:31.364Z</time></trkpt><trkpt lat="43.7060595" lon="11.7150179"><ele>625.0</ele><time>2026-04-12T09:24:34.573Z</time></trkpt><trkpt lat="43.7061448" lon="11.7150822"><ele>625.0</ele><time>2026-04-12T09:24:40.556Z</time></trkpt><trkpt lat="43.7061841" lon="11.7151761"><ele>625.0</ele><time>2026-04-12T09:24:42.593Z</time></trkpt><trkpt lat="43.7061991" lon="11.7153266"><ele>623.6666666666667</ele><time>2026-04-12T09:24:46.327Z</time></trkpt><trkpt lat="43.7061734" lon="11.7154071"><ele>622.3333333333334</ele><time>2026-04-12T09:24:49.556Z</time></trkpt><trkpt lat="43.7061172" lon="11.7154876"><ele>621.0</ele><time>2026-04-12T09:24:52.382Z</time></trkpt><trkpt lat="43.7060395" lon="11.7155892"><ele>619.6666666666666</ele><time>2026-04-12T09:24:55.392Z</time></trkpt><trkpt lat="43.7059869" lon="11.7156755"><ele>618.3333333333333</ele><time>2026-04-12T09:24:57.394Z</time></trkpt><trkpt lat="43.7059171" lon="11.7157182"><ele>617.0</ele><time>2026-04-12T09:24:59.4Z</time></trkpt><trkpt lat="43.7058438" lon="11.7157355"><ele>617.0</ele><time>2026-04-12T09:25:01.355Z</time></trkpt><trkpt lat="43.7057807" lon="11.7158213"><ele>617.0</ele><time>2026-04-12T09:25:04.384Z</time></trkpt><trkpt lat="43.7057568" lon="11.7159105"><ele>617.0</ele><time>2026-04-12T09:25:06.297Z</time></trkpt><trkpt lat="43.7057438" lon="11.716027"><ele>617.0</ele><time>2026-04-12T09:25:08.293Z</time></trkpt><trkpt lat="43.7057187" lon="11.7161381"><ele>617.0</ele><time>2026-04-12T09:25:10.379Z</time></trkpt><trkpt lat="43.7056793" lon="11.7162333"><ele>617.0</ele><time>2026-04-12T09:25:12.375Z</time></trkpt><trkpt lat="43.7056403" lon="11.7163468"><ele>615.4</ele><time>2026-04-12T09:25:14.4Z</time></trkpt><trkpt lat="43.7056026" lon="11.7164613"><ele>613.8000000000001</ele><time>2026-04-12T09:25:16.392Z</time></trkpt><trkpt lat="43.705571" lon="11.7165377"><ele>612.2</ele><time>2026-04-12T09:25:17.404Z</time></trkpt><trkpt lat="43.7054962" lon="11.7167324"><ele>610.6</ele><time>2026-04-12T09:25:20.574Z</time></trkpt><trkpt lat="43.7054379" lon="11.716864"><ele>609.0</ele><time>2026-04-12T09:25:22.599Z</time></trkpt><trkpt lat="43.7053514" lon="11.7170284"><ele>607.8</ele><time>2026-04-12T09:25:24.595Z</time></trkpt><trkpt lat="43.7052651" lon="11.7171847"><ele>606.5999999999999</ele><time>2026-04-12T09:25:26.398Z</time></trkpt><trkpt lat="43.7052231" lon="11.7172627"><ele>605.4</ele><time>2026-04-12T09:25:27.393Z</time></trkpt><trkpt lat="43.7051949" lon="11.7173416"><ele>604.1999999999999</ele><time>2026-04-12T09:25:28.614Z</time></trkpt><trkpt lat="43.7052242" lon="11.7175456"><ele>603.0</ele><time>2026-04-12T09:25:30.558Z</time></trkpt><trkpt lat="43.705257" lon="11.7177296"><ele>602.6</ele><time>2026-04-12T09:25:32.575Z</time></trkpt><trkpt lat="43.7052746" lon="11.7178802"><ele>602.1999999999999</ele><time>2026-04-12T09:25:34.344Z</time></trkpt><trkpt lat="43.7052961" lon="11.7180224"><ele>601.8</ele><time>2026-04-12T09:25:54.384Z</time></trkpt><trkpt lat="43.70532" lon="11.7181181"><ele>601.4</ele><time>2026-04-12T09:25:56.392Z</time></trkpt><trkpt lat="43.7053329" lon="11.7182498"><ele>601.0</ele><time>2026-04-12T09:25:58.4Z</time></trkpt><trkpt lat="43.7053285" lon="11.7184444"><ele>601.0</ele><time>2026-04-12T09:26:01.39Z</time></trkpt><trkpt lat="43.7053543" lon="11.7186086"><ele>601.0</ele><time>2026-04-12T09:26:03.359Z</time></trkpt><trkpt lat="43.7054263" lon="11.7187231"><ele>601.0</ele><time>2026-04-12T09:26:05.375Z</time></trkpt><trkpt lat="43.7054837" lon="11.7187655"><ele>601.0</ele><time>2026-04-12T09:26:06.371Z</time></trkpt><trkpt lat="43.7055687" lon="11.7188887"><ele>601.0</ele><time>2026-04-12T09:26:08.661Z</time></trkpt><trkpt lat="43.7056233" lon="11.7190706"><ele>601.0</ele><time>2026-04-12T09:26:10.575Z</time></trkpt><trkpt lat="43.7056496" lon="11.7192596"><ele>601.0</ele><time>2026-04-12T09:26:12.56Z</time></trkpt><trkpt lat="43.7056203" lon="11.7194358"><ele>601.0</ele><time>2026-04-12T09:26:14.546Z</time></trkpt><trkpt lat="43.7056111" lon="11.7195852"><ele>601.0</ele><time>2026-04-12T09:26:16.396Z</time></trkpt><trkpt lat="43.7055651" lon="11.7197233"><ele>601.75</ele><time>2026-04-12T09:26:18.615Z</time></trkpt><trkpt lat="43.7054843" lon="11.7198752"><ele>602.5</ele><time>2026-04-12T09:26:20.635Z</time></trkpt><trkpt lat="43.705387" lon="11.719974"><ele>603.25</ele><time>2026-04-12T09:26:22.371Z</time></trkpt><trkpt lat="43.7053304" lon="11.720027"><ele>604.0</ele><time>2026-04-12T09:26:23.688Z</time></trkpt><trkpt lat="43.7052274" lon="11.7201304"><ele>604.0</ele><time>2026-04-12T09:26:25.614Z</time></trkpt><trkpt lat="43.7051205" lon="11.7202113"><ele>604.0</ele><time>2026-04-12T09:26:27.668Z</time></trkpt><trkpt lat="43.7050112" lon="11.7202768"><ele>604.0</ele><time>2026-04-12T09:26:29.61Z</time></trkpt><trkpt lat="43.7049202" lon="11.7203642"><ele>604.0</ele><time>2026-04-12T09:26:31.334Z</time></trkpt><trkpt lat="43.7048414" lon="11.7204958"><ele>601.6</ele><time>2026-04-12T09:26:33.388Z</time></trkpt><trkpt lat="43.7047945" lon="11.7205577"><ele>599.2</ele><time>2026-04-12T09:26:34.64Z</time></trkpt><trkpt lat="43.7046963" lon="11.7206197"><ele>596.8000000000001</ele><time>2026-04-12T09:26:36.379Z</time></trkpt><trkpt lat="43.7046078" lon="11.7206836"><ele>594.4</ele><time>2026-04-12T09:26:38.395Z</time></trkpt><trkpt lat="43.7045028" lon="11.7207424"><ele>592.0</ele><time>2026-04-12T09:26:40.567Z</time></trkpt><trkpt lat="43.7044182" lon="11.7207836"><ele>591.4</ele><time>2026-04-12T09:26:42.581Z</time></trkpt><trkpt lat="43.7043937" lon="11.7208748"><ele>590.8000000000001</ele><time>2026-04-12T09:26:44.4Z</time></trkpt><trkpt lat="43.704412" lon="11.7210288"><ele>590.2</ele><time>2026-04-12T09:26:46.361Z</time></trkpt><trkpt lat="43.7043932" lon="11.7212031"><ele>589.6</ele><time>2026-04-12T09:26:48.451Z</time></trkpt><trkpt lat="43.7043885" lon="11.7213008"><ele>589.0</ele><time>2026-04-12T09:26:49.412Z</time></trkpt><trkpt lat="43.7043996" lon="11.7213956"><ele>587.0</ele><time>2026-04-12T09:26:50.569Z</time></trkpt><trkpt lat="43.7044286" lon="11.7215709"><ele>585.0</ele><time>2026-04-12T09:26:52.383Z</time></trkpt><trkpt lat="43.7044379" lon="11.7217294"><ele>583.0</ele><time>2026-04-12T09:26:54.405Z</time></trkpt><trkpt lat="43.7044394" lon="11.7218168"><ele>581.0</ele><time>2026-04-12T09:26:55.389Z</time></trkpt><trkpt lat="43.7044236" lon="11.7219135"><ele>579.0</ele><time>2026-04-12T09:26:56.375Z</time></trkpt><trkpt lat="43.7043923" lon="11.722012"><ele>579.0</ele><time>2026-04-12T09:26:57.601Z</time></trkpt><trkpt lat="43.704305" lon="11.722176"><ele>579.0</ele><time>2026-04-12T09:26:59.596Z</time></trkpt><trkpt lat="43.7042611" lon="11.722255"><ele>579.0</ele><time>2026-04-12T09:27:00.392Z</time></trkpt><trkpt lat="43.7042216" lon="11.7223326"><ele>579.0</ele><time>2026-04-12T09:27:01.4Z</time></trkpt><trkpt lat="43.7041803" lon="11.7224185"><ele>579.0</ele><time>2026-04-12T09:27:02.381Z</time></trkpt><trkpt lat="43.704129" lon="11.7225146"><ele>579.0</ele><time>2026-04-12T09:27:03.69Z</time></trkpt><trkpt lat="43.7040336" lon="11.7226834"><ele>577.4</ele><time>2026-04-12T09:27:05.627Z</time></trkpt><trkpt lat="43.703983" lon="11.7228125"><ele>575.8</ele><time>2026-04-12T09:27:07.602Z</time></trkpt><trkpt lat="43.7039834" lon="11.7229254"><ele>574.2</ele><time>2026-04-12T09:27:09.552Z</time></trkpt><trkpt lat="43.7039623" lon="11.7230481"><ele>572.6</ele><time>2026-04-12T09:27:11.334Z</time></trkpt><trkpt lat="43.703899" lon="11.7231943"><ele>571.0</ele><time>2026-04-12T09:27:13.355Z</time></trkpt><trkpt lat="43.7039084" lon="11.7233232"><ele>571.0</ele><time>2026-04-12T09:27:15.579Z</time></trkpt><trkpt lat="43.7039387" lon="11.7234535"><ele>571.0</ele><time>2026-04-12T09:27:19.412Z</time></trkpt><trkpt lat="43.7039903" lon="11.723536"><ele>571.0</ele><time>2026-04-12T09:27:21.351Z</time></trkpt><trkpt lat="43.7040602" lon="11.7237235"><ele>571.0</ele><time>2026-04-12T09:27:24.398Z</time></trkpt><trkpt lat="43.7040687" lon="11.7238874"><ele>571.0</ele><time>2026-04-12T09:27:26.376Z</time></trkpt><trkpt lat="43.7040816" lon="11.7239752"><ele>570.2</ele><time>2026-04-12T09:27:27.405Z</time></trkpt><trkpt lat="43.7041004" lon="11.724127"><ele>569.4000000000001</ele><time>2026-04-12T09:27:29.357Z</time></trkpt><trkpt lat="43.7041252" lon="11.7243244"><ele>568.6</ele><time>2026-04-12T09:27:32.624Z</time></trkpt><trkpt lat="43.7041164" lon="11.7244683"><ele>567.8000000000001</ele><time>2026-04-12T09:27:34.378Z</time></trkpt><trkpt lat="43.704098" lon="11.7245807"><ele>567.0</ele><time>2026-04-12T09:27:36.382Z</time></trkpt><trkpt lat="43.7040503" lon="11.7247188"><ele>564.8000000000001</ele><time>2026-04-12T09:27:38.611Z</time></trkpt><trkpt lat="43.7039817" lon="11.7248484"><ele>562.6</ele><time>2026-04-12T09:27:40.627Z</time></trkpt><trkpt lat="43.7039248" lon="11.7249641"><ele>560.4000000000001</ele><time>2026-04-12T09:27:42.357Z</time></trkpt><trkpt lat="43.7038691" lon="11.7250522"><ele>558.2</ele><time>2026-04-12T09:27:44.372Z</time></trkpt><trkpt lat="43.703808" lon="11.7251247"><ele>556.0</ele><time>2026-04-12T09:27:46.336Z</time></trkpt><trkpt lat="43.7037476" lon="11.7251888"><ele>557.7142857142857</ele><time>2026-04-12T09:27:52.538Z</time></trkpt><trkpt lat="43.7036921" lon="11.7252319"><ele>559.4285714285714</ele><time>2026-04-12T09:27:56.37Z</time></trkpt><trkpt lat="43.7036357" lon="11.7252824"><ele>561.1428571428571</ele><time>2026-04-12T09:28:23.291Z</time></trkpt><trkpt lat="43.7035447" lon="11.7253261"><ele>562.8571428571429</ele><time>2026-04-12T09:28:26.298Z</time></trkpt><trkpt lat="43.703464" lon="11.7253714"><ele>564.5714285714286</ele><time>2026-04-12T09:28:28.309Z</time></trkpt><trkpt lat="43.7034239" lon="11.7254448"><ele>566.2857142857142</ele><time>2026-04-12T09:28:30.321Z</time></trkpt><trkpt lat="43.7034397" lon="11.7255354"><ele>568.0</ele><time>2026-04-12T09:28:32.364Z</time></trkpt><trkpt lat="43.7034607" lon="11.7256213"><ele>568.0</ele><time>2026-04-12T09:28:34.309Z</time></trkpt><trkpt lat="43.7035339" lon="11.7257069"><ele>568.0</ele><time>2026-04-12T09:28:37.389Z</time></trkpt><trkpt lat="43.7036059" lon="11.7257311"><ele>568.0</ele><time>2026-04-12T09:28:39.384Z</time></trkpt><trkpt lat="43.7038026" lon="11.7257237"><ele>568.0</ele><time>2026-04-12T09:28:42.564Z</time></trkpt><trkpt lat="43.7039295" lon="11.7257008"><ele>568.0</ele><time>2026-04-12T09:28:44.625Z</time></trkpt><trkpt lat="43.7040229" lon="11.7256888"><ele>568.0</ele><time>2026-04-12T09:28:46.398Z</time></trkpt><trkpt lat="43.7040978" lon="11.7256853"><ele>568.0</ele><time>2026-04-12T09:28:48.426Z</time></trkpt><trkpt lat="43.7041765" lon="11.7256651"><ele>568.0</ele><time>2026-04-12T09:28:50.569Z</time></trkpt><trkpt lat="43.7042884" lon="11.7255875"><ele>568.0</ele><time>2026-04-12T09:28:52.61Z</time></trkpt><trkpt lat="43.7043875" lon="11.7255096"><ele>565.4</ele><time>2026-04-12T09:28:54.382Z</time></trkpt><trkpt lat="43.7044785" lon="11.7254851"><ele>562.8</ele><time>2026-04-12T09:28:57.671Z</time></trkpt><trkpt lat="43.7045413" lon="11.7255308"><ele>560.2</ele><time>2026-04-12T09:28:59.582Z</time></trkpt><trkpt lat="43.7046184" lon="11.7256268"><ele>557.6</ele><time>2026-04-12T09:29:01.408Z</time></trkpt><trkpt lat="43.7046961" lon="11.7258178"><ele>555.0</ele><time>2026-04-12T09:29:04.41Z</time></trkpt><trkpt lat="43.7047036" lon="11.7259534"><ele>555.0</ele><time>2026-04-12T09:29:06.354Z</time></trkpt><trkpt lat="43.7046948" lon="11.726048"><ele>555.0</ele><time>2026-04-12T09:29:08.398Z</time></trkpt><trkpt lat="43.7046288" lon="11.7261504"><ele>555.0</ele><time>2026-04-12T09:29:11.341Z</time></trkpt><trkpt lat="43.7045831" lon="11.7262536"><ele>555.0</ele><time>2026-04-12T09:29:13.377Z</time></trkpt><trkpt lat="43.7045775" lon="11.7264"><ele>555.0</ele><time>2026-04-12T09:29:15.382Z</time></trkpt><trkpt lat="43.704611" lon="11.7265555"><ele>558.75</ele><time>2026-04-12T09:29:17.349Z</time></trkpt><trkpt lat="43.7046772" lon="11.7267683"><ele>562.5</ele><time>2026-04-12T09:29:20.618Z</time></trkpt><trkpt lat="43.7047158" lon="11.7268929"><ele>566.25</ele><time>2026-04-12T09:29:22.414Z</time></trkpt><trkpt lat="43.7047196" lon="11.7270171"><ele>570.0</ele><time>2026-04-12T09:29:24.392Z</time></trkpt><trkpt lat="43.704705" lon="11.7271765"><ele>571.8333333333334</ele><time>2026-04-12T09:29:28.515Z</time></trkpt><trkpt lat="43.7047091" lon="11.7272831"><ele>573.6666666666666</ele><time>2026-04-12T09:29:30.381Z</time></trkpt><trkpt lat="43.7047204" lon="11.7273952"><ele>575.5</ele><time>2026-04-12T09:29:32.548Z</time></trkpt><trkpt lat="43.7047464" lon="11.7274924"><ele>577.3333333333333</ele><time>2026-04-12T09:29:34.383Z</time></trkpt><trkpt lat="43.7047727" lon="11.7276623"><ele>579.1666666666666</ele><time>2026-04-12T09:29:37.586Z</time></trkpt><trkpt lat="43.7047685" lon="11.7277821"><ele>581.0</ele><time>2026-04-12T09:29:39.615Z</time></trkpt><trkpt lat="43.7047703" lon="11.7278864"><ele>582.5714285714286</ele><time>2026-04-12T09:29:41.375Z</time></trkpt><trkpt lat="43.7047644" lon="11.7279814"><ele>584.1428571428571</ele><time>2026-04-12T09:29:43.618Z</time></trkpt><trkpt lat="43.7047479" lon="11.7280879"><ele>585.7142857142858</ele><time>2026-04-12T09:29:45.595Z</time></trkpt><trkpt lat="43.7047422" lon="11.7281878"><ele>587.2857142857142</ele><time>2026-04-12T09:29:47.568Z</time></trkpt><trkpt lat="43.7047502" lon="11.7282812"><ele>588.8571428571429</ele><time>2026-04-12T09:29:49.581Z</time></trkpt><trkpt lat="43.704775" lon="11.7283846"><ele>590.4285714285714</ele><time>2026-04-12T09:29:51.398Z</time></trkpt><trkpt lat="43.7048015" lon="11.7284717"><ele>592.0</ele><time>2026-04-12T09:29:53.38Z</time></trkpt><trkpt lat="43.7048217" lon="11.7285561"><ele>593.5</ele><time>2026-04-12T09:29:55.398Z</time></trkpt><trkpt lat="43.7048133" lon="11.7286933"><ele>595.0</ele><time>2026-04-12T09:29:58.39Z</time></trkpt><trkpt lat="43.7048043" lon="11.7287884"><ele>596.5</ele><time>2026-04-12T09:30:00.591Z</time></trkpt><trkpt lat="43.7047771" lon="11.7288736"><ele>598.0</ele><time>2026-04-12T09:30:02.39Z</time></trkpt><trkpt lat="43.7047422" lon="11.7289727"><ele>599.5</ele><time>2026-04-12T09:30:04.328Z</time></trkpt><trkpt lat="43.7047191" lon="11.7290547"><ele>601.0</ele><time>2026-04-12T09:30:06.33Z</time></trkpt><trkpt lat="43.7047336" lon="11.7291712"><ele>601.0</ele><time>2026-04-12T09:30:09.641Z</time></trkpt><trkpt lat="43.7048178" lon="11.7292248"><ele>601.0</ele><time>2026-04-12T09:30:13.381Z</time></trkpt><trkpt lat="43.7048901" lon="11.7292685"><ele>601.0</ele><time>2026-04-12T09:30:15.341Z</time></trkpt><trkpt lat="43.7049623" lon="11.7293017"><ele>601.0</ele><time>2026-04-12T09:30:17.361Z</time></trkpt><trkpt lat="43.7050799" lon="11.7293252"><ele>601.0</ele><time>2026-04-12T09:30:20.349Z</time></trkpt><trkpt lat="43.7051315" lon="11.7293811"><ele>601.0</ele><time>2026-04-12T09:30:22.394Z</time></trkpt><trkpt lat="43.7050872" lon="11.7294801"><ele>602.1666666666667</ele><time>2026-04-12T09:30:25.593Z</time></trkpt><trkpt lat="43.7050289" lon="11.729553"><ele>603.3333333333334</ele><time>2026-04-12T09:30:27.587Z</time></trkpt><trkpt lat="43.7049847" lon="11.729632"><ele>604.5</ele><time>2026-04-12T09:30:29.388Z</time></trkpt><trkpt lat="43.704976" lon="11.7297381"><ele>605.6666666666666</ele><time>2026-04-12T09:30:31.332Z</time></trkpt><trkpt lat="43.7049791" lon="11.7298567"><ele>606.8333333333333</ele><time>2026-04-12T09:30:33.557Z</time></trkpt><trkpt lat="43.7049694" lon="11.7299705"><ele>608.0</ele><time>2026-04-12T09:30:35.477Z</time></trkpt><trkpt lat="43.7049221" lon="11.7300546"><ele>608.0</ele><time>2026-04-12T09:30:37.452Z</time></trkpt><trkpt lat="43.7048447" lon="11.7301062"><ele>608.0</ele><time>2026-04-12T09:30:39.296Z</time></trkpt><trkpt lat="43.7047782" lon="11.7301651"><ele>608.0</ele><time>2026-04-12T09:30:41.378Z</time></trkpt><trkpt lat="43.7047239" lon="11.7302271"><ele>608.0</ele><time>2026-04-12T09:30:44.34Z</time></trkpt><trkpt lat="43.7047774" lon="11.730325"><ele>608.0</ele><time>2026-04-12T09:30:48.374Z</time></trkpt><trkpt lat="43.7048228" lon="11.7304347"><ele>608.0</ele><time>2026-04-12T09:30:51.426Z</time></trkpt><trkpt lat="43.7048709" lon="11.7305255"><ele>610.5</ele><time>2026-04-12T09:30:53.403Z</time></trkpt><trkpt lat="43.704928" lon="11.7306084"><ele>613.0</ele><time>2026-04-12T09:30:55.388Z</time></trkpt><trkpt lat="43.7049817" lon="11.7306869"><ele>615.5</ele><time>2026-04-12T09:30:57.413Z</time></trkpt><trkpt lat="43.7050616" lon="11.7308181"><ele>618.0</ele><time>2026-04-12T09:31:00.428Z</time></trkpt><trkpt lat="43.705106" lon="11.7308985"><ele>620.5</ele><time>2026-04-12T09:31:01.396Z</time></trkpt><trkpt lat="43.7051392" lon="11.7309725"><ele>623.0</ele><time>2026-04-12T09:31:02.375Z</time></trkpt><trkpt lat="43.7052047" lon="11.7311102"><ele>622.6</ele><time>2026-04-12T09:31:04.391Z</time></trkpt><trkpt lat="43.7052748" lon="11.7311979"><ele>622.1999999999999</ele><time>2026-04-12T09:31:06.414Z</time></trkpt><trkpt lat="43.7053522" lon="11.7312673"><ele>621.8</ele><time>2026-04-12T09:31:08.618Z</time></trkpt><trkpt lat="43.7054517" lon="11.7313336"><ele>621.4</ele><time>2026-04-12T09:31:10.423Z</time></trkpt><trkpt lat="43.7055384" lon="11.7313583"><ele>621.0</ele><time>2026-04-12T09:31:12.379Z</time></trkpt><trkpt lat="43.7056453" lon="11.7314348"><ele>621.0</ele><time>2026-04-12T09:31:14.606Z</time></trkpt><trkpt lat="43.7057267" lon="11.7315195"><ele>621.0</ele><time>2026-04-12T09:31:16.322Z</time></trkpt><trkpt lat="43.7058155" lon="11.7316588"><ele>621.0</ele><time>2026-04-12T09:31:18.375Z</time></trkpt><trkpt lat="43.7059194" lon="11.7318551"><ele>621.0</ele><time>2026-04-12T09:31:21.382Z</time></trkpt><trkpt lat="43.7060003" lon="11.7319467"><ele>621.2</ele><time>2026-04-12T09:31:23.375Z</time></trkpt><trkpt lat="43.7060701" lon="11.7319983"><ele>621.4000000000001</ele><time>2026-04-12T09:31:25.457Z</time></trkpt><trkpt lat="43.7061425" lon="11.7320533"><ele>621.6</ele><time>2026-04-12T09:31:27.462Z</time></trkpt><trkpt lat="43.7062187" lon="11.732106"><ele>621.8000000000001</ele><time>2026-04-12T09:31:29.621Z</time></trkpt><trkpt lat="43.7063185" lon="11.7321671"><ele>622.0</ele><time>2026-04-12T09:31:31.406Z</time></trkpt><trkpt lat="43.7064179" lon="11.7322163"><ele>622.0</ele><time>2026-04-12T09:31:33.399Z</time></trkpt><trkpt lat="43.7066057" lon="11.7323334"><ele>622.0</ele><time>2026-04-12T09:31:36.373Z</time></trkpt><trkpt lat="43.7066651" lon="11.7323921"><ele>622.0</ele><time>2026-04-12T09:31:37.399Z</time></trkpt><trkpt lat="43.7067595" lon="11.7324831"><ele>622.0</ele><time>2026-04-12T09:31:39.344Z</time></trkpt><trkpt lat="43.7068111" lon="11.7325409"><ele>622.0</ele><time>2026-04-12T09:31:40.407Z</time></trkpt><trkpt lat="43.7068932" lon="11.7326598"><ele>622.0</ele><time>2026-04-12T09:31:42.386Z</time></trkpt><trkpt lat="43.7069136" lon="11.7327438"><ele>622.0</ele><time>2026-04-12T09:31:43.374Z</time></trkpt><trkpt lat="43.7069433" lon="11.7328793"><ele>622.0</ele><time>2026-04-12T09:31:45.367Z</time></trkpt><trkpt lat="43.7069424" lon="11.7329998"><ele>622.0</ele><time>2026-04-12T09:31:47.373Z</time></trkpt><trkpt lat="43.7068769" lon="11.7331682"><ele>623.0</ele><time>2026-04-12T09:31:50.372Z</time></trkpt><trkpt lat="43.7068185" lon="11.7332603"><ele>624.0</ele><time>2026-04-12T09:31:52.391Z</time></trkpt><trkpt lat="43.7067627" lon="11.7333844"><ele>625.0</ele><time>2026-04-12T09:31:54.406Z</time></trkpt><trkpt lat="43.7067138" lon="11.733551"><ele>626.0</ele><time>2026-04-12T09:31:56.394Z</time></trkpt><trkpt lat="43.7066878" lon="11.7336342"><ele>627.0</ele><time>2026-04-12T09:31:57.381Z</time></trkpt><trkpt lat="43.706657" lon="11.733868"><ele>628.5</ele><time>2026-04-12T09:32:00.415Z</time></trkpt><trkpt lat="43.7067047" lon="11.734018"><ele>630.0</ele><time>2026-04-12T09:32:02.378Z</time></trkpt><trkpt lat="43.7068018" lon="11.7341411"><ele>631.5</ele><time>2026-04-12T09:32:05.616Z</time></trkpt><trkpt lat="43.7068488" lon="11.7342422"><ele>633.0</ele><time>2026-04-12T09:32:07.45Z</time></trkpt><trkpt lat="43.7068819" lon="11.7343933"><ele>634.1999999999999</ele><time>2026-04-12T09:32:09.704Z</time></trkpt><trkpt lat="43.7069085" lon="11.7344986"><ele>635.4</ele><time>2026-04-12T09:32:11.34Z</time></trkpt><trkpt lat="43.7069175" lon="11.7346093"><ele>636.5999999999999</ele><time>2026-04-12T09:32:13.614Z</time></trkpt><trkpt lat="43.7069021" lon="11.7347825"><ele>637.8</ele><time>2026-04-12T09:32:15.637Z</time></trkpt><trkpt lat="43.7068591" lon="11.7349985"><ele>639.0</ele><time>2026-04-12T09:32:17.598Z</time></trkpt><trkpt lat="43.7068112" lon="11.7351985"><ele>639.0</ele><time>2026-04-12T09:32:19.633Z</time></trkpt><trkpt lat="43.7067743" lon="11.7353685"><ele>639.0</ele><time>2026-04-12T09:32:21.41Z</time></trkpt><trkpt lat="43.7067485" lon="11.7354489"><ele>639.0</ele><time>2026-04-12T09:32:22.402Z</time></trkpt><trkpt lat="43.7067114" lon="11.7356036"><ele>639.0</ele><time>2026-04-12T09:32:24.408Z</time></trkpt><trkpt lat="43.7067063" lon="11.7356952"><ele>639.0</ele><time>2026-04-12T09:32:25.405Z</time></trkpt><trkpt lat="43.7067082" lon="11.7357967"><ele>639.0</ele><time>2026-04-12T09:32:26.403Z</time></trkpt><trkpt lat="43.706714" lon="11.7359042"><ele>639.0</ele><time>2026-04-12T09:32:27.416Z</time></trkpt><trkpt lat="43.7067202" lon="11.7360106"><ele>639.0</ele><time>2026-04-12T09:32:28.62Z</time></trkpt><trkpt lat="43.7067222" lon="11.7361112"><ele>639.0</ele><time>2026-04-12T09:32:29.402Z</time></trkpt><trkpt lat="43.7067181" lon="11.7362088"><ele>639.0</ele><time>2026-04-12T09:32:30.631Z</time></trkpt><trkpt lat="43.7067121" lon="11.7363718"><ele>639.0</ele><time>2026-04-12T09:32:32.372Z</time></trkpt><trkpt lat="43.7066943" lon="11.7365323"><ele>639.0</ele><time>2026-04-12T09:32:34.387Z</time></trkpt><trkpt lat="43.7066838" lon="11.7366183"><ele>639.0</ele><time>2026-04-12T09:32:35.395Z</time></trkpt><trkpt lat="43.7066523" lon="11.7367699"><ele>639.0</ele><time>2026-04-12T09:32:37.37Z</time></trkpt><trkpt lat="43.7065969" lon="11.7370033"><ele>639.0</ele><time>2026-04-12T09:32:40.403Z</time></trkpt><trkpt lat="43.7065854" lon="11.7371129"><ele>639.0</ele><time>2026-04-12T09:32:42.406Z</time></trkpt><trkpt lat="43.7065788" lon="11.7372164"><ele>638.0</ele><time>2026-04-12T09:32:44.393Z</time></trkpt><trkpt lat="43.7065863" lon="11.7373934"><ele>637.0</ele><time>2026-04-12T09:32:47.621Z</time></trkpt><trkpt lat="43.7065847" lon="11.7375544"><ele>636.0</ele><time>2026-04-12T09:32:49.641Z</time></trkpt><trkpt lat="43.706576" lon="11.7376853"><ele>635.0</ele><time>2026-04-12T09:32:51.418Z</time></trkpt><trkpt lat="43.7065803" lon="11.7378812"><ele>632.75</ele><time>2026-04-12T09:32:55.389Z</time></trkpt><trkpt lat="43.7065733" lon="11.7380563"><ele>630.5</ele><time>2026-04-12T09:32:57.448Z</time></trkpt><trkpt lat="43.7065588" lon="11.7382601"><ele>628.25</ele><time>2026-04-12T09:32:59.393Z</time></trkpt><trkpt lat="43.706546" lon="11.7383546"><ele>626.0</ele><time>2026-04-12T09:33:00.413Z</time></trkpt><trkpt lat="43.7065557" lon="11.7385251"><ele>624.2</ele><time>2026-04-12T09:33:02.411Z</time></trkpt><trkpt lat="43.7065973" lon="11.7386716"><ele>622.4000000000001</ele><time>2026-04-12T09:33:04.589Z</time></trkpt><trkpt lat="43.7066785" lon="11.7387754"><ele>620.6</ele><time>2026-04-12T09:33:06.383Z</time></trkpt><trkpt lat="43.7067254" lon="11.7388598"><ele>618.8000000000001</ele><time>2026-04-12T09:33:08.605Z</time></trkpt><trkpt lat="43.7066298" lon="11.7388994"><ele>617.0</ele><time>2026-04-12T09:33:11.389Z</time></trkpt><trkpt lat="43.7065397" lon="11.7388475"><ele>617.0</ele><time>2026-04-12T09:33:13.39Z</time></trkpt><trkpt lat="43.7064391" lon="11.7388433"><ele>617.0</ele><time>2026-04-12T09:33:15.404Z</time></trkpt><trkpt lat="43.7063396" lon="11.7388803"><ele>617.0</ele><time>2026-04-12T09:33:17.384Z</time></trkpt><trkpt lat="43.7062318" lon="11.7389483"><ele>617.0</ele><time>2026-04-12T09:33:20.601Z</time></trkpt><trkpt lat="43.7061515" lon="11.738988"><ele>617.0</ele><time>2026-04-12T09:33:22.329Z</time></trkpt><trkpt lat="43.7060652" lon="11.73904"><ele>617.0</ele><time>2026-04-12T09:33:24.361Z</time></trkpt><trkpt lat="43.7059948" lon="11.7390782"><ele>617.0</ele><time>2026-04-12T09:33:26.382Z</time></trkpt><trkpt lat="43.7059613" lon="11.7391583"><ele>617.0</ele><time>2026-04-12T09:33:29.379Z</time></trkpt><trkpt lat="43.7059918" lon="11.7392534"><ele>617.0</ele><time>2026-04-12T09:34:02.388Z</time></trkpt><trkpt lat="43.7060825" lon="11.7393332"><ele>617.0</ele><time>2026-04-12T09:34:04.373Z</time></trkpt><trkpt lat="43.7062034" lon="11.7394015"><ele>615.1666666666666</ele><time>2026-04-12T09:34:06.407Z</time></trkpt><trkpt lat="43.706276" lon="11.739443"><ele>613.3333333333333</ele><time>2026-04-12T09:34:07.389Z</time></trkpt><trkpt lat="43.7063501" lon="11.7394876"><ele>611.5</ele><time>2026-04-12T09:34:08.335Z</time></trkpt><trkpt lat="43.7064216" lon="11.7395417"><ele>609.6666666666666</ele><time>2026-04-12T09:34:09.382Z</time></trkpt><trkpt lat="43.7064933" lon="11.7396143"><ele>607.8333333333334</ele><time>2026-04-12T09:34:10.399Z</time></trkpt><trkpt lat="43.7065633" lon="11.7396948"><ele>606.0</ele><time>2026-04-12T09:34:11.381Z</time></trkpt><trkpt lat="43.7066226" lon="11.7397816"><ele>606.0</ele><time>2026-04-12T09:34:12.372Z</time></trkpt><trkpt lat="43.7066772" lon="11.7398789"><ele>606.0</ele><time>2026-04-12T09:34:13.393Z</time></trkpt><trkpt lat="43.7067316" lon="11.7399749"><ele>606.0</ele><time>2026-04-12T09:34:14.423Z</time></trkpt><trkpt lat="43.7067961" lon="11.7400605"><ele>606.0</ele><time>2026-04-12T09:34:15.407Z</time></trkpt><trkpt lat="43.706873" lon="11.740132"><ele>606.0</ele><time>2026-04-12T09:34:16.405Z</time></trkpt><trkpt lat="43.706955" lon="11.7401998"><ele>603.0</ele><time>2026-04-12T09:34:17.402Z</time></trkpt><trkpt lat="43.7070388" lon="11.7402624"><ele>600.0</ele><time>2026-04-12T09:34:18.411Z</time></trkpt><trkpt lat="43.7071299" lon="11.7403273"><ele>597.0</ele><time>2026-04-12T09:34:19.354Z</time></trkpt><trkpt lat="43.7072269" lon="11.7403899"><ele>594.0</ele><time>2026-04-12T09:34:20.399Z</time></trkpt><trkpt lat="43.7073184" lon="11.7404483"><ele>591.0</ele><time>2026-04-12T09:34:21.404Z</time></trkpt><trkpt lat="43.7074137" lon="11.7405078"><ele>591.0</ele><time>2026-04-12T09:34:22.391Z</time></trkpt><trkpt lat="43.7075109" lon="11.7405636"><ele>591.0</ele><time>2026-04-12T09:34:23.385Z</time></trkpt><trkpt lat="43.7076104" lon="11.7406128"><ele>591.0</ele><time>2026-04-12T09:34:24.388Z</time></trkpt><trkpt lat="43.7077152" lon="11.7406436"><ele>591.0</ele><time>2026-04-12T09:34:25.588Z</time></trkpt><trkpt lat="43.7079286" lon="11.7406553"><ele>589.0</ele><time>2026-04-12T09:34:27.657Z</time></trkpt><trkpt lat="43.7081513" lon="11.7406557"><ele>587.0</ele><time>2026-04-12T09:34:29.613Z</time></trkpt><trkpt lat="43.7083728" lon="11.7406307"><ele>585.0</ele><time>2026-04-12T09:34:31.396Z</time></trkpt><trkpt lat="43.7084794" lon="11.7405964"><ele>583.25</ele><time>2026-04-12T09:34:32.38Z</time></trkpt><trkpt lat="43.7085887" lon="11.7405459"><ele>581.5</ele><time>2026-04-12T09:34:33.595Z</time></trkpt><trkpt lat="43.7086996" lon="11.7404799"><ele>579.75</ele><time>2026-04-12T09:34:34.394Z</time></trkpt><trkpt lat="43.7088103" lon="11.740409"><ele>578.0</ele><time>2026-04-12T09:34:35.345Z</time></trkpt><trkpt lat="43.7089232" lon="11.7403363"><ele>578.0</ele><time>2026-04-12T09:34:36.407Z</time></trkpt><trkpt lat="43.709033" lon="11.7402751"><ele>578.0</ele><time>2026-04-12T09:34:37.613Z</time></trkpt><trkpt lat="43.7092616" lon="11.7402049"><ele>578.0</ele><time>2026-04-12T09:34:39.558Z</time></trkpt><trkpt lat="43.7094766" lon="11.7402459"><ele>579.0</ele><time>2026-04-12T09:34:41.387Z</time></trkpt><trkpt lat="43.7095755" lon="11.7402995"><ele>580.0</ele><time>2026-04-12T09:34:42.381Z</time></trkpt><trkpt lat="43.7096694" lon="11.7403858"><ele>581.0</ele><time>2026-04-12T09:34:43.368Z</time></trkpt><trkpt lat="43.709757" lon="11.7404889"><ele>582.0</ele><time>2026-04-12T09:34:44.351Z</time></trkpt><trkpt lat="43.7098309" lon="11.7406164"><ele>582.0</ele><time>2026-04-12T09:34:45.377Z</time></trkpt><trkpt lat="43.7098774" lon="11.7407634"><ele>582.0</ele><time>2026-04-12T09:34:46.401Z</time></trkpt><trkpt lat="43.7099165" lon="11.7409141"><ele>582.0</ele><time>2026-04-12T09:34:47.571Z</time></trkpt><trkpt lat="43.7100011" lon="11.7411975"><ele>578.6666666666666</ele><time>2026-04-12T09:34:49.655Z</time></trkpt><trkpt lat="43.7100989" lon="11.7414857"><ele>575.3333333333333</ele><time>2026-04-12T09:34:51.387Z</time></trkpt><trkpt lat="43.7101484" lon="11.7416307"><ele>572.0</ele><time>2026-04-12T09:34:52.393Z</time></trkpt><trkpt lat="43.7102001" lon="11.7417728"><ele>571.4</ele><time>2026-04-12T09:34:53.352Z</time></trkpt><trkpt lat="43.7102498" lon="11.7419144"><ele>570.8000000000001</ele><time>2026-04-12T09:34:54.387Z</time></trkpt><trkpt lat="43.7102992" lon="11.7420559"><ele>570.2</ele><time>2026-04-12T09:34:55.37Z</time></trkpt><trkpt lat="43.7103476" lon="11.7421938"><ele>569.6</ele><time>2026-04-12T09:34:56.307Z</time></trkpt><trkpt lat="43.7103958" lon="11.7423293"><ele>569.0</ele><time>2026-04-12T09:34:57.629Z</time></trkpt><trkpt lat="43.7105054" lon="11.7425782"><ele>566.5</ele><time>2026-04-12T09:34:59.648Z</time></trkpt><trkpt lat="43.7106703" lon="11.7427547"><ele>564.0</ele><time>2026-04-12T09:35:01.365Z</time></trkpt><trkpt lat="43.7107709" lon="11.7428122"><ele>561.5</ele><time>2026-04-12T09:35:02.379Z</time></trkpt><trkpt lat="43.7108827" lon="11.7428593"><ele>559.0</ele><time>2026-04-12T09:35:03.409Z</time></trkpt><trkpt lat="43.7110026" lon="11.7428894"><ele>559.0</ele><time>2026-04-12T09:35:04.402Z</time></trkpt><trkpt lat="43.7111359" lon="11.7429155"><ele>559.0</ele><time>2026-04-12T09:35:05.594Z</time></trkpt><trkpt lat="43.7114061" lon="11.7429743"><ele>559.0</ele><time>2026-04-12T09:35:07.605Z</time></trkpt><trkpt lat="43.7116584" lon="11.7430451"><ele>559.0</ele><time>2026-04-12T09:35:09.59Z</time></trkpt><trkpt lat="43.7118949" lon="11.743112"><ele>559.0</ele><time>2026-04-12T09:35:11.334Z</time></trkpt><trkpt lat="43.7120086" lon="11.7431477"><ele>559.0</ele><time>2026-04-12T09:35:12.377Z</time></trkpt><trkpt lat="43.7121218" lon="11.743189"><ele>558.3333333333334</ele><time>2026-04-12T09:35:13.613Z</time></trkpt><trkpt lat="43.7123308" lon="11.7433042"><ele>557.6666666666666</ele><time>2026-04-12T09:35:15.636Z</time></trkpt><trkpt lat="43.7125246" lon="11.74344"><ele>557.0</ele><time>2026-04-12T09:35:17.608Z</time></trkpt><trkpt lat="43.7127196" lon="11.7436286"><ele>556.0</ele><time>2026-04-12T09:35:19.618Z</time></trkpt><trkpt lat="43.7129083" lon="11.7438276"><ele>555.0</ele><time>2026-04-12T09:35:21.393Z</time></trkpt><trkpt lat="43.7129975" lon="11.7439248"><ele>554.0</ele><time>2026-04-12T09:35:22.39Z</time></trkpt><trkpt lat="43.7130816" lon="11.7440234"><ele>554.0</ele><time>2026-04-12T09:35:23.353Z</time></trkpt><trkpt lat="43.7131637" lon="11.7441171"><ele>554.0</ele><time>2026-04-12T09:35:24.593Z</time></trkpt><trkpt lat="43.7133331" lon="11.7443016"><ele>554.0</ele><time>2026-04-12T09:35:26.386Z</time></trkpt><trkpt lat="43.7134213" lon="11.74439"><ele>554.0</ele><time>2026-04-12T09:35:27.646Z</time></trkpt><trkpt lat="43.7136013" lon="11.7445624"><ele>553.3333333333333</ele><time>2026-04-12T09:35:29.652Z</time></trkpt><trkpt lat="43.7137791" lon="11.7447405"><ele>552.6666666666666</ele><time>2026-04-12T09:35:31.399Z</time></trkpt><trkpt lat="43.7138669" lon="11.7448419"><ele>552.0</ele><time>2026-04-12T09:35:32.378Z</time></trkpt><trkpt lat="43.713951" lon="11.7449528"><ele>552.0</ele><time>2026-04-12T09:35:33.388Z</time></trkpt><trkpt lat="43.7140327" lon="11.7450758"><ele>552.0</ele><time>2026-04-12T09:35:34.383Z</time></trkpt><trkpt lat="43.7141133" lon="11.7452067"><ele>552.0</ele><time>2026-04-12T09:35:35.409Z</time></trkpt><trkpt lat="43.7141899" lon="11.7453365"><ele>552.0</ele><time>2026-04-12T09:35:36.418Z</time></trkpt><trkpt lat="43.7142595" lon="11.7454639"><ele>549.3333333333334</ele><time>2026-04-12T09:35:37.396Z</time></trkpt><trkpt lat="43.7143276" lon="11.7455882"><ele>546.6666666666667</ele><time>2026-04-12T09:35:38.625Z</time></trkpt><trkpt lat="43.7144702" lon="11.7458503"><ele>544.0</ele><time>2026-04-12T09:35:40.673Z</time></trkpt><trkpt lat="43.7145999" lon="11.7461134"><ele>541.3333333333334</ele><time>2026-04-12T09:35:42.428Z</time></trkpt><trkpt lat="43.7146503" lon="11.7462274"><ele>538.6666666666667</ele><time>2026-04-12T09:35:43.409Z</time></trkpt><trkpt lat="43.7146996" lon="11.7463236"><ele>536.0</ele><time>2026-04-12T09:35:44.415Z</time></trkpt><trkpt lat="43.7147474" lon="11.7464086"><ele>533.3333333333334</ele><time>2026-04-12T09:35:45.416Z</time></trkpt><trkpt lat="43.7147916" lon="11.7464977"><ele>530.6666666666666</ele><time>2026-04-12T09:35:46.383Z</time></trkpt><trkpt lat="43.7148191" lon="11.7465962"><ele>528.0</ele><time>2026-04-12T09:35:47.42Z</time></trkpt><trkpt lat="43.7148164" lon="11.7467125"><ele>525.75</ele><time>2026-04-12T09:35:48.698Z</time></trkpt><trkpt lat="43.7147134" lon="11.7469198"><ele>523.5</ele><time>2026-04-12T09:35:50.346Z</time></trkpt><trkpt lat="43.7146432" lon="11.7469965"><ele>521.25</ele><time>2026-04-12T09:35:51.395Z</time></trkpt><trkpt lat="43.7145625" lon="11.7470496"><ele>519.0</ele><time>2026-04-12T09:35:52.372Z</time></trkpt><trkpt lat="43.7144629" lon="11.7470759"><ele>518.25</ele><time>2026-04-12T09:35:53.391Z</time></trkpt><trkpt lat="43.7143523" lon="11.7470779"><ele>517.5</ele><time>2026-04-12T09:35:54.349Z</time></trkpt><trkpt lat="43.7142502" lon="11.7470902"><ele>516.75</ele><time>2026-04-12T09:35:55.619Z</time></trkpt><trkpt lat="43.7140224" lon="11.7471163"><ele>516.0</ele><time>2026-04-12T09:35:57.601Z</time></trkpt><trkpt lat="43.7138146" lon="11.7471752"><ele>516.0</ele><time>2026-04-12T09:35:59.59Z</time></trkpt><trkpt lat="43.7136398" lon="11.7472969"><ele>516.0</ele><time>2026-04-12T09:36:01.335Z</time></trkpt><trkpt lat="43.7135956" lon="11.7474092"><ele>516.0</ele><time>2026-04-12T09:36:02.393Z</time></trkpt><trkpt lat="43.7135704" lon="11.7475445"><ele>516.0</ele><time>2026-04-12T09:36:03.613Z</time></trkpt><trkpt lat="43.7135895" lon="11.7478229"><ele>515.0</ele><time>2026-04-12T09:36:05.397Z</time></trkpt><trkpt lat="43.7136307" lon="11.7479431"><ele>514.0</ele><time>2026-04-12T09:36:06.38Z</time></trkpt><trkpt lat="43.7136902" lon="11.7480476"><ele>513.0</ele><time>2026-04-12T09:36:07.383Z</time></trkpt><trkpt lat="43.7137536" lon="11.7481456"><ele>512.0</ele><time>2026-04-12T09:36:08.394Z</time></trkpt><trkpt lat="43.7138182" lon="11.7482424"><ele>511.0</ele><time>2026-04-12T09:36:09.411Z</time></trkpt><trkpt lat="43.7138903" lon="11.7483403"><ele>511.0</ele><time>2026-04-12T09:36:10.642Z</time></trkpt><trkpt lat="43.7140397" lon="11.7485272"><ele>511.0</ele><time>2026-04-12T09:36:12.388Z</time></trkpt><trkpt lat="43.7141139" lon="11.7486354"><ele>511.0</ele><time>2026-04-12T09:36:13.404Z</time></trkpt><trkpt lat="43.7141852" lon="11.7487389"><ele>511.0</ele><time>2026-04-12T09:36:14.367Z</time></trkpt><trkpt lat="43.7142549" lon="11.7488347"><ele>509.6</ele><time>2026-04-12T09:36:15.423Z</time></trkpt><trkpt lat="43.714323" lon="11.7489334"><ele>508.20000000000005</ele><time>2026-04-12T09:36:16.413Z</time></trkpt><trkpt lat="43.7143956" lon="11.7490323"><ele>506.79999999999995</ele><time>2026-04-12T09:36:17.41Z</time></trkpt><trkpt lat="43.714469" lon="11.7491351"><ele>505.4</ele><time>2026-04-12T09:36:18.446Z</time></trkpt><trkpt lat="43.7145432" lon="11.7492426"><ele>504.0</ele><time>2026-04-12T09:36:19.402Z</time></trkpt><trkpt lat="43.7146268" lon="11.7493546"><ele>502.0</ele><time>2026-04-12T09:36:20.384Z</time></trkpt><trkpt lat="43.714712" lon="11.7494582"><ele>500.0</ele><time>2026-04-12T09:36:21.42Z</time></trkpt><trkpt lat="43.7147835" lon="11.7495669"><ele>498.0</ele><time>2026-04-12T09:36:22.35Z</time></trkpt><trkpt lat="43.7148509" lon="11.7496613"><ele>496.0</ele><time>2026-04-12T09:36:23.393Z</time></trkpt><trkpt lat="43.714925" lon="11.7497369"><ele>494.0</ele><time>2026-04-12T09:36:24.406Z</time></trkpt><trkpt lat="43.7149891" lon="11.7498006"><ele>494.0</ele><time>2026-04-12T09:36:25.41Z</time></trkpt><trkpt lat="43.7150716" lon="11.7498258"><ele>494.0</ele><time>2026-04-12T09:36:26.43Z</time></trkpt><trkpt lat="43.7151778" lon="11.7498167"><ele>494.0</ele><time>2026-04-12T09:36:27.431Z</time></trkpt><trkpt lat="43.7152661" lon="11.7498247"><ele>494.0</ele><time>2026-04-12T09:36:28.385Z</time></trkpt><trkpt lat="43.715358" lon="11.7498436"><ele>494.0</ele><time>2026-04-12T09:36:29.37Z</time></trkpt><trkpt lat="43.7154367" lon="11.7499133"><ele>493.4</ele><time>2026-04-12T09:36:30.385Z</time></trkpt><trkpt lat="43.7155084" lon="11.7500147"><ele>492.79999999999995</ele><time>2026-04-12T09:36:31.388Z</time></trkpt><trkpt lat="43.7155586" lon="11.7501357"><ele>492.20000000000005</ele><time>2026-04-12T09:36:32.387Z</time></trkpt><trkpt lat="43.7155965" lon="11.7502745"><ele>491.6</ele><time>2026-04-12T09:36:33.39Z</time></trkpt><trkpt lat="43.7156202" lon="11.7504259"><ele>491.0</ele><time>2026-04-12T09:36:34.39Z</time></trkpt><trkpt lat="43.7156401" lon="11.7505764"><ele>489.0</ele><time>2026-04-12T09:36:35.414Z</time></trkpt><trkpt lat="43.7156367" lon="11.7507365"><ele>487.0</ele><time>2026-04-12T09:36:36.416Z</time></trkpt><trkpt lat="43.7156185" lon="11.7508868"><ele>485.0</ele><time>2026-04-12T09:36:37.395Z</time></trkpt><trkpt lat="43.7155732" lon="11.7510392"><ele>483.0</ele><time>2026-04-12T09:36:38.573Z</time></trkpt><trkpt lat="43.7154489" lon="11.7513174"><ele>483.0</ele><time>2026-04-12T09:36:40.604Z</time></trkpt><trkpt lat="43.7153314" lon="11.7515622"><ele>483.0</ele><time>2026-04-12T09:36:42.617Z</time></trkpt><trkpt lat="43.7152605" lon="11.7518451"><ele>483.0</ele><time>2026-04-12T09:36:44.589Z</time></trkpt><trkpt lat="43.7152427" lon="11.7521575"><ele>476.33333333333337</ele><time>2026-04-12T09:36:46.402Z</time></trkpt><trkpt lat="43.715237" lon="11.752319"><ele>469.6666666666667</ele><time>2026-04-12T09:36:47.596Z</time></trkpt><trkpt lat="43.7152297" lon="11.7526462"><ele>463.0</ele><time>2026-04-12T09:36:49.575Z</time></trkpt><trkpt lat="43.7152197" lon="11.7529707"><ele>461.0</ele><time>2026-04-12T09:36:51.411Z</time></trkpt><trkpt lat="43.715214" lon="11.7531403"><ele>459.0</ele><time>2026-04-12T09:36:52.381Z</time></trkpt><trkpt lat="43.7152071" lon="11.7533086"><ele>457.0</ele><time>2026-04-12T09:36:53.618Z</time></trkpt><trkpt lat="43.7151968" lon="11.7536438"><ele>454.5</ele><time>2026-04-12T09:36:55.612Z</time></trkpt><trkpt lat="43.7151779" lon="11.7539611"><ele>452.0</ele><time>2026-04-12T09:36:57.624Z</time></trkpt><trkpt lat="43.715162" lon="11.754268"><ele>450.8</ele><time>2026-04-12T09:36:59.341Z</time></trkpt><trkpt lat="43.715152" lon="11.7544165"><ele>449.6</ele><time>2026-04-12T09:37:00.344Z</time></trkpt><trkpt lat="43.7151432" lon="11.7545555"><ele>448.40000000000003</ele><time>2026-04-12T09:37:01.331Z</time></trkpt><trkpt lat="43.7151372" lon="11.7546954"><ele>447.20000000000005</ele><time>2026-04-12T09:37:02.399Z</time></trkpt><trkpt lat="43.7151353" lon="11.7548298"><ele>446.0</ele><time>2026-04-12T09:37:03.383Z</time></trkpt><trkpt lat="43.7151411" lon="11.7549703"><ele>446.0</ele><time>2026-04-12T09:37:04.42Z</time></trkpt><trkpt lat="43.7151743" lon="11.7551048"><ele>446.0</ele><time>2026-04-12T09:37:05.349Z</time></trkpt><trkpt lat="43.7152304" lon="11.7552234"><ele>446.0</ele><time>2026-04-12T09:37:06.391Z</time></trkpt><trkpt lat="43.7152984" lon="11.7553382"><ele>446.0</ele><time>2026-04-12T09:37:07.384Z</time></trkpt><trkpt lat="43.7153723" lon="11.7554517"><ele>446.0</ele><time>2026-04-12T09:37:08.4Z</time></trkpt><trkpt lat="43.7154484" lon="11.7555635"><ele>445.25</ele><time>2026-04-12T09:37:09.549Z</time></trkpt><trkpt lat="43.7156107" lon="11.7557702"><ele>444.5</ele><time>2026-04-12T09:37:11.376Z</time></trkpt><trkpt lat="43.7156933" lon="11.7558605"><ele>443.75</ele><time>2026-04-12T09:37:12.412Z</time></trkpt><trkpt lat="43.7157819" lon="11.7559468"><ele>443.0</ele><time>2026-04-12T09:37:13.364Z</time></trkpt><trkpt lat="43.7158791" lon="11.7560252"><ele>440.79999999999995</ele><time>2026-04-12T09:37:14.4Z</time></trkpt><trkpt lat="43.7159797" lon="11.7560786"><ele>438.59999999999997</ele><time>2026-04-12T09:37:15.394Z</time></trkpt><trkpt lat="43.7160839" lon="11.7561203"><ele>436.40000000000003</ele><time>2026-04-12T09:37:16.407Z</time></trkpt><trkpt lat="43.7161909" lon="11.7561625"><ele>434.20000000000005</ele><time>2026-04-12T09:37:17.375Z</time></trkpt><trkpt lat="43.7162974" lon="11.756199"><ele>432.0</ele><time>2026-04-12T09:37:18.451Z</time></trkpt><trkpt lat="43.716406" lon="11.7562384"><ele>430.0</ele><time>2026-04-12T09:37:19.417Z</time></trkpt><trkpt lat="43.7165178" lon="11.756262"><ele>428.0</ele><time>2026-04-12T09:37:20.661Z</time></trkpt><trkpt lat="43.7167404" lon="11.7562442"><ele>426.0</ele><time>2026-04-12T09:37:22.441Z</time></trkpt><trkpt lat="43.7168464" lon="11.756193"><ele>424.0</ele><time>2026-04-12T09:37:23.397Z</time></trkpt><trkpt lat="43.7169406" lon="11.7561112"><ele>424.6</ele><time>2026-04-12T09:37:24.391Z</time></trkpt><trkpt lat="43.7170276" lon="11.7560202"><ele>425.2</ele><time>2026-04-12T09:37:25.347Z</time></trkpt><trkpt lat="43.7171117" lon="11.7559318"><ele>425.80000000000007</ele><time>2026-04-12T09:37:26.417Z</time></trkpt><trkpt lat="43.7172034" lon="11.7558549"><ele>426.40000000000003</ele><time>2026-04-12T09:37:27.392Z</time></trkpt><trkpt lat="43.7172994" lon="11.7558018"><ele>427.0</ele><time>2026-04-12T09:37:28.396Z</time></trkpt><trkpt lat="43.7173963" lon="11.7557712"><ele>427.0</ele><time>2026-04-12T09:37:29.403Z</time></trkpt><trkpt lat="43.71751" lon="11.7558059"><ele>427.00000000000006</ele><time>2026-04-12T09:37:30.393Z</time></trkpt><trkpt lat="43.7176093" lon="11.7558475"><ele>427.00000000000006</ele><time>2026-04-12T09:37:31.384Z</time></trkpt><trkpt lat="43.7176941" lon="11.7559182"><ele>427.0</ele><time>2026-04-12T09:37:32.391Z</time></trkpt><trkpt lat="43.7177633" lon="11.7560109"><ele>427.0</ele><time>2026-04-12T09:37:33.394Z</time></trkpt><trkpt lat="43.7178127" lon="11.7561306"><ele>426.40000000000003</ele><time>2026-04-12T09:37:34.384Z</time></trkpt><trkpt lat="43.7178322" lon="11.7562655"><ele>425.80000000000007</ele><time>2026-04-12T09:37:35.365Z</time></trkpt><trkpt lat="43.7178308" lon="11.7564068"><ele>425.2</ele><time>2026-04-12T09:37:36.387Z</time></trkpt><trkpt lat="43.7178308" lon="11.7565484"><ele>424.6</ele><time>2026-04-12T09:37:37.385Z</time></trkpt><trkpt lat="43.7178319" lon="11.7566935"><ele>424.0</ele><time>2026-04-12T09:37:38.612Z</time></trkpt><trkpt lat="43.7178371" lon="11.7569724"><ele>421.75</ele><time>2026-04-12T09:37:40.403Z</time></trkpt><trkpt lat="43.7178456" lon="11.7571186"><ele>419.5</ele><time>2026-04-12T09:37:41.38Z</time></trkpt><trkpt lat="43.7178715" lon="11.7572636"><ele>417.25</ele><time>2026-04-12T09:37:42.621Z</time></trkpt><trkpt lat="43.7179656" lon="11.7575434"><ele>415.0</ele><time>2026-04-12T09:37:44.398Z</time></trkpt><trkpt lat="43.7180373" lon="11.7576661"><ele>412.4</ele><time>2026-04-12T09:37:45.391Z</time></trkpt><trkpt lat="43.7181226" lon="11.7577553"><ele>409.8</ele><time>2026-04-12T09:37:46.391Z</time></trkpt><trkpt lat="43.718218" lon="11.7578197"><ele>407.20000000000005</ele><time>2026-04-12T09:37:47.396Z</time></trkpt><trkpt lat="43.7183216" lon="11.7578701"><ele>404.6</ele><time>2026-04-12T09:37:48.396Z</time></trkpt><trkpt lat="43.7184307" lon="11.7578945"><ele>402.0</ele><time>2026-04-12T09:37:49.377Z</time></trkpt><trkpt lat="43.718542" lon="11.7578949"><ele>401.6</ele><time>2026-04-12T09:37:50.35Z</time></trkpt><trkpt lat="43.7186549" lon="11.7578915"><ele>401.20000000000005</ele><time>2026-04-12T09:37:51.41Z</time></trkpt><trkpt lat="43.7187655" lon="11.7578876"><ele>400.8</ele><time>2026-04-12T09:37:52.408Z</time></trkpt><trkpt lat="43.7188758" lon="11.7578873"><ele>400.4</ele><time>2026-04-12T09:37:53.4Z</time></trkpt><trkpt lat="43.7189828" lon="11.7578863"><ele>400.0</ele><time>2026-04-12T09:37:54.401Z</time></trkpt><trkpt lat="43.7190911" lon="11.7578832"><ele>400.0</ele><time>2026-04-12T09:37:55.374Z</time></trkpt><trkpt lat="43.7192023" lon="11.7578778"><ele>400.0</ele><time>2026-04-12T09:37:56.371Z</time></trkpt><trkpt lat="43.7193124" lon="11.757873"><ele>400.0</ele><time>2026-04-12T09:37:57.39Z</time></trkpt><trkpt lat="43.7194205" lon="11.7578715"><ele>400.0</ele><time>2026-04-12T09:37:58.369Z</time></trkpt><trkpt lat="43.719526" lon="11.7578686"><ele>400.0</ele><time>2026-04-12T09:37:59.394Z</time></trkpt><trkpt lat="43.7196324" lon="11.7578655"><ele>399.0</ele><time>2026-04-12T09:38:00.378Z</time></trkpt><trkpt lat="43.7197376" lon="11.7578646"><ele>398.0</ele><time>2026-04-12T09:38:01.404Z</time></trkpt><trkpt lat="43.7198398" lon="11.7578662"><ele>397.0</ele><time>2026-04-12T09:38:02.391Z</time></trkpt><trkpt lat="43.7199403" lon="11.7578756"><ele>396.0</ele><time>2026-04-12T09:38:03.401Z</time></trkpt><trkpt lat="43.720038" lon="11.7579066"><ele>395.0</ele><time>2026-04-12T09:38:04.379Z</time></trkpt><trkpt lat="43.7201324" lon="11.7579639"><ele>395.0</ele><time>2026-04-12T09:38:05.383Z</time></trkpt><trkpt lat="43.7202157" lon="11.7580434"><ele>395.0</ele><time>2026-04-12T09:38:06.374Z</time></trkpt><trkpt lat="43.7202893" lon="11.7581527"><ele>395.0</ele><time>2026-04-12T09:38:07.386Z</time></trkpt><trkpt lat="43.7203472" lon="11.7582815"><ele>395.0</ele><time>2026-04-12T09:38:08.377Z</time></trkpt><trkpt lat="43.7203811" lon="11.7584369"><ele>395.0</ele><time>2026-04-12T09:38:09.395Z</time></trkpt><trkpt lat="43.72039" lon="11.7585923"><ele>393.8</ele><time>2026-04-12T09:38:10.386Z</time></trkpt><trkpt lat="43.720398" lon="11.7587481"><ele>392.6</ele><time>2026-04-12T09:38:11.378Z</time></trkpt><trkpt lat="43.7204081" lon="11.7588995"><ele>391.4</ele><time>2026-04-12T09:38:12.395Z</time></trkpt><trkpt lat="43.7204201" lon="11.7590417"><ele>390.2</ele><time>2026-04-12T09:38:13.387Z</time></trkpt><trkpt lat="43.7204443" lon="11.7591667"><ele>389.0</ele><time>2026-04-12T09:38:14.378Z</time></trkpt><trkpt lat="43.7204897" lon="11.7592778"><ele>387.6</ele><time>2026-04-12T09:38:15.398Z</time></trkpt><trkpt lat="43.7205523" lon="11.7593744"><ele>386.2</ele><time>2026-04-12T09:38:16.398Z</time></trkpt><trkpt lat="43.7206387" lon="11.7594517"><ele>384.8</ele><time>2026-04-12T09:38:17.379Z</time></trkpt><trkpt lat="43.7207397" lon="11.7595143"><ele>383.40000000000003</ele><time>2026-04-12T09:38:18.39Z</time></trkpt><trkpt lat="43.7208479" lon="11.7595651"><ele>382.0</ele><time>2026-04-12T09:38:19.395Z</time></trkpt><trkpt lat="43.720959" lon="11.759612"><ele>379.0</ele><time>2026-04-12T09:38:20.332Z</time></trkpt><trkpt lat="43.7210722" lon="11.7596525"><ele>376.0</ele><time>2026-04-12T09:38:21.409Z</time></trkpt><trkpt lat="43.7211886" lon="11.7597012"><ele>373.0</ele><time>2026-04-12T09:38:22.391Z</time></trkpt><trkpt lat="43.7213059" lon="11.7597451"><ele>370.0</ele><time>2026-04-12T09:38:23.615Z</time></trkpt><trkpt lat="43.7215382" lon="11.7597791"><ele>370.0</ele><time>2026-04-12T09:38:25.629Z</time></trkpt><trkpt lat="43.7217572" lon="11.7596741"><ele>370.0</ele><time>2026-04-12T09:38:27.582Z</time></trkpt><trkpt lat="43.7219471" lon="11.7594919"><ele>368.75</ele><time>2026-04-12T09:38:29.61Z</time></trkpt><trkpt lat="43.7221437" lon="11.75939"><ele>367.5</ele><time>2026-04-12T09:38:31.403Z</time></trkpt><trkpt lat="43.7222455" lon="11.759411"><ele>366.25</ele><time>2026-04-12T09:38:32.38Z</time></trkpt><trkpt lat="43.7223395" lon="11.7594714"><ele>365.0</ele><time>2026-04-12T09:38:33.412Z</time></trkpt><trkpt lat="43.7224297" lon="11.7595574"><ele>365.0</ele><time>2026-04-12T09:38:34.384Z</time></trkpt><trkpt lat="43.7225102" lon="11.7596708"><ele>365.0</ele><time>2026-04-12T09:38:35.408Z</time></trkpt><trkpt lat="43.7225936" lon="11.7597887"><ele>365.0</ele><time>2026-04-12T09:38:36.37Z</time></trkpt><trkpt lat="43.7226721" lon="11.759909"><ele>365.0</ele><time>2026-04-12T09:38:37.415Z</time></trkpt><trkpt lat="43.7227427" lon="11.7600302"><ele>366.0</ele><time>2026-04-12T09:38:38.406Z</time></trkpt><trkpt lat="43.7228139" lon="11.7601503"><ele>367.0</ele><time>2026-04-12T09:38:39.405Z</time></trkpt><trkpt lat="43.7228859" lon="11.7602676"><ele>368.0</ele><time>2026-04-12T09:38:40.615Z</time></trkpt><trkpt lat="43.7230558" lon="11.7604758"><ele>363.33333333333337</ele><time>2026-04-12T09:38:42.621Z</time></trkpt><trkpt lat="43.7232744" lon="11.7606058"><ele>358.6666666666667</ele><time>2026-04-12T09:38:44.403Z</time></trkpt><trkpt lat="43.7233823" lon="11.7606855"><ele>354.0</ele><time>2026-04-12T09:38:45.408Z</time></trkpt><trkpt lat="43.7234698" lon="11.7607715"><ele>354.0</ele><time>2026-04-12T09:38:46.406Z</time></trkpt><trkpt lat="43.7235309" lon="11.7608705"><ele>354.0</ele><time>2026-04-12T09:38:47.39Z</time></trkpt><trkpt lat="43.7235808" lon="11.7609808"><ele>354.0</ele><time>2026-04-12T09:38:48.553Z</time></trkpt><trkpt lat="43.7236765" lon="11.7611984"><ele>354.0</ele><time>2026-04-12T09:38:50.627Z</time></trkpt><trkpt lat="43.7237807" lon="11.7614152"><ele>353.0</ele><time>2026-04-12T09:38:52.396Z</time></trkpt><trkpt lat="43.7238294" lon="11.7615082"><ele>352.0</ele><time>2026-04-12T09:38:53.402Z</time></trkpt><trkpt lat="43.723869" lon="11.7615947"><ele>351.0</ele><time>2026-04-12T09:38:54.407Z</time></trkpt><trkpt lat="43.7239252" lon="11.7617208"><ele>350.0</ele><time>2026-04-12T09:38:56.375Z</time></trkpt><trkpt lat="43.7240378" lon="11.7618544"><ele>349.0</ele><time>2026-04-12T09:38:59.411Z</time></trkpt><trkpt lat="43.7241002" lon="11.7618885"><ele>349.0</ele><time>2026-04-12T09:39:00.39Z</time></trkpt><trkpt lat="43.7241662" lon="11.7619128"><ele>349.0</ele><time>2026-04-12T09:39:01.39Z</time></trkpt><trkpt lat="43.7242381" lon="11.761935"><ele>349.0</ele><time>2026-04-12T09:39:02.395Z</time></trkpt><trkpt lat="43.7243137" lon="11.7619552"><ele>349.0</ele><time>2026-04-12T09:39:03.602Z</time></trkpt><trkpt lat="43.7244725" lon="11.7619975"><ele>349.0</ele><time>2026-04-12T09:39:05.65Z</time></trkpt><trkpt lat="43.7246449" lon="11.7620376"><ele>348.0</ele><time>2026-04-12T09:39:07.613Z</time></trkpt><trkpt lat="43.724834" lon="11.762071"><ele>347.0</ele><time>2026-04-12T09:39:09.602Z</time></trkpt><trkpt lat="43.7250256" lon="11.7621122"><ele>346.0</ele><time>2026-04-12T09:39:11.339Z</time></trkpt><trkpt lat="43.7251237" lon="11.7621338"><ele>346.0</ele><time>2026-04-12T09:39:12.361Z</time></trkpt><trkpt lat="43.7252215" lon="11.7621589"><ele>346.0</ele><time>2026-04-12T09:39:13.4Z</time></trkpt><trkpt lat="43.7253195" lon="11.7621904"><ele>346.0</ele><time>2026-04-12T09:39:14.583Z</time></trkpt><trkpt lat="43.7254875" lon="11.7622909"><ele>346.0</ele><time>2026-04-12T09:39:16.405Z</time></trkpt><trkpt lat="43.72556" lon="11.7623688"><ele>345.25</ele><time>2026-04-12T09:39:17.414Z</time></trkpt><trkpt lat="43.7256375" lon="11.7624595"><ele>344.5</ele><time>2026-04-12T09:39:18.387Z</time></trkpt><trkpt lat="43.7257174" lon="11.7625581"><ele>343.75</ele><time>2026-04-12T09:39:19.641Z</time></trkpt><trkpt lat="43.7258772" lon="11.7627723"><ele>343.0</ele><time>2026-04-12T09:39:21.407Z</time></trkpt><trkpt lat="43.7259593" lon="11.7628744"><ele>343.25</ele><time>2026-04-12T09:39:22.404Z</time></trkpt><trkpt lat="43.7260455" lon="11.7629866"><ele>343.5</ele><time>2026-04-12T09:39:23.397Z</time></trkpt><trkpt lat="43.726129" lon="11.7631031"><ele>343.75</ele><time>2026-04-12T09:39:24.399Z</time></trkpt><trkpt lat="43.7262046" lon="11.7632287"><ele>344.0</ele><time>2026-04-12T09:39:25.391Z</time></trkpt><trkpt lat="43.726282" lon="11.7633632"><ele>344.0</ele><time>2026-04-12T09:39:26.405Z</time></trkpt><trkpt lat="43.7263657" lon="11.7634968"><ele>344.0</ele><time>2026-04-12T09:39:27.374Z</time></trkpt><trkpt lat="43.7264436" lon="11.7636318"><ele>344.0</ele><time>2026-04-12T09:39:28.392Z</time></trkpt><trkpt lat="43.7265259" lon="11.7637712"><ele>344.0</ele><time>2026-04-12T09:39:29.378Z</time></trkpt><trkpt lat="43.726604" lon="11.7639138"><ele>347.6666666666667</ele><time>2026-04-12T09:39:30.436Z</time></trkpt><trkpt lat="43.7267453" lon="11.7642032"><ele>351.3333333333333</ele><time>2026-04-12T09:39:32.381Z</time></trkpt><trkpt lat="43.7268042" lon="11.7643503"><ele>355.0</ele><time>2026-04-12T09:39:33.391Z</time></trkpt><trkpt lat="43.7268518" lon="11.7645069"><ele>357.75</ele><time>2026-04-12T09:39:34.384Z</time></trkpt><trkpt lat="43.7268913" lon="11.7646732"><ele>360.5</ele><time>2026-04-12T09:39:35.394Z</time></trkpt><trkpt lat="43.7269255" lon="11.7648455"><ele>363.25</ele><time>2026-04-12T09:39:36.383Z</time></trkpt><trkpt lat="43.7269552" lon="11.7650189"><ele>366.0</ele><time>2026-04-12T09:39:37.37Z</time></trkpt><trkpt lat="43.7269775" lon="11.7651983"><ele>365.4</ele><time>2026-04-12T09:39:38.396Z</time></trkpt><trkpt lat="43.7269866" lon="11.7653702"><ele>364.8</ele><time>2026-04-12T09:39:39.403Z</time></trkpt><trkpt lat="43.7269798" lon="11.7655285"><ele>364.2</ele><time>2026-04-12T09:39:40.398Z</time></trkpt><trkpt lat="43.7269597" lon="11.7656686"><ele>363.59999999999997</ele><time>2026-04-12T09:39:41.395Z</time></trkpt><trkpt lat="43.7269238" lon="11.7657893"><ele>363.0</ele><time>2026-04-12T09:39:42.423Z</time></trkpt><trkpt lat="43.7268837" lon="11.7658926"><ele>363.0</ele><time>2026-04-12T09:39:43.411Z</time></trkpt><trkpt lat="43.7268527" lon="11.7659896"><ele>363.0</ele><time>2026-04-12T09:39:44.401Z</time></trkpt><trkpt lat="43.7268192" lon="11.7660837"><ele>363.0</ele><time>2026-04-12T09:39:45.37Z</time></trkpt><trkpt lat="43.7267918" lon="11.7661786"><ele>363.0</ele><time>2026-04-12T09:39:46.391Z</time></trkpt><trkpt lat="43.7267763" lon="11.7662701"><ele>363.0</ele><time>2026-04-12T09:39:47.403Z</time></trkpt><trkpt lat="43.7267786" lon="11.7663754"><ele>363.0</ele><time>2026-04-12T09:39:48.56Z</time></trkpt><trkpt lat="43.7268245" lon="11.7665971"><ele>360.6666666666667</ele><time>2026-04-12T09:39:50.589Z</time></trkpt><trkpt lat="43.7268498" lon="11.7668235"><ele>358.33333333333337</ele><time>2026-04-12T09:39:52.593Z</time></trkpt><trkpt lat="43.7267939" lon="11.7670607"><ele>356.0</ele><time>2026-04-12T09:39:54.583Z</time></trkpt><trkpt lat="43.7267594" lon="11.7672931"><ele>355.0</ele><time>2026-04-12T09:39:56.398Z</time></trkpt><trkpt lat="43.7267756" lon="11.7674024"><ele>354.0</ele><time>2026-04-12T09:39:57.641Z</time></trkpt><trkpt lat="43.7268488" lon="11.7675703"><ele>353.0</ele><time>2026-04-12T09:39:59.617Z</time></trkpt><trkpt lat="43.7269914" lon="11.7676554"><ele>352.0</ele><time>2026-04-12T09:40:01.352Z</time></trkpt><trkpt lat="43.7270682" lon="11.7676969"><ele>348.25</ele><time>2026-04-12T09:40:02.391Z</time></trkpt><trkpt lat="43.7271537" lon="11.7677339"><ele>344.5</ele><time>2026-04-12T09:40:03.418Z</time></trkpt><trkpt lat="43.7272435" lon="11.7677751"><ele>340.75</ele><time>2026-04-12T09:40:04.612Z</time></trkpt><trkpt lat="43.7274181" lon="11.7678339"><ele>337.0</ele><time>2026-04-12T09:40:06.361Z</time></trkpt><trkpt lat="43.727503" lon="11.7678664"><ele>337.0</ele><time>2026-04-12T09:40:07.398Z</time></trkpt><trkpt lat="43.7275881" lon="11.7678985"><ele>337.0</ele><time>2026-04-12T09:40:08.386Z</time></trkpt><trkpt lat="43.7276707" lon="11.7679287"><ele>337.0</ele><time>2026-04-12T09:40:09.395Z</time></trkpt><trkpt lat="43.7277556" lon="11.7679719"><ele>337.0</ele><time>2026-04-12T09:40:10.43Z</time></trkpt><trkpt lat="43.7278396" lon="11.7680133"><ele>337.0</ele><time>2026-04-12T09:40:11.368Z</time></trkpt><trkpt lat="43.7279247" lon="11.7680599"><ele>337.0</ele><time>2026-04-12T09:40:12.401Z</time></trkpt><trkpt lat="43.7280006" lon="11.7681261"><ele>337.8333333333333</ele><time>2026-04-12T09:40:13.389Z</time></trkpt><trkpt lat="43.7280749" lon="11.7681994"><ele>338.66666666666663</ele><time>2026-04-12T09:40:14.407Z</time></trkpt><trkpt lat="43.7281371" lon="11.7682843"><ele>339.5</ele><time>2026-04-12T09:40:15.399Z</time></trkpt><trkpt lat="43.7282012" lon="11.76837"><ele>340.3333333333333</ele><time>2026-04-12T09:40:16.418Z</time></trkpt><trkpt lat="43.7282609" lon="11.7684615"><ele>341.1666666666667</ele><time>2026-04-12T09:40:17.41Z</time></trkpt><trkpt lat="43.7283144" lon="11.7685545"><ele>342.0</ele><time>2026-04-12T09:40:18.392Z</time></trkpt><trkpt lat="43.7283701" lon="11.7686386"><ele>342.40000000000003</ele><time>2026-04-12T09:40:19.417Z</time></trkpt><trkpt lat="43.7284149" lon="11.7687149"><ele>342.8</ele><time>2026-04-12T09:40:20.401Z</time></trkpt><trkpt lat="43.7284711" lon="11.7687882"><ele>343.2</ele><time>2026-04-12T09:40:22.399Z</time></trkpt><trkpt lat="43.7285344" lon="11.768776"><ele>343.6</ele><time>2026-04-12T09:40:28.382Z</time></trkpt><trkpt lat="43.7287455" lon="11.7686359"><ele>344.0</ele><time>2026-04-12T09:40:31.397Z</time></trkpt><trkpt lat="43.7288473" lon="11.7685567"><ele>344.0</ele><time>2026-04-12T09:40:32.387Z</time></trkpt><trkpt lat="43.7289626" lon="11.7684692"><ele>344.0</ele><time>2026-04-12T09:40:33.389Z</time></trkpt><trkpt lat="43.7290785" lon="11.7683957"><ele>344.0</ele><time>2026-04-12T09:40:34.614Z</time></trkpt><trkpt lat="43.7293086" lon="11.7682283"><ele>344.33333333333337</ele><time>2026-04-12T09:40:36.397Z</time></trkpt><trkpt lat="43.729425" lon="11.7681364"><ele>344.6666666666667</ele><time>2026-04-12T09:40:37.392Z</time></trkpt><trkpt lat="43.7295497" lon="11.7680463"><ele>345.0</ele><time>2026-04-12T09:40:38.635Z</time></trkpt><trkpt lat="43.7298145" lon="11.7678664"><ele>345.0</ele><time>2026-04-12T09:40:40.574Z</time></trkpt><trkpt lat="43.7300769" lon="11.767689"><ele>345.0</ele><time>2026-04-12T09:40:42.382Z</time></trkpt><trkpt lat="43.7302139" lon="11.767614"><ele>345.0</ele><time>2026-04-12T09:40:43.372Z</time></trkpt><trkpt lat="43.7303455" lon="11.7675259"><ele>345.0</ele><time>2026-04-12T09:40:44.406Z</time></trkpt><trkpt lat="43.7304777" lon="11.7674374"><ele>345.0</ele><time>2026-04-12T09:40:45.401Z</time></trkpt><trkpt lat="43.7306101" lon="11.7673381"><ele>345.0</ele><time>2026-04-12T09:40:46.305Z</time></trkpt><trkpt lat="43.7307363" lon="11.7672363"><ele>345.0</ele><time>2026-04-12T09:40:47.576Z</time></trkpt><trkpt lat="43.7309862" lon="11.7670504"><ele>345.25</ele><time>2026-04-12T09:40:49.365Z</time></trkpt><trkpt lat="43.7311066" lon="11.7669558"><ele>345.5</ele><time>2026-04-12T09:40:50.345Z</time></trkpt><trkpt lat="43.7312262" lon="11.766868"><ele>345.75</ele><time>2026-04-12T09:40:51.408Z</time></trkpt><trkpt lat="43.7313448" lon="11.7667796"><ele>346.0</ele><time>2026-04-12T09:40:52.404Z</time></trkpt><trkpt lat="43.7314609" lon="11.7666951"><ele>346.0</ele><time>2026-04-12T09:40:53.4Z</time></trkpt><trkpt lat="43.7315844" lon="11.7666073"><ele>346.0</ele><time>2026-04-12T09:40:54.612Z</time></trkpt><trkpt lat="43.7318039" lon="11.7664262"><ele>346.0</ele><time>2026-04-12T09:40:56.31Z</time></trkpt><trkpt lat="43.7318905" lon="11.7663413"><ele>345.8</ele><time>2026-04-12T09:40:57.342Z</time></trkpt><trkpt lat="43.7319582" lon="11.766228"><ele>345.6</ele><time>2026-04-12T09:40:58.333Z</time></trkpt><trkpt lat="43.7320023" lon="11.7660915"><ele>345.4</ele><time>2026-04-12T09:40:59.395Z</time></trkpt><trkpt lat="43.7320327" lon="11.7659522"><ele>345.2</ele><time>2026-04-12T09:41:00.391Z</time></trkpt><trkpt lat="43.7320702" lon="11.7657929"><ele>345.0</ele><time>2026-04-12T09:41:01.396Z</time></trkpt><trkpt lat="43.7321062" lon="11.7656244"><ele>345.0</ele><time>2026-04-12T09:41:02.645Z</time></trkpt><trkpt lat="43.7321896" lon="11.7652807"><ele>345.0</ele><time>2026-04-12T09:41:04.381Z</time></trkpt><trkpt lat="43.7322342" lon="11.7651073"><ele>345.0</ele><time>2026-04-12T09:41:05.393Z</time></trkpt><trkpt lat="43.7322801" lon="11.7649339"><ele>345.0</ele><time>2026-04-12T09:41:06.389Z</time></trkpt><trkpt lat="43.7323229" lon="11.7647579"><ele>345.0</ele><time>2026-04-12T09:41:07.394Z</time></trkpt><trkpt lat="43.7323638" lon="11.7645693"><ele>345.0</ele><time>2026-04-12T09:41:08.345Z</time></trkpt><trkpt lat="43.7324078" lon="11.7643853"><ele>345.0</ele><time>2026-04-12T09:41:09.554Z</time></trkpt><trkpt lat="43.7324988" lon="11.7640357"><ele>345.0</ele><time>2026-04-12T09:41:11.409Z</time></trkpt><trkpt lat="43.7325445" lon="11.7638558"><ele>345.0</ele><time>2026-04-12T09:41:12.322Z</time></trkpt><trkpt lat="43.7325894" lon="11.7636801"><ele>345.0</ele><time>2026-04-12T09:41:13.595Z</time></trkpt><trkpt lat="43.7326283" lon="11.7635117"><ele>345.0</ele><time>2026-04-12T09:41:14.388Z</time></trkpt><trkpt lat="43.7326689" lon="11.7633534"><ele>344.75</ele><time>2026-04-12T09:41:15.332Z</time></trkpt><trkpt lat="43.732715" lon="11.763199"><ele>344.5</ele><time>2026-04-12T09:41:16.385Z</time></trkpt><trkpt lat="43.7327573" lon="11.7630308"><ele>344.25</ele><time>2026-04-12T09:41:17.374Z</time></trkpt><trkpt lat="43.7327988" lon="11.7628633"><ele>344.0</ele><time>2026-04-12T09:41:18.409Z</time></trkpt><trkpt lat="43.7328455" lon="11.7626809"><ele>345.6666666666667</ele><time>2026-04-12T09:41:19.594Z</time></trkpt><trkpt lat="43.7329474" lon="11.7623126"><ele>347.3333333333333</ele><time>2026-04-12T09:41:21.386Z</time></trkpt><trkpt lat="43.7329971" lon="11.7621339"><ele>349.0</ele><time>2026-04-12T09:41:22.375Z</time></trkpt><trkpt lat="43.7330465" lon="11.7619572"><ele>348.66666666666663</ele><time>2026-04-12T09:41:23.376Z</time></trkpt><trkpt lat="43.7330965" lon="11.7617827"><ele>348.3333333333333</ele><time>2026-04-12T09:41:24.601Z</time></trkpt><trkpt lat="43.7332187" lon="11.7614425"><ele>348.0</ele><time>2026-04-12T09:41:26.399Z</time></trkpt><trkpt lat="43.73329" lon="11.7612772"><ele>348.0</ele><time>2026-04-12T09:41:27.335Z</time></trkpt><trkpt lat="43.7333629" lon="11.7611023"><ele>348.0</ele><time>2026-04-12T09:41:28.4Z</time></trkpt><trkpt lat="43.7334506" lon="11.7609403"><ele>348.0</ele><time>2026-04-12T09:41:29.405Z</time></trkpt><trkpt lat="43.7335381" lon="11.7607893"><ele>348.0</ele><time>2026-04-12T09:41:30.608Z</time></trkpt><trkpt lat="43.7337168" lon="11.760503"><ele>348.6666666666667</ele><time>2026-04-12T09:41:32.447Z</time></trkpt><trkpt lat="43.733882" lon="11.7601896"><ele>349.33333333333337</ele><time>2026-04-12T09:41:34.394Z</time></trkpt><trkpt lat="43.7339541" lon="11.7600231"><ele>350.0</ele><time>2026-04-12T09:41:35.619Z</time></trkpt><trkpt lat="43.7340668" lon="11.7596532"><ele>350.0</ele><time>2026-04-12T09:41:37.397Z</time></trkpt><trkpt lat="43.7341192" lon="11.7594621"><ele>350.0</ele><time>2026-04-12T09:41:38.375Z</time></trkpt><trkpt lat="43.7341749" lon="11.7592787"><ele>350.0</ele><time>2026-04-12T09:41:39.402Z</time></trkpt><trkpt lat="43.7342289" lon="11.7590995"><ele>350.0</ele><time>2026-04-12T09:41:40.404Z</time></trkpt><trkpt lat="43.7342801" lon="11.7589129"><ele>350.0</ele><time>2026-04-12T09:41:41.403Z</time></trkpt><trkpt lat="43.7343345" lon="11.758733"><ele>350.0</ele><time>2026-04-12T09:41:42.609Z</time></trkpt><trkpt lat="43.7344555" lon="11.7583896"><ele>350.0</ele><time>2026-04-12T09:41:44.319Z</time></trkpt><trkpt lat="43.7345302" lon="11.7582252"><ele>351.6666666666667</ele><time>2026-04-12T09:41:45.338Z</time></trkpt><trkpt lat="43.7346152" lon="11.7580613"><ele>353.3333333333333</ele><time>2026-04-12T09:41:46.339Z</time></trkpt><trkpt lat="43.7347151" lon="11.7578945"><ele>355.0</ele><time>2026-04-12T09:41:47.364Z</time></trkpt><trkpt lat="43.7348268" lon="11.7577282"><ele>356.0</ele><time>2026-04-12T09:41:48.398Z</time></trkpt><trkpt lat="43.7349347" lon="11.7575633"><ele>357.0</ele><time>2026-04-12T09:41:49.415Z</time></trkpt><trkpt lat="43.7350269" lon="11.7573985"><ele>358.0</ele><time>2026-04-12T09:41:50.412Z</time></trkpt><trkpt lat="43.7350985" lon="11.7572169"><ele>358.0</ele><time>2026-04-12T09:41:51.39Z</time></trkpt><trkpt lat="43.735166" lon="11.7570337"><ele>358.0</ele><time>2026-04-12T09:41:52.35Z</time></trkpt><trkpt lat="43.735236" lon="11.7568551"><ele>358.0</ele><time>2026-04-12T09:41:53.352Z</time></trkpt><trkpt lat="43.7353149" lon="11.7566875"><ele>358.0</ele><time>2026-04-12T09:41:54.343Z</time></trkpt><trkpt lat="43.7354088" lon="11.7565203"><ele>357.75</ele><time>2026-04-12T09:41:55.404Z</time></trkpt><trkpt lat="43.735514" lon="11.7563666"><ele>357.5</ele><time>2026-04-12T09:41:56.406Z</time></trkpt><trkpt lat="43.7356195" lon="11.7562243"><ele>357.25</ele><time>2026-04-12T09:41:57.368Z</time></trkpt><trkpt lat="43.735718" lon="11.7560795"><ele>357.0</ele><time>2026-04-12T09:41:58.384Z</time></trkpt><trkpt lat="43.7358127" lon="11.7559271"><ele>357.0</ele><time>2026-04-12T09:41:59.388Z</time></trkpt><trkpt lat="43.7359003" lon="11.7557679"><ele>357.0</ele><time>2026-04-12T09:42:00.403Z</time></trkpt><trkpt lat="43.7359862" lon="11.7555958"><ele>357.0</ele><time>2026-04-12T09:42:01.403Z</time></trkpt><trkpt lat="43.736064" lon="11.7554246"><ele>357.0</ele><time>2026-04-12T09:42:02.39Z</time></trkpt><trkpt lat="43.736142" lon="11.755251"><ele>357.0</ele><time>2026-04-12T09:42:03.405Z</time></trkpt><trkpt lat="43.7362282" lon="11.7550842"><ele>357.0</ele><time>2026-04-12T09:42:04.609Z</time></trkpt><trkpt lat="43.7364245" lon="11.7547704"><ele>357.0</ele><time>2026-04-12T09:42:06.411Z</time></trkpt><trkpt lat="43.736533" lon="11.7546242"><ele>357.0</ele><time>2026-04-12T09:42:07.414Z</time></trkpt><trkpt lat="43.7366436" lon="11.7544872"><ele>357.0</ele><time>2026-04-12T09:42:08.612Z</time></trkpt><trkpt lat="43.7368641" lon="11.754214"><ele>357.0</ele><time>2026-04-12T09:42:10.374Z</time></trkpt><trkpt lat="43.736972" lon="11.7540795"><ele>357.6666666666667</ele><time>2026-04-12T09:42:11.398Z</time></trkpt><trkpt lat="43.7370752" lon="11.7539453"><ele>358.33333333333337</ele><time>2026-04-12T09:42:12.591Z</time></trkpt><trkpt lat="43.7372597" lon="11.7536926"><ele>359.0</ele><time>2026-04-12T09:42:14.598Z</time></trkpt><trkpt lat="43.7373997" lon="11.7534837"><ele>358.75</ele><time>2026-04-12T09:42:16.408Z</time></trkpt><trkpt lat="43.737464" lon="11.7534062"><ele>358.5</ele><time>2026-04-12T09:42:17.414Z</time></trkpt><trkpt lat="43.7375314" lon="11.7533216"><ele>358.25</ele><time>2026-04-12T09:42:18.503Z</time></trkpt><trkpt lat="43.7376953" lon="11.7531724"><ele>358.0</ele><time>2026-04-12T09:42:20.637Z</time></trkpt><trkpt lat="43.7378817" lon="11.7531164"><ele>358.0</ele><time>2026-04-12T09:42:22.389Z</time></trkpt><trkpt lat="43.7379796" lon="11.7531093"><ele>358.0</ele><time>2026-04-12T09:42:23.601Z</time></trkpt><trkpt lat="43.7381419" lon="11.7530028"><ele>358.0</ele><time>2026-04-12T09:42:25.378Z</time></trkpt><trkpt lat="43.7381928" lon="11.7528911"><ele>358.0</ele><time>2026-04-12T09:42:26.366Z</time></trkpt><trkpt lat="43.7382117" lon="11.7527864"><ele>357.8333333333333</ele><time>2026-04-12T09:42:27.346Z</time></trkpt><trkpt lat="43.7382018" lon="11.7526857"><ele>357.66666666666663</ele><time>2026-04-12T09:42:28.399Z</time></trkpt><trkpt lat="43.7381501" lon="11.752591"><ele>357.5</ele><time>2026-04-12T09:42:29.396Z</time></trkpt><trkpt lat="43.7380642" lon="11.7525235"><ele>357.3333333333333</ele><time>2026-04-12T09:42:30.343Z</time></trkpt><trkpt lat="43.7379721" lon="11.7524895"><ele>357.1666666666667</ele><time>2026-04-12T09:42:31.395Z</time></trkpt><trkpt lat="43.7378837" lon="11.7524472"><ele>357.0</ele><time>2026-04-12T09:42:32.386Z</time></trkpt><trkpt lat="43.7378066" lon="11.7523623"><ele>357.0</ele><time>2026-04-12T09:42:33.392Z</time></trkpt><trkpt lat="43.7377447" lon="11.7522335"><ele>357.0</ele><time>2026-04-12T09:42:34.375Z</time></trkpt><trkpt lat="43.7377051" lon="11.7520818"><ele>357.0</ele><time>2026-04-12T09:42:35.401Z</time></trkpt><trkpt lat="43.7376927" lon="11.7519244"><ele>357.0</ele><time>2026-04-12T09:42:36.397Z</time></trkpt><trkpt lat="43.7377057" lon="11.7517504"><ele>357.25</ele><time>2026-04-12T09:42:37.388Z</time></trkpt><trkpt lat="43.7377334" lon="11.7515785"><ele>357.5</ele><time>2026-04-12T09:42:38.395Z</time></trkpt><trkpt lat="43.7377748" lon="11.7514013"><ele>357.75</ele><time>2026-04-12T09:42:39.383Z</time></trkpt><trkpt lat="43.7378151" lon="11.7512162"><ele>358.0</ele><time>2026-04-12T09:42:40.597Z</time></trkpt><trkpt lat="43.7378819" lon="11.75084"><ele>357.66666666666663</ele><time>2026-04-12T09:42:42.633Z</time></trkpt><trkpt lat="43.7379583" lon="11.7504527"><ele>357.3333333333333</ele><time>2026-04-12T09:42:44.395Z</time></trkpt><trkpt lat="43.7379958" lon="11.7502581"><ele>357.0</ele><time>2026-04-12T09:42:45.403Z</time></trkpt><trkpt lat="43.7380317" lon="11.7500611"><ele>357.0</ele><time>2026-04-12T09:42:46.409Z</time></trkpt><trkpt lat="43.7380751" lon="11.7498694"><ele>357.0</ele><time>2026-04-12T09:42:47.4Z</time></trkpt><trkpt lat="43.7381148" lon="11.749674"><ele>357.0</ele><time>2026-04-12T09:42:48.394Z</time></trkpt><trkpt lat="43.7381623" lon="11.7494845"><ele>357.0</ele><time>2026-04-12T09:42:49.611Z</time></trkpt><trkpt lat="43.7382686" lon="11.7491191"><ele>356.0</ele><time>2026-04-12T09:42:51.402Z</time></trkpt><trkpt lat="43.7383259" lon="11.7489363"><ele>355.0</ele><time>2026-04-12T09:42:52.383Z</time></trkpt><trkpt lat="43.7383836" lon="11.7487589"><ele>354.0</ele><time>2026-04-12T09:42:53.592Z</time></trkpt><trkpt lat="43.7384909" lon="11.7483877"><ele>354.0</ele><time>2026-04-12T09:42:55.588Z</time></trkpt><trkpt lat="43.7386071" lon="11.7480156"><ele>354.0</ele><time>2026-04-12T09:42:57.615Z</time></trkpt><trkpt lat="43.7387174" lon="11.7476473"><ele>354.0</ele><time>2026-04-12T09:42:59.586Z</time></trkpt><trkpt lat="43.7388273" lon="11.7472749"><ele>354.0</ele><time>2026-04-12T09:43:01.395Z</time></trkpt><trkpt lat="43.7388834" lon="11.7470909"><ele>354.0</ele><time>2026-04-12T09:43:02.611Z</time></trkpt><trkpt lat="43.7389979" lon="11.7467061"><ele>354.0</ele><time>2026-04-12T09:43:04.559Z</time></trkpt><trkpt lat="43.7391101" lon="11.7463213"><ele>354.0</ele><time>2026-04-12T09:43:06.406Z</time></trkpt><trkpt lat="43.7391684" lon="11.7461336"><ele>354.0</ele><time>2026-04-12T09:43:07.394Z</time></trkpt><trkpt lat="43.7392222" lon="11.7459468"><ele>354.0</ele><time>2026-04-12T09:43:08.606Z</time></trkpt><trkpt lat="43.7393251" lon="11.7455712"><ele>354.0</ele><time>2026-04-12T09:43:10.617Z</time></trkpt><trkpt lat="43.7394353" lon="11.7451976"><ele>354.3333333333333</ele><time>2026-04-12T09:43:12.366Z</time></trkpt><trkpt lat="43.7394898" lon="11.745017"><ele>354.66666666666663</ele><time>2026-04-12T09:43:13.607Z</time></trkpt><trkpt lat="43.7395992" lon="11.7446433"><ele>355.0</ele><time>2026-04-12T09:43:15.412Z</time></trkpt><trkpt lat="43.7396557" lon="11.7444608"><ele>354.75</ele><time>2026-04-12T09:43:16.392Z</time></trkpt><trkpt lat="43.7397126" lon="11.7442771"><ele>354.5</ele><time>2026-04-12T09:43:17.393Z</time></trkpt><trkpt lat="43.7397706" lon="11.7440906"><ele>354.25</ele><time>2026-04-12T09:43:18.347Z</time></trkpt><trkpt lat="43.7398265" lon="11.7439001"><ele>354.0</ele><time>2026-04-12T09:43:19.387Z</time></trkpt><trkpt lat="43.7398819" lon="11.7437145"><ele>353.75</ele><time>2026-04-12T09:43:20.397Z</time></trkpt><trkpt lat="43.7399371" lon="11.7435314"><ele>353.5</ele><time>2026-04-12T09:43:21.384Z</time></trkpt><trkpt lat="43.7399894" lon="11.7433545"><ele>353.25</ele><time>2026-04-12T09:43:22.426Z</time></trkpt><trkpt lat="43.7400418" lon="11.7431711"><ele>353.0</ele><time>2026-04-12T09:43:23.393Z</time></trkpt><trkpt lat="43.7400966" lon="11.742984"><ele>353.0</ele><time>2026-04-12T09:43:24.377Z</time></trkpt><trkpt lat="43.7401515" lon="11.7427942"><ele>353.0</ele><time>2026-04-12T09:43:25.408Z</time></trkpt><trkpt lat="43.7402106" lon="11.742604"><ele>353.0</ele><time>2026-04-12T09:43:26.404Z</time></trkpt><trkpt lat="43.7402682" lon="11.7424082"><ele>353.0</ele><time>2026-04-12T09:43:27.391Z</time></trkpt><trkpt lat="43.7403202" lon="11.7422195"><ele>353.0</ele><time>2026-04-12T09:43:28.396Z</time></trkpt><trkpt lat="43.7403714" lon="11.7420402"><ele>353.0</ele><time>2026-04-12T09:43:29.381Z</time></trkpt><trkpt lat="43.7404237" lon="11.7418656"><ele>353.0</ele><time>2026-04-12T09:43:30.384Z</time></trkpt><trkpt lat="43.7404742" lon="11.7416911"><ele>352.75</ele><time>2026-04-12T09:43:31.401Z</time></trkpt><trkpt lat="43.7405262" lon="11.7415214"><ele>352.5</ele><time>2026-04-12T09:43:32.471Z</time></trkpt><trkpt lat="43.7405755" lon="11.7413515"><ele>352.25</ele><time>2026-04-12T09:43:33.416Z</time></trkpt><trkpt lat="43.7406185" lon="11.7411882"><ele>352.0</ele><time>2026-04-12T09:43:34.379Z</time></trkpt><trkpt lat="43.7406524" lon="11.741031"><ele>351.75</ele><time>2026-04-12T09:43:35.408Z</time></trkpt><trkpt lat="43.7406651" lon="11.7408667"><ele>351.5</ele><time>2026-04-12T09:43:36.361Z</time></trkpt><trkpt lat="43.7406572" lon="11.7407135"><ele>351.25</ele><time>2026-04-12T09:43:37.382Z</time></trkpt><trkpt lat="43.7406338" lon="11.7405521"><ele>351.0</ele><time>2026-04-12T09:43:38.389Z</time></trkpt><trkpt lat="43.7406043" lon="11.7403991"><ele>351.0</ele><time>2026-04-12T09:43:39.423Z</time></trkpt><trkpt lat="43.7405814" lon="11.7402512"><ele>351.0</ele><time>2026-04-12T09:43:40.399Z</time></trkpt><trkpt lat="43.7405649" lon="11.740109"><ele>351.0</ele><time>2026-04-12T09:43:41.395Z</time></trkpt><trkpt lat="43.7405612" lon="11.7399742"><ele>351.0</ele><time>2026-04-12T09:43:42.423Z</time></trkpt><trkpt lat="43.7405885" lon="11.7398311"><ele>351.0</ele><time>2026-04-12T09:43:43.597Z</time></trkpt><trkpt lat="43.740717" lon="11.7395709"><ele>351.0</ele><time>2026-04-12T09:43:45.586Z</time></trkpt><trkpt lat="43.7408113" lon="11.7394584"><ele>351.0</ele><time>2026-04-12T09:43:46.388Z</time></trkpt><trkpt lat="43.7409172" lon="11.7393538"><ele>351.0</ele><time>2026-04-12T09:43:47.656Z</time></trkpt><trkpt lat="43.741119" lon="11.7391285"><ele>352.0</ele><time>2026-04-12T09:43:49.373Z</time></trkpt><trkpt lat="43.7412204" lon="11.7390115"><ele>353.0</ele><time>2026-04-12T09:43:50.639Z</time></trkpt><trkpt lat="43.7414398" lon="11.7387801"><ele>354.0</ele><time>2026-04-12T09:43:52.632Z</time></trkpt><trkpt lat="43.7416641" lon="11.7385544"><ele>353.6666666666667</ele><time>2026-04-12T09:43:54.385Z</time></trkpt><trkpt lat="43.7417717" lon="11.7384429"><ele>353.33333333333337</ele><time>2026-04-12T09:43:55.644Z</time></trkpt><trkpt lat="43.7419873" lon="11.738219"><ele>353.0</ele><time>2026-04-12T09:43:57.401Z</time></trkpt><trkpt lat="43.7420853" lon="11.7381159"><ele>353.5</ele><time>2026-04-12T09:43:58.323Z</time></trkpt><trkpt lat="43.7421818" lon="11.7380195"><ele>354.0</ele><time>2026-04-12T09:43:59.344Z</time></trkpt><trkpt lat="43.7422826" lon="11.7379183"><ele>354.5</ele><time>2026-04-12T09:44:00.337Z</time></trkpt><trkpt lat="43.7423834" lon="11.7378199"><ele>355.0</ele><time>2026-04-12T09:44:01.347Z</time></trkpt><trkpt lat="43.7424797" lon="11.7377205"><ele>354.75</ele><time>2026-04-12T09:44:02.343Z</time></trkpt><trkpt lat="43.7425818" lon="11.737615"><ele>354.5</ele><time>2026-04-12T09:44:03.351Z</time></trkpt><trkpt lat="43.7426789" lon="11.7375115"><ele>354.25</ele><time>2026-04-12T09:44:04.338Z</time></trkpt><trkpt lat="43.7427735" lon="11.7374117"><ele>354.0</ele><time>2026-04-12T09:44:05.334Z</time></trkpt><trkpt lat="43.7428644" lon="11.7373076"><ele>354.0</ele><time>2026-04-12T09:44:06.356Z</time></trkpt><trkpt lat="43.7429496" lon="11.737191"><ele>354.0</ele><time>2026-04-12T09:44:07.363Z</time></trkpt><trkpt lat="43.7430247" lon="11.7370591"><ele>354.0</ele><time>2026-04-12T09:44:08.342Z</time></trkpt><trkpt lat="43.7430848" lon="11.7369032"><ele>354.0</ele><time>2026-04-12T09:44:09.378Z</time></trkpt><trkpt lat="43.7431384" lon="11.7367448"><ele>354.75</ele><time>2026-04-12T09:44:10.42Z</time></trkpt><trkpt lat="43.743179" lon="11.7365691"><ele>355.5</ele><time>2026-04-12T09:44:11.401Z</time></trkpt><trkpt lat="43.7431916" lon="11.736379"><ele>356.25</ele><time>2026-04-12T09:44:12.345Z</time></trkpt><trkpt lat="43.7431796" lon="11.7361834"><ele>357.0</ele><time>2026-04-12T09:44:13.397Z</time></trkpt><trkpt lat="43.7431726" lon="11.735991"><ele>358.5</ele><time>2026-04-12T09:44:14.351Z</time></trkpt><trkpt lat="43.7431741" lon="11.7358186"><ele>360.0</ele><time>2026-04-12T09:44:15.364Z</time></trkpt><trkpt lat="43.7431856" lon="11.7356491"><ele>361.5</ele><time>2026-04-12T09:44:16.404Z</time></trkpt><trkpt lat="43.7432186" lon="11.7354953"><ele>363.0</ele><time>2026-04-12T09:44:17.405Z</time></trkpt><trkpt lat="43.7432708" lon="11.7353676"><ele>363.0</ele><time>2026-04-12T09:44:18.403Z</time></trkpt><trkpt lat="43.7433246" lon="11.735253"><ele>363.0</ele><time>2026-04-12T09:44:19.403Z</time></trkpt><trkpt lat="43.7433578" lon="11.7351498"><ele>363.0</ele><time>2026-04-12T09:44:20.408Z</time></trkpt><trkpt lat="43.7433685" lon="11.7350306"><ele>363.0</ele><time>2026-04-12T09:44:21.41Z</time></trkpt><trkpt lat="43.7433487" lon="11.734913"><ele>363.0</ele><time>2026-04-12T09:44:22.592Z</time></trkpt><trkpt lat="43.7432358" lon="11.7346932"><ele>363.3333333333333</ele><time>2026-04-12T09:44:24.409Z</time></trkpt><trkpt lat="43.7431659" lon="11.7345738"><ele>363.66666666666663</ele><time>2026-04-12T09:44:25.625Z</time></trkpt><trkpt lat="43.7430696" lon="11.734285"><ele>364.0</ele><time>2026-04-12T09:44:27.618Z</time></trkpt><trkpt lat="43.7430099" lon="11.733948"><ele>364.0</ele><time>2026-04-12T09:44:29.623Z</time></trkpt><trkpt lat="43.7429611" lon="11.733622"><ele>364.0</ele><time>2026-04-12T09:44:31.409Z</time></trkpt><trkpt lat="43.7429528" lon="11.7334621"><ele>364.0</ele><time>2026-04-12T09:44:32.581Z</time></trkpt><trkpt lat="43.7429612" lon="11.7332993"><ele>364.0</ele><time>2026-04-12T09:44:33.416Z</time></trkpt><trkpt lat="43.7429864" lon="11.7331401"><ele>364.0</ele><time>2026-04-12T09:44:34.606Z</time></trkpt><trkpt lat="43.7430794" lon="11.7328268"><ele>364.0</ele><time>2026-04-12T09:44:36.397Z</time></trkpt><trkpt lat="43.7431288" lon="11.7326647"><ele>364.0</ele><time>2026-04-12T09:44:37.41Z</time></trkpt><trkpt lat="43.7431771" lon="11.7324934"><ele>364.0</ele><time>2026-04-12T09:44:38.623Z</time></trkpt><trkpt lat="43.7432788" lon="11.7321476"><ele>364.0</ele><time>2026-04-12T09:44:40.644Z</time></trkpt><trkpt lat="43.7433861" lon="11.7318057"><ele>363.3333333333333</ele><time>2026-04-12T09:44:42.639Z</time></trkpt><trkpt lat="43.7434902" lon="11.7314554"><ele>362.6666666666667</ele><time>2026-04-12T09:44:44.39Z</time></trkpt><trkpt lat="43.7435397" lon="11.7312776"><ele>362.0</ele><time>2026-04-12T09:44:45.586Z</time></trkpt><trkpt lat="43.7436216" lon="11.7309124"><ele>363.25</ele><time>2026-04-12T09:44:47.399Z</time></trkpt><trkpt lat="43.7436531" lon="11.7307266"><ele>364.5</ele><time>2026-04-12T09:44:48.411Z</time></trkpt><trkpt lat="43.7436857" lon="11.7305483"><ele>365.75</ele><time>2026-04-12T09:44:49.353Z</time></trkpt><trkpt lat="43.7437142" lon="11.7303732"><ele>367.0</ele><time>2026-04-12T09:44:50.379Z</time></trkpt><trkpt lat="43.7437434" lon="11.7301981"><ele>367.0</ele><time>2026-04-12T09:44:51.401Z</time></trkpt><trkpt lat="43.7437723" lon="11.7300187"><ele>367.0</ele><time>2026-04-12T09:44:52.591Z</time></trkpt><trkpt lat="43.7438358" lon="11.7296644"><ele>367.0</ele><time>2026-04-12T09:44:54.593Z</time></trkpt><trkpt lat="43.7439005" lon="11.7293099"><ele>366.5</ele><time>2026-04-12T09:44:56.393Z</time></trkpt><trkpt lat="43.7439316" lon="11.729141"><ele>366.0</ele><time>2026-04-12T09:44:57.415Z</time></trkpt><trkpt lat="43.7439606" lon="11.7289783"><ele>365.5</ele><time>2026-04-12T09:44:58.407Z</time></trkpt><trkpt lat="43.7439895" lon="11.7288211"><ele>365.0</ele><time>2026-04-12T09:44:59.404Z</time></trkpt><trkpt lat="43.7440154" lon="11.7286665"><ele>363.5</ele><time>2026-04-12T09:45:00.6Z</time></trkpt><trkpt lat="43.7440775" lon="11.7283773"><ele>362.0</ele><time>2026-04-12T09:45:02.636Z</time></trkpt><trkpt lat="43.7441579" lon="11.7280748"><ele>362.0</ele><time>2026-04-12T09:45:04.581Z</time></trkpt><trkpt lat="43.7442474" lon="11.7277567"><ele>362.0</ele><time>2026-04-12T09:45:06.404Z</time></trkpt><trkpt lat="43.7442965" lon="11.7275873"><ele>362.0</ele><time>2026-04-12T09:45:07.386Z</time></trkpt><trkpt lat="43.744344" lon="11.7274165"><ele>364.5</ele><time>2026-04-12T09:45:08.597Z</time></trkpt><trkpt lat="43.7444402" lon="11.727068"><ele>367.0</ele><time>2026-04-12T09:45:10.602Z</time></trkpt><trkpt lat="43.7445232" lon="11.7267271"><ele>367.0</ele><time>2026-04-12T09:45:12.418Z</time></trkpt><trkpt lat="43.7445558" lon="11.7265662"><ele>367.0</ele><time>2026-04-12T09:45:13.423Z</time></trkpt><trkpt lat="43.744587" lon="11.7264116"><ele>367.0</ele><time>2026-04-12T09:45:14.41Z</time></trkpt><trkpt lat="43.7446213" lon="11.7262462"><ele>367.0</ele><time>2026-04-12T09:45:15.416Z</time></trkpt><trkpt lat="43.7446514" lon="11.7260753"><ele>365.3333333333333</ele><time>2026-04-12T09:45:16.4Z</time></trkpt><trkpt lat="43.7446759" lon="11.725899"><ele>363.6666666666667</ele><time>2026-04-12T09:45:17.355Z</time></trkpt><trkpt lat="43.744699" lon="11.7257191"><ele>362.0</ele><time>2026-04-12T09:45:18.485Z</time></trkpt><trkpt lat="43.7447578" lon="11.7253423"><ele>362.0</ele><time>2026-04-12T09:45:20.584Z</time></trkpt><trkpt lat="43.7448127" lon="11.7249561"><ele>362.0</ele><time>2026-04-12T09:45:22.598Z</time></trkpt><trkpt lat="43.7448701" lon="11.7245688"><ele>361.33333333333337</ele><time>2026-04-12T09:45:24.624Z</time></trkpt><trkpt lat="43.744916" lon="11.7241698"><ele>360.6666666666667</ele><time>2026-04-12T09:45:26.416Z</time></trkpt><trkpt lat="43.7449333" lon="11.7239695"><ele>360.0</ele><time>2026-04-12T09:45:27.394Z</time></trkpt><trkpt lat="43.744948" lon="11.723771"><ele>360.0</ele><time>2026-04-12T09:45:28.356Z</time></trkpt><trkpt lat="43.7449606" lon="11.7235738"><ele>360.0</ele><time>2026-04-12T09:45:29.336Z</time></trkpt><trkpt lat="43.7449744" lon="11.7233878"><ele>360.0</ele><time>2026-04-12T09:45:30.4Z</time></trkpt><trkpt lat="43.7449958" lon="11.7232127"><ele>360.0</ele><time>2026-04-12T09:45:31.411Z</time></trkpt><trkpt lat="43.7450221" lon="11.7230373"><ele>360.3333333333333</ele><time>2026-04-12T09:45:32.428Z</time></trkpt><trkpt lat="43.7450716" lon="11.7228726"><ele>360.66666666666663</ele><time>2026-04-12T09:45:33.648Z</time></trkpt><trkpt lat="43.7452544" lon="11.7225916"><ele>361.0</ele><time>2026-04-12T09:45:35.614Z</time></trkpt><trkpt lat="43.7453617" lon="11.7224534"><ele>361.25</ele><time>2026-04-12T09:45:36.433Z</time></trkpt><trkpt lat="43.7454629" lon="11.7223073"><ele>361.5</ele><time>2026-04-12T09:45:37.431Z</time></trkpt><trkpt lat="43.7455601" lon="11.7221638"><ele>361.75</ele><time>2026-04-12T09:45:38.416Z</time></trkpt><trkpt lat="43.7456538" lon="11.7220163"><ele>362.0</ele><time>2026-04-12T09:45:39.344Z</time></trkpt><trkpt lat="43.7457412" lon="11.7218724"><ele>362.0</ele><time>2026-04-12T09:45:40.394Z</time></trkpt><trkpt lat="43.7458243" lon="11.7217278"><ele>362.0</ele><time>2026-04-12T09:45:41.379Z</time></trkpt><trkpt lat="43.7459079" lon="11.7215779"><ele>362.0</ele><time>2026-04-12T09:45:42.383Z</time></trkpt><trkpt lat="43.7459803" lon="11.7214206"><ele>362.0</ele><time>2026-04-12T09:45:43.364Z</time></trkpt><trkpt lat="43.7460487" lon="11.7212568"><ele>362.33333333333337</ele><time>2026-04-12T09:45:44.405Z</time></trkpt><trkpt lat="43.7461169" lon="11.7210811"><ele>362.6666666666667</ele><time>2026-04-12T09:45:45.613Z</time></trkpt><trkpt lat="43.7462297" lon="11.7207452"><ele>363.0</ele><time>2026-04-12T09:45:47.653Z</time></trkpt><trkpt lat="43.7463323" lon="11.7203999"><ele>363.0</ele><time>2026-04-12T09:45:49.602Z</time></trkpt><trkpt lat="43.7464306" lon="11.7200531"><ele>363.0</ele><time>2026-04-12T09:45:51.415Z</time></trkpt><trkpt lat="43.746485" lon="11.7198762"><ele>363.0</ele><time>2026-04-12T09:45:52.392Z</time></trkpt><trkpt lat="43.7465507" lon="11.7197069"><ele>363.0</ele><time>2026-04-12T09:45:53.409Z</time></trkpt><trkpt lat="43.7466326" lon="11.7195448"><ele>363.0</ele><time>2026-04-12T09:45:54.624Z</time></trkpt><trkpt lat="43.7468142" lon="11.7192301"><ele>363.0</ele><time>2026-04-12T09:45:56.418Z</time></trkpt><trkpt lat="43.7469084" lon="11.7190865"><ele>364.6666666666667</ele><time>2026-04-12T09:45:57.386Z</time></trkpt><trkpt lat="43.7470059" lon="11.7189511"><ele>366.33333333333337</ele><time>2026-04-12T09:45:58.413Z</time></trkpt><trkpt lat="43.7471094" lon="11.7188226"><ele>368.0</ele><time>2026-04-12T09:45:59.587Z</time></trkpt><trkpt lat="43.7473255" lon="11.7185864"><ele>368.25</ele><time>2026-04-12T09:46:01.37Z</time></trkpt><trkpt lat="43.7474384" lon="11.7184818"><ele>368.5</ele><time>2026-04-12T09:46:02.402Z</time></trkpt><trkpt lat="43.7475481" lon="11.7183766"><ele>368.75</ele><time>2026-04-12T09:46:03.386Z</time></trkpt><trkpt lat="43.7476611" lon="11.7182752"><ele>369.0</ele><time>2026-04-12T09:46:04.442Z</time></trkpt><trkpt lat="43.7477731" lon="11.7181729"><ele>371.0</ele><time>2026-04-12T09:46:05.382Z</time></trkpt><trkpt lat="43.7478869" lon="11.718072"><ele>373.0</ele><time>2026-04-12T09:46:06.397Z</time></trkpt><trkpt lat="43.7479997" lon="11.7179762"><ele>375.0</ele><time>2026-04-12T09:46:07.599Z</time></trkpt><trkpt lat="43.7482044" lon="11.7178008"><ele>374.2</ele><time>2026-04-12T09:46:09.41Z</time></trkpt><trkpt lat="43.7482985" lon="11.7177088"><ele>373.4</ele><time>2026-04-12T09:46:10.386Z</time></trkpt><trkpt lat="43.7483787" lon="11.7176091"><ele>372.6</ele><time>2026-04-12T09:46:11.384Z</time></trkpt><trkpt lat="43.7484444" lon="11.7174937"><ele>371.8</ele><time>2026-04-12T09:46:12.398Z</time></trkpt><trkpt lat="43.7484904" lon="11.7173723"><ele>371.0</ele><time>2026-04-12T09:46:13.402Z</time></trkpt><trkpt lat="43.7485009" lon="11.7172313"><ele>371.0</ele><time>2026-04-12T09:46:14.593Z</time></trkpt><trkpt lat="43.7484477" lon="11.7169423"><ele>371.0</ele><time>2026-04-12T09:46:16.396Z</time></trkpt><trkpt lat="43.748413" lon="11.7167932"><ele>371.0</ele><time>2026-04-12T09:46:17.402Z</time></trkpt><trkpt lat="43.7483783" lon="11.7166346"><ele>371.0</ele><time>2026-04-12T09:46:18.347Z</time></trkpt><trkpt lat="43.7483392" lon="11.7164727"><ele>371.0</ele><time>2026-04-12T09:46:19.406Z</time></trkpt><trkpt lat="43.7483036" lon="11.7163051"><ele>371.0</ele><time>2026-04-12T09:46:20.373Z</time></trkpt><trkpt lat="43.7482643" lon="11.7161341"><ele>371.0</ele><time>2026-04-12T09:46:21.401Z</time></trkpt><trkpt lat="43.7482251" lon="11.7159623"><ele>371.0</ele><time>2026-04-12T09:46:22.369Z</time></trkpt><trkpt lat="43.7481868" lon="11.7157979"><ele>371.0</ele><time>2026-04-12T09:46:23.327Z</time></trkpt><trkpt lat="43.7481506" lon="11.7156331"><ele>371.0</ele><time>2026-04-12T09:46:24.608Z</time></trkpt><trkpt lat="43.7480721" lon="11.7152877"><ele>371.0</ele><time>2026-04-12T09:46:26.389Z</time></trkpt><trkpt lat="43.7480318" lon="11.7151209"><ele>371.25</ele><time>2026-04-12T09:46:27.392Z</time></trkpt><trkpt lat="43.7479914" lon="11.7149546"><ele>371.5</ele><time>2026-04-12T09:46:28.39Z</time></trkpt><trkpt lat="43.7479462" lon="11.7147924"><ele>371.75</ele><time>2026-04-12T09:46:29.396Z</time></trkpt><trkpt lat="43.7478997" lon="11.71463"><ele>372.0</ele><time>2026-04-12T09:46:30.383Z</time></trkpt><trkpt lat="43.7478494" lon="11.7144695"><ele>372.6666666666667</ele><time>2026-04-12T09:46:31.369Z</time></trkpt><trkpt lat="43.747803" lon="11.7143115"><ele>373.33333333333337</ele><time>2026-04-12T09:46:32.369Z</time></trkpt><trkpt lat="43.7477574" lon="11.7141579"><ele>374.0</ele><time>2026-04-12T09:46:33.59Z</time></trkpt><trkpt lat="43.7476578" lon="11.7138628"><ele>376.5</ele><time>2026-04-12T09:46:35.601Z</time></trkpt><trkpt lat="43.7475555" lon="11.7135576"><ele>379.0</ele><time>2026-04-12T09:46:37.607Z</time></trkpt><trkpt lat="43.747448" lon="11.7132342"><ele>379.0</ele><time>2026-04-12T09:46:39.624Z</time></trkpt><trkpt lat="43.7473398" lon="11.7129177"><ele>379.0</ele><time>2026-04-12T09:46:41.398Z</time></trkpt><trkpt lat="43.7472773" lon="11.7127733"><ele>379.0</ele><time>2026-04-12T09:46:42.405Z</time></trkpt><trkpt lat="43.7471914" lon="11.7126418"><ele>378.3333333333333</ele><time>2026-04-12T09:46:43.398Z</time></trkpt><trkpt lat="43.7470911" lon="11.7125215"><ele>377.6666666666667</ele><time>2026-04-12T09:46:44.596Z</time></trkpt><trkpt lat="43.7468761" lon="11.7122941"><ele>377.0</ele><time>2026-04-12T09:46:46.41Z</time></trkpt><trkpt lat="43.7467686" lon="11.7121833"><ele>377.0</ele><time>2026-04-12T09:46:47.416Z</time></trkpt><trkpt lat="43.7466657" lon="11.7120733"><ele>377.0</ele><time>2026-04-12T09:46:48.345Z</time></trkpt><trkpt lat="43.7465657" lon="11.711968"><ele>377.0</ele><time>2026-04-12T09:46:49.549Z</time></trkpt><trkpt lat="43.7463771" lon="11.7117598"><ele>377.33333333333337</ele><time>2026-04-12T09:46:51.41Z</time></trkpt><trkpt lat="43.7462801" lon="11.7116581"><ele>377.6666666666667</ele><time>2026-04-12T09:46:52.4Z</time></trkpt><trkpt lat="43.7461893" lon="11.7115551"><ele>378.0</ele><time>2026-04-12T09:46:53.667Z</time></trkpt><trkpt lat="43.7460232" lon="11.7113583"><ele>378.0</ele><time>2026-04-12T09:46:55.575Z</time></trkpt><trkpt lat="43.7458856" lon="11.7111524"><ele>378.0</ele><time>2026-04-12T09:46:57.57Z</time></trkpt><trkpt lat="43.7457469" lon="11.7109483"><ele>378.0</ele><time>2026-04-12T09:46:59.41Z</time></trkpt><trkpt lat="43.7456756" lon="11.7108518"><ele>379.0</ele><time>2026-04-12T09:47:00.418Z</time></trkpt><trkpt lat="43.7456127" lon="11.7107604"><ele>380.0</ele><time>2026-04-12T09:47:01.415Z</time></trkpt><trkpt lat="43.7455557" lon="11.7106714"><ele>381.0</ele><time>2026-04-12T09:47:02.407Z</time></trkpt><trkpt lat="43.7455012" lon="11.7106145"><ele>382.0</ele><time>2026-04-12T09:47:03.378Z</time></trkpt><trkpt lat="43.7453594" lon="11.7105754"><ele>383.0</ele><time>2026-04-12T09:47:06.384Z</time></trkpt><trkpt lat="43.7452983" lon="11.7105402"><ele>383.0</ele><time>2026-04-12T09:47:08.407Z</time></trkpt><trkpt lat="43.7452359" lon="11.7105586"><ele>383.0</ele><time>2026-04-12T09:47:13.369Z</time></trkpt><trkpt lat="43.7452486" lon="11.7106645"><ele>383.0</ele><time>2026-04-12T09:48:56.373Z</time></trkpt><trkpt lat="43.7452071" lon="11.7105821"><ele>377.0</ele><time>2026-04-12T09:49:05.372Z</time></trkpt></trkseg></trk></gpx>